<?xml version="1.0" encoding="UTF-8" standalone="no" ?>
<gpx xmlns="http://www.topografix.com/GPX/1/1" xmlns:xsi="http://www.w3.org/2001/XMLSchema-instance" xsi:schemaLocation="http://www.topografix.com/GPX/1/1 http://www.topografix.com/GPX/1/1/gpx.xsd" version="1.1" creator="VisuGPX - https://www.visugpx.com">
  <metadata>
    <name>2016-02-26 Bike ride-Saule d'Oingt&gt;Oingt&gt;Frontanas</name>
    <desc><![CDATA[2016-02-26 Bike ride-Saule d'Oingt>Oingt>Frontanas]]></desc>
  </metadata>
  <wpt lat="45.92493" lon="4.73675">
    <ele>160.2</ele>
    <name><![CDATA[2016-02-26 10:25 (Start)]]></name>
  </wpt>
  <wpt lat="45.92461" lon="4.73706">
    <ele>170</ele>
    <name><![CDATA[2016-02-26 10:25 (End)]]></name>
    <desc><![CDATA[Created by Google My Tracks on Android  Name: 2016-02-26 10:25 Activity type: biking Description: - Total distance: 39.61 km (24.6 mi) Total time: 2:19:51 Moving time: 2:17:11 Average speed: 16.99 km/h (10.6 mi/h) Average moving speed: 17.32 km/h (10.8 mi/h) Max speed: 47.41 km/h (29.5 mi/h) Average pace: 3:32 min/km (5:41 min/mi) Average moving pace: 3:28 min/km (5:34 min/mi) Fastest pace: 1:16 min/km (2:02 min/mi) Max elevation: 550 m (1804 ft) Min elevation: 160 m (526 ft) Elevation gain: 840 m (2755 ft) Max grade: 17 % Min grade: -10 % Recorded: 26/02/2016 10:25]]></desc>
  </wpt>
  <trk>
    <name><![CDATA[2016-02-26 10:25]]></name>
    <trkseg>
      <trkpt lat="45.92493" lon="4.73675">
        <ele>160.199996948</ele>
        <time>2016-02-26T09:25:28.759Z</time>
      </trkpt>
      <trkpt lat="45.92495" lon="4.73677">
        <ele>163.199996948</ele>
        <time>2016-02-26T09:25:43.212Z</time>
      </trkpt>
      <trkpt lat="45.92461" lon="4.73706">
        <ele>160.5</ele>
        <time>2016-02-26T09:25:45.883Z</time>
      </trkpt>
      <trkpt lat="45.9247" lon="4.73704">
        <ele>167.199996948</ele>
        <time>2016-02-26T09:26:32.079Z</time>
      </trkpt>
      <trkpt lat="45.92471" lon="4.73703">
        <ele>167.300003052</ele>
        <time>2016-02-26T09:26:32.883Z</time>
      </trkpt>
      <trkpt lat="45.92471" lon="4.73703">
        <ele>167.300003052</ele>
        <time>2016-02-26T09:26:32.914Z</time>
      </trkpt>
      <trkpt lat="45.92472" lon="4.73702">
        <ele>167.5</ele>
        <time>2016-02-26T09:26:33.933Z</time>
      </trkpt>
      <trkpt lat="45.92473" lon="4.7369">
        <ele>168.800003052</ele>
        <time>2016-02-26T09:26:38.972Z</time>
      </trkpt>
      <trkpt lat="45.92473" lon="4.73686">
        <ele>168.699996948</ele>
        <time>2016-02-26T09:26:39.887Z</time>
      </trkpt>
      <trkpt lat="45.92473" lon="4.73678">
        <ele>168</ele>
        <time>2016-02-26T09:26:41.911Z</time>
      </trkpt>
      <trkpt lat="45.92474" lon="4.73673">
        <ele>168</ele>
        <time>2016-02-26T09:26:42.887Z</time>
      </trkpt>
      <trkpt lat="45.92475" lon="4.73663">
        <ele>167.5</ele>
        <time>2016-02-26T09:26:44.905Z</time>
      </trkpt>
      <trkpt lat="45.92475" lon="4.73658">
        <ele>167.399993896</ele>
        <time>2016-02-26T09:26:45.885Z</time>
      </trkpt>
      <trkpt lat="45.92477" lon="4.73649">
        <ele>167.199996948</ele>
        <time>2016-02-26T09:26:47.907Z</time>
      </trkpt>
      <trkpt lat="45.92478" lon="4.73645">
        <ele>167.100006104</ele>
        <time>2016-02-26T09:26:48.89Z</time>
      </trkpt>
      <trkpt lat="45.92484" lon="4.73641">
        <ele>167.100006104</ele>
        <time>2016-02-26T09:26:50.918Z</time>
      </trkpt>
      <trkpt lat="45.92488" lon="4.7364">
        <ele>167.100006104</ele>
        <time>2016-02-26T09:26:51.882Z</time>
      </trkpt>
      <trkpt lat="45.92495" lon="4.7364">
        <ele>166.899993896</ele>
        <time>2016-02-26T09:26:53.921Z</time>
      </trkpt>
      <trkpt lat="45.92499" lon="4.7364">
        <ele>166.899993896</ele>
        <time>2016-02-26T09:26:54.885Z</time>
      </trkpt>
      <trkpt lat="45.92507" lon="4.7364">
        <ele>167.399993896</ele>
        <time>2016-02-26T09:26:56.909Z</time>
      </trkpt>
      <trkpt lat="45.92512" lon="4.73639">
        <ele>167</ele>
        <time>2016-02-26T09:26:57.882Z</time>
      </trkpt>
      <trkpt lat="45.92516" lon="4.73639">
        <ele>167.100006104</ele>
        <time>2016-02-26T09:26:58.903Z</time>
      </trkpt>
      <trkpt lat="45.92521" lon="4.73639">
        <ele>167.199996948</ele>
        <time>2016-02-26T09:26:59.887Z</time>
      </trkpt>
      <trkpt lat="45.92526" lon="4.73638">
        <ele>167.199996948</ele>
        <time>2016-02-26T09:27:00.906Z</time>
      </trkpt>
      <trkpt lat="45.92531" lon="4.73638">
        <ele>167.100006104</ele>
        <time>2016-02-26T09:27:01.884Z</time>
      </trkpt>
      <trkpt lat="45.92536" lon="4.73638">
        <ele>167.300003052</ele>
        <time>2016-02-26T09:27:02.948Z</time>
      </trkpt>
      <trkpt lat="45.9254" lon="4.73637">
        <ele>167.199996948</ele>
        <time>2016-02-26T09:27:03.894Z</time>
      </trkpt>
      <trkpt lat="45.92545" lon="4.73636">
        <ele>167.399993896</ele>
        <time>2016-02-26T09:27:04.903Z</time>
      </trkpt>
      <trkpt lat="45.9255" lon="4.73635">
        <ele>168</ele>
        <time>2016-02-26T09:27:05.881Z</time>
      </trkpt>
      <trkpt lat="45.92555" lon="4.73635">
        <ele>168.399993896</ele>
        <time>2016-02-26T09:27:06.908Z</time>
      </trkpt>
      <trkpt lat="45.9256" lon="4.73634">
        <ele>168.399993896</ele>
        <time>2016-02-26T09:27:07.882Z</time>
      </trkpt>
      <trkpt lat="45.92564" lon="4.73632">
        <ele>168.5</ele>
        <time>2016-02-26T09:27:08.904Z</time>
      </trkpt>
      <trkpt lat="45.92569" lon="4.7363">
        <ele>168.800003052</ele>
        <time>2016-02-26T09:27:09.883Z</time>
      </trkpt>
      <trkpt lat="45.92574" lon="4.73627">
        <ele>169.5</ele>
        <time>2016-02-26T09:27:10.956Z</time>
      </trkpt>
      <trkpt lat="45.92579" lon="4.73626">
        <ele>169.5</ele>
        <time>2016-02-26T09:27:11.882Z</time>
      </trkpt>
      <trkpt lat="45.92584" lon="4.73624">
        <ele>169.699996948</ele>
        <time>2016-02-26T09:27:12.932Z</time>
      </trkpt>
      <trkpt lat="45.92589" lon="4.73624">
        <ele>169.699996948</ele>
        <time>2016-02-26T09:27:13.899Z</time>
      </trkpt>
      <trkpt lat="45.92594" lon="4.73624">
        <ele>170.100006104</ele>
        <time>2016-02-26T09:27:14.904Z</time>
      </trkpt>
      <trkpt lat="45.92599" lon="4.73624">
        <ele>170.100006104</ele>
        <time>2016-02-26T09:27:15.883Z</time>
      </trkpt>
      <trkpt lat="45.92605" lon="4.73624">
        <ele>170.399993896</ele>
        <time>2016-02-26T09:27:16.906Z</time>
      </trkpt>
      <trkpt lat="45.9261" lon="4.73624">
        <ele>170.600006104</ele>
        <time>2016-02-26T09:27:17.887Z</time>
      </trkpt>
      <trkpt lat="45.92617" lon="4.73627">
        <ele>169.699996948</ele>
        <time>2016-02-26T09:27:18.91Z</time>
      </trkpt>
      <trkpt lat="45.92621" lon="4.73631">
        <ele>170.300003052</ele>
        <time>2016-02-26T09:27:19.948Z</time>
      </trkpt>
      <trkpt lat="45.92625" lon="4.73636">
        <ele>170.399993896</ele>
        <time>2016-02-26T09:27:20.905Z</time>
      </trkpt>
      <trkpt lat="45.92628" lon="4.73643">
        <ele>169.899993896</ele>
        <time>2016-02-26T09:27:21.886Z</time>
      </trkpt>
      <trkpt lat="45.92631" lon="4.7365">
        <ele>169.899993896</ele>
        <time>2016-02-26T09:27:22.908Z</time>
      </trkpt>
      <trkpt lat="45.92633" lon="4.73657">
        <ele>169.600006104</ele>
        <time>2016-02-26T09:27:23.958Z</time>
      </trkpt>
      <trkpt lat="45.92636" lon="4.73664">
        <ele>169.199996948</ele>
        <time>2016-02-26T09:27:24.906Z</time>
      </trkpt>
      <trkpt lat="45.92639" lon="4.73671">
        <ele>169.100006104</ele>
        <time>2016-02-26T09:27:25.884Z</time>
      </trkpt>
      <trkpt lat="45.92643" lon="4.73677">
        <ele>169.300003052</ele>
        <time>2016-02-26T09:27:26.923Z</time>
      </trkpt>
      <trkpt lat="45.92647" lon="4.73683">
        <ele>169</ele>
        <time>2016-02-26T09:27:27.883Z</time>
      </trkpt>
      <trkpt lat="45.92651" lon="4.73689">
        <ele>169</ele>
        <time>2016-02-26T09:27:28.907Z</time>
      </trkpt>
      <trkpt lat="45.92656" lon="4.73694">
        <ele>169.199996948</ele>
        <time>2016-02-26T09:27:29.91Z</time>
      </trkpt>
      <trkpt lat="45.92661" lon="4.73698">
        <ele>169.300003052</ele>
        <time>2016-02-26T09:27:30.91Z</time>
      </trkpt>
      <trkpt lat="45.92666" lon="4.73702">
        <ele>169.300003052</ele>
        <time>2016-02-26T09:27:31.949Z</time>
      </trkpt>
      <trkpt lat="45.92672" lon="4.73705">
        <ele>169.699996948</ele>
        <time>2016-02-26T09:27:32.903Z</time>
      </trkpt>
      <trkpt lat="45.92677" lon="4.73708">
        <ele>169.600006104</ele>
        <time>2016-02-26T09:27:33.894Z</time>
      </trkpt>
      <trkpt lat="45.92683" lon="4.7371">
        <ele>169.699996948</ele>
        <time>2016-02-26T09:27:34.903Z</time>
      </trkpt>
      <trkpt lat="45.92689" lon="4.73711">
        <ele>169.399993896</ele>
        <time>2016-02-26T09:27:35.883Z</time>
      </trkpt>
      <trkpt lat="45.92695" lon="4.73712">
        <ele>168.800003052</ele>
        <time>2016-02-26T09:27:36.937Z</time>
      </trkpt>
      <trkpt lat="45.927" lon="4.73713">
        <ele>168.5</ele>
        <time>2016-02-26T09:27:37.883Z</time>
      </trkpt>
      <trkpt lat="45.92706" lon="4.73713">
        <ele>168.899993896</ele>
        <time>2016-02-26T09:27:38.906Z</time>
      </trkpt>
      <trkpt lat="45.92711" lon="4.73714">
        <ele>169.699996948</ele>
        <time>2016-02-26T09:27:39.884Z</time>
      </trkpt>
      <trkpt lat="45.92716" lon="4.73715">
        <ele>169.600006104</ele>
        <time>2016-02-26T09:27:40.905Z</time>
      </trkpt>
      <trkpt lat="45.92722" lon="4.73715">
        <ele>170.600006104</ele>
        <time>2016-02-26T09:27:41.882Z</time>
      </trkpt>
      <trkpt lat="45.92727" lon="4.73717">
        <ele>170.699996948</ele>
        <time>2016-02-26T09:27:42.905Z</time>
      </trkpt>
      <trkpt lat="45.92732" lon="4.73718">
        <ele>171.5</ele>
        <time>2016-02-26T09:27:43.894Z</time>
      </trkpt>
      <trkpt lat="45.92737" lon="4.7372">
        <ele>171.800003052</ele>
        <time>2016-02-26T09:27:44.904Z</time>
      </trkpt>
      <trkpt lat="45.92742" lon="4.73722">
        <ele>171.899993896</ele>
        <time>2016-02-26T09:27:45.883Z</time>
      </trkpt>
      <trkpt lat="45.92747" lon="4.73723">
        <ele>172.300003052</ele>
        <time>2016-02-26T09:27:46.918Z</time>
      </trkpt>
      <trkpt lat="45.92752" lon="4.73724">
        <ele>172.800003052</ele>
        <time>2016-02-26T09:27:47.884Z</time>
      </trkpt>
      <trkpt lat="45.92758" lon="4.73727">
        <ele>172.800003052</ele>
        <time>2016-02-26T09:27:48.911Z</time>
      </trkpt>
      <trkpt lat="45.92762" lon="4.73729">
        <ele>173.100006104</ele>
        <time>2016-02-26T09:27:49.938Z</time>
      </trkpt>
      <trkpt lat="45.92767" lon="4.73731">
        <ele>173.899993896</ele>
        <time>2016-02-26T09:27:50.905Z</time>
      </trkpt>
      <trkpt lat="45.9277" lon="4.73733">
        <ele>174.600006104</ele>
        <time>2016-02-26T09:27:51.882Z</time>
      </trkpt>
      <trkpt lat="45.92778" lon="4.73737">
        <ele>175</ele>
        <time>2016-02-26T09:27:54.959Z</time>
      </trkpt>
      <trkpt lat="45.92781" lon="4.73738">
        <ele>174.699996948</ele>
        <time>2016-02-26T09:27:55.884Z</time>
      </trkpt>
      <trkpt lat="45.92787" lon="4.73734">
        <ele>173.300003052</ele>
        <time>2016-02-26T09:27:58.902Z</time>
      </trkpt>
      <trkpt lat="45.92787" lon="4.73729">
        <ele>172.199996948</ele>
        <time>2016-02-26T09:27:59.884Z</time>
      </trkpt>
      <trkpt lat="45.92789" lon="4.73718">
        <ele>171.5</ele>
        <time>2016-02-26T09:28:01.904Z</time>
      </trkpt>
      <trkpt lat="45.9279" lon="4.73712">
        <ele>171</ele>
        <time>2016-02-26T09:28:02.886Z</time>
      </trkpt>
      <trkpt lat="45.92791" lon="4.73705">
        <ele>171.100006104</ele>
        <time>2016-02-26T09:28:03.922Z</time>
      </trkpt>
      <trkpt lat="45.92793" lon="4.73699">
        <ele>171.199996948</ele>
        <time>2016-02-26T09:28:04.886Z</time>
      </trkpt>
      <trkpt lat="45.92795" lon="4.73692">
        <ele>171.199996948</ele>
        <time>2016-02-26T09:28:05.902Z</time>
      </trkpt>
      <trkpt lat="45.92796" lon="4.73685">
        <ele>171</ele>
        <time>2016-02-26T09:28:06.921Z</time>
      </trkpt>
      <trkpt lat="45.92798" lon="4.73679">
        <ele>170.699996948</ele>
        <time>2016-02-26T09:28:07.902Z</time>
      </trkpt>
      <trkpt lat="45.928" lon="4.73671">
        <ele>170.800003052</ele>
        <time>2016-02-26T09:28:08.882Z</time>
      </trkpt>
      <trkpt lat="45.92802" lon="4.73665">
        <ele>170.699996948</ele>
        <time>2016-02-26T09:28:09.903Z</time>
      </trkpt>
      <trkpt lat="45.92802" lon="4.73658">
        <ele>171</ele>
        <time>2016-02-26T09:28:10.885Z</time>
      </trkpt>
      <trkpt lat="45.92805" lon="4.73645">
        <ele>171.800003052</ele>
        <time>2016-02-26T09:28:12.908Z</time>
      </trkpt>
      <trkpt lat="45.92806" lon="4.7364">
        <ele>171.699996948</ele>
        <time>2016-02-26T09:28:13.907Z</time>
      </trkpt>
      <trkpt lat="45.92811" lon="4.73632">
        <ele>172.600006104</ele>
        <time>2016-02-26T09:28:15.916Z</time>
      </trkpt>
      <trkpt lat="45.92813" lon="4.7363">
        <ele>172.600006104</ele>
        <time>2016-02-26T09:28:16.882Z</time>
      </trkpt>
      <trkpt lat="45.92816" lon="4.7363">
        <ele>172.600006104</ele>
        <time>2016-02-26T09:28:19.905Z</time>
      </trkpt>
      <trkpt lat="45.92817" lon="4.7363">
        <ele>172.699996948</ele>
        <time>2016-02-26T09:28:20.883Z</time>
      </trkpt>
      <trkpt lat="45.9282" lon="4.73627">
        <ele>172.600006104</ele>
        <time>2016-02-26T09:28:22.915Z</time>
      </trkpt>
      <trkpt lat="45.92821" lon="4.73624">
        <ele>173.100006104</ele>
        <time>2016-02-26T09:28:23.9Z</time>
      </trkpt>
      <trkpt lat="45.92822" lon="4.73615">
        <ele>173.600006104</ele>
        <time>2016-02-26T09:28:25.938Z</time>
      </trkpt>
      <trkpt lat="45.92821" lon="4.7361">
        <ele>173.800003052</ele>
        <time>2016-02-26T09:28:26.886Z</time>
      </trkpt>
      <trkpt lat="45.92821" lon="4.73599">
        <ele>174.399993896</ele>
        <time>2016-02-26T09:28:28.92Z</time>
      </trkpt>
      <trkpt lat="45.92821" lon="4.73594">
        <ele>174.399993896</ele>
        <time>2016-02-26T09:28:29.889Z</time>
      </trkpt>
      <trkpt lat="45.9282" lon="4.73581">
        <ele>174.600006104</ele>
        <time>2016-02-26T09:28:32.001Z</time>
      </trkpt>
      <trkpt lat="45.92821" lon="4.73575">
        <ele>174.699996948</ele>
        <time>2016-02-26T09:28:32.891Z</time>
      </trkpt>
      <trkpt lat="45.92821" lon="4.73568">
        <ele>174.899993896</ele>
        <time>2016-02-26T09:28:33.935Z</time>
      </trkpt>
      <trkpt lat="45.92822" lon="4.7356">
        <ele>174.600006104</ele>
        <time>2016-02-26T09:28:34.926Z</time>
      </trkpt>
      <trkpt lat="45.92823" lon="4.73553">
        <ele>174.399993896</ele>
        <time>2016-02-26T09:28:35.908Z</time>
      </trkpt>
      <trkpt lat="45.92823" lon="4.73545">
        <ele>174.300003052</ele>
        <time>2016-02-26T09:28:36.891Z</time>
      </trkpt>
      <trkpt lat="45.92824" lon="4.73538">
        <ele>174.5</ele>
        <time>2016-02-26T09:28:38.08Z</time>
      </trkpt>
      <trkpt lat="45.92824" lon="4.7353">
        <ele>174.5</ele>
        <time>2016-02-26T09:28:38.887Z</time>
      </trkpt>
      <trkpt lat="45.92824" lon="4.73523">
        <ele>174.699996948</ele>
        <time>2016-02-26T09:28:39.985Z</time>
      </trkpt>
      <trkpt lat="45.92825" lon="4.73516">
        <ele>174.899993896</ele>
        <time>2016-02-26T09:28:40.891Z</time>
      </trkpt>
      <trkpt lat="45.92826" lon="4.73508">
        <ele>174.699996948</ele>
        <time>2016-02-26T09:28:41.936Z</time>
      </trkpt>
      <trkpt lat="45.92828" lon="4.735">
        <ele>174.800003052</ele>
        <time>2016-02-26T09:28:42.891Z</time>
      </trkpt>
      <trkpt lat="45.92829" lon="4.73492">
        <ele>174.699996948</ele>
        <time>2016-02-26T09:28:43.914Z</time>
      </trkpt>
      <trkpt lat="45.9283" lon="4.73483">
        <ele>174.800003052</ele>
        <time>2016-02-26T09:28:44.92Z</time>
      </trkpt>
      <trkpt lat="45.92831" lon="4.73475">
        <ele>174.800003052</ele>
        <time>2016-02-26T09:28:45.908Z</time>
      </trkpt>
      <trkpt lat="45.92832" lon="4.73467">
        <ele>174.899993896</ele>
        <time>2016-02-26T09:28:46.887Z</time>
      </trkpt>
      <trkpt lat="45.92833" lon="4.73459">
        <ele>174.899993896</ele>
        <time>2016-02-26T09:28:47.905Z</time>
      </trkpt>
      <trkpt lat="45.92834" lon="4.7345">
        <ele>174.899993896</ele>
        <time>2016-02-26T09:28:48.887Z</time>
      </trkpt>
      <trkpt lat="45.92835" lon="4.73442">
        <ele>175</ele>
        <time>2016-02-26T09:28:49.904Z</time>
      </trkpt>
      <trkpt lat="45.92836" lon="4.73433">
        <ele>175</ele>
        <time>2016-02-26T09:28:50.887Z</time>
      </trkpt>
      <trkpt lat="45.92838" lon="4.73424">
        <ele>174.699996948</ele>
        <time>2016-02-26T09:28:51.905Z</time>
      </trkpt>
      <trkpt lat="45.92839" lon="4.73415">
        <ele>174.399993896</ele>
        <time>2016-02-26T09:28:52.882Z</time>
      </trkpt>
      <trkpt lat="45.9284" lon="4.73406">
        <ele>174</ele>
        <time>2016-02-26T09:28:53.924Z</time>
      </trkpt>
      <trkpt lat="45.92841" lon="4.73398">
        <ele>173.800003052</ele>
        <time>2016-02-26T09:28:54.885Z</time>
      </trkpt>
      <trkpt lat="45.92841" lon="4.73391">
        <ele>173.399993896</ele>
        <time>2016-02-26T09:28:55.925Z</time>
      </trkpt>
      <trkpt lat="45.92843" lon="4.73383">
        <ele>173.300003052</ele>
        <time>2016-02-26T09:28:56.885Z</time>
      </trkpt>
      <trkpt lat="45.92844" lon="4.73375">
        <ele>172.600006104</ele>
        <time>2016-02-26T09:28:57.906Z</time>
      </trkpt>
      <trkpt lat="45.92845" lon="4.73367">
        <ele>172.300003052</ele>
        <time>2016-02-26T09:28:58.908Z</time>
      </trkpt>
      <trkpt lat="45.92846" lon="4.73359">
        <ele>171.899993896</ele>
        <time>2016-02-26T09:28:59.908Z</time>
      </trkpt>
      <trkpt lat="45.92847" lon="4.73351">
        <ele>171.600006104</ele>
        <time>2016-02-26T09:29:00.887Z</time>
      </trkpt>
      <trkpt lat="45.92848" lon="4.73343">
        <ele>171.600006104</ele>
        <time>2016-02-26T09:29:01.904Z</time>
      </trkpt>
      <trkpt lat="45.92849" lon="4.73335">
        <ele>171.399993896</ele>
        <time>2016-02-26T09:29:02.883Z</time>
      </trkpt>
      <trkpt lat="45.9285" lon="4.73327">
        <ele>170.899993896</ele>
        <time>2016-02-26T09:29:03.918Z</time>
      </trkpt>
      <trkpt lat="45.92851" lon="4.73319">
        <ele>170.600006104</ele>
        <time>2016-02-26T09:29:04.887Z</time>
      </trkpt>
      <trkpt lat="45.92852" lon="4.73311">
        <ele>170.399993896</ele>
        <time>2016-02-26T09:29:05.916Z</time>
      </trkpt>
      <trkpt lat="45.92853" lon="4.73302">
        <ele>170.199996948</ele>
        <time>2016-02-26T09:29:06.889Z</time>
      </trkpt>
      <trkpt lat="45.92854" lon="4.73294">
        <ele>170</ele>
        <time>2016-02-26T09:29:07.905Z</time>
      </trkpt>
      <trkpt lat="45.92855" lon="4.73286">
        <ele>170.100006104</ele>
        <time>2016-02-26T09:29:08.938Z</time>
      </trkpt>
      <trkpt lat="45.92856" lon="4.73277">
        <ele>170.100006104</ele>
        <time>2016-02-26T09:29:09.903Z</time>
      </trkpt>
      <trkpt lat="45.92858" lon="4.73268">
        <ele>169.899993896</ele>
        <time>2016-02-26T09:29:10.885Z</time>
      </trkpt>
      <trkpt lat="45.92859" lon="4.7326">
        <ele>169.699996948</ele>
        <time>2016-02-26T09:29:11.922Z</time>
      </trkpt>
      <trkpt lat="45.9286" lon="4.73251">
        <ele>169.699996948</ele>
        <time>2016-02-26T09:29:12.886Z</time>
      </trkpt>
      <trkpt lat="45.92862" lon="4.73243">
        <ele>169.899993896</ele>
        <time>2016-02-26T09:29:13.929Z</time>
      </trkpt>
      <trkpt lat="45.92862" lon="4.73235">
        <ele>170</ele>
        <time>2016-02-26T09:29:14.885Z</time>
      </trkpt>
      <trkpt lat="45.92863" lon="4.73226">
        <ele>169.899993896</ele>
        <time>2016-02-26T09:29:15.905Z</time>
      </trkpt>
      <trkpt lat="45.92864" lon="4.73218">
        <ele>170</ele>
        <time>2016-02-26T09:29:16.882Z</time>
      </trkpt>
      <trkpt lat="45.92865" lon="4.7321">
        <ele>170.100006104</ele>
        <time>2016-02-26T09:29:17.906Z</time>
      </trkpt>
      <trkpt lat="45.92866" lon="4.73202">
        <ele>170.300003052</ele>
        <time>2016-02-26T09:29:18.886Z</time>
      </trkpt>
      <trkpt lat="45.92867" lon="4.73194">
        <ele>170.100006104</ele>
        <time>2016-02-26T09:29:19.904Z</time>
      </trkpt>
      <trkpt lat="45.92868" lon="4.73185">
        <ele>170.199996948</ele>
        <time>2016-02-26T09:29:20.885Z</time>
      </trkpt>
      <trkpt lat="45.92868" lon="4.73177">
        <ele>170.100006104</ele>
        <time>2016-02-26T09:29:21.905Z</time>
      </trkpt>
      <trkpt lat="45.92869" lon="4.73168">
        <ele>169.800003052</ele>
        <time>2016-02-26T09:29:22.886Z</time>
      </trkpt>
      <trkpt lat="45.9287" lon="4.7316">
        <ele>169.800003052</ele>
        <time>2016-02-26T09:29:23.92Z</time>
      </trkpt>
      <trkpt lat="45.92871" lon="4.73151">
        <ele>169.899993896</ele>
        <time>2016-02-26T09:29:24.885Z</time>
      </trkpt>
      <trkpt lat="45.92873" lon="4.73143">
        <ele>169.899993896</ele>
        <time>2016-02-26T09:29:25.903Z</time>
      </trkpt>
      <trkpt lat="45.92874" lon="4.73134">
        <ele>169.899993896</ele>
        <time>2016-02-26T09:29:26.886Z</time>
      </trkpt>
      <trkpt lat="45.92876" lon="4.73126">
        <ele>170.199996948</ele>
        <time>2016-02-26T09:29:27.906Z</time>
      </trkpt>
      <trkpt lat="45.92877" lon="4.73118">
        <ele>170.199996948</ele>
        <time>2016-02-26T09:29:28.888Z</time>
      </trkpt>
      <trkpt lat="45.92879" lon="4.7311">
        <ele>169.899993896</ele>
        <time>2016-02-26T09:29:29.902Z</time>
      </trkpt>
      <trkpt lat="45.92882" lon="4.73102">
        <ele>169.699996948</ele>
        <time>2016-02-26T09:29:30.894Z</time>
      </trkpt>
      <trkpt lat="45.92884" lon="4.73094">
        <ele>169.899993896</ele>
        <time>2016-02-26T09:29:31.903Z</time>
      </trkpt>
      <trkpt lat="45.92887" lon="4.73086">
        <ele>169.899993896</ele>
        <time>2016-02-26T09:29:32.885Z</time>
      </trkpt>
      <trkpt lat="45.92891" lon="4.73079">
        <ele>169.699996948</ele>
        <time>2016-02-26T09:29:33.937Z</time>
      </trkpt>
      <trkpt lat="45.92894" lon="4.73072">
        <ele>169.5</ele>
        <time>2016-02-26T09:29:34.882Z</time>
      </trkpt>
      <trkpt lat="45.92898" lon="4.73065">
        <ele>169.600006104</ele>
        <time>2016-02-26T09:29:35.902Z</time>
      </trkpt>
      <trkpt lat="45.92901" lon="4.73058">
        <ele>169.5</ele>
        <time>2016-02-26T09:29:36.887Z</time>
      </trkpt>
      <trkpt lat="45.92904" lon="4.73051">
        <ele>169.300003052</ele>
        <time>2016-02-26T09:29:37.903Z</time>
      </trkpt>
      <trkpt lat="45.92908" lon="4.73045">
        <ele>169.300003052</ele>
        <time>2016-02-26T09:29:38.887Z</time>
      </trkpt>
      <trkpt lat="45.92912" lon="4.73039">
        <ele>169.100006104</ele>
        <time>2016-02-26T09:29:39.905Z</time>
      </trkpt>
      <trkpt lat="45.92917" lon="4.73033">
        <ele>169</ele>
        <time>2016-02-26T09:29:40.882Z</time>
      </trkpt>
      <trkpt lat="45.92921" lon="4.73028">
        <ele>168.600006104</ele>
        <time>2016-02-26T09:29:41.907Z</time>
      </trkpt>
      <trkpt lat="45.92926" lon="4.73023">
        <ele>168.5</ele>
        <time>2016-02-26T09:29:42.904Z</time>
      </trkpt>
      <trkpt lat="45.9293" lon="4.73018">
        <ele>168.699996948</ele>
        <time>2016-02-26T09:29:43.922Z</time>
      </trkpt>
      <trkpt lat="45.92935" lon="4.73013">
        <ele>168.699996948</ele>
        <time>2016-02-26T09:29:44.881Z</time>
      </trkpt>
      <trkpt lat="45.92939" lon="4.73008">
        <ele>168.699996948</ele>
        <time>2016-02-26T09:29:45.902Z</time>
      </trkpt>
      <trkpt lat="45.92942" lon="4.73003">
        <ele>168.5</ele>
        <time>2016-02-26T09:29:46.885Z</time>
      </trkpt>
      <trkpt lat="45.92946" lon="4.72998">
        <ele>168.199996948</ele>
        <time>2016-02-26T09:29:47.907Z</time>
      </trkpt>
      <trkpt lat="45.92951" lon="4.72992">
        <ele>167.899993896</ele>
        <time>2016-02-26T09:29:48.885Z</time>
      </trkpt>
      <trkpt lat="45.92955" lon="4.72987">
        <ele>168.100006104</ele>
        <time>2016-02-26T09:29:50.043Z</time>
      </trkpt>
      <trkpt lat="45.92959" lon="4.72982">
        <ele>168.199996948</ele>
        <time>2016-02-26T09:29:50.886Z</time>
      </trkpt>
      <trkpt lat="45.92964" lon="4.72976">
        <ele>167.899993896</ele>
        <time>2016-02-26T09:29:51.902Z</time>
      </trkpt>
      <trkpt lat="45.92968" lon="4.72971">
        <ele>167.699996948</ele>
        <time>2016-02-26T09:29:52.881Z</time>
      </trkpt>
      <trkpt lat="45.92973" lon="4.72965">
        <ele>166.899993896</ele>
        <time>2016-02-26T09:29:53.965Z</time>
      </trkpt>
      <trkpt lat="45.92978" lon="4.7296">
        <ele>167.300003052</ele>
        <time>2016-02-26T09:29:54.886Z</time>
      </trkpt>
      <trkpt lat="45.92983" lon="4.72954">
        <ele>167.199996948</ele>
        <time>2016-02-26T09:29:55.904Z</time>
      </trkpt>
      <trkpt lat="45.92988" lon="4.72947">
        <ele>167.800003052</ele>
        <time>2016-02-26T09:29:56.885Z</time>
      </trkpt>
      <trkpt lat="45.92992" lon="4.72941">
        <ele>169.199996948</ele>
        <time>2016-02-26T09:29:57.905Z</time>
      </trkpt>
      <trkpt lat="45.92997" lon="4.72935">
        <ele>169.800003052</ele>
        <time>2016-02-26T09:29:58.887Z</time>
      </trkpt>
      <trkpt lat="45.93002" lon="4.72929">
        <ele>170.300003052</ele>
        <time>2016-02-26T09:29:59.907Z</time>
      </trkpt>
      <trkpt lat="45.93007" lon="4.72923">
        <ele>170.5</ele>
        <time>2016-02-26T09:30:00.889Z</time>
      </trkpt>
      <trkpt lat="45.93012" lon="4.72917">
        <ele>170.800003052</ele>
        <time>2016-02-26T09:30:01.905Z</time>
      </trkpt>
      <trkpt lat="45.93017" lon="4.7291">
        <ele>170.5</ele>
        <time>2016-02-26T09:30:02.886Z</time>
      </trkpt>
      <trkpt lat="45.93023" lon="4.72904">
        <ele>170.600006104</ele>
        <time>2016-02-26T09:30:03.939Z</time>
      </trkpt>
      <trkpt lat="45.93028" lon="4.72898">
        <ele>170.899993896</ele>
        <time>2016-02-26T09:30:04.883Z</time>
      </trkpt>
      <trkpt lat="45.93033" lon="4.72892">
        <ele>171</ele>
        <time>2016-02-26T09:30:05.916Z</time>
      </trkpt>
      <trkpt lat="45.93038" lon="4.72886">
        <ele>171.100006104</ele>
        <time>2016-02-26T09:30:06.887Z</time>
      </trkpt>
      <trkpt lat="45.93043" lon="4.72881">
        <ele>171.399993896</ele>
        <time>2016-02-26T09:30:07.904Z</time>
      </trkpt>
      <trkpt lat="45.93048" lon="4.72875">
        <ele>171.300003052</ele>
        <time>2016-02-26T09:30:08.886Z</time>
      </trkpt>
      <trkpt lat="45.93053" lon="4.72869">
        <ele>171.100006104</ele>
        <time>2016-02-26T09:30:09.905Z</time>
      </trkpt>
      <trkpt lat="45.93058" lon="4.72863">
        <ele>171</ele>
        <time>2016-02-26T09:30:10.968Z</time>
      </trkpt>
      <trkpt lat="45.93063" lon="4.72857">
        <ele>171.199996948</ele>
        <time>2016-02-26T09:30:11.908Z</time>
      </trkpt>
      <trkpt lat="45.93068" lon="4.72852">
        <ele>171.199996948</ele>
        <time>2016-02-26T09:30:12.886Z</time>
      </trkpt>
      <trkpt lat="45.93072" lon="4.72846">
        <ele>171.300003052</ele>
        <time>2016-02-26T09:30:13.914Z</time>
      </trkpt>
      <trkpt lat="45.93076" lon="4.7284">
        <ele>171.300003052</ele>
        <time>2016-02-26T09:30:14.887Z</time>
      </trkpt>
      <trkpt lat="45.9308" lon="4.72834">
        <ele>171.300003052</ele>
        <time>2016-02-26T09:30:15.961Z</time>
      </trkpt>
      <trkpt lat="45.93085" lon="4.72827">
        <ele>171.199996948</ele>
        <time>2016-02-26T09:30:16.881Z</time>
      </trkpt>
      <trkpt lat="45.93091" lon="4.72821">
        <ele>171.199996948</ele>
        <time>2016-02-26T09:30:17.905Z</time>
      </trkpt>
      <trkpt lat="45.93095" lon="4.72814">
        <ele>171.100006104</ele>
        <time>2016-02-26T09:30:18.886Z</time>
      </trkpt>
      <trkpt lat="45.93098" lon="4.72807">
        <ele>171</ele>
        <time>2016-02-26T09:30:19.908Z</time>
      </trkpt>
      <trkpt lat="45.93104" lon="4.72801">
        <ele>170.899993896</ele>
        <time>2016-02-26T09:30:20.884Z</time>
      </trkpt>
      <trkpt lat="45.93111" lon="4.72798">
        <ele>170.899993896</ele>
        <time>2016-02-26T09:30:21.904Z</time>
      </trkpt>
      <trkpt lat="45.93116" lon="4.72792">
        <ele>171.100006104</ele>
        <time>2016-02-26T09:30:22.887Z</time>
      </trkpt>
      <trkpt lat="45.93122" lon="4.72786">
        <ele>171.199996948</ele>
        <time>2016-02-26T09:30:23.928Z</time>
      </trkpt>
      <trkpt lat="45.93128" lon="4.72781">
        <ele>171</ele>
        <time>2016-02-26T09:30:24.91Z</time>
      </trkpt>
      <trkpt lat="45.93133" lon="4.72775">
        <ele>170.899993896</ele>
        <time>2016-02-26T09:30:25.911Z</time>
      </trkpt>
      <trkpt lat="45.93138" lon="4.7277">
        <ele>170.899993896</ele>
        <time>2016-02-26T09:30:26.885Z</time>
      </trkpt>
      <trkpt lat="45.93144" lon="4.72764">
        <ele>170.800003052</ele>
        <time>2016-02-26T09:30:27.926Z</time>
      </trkpt>
      <trkpt lat="45.93149" lon="4.72758">
        <ele>170.899993896</ele>
        <time>2016-02-26T09:30:28.886Z</time>
      </trkpt>
      <trkpt lat="45.93154" lon="4.72752">
        <ele>170.800003052</ele>
        <time>2016-02-26T09:30:29.906Z</time>
      </trkpt>
      <trkpt lat="45.93159" lon="4.72746">
        <ele>170.5</ele>
        <time>2016-02-26T09:30:30.886Z</time>
      </trkpt>
      <trkpt lat="45.93164" lon="4.7274">
        <ele>170.199996948</ele>
        <time>2016-02-26T09:30:31.903Z</time>
      </trkpt>
      <trkpt lat="45.93169" lon="4.72735">
        <ele>170.399993896</ele>
        <time>2016-02-26T09:30:32.881Z</time>
      </trkpt>
      <trkpt lat="45.93173" lon="4.72729">
        <ele>170.600006104</ele>
        <time>2016-02-26T09:30:33.941Z</time>
      </trkpt>
      <trkpt lat="45.93178" lon="4.72723">
        <ele>170.800003052</ele>
        <time>2016-02-26T09:30:34.885Z</time>
      </trkpt>
      <trkpt lat="45.93183" lon="4.72718">
        <ele>170.899993896</ele>
        <time>2016-02-26T09:30:35.907Z</time>
      </trkpt>
      <trkpt lat="45.93188" lon="4.72712">
        <ele>170.800003052</ele>
        <time>2016-02-26T09:30:36.887Z</time>
      </trkpt>
      <trkpt lat="45.93192" lon="4.72706">
        <ele>170.899993896</ele>
        <time>2016-02-26T09:30:37.937Z</time>
      </trkpt>
      <trkpt lat="45.93197" lon="4.727">
        <ele>170.800003052</ele>
        <time>2016-02-26T09:30:38.883Z</time>
      </trkpt>
      <trkpt lat="45.93202" lon="4.72695">
        <ele>170.800003052</ele>
        <time>2016-02-26T09:30:39.905Z</time>
      </trkpt>
      <trkpt lat="45.93207" lon="4.72689">
        <ele>170.899993896</ele>
        <time>2016-02-26T09:30:40.883Z</time>
      </trkpt>
      <trkpt lat="45.93212" lon="4.72684">
        <ele>170.800003052</ele>
        <time>2016-02-26T09:30:42.083Z</time>
      </trkpt>
      <trkpt lat="45.93217" lon="4.72678">
        <ele>170.800003052</ele>
        <time>2016-02-26T09:30:42.886Z</time>
      </trkpt>
      <trkpt lat="45.93222" lon="4.72673">
        <ele>170.600006104</ele>
        <time>2016-02-26T09:30:43.913Z</time>
      </trkpt>
      <trkpt lat="45.93228" lon="4.72666">
        <ele>170.300003052</ele>
        <time>2016-02-26T09:30:44.886Z</time>
      </trkpt>
      <trkpt lat="45.93234" lon="4.72659">
        <ele>171.100006104</ele>
        <time>2016-02-26T09:30:45.921Z</time>
      </trkpt>
      <trkpt lat="45.93239" lon="4.72653">
        <ele>171.600006104</ele>
        <time>2016-02-26T09:30:46.884Z</time>
      </trkpt>
      <trkpt lat="45.93244" lon="4.72646">
        <ele>172.100006104</ele>
        <time>2016-02-26T09:30:47.902Z</time>
      </trkpt>
      <trkpt lat="45.93249" lon="4.7264">
        <ele>172</ele>
        <time>2016-02-26T09:30:48.887Z</time>
      </trkpt>
      <trkpt lat="45.93254" lon="4.72634">
        <ele>171.899993896</ele>
        <time>2016-02-26T09:30:49.906Z</time>
      </trkpt>
      <trkpt lat="45.93259" lon="4.72628">
        <ele>171.699996948</ele>
        <time>2016-02-26T09:30:50.891Z</time>
      </trkpt>
      <trkpt lat="45.93264" lon="4.72622">
        <ele>171.899993896</ele>
        <time>2016-02-26T09:30:51.904Z</time>
      </trkpt>
      <trkpt lat="45.93269" lon="4.72617">
        <ele>171.899993896</ele>
        <time>2016-02-26T09:30:52.882Z</time>
      </trkpt>
      <trkpt lat="45.93273" lon="4.72611">
        <ele>172.100006104</ele>
        <time>2016-02-26T09:30:53.905Z</time>
      </trkpt>
      <trkpt lat="45.93278" lon="4.72606">
        <ele>172.100006104</ele>
        <time>2016-02-26T09:30:54.886Z</time>
      </trkpt>
      <trkpt lat="45.93283" lon="4.72601">
        <ele>172.300003052</ele>
        <time>2016-02-26T09:30:55.905Z</time>
      </trkpt>
      <trkpt lat="45.93287" lon="4.72595">
        <ele>172.399993896</ele>
        <time>2016-02-26T09:30:56.919Z</time>
      </trkpt>
      <trkpt lat="45.93292" lon="4.72589">
        <ele>172.399993896</ele>
        <time>2016-02-26T09:30:57.904Z</time>
      </trkpt>
      <trkpt lat="45.93297" lon="4.72583">
        <ele>172.199996948</ele>
        <time>2016-02-26T09:30:58.884Z</time>
      </trkpt>
      <trkpt lat="45.93302" lon="4.72577">
        <ele>172</ele>
        <time>2016-02-26T09:30:59.905Z</time>
      </trkpt>
      <trkpt lat="45.93307" lon="4.72572">
        <ele>171.600006104</ele>
        <time>2016-02-26T09:31:00.886Z</time>
      </trkpt>
      <trkpt lat="45.93312" lon="4.72566">
        <ele>172.100006104</ele>
        <time>2016-02-26T09:31:01.989Z</time>
      </trkpt>
      <trkpt lat="45.93316" lon="4.7256">
        <ele>172.199996948</ele>
        <time>2016-02-26T09:31:02.884Z</time>
      </trkpt>
      <trkpt lat="45.93321" lon="4.72554">
        <ele>171.899993896</ele>
        <time>2016-02-26T09:31:03.906Z</time>
      </trkpt>
      <trkpt lat="45.93326" lon="4.72549">
        <ele>171.600006104</ele>
        <time>2016-02-26T09:31:04.884Z</time>
      </trkpt>
      <trkpt lat="45.93331" lon="4.72543">
        <ele>171.5</ele>
        <time>2016-02-26T09:31:05.905Z</time>
      </trkpt>
      <trkpt lat="45.93336" lon="4.72538">
        <ele>171.399993896</ele>
        <time>2016-02-26T09:31:06.884Z</time>
      </trkpt>
      <trkpt lat="45.93341" lon="4.72533">
        <ele>171.100006104</ele>
        <time>2016-02-26T09:31:07.902Z</time>
      </trkpt>
      <trkpt lat="45.93346" lon="4.72527">
        <ele>170.899993896</ele>
        <time>2016-02-26T09:31:08.882Z</time>
      </trkpt>
      <trkpt lat="45.93352" lon="4.7252">
        <ele>170.600006104</ele>
        <time>2016-02-26T09:31:09.902Z</time>
      </trkpt>
      <trkpt lat="45.93356" lon="4.72514">
        <ele>170.800003052</ele>
        <time>2016-02-26T09:31:10.883Z</time>
      </trkpt>
      <trkpt lat="45.93361" lon="4.72509">
        <ele>170.600006104</ele>
        <time>2016-02-26T09:31:11.904Z</time>
      </trkpt>
      <trkpt lat="45.93366" lon="4.72503">
        <ele>170.600006104</ele>
        <time>2016-02-26T09:31:12.884Z</time>
      </trkpt>
      <trkpt lat="45.9337" lon="4.72498">
        <ele>170.300003052</ele>
        <time>2016-02-26T09:31:13.907Z</time>
      </trkpt>
      <trkpt lat="45.93375" lon="4.72493">
        <ele>170.300003052</ele>
        <time>2016-02-26T09:31:14.887Z</time>
      </trkpt>
      <trkpt lat="45.9338" lon="4.72488">
        <ele>170.199996948</ele>
        <time>2016-02-26T09:31:15.904Z</time>
      </trkpt>
      <trkpt lat="45.93384" lon="4.72483">
        <ele>170</ele>
        <time>2016-02-26T09:31:16.887Z</time>
      </trkpt>
      <trkpt lat="45.93388" lon="4.72479">
        <ele>170</ele>
        <time>2016-02-26T09:31:17.906Z</time>
      </trkpt>
      <trkpt lat="45.93393" lon="4.72473">
        <ele>169.699996948</ele>
        <time>2016-02-26T09:31:18.884Z</time>
      </trkpt>
      <trkpt lat="45.93396" lon="4.72468">
        <ele>169.800003052</ele>
        <time>2016-02-26T09:31:19.903Z</time>
      </trkpt>
      <trkpt lat="45.93399" lon="4.72463">
        <ele>170.100006104</ele>
        <time>2016-02-26T09:31:20.886Z</time>
      </trkpt>
      <trkpt lat="45.93403" lon="4.72451">
        <ele>170</ele>
        <time>2016-02-26T09:31:22.998Z</time>
      </trkpt>
      <trkpt lat="45.93404" lon="4.72445">
        <ele>169.600006104</ele>
        <time>2016-02-26T09:31:23.886Z</time>
      </trkpt>
      <trkpt lat="45.93406" lon="4.72439">
        <ele>169.899993896</ele>
        <time>2016-02-26T09:31:24.908Z</time>
      </trkpt>
      <trkpt lat="45.93409" lon="4.72434">
        <ele>169.199996948</ele>
        <time>2016-02-26T09:31:25.884Z</time>
      </trkpt>
      <trkpt lat="45.93412" lon="4.72429">
        <ele>169.300003052</ele>
        <time>2016-02-26T09:31:26.904Z</time>
      </trkpt>
      <trkpt lat="45.93416" lon="4.72424">
        <ele>169.5</ele>
        <time>2016-02-26T09:31:27.899Z</time>
      </trkpt>
      <trkpt lat="45.9342" lon="4.72419">
        <ele>169.399993896</ele>
        <time>2016-02-26T09:31:28.907Z</time>
      </trkpt>
      <trkpt lat="45.93426" lon="4.72416">
        <ele>169.699996948</ele>
        <time>2016-02-26T09:31:29.918Z</time>
      </trkpt>
      <trkpt lat="45.93431" lon="4.72413">
        <ele>169.600006104</ele>
        <time>2016-02-26T09:31:30.908Z</time>
      </trkpt>
      <trkpt lat="45.93436" lon="4.7241">
        <ele>169.800003052</ele>
        <time>2016-02-26T09:31:31.941Z</time>
      </trkpt>
      <trkpt lat="45.93442" lon="4.72407">
        <ele>169.899993896</ele>
        <time>2016-02-26T09:31:33.078Z</time>
      </trkpt>
      <trkpt lat="45.93447" lon="4.72404">
        <ele>170.899993896</ele>
        <time>2016-02-26T09:31:33.887Z</time>
      </trkpt>
      <trkpt lat="45.93452" lon="4.72401">
        <ele>171.300003052</ele>
        <time>2016-02-26T09:31:34.902Z</time>
      </trkpt>
      <trkpt lat="45.93457" lon="4.72396">
        <ele>171.600006104</ele>
        <time>2016-02-26T09:31:35.881Z</time>
      </trkpt>
      <trkpt lat="45.93462" lon="4.72391">
        <ele>172.199996948</ele>
        <time>2016-02-26T09:31:36.905Z</time>
      </trkpt>
      <trkpt lat="45.93467" lon="4.72385">
        <ele>172.300003052</ele>
        <time>2016-02-26T09:31:37.883Z</time>
      </trkpt>
      <trkpt lat="45.93472" lon="4.72379">
        <ele>172.5</ele>
        <time>2016-02-26T09:31:38.903Z</time>
      </trkpt>
      <trkpt lat="45.93476" lon="4.72373">
        <ele>172.600006104</ele>
        <time>2016-02-26T09:31:39.907Z</time>
      </trkpt>
      <trkpt lat="45.9348" lon="4.72367">
        <ele>172.699996948</ele>
        <time>2016-02-26T09:31:40.904Z</time>
      </trkpt>
      <trkpt lat="45.93484" lon="4.7236">
        <ele>172.800003052</ele>
        <time>2016-02-26T09:31:41.884Z</time>
      </trkpt>
      <trkpt lat="45.93489" lon="4.72355">
        <ele>173.199996948</ele>
        <time>2016-02-26T09:31:42.909Z</time>
      </trkpt>
      <trkpt lat="45.93493" lon="4.72349">
        <ele>173.100006104</ele>
        <time>2016-02-26T09:31:43.884Z</time>
      </trkpt>
      <trkpt lat="45.93498" lon="4.72343">
        <ele>173</ele>
        <time>2016-02-26T09:31:44.931Z</time>
      </trkpt>
      <trkpt lat="45.93503" lon="4.72335">
        <ele>172.899993896</ele>
        <time>2016-02-26T09:31:45.883Z</time>
      </trkpt>
      <trkpt lat="45.93507" lon="4.72329">
        <ele>172.899993896</ele>
        <time>2016-02-26T09:31:46.901Z</time>
      </trkpt>
      <trkpt lat="45.93511" lon="4.72324">
        <ele>173</ele>
        <time>2016-02-26T09:31:47.881Z</time>
      </trkpt>
      <trkpt lat="45.93515" lon="4.72318">
        <ele>173.100006104</ele>
        <time>2016-02-26T09:31:48.906Z</time>
      </trkpt>
      <trkpt lat="45.9352" lon="4.72312">
        <ele>173.399993896</ele>
        <time>2016-02-26T09:31:49.883Z</time>
      </trkpt>
      <trkpt lat="45.93524" lon="4.72306">
        <ele>173.699996948</ele>
        <time>2016-02-26T09:31:50.906Z</time>
      </trkpt>
      <trkpt lat="45.93527" lon="4.723">
        <ele>173.800003052</ele>
        <time>2016-02-26T09:31:51.883Z</time>
      </trkpt>
      <trkpt lat="45.93529" lon="4.72293">
        <ele>173.699996948</ele>
        <time>2016-02-26T09:31:52.904Z</time>
      </trkpt>
      <trkpt lat="45.93532" lon="4.72286">
        <ele>173.899993896</ele>
        <time>2016-02-26T09:31:53.938Z</time>
      </trkpt>
      <trkpt lat="45.93534" lon="4.7228">
        <ele>174.300003052</ele>
        <time>2016-02-26T09:31:54.905Z</time>
      </trkpt>
      <trkpt lat="45.93537" lon="4.72274">
        <ele>174.699996948</ele>
        <time>2016-02-26T09:31:55.887Z</time>
      </trkpt>
      <trkpt lat="45.93539" lon="4.72267">
        <ele>174.600006104</ele>
        <time>2016-02-26T09:31:56.904Z</time>
      </trkpt>
      <trkpt lat="45.93542" lon="4.72261">
        <ele>174.800003052</ele>
        <time>2016-02-26T09:31:57.882Z</time>
      </trkpt>
      <trkpt lat="45.93544" lon="4.72254">
        <ele>174.899993896</ele>
        <time>2016-02-26T09:31:58.903Z</time>
      </trkpt>
      <trkpt lat="45.93547" lon="4.72247">
        <ele>175.399993896</ele>
        <time>2016-02-26T09:31:59.881Z</time>
      </trkpt>
      <trkpt lat="45.9355" lon="4.7224">
        <ele>175</ele>
        <time>2016-02-26T09:32:00.917Z</time>
      </trkpt>
      <trkpt lat="45.93553" lon="4.72233">
        <ele>174.699996948</ele>
        <time>2016-02-26T09:32:01.883Z</time>
      </trkpt>
      <trkpt lat="45.93556" lon="4.72226">
        <ele>174.899993896</ele>
        <time>2016-02-26T09:32:02.902Z</time>
      </trkpt>
      <trkpt lat="45.9356" lon="4.72219">
        <ele>174.800003052</ele>
        <time>2016-02-26T09:32:03.884Z</time>
      </trkpt>
      <trkpt lat="45.93565" lon="4.72213">
        <ele>175.100006104</ele>
        <time>2016-02-26T09:32:04.919Z</time>
      </trkpt>
      <trkpt lat="45.93569" lon="4.72207">
        <ele>175</ele>
        <time>2016-02-26T09:32:05.882Z</time>
      </trkpt>
      <trkpt lat="45.93575" lon="4.72201">
        <ele>175.199996948</ele>
        <time>2016-02-26T09:32:06.905Z</time>
      </trkpt>
      <trkpt lat="45.9358" lon="4.72196">
        <ele>175.5</ele>
        <time>2016-02-26T09:32:07.883Z</time>
      </trkpt>
      <trkpt lat="45.93586" lon="4.72191">
        <ele>175.5</ele>
        <time>2016-02-26T09:32:08.908Z</time>
      </trkpt>
      <trkpt lat="45.93591" lon="4.72186">
        <ele>175.600006104</ele>
        <time>2016-02-26T09:32:09.88Z</time>
      </trkpt>
      <trkpt lat="45.93596" lon="4.7218">
        <ele>175.5</ele>
        <time>2016-02-26T09:32:10.901Z</time>
      </trkpt>
      <trkpt lat="45.93601" lon="4.72175">
        <ele>175.5</ele>
        <time>2016-02-26T09:32:11.874Z</time>
      </trkpt>
      <trkpt lat="45.93606" lon="4.7217">
        <ele>175.600006104</ele>
        <time>2016-02-26T09:32:12.908Z</time>
      </trkpt>
      <trkpt lat="45.93612" lon="4.72165">
        <ele>175.600006104</ele>
        <time>2016-02-26T09:32:13.929Z</time>
      </trkpt>
      <trkpt lat="45.93616" lon="4.72161">
        <ele>175.300003052</ele>
        <time>2016-02-26T09:32:14.904Z</time>
      </trkpt>
      <trkpt lat="45.93622" lon="4.72156">
        <ele>175.699996948</ele>
        <time>2016-02-26T09:32:15.882Z</time>
      </trkpt>
      <trkpt lat="45.93627" lon="4.72151">
        <ele>175.699996948</ele>
        <time>2016-02-26T09:32:16.903Z</time>
      </trkpt>
      <trkpt lat="45.93633" lon="4.72144">
        <ele>175.199996948</ele>
        <time>2016-02-26T09:32:17.883Z</time>
      </trkpt>
      <trkpt lat="45.93637" lon="4.72136">
        <ele>175</ele>
        <time>2016-02-26T09:32:18.905Z</time>
      </trkpt>
      <trkpt lat="45.93642" lon="4.7213">
        <ele>174.899993896</ele>
        <time>2016-02-26T09:32:19.883Z</time>
      </trkpt>
      <trkpt lat="45.93646" lon="4.72123">
        <ele>174.5</ele>
        <time>2016-02-26T09:32:20.904Z</time>
      </trkpt>
      <trkpt lat="45.9365" lon="4.72117">
        <ele>174</ele>
        <time>2016-02-26T09:32:21.884Z</time>
      </trkpt>
      <trkpt lat="45.93654" lon="4.7211">
        <ele>173.600006104</ele>
        <time>2016-02-26T09:32:22.902Z</time>
      </trkpt>
      <trkpt lat="45.93658" lon="4.72104">
        <ele>173.300003052</ele>
        <time>2016-02-26T09:32:23.886Z</time>
      </trkpt>
      <trkpt lat="45.93661" lon="4.72098">
        <ele>173</ele>
        <time>2016-02-26T09:32:24.905Z</time>
      </trkpt>
      <trkpt lat="45.93665" lon="4.72092">
        <ele>172.699996948</ele>
        <time>2016-02-26T09:32:25.88Z</time>
      </trkpt>
      <trkpt lat="45.93669" lon="4.72086">
        <ele>172.800003052</ele>
        <time>2016-02-26T09:32:26.902Z</time>
      </trkpt>
      <trkpt lat="45.93672" lon="4.72079">
        <ele>172.600006104</ele>
        <time>2016-02-26T09:32:27.88Z</time>
      </trkpt>
      <trkpt lat="45.93676" lon="4.72072">
        <ele>172.300003052</ele>
        <time>2016-02-26T09:32:28.905Z</time>
      </trkpt>
      <trkpt lat="45.93679" lon="4.72066">
        <ele>172.300003052</ele>
        <time>2016-02-26T09:32:29.88Z</time>
      </trkpt>
      <trkpt lat="45.93683" lon="4.7206">
        <ele>172.199996948</ele>
        <time>2016-02-26T09:32:30.957Z</time>
      </trkpt>
      <trkpt lat="45.93687" lon="4.72053">
        <ele>172.100006104</ele>
        <time>2016-02-26T09:32:31.881Z</time>
      </trkpt>
      <trkpt lat="45.9369" lon="4.72046">
        <ele>171.899993896</ele>
        <time>2016-02-26T09:32:32.902Z</time>
      </trkpt>
      <trkpt lat="45.93692" lon="4.72039">
        <ele>171.600006104</ele>
        <time>2016-02-26T09:32:33.889Z</time>
      </trkpt>
      <trkpt lat="45.93692" lon="4.72031">
        <ele>171.5</ele>
        <time>2016-02-26T09:32:34.909Z</time>
      </trkpt>
      <trkpt lat="45.9369" lon="4.72024">
        <ele>171.699996948</ele>
        <time>2016-02-26T09:32:35.882Z</time>
      </trkpt>
      <trkpt lat="45.93687" lon="4.72018">
        <ele>171.300003052</ele>
        <time>2016-02-26T09:32:36.921Z</time>
      </trkpt>
      <trkpt lat="45.93685" lon="4.72012">
        <ele>171.399993896</ele>
        <time>2016-02-26T09:32:37.881Z</time>
      </trkpt>
      <trkpt lat="45.93684" lon="4.72006">
        <ele>172.199996948</ele>
        <time>2016-02-26T09:32:38.906Z</time>
      </trkpt>
      <trkpt lat="45.93682" lon="4.72">
        <ele>172.399993896</ele>
        <time>2016-02-26T09:32:39.879Z</time>
      </trkpt>
      <trkpt lat="45.93679" lon="4.71993">
        <ele>172.300003052</ele>
        <time>2016-02-26T09:32:40.901Z</time>
      </trkpt>
      <trkpt lat="45.93677" lon="4.71987">
        <ele>172.199996948</ele>
        <time>2016-02-26T09:32:41.88Z</time>
      </trkpt>
      <trkpt lat="45.93673" lon="4.71976">
        <ele>172.399993896</ele>
        <time>2016-02-26T09:32:43.908Z</time>
      </trkpt>
      <trkpt lat="45.93672" lon="4.71971">
        <ele>172.5</ele>
        <time>2016-02-26T09:32:44.908Z</time>
      </trkpt>
      <trkpt lat="45.93667" lon="4.71965">
        <ele>173</ele>
        <time>2016-02-26T09:32:47.901Z</time>
      </trkpt>
      <trkpt lat="45.93666" lon="4.71964">
        <ele>173.100006104</ele>
        <time>2016-02-26T09:32:48.884Z</time>
      </trkpt>
      <trkpt lat="45.9366" lon="4.71955">
        <ele>175.300003052</ele>
        <time>2016-02-26T09:33:28.925Z</time>
      </trkpt>
      <trkpt lat="45.93659" lon="4.71954">
        <ele>175.199996948</ele>
        <time>2016-02-26T09:33:29.879Z</time>
      </trkpt>
      <trkpt lat="45.93657" lon="4.71942">
        <ele>174.600006104</ele>
        <time>2016-02-26T09:33:32.969Z</time>
      </trkpt>
      <trkpt lat="45.93656" lon="4.71937">
        <ele>174.600006104</ele>
        <time>2016-02-26T09:33:33.894Z</time>
      </trkpt>
      <trkpt lat="45.93652" lon="4.71925">
        <ele>174.800003052</ele>
        <time>2016-02-26T09:33:35.899Z</time>
      </trkpt>
      <trkpt lat="45.9365" lon="4.71919">
        <ele>174.800003052</ele>
        <time>2016-02-26T09:33:36.885Z</time>
      </trkpt>
      <trkpt lat="45.93648" lon="4.71912">
        <ele>174.899993896</ele>
        <time>2016-02-26T09:33:37.905Z</time>
      </trkpt>
      <trkpt lat="45.93646" lon="4.71905">
        <ele>174.899993896</ele>
        <time>2016-02-26T09:33:38.884Z</time>
      </trkpt>
      <trkpt lat="45.93643" lon="4.71899">
        <ele>175.100006104</ele>
        <time>2016-02-26T09:33:39.901Z</time>
      </trkpt>
      <trkpt lat="45.93641" lon="4.71894">
        <ele>175.300003052</ele>
        <time>2016-02-26T09:33:40.881Z</time>
      </trkpt>
      <trkpt lat="45.93636" lon="4.71884">
        <ele>175.199996948</ele>
        <time>2016-02-26T09:33:42.905Z</time>
      </trkpt>
      <trkpt lat="45.93633" lon="4.71878">
        <ele>175.199996948</ele>
        <time>2016-02-26T09:33:43.895Z</time>
      </trkpt>
      <trkpt lat="45.9363" lon="4.71868">
        <ele>176.100006104</ele>
        <time>2016-02-26T09:33:45.902Z</time>
      </trkpt>
      <trkpt lat="45.93629" lon="4.71863">
        <ele>176.5</ele>
        <time>2016-02-26T09:33:46.881Z</time>
      </trkpt>
      <trkpt lat="45.93626" lon="4.71853">
        <ele>177</ele>
        <time>2016-02-26T09:33:48.904Z</time>
      </trkpt>
      <trkpt lat="45.93624" lon="4.71847">
        <ele>177.300003052</ele>
        <time>2016-02-26T09:33:49.893Z</time>
      </trkpt>
      <trkpt lat="45.93623" lon="4.71837">
        <ele>178.199996948</ele>
        <time>2016-02-26T09:33:51.902Z</time>
      </trkpt>
      <trkpt lat="45.93622" lon="4.71833">
        <ele>178.300003052</ele>
        <time>2016-02-26T09:33:52.881Z</time>
      </trkpt>
      <trkpt lat="45.9362" lon="4.71821">
        <ele>179</ele>
        <time>2016-02-26T09:33:55.899Z</time>
      </trkpt>
      <trkpt lat="45.93619" lon="4.71819">
        <ele>179.300003052</ele>
        <time>2016-02-26T09:33:56.885Z</time>
      </trkpt>
      <trkpt lat="45.93611" lon="4.71817">
        <ele>179.5</ele>
        <time>2016-02-26T09:33:59.904Z</time>
      </trkpt>
      <trkpt lat="45.93607" lon="4.71818">
        <ele>179.5</ele>
        <time>2016-02-26T09:34:00.883Z</time>
      </trkpt>
      <trkpt lat="45.93602" lon="4.7182">
        <ele>179.399993896</ele>
        <time>2016-02-26T09:34:01.907Z</time>
      </trkpt>
      <trkpt lat="45.93597" lon="4.71822">
        <ele>179.399993896</ele>
        <time>2016-02-26T09:34:02.881Z</time>
      </trkpt>
      <trkpt lat="45.93593" lon="4.71824">
        <ele>179.399993896</ele>
        <time>2016-02-26T09:34:03.955Z</time>
      </trkpt>
      <trkpt lat="45.93588" lon="4.71827">
        <ele>179.399993896</ele>
        <time>2016-02-26T09:34:04.883Z</time>
      </trkpt>
      <trkpt lat="45.9358" lon="4.71829">
        <ele>179.699996948</ele>
        <time>2016-02-26T09:34:06.903Z</time>
      </trkpt>
      <trkpt lat="45.93575" lon="4.71831">
        <ele>179.800003052</ele>
        <time>2016-02-26T09:34:07.878Z</time>
      </trkpt>
      <trkpt lat="45.93571" lon="4.71832">
        <ele>180</ele>
        <time>2016-02-26T09:34:09.187Z</time>
      </trkpt>
      <trkpt lat="45.93566" lon="4.71834">
        <ele>180.100006104</ele>
        <time>2016-02-26T09:34:09.882Z</time>
      </trkpt>
      <trkpt lat="45.93561" lon="4.71835">
        <ele>180.300003052</ele>
        <time>2016-02-26T09:34:10.901Z</time>
      </trkpt>
      <trkpt lat="45.93556" lon="4.71837">
        <ele>180.5</ele>
        <time>2016-02-26T09:34:11.879Z</time>
      </trkpt>
      <trkpt lat="45.93551" lon="4.71837">
        <ele>180.800003052</ele>
        <time>2016-02-26T09:34:12.904Z</time>
      </trkpt>
      <trkpt lat="45.93546" lon="4.71838">
        <ele>180.899993896</ele>
        <time>2016-02-26T09:34:13.903Z</time>
      </trkpt>
      <trkpt lat="45.93538" lon="4.71837">
        <ele>181.199996948</ele>
        <time>2016-02-26T09:34:15.932Z</time>
      </trkpt>
      <trkpt lat="45.93533" lon="4.71838">
        <ele>181.399993896</ele>
        <time>2016-02-26T09:34:16.881Z</time>
      </trkpt>
      <trkpt lat="45.93528" lon="4.71839">
        <ele>181.600006104</ele>
        <time>2016-02-26T09:34:17.899Z</time>
      </trkpt>
      <trkpt lat="45.93524" lon="4.7184">
        <ele>181.800003052</ele>
        <time>2016-02-26T09:34:18.88Z</time>
      </trkpt>
      <trkpt lat="45.93519" lon="4.71841">
        <ele>182.100006104</ele>
        <time>2016-02-26T09:34:19.899Z</time>
      </trkpt>
      <trkpt lat="45.93514" lon="4.71843">
        <ele>182.399993896</ele>
        <time>2016-02-26T09:34:20.883Z</time>
      </trkpt>
      <trkpt lat="45.9351" lon="4.71845">
        <ele>182.600006104</ele>
        <time>2016-02-26T09:34:21.9Z</time>
      </trkpt>
      <trkpt lat="45.93505" lon="4.71846">
        <ele>182.800003052</ele>
        <time>2016-02-26T09:34:22.881Z</time>
      </trkpt>
      <trkpt lat="45.935" lon="4.71847">
        <ele>182.899993896</ele>
        <time>2016-02-26T09:34:23.92Z</time>
      </trkpt>
      <trkpt lat="45.93495" lon="4.71846">
        <ele>183.199996948</ele>
        <time>2016-02-26T09:34:24.884Z</time>
      </trkpt>
      <trkpt lat="45.93486" lon="4.71847">
        <ele>183.600006104</ele>
        <time>2016-02-26T09:34:26.902Z</time>
      </trkpt>
      <trkpt lat="45.93482" lon="4.71846">
        <ele>183.800003052</ele>
        <time>2016-02-26T09:34:27.881Z</time>
      </trkpt>
      <trkpt lat="45.93474" lon="4.71847">
        <ele>184.399993896</ele>
        <time>2016-02-26T09:34:29.899Z</time>
      </trkpt>
      <trkpt lat="45.9347" lon="4.71845">
        <ele>184.600006104</ele>
        <time>2016-02-26T09:34:30.879Z</time>
      </trkpt>
      <trkpt lat="45.93462" lon="4.71845">
        <ele>185.199996948</ele>
        <time>2016-02-26T09:34:32.9Z</time>
      </trkpt>
      <trkpt lat="45.93459" lon="4.71844">
        <ele>185.399993896</ele>
        <time>2016-02-26T09:34:33.941Z</time>
      </trkpt>
      <trkpt lat="45.93454" lon="4.71839">
        <ele>185.899993896</ele>
        <time>2016-02-26T09:34:35.9Z</time>
      </trkpt>
      <trkpt lat="45.93452" lon="4.71836">
        <ele>186.399993896</ele>
        <time>2016-02-26T09:34:36.883Z</time>
      </trkpt>
      <trkpt lat="45.93452" lon="4.71828">
        <ele>186.600006104</ele>
        <time>2016-02-26T09:34:37.921Z</time>
      </trkpt>
      <trkpt lat="45.93451" lon="4.71821">
        <ele>186.300003052</ele>
        <time>2016-02-26T09:34:38.881Z</time>
      </trkpt>
      <trkpt lat="45.93448" lon="4.7181">
        <ele>186.300003052</ele>
        <time>2016-02-26T09:34:40.902Z</time>
      </trkpt>
      <trkpt lat="45.93447" lon="4.71806">
        <ele>186.300003052</ele>
        <time>2016-02-26T09:34:41.881Z</time>
      </trkpt>
      <trkpt lat="45.93443" lon="4.71795">
        <ele>186</ele>
        <time>2016-02-26T09:34:43.924Z</time>
      </trkpt>
      <trkpt lat="45.93441" lon="4.71789">
        <ele>186.100006104</ele>
        <time>2016-02-26T09:34:44.881Z</time>
      </trkpt>
      <trkpt lat="45.93436" lon="4.7178">
        <ele>186.100006104</ele>
        <time>2016-02-26T09:34:46.898Z</time>
      </trkpt>
      <trkpt lat="45.93433" lon="4.71775">
        <ele>186.600006104</ele>
        <time>2016-02-26T09:34:47.878Z</time>
      </trkpt>
      <trkpt lat="45.93428" lon="4.71764">
        <ele>186</ele>
        <time>2016-02-26T09:34:49.901Z</time>
      </trkpt>
      <trkpt lat="45.93426" lon="4.71759">
        <ele>185.899993896</ele>
        <time>2016-02-26T09:34:50.881Z</time>
      </trkpt>
      <trkpt lat="45.93423" lon="4.71754">
        <ele>186</ele>
        <time>2016-02-26T09:34:51.898Z</time>
      </trkpt>
      <trkpt lat="45.93421" lon="4.71748">
        <ele>185.800003052</ele>
        <time>2016-02-26T09:34:52.898Z</time>
      </trkpt>
      <trkpt lat="45.93418" lon="4.71743">
        <ele>185.699996948</ele>
        <time>2016-02-26T09:34:53.922Z</time>
      </trkpt>
      <trkpt lat="45.93415" lon="4.71737">
        <ele>185.699996948</ele>
        <time>2016-02-26T09:34:54.881Z</time>
      </trkpt>
      <trkpt lat="45.93411" lon="4.71727">
        <ele>185.800003052</ele>
        <time>2016-02-26T09:34:57.136Z</time>
      </trkpt>
      <trkpt lat="45.93409" lon="4.71722">
        <ele>186</ele>
        <time>2016-02-26T09:34:57.879Z</time>
      </trkpt>
      <trkpt lat="45.93404" lon="4.71713">
        <ele>185.899993896</ele>
        <time>2016-02-26T09:34:59.9Z</time>
      </trkpt>
      <trkpt lat="45.93401" lon="4.71708">
        <ele>185.899993896</ele>
        <time>2016-02-26T09:35:00.883Z</time>
      </trkpt>
      <trkpt lat="45.93396" lon="4.71698">
        <ele>185.600006104</ele>
        <time>2016-02-26T09:35:02.907Z</time>
      </trkpt>
      <trkpt lat="45.93394" lon="4.71693">
        <ele>185.699996948</ele>
        <time>2016-02-26T09:35:03.906Z</time>
      </trkpt>
      <trkpt lat="45.93392" lon="4.71688">
        <ele>185.699996948</ele>
        <time>2016-02-26T09:35:04.938Z</time>
      </trkpt>
      <trkpt lat="45.93389" lon="4.71682">
        <ele>185.899993896</ele>
        <time>2016-02-26T09:35:05.883Z</time>
      </trkpt>
      <trkpt lat="45.93385" lon="4.71672">
        <ele>186</ele>
        <time>2016-02-26T09:35:07.898Z</time>
      </trkpt>
      <trkpt lat="45.93383" lon="4.71666">
        <ele>186.100006104</ele>
        <time>2016-02-26T09:35:08.899Z</time>
      </trkpt>
      <trkpt lat="45.93378" lon="4.71656">
        <ele>186.399993896</ele>
        <time>2016-02-26T09:35:10.898Z</time>
      </trkpt>
      <trkpt lat="45.93375" lon="4.71652">
        <ele>187</ele>
        <time>2016-02-26T09:35:11.878Z</time>
      </trkpt>
      <trkpt lat="45.9337" lon="4.71642">
        <ele>187.600006104</ele>
        <time>2016-02-26T09:35:13.945Z</time>
      </trkpt>
      <trkpt lat="45.93368" lon="4.71637">
        <ele>187.600006104</ele>
        <time>2016-02-26T09:35:14.883Z</time>
      </trkpt>
      <trkpt lat="45.93363" lon="4.71626">
        <ele>187.699996948</ele>
        <time>2016-02-26T09:35:16.902Z</time>
      </trkpt>
      <trkpt lat="45.9336" lon="4.71621">
        <ele>188</ele>
        <time>2016-02-26T09:35:17.907Z</time>
      </trkpt>
      <trkpt lat="45.93358" lon="4.71616">
        <ele>188.100006104</ele>
        <time>2016-02-26T09:35:19.154Z</time>
      </trkpt>
      <trkpt lat="45.93355" lon="4.7161">
        <ele>188</ele>
        <time>2016-02-26T09:35:19.883Z</time>
      </trkpt>
      <trkpt lat="45.9335" lon="4.71599">
        <ele>188.300003052</ele>
        <time>2016-02-26T09:35:21.9Z</time>
      </trkpt>
      <trkpt lat="45.93348" lon="4.71594">
        <ele>188.199996948</ele>
        <time>2016-02-26T09:35:22.88Z</time>
      </trkpt>
      <trkpt lat="45.93346" lon="4.71588">
        <ele>188.300003052</ele>
        <time>2016-02-26T09:35:23.934Z</time>
      </trkpt>
      <trkpt lat="45.93343" lon="4.71582">
        <ele>188.300003052</ele>
        <time>2016-02-26T09:35:24.883Z</time>
      </trkpt>
      <trkpt lat="45.93341" lon="4.71577">
        <ele>188.199996948</ele>
        <time>2016-02-26T09:35:25.898Z</time>
      </trkpt>
      <trkpt lat="45.93338" lon="4.7157">
        <ele>187.899993896</ele>
        <time>2016-02-26T09:35:26.884Z</time>
      </trkpt>
      <trkpt lat="45.93336" lon="4.71564">
        <ele>187.800003052</ele>
        <time>2016-02-26T09:35:27.9Z</time>
      </trkpt>
      <trkpt lat="45.93333" lon="4.71558">
        <ele>187.5</ele>
        <time>2016-02-26T09:35:28.88Z</time>
      </trkpt>
      <trkpt lat="45.9333" lon="4.71552">
        <ele>187.199996948</ele>
        <time>2016-02-26T09:35:29.9Z</time>
      </trkpt>
      <trkpt lat="45.93327" lon="4.71546">
        <ele>187.100006104</ele>
        <time>2016-02-26T09:35:30.886Z</time>
      </trkpt>
      <trkpt lat="45.93324" lon="4.7154">
        <ele>187.199996948</ele>
        <time>2016-02-26T09:35:31.908Z</time>
      </trkpt>
      <trkpt lat="45.93322" lon="4.71533">
        <ele>187.399993896</ele>
        <time>2016-02-26T09:35:32.878Z</time>
      </trkpt>
      <trkpt lat="45.93319" lon="4.71527">
        <ele>187.300003052</ele>
        <time>2016-02-26T09:35:33.935Z</time>
      </trkpt>
      <trkpt lat="45.93316" lon="4.71521">
        <ele>187.399993896</ele>
        <time>2016-02-26T09:35:34.908Z</time>
      </trkpt>
      <trkpt lat="45.93313" lon="4.71515">
        <ele>187.399993896</ele>
        <time>2016-02-26T09:35:35.901Z</time>
      </trkpt>
      <trkpt lat="45.93309" lon="4.71509">
        <ele>187</ele>
        <time>2016-02-26T09:35:36.88Z</time>
      </trkpt>
      <trkpt lat="45.93307" lon="4.71504">
        <ele>186.800003052</ele>
        <time>2016-02-26T09:35:37.901Z</time>
      </trkpt>
      <trkpt lat="45.93304" lon="4.71498">
        <ele>186.699996948</ele>
        <time>2016-02-26T09:35:38.883Z</time>
      </trkpt>
      <trkpt lat="45.93301" lon="4.71492">
        <ele>186.699996948</ele>
        <time>2016-02-26T09:35:40.081Z</time>
      </trkpt>
      <trkpt lat="45.93299" lon="4.71486">
        <ele>186.699996948</ele>
        <time>2016-02-26T09:35:40.878Z</time>
      </trkpt>
      <trkpt lat="45.93297" lon="4.7148">
        <ele>186.699996948</ele>
        <time>2016-02-26T09:35:41.901Z</time>
      </trkpt>
      <trkpt lat="45.93294" lon="4.71474">
        <ele>186.5</ele>
        <time>2016-02-26T09:35:42.879Z</time>
      </trkpt>
      <trkpt lat="45.93292" lon="4.71468">
        <ele>186.300003052</ele>
        <time>2016-02-26T09:35:43.937Z</time>
      </trkpt>
      <trkpt lat="45.93289" lon="4.71462">
        <ele>186.5</ele>
        <time>2016-02-26T09:35:44.881Z</time>
      </trkpt>
      <trkpt lat="45.93287" lon="4.71456">
        <ele>186.399993896</ele>
        <time>2016-02-26T09:35:45.901Z</time>
      </trkpt>
      <trkpt lat="45.93285" lon="4.7145">
        <ele>186.5</ele>
        <time>2016-02-26T09:35:46.882Z</time>
      </trkpt>
      <trkpt lat="45.93283" lon="4.71444">
        <ele>186.399993896</ele>
        <time>2016-02-26T09:35:47.898Z</time>
      </trkpt>
      <trkpt lat="45.93281" lon="4.71438">
        <ele>186.699996948</ele>
        <time>2016-02-26T09:35:48.88Z</time>
      </trkpt>
      <trkpt lat="45.93277" lon="4.71428">
        <ele>186.199996948</ele>
        <time>2016-02-26T09:35:50.968Z</time>
      </trkpt>
      <trkpt lat="45.93276" lon="4.71425">
        <ele>185.899993896</ele>
        <time>2016-02-26T09:35:51.88Z</time>
      </trkpt>
      <trkpt lat="45.93271" lon="4.71414">
        <ele>185</ele>
        <time>2016-02-26T09:35:54.902Z</time>
      </trkpt>
      <trkpt lat="45.93269" lon="4.7141">
        <ele>184.699996948</ele>
        <time>2016-02-26T09:35:55.899Z</time>
      </trkpt>
      <trkpt lat="45.93265" lon="4.71399">
        <ele>184.5</ele>
        <time>2016-02-26T09:35:57.914Z</time>
      </trkpt>
      <trkpt lat="45.93263" lon="4.71394">
        <ele>184.5</ele>
        <time>2016-02-26T09:35:58.88Z</time>
      </trkpt>
      <trkpt lat="45.9326" lon="4.71389">
        <ele>184.5</ele>
        <time>2016-02-26T09:35:59.898Z</time>
      </trkpt>
      <trkpt lat="45.93258" lon="4.71383">
        <ele>184.5</ele>
        <time>2016-02-26T09:36:00.88Z</time>
      </trkpt>
      <trkpt lat="45.93255" lon="4.71377">
        <ele>184.199996948</ele>
        <time>2016-02-26T09:36:01.9Z</time>
      </trkpt>
      <trkpt lat="45.93253" lon="4.71371">
        <ele>184.199996948</ele>
        <time>2016-02-26T09:36:02.882Z</time>
      </trkpt>
      <trkpt lat="45.9325" lon="4.71365">
        <ele>184.100006104</ele>
        <time>2016-02-26T09:36:03.94Z</time>
      </trkpt>
      <trkpt lat="45.93248" lon="4.71359">
        <ele>184</ele>
        <time>2016-02-26T09:36:04.88Z</time>
      </trkpt>
      <trkpt lat="45.93245" lon="4.71353">
        <ele>184.199996948</ele>
        <time>2016-02-26T09:36:05.898Z</time>
      </trkpt>
      <trkpt lat="45.93242" lon="4.71346">
        <ele>184.300003052</ele>
        <time>2016-02-26T09:36:06.903Z</time>
      </trkpt>
      <trkpt lat="45.9324" lon="4.7134">
        <ele>184.300003052</ele>
        <time>2016-02-26T09:36:07.9Z</time>
      </trkpt>
      <trkpt lat="45.93237" lon="4.71334">
        <ele>184.300003052</ele>
        <time>2016-02-26T09:36:08.88Z</time>
      </trkpt>
      <trkpt lat="45.93234" lon="4.71328">
        <ele>184.399993896</ele>
        <time>2016-02-26T09:36:09.898Z</time>
      </trkpt>
      <trkpt lat="45.93231" lon="4.71322">
        <ele>184.899993896</ele>
        <time>2016-02-26T09:36:10.882Z</time>
      </trkpt>
      <trkpt lat="45.93229" lon="4.71316">
        <ele>184.899993896</ele>
        <time>2016-02-26T09:36:11.9Z</time>
      </trkpt>
      <trkpt lat="45.93226" lon="4.7131">
        <ele>184.899993896</ele>
        <time>2016-02-26T09:36:12.882Z</time>
      </trkpt>
      <trkpt lat="45.93223" lon="4.71304">
        <ele>185.199996948</ele>
        <time>2016-02-26T09:36:13.932Z</time>
      </trkpt>
      <trkpt lat="45.9322" lon="4.71299">
        <ele>185.600006104</ele>
        <time>2016-02-26T09:36:14.881Z</time>
      </trkpt>
      <trkpt lat="45.93218" lon="4.71293">
        <ele>185.899993896</ele>
        <time>2016-02-26T09:36:15.898Z</time>
      </trkpt>
      <trkpt lat="45.93215" lon="4.71287">
        <ele>186.199996948</ele>
        <time>2016-02-26T09:36:16.88Z</time>
      </trkpt>
      <trkpt lat="45.93212" lon="4.71282">
        <ele>186.699996948</ele>
        <time>2016-02-26T09:36:17.898Z</time>
      </trkpt>
      <trkpt lat="45.93209" lon="4.71276">
        <ele>187</ele>
        <time>2016-02-26T09:36:18.888Z</time>
      </trkpt>
      <trkpt lat="45.93207" lon="4.71271">
        <ele>187.5</ele>
        <time>2016-02-26T09:36:19.901Z</time>
      </trkpt>
      <trkpt lat="45.93204" lon="4.71265">
        <ele>187.600006104</ele>
        <time>2016-02-26T09:36:20.879Z</time>
      </trkpt>
      <trkpt lat="45.93201" lon="4.7126">
        <ele>187.899993896</ele>
        <time>2016-02-26T09:36:21.917Z</time>
      </trkpt>
      <trkpt lat="45.93199" lon="4.71254">
        <ele>188.199996948</ele>
        <time>2016-02-26T09:36:22.931Z</time>
      </trkpt>
      <trkpt lat="45.93196" lon="4.71249">
        <ele>188.300003052</ele>
        <time>2016-02-26T09:36:23.933Z</time>
      </trkpt>
      <trkpt lat="45.93194" lon="4.71243">
        <ele>188.399993896</ele>
        <time>2016-02-26T09:36:24.885Z</time>
      </trkpt>
      <trkpt lat="45.93191" lon="4.71237">
        <ele>188.5</ele>
        <time>2016-02-26T09:36:25.897Z</time>
      </trkpt>
      <trkpt lat="45.93188" lon="4.71231">
        <ele>188.5</ele>
        <time>2016-02-26T09:36:26.88Z</time>
      </trkpt>
      <trkpt lat="45.93186" lon="4.71225">
        <ele>188.600006104</ele>
        <time>2016-02-26T09:36:27.899Z</time>
      </trkpt>
      <trkpt lat="45.93184" lon="4.71219">
        <ele>188.600006104</ele>
        <time>2016-02-26T09:36:28.878Z</time>
      </trkpt>
      <trkpt lat="45.93179" lon="4.71208">
        <ele>188.800003052</ele>
        <time>2016-02-26T09:36:30.903Z</time>
      </trkpt>
      <trkpt lat="45.93177" lon="4.71203">
        <ele>188.899993896</ele>
        <time>2016-02-26T09:36:31.88Z</time>
      </trkpt>
      <trkpt lat="45.93174" lon="4.71197">
        <ele>189</ele>
        <time>2016-02-26T09:36:32.899Z</time>
      </trkpt>
      <trkpt lat="45.93172" lon="4.71192">
        <ele>189.199996948</ele>
        <time>2016-02-26T09:36:33.914Z</time>
      </trkpt>
      <trkpt lat="45.93167" lon="4.71181">
        <ele>189.5</ele>
        <time>2016-02-26T09:36:35.9Z</time>
      </trkpt>
      <trkpt lat="45.93164" lon="4.71176">
        <ele>189.600006104</ele>
        <time>2016-02-26T09:36:36.882Z</time>
      </trkpt>
      <trkpt lat="45.93162" lon="4.7117">
        <ele>189.800003052</ele>
        <time>2016-02-26T09:36:37.9Z</time>
      </trkpt>
      <trkpt lat="45.9316" lon="4.71164">
        <ele>189.699996948</ele>
        <time>2016-02-26T09:36:38.884Z</time>
      </trkpt>
      <trkpt lat="45.93155" lon="4.71153">
        <ele>190.100006104</ele>
        <time>2016-02-26T09:36:40.898Z</time>
      </trkpt>
      <trkpt lat="45.93152" lon="4.71148">
        <ele>190.199996948</ele>
        <time>2016-02-26T09:36:41.88Z</time>
      </trkpt>
      <trkpt lat="45.93148" lon="4.71137">
        <ele>190.699996948</ele>
        <time>2016-02-26T09:36:43.93Z</time>
      </trkpt>
      <trkpt lat="45.93145" lon="4.71132">
        <ele>191</ele>
        <time>2016-02-26T09:36:44.883Z</time>
      </trkpt>
      <trkpt lat="45.93141" lon="4.71122">
        <ele>191.699996948</ele>
        <time>2016-02-26T09:36:46.914Z</time>
      </trkpt>
      <trkpt lat="45.93138" lon="4.71116">
        <ele>191.899993896</ele>
        <time>2016-02-26T09:36:47.897Z</time>
      </trkpt>
      <trkpt lat="45.93134" lon="4.71107">
        <ele>191.899993896</ele>
        <time>2016-02-26T09:36:49.905Z</time>
      </trkpt>
      <trkpt lat="45.93131" lon="4.71102">
        <ele>192</ele>
        <time>2016-02-26T09:36:50.883Z</time>
      </trkpt>
      <trkpt lat="45.93127" lon="4.71092">
        <ele>191.899993896</ele>
        <time>2016-02-26T09:36:52.899Z</time>
      </trkpt>
      <trkpt lat="45.93125" lon="4.71087">
        <ele>192</ele>
        <time>2016-02-26T09:36:53.912Z</time>
      </trkpt>
      <trkpt lat="45.93121" lon="4.71078">
        <ele>192.199996948</ele>
        <time>2016-02-26T09:36:55.898Z</time>
      </trkpt>
      <trkpt lat="45.93118" lon="4.71073">
        <ele>192.100006104</ele>
        <time>2016-02-26T09:36:56.882Z</time>
      </trkpt>
      <trkpt lat="45.93113" lon="4.71063">
        <ele>192.300003052</ele>
        <time>2016-02-26T09:36:58.898Z</time>
      </trkpt>
      <trkpt lat="45.93111" lon="4.71059">
        <ele>192.399993896</ele>
        <time>2016-02-26T09:36:59.879Z</time>
      </trkpt>
      <trkpt lat="45.93105" lon="4.7105">
        <ele>192.600006104</ele>
        <time>2016-02-26T09:37:01.9Z</time>
      </trkpt>
      <trkpt lat="45.93103" lon="4.71046">
        <ele>192.600006104</ele>
        <time>2016-02-26T09:37:02.88Z</time>
      </trkpt>
      <trkpt lat="45.93097" lon="4.71038">
        <ele>192.899993896</ele>
        <time>2016-02-26T09:37:04.905Z</time>
      </trkpt>
      <trkpt lat="45.93095" lon="4.71034">
        <ele>193.100006104</ele>
        <time>2016-02-26T09:37:05.886Z</time>
      </trkpt>
      <trkpt lat="45.93088" lon="4.71026">
        <ele>193.300003052</ele>
        <time>2016-02-26T09:37:07.899Z</time>
      </trkpt>
      <trkpt lat="45.93085" lon="4.71022">
        <ele>193.300003052</ele>
        <time>2016-02-26T09:37:08.879Z</time>
      </trkpt>
      <trkpt lat="45.9308" lon="4.71014">
        <ele>193.699996948</ele>
        <time>2016-02-26T09:37:10.903Z</time>
      </trkpt>
      <trkpt lat="45.93077" lon="4.7101">
        <ele>193.600006104</ele>
        <time>2016-02-26T09:37:11.878Z</time>
      </trkpt>
      <trkpt lat="45.93073" lon="4.71001">
        <ele>193.899993896</ele>
        <time>2016-02-26T09:37:13.933Z</time>
      </trkpt>
      <trkpt lat="45.93071" lon="4.70996">
        <ele>193.899993896</ele>
        <time>2016-02-26T09:37:14.881Z</time>
      </trkpt>
      <trkpt lat="45.9307" lon="4.70986">
        <ele>193.899993896</ele>
        <time>2016-02-26T09:37:16.898Z</time>
      </trkpt>
      <trkpt lat="45.93069" lon="4.70981">
        <ele>193.899993896</ele>
        <time>2016-02-26T09:37:17.878Z</time>
      </trkpt>
      <trkpt lat="45.93068" lon="4.7097">
        <ele>193.800003052</ele>
        <time>2016-02-26T09:37:19.898Z</time>
      </trkpt>
      <trkpt lat="45.93067" lon="4.70965">
        <ele>194.300003052</ele>
        <time>2016-02-26T09:37:20.881Z</time>
      </trkpt>
      <trkpt lat="45.93062" lon="4.70956">
        <ele>194.800003052</ele>
        <time>2016-02-26T09:37:22.898Z</time>
      </trkpt>
      <trkpt lat="45.9306" lon="4.70952">
        <ele>195.100006104</ele>
        <time>2016-02-26T09:37:23.909Z</time>
      </trkpt>
      <trkpt lat="45.93056" lon="4.70943">
        <ele>196.100006104</ele>
        <time>2016-02-26T09:37:25.898Z</time>
      </trkpt>
      <trkpt lat="45.93055" lon="4.70939">
        <ele>196.899993896</ele>
        <time>2016-02-26T09:37:26.881Z</time>
      </trkpt>
      <trkpt lat="45.93051" lon="4.7093">
        <ele>197.899993896</ele>
        <time>2016-02-26T09:37:28.901Z</time>
      </trkpt>
      <trkpt lat="45.93049" lon="4.70925">
        <ele>198.5</ele>
        <time>2016-02-26T09:37:29.878Z</time>
      </trkpt>
      <trkpt lat="45.93045" lon="4.70917">
        <ele>199.100006104</ele>
        <time>2016-02-26T09:37:31.899Z</time>
      </trkpt>
      <trkpt lat="45.93043" lon="4.70912">
        <ele>198.899993896</ele>
        <time>2016-02-26T09:37:32.882Z</time>
      </trkpt>
      <trkpt lat="45.9304" lon="4.70904">
        <ele>199.100006104</ele>
        <time>2016-02-26T09:37:34.915Z</time>
      </trkpt>
      <trkpt lat="45.93038" lon="4.70899">
        <ele>199.300003052</ele>
        <time>2016-02-26T09:37:35.902Z</time>
      </trkpt>
      <trkpt lat="45.93035" lon="4.70891">
        <ele>199.699996948</ele>
        <time>2016-02-26T09:37:37.899Z</time>
      </trkpt>
      <trkpt lat="45.93033" lon="4.70887">
        <ele>199.899993896</ele>
        <time>2016-02-26T09:37:38.882Z</time>
      </trkpt>
      <trkpt lat="45.93029" lon="4.70879">
        <ele>200.100006104</ele>
        <time>2016-02-26T09:37:40.898Z</time>
      </trkpt>
      <trkpt lat="45.93028" lon="4.70876">
        <ele>200.199996948</ele>
        <time>2016-02-26T09:37:41.88Z</time>
      </trkpt>
      <trkpt lat="45.93024" lon="4.70868">
        <ele>200.399993896</ele>
        <time>2016-02-26T09:37:43.928Z</time>
      </trkpt>
      <trkpt lat="45.93022" lon="4.70865">
        <ele>200.899993896</ele>
        <time>2016-02-26T09:37:44.883Z</time>
      </trkpt>
      <trkpt lat="45.93017" lon="4.70854">
        <ele>202</ele>
        <time>2016-02-26T09:37:47.898Z</time>
      </trkpt>
      <trkpt lat="45.93016" lon="4.70851">
        <ele>201.699996948</ele>
        <time>2016-02-26T09:37:48.879Z</time>
      </trkpt>
      <trkpt lat="45.93011" lon="4.70841">
        <ele>203.300003052</ele>
        <time>2016-02-26T09:37:51.949Z</time>
      </trkpt>
      <trkpt lat="45.93009" lon="4.70837">
        <ele>203.800003052</ele>
        <time>2016-02-26T09:37:52.882Z</time>
      </trkpt>
      <trkpt lat="45.93005" lon="4.70826">
        <ele>204.199996948</ele>
        <time>2016-02-26T09:37:55.915Z</time>
      </trkpt>
      <trkpt lat="45.93003" lon="4.70822">
        <ele>204.399993896</ele>
        <time>2016-02-26T09:37:56.88Z</time>
      </trkpt>
      <trkpt lat="45.92998" lon="4.70812">
        <ele>204.399993896</ele>
        <time>2016-02-26T09:37:59.897Z</time>
      </trkpt>
      <trkpt lat="45.92997" lon="4.70808">
        <ele>204.5</ele>
        <time>2016-02-26T09:38:00.909Z</time>
      </trkpt>
      <trkpt lat="45.92993" lon="4.70801">
        <ele>204.600006104</ele>
        <time>2016-02-26T09:38:02.94Z</time>
      </trkpt>
      <trkpt lat="45.92992" lon="4.70797">
        <ele>204.600006104</ele>
        <time>2016-02-26T09:38:03.896Z</time>
      </trkpt>
      <trkpt lat="45.92988" lon="4.7079">
        <ele>204.899993896</ele>
        <time>2016-02-26T09:38:05.898Z</time>
      </trkpt>
      <trkpt lat="45.92987" lon="4.70786">
        <ele>205.100006104</ele>
        <time>2016-02-26T09:38:06.916Z</time>
      </trkpt>
      <trkpt lat="45.92982" lon="4.70775">
        <ele>206.300003052</ele>
        <time>2016-02-26T09:38:09.898Z</time>
      </trkpt>
      <trkpt lat="45.92981" lon="4.70772">
        <ele>206.699996948</ele>
        <time>2016-02-26T09:38:10.88Z</time>
      </trkpt>
      <trkpt lat="45.92978" lon="4.70764">
        <ele>206.800003052</ele>
        <time>2016-02-26T09:38:12.903Z</time>
      </trkpt>
      <trkpt lat="45.92976" lon="4.7076">
        <ele>206.800003052</ele>
        <time>2016-02-26T09:38:13.884Z</time>
      </trkpt>
      <trkpt lat="45.92971" lon="4.7075">
        <ele>207.300003052</ele>
        <time>2016-02-26T09:38:17.055Z</time>
      </trkpt>
      <trkpt lat="45.92969" lon="4.70747">
        <ele>207.600006104</ele>
        <time>2016-02-26T09:38:17.88Z</time>
      </trkpt>
      <trkpt lat="45.92965" lon="4.70736">
        <ele>208.699996948</ele>
        <time>2016-02-26T09:38:20.899Z</time>
      </trkpt>
      <trkpt lat="45.92964" lon="4.70733">
        <ele>209.300003052</ele>
        <time>2016-02-26T09:38:21.88Z</time>
      </trkpt>
      <trkpt lat="45.9296" lon="4.70723">
        <ele>210</ele>
        <time>2016-02-26T09:38:24.903Z</time>
      </trkpt>
      <trkpt lat="45.92958" lon="4.7072">
        <ele>210.399993896</ele>
        <time>2016-02-26T09:38:25.88Z</time>
      </trkpt>
      <trkpt lat="45.92954" lon="4.7071">
        <ele>211.399993896</ele>
        <time>2016-02-26T09:38:29.066Z</time>
      </trkpt>
      <trkpt lat="45.92952" lon="4.70706">
        <ele>211.600006104</ele>
        <time>2016-02-26T09:38:29.878Z</time>
      </trkpt>
      <trkpt lat="45.92947" lon="4.70697">
        <ele>212.199996948</ele>
        <time>2016-02-26T09:38:32.916Z</time>
      </trkpt>
      <trkpt lat="45.92946" lon="4.70693">
        <ele>212.399993896</ele>
        <time>2016-02-26T09:38:33.88Z</time>
      </trkpt>
      <trkpt lat="45.92942" lon="4.70684">
        <ele>213</ele>
        <time>2016-02-26T09:38:36.967Z</time>
      </trkpt>
      <trkpt lat="45.9294" lon="4.7068">
        <ele>213.100006104</ele>
        <time>2016-02-26T09:38:37.879Z</time>
      </trkpt>
      <trkpt lat="45.92937" lon="4.7067">
        <ele>213.100006104</ele>
        <time>2016-02-26T09:38:40.898Z</time>
      </trkpt>
      <trkpt lat="45.92935" lon="4.70667">
        <ele>213.199996948</ele>
        <time>2016-02-26T09:38:41.879Z</time>
      </trkpt>
      <trkpt lat="45.92931" lon="4.70659">
        <ele>213.600006104</ele>
        <time>2016-02-26T09:38:44.901Z</time>
      </trkpt>
      <trkpt lat="45.9293" lon="4.70656">
        <ele>213</ele>
        <time>2016-02-26T09:38:45.88Z</time>
      </trkpt>
      <trkpt lat="45.92926" lon="4.70646">
        <ele>212.899993896</ele>
        <time>2016-02-26T09:38:48.92Z</time>
      </trkpt>
      <trkpt lat="45.92925" lon="4.70643">
        <ele>213.399993896</ele>
        <time>2016-02-26T09:38:49.929Z</time>
      </trkpt>
      <trkpt lat="45.9292" lon="4.70634">
        <ele>213.300003052</ele>
        <time>2016-02-26T09:38:52.898Z</time>
      </trkpt>
      <trkpt lat="45.92919" lon="4.70631">
        <ele>213.100006104</ele>
        <time>2016-02-26T09:38:53.877Z</time>
      </trkpt>
      <trkpt lat="45.92915" lon="4.70622">
        <ele>213.199996948</ele>
        <time>2016-02-26T09:38:56.898Z</time>
      </trkpt>
      <trkpt lat="45.92914" lon="4.70619">
        <ele>213.199996948</ele>
        <time>2016-02-26T09:38:57.879Z</time>
      </trkpt>
      <trkpt lat="45.9291" lon="4.7061">
        <ele>213.5</ele>
        <time>2016-02-26T09:39:00.903Z</time>
      </trkpt>
      <trkpt lat="45.92908" lon="4.70608">
        <ele>213.800003052</ele>
        <time>2016-02-26T09:39:01.879Z</time>
      </trkpt>
      <trkpt lat="45.92904" lon="4.706">
        <ele>214.600006104</ele>
        <time>2016-02-26T09:39:04.921Z</time>
      </trkpt>
      <trkpt lat="45.92903" lon="4.70597">
        <ele>214.699996948</ele>
        <time>2016-02-26T09:39:05.879Z</time>
      </trkpt>
      <trkpt lat="45.92899" lon="4.70589">
        <ele>215.199996948</ele>
        <time>2016-02-26T09:39:08.902Z</time>
      </trkpt>
      <trkpt lat="45.92897" lon="4.70586">
        <ele>215.399993896</ele>
        <time>2016-02-26T09:39:09.9Z</time>
      </trkpt>
      <trkpt lat="45.92893" lon="4.70577">
        <ele>216.100006104</ele>
        <time>2016-02-26T09:39:12.905Z</time>
      </trkpt>
      <trkpt lat="45.92891" lon="4.70574">
        <ele>216.199996948</ele>
        <time>2016-02-26T09:39:13.879Z</time>
      </trkpt>
      <trkpt lat="45.92888" lon="4.70563">
        <ele>216.800003052</ele>
        <time>2016-02-26T09:39:16.898Z</time>
      </trkpt>
      <trkpt lat="45.92886" lon="4.7056">
        <ele>217</ele>
        <time>2016-02-26T09:39:17.877Z</time>
      </trkpt>
      <trkpt lat="45.92882" lon="4.7055">
        <ele>217.199996948</ele>
        <time>2016-02-26T09:39:20.904Z</time>
      </trkpt>
      <trkpt lat="45.92881" lon="4.70546">
        <ele>217.300003052</ele>
        <time>2016-02-26T09:39:21.88Z</time>
      </trkpt>
      <trkpt lat="45.92876" lon="4.70536">
        <ele>217.699996948</ele>
        <time>2016-02-26T09:39:24.904Z</time>
      </trkpt>
      <trkpt lat="45.92874" lon="4.70532">
        <ele>217.699996948</ele>
        <time>2016-02-26T09:39:25.877Z</time>
      </trkpt>
      <trkpt lat="45.92869" lon="4.70521">
        <ele>217.699996948</ele>
        <time>2016-02-26T09:39:28.903Z</time>
      </trkpt>
      <trkpt lat="45.92868" lon="4.70518">
        <ele>217.800003052</ele>
        <time>2016-02-26T09:39:29.877Z</time>
      </trkpt>
      <trkpt lat="45.92863" lon="4.70508">
        <ele>217.699996948</ele>
        <time>2016-02-26T09:39:32.9Z</time>
      </trkpt>
      <trkpt lat="45.92862" lon="4.70504">
        <ele>218.100006104</ele>
        <time>2016-02-26T09:39:33.879Z</time>
      </trkpt>
      <trkpt lat="45.92857" lon="4.70494">
        <ele>218.699996948</ele>
        <time>2016-02-26T09:39:36.904Z</time>
      </trkpt>
      <trkpt lat="45.92856" lon="4.70491">
        <ele>219</ele>
        <time>2016-02-26T09:39:37.878Z</time>
      </trkpt>
      <trkpt lat="45.92852" lon="4.70482">
        <ele>220.699996948</ele>
        <time>2016-02-26T09:39:40.9Z</time>
      </trkpt>
      <trkpt lat="45.92851" lon="4.70479">
        <ele>220.899993896</ele>
        <time>2016-02-26T09:39:41.878Z</time>
      </trkpt>
      <trkpt lat="45.92849" lon="4.7047">
        <ele>221.699996948</ele>
        <time>2016-02-26T09:39:44.914Z</time>
      </trkpt>
      <trkpt lat="45.92848" lon="4.70466">
        <ele>222</ele>
        <time>2016-02-26T09:39:45.879Z</time>
      </trkpt>
      <trkpt lat="45.92848" lon="4.70456">
        <ele>222.699996948</ele>
        <time>2016-02-26T09:39:48.904Z</time>
      </trkpt>
      <trkpt lat="45.92848" lon="4.70453">
        <ele>222.800003052</ele>
        <time>2016-02-26T09:39:49.881Z</time>
      </trkpt>
      <trkpt lat="45.92849" lon="4.70442">
        <ele>223.300003052</ele>
        <time>2016-02-26T09:39:52.906Z</time>
      </trkpt>
      <trkpt lat="45.92849" lon="4.70438">
        <ele>223.5</ele>
        <time>2016-02-26T09:39:53.879Z</time>
      </trkpt>
      <trkpt lat="45.92851" lon="4.70428">
        <ele>223.699996948</ele>
        <time>2016-02-26T09:39:56.902Z</time>
      </trkpt>
      <trkpt lat="45.92852" lon="4.70424">
        <ele>223.699996948</ele>
        <time>2016-02-26T09:39:57.88Z</time>
      </trkpt>
      <trkpt lat="45.92854" lon="4.70414">
        <ele>223.899993896</ele>
        <time>2016-02-26T09:40:00.905Z</time>
      </trkpt>
      <trkpt lat="45.92855" lon="4.70411">
        <ele>223.800003052</ele>
        <time>2016-02-26T09:40:01.929Z</time>
      </trkpt>
      <trkpt lat="45.92857" lon="4.70401">
        <ele>225</ele>
        <time>2016-02-26T09:40:04.898Z</time>
      </trkpt>
      <trkpt lat="45.92858" lon="4.70398">
        <ele>225.399993896</ele>
        <time>2016-02-26T09:40:05.879Z</time>
      </trkpt>
      <trkpt lat="45.9286" lon="4.70387">
        <ele>226.300003052</ele>
        <time>2016-02-26T09:40:08.901Z</time>
      </trkpt>
      <trkpt lat="45.92861" lon="4.70384">
        <ele>226.600006104</ele>
        <time>2016-02-26T09:40:09.879Z</time>
      </trkpt>
      <trkpt lat="45.92864" lon="4.70374">
        <ele>227.699996948</ele>
        <time>2016-02-26T09:40:12.907Z</time>
      </trkpt>
      <trkpt lat="45.92864" lon="4.7037">
        <ele>227.899993896</ele>
        <time>2016-02-26T09:40:13.877Z</time>
      </trkpt>
      <trkpt lat="45.92866" lon="4.70358">
        <ele>229</ele>
        <time>2016-02-26T09:40:16.96Z</time>
      </trkpt>
      <trkpt lat="45.92866" lon="4.70355">
        <ele>229.399993896</ele>
        <time>2016-02-26T09:40:17.88Z</time>
      </trkpt>
      <trkpt lat="45.92868" lon="4.70344">
        <ele>230.100006104</ele>
        <time>2016-02-26T09:40:20.899Z</time>
      </trkpt>
      <trkpt lat="45.92869" lon="4.7034">
        <ele>230.199996948</ele>
        <time>2016-02-26T09:40:21.879Z</time>
      </trkpt>
      <trkpt lat="45.92871" lon="4.70329">
        <ele>230.199996948</ele>
        <time>2016-02-26T09:40:24.902Z</time>
      </trkpt>
      <trkpt lat="45.92871" lon="4.70325">
        <ele>230.300003052</ele>
        <time>2016-02-26T09:40:25.877Z</time>
      </trkpt>
      <trkpt lat="45.92873" lon="4.70315">
        <ele>230.399993896</ele>
        <time>2016-02-26T09:40:28.9Z</time>
      </trkpt>
      <trkpt lat="45.92874" lon="4.70311">
        <ele>230</ele>
        <time>2016-02-26T09:40:29.877Z</time>
      </trkpt>
      <trkpt lat="45.92875" lon="4.703">
        <ele>229.399993896</ele>
        <time>2016-02-26T09:40:32.919Z</time>
      </trkpt>
      <trkpt lat="45.92876" lon="4.70296">
        <ele>229.199996948</ele>
        <time>2016-02-26T09:40:33.903Z</time>
      </trkpt>
      <trkpt lat="45.92878" lon="4.70285">
        <ele>229.5</ele>
        <time>2016-02-26T09:40:36.904Z</time>
      </trkpt>
      <trkpt lat="45.92879" lon="4.70282">
        <ele>230</ele>
        <time>2016-02-26T09:40:37.879Z</time>
      </trkpt>
      <trkpt lat="45.92881" lon="4.70271">
        <ele>230.300003052</ele>
        <time>2016-02-26T09:40:40.898Z</time>
      </trkpt>
      <trkpt lat="45.92882" lon="4.70268">
        <ele>230.300003052</ele>
        <time>2016-02-26T09:40:41.88Z</time>
      </trkpt>
      <trkpt lat="45.92883" lon="4.70258">
        <ele>230.199996948</ele>
        <time>2016-02-26T09:40:44.899Z</time>
      </trkpt>
      <trkpt lat="45.92884" lon="4.70254">
        <ele>230.399993896</ele>
        <time>2016-02-26T09:40:45.877Z</time>
      </trkpt>
      <trkpt lat="45.92884" lon="4.70244">
        <ele>231</ele>
        <time>2016-02-26T09:40:48.919Z</time>
      </trkpt>
      <trkpt lat="45.92884" lon="4.7024">
        <ele>231.300003052</ele>
        <time>2016-02-26T09:40:49.877Z</time>
      </trkpt>
      <trkpt lat="45.92884" lon="4.7023">
        <ele>232.600006104</ele>
        <time>2016-02-26T09:40:52.898Z</time>
      </trkpt>
      <trkpt lat="45.92885" lon="4.70226">
        <ele>232.800003052</ele>
        <time>2016-02-26T09:40:53.888Z</time>
      </trkpt>
      <trkpt lat="45.92886" lon="4.70216">
        <ele>233.300003052</ele>
        <time>2016-02-26T09:40:56.94Z</time>
      </trkpt>
      <trkpt lat="45.92886" lon="4.70212">
        <ele>233.600006104</ele>
        <time>2016-02-26T09:40:57.877Z</time>
      </trkpt>
      <trkpt lat="45.92887" lon="4.702">
        <ele>234.5</ele>
        <time>2016-02-26T09:41:00.902Z</time>
      </trkpt>
      <trkpt lat="45.92887" lon="4.70197">
        <ele>234.100006104</ele>
        <time>2016-02-26T09:41:01.877Z</time>
      </trkpt>
      <trkpt lat="45.92887" lon="4.70185">
        <ele>234.399993896</ele>
        <time>2016-02-26T09:41:04.917Z</time>
      </trkpt>
      <trkpt lat="45.92887" lon="4.70181">
        <ele>234.600006104</ele>
        <time>2016-02-26T09:41:05.877Z</time>
      </trkpt>
      <trkpt lat="45.92888" lon="4.7017">
        <ele>235.100006104</ele>
        <time>2016-02-26T09:41:08.898Z</time>
      </trkpt>
      <trkpt lat="45.92888" lon="4.70166">
        <ele>235.100006104</ele>
        <time>2016-02-26T09:41:09.877Z</time>
      </trkpt>
      <trkpt lat="45.92888" lon="4.70155">
        <ele>236.399993896</ele>
        <time>2016-02-26T09:41:12.902Z</time>
      </trkpt>
      <trkpt lat="45.92889" lon="4.70152">
        <ele>236.800003052</ele>
        <time>2016-02-26T09:41:13.975Z</time>
      </trkpt>
      <trkpt lat="45.9289" lon="4.7014">
        <ele>237.399993896</ele>
        <time>2016-02-26T09:41:16.9Z</time>
      </trkpt>
      <trkpt lat="45.9289" lon="4.70137">
        <ele>237.699996948</ele>
        <time>2016-02-26T09:41:17.877Z</time>
      </trkpt>
      <trkpt lat="45.92891" lon="4.70126">
        <ele>238.199996948</ele>
        <time>2016-02-26T09:41:20.92Z</time>
      </trkpt>
      <trkpt lat="45.92891" lon="4.70123">
        <ele>238.399993896</ele>
        <time>2016-02-26T09:41:21.878Z</time>
      </trkpt>
      <trkpt lat="45.92891" lon="4.70112">
        <ele>238.699996948</ele>
        <time>2016-02-26T09:41:24.902Z</time>
      </trkpt>
      <trkpt lat="45.92891" lon="4.70108">
        <ele>238.800003052</ele>
        <time>2016-02-26T09:41:25.877Z</time>
      </trkpt>
      <trkpt lat="45.92892" lon="4.70098">
        <ele>239.100006104</ele>
        <time>2016-02-26T09:41:28.902Z</time>
      </trkpt>
      <trkpt lat="45.92891" lon="4.70094">
        <ele>239.100006104</ele>
        <time>2016-02-26T09:41:29.88Z</time>
      </trkpt>
      <trkpt lat="45.92892" lon="4.70083">
        <ele>239.5</ele>
        <time>2016-02-26T09:41:32.898Z</time>
      </trkpt>
      <trkpt lat="45.92892" lon="4.70079">
        <ele>239.399993896</ele>
        <time>2016-02-26T09:41:33.877Z</time>
      </trkpt>
      <trkpt lat="45.92893" lon="4.70068">
        <ele>240.199996948</ele>
        <time>2016-02-26T09:41:37.093Z</time>
      </trkpt>
      <trkpt lat="45.92893" lon="4.70065">
        <ele>239.800003052</ele>
        <time>2016-02-26T09:41:37.908Z</time>
      </trkpt>
      <trkpt lat="45.92894" lon="4.70054">
        <ele>240.600006104</ele>
        <time>2016-02-26T09:41:40.897Z</time>
      </trkpt>
      <trkpt lat="45.92894" lon="4.7005">
        <ele>240.800003052</ele>
        <time>2016-02-26T09:41:41.878Z</time>
      </trkpt>
      <trkpt lat="45.92894" lon="4.7004">
        <ele>241.100006104</ele>
        <time>2016-02-26T09:41:44.899Z</time>
      </trkpt>
      <trkpt lat="45.92894" lon="4.70037">
        <ele>241.5</ele>
        <time>2016-02-26T09:41:45.877Z</time>
      </trkpt>
      <trkpt lat="45.92896" lon="4.70027">
        <ele>242.5</ele>
        <time>2016-02-26T09:41:48.937Z</time>
      </trkpt>
      <trkpt lat="45.92897" lon="4.70023">
        <ele>242.600006104</ele>
        <time>2016-02-26T09:41:49.88Z</time>
      </trkpt>
      <trkpt lat="45.929" lon="4.70015">
        <ele>242.899993896</ele>
        <time>2016-02-26T09:41:52.914Z</time>
      </trkpt>
      <trkpt lat="45.92902" lon="4.70013">
        <ele>243.100006104</ele>
        <time>2016-02-26T09:41:53.879Z</time>
      </trkpt>
      <trkpt lat="45.92908" lon="4.70008">
        <ele>243.5</ele>
        <time>2016-02-26T09:41:56.904Z</time>
      </trkpt>
      <trkpt lat="45.92911" lon="4.70007">
        <ele>244.399993896</ele>
        <time>2016-02-26T09:41:57.88Z</time>
      </trkpt>
      <trkpt lat="45.92918" lon="4.70006">
        <ele>244.399993896</ele>
        <time>2016-02-26T09:42:00.905Z</time>
      </trkpt>
      <trkpt lat="45.9292" lon="4.70007">
        <ele>244.5</ele>
        <time>2016-02-26T09:42:01.881Z</time>
      </trkpt>
      <trkpt lat="45.92927" lon="4.70014">
        <ele>244.399993896</ele>
        <time>2016-02-26T09:42:04.9Z</time>
      </trkpt>
      <trkpt lat="45.92928" lon="4.70017">
        <ele>245.199996948</ele>
        <time>2016-02-26T09:42:05.88Z</time>
      </trkpt>
      <trkpt lat="45.92932" lon="4.70027">
        <ele>245.600006104</ele>
        <time>2016-02-26T09:42:08.899Z</time>
      </trkpt>
      <trkpt lat="45.92934" lon="4.7003">
        <ele>245.5</ele>
        <time>2016-02-26T09:42:09.879Z</time>
      </trkpt>
      <trkpt lat="45.92936" lon="4.70041">
        <ele>246.300003052</ele>
        <time>2016-02-26T09:42:12.903Z</time>
      </trkpt>
      <trkpt lat="45.92937" lon="4.70045">
        <ele>246.399993896</ele>
        <time>2016-02-26T09:42:13.897Z</time>
      </trkpt>
      <trkpt lat="45.9294" lon="4.70054">
        <ele>246</ele>
        <time>2016-02-26T09:42:16.898Z</time>
      </trkpt>
      <trkpt lat="45.92942" lon="4.70057">
        <ele>245.899993896</ele>
        <time>2016-02-26T09:42:17.877Z</time>
      </trkpt>
      <trkpt lat="45.92949" lon="4.70063">
        <ele>246.699996948</ele>
        <time>2016-02-26T09:42:20.899Z</time>
      </trkpt>
      <trkpt lat="45.92951" lon="4.70065">
        <ele>246.699996948</ele>
        <time>2016-02-26T09:42:21.877Z</time>
      </trkpt>
      <trkpt lat="45.9296" lon="4.70065">
        <ele>247.300003052</ele>
        <time>2016-02-26T09:42:24.911Z</time>
      </trkpt>
      <trkpt lat="45.92963" lon="4.70064">
        <ele>247.300003052</ele>
        <time>2016-02-26T09:42:25.877Z</time>
      </trkpt>
      <trkpt lat="45.92969" lon="4.70058">
        <ele>247.199996948</ele>
        <time>2016-02-26T09:42:28.9Z</time>
      </trkpt>
      <trkpt lat="45.92972" lon="4.70055">
        <ele>247.300003052</ele>
        <time>2016-02-26T09:42:29.878Z</time>
      </trkpt>
      <trkpt lat="45.92978" lon="4.70047">
        <ele>247.5</ele>
        <time>2016-02-26T09:42:32.898Z</time>
      </trkpt>
      <trkpt lat="45.92979" lon="4.70045">
        <ele>248</ele>
        <time>2016-02-26T09:42:33.877Z</time>
      </trkpt>
      <trkpt lat="45.92983" lon="4.70036">
        <ele>248.300003052</ele>
        <time>2016-02-26T09:42:36.901Z</time>
      </trkpt>
      <trkpt lat="45.92983" lon="4.70032">
        <ele>248.399993896</ele>
        <time>2016-02-26T09:42:37.877Z</time>
      </trkpt>
      <trkpt lat="45.92986" lon="4.70023">
        <ele>249.800003052</ele>
        <time>2016-02-26T09:42:40.898Z</time>
      </trkpt>
      <trkpt lat="45.92987" lon="4.7002">
        <ele>250.399993896</ele>
        <time>2016-02-26T09:42:41.879Z</time>
      </trkpt>
      <trkpt lat="45.9299" lon="4.70011">
        <ele>251</ele>
        <time>2016-02-26T09:42:44.956Z</time>
      </trkpt>
      <trkpt lat="45.92991" lon="4.70008">
        <ele>251.100006104</ele>
        <time>2016-02-26T09:42:45.878Z</time>
      </trkpt>
      <trkpt lat="45.92995" lon="4.69998">
        <ele>251.699996948</ele>
        <time>2016-02-26T09:42:48.905Z</time>
      </trkpt>
      <trkpt lat="45.92996" lon="4.69994">
        <ele>252.100006104</ele>
        <time>2016-02-26T09:42:49.891Z</time>
      </trkpt>
      <trkpt lat="45.92999" lon="4.69983">
        <ele>252.300003052</ele>
        <time>2016-02-26T09:42:52.898Z</time>
      </trkpt>
      <trkpt lat="45.93" lon="4.6998">
        <ele>252.5</ele>
        <time>2016-02-26T09:42:53.878Z</time>
      </trkpt>
      <trkpt lat="45.93004" lon="4.69968">
        <ele>253.399993896</ele>
        <time>2016-02-26T09:42:57.897Z</time>
      </trkpt>
      <trkpt lat="45.93005" lon="4.69965">
        <ele>253.5</ele>
        <time>2016-02-26T09:42:58.88Z</time>
      </trkpt>
      <trkpt lat="45.9301" lon="4.69957">
        <ele>254.5</ele>
        <time>2016-02-26T09:43:01.9Z</time>
      </trkpt>
      <trkpt lat="45.93011" lon="4.69954">
        <ele>255</ele>
        <time>2016-02-26T09:43:02.88Z</time>
      </trkpt>
      <trkpt lat="45.93017" lon="4.69946">
        <ele>256</ele>
        <time>2016-02-26T09:43:05.914Z</time>
      </trkpt>
      <trkpt lat="45.93019" lon="4.69943">
        <ele>256.299987793</ele>
        <time>2016-02-26T09:43:06.886Z</time>
      </trkpt>
      <trkpt lat="45.93024" lon="4.69936">
        <ele>256.100006104</ele>
        <time>2016-02-26T09:43:09.897Z</time>
      </trkpt>
      <trkpt lat="45.93026" lon="4.69933">
        <ele>256.299987793</ele>
        <time>2016-02-26T09:43:10.877Z</time>
      </trkpt>
      <trkpt lat="45.93031" lon="4.69926">
        <ele>256.899993896</ele>
        <time>2016-02-26T09:43:13.897Z</time>
      </trkpt>
      <trkpt lat="45.93033" lon="4.69924">
        <ele>257.100006104</ele>
        <time>2016-02-26T09:43:14.885Z</time>
      </trkpt>
      <trkpt lat="45.93038" lon="4.69916">
        <ele>257.399993896</ele>
        <time>2016-02-26T09:43:17.898Z</time>
      </trkpt>
      <trkpt lat="45.9304" lon="4.69914">
        <ele>257.299987793</ele>
        <time>2016-02-26T09:43:18.883Z</time>
      </trkpt>
      <trkpt lat="45.93047" lon="4.69907">
        <ele>257.600006104</ele>
        <time>2016-02-26T09:43:22.898Z</time>
      </trkpt>
      <trkpt lat="45.93049" lon="4.69905">
        <ele>257.700012207</ele>
        <time>2016-02-26T09:43:23.879Z</time>
      </trkpt>
      <trkpt lat="45.93054" lon="4.69899">
        <ele>258.5</ele>
        <time>2016-02-26T09:43:26.916Z</time>
      </trkpt>
      <trkpt lat="45.93056" lon="4.69897">
        <ele>258.899993896</ele>
        <time>2016-02-26T09:43:27.879Z</time>
      </trkpt>
      <trkpt lat="45.93062" lon="4.69892">
        <ele>259.399993896</ele>
        <time>2016-02-26T09:43:30.901Z</time>
      </trkpt>
      <trkpt lat="45.93064" lon="4.69889">
        <ele>259.299987793</ele>
        <time>2016-02-26T09:43:31.86Z</time>
      </trkpt>
      <trkpt lat="45.9307" lon="4.69883">
        <ele>259.5</ele>
        <time>2016-02-26T09:43:34.898Z</time>
      </trkpt>
      <trkpt lat="45.93071" lon="4.69881">
        <ele>259.799987793</ele>
        <time>2016-02-26T09:43:35.878Z</time>
      </trkpt>
      <trkpt lat="45.93077" lon="4.69874">
        <ele>261</ele>
        <time>2016-02-26T09:43:38.899Z</time>
      </trkpt>
      <trkpt lat="45.93079" lon="4.69872">
        <ele>261.200012207</ele>
        <time>2016-02-26T09:43:39.879Z</time>
      </trkpt>
      <trkpt lat="45.93084" lon="4.69866">
        <ele>261.200012207</ele>
        <time>2016-02-26T09:43:42.918Z</time>
      </trkpt>
      <trkpt lat="45.93086" lon="4.69864">
        <ele>261.100006104</ele>
        <time>2016-02-26T09:43:43.88Z</time>
      </trkpt>
      <trkpt lat="45.93092" lon="4.69858">
        <ele>261.5</ele>
        <time>2016-02-26T09:43:46.898Z</time>
      </trkpt>
      <trkpt lat="45.93094" lon="4.69856">
        <ele>261.600006104</ele>
        <time>2016-02-26T09:43:47.877Z</time>
      </trkpt>
      <trkpt lat="45.931" lon="4.69848">
        <ele>262.399993896</ele>
        <time>2016-02-26T09:43:50.899Z</time>
      </trkpt>
      <trkpt lat="45.93102" lon="4.69845">
        <ele>262.799987793</ele>
        <time>2016-02-26T09:43:51.877Z</time>
      </trkpt>
      <trkpt lat="45.93109" lon="4.69839">
        <ele>262.899993896</ele>
        <time>2016-02-26T09:43:54.913Z</time>
      </trkpt>
      <trkpt lat="45.9311" lon="4.69837">
        <ele>262.700012207</ele>
        <time>2016-02-26T09:43:55.878Z</time>
      </trkpt>
      <trkpt lat="45.93116" lon="4.69831">
        <ele>262.700012207</ele>
        <time>2016-02-26T09:43:58.898Z</time>
      </trkpt>
      <trkpt lat="45.93118" lon="4.69829">
        <ele>263</ele>
        <time>2016-02-26T09:43:59.908Z</time>
      </trkpt>
      <trkpt lat="45.93124" lon="4.69824">
        <ele>263.399993896</ele>
        <time>2016-02-26T09:44:02.898Z</time>
      </trkpt>
      <trkpt lat="45.93126" lon="4.69822">
        <ele>263.600006104</ele>
        <time>2016-02-26T09:44:03.902Z</time>
      </trkpt>
      <trkpt lat="45.93132" lon="4.69817">
        <ele>264.399993896</ele>
        <time>2016-02-26T09:44:06.905Z</time>
      </trkpt>
      <trkpt lat="45.93134" lon="4.69814">
        <ele>264.600006104</ele>
        <time>2016-02-26T09:44:07.878Z</time>
      </trkpt>
      <trkpt lat="45.9314" lon="4.69809">
        <ele>265.600006104</ele>
        <time>2016-02-26T09:44:10.899Z</time>
      </trkpt>
      <trkpt lat="45.93142" lon="4.69807">
        <ele>265.700012207</ele>
        <time>2016-02-26T09:44:11.879Z</time>
      </trkpt>
      <trkpt lat="45.93148" lon="4.69802">
        <ele>265.600006104</ele>
        <time>2016-02-26T09:44:14.898Z</time>
      </trkpt>
      <trkpt lat="45.9315" lon="4.69801">
        <ele>265.600006104</ele>
        <time>2016-02-26T09:44:15.877Z</time>
      </trkpt>
      <trkpt lat="45.93158" lon="4.69797">
        <ele>266</ele>
        <time>2016-02-26T09:44:18.901Z</time>
      </trkpt>
      <trkpt lat="45.9316" lon="4.69795">
        <ele>266.200012207</ele>
        <time>2016-02-26T09:44:19.88Z</time>
      </trkpt>
      <trkpt lat="45.93166" lon="4.69791">
        <ele>266.600006104</ele>
        <time>2016-02-26T09:44:22.896Z</time>
      </trkpt>
      <trkpt lat="45.93169" lon="4.6979">
        <ele>266.700012207</ele>
        <time>2016-02-26T09:44:23.877Z</time>
      </trkpt>
      <trkpt lat="45.93177" lon="4.69786">
        <ele>267.100006104</ele>
        <time>2016-02-26T09:44:26.918Z</time>
      </trkpt>
      <trkpt lat="45.93179" lon="4.69784">
        <ele>267.100006104</ele>
        <time>2016-02-26T09:44:27.877Z</time>
      </trkpt>
      <trkpt lat="45.93186" lon="4.69781">
        <ele>267.5</ele>
        <time>2016-02-26T09:44:30.901Z</time>
      </trkpt>
      <trkpt lat="45.93188" lon="4.6978">
        <ele>267.799987793</ele>
        <time>2016-02-26T09:44:31.879Z</time>
      </trkpt>
      <trkpt lat="45.93195" lon="4.69777">
        <ele>267.799987793</ele>
        <time>2016-02-26T09:44:34.92Z</time>
      </trkpt>
      <trkpt lat="45.93197" lon="4.69776">
        <ele>267.5</ele>
        <time>2016-02-26T09:44:35.877Z</time>
      </trkpt>
      <trkpt lat="45.93204" lon="4.69772">
        <ele>267.700012207</ele>
        <time>2016-02-26T09:44:38.898Z</time>
      </trkpt>
      <trkpt lat="45.93207" lon="4.69771">
        <ele>268.100006104</ele>
        <time>2016-02-26T09:44:39.879Z</time>
      </trkpt>
      <trkpt lat="45.93214" lon="4.69769">
        <ele>268.899993896</ele>
        <time>2016-02-26T09:44:42.948Z</time>
      </trkpt>
      <trkpt lat="45.93216" lon="4.69768">
        <ele>269</ele>
        <time>2016-02-26T09:44:43.877Z</time>
      </trkpt>
      <trkpt lat="45.93223" lon="4.69765">
        <ele>269.700012207</ele>
        <time>2016-02-26T09:44:46.897Z</time>
      </trkpt>
      <trkpt lat="45.93225" lon="4.69764">
        <ele>269.899993896</ele>
        <time>2016-02-26T09:44:47.877Z</time>
      </trkpt>
      <trkpt lat="45.93233" lon="4.6976">
        <ele>270.600006104</ele>
        <time>2016-02-26T09:44:51.897Z</time>
      </trkpt>
      <trkpt lat="45.93235" lon="4.69761">
        <ele>270.799987793</ele>
        <time>2016-02-26T09:44:52.877Z</time>
      </trkpt>
      <trkpt lat="45.93242" lon="4.6976">
        <ele>271.399993896</ele>
        <time>2016-02-26T09:44:56.119Z</time>
      </trkpt>
      <trkpt lat="45.93245" lon="4.6976">
        <ele>271.5</ele>
        <time>2016-02-26T09:44:56.881Z</time>
      </trkpt>
      <trkpt lat="45.93251" lon="4.69759">
        <ele>273</ele>
        <time>2016-02-26T09:44:59.899Z</time>
      </trkpt>
      <trkpt lat="45.93254" lon="4.69757">
        <ele>273</ele>
        <time>2016-02-26T09:45:00.881Z</time>
      </trkpt>
      <trkpt lat="45.9326" lon="4.69754">
        <ele>273.299987793</ele>
        <time>2016-02-26T09:45:03.897Z</time>
      </trkpt>
      <trkpt lat="45.93263" lon="4.69753">
        <ele>273.200012207</ele>
        <time>2016-02-26T09:45:04.877Z</time>
      </trkpt>
      <trkpt lat="45.9327" lon="4.69753">
        <ele>273.899993896</ele>
        <time>2016-02-26T09:45:07.958Z</time>
      </trkpt>
      <trkpt lat="45.93272" lon="4.69753">
        <ele>274.100006104</ele>
        <time>2016-02-26T09:45:08.882Z</time>
      </trkpt>
      <trkpt lat="45.93279" lon="4.69751">
        <ele>274.200012207</ele>
        <time>2016-02-26T09:45:11.914Z</time>
      </trkpt>
      <trkpt lat="45.93282" lon="4.6975">
        <ele>274.5</ele>
        <time>2016-02-26T09:45:12.881Z</time>
      </trkpt>
      <trkpt lat="45.93288" lon="4.69743">
        <ele>274.600006104</ele>
        <time>2016-02-26T09:45:15.927Z</time>
      </trkpt>
      <trkpt lat="45.9329" lon="4.69741">
        <ele>274.700012207</ele>
        <time>2016-02-26T09:45:16.877Z</time>
      </trkpt>
      <trkpt lat="45.93294" lon="4.69732">
        <ele>274.600006104</ele>
        <time>2016-02-26T09:45:19.897Z</time>
      </trkpt>
      <trkpt lat="45.93294" lon="4.69728">
        <ele>274.600006104</ele>
        <time>2016-02-26T09:45:20.881Z</time>
      </trkpt>
      <trkpt lat="45.93294" lon="4.69717">
        <ele>274.899993896</ele>
        <time>2016-02-26T09:45:23.899Z</time>
      </trkpt>
      <trkpt lat="45.93294" lon="4.69714">
        <ele>275.399993896</ele>
        <time>2016-02-26T09:45:24.885Z</time>
      </trkpt>
      <trkpt lat="45.93289" lon="4.69705">
        <ele>276.200012207</ele>
        <time>2016-02-26T09:45:27.898Z</time>
      </trkpt>
      <trkpt lat="45.93287" lon="4.69702">
        <ele>276.399993896</ele>
        <time>2016-02-26T09:45:28.879Z</time>
      </trkpt>
      <trkpt lat="45.9328" lon="4.69696">
        <ele>277.299987793</ele>
        <time>2016-02-26T09:45:31.897Z</time>
      </trkpt>
      <trkpt lat="45.93277" lon="4.69695">
        <ele>277.600006104</ele>
        <time>2016-02-26T09:45:32.88Z</time>
      </trkpt>
      <trkpt lat="45.93269" lon="4.69695">
        <ele>277.799987793</ele>
        <time>2016-02-26T09:45:35.9Z</time>
      </trkpt>
      <trkpt lat="45.93266" lon="4.69695">
        <ele>278</ele>
        <time>2016-02-26T09:45:36.88Z</time>
      </trkpt>
      <trkpt lat="45.9326" lon="4.69694">
        <ele>278.299987793</ele>
        <time>2016-02-26T09:45:38.9Z</time>
      </trkpt>
      <trkpt lat="45.93257" lon="4.69695">
        <ele>278.700012207</ele>
        <time>2016-02-26T09:45:39.881Z</time>
      </trkpt>
      <trkpt lat="45.9325" lon="4.69696">
        <ele>279.299987793</ele>
        <time>2016-02-26T09:45:41.899Z</time>
      </trkpt>
      <trkpt lat="45.93247" lon="4.69697">
        <ele>279.600006104</ele>
        <time>2016-02-26T09:45:42.883Z</time>
      </trkpt>
      <trkpt lat="45.93238" lon="4.69697">
        <ele>280.299987793</ele>
        <time>2016-02-26T09:45:45.898Z</time>
      </trkpt>
      <trkpt lat="45.93235" lon="4.69696">
        <ele>280.899993896</ele>
        <time>2016-02-26T09:45:46.9Z</time>
      </trkpt>
      <trkpt lat="45.93229" lon="4.69696">
        <ele>280.700012207</ele>
        <time>2016-02-26T09:45:48.901Z</time>
      </trkpt>
      <trkpt lat="45.93226" lon="4.69696">
        <ele>281</ele>
        <time>2016-02-26T09:45:49.877Z</time>
      </trkpt>
      <trkpt lat="45.93218" lon="4.69695">
        <ele>281.200012207</ele>
        <time>2016-02-26T09:45:52.934Z</time>
      </trkpt>
      <trkpt lat="45.93215" lon="4.69695">
        <ele>281.399993896</ele>
        <time>2016-02-26T09:45:53.877Z</time>
      </trkpt>
      <trkpt lat="45.93207" lon="4.69695">
        <ele>281.899993896</ele>
        <time>2016-02-26T09:45:56.898Z</time>
      </trkpt>
      <trkpt lat="45.93204" lon="4.69695">
        <ele>281.600006104</ele>
        <time>2016-02-26T09:45:57.877Z</time>
      </trkpt>
      <trkpt lat="45.93195" lon="4.69696">
        <ele>281.700012207</ele>
        <time>2016-02-26T09:46:00.907Z</time>
      </trkpt>
      <trkpt lat="45.93193" lon="4.69696">
        <ele>281.799987793</ele>
        <time>2016-02-26T09:46:01.877Z</time>
      </trkpt>
      <trkpt lat="45.93185" lon="4.69695">
        <ele>281.899993896</ele>
        <time>2016-02-26T09:46:04.897Z</time>
      </trkpt>
      <trkpt lat="45.93182" lon="4.69695">
        <ele>282.200012207</ele>
        <time>2016-02-26T09:46:05.879Z</time>
      </trkpt>
      <trkpt lat="45.93175" lon="4.69693">
        <ele>282.299987793</ele>
        <time>2016-02-26T09:46:08.917Z</time>
      </trkpt>
      <trkpt lat="45.93172" lon="4.69692">
        <ele>282.299987793</ele>
        <time>2016-02-26T09:46:09.876Z</time>
      </trkpt>
      <trkpt lat="45.93165" lon="4.69692">
        <ele>282.600006104</ele>
        <time>2016-02-26T09:46:12.901Z</time>
      </trkpt>
      <trkpt lat="45.93162" lon="4.69692">
        <ele>282.700012207</ele>
        <time>2016-02-26T09:46:13.879Z</time>
      </trkpt>
      <trkpt lat="45.93155" lon="4.6969">
        <ele>282.700012207</ele>
        <time>2016-02-26T09:46:16.916Z</time>
      </trkpt>
      <trkpt lat="45.93153" lon="4.69689">
        <ele>282.799987793</ele>
        <time>2016-02-26T09:46:17.879Z</time>
      </trkpt>
      <trkpt lat="45.93146" lon="4.69687">
        <ele>283.100006104</ele>
        <time>2016-02-26T09:46:20.897Z</time>
      </trkpt>
      <trkpt lat="45.93143" lon="4.69686">
        <ele>283.399993896</ele>
        <time>2016-02-26T09:46:21.881Z</time>
      </trkpt>
      <trkpt lat="45.93136" lon="4.69685">
        <ele>284.100006104</ele>
        <time>2016-02-26T09:46:24.901Z</time>
      </trkpt>
      <trkpt lat="45.93134" lon="4.69684">
        <ele>284.5</ele>
        <time>2016-02-26T09:46:25.877Z</time>
      </trkpt>
      <trkpt lat="45.93126" lon="4.69681">
        <ele>284.899993896</ele>
        <time>2016-02-26T09:46:28.9Z</time>
      </trkpt>
      <trkpt lat="45.93124" lon="4.69681">
        <ele>284.899993896</ele>
        <time>2016-02-26T09:46:29.908Z</time>
      </trkpt>
      <trkpt lat="45.93116" lon="4.6968">
        <ele>285.200012207</ele>
        <time>2016-02-26T09:46:32.897Z</time>
      </trkpt>
      <trkpt lat="45.93114" lon="4.69679">
        <ele>285.600006104</ele>
        <time>2016-02-26T09:46:33.877Z</time>
      </trkpt>
      <trkpt lat="45.93106" lon="4.69676">
        <ele>286.399993896</ele>
        <time>2016-02-26T09:46:36.92Z</time>
      </trkpt>
      <trkpt lat="45.93104" lon="4.69675">
        <ele>286.399993896</ele>
        <time>2016-02-26T09:46:37.876Z</time>
      </trkpt>
      <trkpt lat="45.93096" lon="4.69672">
        <ele>287</ele>
        <time>2016-02-26T09:46:40.899Z</time>
      </trkpt>
      <trkpt lat="45.93094" lon="4.69672">
        <ele>287</ele>
        <time>2016-02-26T09:46:41.88Z</time>
      </trkpt>
      <trkpt lat="45.93087" lon="4.69668">
        <ele>287.399993896</ele>
        <time>2016-02-26T09:46:45.074Z</time>
      </trkpt>
      <trkpt lat="45.93084" lon="4.69667">
        <ele>287.399993896</ele>
        <time>2016-02-26T09:46:45.877Z</time>
      </trkpt>
      <trkpt lat="45.93076" lon="4.69666">
        <ele>288.5</ele>
        <time>2016-02-26T09:46:48.937Z</time>
      </trkpt>
      <trkpt lat="45.93074" lon="4.69665">
        <ele>288.899993896</ele>
        <time>2016-02-26T09:46:49.877Z</time>
      </trkpt>
      <trkpt lat="45.93067" lon="4.69661">
        <ele>289.399993896</ele>
        <time>2016-02-26T09:46:52.897Z</time>
      </trkpt>
      <trkpt lat="45.93064" lon="4.6966">
        <ele>289.600006104</ele>
        <time>2016-02-26T09:46:53.878Z</time>
      </trkpt>
      <trkpt lat="45.93056" lon="4.69657">
        <ele>290.299987793</ele>
        <time>2016-02-26T09:46:56.914Z</time>
      </trkpt>
      <trkpt lat="45.93053" lon="4.69656">
        <ele>290.600006104</ele>
        <time>2016-02-26T09:46:57.881Z</time>
      </trkpt>
      <trkpt lat="45.93046" lon="4.69651">
        <ele>291.100006104</ele>
        <time>2016-02-26T09:47:00.924Z</time>
      </trkpt>
      <trkpt lat="45.93043" lon="4.6965">
        <ele>291.299987793</ele>
        <time>2016-02-26T09:47:01.877Z</time>
      </trkpt>
      <trkpt lat="45.93036" lon="4.69645">
        <ele>292.100006104</ele>
        <time>2016-02-26T09:47:04.897Z</time>
      </trkpt>
      <trkpt lat="45.93034" lon="4.69643">
        <ele>292.399993896</ele>
        <time>2016-02-26T09:47:05.88Z</time>
      </trkpt>
      <trkpt lat="45.93027" lon="4.69638">
        <ele>293.100006104</ele>
        <time>2016-02-26T09:47:08.901Z</time>
      </trkpt>
      <trkpt lat="45.93025" lon="4.69637">
        <ele>293.299987793</ele>
        <time>2016-02-26T09:47:09.878Z</time>
      </trkpt>
      <trkpt lat="45.93019" lon="4.69632">
        <ele>293.5</ele>
        <time>2016-02-26T09:47:12.903Z</time>
      </trkpt>
      <trkpt lat="45.93016" lon="4.6963">
        <ele>293.600006104</ele>
        <time>2016-02-26T09:47:13.877Z</time>
      </trkpt>
      <trkpt lat="45.9301" lon="4.69624">
        <ele>294.299987793</ele>
        <time>2016-02-26T09:47:16.897Z</time>
      </trkpt>
      <trkpt lat="45.93008" lon="4.69622">
        <ele>294.299987793</ele>
        <time>2016-02-26T09:47:17.878Z</time>
      </trkpt>
      <trkpt lat="45.93002" lon="4.69616">
        <ele>294.5</ele>
        <time>2016-02-26T09:47:20.911Z</time>
      </trkpt>
      <trkpt lat="45.93" lon="4.69614">
        <ele>294.899993896</ele>
        <time>2016-02-26T09:47:21.879Z</time>
      </trkpt>
      <trkpt lat="45.92994" lon="4.69606">
        <ele>295.299987793</ele>
        <time>2016-02-26T09:47:24.937Z</time>
      </trkpt>
      <trkpt lat="45.92992" lon="4.69604">
        <ele>295.600006104</ele>
        <time>2016-02-26T09:47:25.878Z</time>
      </trkpt>
      <trkpt lat="45.92986" lon="4.69596">
        <ele>295.899993896</ele>
        <time>2016-02-26T09:47:28.9Z</time>
      </trkpt>
      <trkpt lat="45.92984" lon="4.69594">
        <ele>296</ele>
        <time>2016-02-26T09:47:29.876Z</time>
      </trkpt>
      <trkpt lat="45.92979" lon="4.69587">
        <ele>296.399993896</ele>
        <time>2016-02-26T09:47:32.946Z</time>
      </trkpt>
      <trkpt lat="45.92977" lon="4.69585">
        <ele>296.5</ele>
        <time>2016-02-26T09:47:33.88Z</time>
      </trkpt>
      <trkpt lat="45.92971" lon="4.69576">
        <ele>296.299987793</ele>
        <time>2016-02-26T09:47:36.903Z</time>
      </trkpt>
      <trkpt lat="45.92969" lon="4.69573">
        <ele>296.399993896</ele>
        <time>2016-02-26T09:47:37.876Z</time>
      </trkpt>
      <trkpt lat="45.92964" lon="4.69565">
        <ele>296.399993896</ele>
        <time>2016-02-26T09:47:40.909Z</time>
      </trkpt>
      <trkpt lat="45.92963" lon="4.69562">
        <ele>296.399993896</ele>
        <time>2016-02-26T09:47:41.879Z</time>
      </trkpt>
      <trkpt lat="45.92958" lon="4.69553">
        <ele>296.399993896</ele>
        <time>2016-02-26T09:47:44.898Z</time>
      </trkpt>
      <trkpt lat="45.92957" lon="4.6955">
        <ele>296.700012207</ele>
        <time>2016-02-26T09:47:45.877Z</time>
      </trkpt>
      <trkpt lat="45.92951" lon="4.69541">
        <ele>297.399993896</ele>
        <time>2016-02-26T09:47:48.901Z</time>
      </trkpt>
      <trkpt lat="45.92949" lon="4.69538">
        <ele>297.399993896</ele>
        <time>2016-02-26T09:47:49.88Z</time>
      </trkpt>
      <trkpt lat="45.92944" lon="4.6953">
        <ele>298.200012207</ele>
        <time>2016-02-26T09:47:52.914Z</time>
      </trkpt>
      <trkpt lat="45.92942" lon="4.69527">
        <ele>298.799987793</ele>
        <time>2016-02-26T09:47:53.878Z</time>
      </trkpt>
      <trkpt lat="45.92937" lon="4.69519">
        <ele>299.299987793</ele>
        <time>2016-02-26T09:47:56.91Z</time>
      </trkpt>
      <trkpt lat="45.92936" lon="4.69516">
        <ele>299.399993896</ele>
        <time>2016-02-26T09:47:57.876Z</time>
      </trkpt>
      <trkpt lat="45.92931" lon="4.69508">
        <ele>300</ele>
        <time>2016-02-26T09:48:00.928Z</time>
      </trkpt>
      <trkpt lat="45.92929" lon="4.69505">
        <ele>300.5</ele>
        <time>2016-02-26T09:48:01.877Z</time>
      </trkpt>
      <trkpt lat="45.92923" lon="4.69499">
        <ele>301.299987793</ele>
        <time>2016-02-26T09:48:04.897Z</time>
      </trkpt>
      <trkpt lat="45.92922" lon="4.69496">
        <ele>301.700012207</ele>
        <time>2016-02-26T09:48:05.881Z</time>
      </trkpt>
      <trkpt lat="45.92917" lon="4.69487">
        <ele>302</ele>
        <time>2016-02-26T09:48:08.9Z</time>
      </trkpt>
      <trkpt lat="45.92915" lon="4.69484">
        <ele>302</ele>
        <time>2016-02-26T09:48:09.877Z</time>
      </trkpt>
      <trkpt lat="45.92911" lon="4.69474">
        <ele>303.200012207</ele>
        <time>2016-02-26T09:48:12.901Z</time>
      </trkpt>
      <trkpt lat="45.92911" lon="4.69471">
        <ele>303.700012207</ele>
        <time>2016-02-26T09:48:13.876Z</time>
      </trkpt>
      <trkpt lat="45.92908" lon="4.6946">
        <ele>304.700012207</ele>
        <time>2016-02-26T09:48:16.896Z</time>
      </trkpt>
      <trkpt lat="45.92907" lon="4.69457">
        <ele>305</ele>
        <time>2016-02-26T09:48:17.876Z</time>
      </trkpt>
      <trkpt lat="45.92904" lon="4.69446">
        <ele>304.799987793</ele>
        <time>2016-02-26T09:48:20.898Z</time>
      </trkpt>
      <trkpt lat="45.92903" lon="4.69443">
        <ele>304.200012207</ele>
        <time>2016-02-26T09:48:21.878Z</time>
      </trkpt>
      <trkpt lat="45.92901" lon="4.69433">
        <ele>303.200012207</ele>
        <time>2016-02-26T09:48:24.901Z</time>
      </trkpt>
      <trkpt lat="45.929" lon="4.69429">
        <ele>303.100006104</ele>
        <time>2016-02-26T09:48:25.876Z</time>
      </trkpt>
      <trkpt lat="45.92897" lon="4.69419">
        <ele>303.600006104</ele>
        <time>2016-02-26T09:48:28.902Z</time>
      </trkpt>
      <trkpt lat="45.92896" lon="4.69416">
        <ele>303.700012207</ele>
        <time>2016-02-26T09:48:29.903Z</time>
      </trkpt>
      <trkpt lat="45.92892" lon="4.69407">
        <ele>304.299987793</ele>
        <time>2016-02-26T09:48:32.905Z</time>
      </trkpt>
      <trkpt lat="45.92891" lon="4.69404">
        <ele>304.100006104</ele>
        <time>2016-02-26T09:48:33.877Z</time>
      </trkpt>
      <trkpt lat="45.92887" lon="4.69393">
        <ele>303.899993896</ele>
        <time>2016-02-26T09:48:36.901Z</time>
      </trkpt>
      <trkpt lat="45.92886" lon="4.6939">
        <ele>303.799987793</ele>
        <time>2016-02-26T09:48:37.876Z</time>
      </trkpt>
      <trkpt lat="45.92884" lon="4.6938">
        <ele>303.899993896</ele>
        <time>2016-02-26T09:48:40.9Z</time>
      </trkpt>
      <trkpt lat="45.92883" lon="4.69376">
        <ele>303.899993896</ele>
        <time>2016-02-26T09:48:41.876Z</time>
      </trkpt>
      <trkpt lat="45.9288" lon="4.69367">
        <ele>304</ele>
        <time>2016-02-26T09:48:44.912Z</time>
      </trkpt>
      <trkpt lat="45.92878" lon="4.69365">
        <ele>304</ele>
        <time>2016-02-26T09:48:45.9Z</time>
      </trkpt>
      <trkpt lat="45.92875" lon="4.69356">
        <ele>302.899993896</ele>
        <time>2016-02-26T09:48:48.902Z</time>
      </trkpt>
      <trkpt lat="45.92874" lon="4.69353">
        <ele>302.700012207</ele>
        <time>2016-02-26T09:48:49.88Z</time>
      </trkpt>
      <trkpt lat="45.92869" lon="4.69345">
        <ele>303.200012207</ele>
        <time>2016-02-26T09:48:52.902Z</time>
      </trkpt>
      <trkpt lat="45.92867" lon="4.69342">
        <ele>303.299987793</ele>
        <time>2016-02-26T09:48:53.876Z</time>
      </trkpt>
      <trkpt lat="45.92862" lon="4.69333">
        <ele>304.600006104</ele>
        <time>2016-02-26T09:48:56.897Z</time>
      </trkpt>
      <trkpt lat="45.92861" lon="4.6933">
        <ele>305.399993896</ele>
        <time>2016-02-26T09:48:57.879Z</time>
      </trkpt>
      <trkpt lat="45.92856" lon="4.69321">
        <ele>306.600006104</ele>
        <time>2016-02-26T09:49:00.922Z</time>
      </trkpt>
      <trkpt lat="45.92854" lon="4.69319">
        <ele>307.100006104</ele>
        <time>2016-02-26T09:49:01.88Z</time>
      </trkpt>
      <trkpt lat="45.92848" lon="4.69312">
        <ele>307.899993896</ele>
        <time>2016-02-26T09:49:04.9Z</time>
      </trkpt>
      <trkpt lat="45.92846" lon="4.6931">
        <ele>307.899993896</ele>
        <time>2016-02-26T09:49:05.881Z</time>
      </trkpt>
      <trkpt lat="45.9284" lon="4.69302">
        <ele>308.299987793</ele>
        <time>2016-02-26T09:49:08.899Z</time>
      </trkpt>
      <trkpt lat="45.92839" lon="4.69298">
        <ele>308.299987793</ele>
        <time>2016-02-26T09:49:09.878Z</time>
      </trkpt>
      <trkpt lat="45.92832" lon="4.69292">
        <ele>308.899993896</ele>
        <time>2016-02-26T09:49:12.957Z</time>
      </trkpt>
      <trkpt lat="45.92831" lon="4.6929">
        <ele>309.200012207</ele>
        <time>2016-02-26T09:49:13.878Z</time>
      </trkpt>
      <trkpt lat="45.92825" lon="4.69281">
        <ele>309.700012207</ele>
        <time>2016-02-26T09:49:16.915Z</time>
      </trkpt>
      <trkpt lat="45.92823" lon="4.69279">
        <ele>310</ele>
        <time>2016-02-26T09:49:17.917Z</time>
      </trkpt>
      <trkpt lat="45.92819" lon="4.69271">
        <ele>311.100006104</ele>
        <time>2016-02-26T09:49:20.898Z</time>
      </trkpt>
      <trkpt lat="45.92818" lon="4.69267">
        <ele>311.399993896</ele>
        <time>2016-02-26T09:49:21.876Z</time>
      </trkpt>
      <trkpt lat="45.92815" lon="4.69257">
        <ele>311.600006104</ele>
        <time>2016-02-26T09:49:24.901Z</time>
      </trkpt>
      <trkpt lat="45.92814" lon="4.69254">
        <ele>311.600006104</ele>
        <time>2016-02-26T09:49:25.88Z</time>
      </trkpt>
      <trkpt lat="45.92813" lon="4.69242">
        <ele>311.5</ele>
        <time>2016-02-26T09:49:28.9Z</time>
      </trkpt>
      <trkpt lat="45.92813" lon="4.69238">
        <ele>311.899993896</ele>
        <time>2016-02-26T09:49:29.876Z</time>
      </trkpt>
      <trkpt lat="45.92814" lon="4.69227">
        <ele>312.700012207</ele>
        <time>2016-02-26T09:49:32.914Z</time>
      </trkpt>
      <trkpt lat="45.92813" lon="4.69223">
        <ele>312.899993896</ele>
        <time>2016-02-26T09:49:33.876Z</time>
      </trkpt>
      <trkpt lat="45.92812" lon="4.69213">
        <ele>314.399993896</ele>
        <time>2016-02-26T09:49:36.936Z</time>
      </trkpt>
      <trkpt lat="45.92812" lon="4.6921">
        <ele>314.299987793</ele>
        <time>2016-02-26T09:49:37.876Z</time>
      </trkpt>
      <trkpt lat="45.92812" lon="4.69199">
        <ele>315.299987793</ele>
        <time>2016-02-26T09:49:40.896Z</time>
      </trkpt>
      <trkpt lat="45.92812" lon="4.69195">
        <ele>315.100006104</ele>
        <time>2016-02-26T09:49:41.878Z</time>
      </trkpt>
      <trkpt lat="45.92813" lon="4.69184">
        <ele>315.399993896</ele>
        <time>2016-02-26T09:49:44.903Z</time>
      </trkpt>
      <trkpt lat="45.92814" lon="4.6918">
        <ele>315.600006104</ele>
        <time>2016-02-26T09:49:45.876Z</time>
      </trkpt>
      <trkpt lat="45.92814" lon="4.69169">
        <ele>314.700012207</ele>
        <time>2016-02-26T09:49:48.919Z</time>
      </trkpt>
      <trkpt lat="45.92815" lon="4.69165">
        <ele>314.700012207</ele>
        <time>2016-02-26T09:49:49.876Z</time>
      </trkpt>
      <trkpt lat="45.92816" lon="4.69153">
        <ele>314.899993896</ele>
        <time>2016-02-26T09:49:52.896Z</time>
      </trkpt>
      <trkpt lat="45.92817" lon="4.69149">
        <ele>314.700012207</ele>
        <time>2016-02-26T09:49:53.88Z</time>
      </trkpt>
      <trkpt lat="45.92818" lon="4.69138">
        <ele>314.799987793</ele>
        <time>2016-02-26T09:49:56.897Z</time>
      </trkpt>
      <trkpt lat="45.92819" lon="4.69134">
        <ele>314.600006104</ele>
        <time>2016-02-26T09:49:57.876Z</time>
      </trkpt>
      <trkpt lat="45.92821" lon="4.69122">
        <ele>314.600006104</ele>
        <time>2016-02-26T09:50:00.902Z</time>
      </trkpt>
      <trkpt lat="45.92821" lon="4.69118">
        <ele>314.799987793</ele>
        <time>2016-02-26T09:50:01.899Z</time>
      </trkpt>
      <trkpt lat="45.92823" lon="4.69107">
        <ele>315.700012207</ele>
        <time>2016-02-26T09:50:04.92Z</time>
      </trkpt>
      <trkpt lat="45.92823" lon="4.69104">
        <ele>315.899993896</ele>
        <time>2016-02-26T09:50:05.879Z</time>
      </trkpt>
      <trkpt lat="45.92823" lon="4.69092">
        <ele>316.799987793</ele>
        <time>2016-02-26T09:50:08.897Z</time>
      </trkpt>
      <trkpt lat="45.92822" lon="4.69088">
        <ele>317</ele>
        <time>2016-02-26T09:50:09.876Z</time>
      </trkpt>
      <trkpt lat="45.92821" lon="4.69078">
        <ele>317.100006104</ele>
        <time>2016-02-26T09:50:12.903Z</time>
      </trkpt>
      <trkpt lat="45.92821" lon="4.69074">
        <ele>317.200012207</ele>
        <time>2016-02-26T09:50:13.879Z</time>
      </trkpt>
      <trkpt lat="45.92818" lon="4.69064">
        <ele>317</ele>
        <time>2016-02-26T09:50:16.896Z</time>
      </trkpt>
      <trkpt lat="45.92817" lon="4.6906">
        <ele>317.100006104</ele>
        <time>2016-02-26T09:50:17.878Z</time>
      </trkpt>
      <trkpt lat="45.92814" lon="4.6905">
        <ele>317.700012207</ele>
        <time>2016-02-26T09:50:20.9Z</time>
      </trkpt>
      <trkpt lat="45.92812" lon="4.69047">
        <ele>317.799987793</ele>
        <time>2016-02-26T09:50:21.877Z</time>
      </trkpt>
      <trkpt lat="45.92807" lon="4.69038">
        <ele>318.399993896</ele>
        <time>2016-02-26T09:50:24.914Z</time>
      </trkpt>
      <trkpt lat="45.92805" lon="4.69036">
        <ele>318.600006104</ele>
        <time>2016-02-26T09:50:25.893Z</time>
      </trkpt>
      <trkpt lat="45.92798" lon="4.69031">
        <ele>318.899993896</ele>
        <time>2016-02-26T09:50:28.902Z</time>
      </trkpt>
      <trkpt lat="45.92796" lon="4.69029">
        <ele>319</ele>
        <time>2016-02-26T09:50:29.876Z</time>
      </trkpt>
      <trkpt lat="45.9279" lon="4.69025">
        <ele>318.899993896</ele>
        <time>2016-02-26T09:50:32.934Z</time>
      </trkpt>
      <trkpt lat="45.92787" lon="4.69025">
        <ele>319.299987793</ele>
        <time>2016-02-26T09:50:33.876Z</time>
      </trkpt>
      <trkpt lat="45.9278" lon="4.69023">
        <ele>319.700012207</ele>
        <time>2016-02-26T09:50:36.905Z</time>
      </trkpt>
      <trkpt lat="45.92778" lon="4.69022">
        <ele>319.899993896</ele>
        <time>2016-02-26T09:50:37.876Z</time>
      </trkpt>
      <trkpt lat="45.92771" lon="4.69021">
        <ele>320.799987793</ele>
        <time>2016-02-26T09:50:40.897Z</time>
      </trkpt>
      <trkpt lat="45.92769" lon="4.6902">
        <ele>321.299987793</ele>
        <time>2016-02-26T09:50:41.882Z</time>
      </trkpt>
      <trkpt lat="45.92761" lon="4.69018">
        <ele>321.100006104</ele>
        <time>2016-02-26T09:50:44.902Z</time>
      </trkpt>
      <trkpt lat="45.92759" lon="4.69018">
        <ele>320.899993896</ele>
        <time>2016-02-26T09:50:45.88Z</time>
      </trkpt>
      <trkpt lat="45.92752" lon="4.69016">
        <ele>320.5</ele>
        <time>2016-02-26T09:50:48.9Z</time>
      </trkpt>
      <trkpt lat="45.9275" lon="4.69015">
        <ele>320.5</ele>
        <time>2016-02-26T09:50:49.876Z</time>
      </trkpt>
      <trkpt lat="45.92742" lon="4.69012">
        <ele>320</ele>
        <time>2016-02-26T09:50:52.896Z</time>
      </trkpt>
      <trkpt lat="45.92739" lon="4.69011">
        <ele>320.5</ele>
        <time>2016-02-26T09:50:53.876Z</time>
      </trkpt>
      <trkpt lat="45.92731" lon="4.69008">
        <ele>321.299987793</ele>
        <time>2016-02-26T09:50:56.914Z</time>
      </trkpt>
      <trkpt lat="45.92728" lon="4.69007">
        <ele>321.899993896</ele>
        <time>2016-02-26T09:50:57.876Z</time>
      </trkpt>
      <trkpt lat="45.9272" lon="4.69005">
        <ele>323.899993896</ele>
        <time>2016-02-26T09:51:00.922Z</time>
      </trkpt>
      <trkpt lat="45.92717" lon="4.69005">
        <ele>324.100006104</ele>
        <time>2016-02-26T09:51:01.88Z</time>
      </trkpt>
      <trkpt lat="45.92708" lon="4.69005">
        <ele>324.5</ele>
        <time>2016-02-26T09:51:04.897Z</time>
      </trkpt>
      <trkpt lat="45.92705" lon="4.69006">
        <ele>324.700012207</ele>
        <time>2016-02-26T09:51:05.88Z</time>
      </trkpt>
      <trkpt lat="45.92699" lon="4.69008">
        <ele>324.899993896</ele>
        <time>2016-02-26T09:51:07.896Z</time>
      </trkpt>
      <trkpt lat="45.92696" lon="4.6901">
        <ele>324.899993896</ele>
        <time>2016-02-26T09:51:08.877Z</time>
      </trkpt>
      <trkpt lat="45.92691" lon="4.69015">
        <ele>325.100006104</ele>
        <time>2016-02-26T09:51:10.896Z</time>
      </trkpt>
      <trkpt lat="45.92688" lon="4.69018">
        <ele>325.399993896</ele>
        <time>2016-02-26T09:51:11.878Z</time>
      </trkpt>
      <trkpt lat="45.92684" lon="4.69024">
        <ele>324.700012207</ele>
        <time>2016-02-26T09:51:13.896Z</time>
      </trkpt>
      <trkpt lat="45.92682" lon="4.69028">
        <ele>324.899993896</ele>
        <time>2016-02-26T09:51:14.879Z</time>
      </trkpt>
      <trkpt lat="45.9268" lon="4.69037">
        <ele>325.299987793</ele>
        <time>2016-02-26T09:51:16.898Z</time>
      </trkpt>
      <trkpt lat="45.92679" lon="4.69042">
        <ele>325.600006104</ele>
        <time>2016-02-26T09:51:17.876Z</time>
      </trkpt>
      <trkpt lat="45.92677" lon="4.69052">
        <ele>325.799987793</ele>
        <time>2016-02-26T09:51:19.896Z</time>
      </trkpt>
      <trkpt lat="45.92676" lon="4.69057">
        <ele>325.899993896</ele>
        <time>2016-02-26T09:51:20.879Z</time>
      </trkpt>
      <trkpt lat="45.92676" lon="4.69067">
        <ele>326.200012207</ele>
        <time>2016-02-26T09:51:22.897Z</time>
      </trkpt>
      <trkpt lat="45.92676" lon="4.69072">
        <ele>326.399993896</ele>
        <time>2016-02-26T09:51:23.876Z</time>
      </trkpt>
      <trkpt lat="45.92676" lon="4.69084">
        <ele>327.299987793</ele>
        <time>2016-02-26T09:51:26.899Z</time>
      </trkpt>
      <trkpt lat="45.92676" lon="4.69088">
        <ele>327.600006104</ele>
        <time>2016-02-26T09:51:27.895Z</time>
      </trkpt>
      <trkpt lat="45.92675" lon="4.69097">
        <ele>328.100006104</ele>
        <time>2016-02-26T09:51:29.899Z</time>
      </trkpt>
      <trkpt lat="45.92675" lon="4.69102">
        <ele>328.299987793</ele>
        <time>2016-02-26T09:51:30.88Z</time>
      </trkpt>
      <trkpt lat="45.92675" lon="4.69111">
        <ele>328.899993896</ele>
        <time>2016-02-26T09:51:32.897Z</time>
      </trkpt>
      <trkpt lat="45.92675" lon="4.69116">
        <ele>329</ele>
        <time>2016-02-26T09:51:33.876Z</time>
      </trkpt>
      <trkpt lat="45.92675" lon="4.69127">
        <ele>329.299987793</ele>
        <time>2016-02-26T09:51:35.897Z</time>
      </trkpt>
      <trkpt lat="45.92675" lon="4.69131">
        <ele>329.700012207</ele>
        <time>2016-02-26T09:51:36.882Z</time>
      </trkpt>
      <trkpt lat="45.92676" lon="4.69144">
        <ele>329.299987793</ele>
        <time>2016-02-26T09:51:39.896Z</time>
      </trkpt>
      <trkpt lat="45.92675" lon="4.69148">
        <ele>329.5</ele>
        <time>2016-02-26T09:51:40.876Z</time>
      </trkpt>
      <trkpt lat="45.92676" lon="4.69161">
        <ele>329</ele>
        <time>2016-02-26T09:51:43.906Z</time>
      </trkpt>
      <trkpt lat="45.92676" lon="4.69165">
        <ele>328.799987793</ele>
        <time>2016-02-26T09:51:44.881Z</time>
      </trkpt>
      <trkpt lat="45.92676" lon="4.69177">
        <ele>329.299987793</ele>
        <time>2016-02-26T09:51:47.898Z</time>
      </trkpt>
      <trkpt lat="45.92674" lon="4.69181">
        <ele>329.799987793</ele>
        <time>2016-02-26T09:51:48.897Z</time>
      </trkpt>
      <trkpt lat="45.92671" lon="4.69189">
        <ele>330.200012207</ele>
        <time>2016-02-26T09:51:50.897Z</time>
      </trkpt>
      <trkpt lat="45.92669" lon="4.69192">
        <ele>330.700012207</ele>
        <time>2016-02-26T09:51:51.878Z</time>
      </trkpt>
      <trkpt lat="45.92661" lon="4.69195">
        <ele>331.799987793</ele>
        <time>2016-02-26T09:51:54.908Z</time>
      </trkpt>
      <trkpt lat="45.92659" lon="4.69195">
        <ele>332.399993896</ele>
        <time>2016-02-26T09:51:55.878Z</time>
      </trkpt>
      <trkpt lat="45.92653" lon="4.6919">
        <ele>333.899993896</ele>
        <time>2016-02-26T09:51:58.898Z</time>
      </trkpt>
      <trkpt lat="45.9265" lon="4.69187">
        <ele>334.799987793</ele>
        <time>2016-02-26T09:51:59.88Z</time>
      </trkpt>
      <trkpt lat="45.92645" lon="4.6918">
        <ele>335.899993896</ele>
        <time>2016-02-26T09:52:02.9Z</time>
      </trkpt>
      <trkpt lat="45.92644" lon="4.69177">
        <ele>336.100006104</ele>
        <time>2016-02-26T09:52:03.88Z</time>
      </trkpt>
      <trkpt lat="45.92638" lon="4.6917">
        <ele>337.200012207</ele>
        <time>2016-02-26T09:52:06.915Z</time>
      </trkpt>
      <trkpt lat="45.92637" lon="4.69168">
        <ele>337.200012207</ele>
        <time>2016-02-26T09:52:07.876Z</time>
      </trkpt>
      <trkpt lat="45.92629" lon="4.69162">
        <ele>337.799987793</ele>
        <time>2016-02-26T09:52:11.896Z</time>
      </trkpt>
      <trkpt lat="45.92627" lon="4.69161">
        <ele>338.200012207</ele>
        <time>2016-02-26T09:52:12.879Z</time>
      </trkpt>
      <trkpt lat="45.92621" lon="4.69155">
        <ele>338.100006104</ele>
        <time>2016-02-26T09:52:15.897Z</time>
      </trkpt>
      <trkpt lat="45.92619" lon="4.69152">
        <ele>338.200012207</ele>
        <time>2016-02-26T09:52:16.881Z</time>
      </trkpt>
      <trkpt lat="45.92614" lon="4.69144">
        <ele>338.100006104</ele>
        <time>2016-02-26T09:52:19.923Z</time>
      </trkpt>
      <trkpt lat="45.92612" lon="4.69141">
        <ele>338.299987793</ele>
        <time>2016-02-26T09:52:20.881Z</time>
      </trkpt>
      <trkpt lat="45.92608" lon="4.69131">
        <ele>339.200012207</ele>
        <time>2016-02-26T09:52:23.897Z</time>
      </trkpt>
      <trkpt lat="45.92607" lon="4.69128">
        <ele>339.299987793</ele>
        <time>2016-02-26T09:52:24.908Z</time>
      </trkpt>
      <trkpt lat="45.92603" lon="4.69118">
        <ele>340</ele>
        <time>2016-02-26T09:52:27.896Z</time>
      </trkpt>
      <trkpt lat="45.92602" lon="4.69115">
        <ele>340</ele>
        <time>2016-02-26T09:52:28.934Z</time>
      </trkpt>
      <trkpt lat="45.92597" lon="4.69107">
        <ele>339.600006104</ele>
        <time>2016-02-26T09:52:31.898Z</time>
      </trkpt>
      <trkpt lat="45.92596" lon="4.69101">
        <ele>339.700012207</ele>
        <time>2016-02-26T09:52:32.881Z</time>
      </trkpt>
      <trkpt lat="45.92592" lon="4.69092">
        <ele>339.899993896</ele>
        <time>2016-02-26T09:52:35.905Z</time>
      </trkpt>
      <trkpt lat="45.9259" lon="4.69089">
        <ele>340</ele>
        <time>2016-02-26T09:52:36.883Z</time>
      </trkpt>
      <trkpt lat="45.92586" lon="4.69079">
        <ele>340.399993896</ele>
        <time>2016-02-26T09:52:39.896Z</time>
      </trkpt>
      <trkpt lat="45.92584" lon="4.69078">
        <ele>340.700012207</ele>
        <time>2016-02-26T09:52:40.894Z</time>
      </trkpt>
      <trkpt lat="45.92578" lon="4.69069">
        <ele>342</ele>
        <time>2016-02-26T09:52:44.91Z</time>
      </trkpt>
      <trkpt lat="45.92576" lon="4.69067">
        <ele>342.399993896</ele>
        <time>2016-02-26T09:52:45.928Z</time>
      </trkpt>
      <trkpt lat="45.92571" lon="4.69058">
        <ele>343.5</ele>
        <time>2016-02-26T09:52:49.898Z</time>
      </trkpt>
      <trkpt lat="45.92569" lon="4.69055">
        <ele>343.700012207</ele>
        <time>2016-02-26T09:52:50.877Z</time>
      </trkpt>
      <trkpt lat="45.92563" lon="4.69046">
        <ele>344.100006104</ele>
        <time>2016-02-26T09:52:54.903Z</time>
      </trkpt>
      <trkpt lat="45.92561" lon="4.69043">
        <ele>344.399993896</ele>
        <time>2016-02-26T09:52:55.88Z</time>
      </trkpt>
      <trkpt lat="45.92556" lon="4.69034">
        <ele>344.5</ele>
        <time>2016-02-26T09:52:59.897Z</time>
      </trkpt>
      <trkpt lat="45.92554" lon="4.69032">
        <ele>344.799987793</ele>
        <time>2016-02-26T09:53:00.881Z</time>
      </trkpt>
      <trkpt lat="45.9255" lon="4.69021">
        <ele>345.5</ele>
        <time>2016-02-26T09:53:04.9Z</time>
      </trkpt>
      <trkpt lat="45.92548" lon="4.6902">
        <ele>345.399993896</ele>
        <time>2016-02-26T09:53:05.88Z</time>
      </trkpt>
      <trkpt lat="45.92543" lon="4.69012">
        <ele>347</ele>
        <time>2016-02-26T09:53:08.958Z</time>
      </trkpt>
      <trkpt lat="45.92543" lon="4.69006">
        <ele>347.200012207</ele>
        <time>2016-02-26T09:53:09.88Z</time>
      </trkpt>
      <trkpt lat="45.92541" lon="4.68995">
        <ele>348.200012207</ele>
        <time>2016-02-26T09:53:12.905Z</time>
      </trkpt>
      <trkpt lat="45.92541" lon="4.68993">
        <ele>348.600006104</ele>
        <time>2016-02-26T09:53:13.88Z</time>
      </trkpt>
      <trkpt lat="45.92538" lon="4.68982">
        <ele>349.600006104</ele>
        <time>2016-02-26T09:53:18.901Z</time>
      </trkpt>
      <trkpt lat="45.92538" lon="4.68979">
        <ele>349.600006104</ele>
        <time>2016-02-26T09:53:19.88Z</time>
      </trkpt>
      <trkpt lat="45.92539" lon="4.6897">
        <ele>350.299987793</ele>
        <time>2016-02-26T09:53:22.898Z</time>
      </trkpt>
      <trkpt lat="45.9254" lon="4.68966">
        <ele>350.299987793</ele>
        <time>2016-02-26T09:53:23.876Z</time>
      </trkpt>
      <trkpt lat="45.92543" lon="4.68954">
        <ele>351.299987793</ele>
        <time>2016-02-26T09:53:27.913Z</time>
      </trkpt>
      <trkpt lat="45.92543" lon="4.68951">
        <ele>351.700012207</ele>
        <time>2016-02-26T09:53:28.878Z</time>
      </trkpt>
      <trkpt lat="45.92545" lon="4.6894">
        <ele>350.5</ele>
        <time>2016-02-26T09:53:32.897Z</time>
      </trkpt>
      <trkpt lat="45.92546" lon="4.68938">
        <ele>350.600006104</ele>
        <time>2016-02-26T09:53:33.878Z</time>
      </trkpt>
      <trkpt lat="45.92549" lon="4.68926">
        <ele>350.700012207</ele>
        <time>2016-02-26T09:53:37.898Z</time>
      </trkpt>
      <trkpt lat="45.92549" lon="4.68923">
        <ele>350.399993896</ele>
        <time>2016-02-26T09:53:38.882Z</time>
      </trkpt>
      <trkpt lat="45.9255" lon="4.68914">
        <ele>350.5</ele>
        <time>2016-02-26T09:53:41.897Z</time>
      </trkpt>
      <trkpt lat="45.9255" lon="4.6891">
        <ele>350.600006104</ele>
        <time>2016-02-26T09:53:42.882Z</time>
      </trkpt>
      <trkpt lat="45.92553" lon="4.68898">
        <ele>350.399993896</ele>
        <time>2016-02-26T09:53:46.896Z</time>
      </trkpt>
      <trkpt lat="45.92553" lon="4.68895">
        <ele>350.200012207</ele>
        <time>2016-02-26T09:53:47.876Z</time>
      </trkpt>
      <trkpt lat="45.92556" lon="4.68884">
        <ele>350.700012207</ele>
        <time>2016-02-26T09:53:51.898Z</time>
      </trkpt>
      <trkpt lat="45.92557" lon="4.68882">
        <ele>350.600006104</ele>
        <time>2016-02-26T09:53:52.877Z</time>
      </trkpt>
      <trkpt lat="45.9256" lon="4.6887">
        <ele>350.899993896</ele>
        <time>2016-02-26T09:53:56.896Z</time>
      </trkpt>
      <trkpt lat="45.9256" lon="4.68867">
        <ele>350.700012207</ele>
        <time>2016-02-26T09:53:57.878Z</time>
      </trkpt>
      <trkpt lat="45.92563" lon="4.68857">
        <ele>350.700012207</ele>
        <time>2016-02-26T09:54:01.895Z</time>
      </trkpt>
      <trkpt lat="45.92563" lon="4.68855">
        <ele>351.100006104</ele>
        <time>2016-02-26T09:54:02.877Z</time>
      </trkpt>
      <trkpt lat="45.92564" lon="4.68843">
        <ele>351.5</ele>
        <time>2016-02-26T09:54:06.947Z</time>
      </trkpt>
      <trkpt lat="45.92565" lon="4.68841">
        <ele>351.700012207</ele>
        <time>2016-02-26T09:54:07.875Z</time>
      </trkpt>
      <trkpt lat="45.92568" lon="4.6883">
        <ele>352</ele>
        <time>2016-02-26T09:54:11.896Z</time>
      </trkpt>
      <trkpt lat="45.92568" lon="4.68828">
        <ele>352.200012207</ele>
        <time>2016-02-26T09:54:12.881Z</time>
      </trkpt>
      <trkpt lat="45.9257" lon="4.68816">
        <ele>353.100006104</ele>
        <time>2016-02-26T09:54:17.895Z</time>
      </trkpt>
      <trkpt lat="45.9257" lon="4.68813">
        <ele>353.200012207</ele>
        <time>2016-02-26T09:54:18.881Z</time>
      </trkpt>
      <trkpt lat="45.92575" lon="4.68804">
        <ele>354.200012207</ele>
        <time>2016-02-26T09:54:22.898Z</time>
      </trkpt>
      <trkpt lat="45.92575" lon="4.68801">
        <ele>354.399993896</ele>
        <time>2016-02-26T09:54:23.88Z</time>
      </trkpt>
      <trkpt lat="45.92576" lon="4.68791">
        <ele>355.200012207</ele>
        <time>2016-02-26T09:54:27.896Z</time>
      </trkpt>
      <trkpt lat="45.92577" lon="4.68789">
        <ele>355.100006104</ele>
        <time>2016-02-26T09:54:28.918Z</time>
      </trkpt>
      <trkpt lat="45.92581" lon="4.68778">
        <ele>356.399993896</ele>
        <time>2016-02-26T09:54:32.897Z</time>
      </trkpt>
      <trkpt lat="45.92581" lon="4.68775">
        <ele>357.100006104</ele>
        <time>2016-02-26T09:54:33.88Z</time>
      </trkpt>
      <trkpt lat="45.92584" lon="4.68765">
        <ele>358.899993896</ele>
        <time>2016-02-26T09:54:37.898Z</time>
      </trkpt>
      <trkpt lat="45.92585" lon="4.68762">
        <ele>359.399993896</ele>
        <time>2016-02-26T09:54:38.877Z</time>
      </trkpt>
      <trkpt lat="45.92587" lon="4.68753">
        <ele>360.600006104</ele>
        <time>2016-02-26T09:54:42.902Z</time>
      </trkpt>
      <trkpt lat="45.92588" lon="4.6875">
        <ele>360.899993896</ele>
        <time>2016-02-26T09:54:43.876Z</time>
      </trkpt>
      <trkpt lat="45.92591" lon="4.68738">
        <ele>361.100006104</ele>
        <time>2016-02-26T09:54:48.899Z</time>
      </trkpt>
      <trkpt lat="45.92591" lon="4.68734">
        <ele>361.299987793</ele>
        <time>2016-02-26T09:54:49.878Z</time>
      </trkpt>
      <trkpt lat="45.92593" lon="4.68722">
        <ele>362.100006104</ele>
        <time>2016-02-26T09:54:53.897Z</time>
      </trkpt>
      <trkpt lat="45.92594" lon="4.68719">
        <ele>361.700012207</ele>
        <time>2016-02-26T09:54:54.871Z</time>
      </trkpt>
      <trkpt lat="45.92595" lon="4.68708">
        <ele>362.399993896</ele>
        <time>2016-02-26T09:54:58.898Z</time>
      </trkpt>
      <trkpt lat="45.92596" lon="4.68706">
        <ele>362.600006104</ele>
        <time>2016-02-26T09:54:59.88Z</time>
      </trkpt>
      <trkpt lat="45.92599" lon="4.68694">
        <ele>363.799987793</ele>
        <time>2016-02-26T09:55:03.895Z</time>
      </trkpt>
      <trkpt lat="45.926" lon="4.6869">
        <ele>364.100006104</ele>
        <time>2016-02-26T09:55:04.88Z</time>
      </trkpt>
      <trkpt lat="45.92602" lon="4.6868">
        <ele>365</ele>
        <time>2016-02-26T09:55:07.924Z</time>
      </trkpt>
      <trkpt lat="45.92602" lon="4.68677">
        <ele>365</ele>
        <time>2016-02-26T09:55:08.877Z</time>
      </trkpt>
      <trkpt lat="45.92604" lon="4.68667">
        <ele>365.799987793</ele>
        <time>2016-02-26T09:55:11.897Z</time>
      </trkpt>
      <trkpt lat="45.92605" lon="4.68663">
        <ele>365.899993896</ele>
        <time>2016-02-26T09:55:12.879Z</time>
      </trkpt>
      <trkpt lat="45.92607" lon="4.68654">
        <ele>366</ele>
        <time>2016-02-26T09:55:14.9Z</time>
      </trkpt>
      <trkpt lat="45.92608" lon="4.68649">
        <ele>365.899993896</ele>
        <time>2016-02-26T09:55:15.876Z</time>
      </trkpt>
      <trkpt lat="45.92611" lon="4.6864">
        <ele>365.5</ele>
        <time>2016-02-26T09:55:17.976Z</time>
      </trkpt>
      <trkpt lat="45.92612" lon="4.68636">
        <ele>365.200012207</ele>
        <time>2016-02-26T09:55:18.887Z</time>
      </trkpt>
      <trkpt lat="45.92612" lon="4.68624">
        <ele>364.600006104</ele>
        <time>2016-02-26T09:55:21.911Z</time>
      </trkpt>
      <trkpt lat="45.92611" lon="4.6862">
        <ele>364.299987793</ele>
        <time>2016-02-26T09:55:22.883Z</time>
      </trkpt>
      <trkpt lat="45.92611" lon="4.68612">
        <ele>363.600006104</ele>
        <time>2016-02-26T09:55:24.902Z</time>
      </trkpt>
      <trkpt lat="45.9261" lon="4.68607">
        <ele>363.399993896</ele>
        <time>2016-02-26T09:55:25.88Z</time>
      </trkpt>
      <trkpt lat="45.92608" lon="4.68595">
        <ele>363</ele>
        <time>2016-02-26T09:55:27.897Z</time>
      </trkpt>
      <trkpt lat="45.92607" lon="4.68589">
        <ele>362.799987793</ele>
        <time>2016-02-26T09:55:28.88Z</time>
      </trkpt>
      <trkpt lat="45.92606" lon="4.68582">
        <ele>362.799987793</ele>
        <time>2016-02-26T09:55:29.898Z</time>
      </trkpt>
      <trkpt lat="45.92605" lon="4.68576">
        <ele>362.899993896</ele>
        <time>2016-02-26T09:55:30.882Z</time>
      </trkpt>
      <trkpt lat="45.92604" lon="4.68569">
        <ele>362.299987793</ele>
        <time>2016-02-26T09:55:31.898Z</time>
      </trkpt>
      <trkpt lat="45.92602" lon="4.68562">
        <ele>362.399993896</ele>
        <time>2016-02-26T09:55:32.879Z</time>
      </trkpt>
      <trkpt lat="45.92602" lon="4.68554">
        <ele>362.5</ele>
        <time>2016-02-26T09:55:33.949Z</time>
      </trkpt>
      <trkpt lat="45.92601" lon="4.68546">
        <ele>362.200012207</ele>
        <time>2016-02-26T09:55:34.881Z</time>
      </trkpt>
      <trkpt lat="45.926" lon="4.68538">
        <ele>362</ele>
        <time>2016-02-26T09:55:35.915Z</time>
      </trkpt>
      <trkpt lat="45.92599" lon="4.68529">
        <ele>361.399993896</ele>
        <time>2016-02-26T09:55:36.884Z</time>
      </trkpt>
      <trkpt lat="45.92597" lon="4.6852">
        <ele>361</ele>
        <time>2016-02-26T09:55:37.896Z</time>
      </trkpt>
      <trkpt lat="45.92596" lon="4.68511">
        <ele>360.600006104</ele>
        <time>2016-02-26T09:55:38.879Z</time>
      </trkpt>
      <trkpt lat="45.92594" lon="4.68501">
        <ele>360.200012207</ele>
        <time>2016-02-26T09:55:39.898Z</time>
      </trkpt>
      <trkpt lat="45.92592" lon="4.68491">
        <ele>359.700012207</ele>
        <time>2016-02-26T09:55:40.88Z</time>
      </trkpt>
      <trkpt lat="45.92592" lon="4.68479">
        <ele>359.100006104</ele>
        <time>2016-02-26T09:55:41.897Z</time>
      </trkpt>
      <trkpt lat="45.92592" lon="4.68467">
        <ele>358.600006104</ele>
        <time>2016-02-26T09:55:42.88Z</time>
      </trkpt>
      <trkpt lat="45.92592" lon="4.68454">
        <ele>358.100006104</ele>
        <time>2016-02-26T09:55:43.95Z</time>
      </trkpt>
      <trkpt lat="45.92593" lon="4.68441">
        <ele>357.600006104</ele>
        <time>2016-02-26T09:55:44.882Z</time>
      </trkpt>
      <trkpt lat="45.92593" lon="4.68441">
        <ele>357.600006104</ele>
        <time>2016-02-26T09:55:44.907Z</time>
      </trkpt>
      <trkpt lat="45.92593" lon="4.68428">
        <ele>357</ele>
        <time>2016-02-26T09:55:45.879Z</time>
      </trkpt>
      <trkpt lat="45.92593" lon="4.68428">
        <ele>357</ele>
        <time>2016-02-26T09:55:45.898Z</time>
      </trkpt>
      <trkpt lat="45.92593" lon="4.68414">
        <ele>356.5</ele>
        <time>2016-02-26T09:55:46.882Z</time>
      </trkpt>
      <trkpt lat="45.92593" lon="4.68414">
        <ele>356.5</ele>
        <time>2016-02-26T09:55:46.904Z</time>
      </trkpt>
      <trkpt lat="45.92593" lon="4.68399">
        <ele>356.100006104</ele>
        <time>2016-02-26T09:55:47.898Z</time>
      </trkpt>
      <trkpt lat="45.92593" lon="4.68399">
        <ele>356.100006104</ele>
        <time>2016-02-26T09:55:47.917Z</time>
      </trkpt>
      <trkpt lat="45.92593" lon="4.68385">
        <ele>355.5</ele>
        <time>2016-02-26T09:55:48.889Z</time>
      </trkpt>
      <trkpt lat="45.92593" lon="4.68385">
        <ele>355.5</ele>
        <time>2016-02-26T09:55:48.908Z</time>
      </trkpt>
      <trkpt lat="45.92593" lon="4.68369">
        <ele>354.700012207</ele>
        <time>2016-02-26T09:55:49.877Z</time>
      </trkpt>
      <trkpt lat="45.92593" lon="4.68369">
        <ele>354.700012207</ele>
        <time>2016-02-26T09:55:49.9Z</time>
      </trkpt>
      <trkpt lat="45.92593" lon="4.68353">
        <ele>353.600006104</ele>
        <time>2016-02-26T09:55:50.875Z</time>
      </trkpt>
      <trkpt lat="45.92593" lon="4.68353">
        <ele>353.600006104</ele>
        <time>2016-02-26T09:55:50.977Z</time>
      </trkpt>
      <trkpt lat="45.92593" lon="4.68337">
        <ele>352.700012207</ele>
        <time>2016-02-26T09:55:51.876Z</time>
      </trkpt>
      <trkpt lat="45.92593" lon="4.68337">
        <ele>352.700012207</ele>
        <time>2016-02-26T09:55:51.898Z</time>
      </trkpt>
      <trkpt lat="45.92593" lon="4.6832">
        <ele>352.200012207</ele>
        <time>2016-02-26T09:55:52.877Z</time>
      </trkpt>
      <trkpt lat="45.92593" lon="4.6832">
        <ele>352.200012207</ele>
        <time>2016-02-26T09:55:52.902Z</time>
      </trkpt>
      <trkpt lat="45.92593" lon="4.68303">
        <ele>351.100006104</ele>
        <time>2016-02-26T09:55:53.877Z</time>
      </trkpt>
      <trkpt lat="45.92593" lon="4.68303">
        <ele>351.100006104</ele>
        <time>2016-02-26T09:55:53.898Z</time>
      </trkpt>
      <trkpt lat="45.92593" lon="4.68286">
        <ele>349.899993896</ele>
        <time>2016-02-26T09:55:54.884Z</time>
      </trkpt>
      <trkpt lat="45.92593" lon="4.68286">
        <ele>349.899993896</ele>
        <time>2016-02-26T09:55:54.911Z</time>
      </trkpt>
      <trkpt lat="45.92594" lon="4.68268">
        <ele>348.799987793</ele>
        <time>2016-02-26T09:55:55.88Z</time>
      </trkpt>
      <trkpt lat="45.92594" lon="4.68268">
        <ele>348.799987793</ele>
        <time>2016-02-26T09:55:55.909Z</time>
      </trkpt>
      <trkpt lat="45.92594" lon="4.6825">
        <ele>347.700012207</ele>
        <time>2016-02-26T09:55:56.88Z</time>
      </trkpt>
      <trkpt lat="45.92594" lon="4.6825">
        <ele>347.700012207</ele>
        <time>2016-02-26T09:55:56.902Z</time>
      </trkpt>
      <trkpt lat="45.92594" lon="4.68232">
        <ele>346.799987793</ele>
        <time>2016-02-26T09:55:57.88Z</time>
      </trkpt>
      <trkpt lat="45.92594" lon="4.68232">
        <ele>346.799987793</ele>
        <time>2016-02-26T09:55:57.899Z</time>
      </trkpt>
      <trkpt lat="45.92595" lon="4.68215">
        <ele>345.5</ele>
        <time>2016-02-26T09:55:58.899Z</time>
      </trkpt>
      <trkpt lat="45.92595" lon="4.68215">
        <ele>345.5</ele>
        <time>2016-02-26T09:55:58.944Z</time>
      </trkpt>
      <trkpt lat="45.92595" lon="4.68197">
        <ele>344</ele>
        <time>2016-02-26T09:55:59.88Z</time>
      </trkpt>
      <trkpt lat="45.92595" lon="4.68197">
        <ele>344</ele>
        <time>2016-02-26T09:55:59.899Z</time>
      </trkpt>
      <trkpt lat="45.92595" lon="4.68181">
        <ele>342.700012207</ele>
        <time>2016-02-26T09:56:00.88Z</time>
      </trkpt>
      <trkpt lat="45.92595" lon="4.68181">
        <ele>342.700012207</ele>
        <time>2016-02-26T09:56:00.902Z</time>
      </trkpt>
      <trkpt lat="45.92595" lon="4.68164">
        <ele>341</ele>
        <time>2016-02-26T09:56:01.878Z</time>
      </trkpt>
      <trkpt lat="45.92595" lon="4.68164">
        <ele>341</ele>
        <time>2016-02-26T09:56:01.949Z</time>
      </trkpt>
      <trkpt lat="45.92596" lon="4.68147">
        <ele>339.399993896</ele>
        <time>2016-02-26T09:56:02.877Z</time>
      </trkpt>
      <trkpt lat="45.92596" lon="4.68147">
        <ele>339.399993896</ele>
        <time>2016-02-26T09:56:02.899Z</time>
      </trkpt>
      <trkpt lat="45.92597" lon="4.6813">
        <ele>338.200012207</ele>
        <time>2016-02-26T09:56:03.878Z</time>
      </trkpt>
      <trkpt lat="45.92597" lon="4.6813">
        <ele>338.200012207</ele>
        <time>2016-02-26T09:56:03.897Z</time>
      </trkpt>
      <trkpt lat="45.92597" lon="4.68113">
        <ele>336.399993896</ele>
        <time>2016-02-26T09:56:04.881Z</time>
      </trkpt>
      <trkpt lat="45.92597" lon="4.68113">
        <ele>336.399993896</ele>
        <time>2016-02-26T09:56:04.906Z</time>
      </trkpt>
      <trkpt lat="45.92597" lon="4.68096">
        <ele>335</ele>
        <time>2016-02-26T09:56:05.878Z</time>
      </trkpt>
      <trkpt lat="45.92597" lon="4.68096">
        <ele>335</ele>
        <time>2016-02-26T09:56:05.896Z</time>
      </trkpt>
      <trkpt lat="45.92596" lon="4.68079">
        <ele>334.100006104</ele>
        <time>2016-02-26T09:56:06.881Z</time>
      </trkpt>
      <trkpt lat="45.92596" lon="4.68079">
        <ele>334.100006104</ele>
        <time>2016-02-26T09:56:06.9Z</time>
      </trkpt>
      <trkpt lat="45.92595" lon="4.68063">
        <ele>332.899993896</ele>
        <time>2016-02-26T09:56:07.876Z</time>
      </trkpt>
      <trkpt lat="45.92595" lon="4.68063">
        <ele>332.899993896</ele>
        <time>2016-02-26T09:56:07.897Z</time>
      </trkpt>
      <trkpt lat="45.92593" lon="4.68046">
        <ele>332.399993896</ele>
        <time>2016-02-26T09:56:08.877Z</time>
      </trkpt>
      <trkpt lat="45.92593" lon="4.68046">
        <ele>332.399993896</ele>
        <time>2016-02-26T09:56:08.898Z</time>
      </trkpt>
      <trkpt lat="45.9259" lon="4.6803">
        <ele>331.5</ele>
        <time>2016-02-26T09:56:09.878Z</time>
      </trkpt>
      <trkpt lat="45.9259" lon="4.6803">
        <ele>331.5</ele>
        <time>2016-02-26T09:56:09.897Z</time>
      </trkpt>
      <trkpt lat="45.92588" lon="4.68013">
        <ele>330</ele>
        <time>2016-02-26T09:56:10.873Z</time>
      </trkpt>
      <trkpt lat="45.92588" lon="4.68013">
        <ele>330</ele>
        <time>2016-02-26T09:56:10.918Z</time>
      </trkpt>
      <trkpt lat="45.92585" lon="4.67998">
        <ele>328.799987793</ele>
        <time>2016-02-26T09:56:11.879Z</time>
      </trkpt>
      <trkpt lat="45.92585" lon="4.67998">
        <ele>328.799987793</ele>
        <time>2016-02-26T09:56:11.898Z</time>
      </trkpt>
      <trkpt lat="45.92582" lon="4.67983">
        <ele>327.799987793</ele>
        <time>2016-02-26T09:56:12.883Z</time>
      </trkpt>
      <trkpt lat="45.92582" lon="4.67983">
        <ele>327.799987793</ele>
        <time>2016-02-26T09:56:12.902Z</time>
      </trkpt>
      <trkpt lat="45.92579" lon="4.67968">
        <ele>326.600006104</ele>
        <time>2016-02-26T09:56:13.918Z</time>
      </trkpt>
      <trkpt lat="45.92579" lon="4.67968">
        <ele>326.600006104</ele>
        <time>2016-02-26T09:56:13.937Z</time>
      </trkpt>
      <trkpt lat="45.92577" lon="4.67954">
        <ele>325.5</ele>
        <time>2016-02-26T09:56:14.89Z</time>
      </trkpt>
      <trkpt lat="45.92577" lon="4.67954">
        <ele>325.5</ele>
        <time>2016-02-26T09:56:14.915Z</time>
      </trkpt>
      <trkpt lat="45.92574" lon="4.67941">
        <ele>324.399993896</ele>
        <time>2016-02-26T09:56:15.878Z</time>
      </trkpt>
      <trkpt lat="45.92574" lon="4.67941">
        <ele>324.399993896</ele>
        <time>2016-02-26T09:56:15.901Z</time>
      </trkpt>
      <trkpt lat="45.92573" lon="4.67927">
        <ele>323.399993896</ele>
        <time>2016-02-26T09:56:16.878Z</time>
      </trkpt>
      <trkpt lat="45.92573" lon="4.67927">
        <ele>323.399993896</ele>
        <time>2016-02-26T09:56:16.897Z</time>
      </trkpt>
      <trkpt lat="45.92571" lon="4.67914">
        <ele>322.299987793</ele>
        <time>2016-02-26T09:56:17.88Z</time>
      </trkpt>
      <trkpt lat="45.92571" lon="4.67914">
        <ele>322.299987793</ele>
        <time>2016-02-26T09:56:17.9Z</time>
      </trkpt>
      <trkpt lat="45.92572" lon="4.679">
        <ele>321.399993896</ele>
        <time>2016-02-26T09:56:18.883Z</time>
      </trkpt>
      <trkpt lat="45.92572" lon="4.679">
        <ele>321.399993896</ele>
        <time>2016-02-26T09:56:18.903Z</time>
      </trkpt>
      <trkpt lat="45.92573" lon="4.67886">
        <ele>320.899993896</ele>
        <time>2016-02-26T09:56:19.878Z</time>
      </trkpt>
      <trkpt lat="45.92573" lon="4.67886">
        <ele>320.899993896</ele>
        <time>2016-02-26T09:56:19.898Z</time>
      </trkpt>
      <trkpt lat="45.92574" lon="4.67871">
        <ele>320.200012207</ele>
        <time>2016-02-26T09:56:20.879Z</time>
      </trkpt>
      <trkpt lat="45.92574" lon="4.67871">
        <ele>320.200012207</ele>
        <time>2016-02-26T09:56:20.899Z</time>
      </trkpt>
      <trkpt lat="45.92575" lon="4.67856">
        <ele>319.399993896</ele>
        <time>2016-02-26T09:56:21.88Z</time>
      </trkpt>
      <trkpt lat="45.92575" lon="4.67856">
        <ele>319.399993896</ele>
        <time>2016-02-26T09:56:21.898Z</time>
      </trkpt>
      <trkpt lat="45.92577" lon="4.67841">
        <ele>318.600006104</ele>
        <time>2016-02-26T09:56:22.879Z</time>
      </trkpt>
      <trkpt lat="45.92577" lon="4.67841">
        <ele>318.600006104</ele>
        <time>2016-02-26T09:56:22.898Z</time>
      </trkpt>
      <trkpt lat="45.92577" lon="4.67826">
        <ele>317.200012207</ele>
        <time>2016-02-26T09:56:23.876Z</time>
      </trkpt>
      <trkpt lat="45.92577" lon="4.67826">
        <ele>317.200012207</ele>
        <time>2016-02-26T09:56:23.897Z</time>
      </trkpt>
      <trkpt lat="45.92578" lon="4.67812">
        <ele>316</ele>
        <time>2016-02-26T09:56:24.884Z</time>
      </trkpt>
      <trkpt lat="45.92578" lon="4.67812">
        <ele>316</ele>
        <time>2016-02-26T09:56:24.921Z</time>
      </trkpt>
      <trkpt lat="45.9258" lon="4.67798">
        <ele>314.899993896</ele>
        <time>2016-02-26T09:56:25.88Z</time>
      </trkpt>
      <trkpt lat="45.9258" lon="4.67798">
        <ele>314.899993896</ele>
        <time>2016-02-26T09:56:25.901Z</time>
      </trkpt>
      <trkpt lat="45.92583" lon="4.67785">
        <ele>313.799987793</ele>
        <time>2016-02-26T09:56:26.879Z</time>
      </trkpt>
      <trkpt lat="45.92583" lon="4.67785">
        <ele>313.799987793</ele>
        <time>2016-02-26T09:56:26.905Z</time>
      </trkpt>
      <trkpt lat="45.92587" lon="4.67771">
        <ele>312.399993896</ele>
        <time>2016-02-26T09:56:27.878Z</time>
      </trkpt>
      <trkpt lat="45.92587" lon="4.67771">
        <ele>312.399993896</ele>
        <time>2016-02-26T09:56:27.9Z</time>
      </trkpt>
      <trkpt lat="45.92594" lon="4.67759">
        <ele>311.600006104</ele>
        <time>2016-02-26T09:56:28.879Z</time>
      </trkpt>
      <trkpt lat="45.92594" lon="4.67759">
        <ele>311.600006104</ele>
        <time>2016-02-26T09:56:28.903Z</time>
      </trkpt>
      <trkpt lat="45.92601" lon="4.67746">
        <ele>310.5</ele>
        <time>2016-02-26T09:56:29.878Z</time>
      </trkpt>
      <trkpt lat="45.92601" lon="4.67746">
        <ele>310.5</ele>
        <time>2016-02-26T09:56:29.897Z</time>
      </trkpt>
      <trkpt lat="45.92608" lon="4.67733">
        <ele>309.5</ele>
        <time>2016-02-26T09:56:30.881Z</time>
      </trkpt>
      <trkpt lat="45.92608" lon="4.67733">
        <ele>309.5</ele>
        <time>2016-02-26T09:56:30.905Z</time>
      </trkpt>
      <trkpt lat="45.92615" lon="4.67718">
        <ele>308.399993896</ele>
        <time>2016-02-26T09:56:31.878Z</time>
      </trkpt>
      <trkpt lat="45.92615" lon="4.67718">
        <ele>308.399993896</ele>
        <time>2016-02-26T09:56:31.901Z</time>
      </trkpt>
      <trkpt lat="45.9262" lon="4.67702">
        <ele>306.899993896</ele>
        <time>2016-02-26T09:56:32.881Z</time>
      </trkpt>
      <trkpt lat="45.9262" lon="4.67702">
        <ele>306.899993896</ele>
        <time>2016-02-26T09:56:32.901Z</time>
      </trkpt>
      <trkpt lat="45.92624" lon="4.67684">
        <ele>305.100006104</ele>
        <time>2016-02-26T09:56:33.878Z</time>
      </trkpt>
      <trkpt lat="45.92624" lon="4.67684">
        <ele>305.100006104</ele>
        <time>2016-02-26T09:56:33.908Z</time>
      </trkpt>
      <trkpt lat="45.92626" lon="4.67666">
        <ele>303.5</ele>
        <time>2016-02-26T09:56:34.907Z</time>
      </trkpt>
      <trkpt lat="45.92626" lon="4.67666">
        <ele>303.5</ele>
        <time>2016-02-26T09:56:34.927Z</time>
      </trkpt>
      <trkpt lat="45.92626" lon="4.67646">
        <ele>301.799987793</ele>
        <time>2016-02-26T09:56:35.876Z</time>
      </trkpt>
      <trkpt lat="45.92626" lon="4.67646">
        <ele>301.799987793</ele>
        <time>2016-02-26T09:56:35.911Z</time>
      </trkpt>
      <trkpt lat="45.92625" lon="4.67627">
        <ele>300.200012207</ele>
        <time>2016-02-26T09:56:36.881Z</time>
      </trkpt>
      <trkpt lat="45.92625" lon="4.67627">
        <ele>300.200012207</ele>
        <time>2016-02-26T09:56:36.908Z</time>
      </trkpt>
      <trkpt lat="45.92622" lon="4.67608">
        <ele>298.799987793</ele>
        <time>2016-02-26T09:56:37.876Z</time>
      </trkpt>
      <trkpt lat="45.92622" lon="4.67608">
        <ele>298.799987793</ele>
        <time>2016-02-26T09:56:37.905Z</time>
      </trkpt>
      <trkpt lat="45.92619" lon="4.67589">
        <ele>297.600006104</ele>
        <time>2016-02-26T09:56:38.879Z</time>
      </trkpt>
      <trkpt lat="45.92619" lon="4.67589">
        <ele>297.600006104</ele>
        <time>2016-02-26T09:56:38.907Z</time>
      </trkpt>
      <trkpt lat="45.92615" lon="4.67571">
        <ele>296.600006104</ele>
        <time>2016-02-26T09:56:39.876Z</time>
      </trkpt>
      <trkpt lat="45.92615" lon="4.67571">
        <ele>296.600006104</ele>
        <time>2016-02-26T09:56:39.907Z</time>
      </trkpt>
      <trkpt lat="45.92612" lon="4.67553">
        <ele>295.899993896</ele>
        <time>2016-02-26T09:56:40.882Z</time>
      </trkpt>
      <trkpt lat="45.92612" lon="4.67553">
        <ele>295.899993896</ele>
        <time>2016-02-26T09:56:40.908Z</time>
      </trkpt>
      <trkpt lat="45.92608" lon="4.67536">
        <ele>295.799987793</ele>
        <time>2016-02-26T09:56:41.878Z</time>
      </trkpt>
      <trkpt lat="45.92608" lon="4.67536">
        <ele>295.799987793</ele>
        <time>2016-02-26T09:56:41.903Z</time>
      </trkpt>
      <trkpt lat="45.92606" lon="4.67519">
        <ele>295.600006104</ele>
        <time>2016-02-26T09:56:42.879Z</time>
      </trkpt>
      <trkpt lat="45.92606" lon="4.67519">
        <ele>295.600006104</ele>
        <time>2016-02-26T09:56:42.909Z</time>
      </trkpt>
      <trkpt lat="45.92603" lon="4.67503">
        <ele>295.100006104</ele>
        <time>2016-02-26T09:56:43.878Z</time>
      </trkpt>
      <trkpt lat="45.92603" lon="4.67503">
        <ele>295.100006104</ele>
        <time>2016-02-26T09:56:43.904Z</time>
      </trkpt>
      <trkpt lat="45.926" lon="4.67489">
        <ele>294.700012207</ele>
        <time>2016-02-26T09:56:44.89Z</time>
      </trkpt>
      <trkpt lat="45.926" lon="4.67489">
        <ele>294.700012207</ele>
        <time>2016-02-26T09:56:44.917Z</time>
      </trkpt>
      <trkpt lat="45.92597" lon="4.67474">
        <ele>294.700012207</ele>
        <time>2016-02-26T09:56:45.876Z</time>
      </trkpt>
      <trkpt lat="45.92597" lon="4.67474">
        <ele>294.700012207</ele>
        <time>2016-02-26T09:56:45.903Z</time>
      </trkpt>
      <trkpt lat="45.92594" lon="4.6746">
        <ele>294.200012207</ele>
        <time>2016-02-26T09:56:46.878Z</time>
      </trkpt>
      <trkpt lat="45.92594" lon="4.6746">
        <ele>294.200012207</ele>
        <time>2016-02-26T09:56:46.906Z</time>
      </trkpt>
      <trkpt lat="45.9259" lon="4.67447">
        <ele>294.200012207</ele>
        <time>2016-02-26T09:56:47.879Z</time>
      </trkpt>
      <trkpt lat="45.9259" lon="4.67447">
        <ele>294.200012207</ele>
        <time>2016-02-26T09:56:47.898Z</time>
      </trkpt>
      <trkpt lat="45.92586" lon="4.67435">
        <ele>294</ele>
        <time>2016-02-26T09:56:48.884Z</time>
      </trkpt>
      <trkpt lat="45.92583" lon="4.67424">
        <ele>295.200012207</ele>
        <time>2016-02-26T09:56:49.898Z</time>
      </trkpt>
      <trkpt lat="45.9258" lon="4.67414">
        <ele>295.5</ele>
        <time>2016-02-26T09:56:50.877Z</time>
      </trkpt>
      <trkpt lat="45.92577" lon="4.67406">
        <ele>295.399993896</ele>
        <time>2016-02-26T09:56:51.896Z</time>
      </trkpt>
      <trkpt lat="45.92575" lon="4.674">
        <ele>295</ele>
        <time>2016-02-26T09:56:52.876Z</time>
      </trkpt>
      <trkpt lat="45.92573" lon="4.67394">
        <ele>294.899993896</ele>
        <time>2016-02-26T09:56:53.896Z</time>
      </trkpt>
      <trkpt lat="45.92572" lon="4.67388">
        <ele>294.700012207</ele>
        <time>2016-02-26T09:56:54.89Z</time>
      </trkpt>
      <trkpt lat="45.92568" lon="4.67378">
        <ele>294.899993896</ele>
        <time>2016-02-26T09:56:57.106Z</time>
      </trkpt>
      <trkpt lat="45.92566" lon="4.67373">
        <ele>295.299987793</ele>
        <time>2016-02-26T09:56:57.985Z</time>
      </trkpt>
      <trkpt lat="45.92563" lon="4.67365">
        <ele>296.5</ele>
        <time>2016-02-26T09:56:59.898Z</time>
      </trkpt>
      <trkpt lat="45.92562" lon="4.67361">
        <ele>296.799987793</ele>
        <time>2016-02-26T09:57:00.884Z</time>
      </trkpt>
      <trkpt lat="45.9256" lon="4.67351">
        <ele>298.299987793</ele>
        <time>2016-02-26T09:57:03.898Z</time>
      </trkpt>
      <trkpt lat="45.92559" lon="4.67348">
        <ele>298.399993896</ele>
        <time>2016-02-26T09:57:04.942Z</time>
      </trkpt>
      <trkpt lat="45.92556" lon="4.67337">
        <ele>297.5</ele>
        <time>2016-02-26T09:57:07.906Z</time>
      </trkpt>
      <trkpt lat="45.92554" lon="4.67334">
        <ele>297.5</ele>
        <time>2016-02-26T09:57:08.879Z</time>
      </trkpt>
      <trkpt lat="45.92551" lon="4.67324">
        <ele>296.299987793</ele>
        <time>2016-02-26T09:57:11.94Z</time>
      </trkpt>
      <trkpt lat="45.92549" lon="4.6732">
        <ele>296.299987793</ele>
        <time>2016-02-26T09:57:12.881Z</time>
      </trkpt>
      <trkpt lat="45.92548" lon="4.67308">
        <ele>297.700012207</ele>
        <time>2016-02-26T09:57:15.896Z</time>
      </trkpt>
      <trkpt lat="45.92548" lon="4.67304">
        <ele>297.899993896</ele>
        <time>2016-02-26T09:57:16.877Z</time>
      </trkpt>
      <trkpt lat="45.92547" lon="4.67293">
        <ele>299</ele>
        <time>2016-02-26T09:57:19.895Z</time>
      </trkpt>
      <trkpt lat="45.92547" lon="4.67289">
        <ele>299.5</ele>
        <time>2016-02-26T09:57:20.878Z</time>
      </trkpt>
      <trkpt lat="45.92548" lon="4.67279">
        <ele>300.600006104</ele>
        <time>2016-02-26T09:57:23.896Z</time>
      </trkpt>
      <trkpt lat="45.92548" lon="4.67275">
        <ele>300.799987793</ele>
        <time>2016-02-26T09:57:24.896Z</time>
      </trkpt>
      <trkpt lat="45.92549" lon="4.67264">
        <ele>301.799987793</ele>
        <time>2016-02-26T09:57:27.919Z</time>
      </trkpt>
      <trkpt lat="45.9255" lon="4.67261">
        <ele>302.299987793</ele>
        <time>2016-02-26T09:57:28.878Z</time>
      </trkpt>
      <trkpt lat="45.9255" lon="4.67252">
        <ele>302.5</ele>
        <time>2016-02-26T09:57:31.942Z</time>
      </trkpt>
      <trkpt lat="45.92551" lon="4.67248">
        <ele>302.200012207</ele>
        <time>2016-02-26T09:57:32.881Z</time>
      </trkpt>
      <trkpt lat="45.92553" lon="4.67238">
        <ele>303.399993896</ele>
        <time>2016-02-26T09:57:35.896Z</time>
      </trkpt>
      <trkpt lat="45.92553" lon="4.67235">
        <ele>303.700012207</ele>
        <time>2016-02-26T09:57:36.881Z</time>
      </trkpt>
      <trkpt lat="45.92555" lon="4.67225">
        <ele>304.399993896</ele>
        <time>2016-02-26T09:57:39.902Z</time>
      </trkpt>
      <trkpt lat="45.92556" lon="4.67222">
        <ele>304.399993896</ele>
        <time>2016-02-26T09:57:40.876Z</time>
      </trkpt>
      <trkpt lat="45.92559" lon="4.67213">
        <ele>306.100006104</ele>
        <time>2016-02-26T09:57:44.026Z</time>
      </trkpt>
      <trkpt lat="45.9256" lon="4.6721">
        <ele>306.399993896</ele>
        <time>2016-02-26T09:57:44.895Z</time>
      </trkpt>
      <trkpt lat="45.92563" lon="4.672">
        <ele>307.299987793</ele>
        <time>2016-02-26T09:57:47.897Z</time>
      </trkpt>
      <trkpt lat="45.92564" lon="4.67197">
        <ele>307.399993896</ele>
        <time>2016-02-26T09:57:48.881Z</time>
      </trkpt>
      <trkpt lat="45.92565" lon="4.67186">
        <ele>308.899993896</ele>
        <time>2016-02-26T09:57:52.897Z</time>
      </trkpt>
      <trkpt lat="45.92565" lon="4.67183">
        <ele>309.299987793</ele>
        <time>2016-02-26T09:57:53.894Z</time>
      </trkpt>
      <trkpt lat="45.9257" lon="4.67173">
        <ele>309.799987793</ele>
        <time>2016-02-26T09:57:57.895Z</time>
      </trkpt>
      <trkpt lat="45.92571" lon="4.67171">
        <ele>310.200012207</ele>
        <time>2016-02-26T09:57:58.883Z</time>
      </trkpt>
      <trkpt lat="45.92575" lon="4.6716">
        <ele>310.899993896</ele>
        <time>2016-02-26T09:58:02.898Z</time>
      </trkpt>
      <trkpt lat="45.92576" lon="4.67158">
        <ele>311.200012207</ele>
        <time>2016-02-26T09:58:03.876Z</time>
      </trkpt>
      <trkpt lat="45.92579" lon="4.67146">
        <ele>312.600006104</ele>
        <time>2016-02-26T09:58:08.949Z</time>
      </trkpt>
      <trkpt lat="45.9258" lon="4.67144">
        <ele>312.600006104</ele>
        <time>2016-02-26T09:58:09.88Z</time>
      </trkpt>
      <trkpt lat="45.92584" lon="4.67134">
        <ele>312.899993896</ele>
        <time>2016-02-26T09:58:13.894Z</time>
      </trkpt>
      <trkpt lat="45.92585" lon="4.67132">
        <ele>313</ele>
        <time>2016-02-26T09:58:14.917Z</time>
      </trkpt>
      <trkpt lat="45.92587" lon="4.67121">
        <ele>314.799987793</ele>
        <time>2016-02-26T09:58:19.895Z</time>
      </trkpt>
      <trkpt lat="45.92587" lon="4.67119">
        <ele>314.899993896</ele>
        <time>2016-02-26T09:58:20.878Z</time>
      </trkpt>
      <trkpt lat="45.92592" lon="4.67109">
        <ele>314.899993896</ele>
        <time>2016-02-26T09:58:25.915Z</time>
      </trkpt>
      <trkpt lat="45.92592" lon="4.67107">
        <ele>315</ele>
        <time>2016-02-26T09:58:26.881Z</time>
      </trkpt>
      <trkpt lat="45.92593" lon="4.67095">
        <ele>316.399993896</ele>
        <time>2016-02-26T09:58:31.895Z</time>
      </trkpt>
      <trkpt lat="45.92594" lon="4.67092">
        <ele>316.5</ele>
        <time>2016-02-26T09:58:32.876Z</time>
      </trkpt>
      <trkpt lat="45.92597" lon="4.67081">
        <ele>317.399993896</ele>
        <time>2016-02-26T09:58:37.947Z</time>
      </trkpt>
      <trkpt lat="45.92597" lon="4.67078">
        <ele>317.600006104</ele>
        <time>2016-02-26T09:58:38.876Z</time>
      </trkpt>
      <trkpt lat="45.92598" lon="4.67066">
        <ele>318.299987793</ele>
        <time>2016-02-26T09:58:43.895Z</time>
      </trkpt>
      <trkpt lat="45.92598" lon="4.67064">
        <ele>318.600006104</ele>
        <time>2016-02-26T09:58:44.903Z</time>
      </trkpt>
      <trkpt lat="45.92601" lon="4.67052">
        <ele>319.700012207</ele>
        <time>2016-02-26T09:58:48.94Z</time>
      </trkpt>
      <trkpt lat="45.92601" lon="4.6705">
        <ele>320.100006104</ele>
        <time>2016-02-26T09:58:49.91Z</time>
      </trkpt>
      <trkpt lat="45.92602" lon="4.67037">
        <ele>321.700012207</ele>
        <time>2016-02-26T09:58:54.956Z</time>
      </trkpt>
      <trkpt lat="45.92601" lon="4.67034">
        <ele>321.899993896</ele>
        <time>2016-02-26T09:58:55.91Z</time>
      </trkpt>
      <trkpt lat="45.92604" lon="4.67024">
        <ele>322.299987793</ele>
        <time>2016-02-26T09:58:59.934Z</time>
      </trkpt>
      <trkpt lat="45.92605" lon="4.67021">
        <ele>322.399993896</ele>
        <time>2016-02-26T09:59:00.914Z</time>
      </trkpt>
      <trkpt lat="45.92606" lon="4.67009">
        <ele>323.5</ele>
        <time>2016-02-26T09:59:05.927Z</time>
      </trkpt>
      <trkpt lat="45.92606" lon="4.67006">
        <ele>323.600006104</ele>
        <time>2016-02-26T09:59:06.914Z</time>
      </trkpt>
      <trkpt lat="45.92608" lon="4.66996">
        <ele>324.700012207</ele>
        <time>2016-02-26T09:59:10.914Z</time>
      </trkpt>
      <trkpt lat="45.92609" lon="4.66994">
        <ele>324.799987793</ele>
        <time>2016-02-26T09:59:11.881Z</time>
      </trkpt>
      <trkpt lat="45.92611" lon="4.66982">
        <ele>325.899993896</ele>
        <time>2016-02-26T09:59:15.895Z</time>
      </trkpt>
      <trkpt lat="45.92612" lon="4.66979">
        <ele>325.799987793</ele>
        <time>2016-02-26T09:59:16.908Z</time>
      </trkpt>
      <trkpt lat="45.92614" lon="4.66969">
        <ele>326.299987793</ele>
        <time>2016-02-26T09:59:20.896Z</time>
      </trkpt>
      <trkpt lat="45.92614" lon="4.66966">
        <ele>326.399993896</ele>
        <time>2016-02-26T09:59:21.879Z</time>
      </trkpt>
      <trkpt lat="45.92617" lon="4.66954">
        <ele>327.200012207</ele>
        <time>2016-02-26T09:59:25.895Z</time>
      </trkpt>
      <trkpt lat="45.92617" lon="4.6695">
        <ele>327.5</ele>
        <time>2016-02-26T09:59:26.878Z</time>
      </trkpt>
      <trkpt lat="45.9262" lon="4.6694">
        <ele>327.799987793</ele>
        <time>2016-02-26T09:59:29.896Z</time>
      </trkpt>
      <trkpt lat="45.9262" lon="4.66937">
        <ele>328.200012207</ele>
        <time>2016-02-26T09:59:30.883Z</time>
      </trkpt>
      <trkpt lat="45.92623" lon="4.66928">
        <ele>328.899993896</ele>
        <time>2016-02-26T09:59:33.897Z</time>
      </trkpt>
      <trkpt lat="45.92624" lon="4.66925">
        <ele>329</ele>
        <time>2016-02-26T09:59:34.903Z</time>
      </trkpt>
      <trkpt lat="45.92626" lon="4.66915">
        <ele>329</ele>
        <time>2016-02-26T09:59:37.895Z</time>
      </trkpt>
      <trkpt lat="45.92627" lon="4.66912">
        <ele>329.100006104</ele>
        <time>2016-02-26T09:59:38.875Z</time>
      </trkpt>
      <trkpt lat="45.9263" lon="4.66902">
        <ele>329.700012207</ele>
        <time>2016-02-26T09:59:41.897Z</time>
      </trkpt>
      <trkpt lat="45.92631" lon="4.66898">
        <ele>329.799987793</ele>
        <time>2016-02-26T09:59:42.884Z</time>
      </trkpt>
      <trkpt lat="45.92633" lon="4.66888">
        <ele>330.899993896</ele>
        <time>2016-02-26T09:59:45.897Z</time>
      </trkpt>
      <trkpt lat="45.92634" lon="4.66884">
        <ele>331.299987793</ele>
        <time>2016-02-26T09:59:46.879Z</time>
      </trkpt>
      <trkpt lat="45.92636" lon="4.66873">
        <ele>331.700012207</ele>
        <time>2016-02-26T09:59:49.979Z</time>
      </trkpt>
      <trkpt lat="45.92637" lon="4.6687">
        <ele>331.600006104</ele>
        <time>2016-02-26T09:59:50.878Z</time>
      </trkpt>
      <trkpt lat="45.92638" lon="4.66858">
        <ele>332.100006104</ele>
        <time>2016-02-26T09:59:53.896Z</time>
      </trkpt>
      <trkpt lat="45.92639" lon="4.66854">
        <ele>332.100006104</ele>
        <time>2016-02-26T09:59:54.904Z</time>
      </trkpt>
      <trkpt lat="45.92641" lon="4.66845">
        <ele>332.700012207</ele>
        <time>2016-02-26T09:59:56.932Z</time>
      </trkpt>
      <trkpt lat="45.92642" lon="4.66841">
        <ele>332.700012207</ele>
        <time>2016-02-26T09:59:57.877Z</time>
      </trkpt>
      <trkpt lat="45.92642" lon="4.66831">
        <ele>333.399993896</ele>
        <time>2016-02-26T10:00:00.899Z</time>
      </trkpt>
      <trkpt lat="45.92642" lon="4.66827">
        <ele>333.399993896</ele>
        <time>2016-02-26T10:00:01.877Z</time>
      </trkpt>
      <trkpt lat="45.92643" lon="4.66815">
        <ele>334.600006104</ele>
        <time>2016-02-26T10:00:04.919Z</time>
      </trkpt>
      <trkpt lat="45.92644" lon="4.66811">
        <ele>334.700012207</ele>
        <time>2016-02-26T10:00:05.896Z</time>
      </trkpt>
      <trkpt lat="45.92645" lon="4.66801">
        <ele>335</ele>
        <time>2016-02-26T10:00:07.895Z</time>
      </trkpt>
      <trkpt lat="45.92646" lon="4.66797">
        <ele>334.700012207</ele>
        <time>2016-02-26T10:00:08.882Z</time>
      </trkpt>
      <trkpt lat="45.92647" lon="4.66787">
        <ele>334.299987793</ele>
        <time>2016-02-26T10:00:10.915Z</time>
      </trkpt>
      <trkpt lat="45.92647" lon="4.66783">
        <ele>334.100006104</ele>
        <time>2016-02-26T10:00:11.876Z</time>
      </trkpt>
      <trkpt lat="45.92647" lon="4.66775">
        <ele>334.600006104</ele>
        <time>2016-02-26T10:00:13.894Z</time>
      </trkpt>
      <trkpt lat="45.92648" lon="4.6677">
        <ele>334.700012207</ele>
        <time>2016-02-26T10:00:14.899Z</time>
      </trkpt>
      <trkpt lat="45.92648" lon="4.66761">
        <ele>334.399993896</ele>
        <time>2016-02-26T10:00:16.902Z</time>
      </trkpt>
      <trkpt lat="45.92649" lon="4.66756">
        <ele>334.100006104</ele>
        <time>2016-02-26T10:00:17.877Z</time>
      </trkpt>
      <trkpt lat="45.92651" lon="4.66746">
        <ele>334.600006104</ele>
        <time>2016-02-26T10:00:19.895Z</time>
      </trkpt>
      <trkpt lat="45.92651" lon="4.66741">
        <ele>334.600006104</ele>
        <time>2016-02-26T10:00:20.876Z</time>
      </trkpt>
      <trkpt lat="45.92651" lon="4.66731">
        <ele>334.200012207</ele>
        <time>2016-02-26T10:00:22.895Z</time>
      </trkpt>
      <trkpt lat="45.92651" lon="4.66726">
        <ele>334.399993896</ele>
        <time>2016-02-26T10:00:23.874Z</time>
      </trkpt>
      <trkpt lat="45.9265" lon="4.66717">
        <ele>334.700012207</ele>
        <time>2016-02-26T10:00:25.895Z</time>
      </trkpt>
      <trkpt lat="45.9265" lon="4.66712">
        <ele>334.700012207</ele>
        <time>2016-02-26T10:00:26.88Z</time>
      </trkpt>
      <trkpt lat="45.9265" lon="4.66701">
        <ele>335.100006104</ele>
        <time>2016-02-26T10:00:28.899Z</time>
      </trkpt>
      <trkpt lat="45.92649" lon="4.66696">
        <ele>335.100006104</ele>
        <time>2016-02-26T10:00:29.877Z</time>
      </trkpt>
      <trkpt lat="45.92649" lon="4.66685">
        <ele>335.600006104</ele>
        <time>2016-02-26T10:00:31.971Z</time>
      </trkpt>
      <trkpt lat="45.92649" lon="4.66679">
        <ele>335.299987793</ele>
        <time>2016-02-26T10:00:32.891Z</time>
      </trkpt>
      <trkpt lat="45.92649" lon="4.66667">
        <ele>335.399993896</ele>
        <time>2016-02-26T10:00:34.923Z</time>
      </trkpt>
      <trkpt lat="45.92649" lon="4.66663">
        <ele>335.5</ele>
        <time>2016-02-26T10:00:35.877Z</time>
      </trkpt>
      <trkpt lat="45.92647" lon="4.66653">
        <ele>336.200012207</ele>
        <time>2016-02-26T10:00:37.897Z</time>
      </trkpt>
      <trkpt lat="45.92646" lon="4.66648">
        <ele>336.299987793</ele>
        <time>2016-02-26T10:00:38.875Z</time>
      </trkpt>
      <trkpt lat="45.92646" lon="4.66638">
        <ele>336.700012207</ele>
        <time>2016-02-26T10:00:40.896Z</time>
      </trkpt>
      <trkpt lat="45.92646" lon="4.66633">
        <ele>336.899993896</ele>
        <time>2016-02-26T10:00:41.898Z</time>
      </trkpt>
      <trkpt lat="45.92646" lon="4.66622">
        <ele>337.299987793</ele>
        <time>2016-02-26T10:00:43.895Z</time>
      </trkpt>
      <trkpt lat="45.92645" lon="4.66617">
        <ele>337.399993896</ele>
        <time>2016-02-26T10:00:45.112Z</time>
      </trkpt>
      <trkpt lat="45.92644" lon="4.66606">
        <ele>338.100006104</ele>
        <time>2016-02-26T10:00:46.898Z</time>
      </trkpt>
      <trkpt lat="45.92644" lon="4.666">
        <ele>338.200012207</ele>
        <time>2016-02-26T10:00:47.899Z</time>
      </trkpt>
      <trkpt lat="45.92643" lon="4.66594">
        <ele>338.399993896</ele>
        <time>2016-02-26T10:00:48.935Z</time>
      </trkpt>
      <trkpt lat="45.92644" lon="4.66587">
        <ele>338.600006104</ele>
        <time>2016-02-26T10:00:49.879Z</time>
      </trkpt>
      <trkpt lat="45.92644" lon="4.6658">
        <ele>338.799987793</ele>
        <time>2016-02-26T10:00:50.896Z</time>
      </trkpt>
      <trkpt lat="45.92646" lon="4.66573">
        <ele>338.899993896</ele>
        <time>2016-02-26T10:00:51.879Z</time>
      </trkpt>
      <trkpt lat="45.92646" lon="4.66565">
        <ele>338.700012207</ele>
        <time>2016-02-26T10:00:52.913Z</time>
      </trkpt>
      <trkpt lat="45.92647" lon="4.66557">
        <ele>338.799987793</ele>
        <time>2016-02-26T10:00:53.89Z</time>
      </trkpt>
      <trkpt lat="45.92648" lon="4.66549">
        <ele>339</ele>
        <time>2016-02-26T10:00:54.938Z</time>
      </trkpt>
      <trkpt lat="45.9265" lon="4.66541">
        <ele>338.700012207</ele>
        <time>2016-02-26T10:00:55.878Z</time>
      </trkpt>
      <trkpt lat="45.92652" lon="4.66532">
        <ele>338.200012207</ele>
        <time>2016-02-26T10:00:56.898Z</time>
      </trkpt>
      <trkpt lat="45.92653" lon="4.66523">
        <ele>337.899993896</ele>
        <time>2016-02-26T10:00:57.943Z</time>
      </trkpt>
      <trkpt lat="45.92653" lon="4.66513">
        <ele>337.5</ele>
        <time>2016-02-26T10:00:58.897Z</time>
      </trkpt>
      <trkpt lat="45.92654" lon="4.66502">
        <ele>336.799987793</ele>
        <time>2016-02-26T10:00:59.875Z</time>
      </trkpt>
      <trkpt lat="45.92656" lon="4.66491">
        <ele>337</ele>
        <time>2016-02-26T10:01:00.908Z</time>
      </trkpt>
      <trkpt lat="45.92658" lon="4.66479">
        <ele>335.899993896</ele>
        <time>2016-02-26T10:01:01.889Z</time>
      </trkpt>
      <trkpt lat="45.92659" lon="4.66468">
        <ele>335.200012207</ele>
        <time>2016-02-26T10:01:02.91Z</time>
      </trkpt>
      <trkpt lat="45.9266" lon="4.66456">
        <ele>333.700012207</ele>
        <time>2016-02-26T10:01:03.889Z</time>
      </trkpt>
      <trkpt lat="45.9266" lon="4.66456">
        <ele>333.700012207</ele>
        <time>2016-02-26T10:01:03.935Z</time>
      </trkpt>
      <trkpt lat="45.92661" lon="4.66443">
        <ele>332.200012207</ele>
        <time>2016-02-26T10:01:04.883Z</time>
      </trkpt>
      <trkpt lat="45.92661" lon="4.66443">
        <ele>332.200012207</ele>
        <time>2016-02-26T10:01:04.921Z</time>
      </trkpt>
      <trkpt lat="45.92663" lon="4.66429">
        <ele>331.200012207</ele>
        <time>2016-02-26T10:01:05.877Z</time>
      </trkpt>
      <trkpt lat="45.92663" lon="4.66429">
        <ele>331.200012207</ele>
        <time>2016-02-26T10:01:05.902Z</time>
      </trkpt>
      <trkpt lat="45.92664" lon="4.66416">
        <ele>329.799987793</ele>
        <time>2016-02-26T10:01:06.881Z</time>
      </trkpt>
      <trkpt lat="45.92664" lon="4.66416">
        <ele>329.799987793</ele>
        <time>2016-02-26T10:01:06.922Z</time>
      </trkpt>
      <trkpt lat="45.92666" lon="4.66401">
        <ele>328.799987793</ele>
        <time>2016-02-26T10:01:07.877Z</time>
      </trkpt>
      <trkpt lat="45.92666" lon="4.66401">
        <ele>328.799987793</ele>
        <time>2016-02-26T10:01:07.908Z</time>
      </trkpt>
      <trkpt lat="45.92667" lon="4.66387">
        <ele>327.200012207</ele>
        <time>2016-02-26T10:01:08.878Z</time>
      </trkpt>
      <trkpt lat="45.92667" lon="4.66387">
        <ele>327.200012207</ele>
        <time>2016-02-26T10:01:08.905Z</time>
      </trkpt>
      <trkpt lat="45.92669" lon="4.66372">
        <ele>325.899993896</ele>
        <time>2016-02-26T10:01:09.879Z</time>
      </trkpt>
      <trkpt lat="45.92669" lon="4.66372">
        <ele>325.899993896</ele>
        <time>2016-02-26T10:01:09.903Z</time>
      </trkpt>
      <trkpt lat="45.9267" lon="4.66357">
        <ele>325.100006104</ele>
        <time>2016-02-26T10:01:10.879Z</time>
      </trkpt>
      <trkpt lat="45.9267" lon="4.66357">
        <ele>325.100006104</ele>
        <time>2016-02-26T10:01:10.906Z</time>
      </trkpt>
      <trkpt lat="45.92673" lon="4.66341">
        <ele>324.5</ele>
        <time>2016-02-26T10:01:11.877Z</time>
      </trkpt>
      <trkpt lat="45.92673" lon="4.66341">
        <ele>324.5</ele>
        <time>2016-02-26T10:01:11.901Z</time>
      </trkpt>
      <trkpt lat="45.92674" lon="4.66326">
        <ele>323.5</ele>
        <time>2016-02-26T10:01:12.882Z</time>
      </trkpt>
      <trkpt lat="45.92674" lon="4.66326">
        <ele>323.5</ele>
        <time>2016-02-26T10:01:12.95Z</time>
      </trkpt>
      <trkpt lat="45.92676" lon="4.66311">
        <ele>322.5</ele>
        <time>2016-02-26T10:01:13.879Z</time>
      </trkpt>
      <trkpt lat="45.92676" lon="4.66311">
        <ele>322.5</ele>
        <time>2016-02-26T10:01:13.904Z</time>
      </trkpt>
      <trkpt lat="45.92678" lon="4.66296">
        <ele>321.5</ele>
        <time>2016-02-26T10:01:15.07Z</time>
      </trkpt>
      <trkpt lat="45.92678" lon="4.66296">
        <ele>321.5</ele>
        <time>2016-02-26T10:01:15.22Z</time>
      </trkpt>
      <trkpt lat="45.92681" lon="4.6628">
        <ele>320.700012207</ele>
        <time>2016-02-26T10:01:15.906Z</time>
      </trkpt>
      <trkpt lat="45.92681" lon="4.6628">
        <ele>320.700012207</ele>
        <time>2016-02-26T10:01:16.043Z</time>
      </trkpt>
      <trkpt lat="45.92683" lon="4.66265">
        <ele>319.899993896</ele>
        <time>2016-02-26T10:01:16.88Z</time>
      </trkpt>
      <trkpt lat="45.92683" lon="4.66265">
        <ele>319.899993896</ele>
        <time>2016-02-26T10:01:16.918Z</time>
      </trkpt>
      <trkpt lat="45.92686" lon="4.6625">
        <ele>319.100006104</ele>
        <time>2016-02-26T10:01:17.886Z</time>
      </trkpt>
      <trkpt lat="45.92686" lon="4.6625">
        <ele>319.100006104</ele>
        <time>2016-02-26T10:01:17.921Z</time>
      </trkpt>
      <trkpt lat="45.92689" lon="4.66235">
        <ele>318.399993896</ele>
        <time>2016-02-26T10:01:18.916Z</time>
      </trkpt>
      <trkpt lat="45.92689" lon="4.66235">
        <ele>318.399993896</ele>
        <time>2016-02-26T10:01:18.973Z</time>
      </trkpt>
      <trkpt lat="45.92692" lon="4.6622">
        <ele>317.700012207</ele>
        <time>2016-02-26T10:01:19.881Z</time>
      </trkpt>
      <trkpt lat="45.92692" lon="4.6622">
        <ele>317.700012207</ele>
        <time>2016-02-26T10:01:19.905Z</time>
      </trkpt>
      <trkpt lat="45.92695" lon="4.66206">
        <ele>316.700012207</ele>
        <time>2016-02-26T10:01:20.877Z</time>
      </trkpt>
      <trkpt lat="45.92695" lon="4.66206">
        <ele>316.700012207</ele>
        <time>2016-02-26T10:01:21.015Z</time>
      </trkpt>
      <trkpt lat="45.92699" lon="4.66191">
        <ele>315.799987793</ele>
        <time>2016-02-26T10:01:21.918Z</time>
      </trkpt>
      <trkpt lat="45.92699" lon="4.66191">
        <ele>315.799987793</ele>
        <time>2016-02-26T10:01:22.164Z</time>
      </trkpt>
      <trkpt lat="45.92703" lon="4.66178">
        <ele>315</ele>
        <time>2016-02-26T10:01:22.875Z</time>
      </trkpt>
      <trkpt lat="45.92703" lon="4.66178">
        <ele>315</ele>
        <time>2016-02-26T10:01:22.899Z</time>
      </trkpt>
      <trkpt lat="45.92707" lon="4.66165">
        <ele>314.299987793</ele>
        <time>2016-02-26T10:01:23.876Z</time>
      </trkpt>
      <trkpt lat="45.92707" lon="4.66165">
        <ele>314.299987793</ele>
        <time>2016-02-26T10:01:23.897Z</time>
      </trkpt>
      <trkpt lat="45.92711" lon="4.66153">
        <ele>313.5</ele>
        <time>2016-02-26T10:01:24.939Z</time>
      </trkpt>
      <trkpt lat="45.92711" lon="4.66153">
        <ele>313.5</ele>
        <time>2016-02-26T10:01:24.978Z</time>
      </trkpt>
      <trkpt lat="45.92716" lon="4.6614">
        <ele>312.899993896</ele>
        <time>2016-02-26T10:01:25.876Z</time>
      </trkpt>
      <trkpt lat="45.92716" lon="4.6614">
        <ele>312.899993896</ele>
        <time>2016-02-26T10:01:25.897Z</time>
      </trkpt>
      <trkpt lat="45.92719" lon="4.66128">
        <ele>312.100006104</ele>
        <time>2016-02-26T10:01:26.861Z</time>
      </trkpt>
      <trkpt lat="45.92719" lon="4.66128">
        <ele>312.100006104</ele>
        <time>2016-02-26T10:01:26.966Z</time>
      </trkpt>
      <trkpt lat="45.92722" lon="4.66116">
        <ele>311.600006104</ele>
        <time>2016-02-26T10:01:27.879Z</time>
      </trkpt>
      <trkpt lat="45.92722" lon="4.66116">
        <ele>311.600006104</ele>
        <time>2016-02-26T10:01:27.9Z</time>
      </trkpt>
      <trkpt lat="45.92724" lon="4.66103">
        <ele>311.100006104</ele>
        <time>2016-02-26T10:01:28.896Z</time>
      </trkpt>
      <trkpt lat="45.92724" lon="4.66103">
        <ele>311.100006104</ele>
        <time>2016-02-26T10:01:28.917Z</time>
      </trkpt>
      <trkpt lat="45.92727" lon="4.6609">
        <ele>310.600006104</ele>
        <time>2016-02-26T10:01:29.877Z</time>
      </trkpt>
      <trkpt lat="45.92727" lon="4.6609">
        <ele>310.600006104</ele>
        <time>2016-02-26T10:01:29.896Z</time>
      </trkpt>
      <trkpt lat="45.92728" lon="4.66077">
        <ele>310</ele>
        <time>2016-02-26T10:01:30.882Z</time>
      </trkpt>
      <trkpt lat="45.92728" lon="4.66077">
        <ele>310</ele>
        <time>2016-02-26T10:01:30.902Z</time>
      </trkpt>
      <trkpt lat="45.9273" lon="4.66064">
        <ele>309.399993896</ele>
        <time>2016-02-26T10:01:31.878Z</time>
      </trkpt>
      <trkpt lat="45.9273" lon="4.66064">
        <ele>309.399993896</ele>
        <time>2016-02-26T10:01:31.899Z</time>
      </trkpt>
      <trkpt lat="45.92731" lon="4.66052">
        <ele>308.799987793</ele>
        <time>2016-02-26T10:01:32.916Z</time>
      </trkpt>
      <trkpt lat="45.92731" lon="4.66052">
        <ele>308.799987793</ele>
        <time>2016-02-26T10:01:32.935Z</time>
      </trkpt>
      <trkpt lat="45.92732" lon="4.66039">
        <ele>308.200012207</ele>
        <time>2016-02-26T10:01:33.879Z</time>
      </trkpt>
      <trkpt lat="45.92732" lon="4.66039">
        <ele>308.200012207</ele>
        <time>2016-02-26T10:01:33.947Z</time>
      </trkpt>
      <trkpt lat="45.92733" lon="4.66025">
        <ele>307.5</ele>
        <time>2016-02-26T10:01:34.876Z</time>
      </trkpt>
      <trkpt lat="45.92733" lon="4.66025">
        <ele>307.5</ele>
        <time>2016-02-26T10:01:34.921Z</time>
      </trkpt>
      <trkpt lat="45.92733" lon="4.66012">
        <ele>306.700012207</ele>
        <time>2016-02-26T10:01:35.878Z</time>
      </trkpt>
      <trkpt lat="45.92733" lon="4.66012">
        <ele>306.700012207</ele>
        <time>2016-02-26T10:01:35.897Z</time>
      </trkpt>
      <trkpt lat="45.92733" lon="4.65999">
        <ele>305.899993896</ele>
        <time>2016-02-26T10:01:36.881Z</time>
      </trkpt>
      <trkpt lat="45.92733" lon="4.65999">
        <ele>305.899993896</ele>
        <time>2016-02-26T10:01:36.901Z</time>
      </trkpt>
      <trkpt lat="45.92732" lon="4.65985">
        <ele>305.200012207</ele>
        <time>2016-02-26T10:01:37.88Z</time>
      </trkpt>
      <trkpt lat="45.92732" lon="4.65985">
        <ele>305.200012207</ele>
        <time>2016-02-26T10:01:37.901Z</time>
      </trkpt>
      <trkpt lat="45.92732" lon="4.65971">
        <ele>304.700012207</ele>
        <time>2016-02-26T10:01:38.878Z</time>
      </trkpt>
      <trkpt lat="45.92732" lon="4.65971">
        <ele>304.700012207</ele>
        <time>2016-02-26T10:01:38.901Z</time>
      </trkpt>
      <trkpt lat="45.92732" lon="4.65957">
        <ele>304</ele>
        <time>2016-02-26T10:01:39.878Z</time>
      </trkpt>
      <trkpt lat="45.92732" lon="4.65957">
        <ele>304</ele>
        <time>2016-02-26T10:01:39.9Z</time>
      </trkpt>
      <trkpt lat="45.92731" lon="4.65943">
        <ele>303.600006104</ele>
        <time>2016-02-26T10:01:40.878Z</time>
      </trkpt>
      <trkpt lat="45.92731" lon="4.65943">
        <ele>303.600006104</ele>
        <time>2016-02-26T10:01:40.903Z</time>
      </trkpt>
      <trkpt lat="45.9273" lon="4.65929">
        <ele>303.100006104</ele>
        <time>2016-02-26T10:01:42.155Z</time>
      </trkpt>
      <trkpt lat="45.9273" lon="4.65929">
        <ele>303.100006104</ele>
        <time>2016-02-26T10:01:42.205Z</time>
      </trkpt>
      <trkpt lat="45.92729" lon="4.65916">
        <ele>302.600006104</ele>
        <time>2016-02-26T10:01:42.895Z</time>
      </trkpt>
      <trkpt lat="45.92729" lon="4.65916">
        <ele>302.600006104</ele>
        <time>2016-02-26T10:01:42.979Z</time>
      </trkpt>
      <trkpt lat="45.92727" lon="4.65901">
        <ele>302.200012207</ele>
        <time>2016-02-26T10:01:43.918Z</time>
      </trkpt>
      <trkpt lat="45.92727" lon="4.65901">
        <ele>302.200012207</ele>
        <time>2016-02-26T10:01:43.944Z</time>
      </trkpt>
      <trkpt lat="45.92727" lon="4.65887">
        <ele>302</ele>
        <time>2016-02-26T10:01:44.879Z</time>
      </trkpt>
      <trkpt lat="45.92727" lon="4.65887">
        <ele>302</ele>
        <time>2016-02-26T10:01:44.928Z</time>
      </trkpt>
      <trkpt lat="45.92726" lon="4.65873">
        <ele>301.700012207</ele>
        <time>2016-02-26T10:01:45.895Z</time>
      </trkpt>
      <trkpt lat="45.92726" lon="4.65873">
        <ele>301.700012207</ele>
        <time>2016-02-26T10:01:45.958Z</time>
      </trkpt>
      <trkpt lat="45.92725" lon="4.65859">
        <ele>300.899993896</ele>
        <time>2016-02-26T10:01:46.908Z</time>
      </trkpt>
      <trkpt lat="45.92725" lon="4.65859">
        <ele>300.899993896</ele>
        <time>2016-02-26T10:01:46.94Z</time>
      </trkpt>
      <trkpt lat="45.92725" lon="4.65845">
        <ele>300.700012207</ele>
        <time>2016-02-26T10:01:47.87Z</time>
      </trkpt>
      <trkpt lat="45.92725" lon="4.65845">
        <ele>300.700012207</ele>
        <time>2016-02-26T10:01:47.897Z</time>
      </trkpt>
      <trkpt lat="45.92724" lon="4.65831">
        <ele>300.799987793</ele>
        <time>2016-02-26T10:01:48.893Z</time>
      </trkpt>
      <trkpt lat="45.92724" lon="4.65831">
        <ele>300.799987793</ele>
        <time>2016-02-26T10:01:48.968Z</time>
      </trkpt>
      <trkpt lat="45.92723" lon="4.65818">
        <ele>300.200012207</ele>
        <time>2016-02-26T10:01:49.89Z</time>
      </trkpt>
      <trkpt lat="45.92723" lon="4.65818">
        <ele>300.200012207</ele>
        <time>2016-02-26T10:01:49.93Z</time>
      </trkpt>
      <trkpt lat="45.92722" lon="4.65804">
        <ele>299.799987793</ele>
        <time>2016-02-26T10:01:50.918Z</time>
      </trkpt>
      <trkpt lat="45.92722" lon="4.65804">
        <ele>299.799987793</ele>
        <time>2016-02-26T10:01:50.977Z</time>
      </trkpt>
      <trkpt lat="45.9272" lon="4.65791">
        <ele>299.299987793</ele>
        <time>2016-02-26T10:01:51.905Z</time>
      </trkpt>
      <trkpt lat="45.9272" lon="4.65791">
        <ele>299.299987793</ele>
        <time>2016-02-26T10:01:51.949Z</time>
      </trkpt>
      <trkpt lat="45.92719" lon="4.65776">
        <ele>299</ele>
        <time>2016-02-26T10:01:52.888Z</time>
      </trkpt>
      <trkpt lat="45.92719" lon="4.65776">
        <ele>299</ele>
        <time>2016-02-26T10:01:52.909Z</time>
      </trkpt>
      <trkpt lat="45.92718" lon="4.65763">
        <ele>298.399993896</ele>
        <time>2016-02-26T10:01:54.169Z</time>
      </trkpt>
      <trkpt lat="45.92718" lon="4.65763">
        <ele>298.399993896</ele>
        <time>2016-02-26T10:01:54.44Z</time>
      </trkpt>
      <trkpt lat="45.92715" lon="4.65749">
        <ele>297.899993896</ele>
        <time>2016-02-26T10:01:54.963Z</time>
      </trkpt>
      <trkpt lat="45.92715" lon="4.65749">
        <ele>297.899993896</ele>
        <time>2016-02-26T10:01:55.046Z</time>
      </trkpt>
      <trkpt lat="45.92713" lon="4.65736">
        <ele>297.399993896</ele>
        <time>2016-02-26T10:01:56.022Z</time>
      </trkpt>
      <trkpt lat="45.92711" lon="4.65724">
        <ele>297</ele>
        <time>2016-02-26T10:01:56.906Z</time>
      </trkpt>
      <trkpt lat="45.92709" lon="4.65712">
        <ele>296.399993896</ele>
        <time>2016-02-26T10:01:57.888Z</time>
      </trkpt>
      <trkpt lat="45.92707" lon="4.65702">
        <ele>295.799987793</ele>
        <time>2016-02-26T10:01:58.948Z</time>
      </trkpt>
      <trkpt lat="45.92706" lon="4.65692">
        <ele>295.799987793</ele>
        <time>2016-02-26T10:01:59.99Z</time>
      </trkpt>
      <trkpt lat="45.92705" lon="4.65684">
        <ele>295.899993896</ele>
        <time>2016-02-26T10:02:01.001Z</time>
      </trkpt>
      <trkpt lat="45.92705" lon="4.65677">
        <ele>296.299987793</ele>
        <time>2016-02-26T10:02:01.874Z</time>
      </trkpt>
      <trkpt lat="45.92704" lon="4.65667">
        <ele>296.799987793</ele>
        <time>2016-02-26T10:02:04.013Z</time>
      </trkpt>
      <trkpt lat="45.92705" lon="4.65663">
        <ele>297.700012207</ele>
        <time>2016-02-26T10:02:04.895Z</time>
      </trkpt>
      <trkpt lat="45.92704" lon="4.65651">
        <ele>297.899993896</ele>
        <time>2016-02-26T10:02:09.003Z</time>
      </trkpt>
      <trkpt lat="45.92703" lon="4.65646">
        <ele>297.899993896</ele>
        <time>2016-02-26T10:02:09.88Z</time>
      </trkpt>
      <trkpt lat="45.92701" lon="4.65635">
        <ele>297.700012207</ele>
        <time>2016-02-26T10:02:12.099Z</time>
      </trkpt>
      <trkpt lat="45.92698" lon="4.65628">
        <ele>297.600006104</ele>
        <time>2016-02-26T10:02:12.97Z</time>
      </trkpt>
      <trkpt lat="45.92697" lon="4.65621">
        <ele>297.600006104</ele>
        <time>2016-02-26T10:02:14.182Z</time>
      </trkpt>
      <trkpt lat="45.92695" lon="4.65614">
        <ele>297.600006104</ele>
        <time>2016-02-26T10:02:14.91Z</time>
      </trkpt>
      <trkpt lat="45.92694" lon="4.65606">
        <ele>297.5</ele>
        <time>2016-02-26T10:02:16.057Z</time>
      </trkpt>
      <trkpt lat="45.92693" lon="4.65598">
        <ele>297.700012207</ele>
        <time>2016-02-26T10:02:16.952Z</time>
      </trkpt>
      <trkpt lat="45.92692" lon="4.65591">
        <ele>297.700012207</ele>
        <time>2016-02-26T10:02:17.917Z</time>
      </trkpt>
      <trkpt lat="45.92691" lon="4.65583">
        <ele>297.700012207</ele>
        <time>2016-02-26T10:02:18.919Z</time>
      </trkpt>
      <trkpt lat="45.9269" lon="4.65576">
        <ele>297.700012207</ele>
        <time>2016-02-26T10:02:19.925Z</time>
      </trkpt>
      <trkpt lat="45.92689" lon="4.65568">
        <ele>297.700012207</ele>
        <time>2016-02-26T10:02:20.908Z</time>
      </trkpt>
      <trkpt lat="45.92688" lon="4.65561">
        <ele>297.899993896</ele>
        <time>2016-02-26T10:02:21.9Z</time>
      </trkpt>
      <trkpt lat="45.92687" lon="4.65553">
        <ele>298</ele>
        <time>2016-02-26T10:02:22.879Z</time>
      </trkpt>
      <trkpt lat="45.92687" lon="4.65546">
        <ele>298</ele>
        <time>2016-02-26T10:02:23.902Z</time>
      </trkpt>
      <trkpt lat="45.92687" lon="4.65538">
        <ele>297.899993896</ele>
        <time>2016-02-26T10:02:24.881Z</time>
      </trkpt>
      <trkpt lat="45.92687" lon="4.65531">
        <ele>298</ele>
        <time>2016-02-26T10:02:25.921Z</time>
      </trkpt>
      <trkpt lat="45.92688" lon="4.65524">
        <ele>298.200012207</ele>
        <time>2016-02-26T10:02:26.88Z</time>
      </trkpt>
      <trkpt lat="45.92689" lon="4.65516">
        <ele>298.299987793</ele>
        <time>2016-02-26T10:02:27.9Z</time>
      </trkpt>
      <trkpt lat="45.9269" lon="4.65509">
        <ele>298.399993896</ele>
        <time>2016-02-26T10:02:28.879Z</time>
      </trkpt>
      <trkpt lat="45.92691" lon="4.65502">
        <ele>298.700012207</ele>
        <time>2016-02-26T10:02:29.898Z</time>
      </trkpt>
      <trkpt lat="45.92693" lon="4.65495">
        <ele>298.899993896</ele>
        <time>2016-02-26T10:02:30.882Z</time>
      </trkpt>
      <trkpt lat="45.92695" lon="4.6549">
        <ele>299.100006104</ele>
        <time>2016-02-26T10:02:31.912Z</time>
      </trkpt>
      <trkpt lat="45.92697" lon="4.65484">
        <ele>299.299987793</ele>
        <time>2016-02-26T10:02:32.879Z</time>
      </trkpt>
      <trkpt lat="45.92699" lon="4.65477">
        <ele>299.700012207</ele>
        <time>2016-02-26T10:02:33.9Z</time>
      </trkpt>
      <trkpt lat="45.92701" lon="4.65471">
        <ele>299.799987793</ele>
        <time>2016-02-26T10:02:34.879Z</time>
      </trkpt>
      <trkpt lat="45.92703" lon="4.65464">
        <ele>300</ele>
        <time>2016-02-26T10:02:35.915Z</time>
      </trkpt>
      <trkpt lat="45.92704" lon="4.65457">
        <ele>299.899993896</ele>
        <time>2016-02-26T10:02:36.881Z</time>
      </trkpt>
      <trkpt lat="45.92705" lon="4.6545">
        <ele>299.899993896</ele>
        <time>2016-02-26T10:02:37.9Z</time>
      </trkpt>
      <trkpt lat="45.92707" lon="4.65444">
        <ele>299.899993896</ele>
        <time>2016-02-26T10:02:38.882Z</time>
      </trkpt>
      <trkpt lat="45.9271" lon="4.65432">
        <ele>300.100006104</ele>
        <time>2016-02-26T10:02:40.924Z</time>
      </trkpt>
      <trkpt lat="45.92712" lon="4.65425">
        <ele>300.399993896</ele>
        <time>2016-02-26T10:02:41.882Z</time>
      </trkpt>
      <trkpt lat="45.92713" lon="4.65419">
        <ele>300.799987793</ele>
        <time>2016-02-26T10:02:42.901Z</time>
      </trkpt>
      <trkpt lat="45.92715" lon="4.65413">
        <ele>300.899993896</ele>
        <time>2016-02-26T10:02:43.879Z</time>
      </trkpt>
      <trkpt lat="45.92716" lon="4.65406">
        <ele>301.100006104</ele>
        <time>2016-02-26T10:02:44.907Z</time>
      </trkpt>
      <trkpt lat="45.92718" lon="4.654">
        <ele>301.399993896</ele>
        <time>2016-02-26T10:02:45.882Z</time>
      </trkpt>
      <trkpt lat="45.92721" lon="4.65388">
        <ele>301.799987793</ele>
        <time>2016-02-26T10:02:47.899Z</time>
      </trkpt>
      <trkpt lat="45.92722" lon="4.65382">
        <ele>302.100006104</ele>
        <time>2016-02-26T10:02:48.882Z</time>
      </trkpt>
      <trkpt lat="45.92725" lon="4.6537">
        <ele>302.299987793</ele>
        <time>2016-02-26T10:02:50.9Z</time>
      </trkpt>
      <trkpt lat="45.92727" lon="4.65365">
        <ele>302.5</ele>
        <time>2016-02-26T10:02:51.923Z</time>
      </trkpt>
      <trkpt lat="45.9273" lon="4.65354">
        <ele>302.799987793</ele>
        <time>2016-02-26T10:02:53.902Z</time>
      </trkpt>
      <trkpt lat="45.92732" lon="4.65348">
        <ele>302.899993896</ele>
        <time>2016-02-26T10:02:54.988Z</time>
      </trkpt>
      <trkpt lat="45.92733" lon="4.65335">
        <ele>302.5</ele>
        <time>2016-02-26T10:02:56.907Z</time>
      </trkpt>
      <trkpt lat="45.92734" lon="4.65329">
        <ele>302.299987793</ele>
        <time>2016-02-26T10:02:57.888Z</time>
      </trkpt>
      <trkpt lat="45.92737" lon="4.65317">
        <ele>301.899993896</ele>
        <time>2016-02-26T10:02:59.9Z</time>
      </trkpt>
      <trkpt lat="45.92739" lon="4.65311">
        <ele>301.600006104</ele>
        <time>2016-02-26T10:03:00.883Z</time>
      </trkpt>
      <trkpt lat="45.92741" lon="4.653">
        <ele>301.700012207</ele>
        <time>2016-02-26T10:03:02.905Z</time>
      </trkpt>
      <trkpt lat="45.92742" lon="4.65294">
        <ele>301.700012207</ele>
        <time>2016-02-26T10:03:03.879Z</time>
      </trkpt>
      <trkpt lat="45.92744" lon="4.65283">
        <ele>301.899993896</ele>
        <time>2016-02-26T10:03:05.898Z</time>
      </trkpt>
      <trkpt lat="45.92746" lon="4.65278">
        <ele>302.200012207</ele>
        <time>2016-02-26T10:03:06.898Z</time>
      </trkpt>
      <trkpt lat="45.92749" lon="4.65266">
        <ele>302.5</ele>
        <time>2016-02-26T10:03:08.901Z</time>
      </trkpt>
      <trkpt lat="45.92751" lon="4.65261">
        <ele>302.600006104</ele>
        <time>2016-02-26T10:03:09.879Z</time>
      </trkpt>
      <trkpt lat="45.92754" lon="4.6525">
        <ele>302.399993896</ele>
        <time>2016-02-26T10:03:11.9Z</time>
      </trkpt>
      <trkpt lat="45.92755" lon="4.65245">
        <ele>302.600006104</ele>
        <time>2016-02-26T10:03:12.88Z</time>
      </trkpt>
      <trkpt lat="45.92758" lon="4.65234">
        <ele>302.700012207</ele>
        <time>2016-02-26T10:03:14.922Z</time>
      </trkpt>
      <trkpt lat="45.92759" lon="4.65228">
        <ele>302.899993896</ele>
        <time>2016-02-26T10:03:15.876Z</time>
      </trkpt>
      <trkpt lat="45.92762" lon="4.65218">
        <ele>302.700012207</ele>
        <time>2016-02-26T10:03:17.907Z</time>
      </trkpt>
      <trkpt lat="45.92764" lon="4.65212">
        <ele>302.799987793</ele>
        <time>2016-02-26T10:03:18.882Z</time>
      </trkpt>
      <trkpt lat="45.92768" lon="4.65202">
        <ele>303.799987793</ele>
        <time>2016-02-26T10:03:20.901Z</time>
      </trkpt>
      <trkpt lat="45.92769" lon="4.65197">
        <ele>304.200012207</ele>
        <time>2016-02-26T10:03:21.879Z</time>
      </trkpt>
      <trkpt lat="45.92773" lon="4.65187">
        <ele>304.799987793</ele>
        <time>2016-02-26T10:03:23.9Z</time>
      </trkpt>
      <trkpt lat="45.92774" lon="4.65182">
        <ele>305</ele>
        <time>2016-02-26T10:03:24.883Z</time>
      </trkpt>
      <trkpt lat="45.92778" lon="4.65173">
        <ele>305.600006104</ele>
        <time>2016-02-26T10:03:26.898Z</time>
      </trkpt>
      <trkpt lat="45.9278" lon="4.65168">
        <ele>305.899993896</ele>
        <time>2016-02-26T10:03:27.879Z</time>
      </trkpt>
      <trkpt lat="45.92784" lon="4.65159">
        <ele>306.399993896</ele>
        <time>2016-02-26T10:03:29.9Z</time>
      </trkpt>
      <trkpt lat="45.92786" lon="4.65153">
        <ele>306.600006104</ele>
        <time>2016-02-26T10:03:30.882Z</time>
      </trkpt>
      <trkpt lat="45.9279" lon="4.65142">
        <ele>307.799987793</ele>
        <time>2016-02-26T10:03:32.919Z</time>
      </trkpt>
      <trkpt lat="45.92793" lon="4.65138">
        <ele>307.799987793</ele>
        <time>2016-02-26T10:03:33.878Z</time>
      </trkpt>
      <trkpt lat="45.92795" lon="4.65132">
        <ele>308.200012207</ele>
        <time>2016-02-26T10:03:34.903Z</time>
      </trkpt>
      <trkpt lat="45.92797" lon="4.65126">
        <ele>308.700012207</ele>
        <time>2016-02-26T10:03:35.879Z</time>
      </trkpt>
      <trkpt lat="45.928" lon="4.65116">
        <ele>309.399993896</ele>
        <time>2016-02-26T10:03:37.902Z</time>
      </trkpt>
      <trkpt lat="45.92802" lon="4.65111">
        <ele>309.600006104</ele>
        <time>2016-02-26T10:03:38.883Z</time>
      </trkpt>
      <trkpt lat="45.92805" lon="4.651">
        <ele>310.100006104</ele>
        <time>2016-02-26T10:03:40.921Z</time>
      </trkpt>
      <trkpt lat="45.92807" lon="4.65095">
        <ele>310.299987793</ele>
        <time>2016-02-26T10:03:41.879Z</time>
      </trkpt>
      <trkpt lat="45.92809" lon="4.65084">
        <ele>311</ele>
        <time>2016-02-26T10:03:43.901Z</time>
      </trkpt>
      <trkpt lat="45.92809" lon="4.65078">
        <ele>311.200012207</ele>
        <time>2016-02-26T10:03:44.881Z</time>
      </trkpt>
      <trkpt lat="45.92812" lon="4.65068">
        <ele>312.100006104</ele>
        <time>2016-02-26T10:03:46.899Z</time>
      </trkpt>
      <trkpt lat="45.92813" lon="4.65063">
        <ele>312.600006104</ele>
        <time>2016-02-26T10:03:47.879Z</time>
      </trkpt>
      <trkpt lat="45.92814" lon="4.65052">
        <ele>313.399993896</ele>
        <time>2016-02-26T10:03:49.901Z</time>
      </trkpt>
      <trkpt lat="45.92815" lon="4.65046">
        <ele>313.799987793</ele>
        <time>2016-02-26T10:03:50.879Z</time>
      </trkpt>
      <trkpt lat="45.92817" lon="4.65035">
        <ele>315</ele>
        <time>2016-02-26T10:03:52.9Z</time>
      </trkpt>
      <trkpt lat="45.92817" lon="4.65029">
        <ele>315.600006104</ele>
        <time>2016-02-26T10:03:53.877Z</time>
      </trkpt>
      <trkpt lat="45.92818" lon="4.65017">
        <ele>316.200012207</ele>
        <time>2016-02-26T10:03:55.898Z</time>
      </trkpt>
      <trkpt lat="45.92819" lon="4.65011">
        <ele>316.299987793</ele>
        <time>2016-02-26T10:03:56.878Z</time>
      </trkpt>
      <trkpt lat="45.9282" lon="4.64999">
        <ele>317</ele>
        <time>2016-02-26T10:03:58.9Z</time>
      </trkpt>
      <trkpt lat="45.92821" lon="4.64993">
        <ele>317.200012207</ele>
        <time>2016-02-26T10:03:59.876Z</time>
      </trkpt>
      <trkpt lat="45.92821" lon="4.64981">
        <ele>317.299987793</ele>
        <time>2016-02-26T10:04:01.9Z</time>
      </trkpt>
      <trkpt lat="45.92821" lon="4.64975">
        <ele>317.200012207</ele>
        <time>2016-02-26T10:04:02.892Z</time>
      </trkpt>
      <trkpt lat="45.92821" lon="4.64969">
        <ele>317.299987793</ele>
        <time>2016-02-26T10:04:03.902Z</time>
      </trkpt>
      <trkpt lat="45.92822" lon="4.64961">
        <ele>317.200012207</ele>
        <time>2016-02-26T10:04:04.897Z</time>
      </trkpt>
      <trkpt lat="45.92822" lon="4.64954">
        <ele>317.299987793</ele>
        <time>2016-02-26T10:04:05.899Z</time>
      </trkpt>
      <trkpt lat="45.92822" lon="4.64947">
        <ele>317.100006104</ele>
        <time>2016-02-26T10:04:06.88Z</time>
      </trkpt>
      <trkpt lat="45.92822" lon="4.64935">
        <ele>316.899993896</ele>
        <time>2016-02-26T10:04:08.897Z</time>
      </trkpt>
      <trkpt lat="45.92822" lon="4.64928">
        <ele>316.799987793</ele>
        <time>2016-02-26T10:04:09.879Z</time>
      </trkpt>
      <trkpt lat="45.92822" lon="4.64916">
        <ele>316.600006104</ele>
        <time>2016-02-26T10:04:11.934Z</time>
      </trkpt>
      <trkpt lat="45.92821" lon="4.64909">
        <ele>316.200012207</ele>
        <time>2016-02-26T10:04:12.883Z</time>
      </trkpt>
      <trkpt lat="45.92821" lon="4.64903">
        <ele>316</ele>
        <time>2016-02-26T10:04:13.898Z</time>
      </trkpt>
      <trkpt lat="45.92821" lon="4.64896">
        <ele>315.799987793</ele>
        <time>2016-02-26T10:04:14.88Z</time>
      </trkpt>
      <trkpt lat="45.92821" lon="4.64883">
        <ele>316.200012207</ele>
        <time>2016-02-26T10:04:16.9Z</time>
      </trkpt>
      <trkpt lat="45.92821" lon="4.64877">
        <ele>316.299987793</ele>
        <time>2016-02-26T10:04:17.879Z</time>
      </trkpt>
      <trkpt lat="45.92821" lon="4.64864">
        <ele>315.600006104</ele>
        <time>2016-02-26T10:04:19.9Z</time>
      </trkpt>
      <trkpt lat="45.92821" lon="4.64858">
        <ele>315.299987793</ele>
        <time>2016-02-26T10:04:20.878Z</time>
      </trkpt>
      <trkpt lat="45.9282" lon="4.64845">
        <ele>314.700012207</ele>
        <time>2016-02-26T10:04:22.897Z</time>
      </trkpt>
      <trkpt lat="45.9282" lon="4.64839">
        <ele>315.100006104</ele>
        <time>2016-02-26T10:04:23.879Z</time>
      </trkpt>
      <trkpt lat="45.9282" lon="4.64832">
        <ele>314.899993896</ele>
        <time>2016-02-26T10:04:24.9Z</time>
      </trkpt>
      <trkpt lat="45.9282" lon="4.64825">
        <ele>315</ele>
        <time>2016-02-26T10:04:25.919Z</time>
      </trkpt>
      <trkpt lat="45.92819" lon="4.64818">
        <ele>315</ele>
        <time>2016-02-26T10:04:26.959Z</time>
      </trkpt>
      <trkpt lat="45.92819" lon="4.64812">
        <ele>315.100006104</ele>
        <time>2016-02-26T10:04:27.888Z</time>
      </trkpt>
      <trkpt lat="45.92819" lon="4.64805">
        <ele>315</ele>
        <time>2016-02-26T10:04:28.907Z</time>
      </trkpt>
      <trkpt lat="45.92819" lon="4.64799">
        <ele>314.899993896</ele>
        <time>2016-02-26T10:04:29.88Z</time>
      </trkpt>
      <trkpt lat="45.92819" lon="4.64792">
        <ele>315</ele>
        <time>2016-02-26T10:04:30.964Z</time>
      </trkpt>
      <trkpt lat="45.92819" lon="4.64785">
        <ele>315.299987793</ele>
        <time>2016-02-26T10:04:31.927Z</time>
      </trkpt>
      <trkpt lat="45.92819" lon="4.64778">
        <ele>315.399993896</ele>
        <time>2016-02-26T10:04:32.9Z</time>
      </trkpt>
      <trkpt lat="45.92819" lon="4.64771">
        <ele>315.5</ele>
        <time>2016-02-26T10:04:33.88Z</time>
      </trkpt>
      <trkpt lat="45.92819" lon="4.64764">
        <ele>315.5</ele>
        <time>2016-02-26T10:04:34.901Z</time>
      </trkpt>
      <trkpt lat="45.92819" lon="4.64758">
        <ele>315.399993896</ele>
        <time>2016-02-26T10:04:35.881Z</time>
      </trkpt>
      <trkpt lat="45.92819" lon="4.64751">
        <ele>315.399993896</ele>
        <time>2016-02-26T10:04:36.903Z</time>
      </trkpt>
      <trkpt lat="45.92819" lon="4.64744">
        <ele>315.100006104</ele>
        <time>2016-02-26T10:04:37.877Z</time>
      </trkpt>
      <trkpt lat="45.92819" lon="4.64736">
        <ele>315.200012207</ele>
        <time>2016-02-26T10:04:38.899Z</time>
      </trkpt>
      <trkpt lat="45.92819" lon="4.64729">
        <ele>315.200012207</ele>
        <time>2016-02-26T10:04:39.88Z</time>
      </trkpt>
      <trkpt lat="45.92819" lon="4.64721">
        <ele>315.100006104</ele>
        <time>2016-02-26T10:04:40.898Z</time>
      </trkpt>
      <trkpt lat="45.92819" lon="4.64714">
        <ele>315.299987793</ele>
        <time>2016-02-26T10:04:41.879Z</time>
      </trkpt>
      <trkpt lat="45.92819" lon="4.64708">
        <ele>315.600006104</ele>
        <time>2016-02-26T10:04:42.903Z</time>
      </trkpt>
      <trkpt lat="45.92819" lon="4.64701">
        <ele>315.700012207</ele>
        <time>2016-02-26T10:04:43.876Z</time>
      </trkpt>
      <trkpt lat="45.92819" lon="4.64694">
        <ele>315.799987793</ele>
        <time>2016-02-26T10:04:44.9Z</time>
      </trkpt>
      <trkpt lat="45.92819" lon="4.64687">
        <ele>316</ele>
        <time>2016-02-26T10:04:46.011Z</time>
      </trkpt>
      <trkpt lat="45.92819" lon="4.64674">
        <ele>316</ele>
        <time>2016-02-26T10:04:47.9Z</time>
      </trkpt>
      <trkpt lat="45.92819" lon="4.64668">
        <ele>316.200012207</ele>
        <time>2016-02-26T10:04:48.882Z</time>
      </trkpt>
      <trkpt lat="45.92819" lon="4.64661">
        <ele>316.100006104</ele>
        <time>2016-02-26T10:04:49.898Z</time>
      </trkpt>
      <trkpt lat="45.92819" lon="4.64654">
        <ele>316.399993896</ele>
        <time>2016-02-26T10:04:50.879Z</time>
      </trkpt>
      <trkpt lat="45.92819" lon="4.64647">
        <ele>316.5</ele>
        <time>2016-02-26T10:04:51.979Z</time>
      </trkpt>
      <trkpt lat="45.92819" lon="4.64641">
        <ele>317</ele>
        <time>2016-02-26T10:04:52.88Z</time>
      </trkpt>
      <trkpt lat="45.92819" lon="4.64634">
        <ele>317.100006104</ele>
        <time>2016-02-26T10:04:53.921Z</time>
      </trkpt>
      <trkpt lat="45.92819" lon="4.64628">
        <ele>317.399993896</ele>
        <time>2016-02-26T10:04:54.887Z</time>
      </trkpt>
      <trkpt lat="45.92819" lon="4.64616">
        <ele>318.200012207</ele>
        <time>2016-02-26T10:04:56.9Z</time>
      </trkpt>
      <trkpt lat="45.92819" lon="4.64609">
        <ele>318.399993896</ele>
        <time>2016-02-26T10:04:57.879Z</time>
      </trkpt>
      <trkpt lat="45.92819" lon="4.64598">
        <ele>318.700012207</ele>
        <time>2016-02-26T10:04:59.9Z</time>
      </trkpt>
      <trkpt lat="45.92819" lon="4.64591">
        <ele>318.799987793</ele>
        <time>2016-02-26T10:05:00.878Z</time>
      </trkpt>
      <trkpt lat="45.92818" lon="4.64579">
        <ele>319.200012207</ele>
        <time>2016-02-26T10:05:02.901Z</time>
      </trkpt>
      <trkpt lat="45.92818" lon="4.64574">
        <ele>319.5</ele>
        <time>2016-02-26T10:05:03.878Z</time>
      </trkpt>
      <trkpt lat="45.92818" lon="4.64561">
        <ele>319.799987793</ele>
        <time>2016-02-26T10:05:05.898Z</time>
      </trkpt>
      <trkpt lat="45.92819" lon="4.64555">
        <ele>320</ele>
        <time>2016-02-26T10:05:06.882Z</time>
      </trkpt>
      <trkpt lat="45.92819" lon="4.64543">
        <ele>320.299987793</ele>
        <time>2016-02-26T10:05:08.9Z</time>
      </trkpt>
      <trkpt lat="45.92819" lon="4.64537">
        <ele>320.600006104</ele>
        <time>2016-02-26T10:05:09.879Z</time>
      </trkpt>
      <trkpt lat="45.92818" lon="4.64526">
        <ele>320.899993896</ele>
        <time>2016-02-26T10:05:11.897Z</time>
      </trkpt>
      <trkpt lat="45.92818" lon="4.6452">
        <ele>321.100006104</ele>
        <time>2016-02-26T10:05:12.882Z</time>
      </trkpt>
      <trkpt lat="45.92823" lon="4.6451">
        <ele>322</ele>
        <time>2016-02-26T10:05:15.903Z</time>
      </trkpt>
      <trkpt lat="45.92826" lon="4.64507">
        <ele>321.600006104</ele>
        <time>2016-02-26T10:05:16.88Z</time>
      </trkpt>
      <trkpt lat="45.92832" lon="4.64498">
        <ele>321.200012207</ele>
        <time>2016-02-26T10:05:18.903Z</time>
      </trkpt>
      <trkpt lat="45.92835" lon="4.64492">
        <ele>320.799987793</ele>
        <time>2016-02-26T10:05:19.881Z</time>
      </trkpt>
      <trkpt lat="45.92837" lon="4.64486">
        <ele>320.5</ele>
        <time>2016-02-26T10:05:20.903Z</time>
      </trkpt>
      <trkpt lat="45.92838" lon="4.6448">
        <ele>321</ele>
        <time>2016-02-26T10:05:21.95Z</time>
      </trkpt>
      <trkpt lat="45.92835" lon="4.64468">
        <ele>321</ele>
        <time>2016-02-26T10:05:23.908Z</time>
      </trkpt>
      <trkpt lat="45.92832" lon="4.64464">
        <ele>321.299987793</ele>
        <time>2016-02-26T10:05:24.878Z</time>
      </trkpt>
      <trkpt lat="45.92827" lon="4.64456">
        <ele>321.799987793</ele>
        <time>2016-02-26T10:05:26.933Z</time>
      </trkpt>
      <trkpt lat="45.92824" lon="4.64452">
        <ele>321.799987793</ele>
        <time>2016-02-26T10:05:27.877Z</time>
      </trkpt>
      <trkpt lat="45.9282" lon="4.64442">
        <ele>321.5</ele>
        <time>2016-02-26T10:05:29.899Z</time>
      </trkpt>
      <trkpt lat="45.92818" lon="4.64436">
        <ele>321.299987793</ele>
        <time>2016-02-26T10:05:30.929Z</time>
      </trkpt>
      <trkpt lat="45.92817" lon="4.64425">
        <ele>320.399993896</ele>
        <time>2016-02-26T10:05:32.902Z</time>
      </trkpt>
      <trkpt lat="45.92817" lon="4.64419">
        <ele>319.600006104</ele>
        <time>2016-02-26T10:05:33.922Z</time>
      </trkpt>
      <trkpt lat="45.92816" lon="4.64407">
        <ele>318.399993896</ele>
        <time>2016-02-26T10:05:35.998Z</time>
      </trkpt>
      <trkpt lat="45.92816" lon="4.64401">
        <ele>318.299987793</ele>
        <time>2016-02-26T10:05:36.883Z</time>
      </trkpt>
      <trkpt lat="45.92817" lon="4.64389">
        <ele>318.5</ele>
        <time>2016-02-26T10:05:38.906Z</time>
      </trkpt>
      <trkpt lat="45.92817" lon="4.64384">
        <ele>318.299987793</ele>
        <time>2016-02-26T10:05:39.881Z</time>
      </trkpt>
      <trkpt lat="45.92818" lon="4.64373">
        <ele>317.899993896</ele>
        <time>2016-02-26T10:05:41.897Z</time>
      </trkpt>
      <trkpt lat="45.9282" lon="4.64367">
        <ele>317.899993896</ele>
        <time>2016-02-26T10:05:42.884Z</time>
      </trkpt>
      <trkpt lat="45.92822" lon="4.64356">
        <ele>318.200012207</ele>
        <time>2016-02-26T10:05:44.901Z</time>
      </trkpt>
      <trkpt lat="45.92822" lon="4.6435">
        <ele>318.299987793</ele>
        <time>2016-02-26T10:05:45.914Z</time>
      </trkpt>
      <trkpt lat="45.92823" lon="4.64344">
        <ele>318.200012207</ele>
        <time>2016-02-26T10:05:46.905Z</time>
      </trkpt>
      <trkpt lat="45.92825" lon="4.64338">
        <ele>318.399993896</ele>
        <time>2016-02-26T10:05:47.876Z</time>
      </trkpt>
      <trkpt lat="45.92826" lon="4.64331">
        <ele>318.5</ele>
        <time>2016-02-26T10:05:48.902Z</time>
      </trkpt>
      <trkpt lat="45.92827" lon="4.64325">
        <ele>318.700012207</ele>
        <time>2016-02-26T10:05:49.881Z</time>
      </trkpt>
      <trkpt lat="45.92829" lon="4.64314">
        <ele>319</ele>
        <time>2016-02-26T10:05:51.897Z</time>
      </trkpt>
      <trkpt lat="45.92831" lon="4.64307">
        <ele>319.600006104</ele>
        <time>2016-02-26T10:05:52.877Z</time>
      </trkpt>
      <trkpt lat="45.92834" lon="4.64296">
        <ele>320.100006104</ele>
        <time>2016-02-26T10:05:54.919Z</time>
      </trkpt>
      <trkpt lat="45.92835" lon="4.6429">
        <ele>320.5</ele>
        <time>2016-02-26T10:05:55.876Z</time>
      </trkpt>
      <trkpt lat="45.92837" lon="4.64278">
        <ele>321</ele>
        <time>2016-02-26T10:05:57.899Z</time>
      </trkpt>
      <trkpt lat="45.92839" lon="4.64272">
        <ele>321.200012207</ele>
        <time>2016-02-26T10:05:58.88Z</time>
      </trkpt>
      <trkpt lat="45.92839" lon="4.64265">
        <ele>321.299987793</ele>
        <time>2016-02-26T10:05:59.916Z</time>
      </trkpt>
      <trkpt lat="45.92841" lon="4.64258">
        <ele>321.600006104</ele>
        <time>2016-02-26T10:06:00.88Z</time>
      </trkpt>
      <trkpt lat="45.92842" lon="4.64251">
        <ele>321.600006104</ele>
        <time>2016-02-26T10:06:01.898Z</time>
      </trkpt>
      <trkpt lat="45.92843" lon="4.64245">
        <ele>321.600006104</ele>
        <time>2016-02-26T10:06:02.881Z</time>
      </trkpt>
      <trkpt lat="45.92844" lon="4.64238">
        <ele>321.799987793</ele>
        <time>2016-02-26T10:06:03.901Z</time>
      </trkpt>
      <trkpt lat="45.92845" lon="4.6423">
        <ele>322.100006104</ele>
        <time>2016-02-26T10:06:04.879Z</time>
      </trkpt>
      <trkpt lat="45.92847" lon="4.64222">
        <ele>322.399993896</ele>
        <time>2016-02-26T10:06:05.898Z</time>
      </trkpt>
      <trkpt lat="45.92848" lon="4.64214">
        <ele>322.700012207</ele>
        <time>2016-02-26T10:06:06.881Z</time>
      </trkpt>
      <trkpt lat="45.92849" lon="4.64206">
        <ele>322.600006104</ele>
        <time>2016-02-26T10:06:07.9Z</time>
      </trkpt>
      <trkpt lat="45.92851" lon="4.64197">
        <ele>321.799987793</ele>
        <time>2016-02-26T10:06:08.882Z</time>
      </trkpt>
      <trkpt lat="45.92853" lon="4.64189">
        <ele>321.799987793</ele>
        <time>2016-02-26T10:06:09.9Z</time>
      </trkpt>
      <trkpt lat="45.92853" lon="4.6418">
        <ele>321.799987793</ele>
        <time>2016-02-26T10:06:10.877Z</time>
      </trkpt>
      <trkpt lat="45.92854" lon="4.64171">
        <ele>321.700012207</ele>
        <time>2016-02-26T10:06:11.898Z</time>
      </trkpt>
      <trkpt lat="45.92855" lon="4.64162">
        <ele>321.200012207</ele>
        <time>2016-02-26T10:06:12.978Z</time>
      </trkpt>
      <trkpt lat="45.92855" lon="4.64153">
        <ele>320.799987793</ele>
        <time>2016-02-26T10:06:13.901Z</time>
      </trkpt>
      <trkpt lat="45.92855" lon="4.64143">
        <ele>320.700012207</ele>
        <time>2016-02-26T10:06:14.888Z</time>
      </trkpt>
      <trkpt lat="45.92854" lon="4.64134">
        <ele>320.100006104</ele>
        <time>2016-02-26T10:06:15.932Z</time>
      </trkpt>
      <trkpt lat="45.92854" lon="4.64126">
        <ele>320</ele>
        <time>2016-02-26T10:06:16.879Z</time>
      </trkpt>
      <trkpt lat="45.92853" lon="4.64117">
        <ele>320</ele>
        <time>2016-02-26T10:06:17.898Z</time>
      </trkpt>
      <trkpt lat="45.92853" lon="4.64109">
        <ele>320.200012207</ele>
        <time>2016-02-26T10:06:18.918Z</time>
      </trkpt>
      <trkpt lat="45.92852" lon="4.641">
        <ele>320.299987793</ele>
        <time>2016-02-26T10:06:19.9Z</time>
      </trkpt>
      <trkpt lat="45.92853" lon="4.64092">
        <ele>320.5</ele>
        <time>2016-02-26T10:06:20.881Z</time>
      </trkpt>
      <trkpt lat="45.92853" lon="4.64084">
        <ele>320.299987793</ele>
        <time>2016-02-26T10:06:21.897Z</time>
      </trkpt>
      <trkpt lat="45.92853" lon="4.64076">
        <ele>320.200012207</ele>
        <time>2016-02-26T10:06:22.881Z</time>
      </trkpt>
      <trkpt lat="45.92853" lon="4.64069">
        <ele>320</ele>
        <time>2016-02-26T10:06:23.899Z</time>
      </trkpt>
      <trkpt lat="45.92853" lon="4.64062">
        <ele>320.200012207</ele>
        <time>2016-02-26T10:06:24.88Z</time>
      </trkpt>
      <trkpt lat="45.92853" lon="4.64055">
        <ele>320.200012207</ele>
        <time>2016-02-26T10:06:25.916Z</time>
      </trkpt>
      <trkpt lat="45.92853" lon="4.64047">
        <ele>320.399993896</ele>
        <time>2016-02-26T10:06:26.879Z</time>
      </trkpt>
      <trkpt lat="45.92852" lon="4.64035">
        <ele>320.600006104</ele>
        <time>2016-02-26T10:06:28.911Z</time>
      </trkpt>
      <trkpt lat="45.92851" lon="4.64029">
        <ele>320.799987793</ele>
        <time>2016-02-26T10:06:29.879Z</time>
      </trkpt>
      <trkpt lat="45.92849" lon="4.64017">
        <ele>321.399993896</ele>
        <time>2016-02-26T10:06:31.898Z</time>
      </trkpt>
      <trkpt lat="45.92848" lon="4.64012">
        <ele>321.5</ele>
        <time>2016-02-26T10:06:32.881Z</time>
      </trkpt>
      <trkpt lat="45.92846" lon="4.64002">
        <ele>321.700012207</ele>
        <time>2016-02-26T10:06:34.898Z</time>
      </trkpt>
      <trkpt lat="45.92845" lon="4.63998">
        <ele>321.799987793</ele>
        <time>2016-02-26T10:06:35.878Z</time>
      </trkpt>
      <trkpt lat="45.92844" lon="4.63989">
        <ele>321.899993896</ele>
        <time>2016-02-26T10:06:37.897Z</time>
      </trkpt>
      <trkpt lat="45.92843" lon="4.63984">
        <ele>322.100006104</ele>
        <time>2016-02-26T10:06:38.882Z</time>
      </trkpt>
      <trkpt lat="45.92841" lon="4.63976">
        <ele>322.799987793</ele>
        <time>2016-02-26T10:06:40.896Z</time>
      </trkpt>
      <trkpt lat="45.92841" lon="4.63971">
        <ele>323.100006104</ele>
        <time>2016-02-26T10:06:41.918Z</time>
      </trkpt>
      <trkpt lat="45.92841" lon="4.63961">
        <ele>323.299987793</ele>
        <time>2016-02-26T10:06:43.897Z</time>
      </trkpt>
      <trkpt lat="45.92841" lon="4.63956">
        <ele>323.5</ele>
        <time>2016-02-26T10:06:44.879Z</time>
      </trkpt>
      <trkpt lat="45.92842" lon="4.63945">
        <ele>323.5</ele>
        <time>2016-02-26T10:06:46.896Z</time>
      </trkpt>
      <trkpt lat="45.92843" lon="4.6394">
        <ele>323.399993896</ele>
        <time>2016-02-26T10:06:47.876Z</time>
      </trkpt>
      <trkpt lat="45.92845" lon="4.63928">
        <ele>323.799987793</ele>
        <time>2016-02-26T10:06:49.896Z</time>
      </trkpt>
      <trkpt lat="45.92847" lon="4.63922">
        <ele>323.700012207</ele>
        <time>2016-02-26T10:06:50.876Z</time>
      </trkpt>
      <trkpt lat="45.9285" lon="4.63911">
        <ele>323.5</ele>
        <time>2016-02-26T10:06:52.913Z</time>
      </trkpt>
      <trkpt lat="45.92853" lon="4.63906">
        <ele>323.299987793</ele>
        <time>2016-02-26T10:06:53.877Z</time>
      </trkpt>
      <trkpt lat="45.92855" lon="4.639">
        <ele>323.700012207</ele>
        <time>2016-02-26T10:06:54.899Z</time>
      </trkpt>
      <trkpt lat="45.92857" lon="4.63894">
        <ele>323.700012207</ele>
        <time>2016-02-26T10:06:55.875Z</time>
      </trkpt>
      <trkpt lat="45.92859" lon="4.63888">
        <ele>323.700012207</ele>
        <time>2016-02-26T10:06:56.896Z</time>
      </trkpt>
      <trkpt lat="45.92861" lon="4.63881">
        <ele>324</ele>
        <time>2016-02-26T10:06:57.878Z</time>
      </trkpt>
      <trkpt lat="45.92864" lon="4.63875">
        <ele>324.399993896</ele>
        <time>2016-02-26T10:06:58.895Z</time>
      </trkpt>
      <trkpt lat="45.92866" lon="4.63869">
        <ele>324.899993896</ele>
        <time>2016-02-26T10:06:59.876Z</time>
      </trkpt>
      <trkpt lat="45.9287" lon="4.63859">
        <ele>325</ele>
        <time>2016-02-26T10:07:01.898Z</time>
      </trkpt>
      <trkpt lat="45.92872" lon="4.63853">
        <ele>324.899993896</ele>
        <time>2016-02-26T10:07:02.879Z</time>
      </trkpt>
      <trkpt lat="45.92875" lon="4.63841">
        <ele>324.299987793</ele>
        <time>2016-02-26T10:07:04.899Z</time>
      </trkpt>
      <trkpt lat="45.92876" lon="4.63835">
        <ele>324.299987793</ele>
        <time>2016-02-26T10:07:05.877Z</time>
      </trkpt>
      <trkpt lat="45.92877" lon="4.63828">
        <ele>323.700012207</ele>
        <time>2016-02-26T10:07:06.899Z</time>
      </trkpt>
      <trkpt lat="45.92879" lon="4.63821">
        <ele>323.600006104</ele>
        <time>2016-02-26T10:07:07.924Z</time>
      </trkpt>
      <trkpt lat="45.9288" lon="4.63814">
        <ele>322.899993896</ele>
        <time>2016-02-26T10:07:08.899Z</time>
      </trkpt>
      <trkpt lat="45.9288" lon="4.63807">
        <ele>322.399993896</ele>
        <time>2016-02-26T10:07:09.878Z</time>
      </trkpt>
      <trkpt lat="45.9288" lon="4.63798">
        <ele>321.899993896</ele>
        <time>2016-02-26T10:07:10.902Z</time>
      </trkpt>
      <trkpt lat="45.9288" lon="4.6379">
        <ele>321.5</ele>
        <time>2016-02-26T10:07:11.879Z</time>
      </trkpt>
      <trkpt lat="45.92879" lon="4.63781">
        <ele>321.200012207</ele>
        <time>2016-02-26T10:07:12.907Z</time>
      </trkpt>
      <trkpt lat="45.92877" lon="4.63772">
        <ele>320.600006104</ele>
        <time>2016-02-26T10:07:13.877Z</time>
      </trkpt>
      <trkpt lat="45.92876" lon="4.63763">
        <ele>320.299987793</ele>
        <time>2016-02-26T10:07:14.899Z</time>
      </trkpt>
      <trkpt lat="45.92874" lon="4.63754">
        <ele>319.899993896</ele>
        <time>2016-02-26T10:07:15.875Z</time>
      </trkpt>
      <trkpt lat="45.92871" lon="4.63746">
        <ele>319.899993896</ele>
        <time>2016-02-26T10:07:16.901Z</time>
      </trkpt>
      <trkpt lat="45.92868" lon="4.6374">
        <ele>320.100006104</ele>
        <time>2016-02-26T10:07:17.879Z</time>
      </trkpt>
      <trkpt lat="45.92864" lon="4.63734">
        <ele>320.399993896</ele>
        <time>2016-02-26T10:07:19.022Z</time>
      </trkpt>
      <trkpt lat="45.92861" lon="4.6373">
        <ele>320.799987793</ele>
        <time>2016-02-26T10:07:19.876Z</time>
      </trkpt>
      <trkpt lat="45.92857" lon="4.63726">
        <ele>321.200012207</ele>
        <time>2016-02-26T10:07:20.899Z</time>
      </trkpt>
      <trkpt lat="45.92854" lon="4.63721">
        <ele>321.899993896</ele>
        <time>2016-02-26T10:07:21.879Z</time>
      </trkpt>
      <trkpt lat="45.92848" lon="4.63712">
        <ele>323.399993896</ele>
        <time>2016-02-26T10:07:23.896Z</time>
      </trkpt>
      <trkpt lat="45.92845" lon="4.63708">
        <ele>324.100006104</ele>
        <time>2016-02-26T10:07:24.901Z</time>
      </trkpt>
      <trkpt lat="45.92841" lon="4.637">
        <ele>324.700012207</ele>
        <time>2016-02-26T10:07:26.897Z</time>
      </trkpt>
      <trkpt lat="45.92838" lon="4.63696">
        <ele>324.5</ele>
        <time>2016-02-26T10:07:27.877Z</time>
      </trkpt>
      <trkpt lat="45.92834" lon="4.63688">
        <ele>324.200012207</ele>
        <time>2016-02-26T10:07:29.9Z</time>
      </trkpt>
      <trkpt lat="45.92831" lon="4.63685">
        <ele>324.5</ele>
        <time>2016-02-26T10:07:30.884Z</time>
      </trkpt>
      <trkpt lat="45.92827" lon="4.63679">
        <ele>325.700012207</ele>
        <time>2016-02-26T10:07:32.9Z</time>
      </trkpt>
      <trkpt lat="45.92824" lon="4.63676">
        <ele>326.299987793</ele>
        <time>2016-02-26T10:07:33.879Z</time>
      </trkpt>
      <trkpt lat="45.9282" lon="4.63669">
        <ele>326.200012207</ele>
        <time>2016-02-26T10:07:35.896Z</time>
      </trkpt>
      <trkpt lat="45.92818" lon="4.63665">
        <ele>326.100006104</ele>
        <time>2016-02-26T10:07:36.88Z</time>
      </trkpt>
      <trkpt lat="45.92813" lon="4.63657">
        <ele>326.100006104</ele>
        <time>2016-02-26T10:07:38.897Z</time>
      </trkpt>
      <trkpt lat="45.92811" lon="4.63653">
        <ele>326.200012207</ele>
        <time>2016-02-26T10:07:39.877Z</time>
      </trkpt>
      <trkpt lat="45.92806" lon="4.63645">
        <ele>326.700012207</ele>
        <time>2016-02-26T10:07:41.898Z</time>
      </trkpt>
      <trkpt lat="45.92804" lon="4.63642">
        <ele>326.799987793</ele>
        <time>2016-02-26T10:07:42.88Z</time>
      </trkpt>
      <trkpt lat="45.92799" lon="4.63635">
        <ele>327.299987793</ele>
        <time>2016-02-26T10:07:44.897Z</time>
      </trkpt>
      <trkpt lat="45.92796" lon="4.63631">
        <ele>327.799987793</ele>
        <time>2016-02-26T10:07:45.879Z</time>
      </trkpt>
      <trkpt lat="45.92789" lon="4.63624">
        <ele>328.700012207</ele>
        <time>2016-02-26T10:07:47.896Z</time>
      </trkpt>
      <trkpt lat="45.92786" lon="4.63621">
        <ele>329</ele>
        <time>2016-02-26T10:07:48.88Z</time>
      </trkpt>
      <trkpt lat="45.92781" lon="4.63616">
        <ele>329.700012207</ele>
        <time>2016-02-26T10:07:50.898Z</time>
      </trkpt>
      <trkpt lat="45.92778" lon="4.63613">
        <ele>329.700012207</ele>
        <time>2016-02-26T10:07:51.875Z</time>
      </trkpt>
      <trkpt lat="45.92773" lon="4.63604">
        <ele>328.799987793</ele>
        <time>2016-02-26T10:07:53.896Z</time>
      </trkpt>
      <trkpt lat="45.92771" lon="4.636">
        <ele>329</ele>
        <time>2016-02-26T10:07:54.877Z</time>
      </trkpt>
      <trkpt lat="45.92769" lon="4.6359">
        <ele>328.899993896</ele>
        <time>2016-02-26T10:07:56.954Z</time>
      </trkpt>
      <trkpt lat="45.92768" lon="4.63585">
        <ele>328.5</ele>
        <time>2016-02-26T10:07:57.877Z</time>
      </trkpt>
      <trkpt lat="45.92767" lon="4.63575">
        <ele>328.600006104</ele>
        <time>2016-02-26T10:07:59.909Z</time>
      </trkpt>
      <trkpt lat="45.92768" lon="4.6357">
        <ele>328.799987793</ele>
        <time>2016-02-26T10:08:00.878Z</time>
      </trkpt>
      <trkpt lat="45.92767" lon="4.63559">
        <ele>328.100006104</ele>
        <time>2016-02-26T10:08:02.904Z</time>
      </trkpt>
      <trkpt lat="45.92766" lon="4.63554">
        <ele>327.700012207</ele>
        <time>2016-02-26T10:08:03.877Z</time>
      </trkpt>
      <trkpt lat="45.92766" lon="4.63543">
        <ele>327.299987793</ele>
        <time>2016-02-26T10:08:05.896Z</time>
      </trkpt>
      <trkpt lat="45.92766" lon="4.63537">
        <ele>327.399993896</ele>
        <time>2016-02-26T10:08:06.878Z</time>
      </trkpt>
      <trkpt lat="45.92766" lon="4.63527">
        <ele>327.600006104</ele>
        <time>2016-02-26T10:08:08.897Z</time>
      </trkpt>
      <trkpt lat="45.92766" lon="4.63521">
        <ele>328.299987793</ele>
        <time>2016-02-26T10:08:09.905Z</time>
      </trkpt>
      <trkpt lat="45.92766" lon="4.63511">
        <ele>329</ele>
        <time>2016-02-26T10:08:11.921Z</time>
      </trkpt>
      <trkpt lat="45.92767" lon="4.63506">
        <ele>329.200012207</ele>
        <time>2016-02-26T10:08:12.878Z</time>
      </trkpt>
      <trkpt lat="45.92767" lon="4.63496">
        <ele>329.600006104</ele>
        <time>2016-02-26T10:08:14.937Z</time>
      </trkpt>
      <trkpt lat="45.92767" lon="4.63491">
        <ele>329.700012207</ele>
        <time>2016-02-26T10:08:15.877Z</time>
      </trkpt>
      <trkpt lat="45.92768" lon="4.63481">
        <ele>329.600006104</ele>
        <time>2016-02-26T10:08:17.896Z</time>
      </trkpt>
      <trkpt lat="45.92768" lon="4.63475">
        <ele>329.600006104</ele>
        <time>2016-02-26T10:08:18.878Z</time>
      </trkpt>
      <trkpt lat="45.92768" lon="4.63465">
        <ele>329.700012207</ele>
        <time>2016-02-26T10:08:20.896Z</time>
      </trkpt>
      <trkpt lat="45.92768" lon="4.63459">
        <ele>329.799987793</ele>
        <time>2016-02-26T10:08:21.877Z</time>
      </trkpt>
      <trkpt lat="45.92767" lon="4.63449">
        <ele>330.100006104</ele>
        <time>2016-02-26T10:08:23.895Z</time>
      </trkpt>
      <trkpt lat="45.92767" lon="4.63444">
        <ele>330</ele>
        <time>2016-02-26T10:08:24.881Z</time>
      </trkpt>
      <trkpt lat="45.92766" lon="4.63435">
        <ele>329.899993896</ele>
        <time>2016-02-26T10:08:26.897Z</time>
      </trkpt>
      <trkpt lat="45.92766" lon="4.6343">
        <ele>330</ele>
        <time>2016-02-26T10:08:27.875Z</time>
      </trkpt>
      <trkpt lat="45.92765" lon="4.63421">
        <ele>330.299987793</ele>
        <time>2016-02-26T10:08:29.896Z</time>
      </trkpt>
      <trkpt lat="45.92764" lon="4.63416">
        <ele>330.5</ele>
        <time>2016-02-26T10:08:30.881Z</time>
      </trkpt>
      <trkpt lat="45.92763" lon="4.63406">
        <ele>330.600006104</ele>
        <time>2016-02-26T10:08:32.915Z</time>
      </trkpt>
      <trkpt lat="45.92763" lon="4.63401">
        <ele>330.600006104</ele>
        <time>2016-02-26T10:08:33.867Z</time>
      </trkpt>
      <trkpt lat="45.92761" lon="4.63391">
        <ele>330.600006104</ele>
        <time>2016-02-26T10:08:35.896Z</time>
      </trkpt>
      <trkpt lat="45.92761" lon="4.63385">
        <ele>330.600006104</ele>
        <time>2016-02-26T10:08:36.877Z</time>
      </trkpt>
      <trkpt lat="45.9276" lon="4.63375">
        <ele>330.799987793</ele>
        <time>2016-02-26T10:08:38.897Z</time>
      </trkpt>
      <trkpt lat="45.9276" lon="4.6337">
        <ele>330.799987793</ele>
        <time>2016-02-26T10:08:39.875Z</time>
      </trkpt>
      <trkpt lat="45.92759" lon="4.63359">
        <ele>330.899993896</ele>
        <time>2016-02-26T10:08:41.895Z</time>
      </trkpt>
      <trkpt lat="45.92759" lon="4.63354">
        <ele>331</ele>
        <time>2016-02-26T10:08:42.878Z</time>
      </trkpt>
      <trkpt lat="45.92758" lon="4.63343">
        <ele>330.899993896</ele>
        <time>2016-02-26T10:08:44.898Z</time>
      </trkpt>
      <trkpt lat="45.92758" lon="4.63338">
        <ele>330.899993896</ele>
        <time>2016-02-26T10:08:45.877Z</time>
      </trkpt>
      <trkpt lat="45.92757" lon="4.63327">
        <ele>331</ele>
        <time>2016-02-26T10:08:47.897Z</time>
      </trkpt>
      <trkpt lat="45.92756" lon="4.63322">
        <ele>331.100006104</ele>
        <time>2016-02-26T10:08:48.88Z</time>
      </trkpt>
      <trkpt lat="45.92756" lon="4.63313">
        <ele>331.200012207</ele>
        <time>2016-02-26T10:08:50.897Z</time>
      </trkpt>
      <trkpt lat="45.92756" lon="4.63308">
        <ele>331.100006104</ele>
        <time>2016-02-26T10:08:51.875Z</time>
      </trkpt>
      <trkpt lat="45.92756" lon="4.63298">
        <ele>331.399993896</ele>
        <time>2016-02-26T10:08:53.912Z</time>
      </trkpt>
      <trkpt lat="45.92756" lon="4.63292">
        <ele>331.399993896</ele>
        <time>2016-02-26T10:08:54.9Z</time>
      </trkpt>
      <trkpt lat="45.92755" lon="4.63281">
        <ele>332</ele>
        <time>2016-02-26T10:08:56.896Z</time>
      </trkpt>
      <trkpt lat="45.92754" lon="4.63276">
        <ele>332</ele>
        <time>2016-02-26T10:08:57.879Z</time>
      </trkpt>
      <trkpt lat="45.92754" lon="4.63265">
        <ele>332.399993896</ele>
        <time>2016-02-26T10:08:59.907Z</time>
      </trkpt>
      <trkpt lat="45.92754" lon="4.63259">
        <ele>332.600006104</ele>
        <time>2016-02-26T10:09:00.878Z</time>
      </trkpt>
      <trkpt lat="45.92755" lon="4.63248">
        <ele>332.899993896</ele>
        <time>2016-02-26T10:09:02.897Z</time>
      </trkpt>
      <trkpt lat="45.92755" lon="4.63242">
        <ele>332.799987793</ele>
        <time>2016-02-26T10:09:03.875Z</time>
      </trkpt>
      <trkpt lat="45.92755" lon="4.63232">
        <ele>333.299987793</ele>
        <time>2016-02-26T10:09:05.896Z</time>
      </trkpt>
      <trkpt lat="45.92755" lon="4.63226">
        <ele>333.399993896</ele>
        <time>2016-02-26T10:09:06.877Z</time>
      </trkpt>
      <trkpt lat="45.92756" lon="4.63216">
        <ele>334</ele>
        <time>2016-02-26T10:09:08.895Z</time>
      </trkpt>
      <trkpt lat="45.92757" lon="4.63211">
        <ele>334.399993896</ele>
        <time>2016-02-26T10:09:09.899Z</time>
      </trkpt>
      <trkpt lat="45.92758" lon="4.63201">
        <ele>334.799987793</ele>
        <time>2016-02-26T10:09:11.896Z</time>
      </trkpt>
      <trkpt lat="45.92759" lon="4.63197">
        <ele>335.100006104</ele>
        <time>2016-02-26T10:09:12.88Z</time>
      </trkpt>
      <trkpt lat="45.92759" lon="4.63187">
        <ele>335</ele>
        <time>2016-02-26T10:09:14.93Z</time>
      </trkpt>
      <trkpt lat="45.92759" lon="4.63182">
        <ele>334.899993896</ele>
        <time>2016-02-26T10:09:15.875Z</time>
      </trkpt>
      <trkpt lat="45.9276" lon="4.63172">
        <ele>335.100006104</ele>
        <time>2016-02-26T10:09:17.898Z</time>
      </trkpt>
      <trkpt lat="45.9276" lon="4.63168">
        <ele>335.100006104</ele>
        <time>2016-02-26T10:09:18.88Z</time>
      </trkpt>
      <trkpt lat="45.92761" lon="4.63158">
        <ele>335.399993896</ele>
        <time>2016-02-26T10:09:20.9Z</time>
      </trkpt>
      <trkpt lat="45.92761" lon="4.63153">
        <ele>335.799987793</ele>
        <time>2016-02-26T10:09:21.877Z</time>
      </trkpt>
      <trkpt lat="45.92763" lon="4.63143">
        <ele>335.600006104</ele>
        <time>2016-02-26T10:09:23.896Z</time>
      </trkpt>
      <trkpt lat="45.92763" lon="4.63139">
        <ele>335.700012207</ele>
        <time>2016-02-26T10:09:24.88Z</time>
      </trkpt>
      <trkpt lat="45.92765" lon="4.63129">
        <ele>335.5</ele>
        <time>2016-02-26T10:09:26.897Z</time>
      </trkpt>
      <trkpt lat="45.92765" lon="4.63124">
        <ele>335.299987793</ele>
        <time>2016-02-26T10:09:27.875Z</time>
      </trkpt>
      <trkpt lat="45.92765" lon="4.63115">
        <ele>335.100006104</ele>
        <time>2016-02-26T10:09:29.896Z</time>
      </trkpt>
      <trkpt lat="45.92766" lon="4.6311">
        <ele>334.899993896</ele>
        <time>2016-02-26T10:09:30.878Z</time>
      </trkpt>
      <trkpt lat="45.92768" lon="4.63101">
        <ele>334.799987793</ele>
        <time>2016-02-26T10:09:32.896Z</time>
      </trkpt>
      <trkpt lat="45.92769" lon="4.63097">
        <ele>335</ele>
        <time>2016-02-26T10:09:33.877Z</time>
      </trkpt>
      <trkpt lat="45.92769" lon="4.63087">
        <ele>335.5</ele>
        <time>2016-02-26T10:09:35.913Z</time>
      </trkpt>
      <trkpt lat="45.92769" lon="4.63082">
        <ele>335</ele>
        <time>2016-02-26T10:09:36.878Z</time>
      </trkpt>
      <trkpt lat="45.9277" lon="4.63073">
        <ele>335.200012207</ele>
        <time>2016-02-26T10:09:38.897Z</time>
      </trkpt>
      <trkpt lat="45.9277" lon="4.63069">
        <ele>335.399993896</ele>
        <time>2016-02-26T10:09:39.898Z</time>
      </trkpt>
      <trkpt lat="45.92771" lon="4.6306">
        <ele>335.899993896</ele>
        <time>2016-02-26T10:09:41.897Z</time>
      </trkpt>
      <trkpt lat="45.92771" lon="4.63056">
        <ele>336.100006104</ele>
        <time>2016-02-26T10:09:42.877Z</time>
      </trkpt>
      <trkpt lat="45.92771" lon="4.63046">
        <ele>336.600006104</ele>
        <time>2016-02-26T10:09:44.902Z</time>
      </trkpt>
      <trkpt lat="45.92771" lon="4.63042">
        <ele>336.899993896</ele>
        <time>2016-02-26T10:09:45.878Z</time>
      </trkpt>
      <trkpt lat="45.92772" lon="4.63033">
        <ele>337</ele>
        <time>2016-02-26T10:09:47.896Z</time>
      </trkpt>
      <trkpt lat="45.92772" lon="4.63028">
        <ele>337.399993896</ele>
        <time>2016-02-26T10:09:48.879Z</time>
      </trkpt>
      <trkpt lat="45.92772" lon="4.63018">
        <ele>338</ele>
        <time>2016-02-26T10:09:50.903Z</time>
      </trkpt>
      <trkpt lat="45.92771" lon="4.63014">
        <ele>338.399993896</ele>
        <time>2016-02-26T10:09:51.877Z</time>
      </trkpt>
      <trkpt lat="45.92771" lon="4.63004">
        <ele>338.200012207</ele>
        <time>2016-02-26T10:09:53.896Z</time>
      </trkpt>
      <trkpt lat="45.92771" lon="4.62999">
        <ele>338.399993896</ele>
        <time>2016-02-26T10:09:54.881Z</time>
      </trkpt>
      <trkpt lat="45.9277" lon="4.6299">
        <ele>338.899993896</ele>
        <time>2016-02-26T10:09:56.914Z</time>
      </trkpt>
      <trkpt lat="45.9277" lon="4.62986">
        <ele>339</ele>
        <time>2016-02-26T10:09:57.877Z</time>
      </trkpt>
      <trkpt lat="45.92769" lon="4.62977">
        <ele>339.100006104</ele>
        <time>2016-02-26T10:09:59.896Z</time>
      </trkpt>
      <trkpt lat="45.9277" lon="4.62972">
        <ele>339.200012207</ele>
        <time>2016-02-26T10:10:00.881Z</time>
      </trkpt>
      <trkpt lat="45.92769" lon="4.62963">
        <ele>339.299987793</ele>
        <time>2016-02-26T10:10:02.897Z</time>
      </trkpt>
      <trkpt lat="45.92769" lon="4.62959">
        <ele>339.399993896</ele>
        <time>2016-02-26T10:10:03.875Z</time>
      </trkpt>
      <trkpt lat="45.92769" lon="4.6295">
        <ele>339.200012207</ele>
        <time>2016-02-26T10:10:05.896Z</time>
      </trkpt>
      <trkpt lat="45.92769" lon="4.62945">
        <ele>339.299987793</ele>
        <time>2016-02-26T10:10:06.877Z</time>
      </trkpt>
      <trkpt lat="45.92769" lon="4.62932">
        <ele>340.600006104</ele>
        <time>2016-02-26T10:10:09.896Z</time>
      </trkpt>
      <trkpt lat="45.9277" lon="4.62928">
        <ele>341.5</ele>
        <time>2016-02-26T10:10:10.875Z</time>
      </trkpt>
      <trkpt lat="45.9277" lon="4.62915">
        <ele>343</ele>
        <time>2016-02-26T10:10:13.904Z</time>
      </trkpt>
      <trkpt lat="45.9277" lon="4.62911">
        <ele>343.200012207</ele>
        <time>2016-02-26T10:10:14.878Z</time>
      </trkpt>
      <trkpt lat="45.92769" lon="4.62902">
        <ele>343.799987793</ele>
        <time>2016-02-26T10:10:16.911Z</time>
      </trkpt>
      <trkpt lat="45.92769" lon="4.62898">
        <ele>344</ele>
        <time>2016-02-26T10:10:17.902Z</time>
      </trkpt>
      <trkpt lat="45.9277" lon="4.62885">
        <ele>345.100006104</ele>
        <time>2016-02-26T10:10:20.896Z</time>
      </trkpt>
      <trkpt lat="45.9277" lon="4.62881">
        <ele>345.299987793</ele>
        <time>2016-02-26T10:10:21.877Z</time>
      </trkpt>
      <trkpt lat="45.9277" lon="4.62869">
        <ele>345.399993896</ele>
        <time>2016-02-26T10:10:24.919Z</time>
      </trkpt>
      <trkpt lat="45.9277" lon="4.62865">
        <ele>345.299987793</ele>
        <time>2016-02-26T10:10:25.877Z</time>
      </trkpt>
      <trkpt lat="45.92771" lon="4.62852">
        <ele>345.899993896</ele>
        <time>2016-02-26T10:10:28.905Z</time>
      </trkpt>
      <trkpt lat="45.92771" lon="4.62848">
        <ele>346.100006104</ele>
        <time>2016-02-26T10:10:29.875Z</time>
      </trkpt>
      <trkpt lat="45.92771" lon="4.62837">
        <ele>346.799987793</ele>
        <time>2016-02-26T10:10:32.895Z</time>
      </trkpt>
      <trkpt lat="45.92771" lon="4.62834">
        <ele>347.5</ele>
        <time>2016-02-26T10:10:33.875Z</time>
      </trkpt>
      <trkpt lat="45.92771" lon="4.62823">
        <ele>347.700012207</ele>
        <time>2016-02-26T10:10:36.924Z</time>
      </trkpt>
      <trkpt lat="45.92772" lon="4.6282">
        <ele>347.700012207</ele>
        <time>2016-02-26T10:10:37.876Z</time>
      </trkpt>
      <trkpt lat="45.92771" lon="4.62809">
        <ele>348.100006104</ele>
        <time>2016-02-26T10:10:40.905Z</time>
      </trkpt>
      <trkpt lat="45.92771" lon="4.62806">
        <ele>348.299987793</ele>
        <time>2016-02-26T10:10:41.876Z</time>
      </trkpt>
      <trkpt lat="45.92768" lon="4.62795">
        <ele>348.399993896</ele>
        <time>2016-02-26T10:10:44.898Z</time>
      </trkpt>
      <trkpt lat="45.92768" lon="4.62792">
        <ele>348.700012207</ele>
        <time>2016-02-26T10:10:45.971Z</time>
      </trkpt>
      <trkpt lat="45.92764" lon="4.6278">
        <ele>351.100006104</ele>
        <time>2016-02-26T10:10:49.948Z</time>
      </trkpt>
      <trkpt lat="45.92762" lon="4.62777">
        <ele>351.700012207</ele>
        <time>2016-02-26T10:10:50.926Z</time>
      </trkpt>
      <trkpt lat="45.92759" lon="4.62768">
        <ele>352.100006104</ele>
        <time>2016-02-26T10:10:53.895Z</time>
      </trkpt>
      <trkpt lat="45.92758" lon="4.62765">
        <ele>352.600006104</ele>
        <time>2016-02-26T10:10:54.877Z</time>
      </trkpt>
      <trkpt lat="45.92753" lon="4.62756">
        <ele>353.5</ele>
        <time>2016-02-26T10:10:57.896Z</time>
      </trkpt>
      <trkpt lat="45.92752" lon="4.62753">
        <ele>353.399993896</ele>
        <time>2016-02-26T10:10:58.875Z</time>
      </trkpt>
      <trkpt lat="45.9275" lon="4.62743">
        <ele>353.399993896</ele>
        <time>2016-02-26T10:11:01.896Z</time>
      </trkpt>
      <trkpt lat="45.92749" lon="4.62739">
        <ele>353.200012207</ele>
        <time>2016-02-26T10:11:02.875Z</time>
      </trkpt>
      <trkpt lat="45.92747" lon="4.62727">
        <ele>353.600006104</ele>
        <time>2016-02-26T10:11:06.901Z</time>
      </trkpt>
      <trkpt lat="45.92746" lon="4.62724">
        <ele>353.600006104</ele>
        <time>2016-02-26T10:11:07.875Z</time>
      </trkpt>
      <trkpt lat="45.92745" lon="4.62714">
        <ele>353.399993896</ele>
        <time>2016-02-26T10:11:10.903Z</time>
      </trkpt>
      <trkpt lat="45.92745" lon="4.6271">
        <ele>353.5</ele>
        <time>2016-02-26T10:11:11.873Z</time>
      </trkpt>
      <trkpt lat="45.92745" lon="4.627">
        <ele>353.899993896</ele>
        <time>2016-02-26T10:11:14.909Z</time>
      </trkpt>
      <trkpt lat="45.92745" lon="4.62697">
        <ele>353.899993896</ele>
        <time>2016-02-26T10:11:15.873Z</time>
      </trkpt>
      <trkpt lat="45.92745" lon="4.62687">
        <ele>353.799987793</ele>
        <time>2016-02-26T10:11:18.897Z</time>
      </trkpt>
      <trkpt lat="45.92746" lon="4.62684">
        <ele>353.600006104</ele>
        <time>2016-02-26T10:11:19.873Z</time>
      </trkpt>
      <trkpt lat="45.92745" lon="4.62673">
        <ele>354.100006104</ele>
        <time>2016-02-26T10:11:22.894Z</time>
      </trkpt>
      <trkpt lat="45.92745" lon="4.6267">
        <ele>354.399993896</ele>
        <time>2016-02-26T10:11:23.873Z</time>
      </trkpt>
      <trkpt lat="45.92744" lon="4.62658">
        <ele>355</ele>
        <time>2016-02-26T10:11:27.894Z</time>
      </trkpt>
      <trkpt lat="45.92743" lon="4.62655">
        <ele>355.100006104</ele>
        <time>2016-02-26T10:11:28.876Z</time>
      </trkpt>
      <trkpt lat="45.92742" lon="4.62646">
        <ele>355.299987793</ele>
        <time>2016-02-26T10:11:31.893Z</time>
      </trkpt>
      <trkpt lat="45.92741" lon="4.62642">
        <ele>355.5</ele>
        <time>2016-02-26T10:11:32.874Z</time>
      </trkpt>
      <trkpt lat="45.92739" lon="4.62632">
        <ele>355.5</ele>
        <time>2016-02-26T10:11:35.917Z</time>
      </trkpt>
      <trkpt lat="45.92738" lon="4.62629">
        <ele>355.5</ele>
        <time>2016-02-26T10:11:36.875Z</time>
      </trkpt>
      <trkpt lat="45.92737" lon="4.62618">
        <ele>355</ele>
        <time>2016-02-26T10:11:39.903Z</time>
      </trkpt>
      <trkpt lat="45.92736" lon="4.62615">
        <ele>355.200012207</ele>
        <time>2016-02-26T10:11:40.873Z</time>
      </trkpt>
      <trkpt lat="45.92736" lon="4.62603">
        <ele>357.799987793</ele>
        <time>2016-02-26T10:11:44.894Z</time>
      </trkpt>
      <trkpt lat="45.92736" lon="4.62599">
        <ele>358.299987793</ele>
        <time>2016-02-26T10:11:45.875Z</time>
      </trkpt>
      <trkpt lat="45.92735" lon="4.62587">
        <ele>359.700012207</ele>
        <time>2016-02-26T10:11:49.896Z</time>
      </trkpt>
      <trkpt lat="45.92734" lon="4.62584">
        <ele>359.700012207</ele>
        <time>2016-02-26T10:11:50.876Z</time>
      </trkpt>
      <trkpt lat="45.92734" lon="4.62571">
        <ele>360.700012207</ele>
        <time>2016-02-26T10:11:55.096Z</time>
      </trkpt>
      <trkpt lat="45.92734" lon="4.62567">
        <ele>360.700012207</ele>
        <time>2016-02-26T10:11:55.873Z</time>
      </trkpt>
      <trkpt lat="45.92733" lon="4.62555">
        <ele>362.200012207</ele>
        <time>2016-02-26T10:11:59.901Z</time>
      </trkpt>
      <trkpt lat="45.92733" lon="4.62551">
        <ele>362.5</ele>
        <time>2016-02-26T10:12:00.918Z</time>
      </trkpt>
      <trkpt lat="45.92733" lon="4.62539">
        <ele>362.799987793</ele>
        <time>2016-02-26T10:12:04.894Z</time>
      </trkpt>
      <trkpt lat="45.92733" lon="4.62536">
        <ele>362.899993896</ele>
        <time>2016-02-26T10:12:05.873Z</time>
      </trkpt>
      <trkpt lat="45.92732" lon="4.62524">
        <ele>364.200012207</ele>
        <time>2016-02-26T10:12:09.896Z</time>
      </trkpt>
      <trkpt lat="45.92732" lon="4.6252">
        <ele>364.299987793</ele>
        <time>2016-02-26T10:12:10.873Z</time>
      </trkpt>
      <trkpt lat="45.92732" lon="4.6251">
        <ele>364.600006104</ele>
        <time>2016-02-26T10:12:13.894Z</time>
      </trkpt>
      <trkpt lat="45.92732" lon="4.62507">
        <ele>364.399993896</ele>
        <time>2016-02-26T10:12:14.875Z</time>
      </trkpt>
      <trkpt lat="45.92731" lon="4.62497">
        <ele>364.100006104</ele>
        <time>2016-02-26T10:12:17.894Z</time>
      </trkpt>
      <trkpt lat="45.92731" lon="4.62494">
        <ele>364.100006104</ele>
        <time>2016-02-26T10:12:18.878Z</time>
      </trkpt>
      <trkpt lat="45.92732" lon="4.62483">
        <ele>363.899993896</ele>
        <time>2016-02-26T10:12:21.894Z</time>
      </trkpt>
      <trkpt lat="45.92732" lon="4.62479">
        <ele>364.100006104</ele>
        <time>2016-02-26T10:12:22.871Z</time>
      </trkpt>
      <trkpt lat="45.92732" lon="4.62467">
        <ele>365.600006104</ele>
        <time>2016-02-26T10:12:26.899Z</time>
      </trkpt>
      <trkpt lat="45.92732" lon="4.62463">
        <ele>365.799987793</ele>
        <time>2016-02-26T10:12:27.895Z</time>
      </trkpt>
      <trkpt lat="45.92732" lon="4.62453">
        <ele>367</ele>
        <time>2016-02-26T10:12:30.896Z</time>
      </trkpt>
      <trkpt lat="45.92732" lon="4.6245">
        <ele>367.100006104</ele>
        <time>2016-02-26T10:12:31.873Z</time>
      </trkpt>
      <trkpt lat="45.92732" lon="4.6244">
        <ele>368.200012207</ele>
        <time>2016-02-26T10:12:34.912Z</time>
      </trkpt>
      <trkpt lat="45.92731" lon="4.62436">
        <ele>368.299987793</ele>
        <time>2016-02-26T10:12:35.87Z</time>
      </trkpt>
      <trkpt lat="45.92731" lon="4.62426">
        <ele>368.399993896</ele>
        <time>2016-02-26T10:12:38.896Z</time>
      </trkpt>
      <trkpt lat="45.92731" lon="4.62422">
        <ele>368.600006104</ele>
        <time>2016-02-26T10:12:39.948Z</time>
      </trkpt>
      <trkpt lat="45.92732" lon="4.62411">
        <ele>368.799987793</ele>
        <time>2016-02-26T10:12:42.896Z</time>
      </trkpt>
      <trkpt lat="45.92733" lon="4.62408">
        <ele>368.799987793</ele>
        <time>2016-02-26T10:12:43.873Z</time>
      </trkpt>
      <trkpt lat="45.92732" lon="4.62397">
        <ele>368.5</ele>
        <time>2016-02-26T10:12:46.912Z</time>
      </trkpt>
      <trkpt lat="45.92731" lon="4.62393">
        <ele>368.600006104</ele>
        <time>2016-02-26T10:12:47.87Z</time>
      </trkpt>
      <trkpt lat="45.9273" lon="4.62381">
        <ele>369.100006104</ele>
        <time>2016-02-26T10:12:50.894Z</time>
      </trkpt>
      <trkpt lat="45.9273" lon="4.62377">
        <ele>369.299987793</ele>
        <time>2016-02-26T10:12:51.874Z</time>
      </trkpt>
      <trkpt lat="45.92729" lon="4.62365">
        <ele>369.899993896</ele>
        <time>2016-02-26T10:12:54.896Z</time>
      </trkpt>
      <trkpt lat="45.92729" lon="4.62361">
        <ele>370</ele>
        <time>2016-02-26T10:12:55.873Z</time>
      </trkpt>
      <trkpt lat="45.92727" lon="4.62352">
        <ele>370</ele>
        <time>2016-02-26T10:12:58.911Z</time>
      </trkpt>
      <trkpt lat="45.92726" lon="4.62349">
        <ele>370.200012207</ele>
        <time>2016-02-26T10:12:59.87Z</time>
      </trkpt>
      <trkpt lat="45.92723" lon="4.62339">
        <ele>370.899993896</ele>
        <time>2016-02-26T10:13:02.894Z</time>
      </trkpt>
      <trkpt lat="45.92722" lon="4.62336">
        <ele>371</ele>
        <time>2016-02-26T10:13:03.874Z</time>
      </trkpt>
      <trkpt lat="45.92719" lon="4.62325">
        <ele>371.5</ele>
        <time>2016-02-26T10:13:06.896Z</time>
      </trkpt>
      <trkpt lat="45.92718" lon="4.62321">
        <ele>371.5</ele>
        <time>2016-02-26T10:13:07.874Z</time>
      </trkpt>
      <trkpt lat="45.92715" lon="4.62311">
        <ele>371.799987793</ele>
        <time>2016-02-26T10:13:10.894Z</time>
      </trkpt>
      <trkpt lat="45.92714" lon="4.62307">
        <ele>371.799987793</ele>
        <time>2016-02-26T10:13:11.873Z</time>
      </trkpt>
      <trkpt lat="45.92712" lon="4.62296">
        <ele>372.399993896</ele>
        <time>2016-02-26T10:13:14.896Z</time>
      </trkpt>
      <trkpt lat="45.92711" lon="4.62291">
        <ele>372.399993896</ele>
        <time>2016-02-26T10:13:15.873Z</time>
      </trkpt>
      <trkpt lat="45.92709" lon="4.62283">
        <ele>372.399993896</ele>
        <time>2016-02-26T10:13:17.893Z</time>
      </trkpt>
      <trkpt lat="45.92708" lon="4.62278">
        <ele>372.399993896</ele>
        <time>2016-02-26T10:13:18.881Z</time>
      </trkpt>
      <trkpt lat="45.92707" lon="4.62266">
        <ele>372.5</ele>
        <time>2016-02-26T10:13:21.894Z</time>
      </trkpt>
      <trkpt lat="45.92706" lon="4.62262">
        <ele>372.399993896</ele>
        <time>2016-02-26T10:13:22.87Z</time>
      </trkpt>
      <trkpt lat="45.92706" lon="4.62252">
        <ele>372.299987793</ele>
        <time>2016-02-26T10:13:24.935Z</time>
      </trkpt>
      <trkpt lat="45.92705" lon="4.62247">
        <ele>372.399993896</ele>
        <time>2016-02-26T10:13:25.875Z</time>
      </trkpt>
      <trkpt lat="45.92704" lon="4.62238">
        <ele>372.600006104</ele>
        <time>2016-02-26T10:13:27.894Z</time>
      </trkpt>
      <trkpt lat="45.92704" lon="4.62234">
        <ele>372.600006104</ele>
        <time>2016-02-26T10:13:28.875Z</time>
      </trkpt>
      <trkpt lat="45.92702" lon="4.62225">
        <ele>372.700012207</ele>
        <time>2016-02-26T10:13:30.896Z</time>
      </trkpt>
      <trkpt lat="45.92702" lon="4.6222">
        <ele>372.899993896</ele>
        <time>2016-02-26T10:13:31.87Z</time>
      </trkpt>
      <trkpt lat="45.927" lon="4.62211">
        <ele>372.799987793</ele>
        <time>2016-02-26T10:13:33.897Z</time>
      </trkpt>
      <trkpt lat="45.927" lon="4.62206">
        <ele>372.700012207</ele>
        <time>2016-02-26T10:13:34.87Z</time>
      </trkpt>
      <trkpt lat="45.92698" lon="4.62196">
        <ele>372.799987793</ele>
        <time>2016-02-26T10:13:36.896Z</time>
      </trkpt>
      <trkpt lat="45.92697" lon="4.62191">
        <ele>372.799987793</ele>
        <time>2016-02-26T10:13:37.87Z</time>
      </trkpt>
      <trkpt lat="45.92696" lon="4.62182">
        <ele>372.799987793</ele>
        <time>2016-02-26T10:13:39.894Z</time>
      </trkpt>
      <trkpt lat="45.92695" lon="4.62178">
        <ele>372.899993896</ele>
        <time>2016-02-26T10:13:40.875Z</time>
      </trkpt>
      <trkpt lat="45.92694" lon="4.62169">
        <ele>372.899993896</ele>
        <time>2016-02-26T10:13:42.896Z</time>
      </trkpt>
      <trkpt lat="45.92693" lon="4.62164">
        <ele>373</ele>
        <time>2016-02-26T10:13:43.875Z</time>
      </trkpt>
      <trkpt lat="45.92692" lon="4.62154">
        <ele>373</ele>
        <time>2016-02-26T10:13:45.914Z</time>
      </trkpt>
      <trkpt lat="45.92692" lon="4.62149">
        <ele>373</ele>
        <time>2016-02-26T10:13:46.873Z</time>
      </trkpt>
      <trkpt lat="45.92693" lon="4.62137">
        <ele>372.700012207</ele>
        <time>2016-02-26T10:13:48.897Z</time>
      </trkpt>
      <trkpt lat="45.92693" lon="4.62131">
        <ele>372.600006104</ele>
        <time>2016-02-26T10:13:49.87Z</time>
      </trkpt>
      <trkpt lat="45.92693" lon="4.62119">
        <ele>372.5</ele>
        <time>2016-02-26T10:13:51.893Z</time>
      </trkpt>
      <trkpt lat="45.92694" lon="4.62113">
        <ele>372.299987793</ele>
        <time>2016-02-26T10:13:52.873Z</time>
      </trkpt>
      <trkpt lat="45.92696" lon="4.62103">
        <ele>372.200012207</ele>
        <time>2016-02-26T10:13:54.896Z</time>
      </trkpt>
      <trkpt lat="45.92697" lon="4.62097">
        <ele>372.100006104</ele>
        <time>2016-02-26T10:13:55.872Z</time>
      </trkpt>
      <trkpt lat="45.92699" lon="4.62086">
        <ele>371.600006104</ele>
        <time>2016-02-26T10:13:57.892Z</time>
      </trkpt>
      <trkpt lat="45.927" lon="4.6208">
        <ele>371.399993896</ele>
        <time>2016-02-26T10:13:58.87Z</time>
      </trkpt>
      <trkpt lat="45.92704" lon="4.62069">
        <ele>371</ele>
        <time>2016-02-26T10:14:00.899Z</time>
      </trkpt>
      <trkpt lat="45.92706" lon="4.62063">
        <ele>370.799987793</ele>
        <time>2016-02-26T10:14:01.876Z</time>
      </trkpt>
      <trkpt lat="45.9271" lon="4.62052">
        <ele>370.600006104</ele>
        <time>2016-02-26T10:14:03.951Z</time>
      </trkpt>
      <trkpt lat="45.92712" lon="4.62047">
        <ele>370.600006104</ele>
        <time>2016-02-26T10:14:04.875Z</time>
      </trkpt>
      <trkpt lat="45.92715" lon="4.62041">
        <ele>370.399993896</ele>
        <time>2016-02-26T10:14:05.908Z</time>
      </trkpt>
      <trkpt lat="45.92717" lon="4.62035">
        <ele>370.100006104</ele>
        <time>2016-02-26T10:14:06.891Z</time>
      </trkpt>
      <trkpt lat="45.92719" lon="4.62029">
        <ele>370</ele>
        <time>2016-02-26T10:14:07.895Z</time>
      </trkpt>
      <trkpt lat="45.92722" lon="4.62023">
        <ele>370.399993896</ele>
        <time>2016-02-26T10:14:08.876Z</time>
      </trkpt>
      <trkpt lat="45.92724" lon="4.62017">
        <ele>370.299987793</ele>
        <time>2016-02-26T10:14:09.915Z</time>
      </trkpt>
      <trkpt lat="45.92727" lon="4.62012">
        <ele>370.200012207</ele>
        <time>2016-02-26T10:14:10.878Z</time>
      </trkpt>
      <trkpt lat="45.92731" lon="4.62">
        <ele>370</ele>
        <time>2016-02-26T10:14:12.897Z</time>
      </trkpt>
      <trkpt lat="45.92733" lon="4.61995">
        <ele>369.799987793</ele>
        <time>2016-02-26T10:14:13.873Z</time>
      </trkpt>
      <trkpt lat="45.92738" lon="4.61985">
        <ele>370.100006104</ele>
        <time>2016-02-26T10:14:15.893Z</time>
      </trkpt>
      <trkpt lat="45.9274" lon="4.6198">
        <ele>370.200012207</ele>
        <time>2016-02-26T10:14:16.87Z</time>
      </trkpt>
      <trkpt lat="45.92744" lon="4.61971">
        <ele>370.200012207</ele>
        <time>2016-02-26T10:14:18.898Z</time>
      </trkpt>
      <trkpt lat="45.92747" lon="4.61966">
        <ele>370.100006104</ele>
        <time>2016-02-26T10:14:19.873Z</time>
      </trkpt>
      <trkpt lat="45.92749" lon="4.6196">
        <ele>370.100006104</ele>
        <time>2016-02-26T10:14:20.895Z</time>
      </trkpt>
      <trkpt lat="45.92751" lon="4.61954">
        <ele>370.100006104</ele>
        <time>2016-02-26T10:14:21.87Z</time>
      </trkpt>
      <trkpt lat="45.92754" lon="4.61948">
        <ele>370.200012207</ele>
        <time>2016-02-26T10:14:22.894Z</time>
      </trkpt>
      <trkpt lat="45.92756" lon="4.61943">
        <ele>370</ele>
        <time>2016-02-26T10:14:23.873Z</time>
      </trkpt>
      <trkpt lat="45.92759" lon="4.61937">
        <ele>369.799987793</ele>
        <time>2016-02-26T10:14:24.901Z</time>
      </trkpt>
      <trkpt lat="45.92761" lon="4.61931">
        <ele>369.799987793</ele>
        <time>2016-02-26T10:14:25.874Z</time>
      </trkpt>
      <trkpt lat="45.92763" lon="4.61921">
        <ele>369.5</ele>
        <time>2016-02-26T10:14:27.959Z</time>
      </trkpt>
      <trkpt lat="45.92764" lon="4.61916">
        <ele>369.100006104</ele>
        <time>2016-02-26T10:14:28.874Z</time>
      </trkpt>
      <trkpt lat="45.92764" lon="4.61905">
        <ele>369.200012207</ele>
        <time>2016-02-26T10:14:30.945Z</time>
      </trkpt>
      <trkpt lat="45.92764" lon="4.61899">
        <ele>369.100006104</ele>
        <time>2016-02-26T10:14:31.87Z</time>
      </trkpt>
      <trkpt lat="45.92764" lon="4.61888">
        <ele>369</ele>
        <time>2016-02-26T10:14:33.896Z</time>
      </trkpt>
      <trkpt lat="45.92763" lon="4.61883">
        <ele>369.200012207</ele>
        <time>2016-02-26T10:14:34.873Z</time>
      </trkpt>
      <trkpt lat="45.92763" lon="4.61872">
        <ele>369.399993896</ele>
        <time>2016-02-26T10:14:36.901Z</time>
      </trkpt>
      <trkpt lat="45.92763" lon="4.61868">
        <ele>369.5</ele>
        <time>2016-02-26T10:14:37.876Z</time>
      </trkpt>
      <trkpt lat="45.92761" lon="4.61855">
        <ele>369.600006104</ele>
        <time>2016-02-26T10:14:40.894Z</time>
      </trkpt>
      <trkpt lat="45.92759" lon="4.6185">
        <ele>370</ele>
        <time>2016-02-26T10:14:41.87Z</time>
      </trkpt>
      <trkpt lat="45.92758" lon="4.61841">
        <ele>370.200012207</ele>
        <time>2016-02-26T10:14:43.896Z</time>
      </trkpt>
      <trkpt lat="45.92758" lon="4.61836">
        <ele>370.399993896</ele>
        <time>2016-02-26T10:14:44.875Z</time>
      </trkpt>
      <trkpt lat="45.92758" lon="4.61824">
        <ele>371.200012207</ele>
        <time>2016-02-26T10:14:47.903Z</time>
      </trkpt>
      <trkpt lat="45.92759" lon="4.6182">
        <ele>371.299987793</ele>
        <time>2016-02-26T10:14:48.88Z</time>
      </trkpt>
      <trkpt lat="45.92762" lon="4.61811">
        <ele>371.399993896</ele>
        <time>2016-02-26T10:14:51.989Z</time>
      </trkpt>
      <trkpt lat="45.92763" lon="4.61808">
        <ele>371.399993896</ele>
        <time>2016-02-26T10:14:52.87Z</time>
      </trkpt>
      <trkpt lat="45.92765" lon="4.61795">
        <ele>370.200012207</ele>
        <time>2016-02-26T10:14:56.907Z</time>
      </trkpt>
      <trkpt lat="45.92766" lon="4.61792">
        <ele>370.299987793</ele>
        <time>2016-02-26T10:14:57.87Z</time>
      </trkpt>
      <trkpt lat="45.92769" lon="4.61782">
        <ele>371.200012207</ele>
        <time>2016-02-26T10:15:01.895Z</time>
      </trkpt>
      <trkpt lat="45.9277" lon="4.6178">
        <ele>371.299987793</ele>
        <time>2016-02-26T10:15:02.918Z</time>
      </trkpt>
      <trkpt lat="45.92774" lon="4.61769">
        <ele>371.899993896</ele>
        <time>2016-02-26T10:15:06.897Z</time>
      </trkpt>
      <trkpt lat="45.92776" lon="4.61767">
        <ele>372</ele>
        <time>2016-02-26T10:15:07.867Z</time>
      </trkpt>
      <trkpt lat="45.9278" lon="4.61759">
        <ele>373.200012207</ele>
        <time>2016-02-26T10:15:11.895Z</time>
      </trkpt>
      <trkpt lat="45.92782" lon="4.61757">
        <ele>373.399993896</ele>
        <time>2016-02-26T10:15:12.875Z</time>
      </trkpt>
      <trkpt lat="45.92788" lon="4.61748">
        <ele>374.5</ele>
        <time>2016-02-26T10:15:16.895Z</time>
      </trkpt>
      <trkpt lat="45.92789" lon="4.61745">
        <ele>375</ele>
        <time>2016-02-26T10:15:17.897Z</time>
      </trkpt>
      <trkpt lat="45.92794" lon="4.61738">
        <ele>377.299987793</ele>
        <time>2016-02-26T10:15:20.894Z</time>
      </trkpt>
      <trkpt lat="45.92795" lon="4.61735">
        <ele>377.600006104</ele>
        <time>2016-02-26T10:15:21.872Z</time>
      </trkpt>
      <trkpt lat="45.92797" lon="4.61726">
        <ele>378</ele>
        <time>2016-02-26T10:15:24.897Z</time>
      </trkpt>
      <trkpt lat="45.92798" lon="4.61722">
        <ele>378.299987793</ele>
        <time>2016-02-26T10:15:25.873Z</time>
      </trkpt>
      <trkpt lat="45.928" lon="4.61711">
        <ele>378.200012207</ele>
        <time>2016-02-26T10:15:28.898Z</time>
      </trkpt>
      <trkpt lat="45.928" lon="4.61708">
        <ele>378.299987793</ele>
        <time>2016-02-26T10:15:29.875Z</time>
      </trkpt>
      <trkpt lat="45.92799" lon="4.61695">
        <ele>379</ele>
        <time>2016-02-26T10:15:33.9Z</time>
      </trkpt>
      <trkpt lat="45.92799" lon="4.61692">
        <ele>379.399993896</ele>
        <time>2016-02-26T10:15:34.893Z</time>
      </trkpt>
      <trkpt lat="45.92797" lon="4.61682">
        <ele>380.399993896</ele>
        <time>2016-02-26T10:15:37.895Z</time>
      </trkpt>
      <trkpt lat="45.92797" lon="4.61679">
        <ele>380.299987793</ele>
        <time>2016-02-26T10:15:38.878Z</time>
      </trkpt>
      <trkpt lat="45.92794" lon="4.61669">
        <ele>380.5</ele>
        <time>2016-02-26T10:15:41.896Z</time>
      </trkpt>
      <trkpt lat="45.92793" lon="4.61665">
        <ele>380.600006104</ele>
        <time>2016-02-26T10:15:42.875Z</time>
      </trkpt>
      <trkpt lat="45.9279" lon="4.61655">
        <ele>380.899993896</ele>
        <time>2016-02-26T10:15:45.927Z</time>
      </trkpt>
      <trkpt lat="45.92788" lon="4.61652">
        <ele>381</ele>
        <time>2016-02-26T10:15:46.87Z</time>
      </trkpt>
      <trkpt lat="45.92784" lon="4.61643">
        <ele>381.399993896</ele>
        <time>2016-02-26T10:15:49.896Z</time>
      </trkpt>
      <trkpt lat="45.92782" lon="4.61641">
        <ele>381.700012207</ele>
        <time>2016-02-26T10:15:50.873Z</time>
      </trkpt>
      <trkpt lat="45.92778" lon="4.61633">
        <ele>382.700012207</ele>
        <time>2016-02-26T10:15:53.896Z</time>
      </trkpt>
      <trkpt lat="45.92777" lon="4.6163">
        <ele>382.899993896</ele>
        <time>2016-02-26T10:15:54.876Z</time>
      </trkpt>
      <trkpt lat="45.92771" lon="4.61621">
        <ele>383</ele>
        <time>2016-02-26T10:15:57.892Z</time>
      </trkpt>
      <trkpt lat="45.92769" lon="4.61619">
        <ele>383.200012207</ele>
        <time>2016-02-26T10:15:58.87Z</time>
      </trkpt>
      <trkpt lat="45.92763" lon="4.61612">
        <ele>383.600006104</ele>
        <time>2016-02-26T10:16:01.896Z</time>
      </trkpt>
      <trkpt lat="45.92761" lon="4.61609">
        <ele>383.700012207</ele>
        <time>2016-02-26T10:16:02.876Z</time>
      </trkpt>
      <trkpt lat="45.92756" lon="4.61601">
        <ele>384.100006104</ele>
        <time>2016-02-26T10:16:05.898Z</time>
      </trkpt>
      <trkpt lat="45.92755" lon="4.61599">
        <ele>384.5</ele>
        <time>2016-02-26T10:16:06.877Z</time>
      </trkpt>
      <trkpt lat="45.9275" lon="4.61591">
        <ele>385.5</ele>
        <time>2016-02-26T10:16:09.902Z</time>
      </trkpt>
      <trkpt lat="45.92748" lon="4.61588">
        <ele>385.700012207</ele>
        <time>2016-02-26T10:16:10.874Z</time>
      </trkpt>
      <trkpt lat="45.92744" lon="4.61581">
        <ele>386.200012207</ele>
        <time>2016-02-26T10:16:13.906Z</time>
      </trkpt>
      <trkpt lat="45.92742" lon="4.61578">
        <ele>386.5</ele>
        <time>2016-02-26T10:16:14.874Z</time>
      </trkpt>
      <trkpt lat="45.92738" lon="4.6157">
        <ele>387.299987793</ele>
        <time>2016-02-26T10:16:17.894Z</time>
      </trkpt>
      <trkpt lat="45.92736" lon="4.61567">
        <ele>387.5</ele>
        <time>2016-02-26T10:16:18.878Z</time>
      </trkpt>
      <trkpt lat="45.92732" lon="4.61558">
        <ele>388.299987793</ele>
        <time>2016-02-26T10:16:21.895Z</time>
      </trkpt>
      <trkpt lat="45.9273" lon="4.61556">
        <ele>388.399993896</ele>
        <time>2016-02-26T10:16:22.89Z</time>
      </trkpt>
      <trkpt lat="45.92724" lon="4.61548">
        <ele>388.5</ele>
        <time>2016-02-26T10:16:25.893Z</time>
      </trkpt>
      <trkpt lat="45.92723" lon="4.61545">
        <ele>388.700012207</ele>
        <time>2016-02-26T10:16:26.893Z</time>
      </trkpt>
      <trkpt lat="45.92719" lon="4.61535">
        <ele>389.200012207</ele>
        <time>2016-02-26T10:16:29.893Z</time>
      </trkpt>
      <trkpt lat="45.92717" lon="4.61533">
        <ele>389.5</ele>
        <time>2016-02-26T10:16:30.878Z</time>
      </trkpt>
      <trkpt lat="45.9271" lon="4.61525">
        <ele>389.5</ele>
        <time>2016-02-26T10:16:34.902Z</time>
      </trkpt>
      <trkpt lat="45.92709" lon="4.61521">
        <ele>389.5</ele>
        <time>2016-02-26T10:16:35.877Z</time>
      </trkpt>
      <trkpt lat="45.92705" lon="4.61513">
        <ele>390.299987793</ele>
        <time>2016-02-26T10:16:38.896Z</time>
      </trkpt>
      <trkpt lat="45.92703" lon="4.61511">
        <ele>390.600006104</ele>
        <time>2016-02-26T10:16:39.869Z</time>
      </trkpt>
      <trkpt lat="45.92699" lon="4.61501">
        <ele>392.600006104</ele>
        <time>2016-02-26T10:16:43.895Z</time>
      </trkpt>
      <trkpt lat="45.92697" lon="4.61499">
        <ele>392.899993896</ele>
        <time>2016-02-26T10:16:44.875Z</time>
      </trkpt>
      <trkpt lat="45.92691" lon="4.6149">
        <ele>394</ele>
        <time>2016-02-26T10:16:48.918Z</time>
      </trkpt>
      <trkpt lat="45.92691" lon="4.61487">
        <ele>394</ele>
        <time>2016-02-26T10:16:49.87Z</time>
      </trkpt>
      <trkpt lat="45.92687" lon="4.61479">
        <ele>394.600006104</ele>
        <time>2016-02-26T10:16:52.979Z</time>
      </trkpt>
      <trkpt lat="45.92685" lon="4.61477">
        <ele>394.600006104</ele>
        <time>2016-02-26T10:16:53.87Z</time>
      </trkpt>
      <trkpt lat="45.9268" lon="4.61466">
        <ele>394</ele>
        <time>2016-02-26T10:16:57.897Z</time>
      </trkpt>
      <trkpt lat="45.92679" lon="4.61463">
        <ele>394.100006104</ele>
        <time>2016-02-26T10:16:58.87Z</time>
      </trkpt>
      <trkpt lat="45.92675" lon="4.61455">
        <ele>394.700012207</ele>
        <time>2016-02-26T10:17:01.896Z</time>
      </trkpt>
      <trkpt lat="45.92673" lon="4.61452">
        <ele>395.299987793</ele>
        <time>2016-02-26T10:17:02.873Z</time>
      </trkpt>
      <trkpt lat="45.92669" lon="4.61444">
        <ele>396.299987793</ele>
        <time>2016-02-26T10:17:05.893Z</time>
      </trkpt>
      <trkpt lat="45.92667" lon="4.61441">
        <ele>396.200012207</ele>
        <time>2016-02-26T10:17:06.875Z</time>
      </trkpt>
      <trkpt lat="45.92661" lon="4.61433">
        <ele>398.299987793</ele>
        <time>2016-02-26T10:17:10.895Z</time>
      </trkpt>
      <trkpt lat="45.9266" lon="4.6143">
        <ele>398.799987793</ele>
        <time>2016-02-26T10:17:11.869Z</time>
      </trkpt>
      <trkpt lat="45.92655" lon="4.61423">
        <ele>399.5</ele>
        <time>2016-02-26T10:17:14.979Z</time>
      </trkpt>
      <trkpt lat="45.92654" lon="4.6142">
        <ele>399.700012207</ele>
        <time>2016-02-26T10:17:15.87Z</time>
      </trkpt>
      <trkpt lat="45.9265" lon="4.6141">
        <ele>399.899993896</ele>
        <time>2016-02-26T10:17:18.95Z</time>
      </trkpt>
      <trkpt lat="45.92649" lon="4.61407">
        <ele>399.5</ele>
        <time>2016-02-26T10:17:19.877Z</time>
      </trkpt>
      <trkpt lat="45.92645" lon="4.61397">
        <ele>399.200012207</ele>
        <time>2016-02-26T10:17:22.893Z</time>
      </trkpt>
      <trkpt lat="45.92643" lon="4.61394">
        <ele>399.399993896</ele>
        <time>2016-02-26T10:17:23.879Z</time>
      </trkpt>
      <trkpt lat="45.92638" lon="4.61385">
        <ele>399.100006104</ele>
        <time>2016-02-26T10:17:26.91Z</time>
      </trkpt>
      <trkpt lat="45.92637" lon="4.61382">
        <ele>399</ele>
        <time>2016-02-26T10:17:27.87Z</time>
      </trkpt>
      <trkpt lat="45.92634" lon="4.61371">
        <ele>398.899993896</ele>
        <time>2016-02-26T10:17:30.896Z</time>
      </trkpt>
      <trkpt lat="45.92632" lon="4.61369">
        <ele>398.600006104</ele>
        <time>2016-02-26T10:17:31.874Z</time>
      </trkpt>
      <trkpt lat="45.92628" lon="4.6136">
        <ele>398.700012207</ele>
        <time>2016-02-26T10:17:34.915Z</time>
      </trkpt>
      <trkpt lat="45.92627" lon="4.61356">
        <ele>398.899993896</ele>
        <time>2016-02-26T10:17:35.87Z</time>
      </trkpt>
      <trkpt lat="45.92623" lon="4.61348">
        <ele>399.299987793</ele>
        <time>2016-02-26T10:17:38.894Z</time>
      </trkpt>
      <trkpt lat="45.92622" lon="4.61345">
        <ele>400</ele>
        <time>2016-02-26T10:17:39.87Z</time>
      </trkpt>
      <trkpt lat="45.9262" lon="4.61335">
        <ele>401.100006104</ele>
        <time>2016-02-26T10:17:42.898Z</time>
      </trkpt>
      <trkpt lat="45.92619" lon="4.61332">
        <ele>401.200012207</ele>
        <time>2016-02-26T10:17:43.87Z</time>
      </trkpt>
      <trkpt lat="45.92616" lon="4.61322">
        <ele>401.5</ele>
        <time>2016-02-26T10:17:46.911Z</time>
      </trkpt>
      <trkpt lat="45.92615" lon="4.61319">
        <ele>401.399993896</ele>
        <time>2016-02-26T10:17:47.87Z</time>
      </trkpt>
      <trkpt lat="45.92611" lon="4.61308">
        <ele>401</ele>
        <time>2016-02-26T10:17:51.895Z</time>
      </trkpt>
      <trkpt lat="45.9261" lon="4.61305">
        <ele>401</ele>
        <time>2016-02-26T10:17:52.87Z</time>
      </trkpt>
      <trkpt lat="45.92607" lon="4.61295">
        <ele>401.299987793</ele>
        <time>2016-02-26T10:17:55.893Z</time>
      </trkpt>
      <trkpt lat="45.92606" lon="4.61292">
        <ele>401.5</ele>
        <time>2016-02-26T10:17:56.89Z</time>
      </trkpt>
      <trkpt lat="45.92603" lon="4.61281">
        <ele>401.399993896</ele>
        <time>2016-02-26T10:18:00.912Z</time>
      </trkpt>
      <trkpt lat="45.92602" lon="4.61278">
        <ele>401.299987793</ele>
        <time>2016-02-26T10:18:01.873Z</time>
      </trkpt>
      <trkpt lat="45.92598" lon="4.61268">
        <ele>401.600006104</ele>
        <time>2016-02-26T10:18:05.915Z</time>
      </trkpt>
      <trkpt lat="45.92596" lon="4.61265">
        <ele>401.700012207</ele>
        <time>2016-02-26T10:18:06.879Z</time>
      </trkpt>
      <trkpt lat="45.92593" lon="4.61254">
        <ele>401</ele>
        <time>2016-02-26T10:18:10.895Z</time>
      </trkpt>
      <trkpt lat="45.92593" lon="4.61251">
        <ele>401.299987793</ele>
        <time>2016-02-26T10:18:11.91Z</time>
      </trkpt>
      <trkpt lat="45.9259" lon="4.61241">
        <ele>402.399993896</ele>
        <time>2016-02-26T10:18:15.913Z</time>
      </trkpt>
      <trkpt lat="45.92589" lon="4.61238">
        <ele>402.200012207</ele>
        <time>2016-02-26T10:18:16.87Z</time>
      </trkpt>
      <trkpt lat="45.92585" lon="4.61227">
        <ele>403</ele>
        <time>2016-02-26T10:18:21.948Z</time>
      </trkpt>
      <trkpt lat="45.92584" lon="4.61225">
        <ele>403</ele>
        <time>2016-02-26T10:18:22.869Z</time>
      </trkpt>
      <trkpt lat="45.9258" lon="4.61214">
        <ele>403.399993896</ele>
        <time>2016-02-26T10:18:26.972Z</time>
      </trkpt>
      <trkpt lat="45.92579" lon="4.61211">
        <ele>403.700012207</ele>
        <time>2016-02-26T10:18:27.87Z</time>
      </trkpt>
      <trkpt lat="45.92575" lon="4.612">
        <ele>404</ele>
        <time>2016-02-26T10:18:31.893Z</time>
      </trkpt>
      <trkpt lat="45.92574" lon="4.61197">
        <ele>404</ele>
        <time>2016-02-26T10:18:32.871Z</time>
      </trkpt>
      <trkpt lat="45.9257" lon="4.61187">
        <ele>405.700012207</ele>
        <time>2016-02-26T10:18:36.895Z</time>
      </trkpt>
      <trkpt lat="45.92569" lon="4.61184">
        <ele>406.399993896</ele>
        <time>2016-02-26T10:18:37.888Z</time>
      </trkpt>
      <trkpt lat="45.92566" lon="4.61176">
        <ele>407.299987793</ele>
        <time>2016-02-26T10:18:40.893Z</time>
      </trkpt>
      <trkpt lat="45.92564" lon="4.61173">
        <ele>407.5</ele>
        <time>2016-02-26T10:18:41.878Z</time>
      </trkpt>
      <trkpt lat="45.9256" lon="4.61164">
        <ele>408.299987793</ele>
        <time>2016-02-26T10:18:44.97Z</time>
      </trkpt>
      <trkpt lat="45.92559" lon="4.61161">
        <ele>408.5</ele>
        <time>2016-02-26T10:18:45.87Z</time>
      </trkpt>
      <trkpt lat="45.92556" lon="4.6115">
        <ele>409.5</ele>
        <time>2016-02-26T10:18:49.892Z</time>
      </trkpt>
      <trkpt lat="45.92556" lon="4.61147">
        <ele>409.700012207</ele>
        <time>2016-02-26T10:18:50.873Z</time>
      </trkpt>
      <trkpt lat="45.92556" lon="4.61134">
        <ele>410.799987793</ele>
        <time>2016-02-26T10:18:54.895Z</time>
      </trkpt>
      <trkpt lat="45.92556" lon="4.61131">
        <ele>411.100006104</ele>
        <time>2016-02-26T10:18:55.872Z</time>
      </trkpt>
      <trkpt lat="45.92561" lon="4.61123">
        <ele>412.100006104</ele>
        <time>2016-02-26T10:18:59.892Z</time>
      </trkpt>
      <trkpt lat="45.92563" lon="4.61121">
        <ele>412.5</ele>
        <time>2016-02-26T10:19:00.875Z</time>
      </trkpt>
      <trkpt lat="45.9257" lon="4.61114">
        <ele>412.899993896</ele>
        <time>2016-02-26T10:19:04.895Z</time>
      </trkpt>
      <trkpt lat="45.92572" lon="4.61112">
        <ele>413.200012207</ele>
        <time>2016-02-26T10:19:05.87Z</time>
      </trkpt>
      <trkpt lat="45.92577" lon="4.61101">
        <ele>413.700012207</ele>
        <time>2016-02-26T10:19:10.893Z</time>
      </trkpt>
      <trkpt lat="45.92578" lon="4.61099">
        <ele>413.799987793</ele>
        <time>2016-02-26T10:19:11.873Z</time>
      </trkpt>
      <trkpt lat="45.92585" lon="4.61092">
        <ele>414.600006104</ele>
        <time>2016-02-26T10:19:15.893Z</time>
      </trkpt>
      <trkpt lat="45.92586" lon="4.6109">
        <ele>414.5</ele>
        <time>2016-02-26T10:19:16.87Z</time>
      </trkpt>
      <trkpt lat="45.9259" lon="4.6108">
        <ele>414</ele>
        <time>2016-02-26T10:19:20.895Z</time>
      </trkpt>
      <trkpt lat="45.92592" lon="4.61078">
        <ele>414.100006104</ele>
        <time>2016-02-26T10:19:21.873Z</time>
      </trkpt>
      <trkpt lat="45.92594" lon="4.61069">
        <ele>414.100006104</ele>
        <time>2016-02-26T10:19:24.917Z</time>
      </trkpt>
      <trkpt lat="45.92595" lon="4.61066">
        <ele>414.299987793</ele>
        <time>2016-02-26T10:19:25.871Z</time>
      </trkpt>
      <trkpt lat="45.92598" lon="4.61056">
        <ele>414.799987793</ele>
        <time>2016-02-26T10:19:28.927Z</time>
      </trkpt>
      <trkpt lat="45.92599" lon="4.61053">
        <ele>415.399993896</ele>
        <time>2016-02-26T10:19:29.886Z</time>
      </trkpt>
      <trkpt lat="45.92603" lon="4.61043">
        <ele>416.5</ele>
        <time>2016-02-26T10:19:32.895Z</time>
      </trkpt>
      <trkpt lat="45.92605" lon="4.6104">
        <ele>416.399993896</ele>
        <time>2016-02-26T10:19:33.876Z</time>
      </trkpt>
      <trkpt lat="45.92609" lon="4.61029">
        <ele>416.799987793</ele>
        <time>2016-02-26T10:19:36.896Z</time>
      </trkpt>
      <trkpt lat="45.92611" lon="4.61025">
        <ele>417.100006104</ele>
        <time>2016-02-26T10:19:37.876Z</time>
      </trkpt>
      <trkpt lat="45.92614" lon="4.61013">
        <ele>417.700012207</ele>
        <time>2016-02-26T10:19:40.909Z</time>
      </trkpt>
      <trkpt lat="45.92615" lon="4.61009">
        <ele>417.899993896</ele>
        <time>2016-02-26T10:19:41.875Z</time>
      </trkpt>
      <trkpt lat="45.92618" lon="4.60999">
        <ele>418.200012207</ele>
        <time>2016-02-26T10:19:44.896Z</time>
      </trkpt>
      <trkpt lat="45.92619" lon="4.60996">
        <ele>418</ele>
        <time>2016-02-26T10:19:45.873Z</time>
      </trkpt>
      <trkpt lat="45.92621" lon="4.60984">
        <ele>418.600006104</ele>
        <time>2016-02-26T10:19:48.895Z</time>
      </trkpt>
      <trkpt lat="45.92622" lon="4.6098">
        <ele>419.100006104</ele>
        <time>2016-02-26T10:19:49.873Z</time>
      </trkpt>
      <trkpt lat="45.92624" lon="4.60969">
        <ele>419.100006104</ele>
        <time>2016-02-26T10:19:52.893Z</time>
      </trkpt>
      <trkpt lat="45.92625" lon="4.60965">
        <ele>418.899993896</ele>
        <time>2016-02-26T10:19:53.872Z</time>
      </trkpt>
      <trkpt lat="45.92627" lon="4.60957">
        <ele>418.899993896</ele>
        <time>2016-02-26T10:19:55.893Z</time>
      </trkpt>
      <trkpt lat="45.92628" lon="4.60952">
        <ele>418.700012207</ele>
        <time>2016-02-26T10:19:56.874Z</time>
      </trkpt>
      <trkpt lat="45.9263" lon="4.60944">
        <ele>418.600006104</ele>
        <time>2016-02-26T10:19:58.892Z</time>
      </trkpt>
      <trkpt lat="45.92631" lon="4.6094">
        <ele>418.399993896</ele>
        <time>2016-02-26T10:20:00.001Z</time>
      </trkpt>
      <trkpt lat="45.92634" lon="4.60928">
        <ele>418.299987793</ele>
        <time>2016-02-26T10:20:02.894Z</time>
      </trkpt>
      <trkpt lat="45.92635" lon="4.60925">
        <ele>418.399993896</ele>
        <time>2016-02-26T10:20:03.87Z</time>
      </trkpt>
      <trkpt lat="45.92637" lon="4.60913">
        <ele>418.799987793</ele>
        <time>2016-02-26T10:20:06.895Z</time>
      </trkpt>
      <trkpt lat="45.92638" lon="4.60909">
        <ele>419.100006104</ele>
        <time>2016-02-26T10:20:07.886Z</time>
      </trkpt>
      <trkpt lat="45.92641" lon="4.609">
        <ele>419.5</ele>
        <time>2016-02-26T10:20:09.892Z</time>
      </trkpt>
      <trkpt lat="45.92641" lon="4.60896">
        <ele>419.5</ele>
        <time>2016-02-26T10:20:10.875Z</time>
      </trkpt>
      <trkpt lat="45.92643" lon="4.60887">
        <ele>419.899993896</ele>
        <time>2016-02-26T10:20:12.901Z</time>
      </trkpt>
      <trkpt lat="45.92643" lon="4.60883">
        <ele>420.100006104</ele>
        <time>2016-02-26T10:20:13.873Z</time>
      </trkpt>
      <trkpt lat="45.92645" lon="4.60875">
        <ele>420.399993896</ele>
        <time>2016-02-26T10:20:15.893Z</time>
      </trkpt>
      <trkpt lat="45.92645" lon="4.6087">
        <ele>419.799987793</ele>
        <time>2016-02-26T10:20:16.877Z</time>
      </trkpt>
      <trkpt lat="45.92648" lon="4.60858">
        <ele>419.399993896</ele>
        <time>2016-02-26T10:20:19.895Z</time>
      </trkpt>
      <trkpt lat="45.92649" lon="4.60855">
        <ele>419.299987793</ele>
        <time>2016-02-26T10:20:20.87Z</time>
      </trkpt>
      <trkpt lat="45.9265" lon="4.60843">
        <ele>419.799987793</ele>
        <time>2016-02-26T10:20:23.914Z</time>
      </trkpt>
      <trkpt lat="45.9265" lon="4.60839">
        <ele>420.100006104</ele>
        <time>2016-02-26T10:20:24.877Z</time>
      </trkpt>
      <trkpt lat="45.9265" lon="4.60827">
        <ele>419.700012207</ele>
        <time>2016-02-26T10:20:27.893Z</time>
      </trkpt>
      <trkpt lat="45.92651" lon="4.60823">
        <ele>419.5</ele>
        <time>2016-02-26T10:20:28.875Z</time>
      </trkpt>
      <trkpt lat="45.92652" lon="4.60815">
        <ele>419.299987793</ele>
        <time>2016-02-26T10:20:30.895Z</time>
      </trkpt>
      <trkpt lat="45.92652" lon="4.6081">
        <ele>419.100006104</ele>
        <time>2016-02-26T10:20:31.875Z</time>
      </trkpt>
      <trkpt lat="45.92653" lon="4.60802">
        <ele>419</ele>
        <time>2016-02-26T10:20:34.048Z</time>
      </trkpt>
      <trkpt lat="45.92654" lon="4.60797">
        <ele>419</ele>
        <time>2016-02-26T10:20:34.872Z</time>
      </trkpt>
      <trkpt lat="45.92654" lon="4.60788">
        <ele>419.700012207</ele>
        <time>2016-02-26T10:20:36.896Z</time>
      </trkpt>
      <trkpt lat="45.92654" lon="4.60784">
        <ele>419.799987793</ele>
        <time>2016-02-26T10:20:37.873Z</time>
      </trkpt>
      <trkpt lat="45.92655" lon="4.60775">
        <ele>419.899993896</ele>
        <time>2016-02-26T10:20:39.893Z</time>
      </trkpt>
      <trkpt lat="45.92655" lon="4.60771">
        <ele>420</ele>
        <time>2016-02-26T10:20:40.87Z</time>
      </trkpt>
      <trkpt lat="45.92656" lon="4.60759">
        <ele>420.5</ele>
        <time>2016-02-26T10:20:43.893Z</time>
      </trkpt>
      <trkpt lat="45.92657" lon="4.60756">
        <ele>420.600006104</ele>
        <time>2016-02-26T10:20:44.876Z</time>
      </trkpt>
      <trkpt lat="45.92657" lon="4.60746">
        <ele>420.799987793</ele>
        <time>2016-02-26T10:20:47.893Z</time>
      </trkpt>
      <trkpt lat="45.92657" lon="4.60742">
        <ele>421.200012207</ele>
        <time>2016-02-26T10:20:48.878Z</time>
      </trkpt>
      <trkpt lat="45.92658" lon="4.6073">
        <ele>421.600006104</ele>
        <time>2016-02-26T10:20:51.896Z</time>
      </trkpt>
      <trkpt lat="45.92658" lon="4.60725">
        <ele>421.899993896</ele>
        <time>2016-02-26T10:20:52.873Z</time>
      </trkpt>
      <trkpt lat="45.92659" lon="4.60717">
        <ele>422.399993896</ele>
        <time>2016-02-26T10:20:54.895Z</time>
      </trkpt>
      <trkpt lat="45.92659" lon="4.60713">
        <ele>422.399993896</ele>
        <time>2016-02-26T10:20:55.874Z</time>
      </trkpt>
      <trkpt lat="45.92658" lon="4.607">
        <ele>422</ele>
        <time>2016-02-26T10:20:58.895Z</time>
      </trkpt>
      <trkpt lat="45.92658" lon="4.60696">
        <ele>421.899993896</ele>
        <time>2016-02-26T10:20:59.899Z</time>
      </trkpt>
      <trkpt lat="45.92656" lon="4.60685">
        <ele>422.600006104</ele>
        <time>2016-02-26T10:21:02.893Z</time>
      </trkpt>
      <trkpt lat="45.92656" lon="4.60681">
        <ele>423.200012207</ele>
        <time>2016-02-26T10:21:03.89Z</time>
      </trkpt>
      <trkpt lat="45.92654" lon="4.60669">
        <ele>423</ele>
        <time>2016-02-26T10:21:06.896Z</time>
      </trkpt>
      <trkpt lat="45.92653" lon="4.60665">
        <ele>422.799987793</ele>
        <time>2016-02-26T10:21:07.874Z</time>
      </trkpt>
      <trkpt lat="45.9265" lon="4.60654">
        <ele>423.399993896</ele>
        <time>2016-02-26T10:21:10.892Z</time>
      </trkpt>
      <trkpt lat="45.92649" lon="4.6065">
        <ele>423.600006104</ele>
        <time>2016-02-26T10:21:11.873Z</time>
      </trkpt>
      <trkpt lat="45.92645" lon="4.60639">
        <ele>424.100006104</ele>
        <time>2016-02-26T10:21:14.895Z</time>
      </trkpt>
      <trkpt lat="45.92644" lon="4.60636">
        <ele>424.299987793</ele>
        <time>2016-02-26T10:21:15.874Z</time>
      </trkpt>
      <trkpt lat="45.92641" lon="4.60625">
        <ele>425.200012207</ele>
        <time>2016-02-26T10:21:18.896Z</time>
      </trkpt>
      <trkpt lat="45.9264" lon="4.60622">
        <ele>425.600006104</ele>
        <time>2016-02-26T10:21:19.869Z</time>
      </trkpt>
      <trkpt lat="45.92637" lon="4.60614">
        <ele>425.200012207</ele>
        <time>2016-02-26T10:21:22.928Z</time>
      </trkpt>
      <trkpt lat="45.92636" lon="4.6061">
        <ele>425.299987793</ele>
        <time>2016-02-26T10:21:23.874Z</time>
      </trkpt>
      <trkpt lat="45.92633" lon="4.60599">
        <ele>425.899993896</ele>
        <time>2016-02-26T10:21:27.893Z</time>
      </trkpt>
      <trkpt lat="45.92632" lon="4.60596">
        <ele>426.200012207</ele>
        <time>2016-02-26T10:21:28.879Z</time>
      </trkpt>
      <trkpt lat="45.92629" lon="4.60587">
        <ele>426.600006104</ele>
        <time>2016-02-26T10:21:31.893Z</time>
      </trkpt>
      <trkpt lat="45.92628" lon="4.60584">
        <ele>426.700012207</ele>
        <time>2016-02-26T10:21:32.873Z</time>
      </trkpt>
      <trkpt lat="45.92625" lon="4.60572">
        <ele>426.700012207</ele>
        <time>2016-02-26T10:21:36.919Z</time>
      </trkpt>
      <trkpt lat="45.92625" lon="4.60568">
        <ele>426.899993896</ele>
        <time>2016-02-26T10:21:37.872Z</time>
      </trkpt>
      <trkpt lat="45.92621" lon="4.60557">
        <ele>427.799987793</ele>
        <time>2016-02-26T10:21:41.908Z</time>
      </trkpt>
      <trkpt lat="45.9262" lon="4.60554">
        <ele>428.100006104</ele>
        <time>2016-02-26T10:21:42.875Z</time>
      </trkpt>
      <trkpt lat="45.92619" lon="4.60541">
        <ele>430</ele>
        <time>2016-02-26T10:21:46.894Z</time>
      </trkpt>
      <trkpt lat="45.92619" lon="4.60538">
        <ele>430.100006104</ele>
        <time>2016-02-26T10:21:47.872Z</time>
      </trkpt>
      <trkpt lat="45.9262" lon="4.60527">
        <ele>430.799987793</ele>
        <time>2016-02-26T10:21:51.892Z</time>
      </trkpt>
      <trkpt lat="45.9262" lon="4.60524">
        <ele>431.100006104</ele>
        <time>2016-02-26T10:21:52.877Z</time>
      </trkpt>
      <trkpt lat="45.92625" lon="4.60515">
        <ele>432.299987793</ele>
        <time>2016-02-26T10:21:56.893Z</time>
      </trkpt>
      <trkpt lat="45.92626" lon="4.60513">
        <ele>432.799987793</ele>
        <time>2016-02-26T10:21:57.872Z</time>
      </trkpt>
      <trkpt lat="45.92631" lon="4.60504">
        <ele>433.5</ele>
        <time>2016-02-26T10:22:01.895Z</time>
      </trkpt>
      <trkpt lat="45.92633" lon="4.60502">
        <ele>433.700012207</ele>
        <time>2016-02-26T10:22:02.875Z</time>
      </trkpt>
      <trkpt lat="45.92638" lon="4.60495">
        <ele>433.799987793</ele>
        <time>2016-02-26T10:22:06.91Z</time>
      </trkpt>
      <trkpt lat="45.9264" lon="4.60493">
        <ele>433.799987793</ele>
        <time>2016-02-26T10:22:07.872Z</time>
      </trkpt>
      <trkpt lat="45.92646" lon="4.60486">
        <ele>434.5</ele>
        <time>2016-02-26T10:22:12.897Z</time>
      </trkpt>
      <trkpt lat="45.92647" lon="4.60484">
        <ele>434.600006104</ele>
        <time>2016-02-26T10:22:13.872Z</time>
      </trkpt>
      <trkpt lat="45.92654" lon="4.60478">
        <ele>435.799987793</ele>
        <time>2016-02-26T10:22:17.894Z</time>
      </trkpt>
      <trkpt lat="45.92656" lon="4.60477">
        <ele>436</ele>
        <time>2016-02-26T10:22:18.873Z</time>
      </trkpt>
      <trkpt lat="45.92662" lon="4.60468">
        <ele>436.700012207</ele>
        <time>2016-02-26T10:22:23.893Z</time>
      </trkpt>
      <trkpt lat="45.92664" lon="4.60467">
        <ele>437</ele>
        <time>2016-02-26T10:22:24.877Z</time>
      </trkpt>
      <trkpt lat="45.92671" lon="4.60461">
        <ele>438</ele>
        <time>2016-02-26T10:22:28.896Z</time>
      </trkpt>
      <trkpt lat="45.92673" lon="4.6046">
        <ele>438.299987793</ele>
        <time>2016-02-26T10:22:29.873Z</time>
      </trkpt>
      <trkpt lat="45.92678" lon="4.60453">
        <ele>439</ele>
        <time>2016-02-26T10:22:33.895Z</time>
      </trkpt>
      <trkpt lat="45.92679" lon="4.60451">
        <ele>439.299987793</ele>
        <time>2016-02-26T10:22:34.876Z</time>
      </trkpt>
      <trkpt lat="45.92686" lon="4.60443">
        <ele>439.799987793</ele>
        <time>2016-02-26T10:22:39.892Z</time>
      </trkpt>
      <trkpt lat="45.92687" lon="4.60442">
        <ele>440.100006104</ele>
        <time>2016-02-26T10:22:40.876Z</time>
      </trkpt>
      <trkpt lat="45.92693" lon="4.60436">
        <ele>441.600006104</ele>
        <time>2016-02-26T10:22:45.946Z</time>
      </trkpt>
      <trkpt lat="45.92695" lon="4.60434">
        <ele>441.899993896</ele>
        <time>2016-02-26T10:22:46.873Z</time>
      </trkpt>
      <trkpt lat="45.92701" lon="4.60427">
        <ele>443</ele>
        <time>2016-02-26T10:22:50.894Z</time>
      </trkpt>
      <trkpt lat="45.92702" lon="4.60425">
        <ele>443.299987793</ele>
        <time>2016-02-26T10:22:51.872Z</time>
      </trkpt>
      <trkpt lat="45.92709" lon="4.60418">
        <ele>444.5</ele>
        <time>2016-02-26T10:22:55.892Z</time>
      </trkpt>
      <trkpt lat="45.9271" lon="4.60416">
        <ele>444.799987793</ele>
        <time>2016-02-26T10:22:56.865Z</time>
      </trkpt>
      <trkpt lat="45.92718" lon="4.60413">
        <ele>445.100006104</ele>
        <time>2016-02-26T10:22:59.893Z</time>
      </trkpt>
      <trkpt lat="45.92719" lon="4.60411">
        <ele>445.399993896</ele>
        <time>2016-02-26T10:23:00.877Z</time>
      </trkpt>
      <trkpt lat="45.92725" lon="4.60405">
        <ele>446.600006104</ele>
        <time>2016-02-26T10:23:03.933Z</time>
      </trkpt>
      <trkpt lat="45.92727" lon="4.60403">
        <ele>447</ele>
        <time>2016-02-26T10:23:04.876Z</time>
      </trkpt>
      <trkpt lat="45.92734" lon="4.60397">
        <ele>448.399993896</ele>
        <time>2016-02-26T10:23:08.896Z</time>
      </trkpt>
      <trkpt lat="45.92736" lon="4.60395">
        <ele>448.700012207</ele>
        <time>2016-02-26T10:23:09.872Z</time>
      </trkpt>
      <trkpt lat="45.92741" lon="4.60385">
        <ele>449.700012207</ele>
        <time>2016-02-26T10:23:13.893Z</time>
      </trkpt>
      <trkpt lat="45.92743" lon="4.60383">
        <ele>449.899993896</ele>
        <time>2016-02-26T10:23:14.87Z</time>
      </trkpt>
      <trkpt lat="45.9275" lon="4.60377">
        <ele>450.700012207</ele>
        <time>2016-02-26T10:23:18.896Z</time>
      </trkpt>
      <trkpt lat="45.9275" lon="4.60373">
        <ele>450.899993896</ele>
        <time>2016-02-26T10:23:19.874Z</time>
      </trkpt>
      <trkpt lat="45.92757" lon="4.60366">
        <ele>451.899993896</ele>
        <time>2016-02-26T10:23:24.913Z</time>
      </trkpt>
      <trkpt lat="45.92758" lon="4.60362">
        <ele>452.299987793</ele>
        <time>2016-02-26T10:23:25.873Z</time>
      </trkpt>
      <trkpt lat="45.92763" lon="4.60353">
        <ele>453.799987793</ele>
        <time>2016-02-26T10:23:31.056Z</time>
      </trkpt>
      <trkpt lat="45.92765" lon="4.60352">
        <ele>454</ele>
        <time>2016-02-26T10:23:31.876Z</time>
      </trkpt>
      <trkpt lat="45.92772" lon="4.60345">
        <ele>455.600006104</ele>
        <time>2016-02-26T10:23:36.895Z</time>
      </trkpt>
      <trkpt lat="45.92773" lon="4.60344">
        <ele>455.899993896</ele>
        <time>2016-02-26T10:23:37.876Z</time>
      </trkpt>
      <trkpt lat="45.92781" lon="4.60344">
        <ele>458.100006104</ele>
        <time>2016-02-26T10:23:42.895Z</time>
      </trkpt>
      <trkpt lat="45.92783" lon="4.60344">
        <ele>458.299987793</ele>
        <time>2016-02-26T10:23:43.876Z</time>
      </trkpt>
      <trkpt lat="45.9279" lon="4.60341">
        <ele>459.899993896</ele>
        <time>2016-02-26T10:23:47.892Z</time>
      </trkpt>
      <trkpt lat="45.92792" lon="4.6034">
        <ele>460.299987793</ele>
        <time>2016-02-26T10:23:48.878Z</time>
      </trkpt>
      <trkpt lat="45.92799" lon="4.6034">
        <ele>462.100006104</ele>
        <time>2016-02-26T10:23:51.954Z</time>
      </trkpt>
      <trkpt lat="45.92801" lon="4.60339">
        <ele>462.399993896</ele>
        <time>2016-02-26T10:23:52.876Z</time>
      </trkpt>
      <trkpt lat="45.92809" lon="4.60338">
        <ele>462.899993896</ele>
        <time>2016-02-26T10:23:55.892Z</time>
      </trkpt>
      <trkpt lat="45.92811" lon="4.60337">
        <ele>463.299987793</ele>
        <time>2016-02-26T10:23:56.87Z</time>
      </trkpt>
      <trkpt lat="45.92819" lon="4.60336">
        <ele>465.200012207</ele>
        <time>2016-02-26T10:24:00.897Z</time>
      </trkpt>
      <trkpt lat="45.92821" lon="4.60335">
        <ele>465.399993896</ele>
        <time>2016-02-26T10:24:01.874Z</time>
      </trkpt>
      <trkpt lat="45.92828" lon="4.60334">
        <ele>466.399993896</ele>
        <time>2016-02-26T10:24:04.893Z</time>
      </trkpt>
      <trkpt lat="45.9283" lon="4.60333">
        <ele>465.700012207</ele>
        <time>2016-02-26T10:24:05.876Z</time>
      </trkpt>
      <trkpt lat="45.92837" lon="4.6033">
        <ele>463.399993896</ele>
        <time>2016-02-26T10:24:08.894Z</time>
      </trkpt>
      <trkpt lat="45.92839" lon="4.60328">
        <ele>462.799987793</ele>
        <time>2016-02-26T10:24:09.871Z</time>
      </trkpt>
      <trkpt lat="45.92846" lon="4.60322">
        <ele>462.600006104</ele>
        <time>2016-02-26T10:24:13.892Z</time>
      </trkpt>
      <trkpt lat="45.92848" lon="4.6032">
        <ele>462.299987793</ele>
        <time>2016-02-26T10:24:14.87Z</time>
      </trkpt>
      <trkpt lat="45.92855" lon="4.60315">
        <ele>461.600006104</ele>
        <time>2016-02-26T10:24:18.895Z</time>
      </trkpt>
      <trkpt lat="45.92857" lon="4.60313">
        <ele>461.200012207</ele>
        <time>2016-02-26T10:24:19.881Z</time>
      </trkpt>
      <trkpt lat="45.92864" lon="4.60306">
        <ele>460.100006104</ele>
        <time>2016-02-26T10:24:23.895Z</time>
      </trkpt>
      <trkpt lat="45.92865" lon="4.60304">
        <ele>459.799987793</ele>
        <time>2016-02-26T10:24:24.875Z</time>
      </trkpt>
      <trkpt lat="45.92872" lon="4.60298">
        <ele>459.200012207</ele>
        <time>2016-02-26T10:24:28.897Z</time>
      </trkpt>
      <trkpt lat="45.92873" lon="4.60296">
        <ele>459.100006104</ele>
        <time>2016-02-26T10:24:29.875Z</time>
      </trkpt>
      <trkpt lat="45.92879" lon="4.60287">
        <ele>459.100006104</ele>
        <time>2016-02-26T10:24:33.894Z</time>
      </trkpt>
      <trkpt lat="45.9288" lon="4.60285">
        <ele>459</ele>
        <time>2016-02-26T10:24:34.876Z</time>
      </trkpt>
      <trkpt lat="45.92885" lon="4.60278">
        <ele>458.799987793</ele>
        <time>2016-02-26T10:24:37.894Z</time>
      </trkpt>
      <trkpt lat="45.92887" lon="4.60276">
        <ele>458.799987793</ele>
        <time>2016-02-26T10:24:38.87Z</time>
      </trkpt>
      <trkpt lat="45.92892" lon="4.60267">
        <ele>459.100006104</ele>
        <time>2016-02-26T10:24:42.897Z</time>
      </trkpt>
      <trkpt lat="45.92894" lon="4.60266">
        <ele>459.100006104</ele>
        <time>2016-02-26T10:24:43.89Z</time>
      </trkpt>
      <trkpt lat="45.92899" lon="4.60257">
        <ele>458.899993896</ele>
        <time>2016-02-26T10:24:47.892Z</time>
      </trkpt>
      <trkpt lat="45.92901" lon="4.60254">
        <ele>458.899993896</ele>
        <time>2016-02-26T10:24:48.876Z</time>
      </trkpt>
      <trkpt lat="45.92907" lon="4.60246">
        <ele>459.200012207</ele>
        <time>2016-02-26T10:24:52.891Z</time>
      </trkpt>
      <trkpt lat="45.92909" lon="4.60245">
        <ele>459.200012207</ele>
        <time>2016-02-26T10:24:53.871Z</time>
      </trkpt>
      <trkpt lat="45.92915" lon="4.6024">
        <ele>459.299987793</ele>
        <time>2016-02-26T10:24:56.906Z</time>
      </trkpt>
      <trkpt lat="45.92917" lon="4.60238">
        <ele>459.299987793</ele>
        <time>2016-02-26T10:24:57.871Z</time>
      </trkpt>
      <trkpt lat="45.92923" lon="4.60232">
        <ele>460</ele>
        <time>2016-02-26T10:25:01.893Z</time>
      </trkpt>
      <trkpt lat="45.92925" lon="4.60231">
        <ele>459.799987793</ele>
        <time>2016-02-26T10:25:02.874Z</time>
      </trkpt>
      <trkpt lat="45.92932" lon="4.60227">
        <ele>460</ele>
        <time>2016-02-26T10:25:05.894Z</time>
      </trkpt>
      <trkpt lat="45.92934" lon="4.60225">
        <ele>460.100006104</ele>
        <time>2016-02-26T10:25:06.876Z</time>
      </trkpt>
      <trkpt lat="45.92941" lon="4.60222">
        <ele>460.700012207</ele>
        <time>2016-02-26T10:25:09.919Z</time>
      </trkpt>
      <trkpt lat="45.92944" lon="4.60222">
        <ele>460.799987793</ele>
        <time>2016-02-26T10:25:10.876Z</time>
      </trkpt>
      <trkpt lat="45.92951" lon="4.6022">
        <ele>460.899993896</ele>
        <time>2016-02-26T10:25:14.9Z</time>
      </trkpt>
      <trkpt lat="45.92953" lon="4.60219">
        <ele>461.200012207</ele>
        <time>2016-02-26T10:25:15.876Z</time>
      </trkpt>
      <trkpt lat="45.9296" lon="4.60214">
        <ele>462.5</ele>
        <time>2016-02-26T10:25:19.891Z</time>
      </trkpt>
      <trkpt lat="45.92962" lon="4.60212">
        <ele>462.600006104</ele>
        <time>2016-02-26T10:25:20.87Z</time>
      </trkpt>
      <trkpt lat="45.92969" lon="4.60207">
        <ele>463</ele>
        <time>2016-02-26T10:25:24.897Z</time>
      </trkpt>
      <trkpt lat="45.92971" lon="4.60206">
        <ele>463.100006104</ele>
        <time>2016-02-26T10:25:25.874Z</time>
      </trkpt>
      <trkpt lat="45.92978" lon="4.60203">
        <ele>463.5</ele>
        <time>2016-02-26T10:25:29.895Z</time>
      </trkpt>
      <trkpt lat="45.9298" lon="4.60201">
        <ele>463.799987793</ele>
        <time>2016-02-26T10:25:30.894Z</time>
      </trkpt>
      <trkpt lat="45.92987" lon="4.60196">
        <ele>464.200012207</ele>
        <time>2016-02-26T10:25:35.908Z</time>
      </trkpt>
      <trkpt lat="45.92989" lon="4.60196">
        <ele>464.700012207</ele>
        <time>2016-02-26T10:25:36.876Z</time>
      </trkpt>
      <trkpt lat="45.92996" lon="4.60189">
        <ele>465.299987793</ele>
        <time>2016-02-26T10:25:41.892Z</time>
      </trkpt>
      <trkpt lat="45.92998" lon="4.60188">
        <ele>465.5</ele>
        <time>2016-02-26T10:25:42.874Z</time>
      </trkpt>
      <trkpt lat="45.93004" lon="4.60187">
        <ele>465.700012207</ele>
        <time>2016-02-26T10:25:45.901Z</time>
      </trkpt>
      <trkpt lat="45.93007" lon="4.60186">
        <ele>465.799987793</ele>
        <time>2016-02-26T10:25:46.872Z</time>
      </trkpt>
      <trkpt lat="45.93015" lon="4.6018">
        <ele>466.399993896</ele>
        <time>2016-02-26T10:25:51.894Z</time>
      </trkpt>
      <trkpt lat="45.93017" lon="4.60178">
        <ele>466.5</ele>
        <time>2016-02-26T10:25:52.872Z</time>
      </trkpt>
      <trkpt lat="45.93024" lon="4.60176">
        <ele>467.100006104</ele>
        <time>2016-02-26T10:25:56.909Z</time>
      </trkpt>
      <trkpt lat="45.93026" lon="4.60175">
        <ele>467.299987793</ele>
        <time>2016-02-26T10:25:57.872Z</time>
      </trkpt>
      <trkpt lat="45.93034" lon="4.6017">
        <ele>468.200012207</ele>
        <time>2016-02-26T10:26:02.895Z</time>
      </trkpt>
      <trkpt lat="45.93035" lon="4.6017">
        <ele>468.5</ele>
        <time>2016-02-26T10:26:03.9Z</time>
      </trkpt>
      <trkpt lat="45.93043" lon="4.60168">
        <ele>469.100006104</ele>
        <time>2016-02-26T10:26:08.057Z</time>
      </trkpt>
      <trkpt lat="45.93045" lon="4.60168">
        <ele>469.399993896</ele>
        <time>2016-02-26T10:26:08.878Z</time>
      </trkpt>
      <trkpt lat="45.93052" lon="4.60165">
        <ele>470</ele>
        <time>2016-02-26T10:26:12.894Z</time>
      </trkpt>
      <trkpt lat="45.93054" lon="4.60164">
        <ele>470.299987793</ele>
        <time>2016-02-26T10:26:13.871Z</time>
      </trkpt>
      <trkpt lat="45.93062" lon="4.60163">
        <ele>471.899993896</ele>
        <time>2016-02-26T10:26:17.913Z</time>
      </trkpt>
      <trkpt lat="45.93064" lon="4.60163">
        <ele>472.200012207</ele>
        <time>2016-02-26T10:26:18.878Z</time>
      </trkpt>
      <trkpt lat="45.93073" lon="4.60163">
        <ele>473.5</ele>
        <time>2016-02-26T10:26:22.891Z</time>
      </trkpt>
      <trkpt lat="45.93075" lon="4.60162">
        <ele>473.700012207</ele>
        <time>2016-02-26T10:26:23.873Z</time>
      </trkpt>
      <trkpt lat="45.93082" lon="4.6016">
        <ele>475.5</ele>
        <time>2016-02-26T10:26:26.906Z</time>
      </trkpt>
      <trkpt lat="45.93084" lon="4.6016">
        <ele>475.600006104</ele>
        <time>2016-02-26T10:26:27.873Z</time>
      </trkpt>
      <trkpt lat="45.93092" lon="4.60158">
        <ele>476.5</ele>
        <time>2016-02-26T10:26:31.951Z</time>
      </trkpt>
      <trkpt lat="45.93095" lon="4.60157">
        <ele>476.799987793</ele>
        <time>2016-02-26T10:26:32.87Z</time>
      </trkpt>
      <trkpt lat="45.93102" lon="4.60155">
        <ele>476.899993896</ele>
        <time>2016-02-26T10:26:35.892Z</time>
      </trkpt>
      <trkpt lat="45.93105" lon="4.60155">
        <ele>477.399993896</ele>
        <time>2016-02-26T10:26:36.878Z</time>
      </trkpt>
      <trkpt lat="45.93113" lon="4.60154">
        <ele>479</ele>
        <time>2016-02-26T10:26:40.892Z</time>
      </trkpt>
      <trkpt lat="45.93115" lon="4.60153">
        <ele>479.399993896</ele>
        <time>2016-02-26T10:26:41.871Z</time>
      </trkpt>
      <trkpt lat="45.93123" lon="4.60154">
        <ele>480.200012207</ele>
        <time>2016-02-26T10:26:45.892Z</time>
      </trkpt>
      <trkpt lat="45.93125" lon="4.60153">
        <ele>480.799987793</ele>
        <time>2016-02-26T10:26:46.871Z</time>
      </trkpt>
      <trkpt lat="45.93134" lon="4.60151">
        <ele>482.5</ele>
        <time>2016-02-26T10:26:50.896Z</time>
      </trkpt>
      <trkpt lat="45.93137" lon="4.60152">
        <ele>482.700012207</ele>
        <time>2016-02-26T10:26:51.876Z</time>
      </trkpt>
      <trkpt lat="45.93143" lon="4.6015">
        <ele>482.200012207</ele>
        <time>2016-02-26T10:26:54.896Z</time>
      </trkpt>
      <trkpt lat="45.93146" lon="4.6015">
        <ele>482.100006104</ele>
        <time>2016-02-26T10:26:55.875Z</time>
      </trkpt>
      <trkpt lat="45.93153" lon="4.60148">
        <ele>483.5</ele>
        <time>2016-02-26T10:26:58.89Z</time>
      </trkpt>
      <trkpt lat="45.93155" lon="4.60148">
        <ele>484</ele>
        <time>2016-02-26T10:26:59.872Z</time>
      </trkpt>
      <trkpt lat="45.93164" lon="4.60145">
        <ele>485.799987793</ele>
        <time>2016-02-26T10:27:04.91Z</time>
      </trkpt>
      <trkpt lat="45.93165" lon="4.60143">
        <ele>486.399993896</ele>
        <time>2016-02-26T10:27:05.875Z</time>
      </trkpt>
      <trkpt lat="45.93173" lon="4.60148">
        <ele>485.200012207</ele>
        <time>2016-02-26T10:27:32.893Z</time>
      </trkpt>
      <trkpt lat="45.93175" lon="4.60148">
        <ele>485.299987793</ele>
        <time>2016-02-26T10:27:33.896Z</time>
      </trkpt>
      <trkpt lat="45.93182" lon="4.60148">
        <ele>484.799987793</ele>
        <time>2016-02-26T10:27:36.896Z</time>
      </trkpt>
      <trkpt lat="45.93185" lon="4.60148">
        <ele>484.799987793</ele>
        <time>2016-02-26T10:27:37.864Z</time>
      </trkpt>
      <trkpt lat="45.93193" lon="4.60147">
        <ele>484.700012207</ele>
        <time>2016-02-26T10:27:39.892Z</time>
      </trkpt>
      <trkpt lat="45.93196" lon="4.60147">
        <ele>484.799987793</ele>
        <time>2016-02-26T10:27:40.876Z</time>
      </trkpt>
      <trkpt lat="45.93204" lon="4.60147">
        <ele>485.299987793</ele>
        <time>2016-02-26T10:27:43.891Z</time>
      </trkpt>
      <trkpt lat="45.93206" lon="4.60147">
        <ele>485.399993896</ele>
        <time>2016-02-26T10:27:44.87Z</time>
      </trkpt>
      <trkpt lat="45.93213" lon="4.60145">
        <ele>485.899993896</ele>
        <time>2016-02-26T10:27:48.896Z</time>
      </trkpt>
      <trkpt lat="45.93215" lon="4.60145">
        <ele>485.399993896</ele>
        <time>2016-02-26T10:27:49.871Z</time>
      </trkpt>
      <trkpt lat="45.93223" lon="4.60146">
        <ele>484.600006104</ele>
        <time>2016-02-26T10:27:52.891Z</time>
      </trkpt>
      <trkpt lat="45.93226" lon="4.60146">
        <ele>484.5</ele>
        <time>2016-02-26T10:27:53.873Z</time>
      </trkpt>
      <trkpt lat="45.93235" lon="4.60145">
        <ele>484.700012207</ele>
        <time>2016-02-26T10:27:56.944Z</time>
      </trkpt>
      <trkpt lat="45.93238" lon="4.60145">
        <ele>484.899993896</ele>
        <time>2016-02-26T10:27:57.871Z</time>
      </trkpt>
      <trkpt lat="45.93245" lon="4.60145">
        <ele>484.899993896</ele>
        <time>2016-02-26T10:27:59.9Z</time>
      </trkpt>
      <trkpt lat="45.93248" lon="4.60145">
        <ele>485.600006104</ele>
        <time>2016-02-26T10:28:00.874Z</time>
      </trkpt>
      <trkpt lat="45.93254" lon="4.60146">
        <ele>485.600006104</ele>
        <time>2016-02-26T10:28:02.894Z</time>
      </trkpt>
      <trkpt lat="45.93257" lon="4.60146">
        <ele>485.899993896</ele>
        <time>2016-02-26T10:28:03.871Z</time>
      </trkpt>
      <trkpt lat="45.93264" lon="4.60146">
        <ele>485.899993896</ele>
        <time>2016-02-26T10:28:05.893Z</time>
      </trkpt>
      <trkpt lat="45.93268" lon="4.60145">
        <ele>485.700012207</ele>
        <time>2016-02-26T10:28:06.874Z</time>
      </trkpt>
      <trkpt lat="45.93275" lon="4.60144">
        <ele>485.899993896</ele>
        <time>2016-02-26T10:28:08.895Z</time>
      </trkpt>
      <trkpt lat="45.93279" lon="4.60143">
        <ele>485.799987793</ele>
        <time>2016-02-26T10:28:09.871Z</time>
      </trkpt>
      <trkpt lat="45.93286" lon="4.60142">
        <ele>486.299987793</ele>
        <time>2016-02-26T10:28:11.892Z</time>
      </trkpt>
      <trkpt lat="45.9329" lon="4.60141">
        <ele>486.299987793</ele>
        <time>2016-02-26T10:28:12.876Z</time>
      </trkpt>
      <trkpt lat="45.93296" lon="4.60141">
        <ele>486.5</ele>
        <time>2016-02-26T10:28:14.896Z</time>
      </trkpt>
      <trkpt lat="45.93299" lon="4.60141">
        <ele>486.399993896</ele>
        <time>2016-02-26T10:28:15.871Z</time>
      </trkpt>
      <trkpt lat="45.93308" lon="4.60138">
        <ele>485.5</ele>
        <time>2016-02-26T10:28:18.896Z</time>
      </trkpt>
      <trkpt lat="45.93311" lon="4.60137">
        <ele>485.600006104</ele>
        <time>2016-02-26T10:28:19.871Z</time>
      </trkpt>
      <trkpt lat="45.93318" lon="4.60138">
        <ele>485.700012207</ele>
        <time>2016-02-26T10:28:22.891Z</time>
      </trkpt>
      <trkpt lat="45.93321" lon="4.60138">
        <ele>485.899993896</ele>
        <time>2016-02-26T10:28:23.871Z</time>
      </trkpt>
      <trkpt lat="45.93328" lon="4.60136">
        <ele>486.799987793</ele>
        <time>2016-02-26T10:28:26.892Z</time>
      </trkpt>
      <trkpt lat="45.93331" lon="4.60135">
        <ele>487.399993896</ele>
        <time>2016-02-26T10:28:27.873Z</time>
      </trkpt>
      <trkpt lat="45.93339" lon="4.60134">
        <ele>487.799987793</ele>
        <time>2016-02-26T10:28:30.895Z</time>
      </trkpt>
      <trkpt lat="45.93342" lon="4.60134">
        <ele>488.299987793</ele>
        <time>2016-02-26T10:28:31.874Z</time>
      </trkpt>
      <trkpt lat="45.93349" lon="4.60132">
        <ele>489</ele>
        <time>2016-02-26T10:28:34.909Z</time>
      </trkpt>
      <trkpt lat="45.93351" lon="4.60131">
        <ele>489.200012207</ele>
        <time>2016-02-26T10:28:35.871Z</time>
      </trkpt>
      <trkpt lat="45.9336" lon="4.60129">
        <ele>490.700012207</ele>
        <time>2016-02-26T10:28:39.896Z</time>
      </trkpt>
      <trkpt lat="45.93362" lon="4.60128">
        <ele>491.200012207</ele>
        <time>2016-02-26T10:28:40.875Z</time>
      </trkpt>
      <trkpt lat="45.9337" lon="4.60128">
        <ele>493.5</ele>
        <time>2016-02-26T10:28:44.893Z</time>
      </trkpt>
      <trkpt lat="45.93373" lon="4.60129">
        <ele>494.5</ele>
        <time>2016-02-26T10:28:45.871Z</time>
      </trkpt>
      <trkpt lat="45.93381" lon="4.60126">
        <ele>498.200012207</ele>
        <time>2016-02-26T10:28:50.056Z</time>
      </trkpt>
      <trkpt lat="45.93383" lon="4.60125">
        <ele>498.799987793</ele>
        <time>2016-02-26T10:28:50.872Z</time>
      </trkpt>
      <trkpt lat="45.9339" lon="4.60123">
        <ele>499.5</ele>
        <time>2016-02-26T10:28:53.895Z</time>
      </trkpt>
      <trkpt lat="45.93392" lon="4.60122">
        <ele>499.299987793</ele>
        <time>2016-02-26T10:28:54.876Z</time>
      </trkpt>
      <trkpt lat="45.934" lon="4.6012">
        <ele>497.200012207</ele>
        <time>2016-02-26T10:28:58.894Z</time>
      </trkpt>
      <trkpt lat="45.93403" lon="4.60118">
        <ele>496.600006104</ele>
        <time>2016-02-26T10:28:59.871Z</time>
      </trkpt>
      <trkpt lat="45.9341" lon="4.60115">
        <ele>495.100006104</ele>
        <time>2016-02-26T10:29:02.913Z</time>
      </trkpt>
      <trkpt lat="45.93412" lon="4.60114">
        <ele>494.899993896</ele>
        <time>2016-02-26T10:29:03.871Z</time>
      </trkpt>
      <trkpt lat="45.93419" lon="4.6011">
        <ele>494.299987793</ele>
        <time>2016-02-26T10:29:06.918Z</time>
      </trkpt>
      <trkpt lat="45.93421" lon="4.60109">
        <ele>494.600006104</ele>
        <time>2016-02-26T10:29:07.871Z</time>
      </trkpt>
      <trkpt lat="45.93429" lon="4.60106">
        <ele>494.200012207</ele>
        <time>2016-02-26T10:29:09.899Z</time>
      </trkpt>
      <trkpt lat="45.93431" lon="4.60105">
        <ele>493.700012207</ele>
        <time>2016-02-26T10:29:10.871Z</time>
      </trkpt>
      <trkpt lat="45.93438" lon="4.601">
        <ele>493.200012207</ele>
        <time>2016-02-26T10:29:13.891Z</time>
      </trkpt>
      <trkpt lat="45.9344" lon="4.60099">
        <ele>492.799987793</ele>
        <time>2016-02-26T10:29:14.869Z</time>
      </trkpt>
      <trkpt lat="45.93448" lon="4.60094">
        <ele>492.100006104</ele>
        <time>2016-02-26T10:29:17.89Z</time>
      </trkpt>
      <trkpt lat="45.93451" lon="4.60093">
        <ele>491.799987793</ele>
        <time>2016-02-26T10:29:18.874Z</time>
      </trkpt>
      <trkpt lat="45.93457" lon="4.60091">
        <ele>491.299987793</ele>
        <time>2016-02-26T10:29:20.893Z</time>
      </trkpt>
      <trkpt lat="45.93461" lon="4.60089">
        <ele>491.200012207</ele>
        <time>2016-02-26T10:29:21.874Z</time>
      </trkpt>
      <trkpt lat="45.93467" lon="4.60085">
        <ele>491.100006104</ele>
        <time>2016-02-26T10:29:23.892Z</time>
      </trkpt>
      <trkpt lat="45.93471" lon="4.60083">
        <ele>490.600006104</ele>
        <time>2016-02-26T10:29:24.875Z</time>
      </trkpt>
      <trkpt lat="45.93478" lon="4.60081">
        <ele>489.600006104</ele>
        <time>2016-02-26T10:29:26.892Z</time>
      </trkpt>
      <trkpt lat="45.93482" lon="4.6008">
        <ele>489.100006104</ele>
        <time>2016-02-26T10:29:27.871Z</time>
      </trkpt>
      <trkpt lat="45.9349" lon="4.60075">
        <ele>488.399993896</ele>
        <time>2016-02-26T10:29:29.899Z</time>
      </trkpt>
      <trkpt lat="45.93494" lon="4.60073">
        <ele>488</ele>
        <time>2016-02-26T10:29:30.874Z</time>
      </trkpt>
      <trkpt lat="45.93503" lon="4.60069">
        <ele>487.5</ele>
        <time>2016-02-26T10:29:32.904Z</time>
      </trkpt>
      <trkpt lat="45.93507" lon="4.60067">
        <ele>487.100006104</ele>
        <time>2016-02-26T10:29:33.874Z</time>
      </trkpt>
      <trkpt lat="45.93512" lon="4.60066">
        <ele>487</ele>
        <time>2016-02-26T10:29:34.948Z</time>
      </trkpt>
      <trkpt lat="45.93517" lon="4.60065">
        <ele>487.100006104</ele>
        <time>2016-02-26T10:29:35.877Z</time>
      </trkpt>
      <trkpt lat="45.93522" lon="4.60064">
        <ele>487.600006104</ele>
        <time>2016-02-26T10:29:36.897Z</time>
      </trkpt>
      <trkpt lat="45.93527" lon="4.60062">
        <ele>487.299987793</ele>
        <time>2016-02-26T10:29:38.022Z</time>
      </trkpt>
      <trkpt lat="45.93532" lon="4.60061">
        <ele>487.100006104</ele>
        <time>2016-02-26T10:29:38.908Z</time>
      </trkpt>
      <trkpt lat="45.93537" lon="4.60059">
        <ele>486.899993896</ele>
        <time>2016-02-26T10:29:39.883Z</time>
      </trkpt>
      <trkpt lat="45.93541" lon="4.60057">
        <ele>486.700012207</ele>
        <time>2016-02-26T10:29:40.925Z</time>
      </trkpt>
      <trkpt lat="45.93546" lon="4.60055">
        <ele>486.700012207</ele>
        <time>2016-02-26T10:29:41.878Z</time>
      </trkpt>
      <trkpt lat="45.93552" lon="4.60053">
        <ele>486.899993896</ele>
        <time>2016-02-26T10:29:42.904Z</time>
      </trkpt>
      <trkpt lat="45.93557" lon="4.60051">
        <ele>486.600006104</ele>
        <time>2016-02-26T10:29:43.88Z</time>
      </trkpt>
      <trkpt lat="45.93562" lon="4.60049">
        <ele>486.299987793</ele>
        <time>2016-02-26T10:29:44.904Z</time>
      </trkpt>
      <trkpt lat="45.93568" lon="4.60047">
        <ele>486.100006104</ele>
        <time>2016-02-26T10:29:45.876Z</time>
      </trkpt>
      <trkpt lat="45.93573" lon="4.60045">
        <ele>485.899993896</ele>
        <time>2016-02-26T10:29:46.919Z</time>
      </trkpt>
      <trkpt lat="45.93579" lon="4.60043">
        <ele>485.799987793</ele>
        <time>2016-02-26T10:29:47.901Z</time>
      </trkpt>
      <trkpt lat="45.93584" lon="4.60041">
        <ele>485.700012207</ele>
        <time>2016-02-26T10:29:48.905Z</time>
      </trkpt>
      <trkpt lat="45.93589" lon="4.60038">
        <ele>485.600006104</ele>
        <time>2016-02-26T10:29:49.878Z</time>
      </trkpt>
      <trkpt lat="45.93594" lon="4.60036">
        <ele>485.399993896</ele>
        <time>2016-02-26T10:29:50.901Z</time>
      </trkpt>
      <trkpt lat="45.936" lon="4.60033">
        <ele>485.399993896</ele>
        <time>2016-02-26T10:29:51.875Z</time>
      </trkpt>
      <trkpt lat="45.93605" lon="4.60031">
        <ele>485.299987793</ele>
        <time>2016-02-26T10:29:52.899Z</time>
      </trkpt>
      <trkpt lat="45.93611" lon="4.60029">
        <ele>485.100006104</ele>
        <time>2016-02-26T10:29:53.874Z</time>
      </trkpt>
      <trkpt lat="45.93616" lon="4.60027">
        <ele>485.100006104</ele>
        <time>2016-02-26T10:29:54.899Z</time>
      </trkpt>
      <trkpt lat="45.93621" lon="4.60025">
        <ele>485</ele>
        <time>2016-02-26T10:29:55.872Z</time>
      </trkpt>
      <trkpt lat="45.93627" lon="4.60021">
        <ele>484.899993896</ele>
        <time>2016-02-26T10:29:56.899Z</time>
      </trkpt>
      <trkpt lat="45.93632" lon="4.60018">
        <ele>484.700012207</ele>
        <time>2016-02-26T10:29:57.877Z</time>
      </trkpt>
      <trkpt lat="45.93638" lon="4.60016">
        <ele>484.600006104</ele>
        <time>2016-02-26T10:29:58.903Z</time>
      </trkpt>
      <trkpt lat="45.93643" lon="4.60013">
        <ele>484.399993896</ele>
        <time>2016-02-26T10:29:59.874Z</time>
      </trkpt>
      <trkpt lat="45.93648" lon="4.6001">
        <ele>484</ele>
        <time>2016-02-26T10:30:00.905Z</time>
      </trkpt>
      <trkpt lat="45.93654" lon="4.60006">
        <ele>483.799987793</ele>
        <time>2016-02-26T10:30:01.929Z</time>
      </trkpt>
      <trkpt lat="45.9366" lon="4.60003">
        <ele>483.5</ele>
        <time>2016-02-26T10:30:02.898Z</time>
      </trkpt>
      <trkpt lat="45.93666" lon="4.59999">
        <ele>483.399993896</ele>
        <time>2016-02-26T10:30:03.874Z</time>
      </trkpt>
      <trkpt lat="45.93672" lon="4.59995">
        <ele>483.100006104</ele>
        <time>2016-02-26T10:30:04.98Z</time>
      </trkpt>
      <trkpt lat="45.93678" lon="4.59991">
        <ele>483</ele>
        <time>2016-02-26T10:30:05.874Z</time>
      </trkpt>
      <trkpt lat="45.93684" lon="4.59986">
        <ele>482.600006104</ele>
        <time>2016-02-26T10:30:06.899Z</time>
      </trkpt>
      <trkpt lat="45.9369" lon="4.59982">
        <ele>482.200012207</ele>
        <time>2016-02-26T10:30:07.905Z</time>
      </trkpt>
      <trkpt lat="45.93696" lon="4.59977">
        <ele>482.100006104</ele>
        <time>2016-02-26T10:30:08.896Z</time>
      </trkpt>
      <trkpt lat="45.93702" lon="4.59973">
        <ele>482.100006104</ele>
        <time>2016-02-26T10:30:09.875Z</time>
      </trkpt>
      <trkpt lat="45.93709" lon="4.59968">
        <ele>482</ele>
        <time>2016-02-26T10:30:10.902Z</time>
      </trkpt>
      <trkpt lat="45.93715" lon="4.59963">
        <ele>481.799987793</ele>
        <time>2016-02-26T10:30:11.873Z</time>
      </trkpt>
      <trkpt lat="45.93722" lon="4.59959">
        <ele>481.600006104</ele>
        <time>2016-02-26T10:30:12.918Z</time>
      </trkpt>
      <trkpt lat="45.93728" lon="4.59954">
        <ele>481.100006104</ele>
        <time>2016-02-26T10:30:13.873Z</time>
      </trkpt>
      <trkpt lat="45.93735" lon="4.59949">
        <ele>481</ele>
        <time>2016-02-26T10:30:14.909Z</time>
      </trkpt>
      <trkpt lat="45.93741" lon="4.59945">
        <ele>480.799987793</ele>
        <time>2016-02-26T10:30:15.872Z</time>
      </trkpt>
      <trkpt lat="45.93748" lon="4.5994">
        <ele>480.799987793</ele>
        <time>2016-02-26T10:30:16.895Z</time>
      </trkpt>
      <trkpt lat="45.93755" lon="4.59935">
        <ele>480.700012207</ele>
        <time>2016-02-26T10:30:17.872Z</time>
      </trkpt>
      <trkpt lat="45.93763" lon="4.59929">
        <ele>480.399993896</ele>
        <time>2016-02-26T10:30:18.9Z</time>
      </trkpt>
      <trkpt lat="45.9377" lon="4.59924">
        <ele>480.299987793</ele>
        <time>2016-02-26T10:30:19.872Z</time>
      </trkpt>
      <trkpt lat="45.93777" lon="4.59919">
        <ele>479.700012207</ele>
        <time>2016-02-26T10:30:20.898Z</time>
      </trkpt>
      <trkpt lat="45.93784" lon="4.59914">
        <ele>479.299987793</ele>
        <time>2016-02-26T10:30:21.874Z</time>
      </trkpt>
      <trkpt lat="45.93792" lon="4.59908">
        <ele>478.899993896</ele>
        <time>2016-02-26T10:30:22.897Z</time>
      </trkpt>
      <trkpt lat="45.93799" lon="4.59902">
        <ele>478.600006104</ele>
        <time>2016-02-26T10:30:23.877Z</time>
      </trkpt>
      <trkpt lat="45.93806" lon="4.59895">
        <ele>478.399993896</ele>
        <time>2016-02-26T10:30:24.897Z</time>
      </trkpt>
      <trkpt lat="45.93814" lon="4.59889">
        <ele>477.700012207</ele>
        <time>2016-02-26T10:30:25.874Z</time>
      </trkpt>
      <trkpt lat="45.93814" lon="4.59889">
        <ele>477.700012207</ele>
        <time>2016-02-26T10:30:25.904Z</time>
      </trkpt>
      <trkpt lat="45.93822" lon="4.59883">
        <ele>477.200012207</ele>
        <time>2016-02-26T10:30:26.906Z</time>
      </trkpt>
      <trkpt lat="45.93822" lon="4.59883">
        <ele>477.200012207</ele>
        <time>2016-02-26T10:30:26.937Z</time>
      </trkpt>
      <trkpt lat="45.9383" lon="4.59877">
        <ele>476.600006104</ele>
        <time>2016-02-26T10:30:27.874Z</time>
      </trkpt>
      <trkpt lat="45.93838" lon="4.59871">
        <ele>475.600006104</ele>
        <time>2016-02-26T10:30:28.923Z</time>
      </trkpt>
      <trkpt lat="45.93846" lon="4.59865">
        <ele>474.799987793</ele>
        <time>2016-02-26T10:30:29.881Z</time>
      </trkpt>
      <trkpt lat="45.93854" lon="4.5986">
        <ele>474.100006104</ele>
        <time>2016-02-26T10:30:30.898Z</time>
      </trkpt>
      <trkpt lat="45.93862" lon="4.59855">
        <ele>473.799987793</ele>
        <time>2016-02-26T10:30:31.873Z</time>
      </trkpt>
      <trkpt lat="45.9387" lon="4.59851">
        <ele>473.5</ele>
        <time>2016-02-26T10:30:32.915Z</time>
      </trkpt>
      <trkpt lat="45.93877" lon="4.59847">
        <ele>473.5</ele>
        <time>2016-02-26T10:30:33.872Z</time>
      </trkpt>
      <trkpt lat="45.93884" lon="4.59843">
        <ele>473.299987793</ele>
        <time>2016-02-26T10:30:34.9Z</time>
      </trkpt>
      <trkpt lat="45.93891" lon="4.5984">
        <ele>473.899993896</ele>
        <time>2016-02-26T10:30:35.874Z</time>
      </trkpt>
      <trkpt lat="45.93898" lon="4.59836">
        <ele>473.799987793</ele>
        <time>2016-02-26T10:30:36.925Z</time>
      </trkpt>
      <trkpt lat="45.93903" lon="4.59832">
        <ele>473.600006104</ele>
        <time>2016-02-26T10:30:37.874Z</time>
      </trkpt>
      <trkpt lat="45.93909" lon="4.59828">
        <ele>473.5</ele>
        <time>2016-02-26T10:30:38.897Z</time>
      </trkpt>
      <trkpt lat="45.93914" lon="4.59824">
        <ele>473.600006104</ele>
        <time>2016-02-26T10:30:39.873Z</time>
      </trkpt>
      <trkpt lat="45.93918" lon="4.59821">
        <ele>473.899993896</ele>
        <time>2016-02-26T10:30:40.892Z</time>
      </trkpt>
      <trkpt lat="45.93921" lon="4.59817">
        <ele>474</ele>
        <time>2016-02-26T10:30:41.871Z</time>
      </trkpt>
      <trkpt lat="45.93926" lon="4.59811">
        <ele>474</ele>
        <time>2016-02-26T10:30:43.892Z</time>
      </trkpt>
      <trkpt lat="45.93928" lon="4.59809">
        <ele>474</ele>
        <time>2016-02-26T10:30:44.875Z</time>
      </trkpt>
      <trkpt lat="45.93933" lon="4.59801">
        <ele>474.200012207</ele>
        <time>2016-02-26T10:30:47.958Z</time>
      </trkpt>
      <trkpt lat="45.93934" lon="4.59798">
        <ele>474.299987793</ele>
        <time>2016-02-26T10:30:48.877Z</time>
      </trkpt>
      <trkpt lat="45.93939" lon="4.59789">
        <ele>474.899993896</ele>
        <time>2016-02-26T10:30:51.895Z</time>
      </trkpt>
      <trkpt lat="45.93941" lon="4.59787">
        <ele>475.100006104</ele>
        <time>2016-02-26T10:30:52.872Z</time>
      </trkpt>
      <trkpt lat="45.93945" lon="4.59776">
        <ele>475.799987793</ele>
        <time>2016-02-26T10:30:56.899Z</time>
      </trkpt>
      <trkpt lat="45.93946" lon="4.59773">
        <ele>476</ele>
        <time>2016-02-26T10:30:57.874Z</time>
      </trkpt>
      <trkpt lat="45.93952" lon="4.59764">
        <ele>476.700012207</ele>
        <time>2016-02-26T10:31:01.897Z</time>
      </trkpt>
      <trkpt lat="45.93953" lon="4.59762">
        <ele>477.100006104</ele>
        <time>2016-02-26T10:31:02.874Z</time>
      </trkpt>
      <trkpt lat="45.93959" lon="4.59752">
        <ele>478.700012207</ele>
        <time>2016-02-26T10:31:07.893Z</time>
      </trkpt>
      <trkpt lat="45.93959" lon="4.5975">
        <ele>478.799987793</ele>
        <time>2016-02-26T10:31:08.873Z</time>
      </trkpt>
      <trkpt lat="45.93964" lon="4.59741">
        <ele>480.100006104</ele>
        <time>2016-02-26T10:31:13.892Z</time>
      </trkpt>
      <trkpt lat="45.93965" lon="4.59739">
        <ele>480.299987793</ele>
        <time>2016-02-26T10:31:14.873Z</time>
      </trkpt>
      <trkpt lat="45.9397" lon="4.59728">
        <ele>482.200012207</ele>
        <time>2016-02-26T10:31:19.902Z</time>
      </trkpt>
      <trkpt lat="45.93971" lon="4.59726">
        <ele>482.399993896</ele>
        <time>2016-02-26T10:31:20.877Z</time>
      </trkpt>
      <trkpt lat="45.93975" lon="4.59715">
        <ele>484.100006104</ele>
        <time>2016-02-26T10:31:26.893Z</time>
      </trkpt>
      <trkpt lat="45.93975" lon="4.59714">
        <ele>484.299987793</ele>
        <time>2016-02-26T10:31:27.871Z</time>
      </trkpt>
      <trkpt lat="45.93979" lon="4.59703">
        <ele>485</ele>
        <time>2016-02-26T10:31:33.893Z</time>
      </trkpt>
      <trkpt lat="45.9398" lon="4.597">
        <ele>485.200012207</ele>
        <time>2016-02-26T10:31:34.871Z</time>
      </trkpt>
      <trkpt lat="45.93982" lon="4.59689">
        <ele>486.200012207</ele>
        <time>2016-02-26T10:31:40.892Z</time>
      </trkpt>
      <trkpt lat="45.93984" lon="4.59687">
        <ele>486.600006104</ele>
        <time>2016-02-26T10:31:41.916Z</time>
      </trkpt>
      <trkpt lat="45.93988" lon="4.59678">
        <ele>488</ele>
        <time>2016-02-26T10:31:47.892Z</time>
      </trkpt>
      <trkpt lat="45.93988" lon="4.59676">
        <ele>488.299987793</ele>
        <time>2016-02-26T10:31:48.874Z</time>
      </trkpt>
      <trkpt lat="45.93993" lon="4.59665">
        <ele>489.899993896</ele>
        <time>2016-02-26T10:31:54.896Z</time>
      </trkpt>
      <trkpt lat="45.93994" lon="4.59664">
        <ele>490.200012207</ele>
        <time>2016-02-26T10:31:55.872Z</time>
      </trkpt>
      <trkpt lat="45.93998" lon="4.59653">
        <ele>491.799987793</ele>
        <time>2016-02-26T10:32:01.912Z</time>
      </trkpt>
      <trkpt lat="45.93998" lon="4.59652">
        <ele>492.100006104</ele>
        <time>2016-02-26T10:32:02.877Z</time>
      </trkpt>
      <trkpt lat="45.94003" lon="4.59643">
        <ele>494.100006104</ele>
        <time>2016-02-26T10:32:08.894Z</time>
      </trkpt>
      <trkpt lat="45.94005" lon="4.59641">
        <ele>494.600006104</ele>
        <time>2016-02-26T10:32:09.872Z</time>
      </trkpt>
      <trkpt lat="45.94009" lon="4.59631">
        <ele>496.700012207</ele>
        <time>2016-02-26T10:32:16.891Z</time>
      </trkpt>
      <trkpt lat="45.9401" lon="4.59629">
        <ele>497</ele>
        <time>2016-02-26T10:32:17.871Z</time>
      </trkpt>
      <trkpt lat="45.94016" lon="4.5962">
        <ele>499.299987793</ele>
        <time>2016-02-26T10:32:23.893Z</time>
      </trkpt>
      <trkpt lat="45.94017" lon="4.59619">
        <ele>499.600006104</ele>
        <time>2016-02-26T10:32:24.879Z</time>
      </trkpt>
      <trkpt lat="45.94024" lon="4.59611">
        <ele>501.100006104</ele>
        <time>2016-02-26T10:32:30.896Z</time>
      </trkpt>
      <trkpt lat="45.94024" lon="4.59609">
        <ele>501.299987793</ele>
        <time>2016-02-26T10:32:31.871Z</time>
      </trkpt>
      <trkpt lat="45.94029" lon="4.59599">
        <ele>502.799987793</ele>
        <time>2016-02-26T10:32:37.893Z</time>
      </trkpt>
      <trkpt lat="45.9403" lon="4.59597">
        <ele>503</ele>
        <time>2016-02-26T10:32:38.875Z</time>
      </trkpt>
      <trkpt lat="45.94036" lon="4.59591">
        <ele>503.700012207</ele>
        <time>2016-02-26T10:32:42.895Z</time>
      </trkpt>
      <trkpt lat="45.94037" lon="4.59589">
        <ele>503.899993896</ele>
        <time>2016-02-26T10:32:43.871Z</time>
      </trkpt>
      <trkpt lat="45.94042" lon="4.5958">
        <ele>504.700012207</ele>
        <time>2016-02-26T10:32:47.893Z</time>
      </trkpt>
      <trkpt lat="45.94044" lon="4.59578">
        <ele>504.899993896</ele>
        <time>2016-02-26T10:32:48.877Z</time>
      </trkpt>
      <trkpt lat="45.94049" lon="4.5957">
        <ele>505.200012207</ele>
        <time>2016-02-26T10:32:52.894Z</time>
      </trkpt>
      <trkpt lat="45.9405" lon="4.59567">
        <ele>505.200012207</ele>
        <time>2016-02-26T10:32:53.872Z</time>
      </trkpt>
      <trkpt lat="45.94056" lon="4.59559">
        <ele>505.5</ele>
        <time>2016-02-26T10:32:57.893Z</time>
      </trkpt>
      <trkpt lat="45.94057" lon="4.59557">
        <ele>505.299987793</ele>
        <time>2016-02-26T10:32:58.875Z</time>
      </trkpt>
      <trkpt lat="45.94062" lon="4.59549">
        <ele>505.399993896</ele>
        <time>2016-02-26T10:33:01.893Z</time>
      </trkpt>
      <trkpt lat="45.94064" lon="4.59547">
        <ele>505.5</ele>
        <time>2016-02-26T10:33:02.872Z</time>
      </trkpt>
      <trkpt lat="45.9407" lon="4.59538">
        <ele>505.399993896</ele>
        <time>2016-02-26T10:33:05.962Z</time>
      </trkpt>
      <trkpt lat="45.94072" lon="4.59536">
        <ele>505.5</ele>
        <time>2016-02-26T10:33:06.877Z</time>
      </trkpt>
      <trkpt lat="45.94077" lon="4.59528">
        <ele>506</ele>
        <time>2016-02-26T10:33:09.929Z</time>
      </trkpt>
      <trkpt lat="45.94079" lon="4.59526">
        <ele>506.299987793</ele>
        <time>2016-02-26T10:33:10.874Z</time>
      </trkpt>
      <trkpt lat="45.94085" lon="4.59517">
        <ele>506.100006104</ele>
        <time>2016-02-26T10:33:13.892Z</time>
      </trkpt>
      <trkpt lat="45.94086" lon="4.59514">
        <ele>506.200012207</ele>
        <time>2016-02-26T10:33:14.872Z</time>
      </trkpt>
      <trkpt lat="45.94092" lon="4.59507">
        <ele>506.200012207</ele>
        <time>2016-02-26T10:33:17.892Z</time>
      </trkpt>
      <trkpt lat="45.94094" lon="4.59504">
        <ele>506.399993896</ele>
        <time>2016-02-26T10:33:18.876Z</time>
      </trkpt>
      <trkpt lat="45.94101" lon="4.59496">
        <ele>507</ele>
        <time>2016-02-26T10:33:21.914Z</time>
      </trkpt>
      <trkpt lat="45.94103" lon="4.59493">
        <ele>507.100006104</ele>
        <time>2016-02-26T10:33:22.871Z</time>
      </trkpt>
      <trkpt lat="45.94108" lon="4.59488">
        <ele>507.600006104</ele>
        <time>2016-02-26T10:33:24.911Z</time>
      </trkpt>
      <trkpt lat="45.94111" lon="4.59485">
        <ele>507.799987793</ele>
        <time>2016-02-26T10:33:25.877Z</time>
      </trkpt>
      <trkpt lat="45.94115" lon="4.5948">
        <ele>508.399993896</ele>
        <time>2016-02-26T10:33:27.893Z</time>
      </trkpt>
      <trkpt lat="45.94118" lon="4.59477">
        <ele>508.5</ele>
        <time>2016-02-26T10:33:28.885Z</time>
      </trkpt>
      <trkpt lat="45.94124" lon="4.59471">
        <ele>509</ele>
        <time>2016-02-26T10:33:30.896Z</time>
      </trkpt>
      <trkpt lat="45.94127" lon="4.59469">
        <ele>509.200012207</ele>
        <time>2016-02-26T10:33:31.894Z</time>
      </trkpt>
      <trkpt lat="45.94132" lon="4.59463">
        <ele>510.299987793</ele>
        <time>2016-02-26T10:33:33.892Z</time>
      </trkpt>
      <trkpt lat="45.94134" lon="4.59461">
        <ele>510.700012207</ele>
        <time>2016-02-26T10:33:34.878Z</time>
      </trkpt>
      <trkpt lat="45.94139" lon="4.59454">
        <ele>511.799987793</ele>
        <time>2016-02-26T10:33:36.901Z</time>
      </trkpt>
      <trkpt lat="45.94143" lon="4.59451">
        <ele>512.099975586</ele>
        <time>2016-02-26T10:33:37.87Z</time>
      </trkpt>
      <trkpt lat="45.9415" lon="4.59446">
        <ele>512.900024414</ele>
        <time>2016-02-26T10:33:39.892Z</time>
      </trkpt>
      <trkpt lat="45.94153" lon="4.59444">
        <ele>512.799987793</ele>
        <time>2016-02-26T10:33:40.872Z</time>
      </trkpt>
      <trkpt lat="45.9416" lon="4.5944">
        <ele>513.200012207</ele>
        <time>2016-02-26T10:33:42.896Z</time>
      </trkpt>
      <trkpt lat="45.94164" lon="4.59438">
        <ele>513.099975586</ele>
        <time>2016-02-26T10:33:43.873Z</time>
      </trkpt>
      <trkpt lat="45.9417" lon="4.59435">
        <ele>513.400024414</ele>
        <time>2016-02-26T10:33:45.89Z</time>
      </trkpt>
      <trkpt lat="45.94173" lon="4.59432">
        <ele>513.299987793</ele>
        <time>2016-02-26T10:33:46.87Z</time>
      </trkpt>
      <trkpt lat="45.9418" lon="4.59428">
        <ele>513.599975586</ele>
        <time>2016-02-26T10:33:48.895Z</time>
      </trkpt>
      <trkpt lat="45.94184" lon="4.59426">
        <ele>513.5</ele>
        <time>2016-02-26T10:33:49.87Z</time>
      </trkpt>
      <trkpt lat="45.94188" lon="4.59424">
        <ele>513.5</ele>
        <time>2016-02-26T10:33:50.892Z</time>
      </trkpt>
      <trkpt lat="45.94192" lon="4.59421">
        <ele>513.099975586</ele>
        <time>2016-02-26T10:33:51.876Z</time>
      </trkpt>
      <trkpt lat="45.94197" lon="4.59418">
        <ele>513</ele>
        <time>2016-02-26T10:33:52.892Z</time>
      </trkpt>
      <trkpt lat="45.94201" lon="4.59417">
        <ele>513.099975586</ele>
        <time>2016-02-26T10:33:53.868Z</time>
      </trkpt>
      <trkpt lat="45.94207" lon="4.59416">
        <ele>513</ele>
        <time>2016-02-26T10:33:55.064Z</time>
      </trkpt>
      <trkpt lat="45.94213" lon="4.59414">
        <ele>512.900024414</ele>
        <time>2016-02-26T10:33:55.875Z</time>
      </trkpt>
      <trkpt lat="45.94218" lon="4.59413">
        <ele>512.700012207</ele>
        <time>2016-02-26T10:33:56.894Z</time>
      </trkpt>
      <trkpt lat="45.94224" lon="4.59411">
        <ele>512.599975586</ele>
        <time>2016-02-26T10:33:57.87Z</time>
      </trkpt>
      <trkpt lat="45.94231" lon="4.59409">
        <ele>512.700012207</ele>
        <time>2016-02-26T10:33:58.891Z</time>
      </trkpt>
      <trkpt lat="45.94237" lon="4.59407">
        <ele>512.900024414</ele>
        <time>2016-02-26T10:33:59.896Z</time>
      </trkpt>
      <trkpt lat="45.94243" lon="4.59405">
        <ele>512.700012207</ele>
        <time>2016-02-26T10:34:00.895Z</time>
      </trkpt>
      <trkpt lat="45.94249" lon="4.59403">
        <ele>512.900024414</ele>
        <time>2016-02-26T10:34:01.87Z</time>
      </trkpt>
      <trkpt lat="45.94255" lon="4.59401">
        <ele>512.799987793</ele>
        <time>2016-02-26T10:34:02.894Z</time>
      </trkpt>
      <trkpt lat="45.94262" lon="4.59399">
        <ele>512.5</ele>
        <time>2016-02-26T10:34:03.871Z</time>
      </trkpt>
      <trkpt lat="45.94268" lon="4.59398">
        <ele>512.299987793</ele>
        <time>2016-02-26T10:34:04.91Z</time>
      </trkpt>
      <trkpt lat="45.94275" lon="4.59397">
        <ele>512.299987793</ele>
        <time>2016-02-26T10:34:05.87Z</time>
      </trkpt>
      <trkpt lat="45.94281" lon="4.59395">
        <ele>512.299987793</ele>
        <time>2016-02-26T10:34:07.059Z</time>
      </trkpt>
      <trkpt lat="45.94288" lon="4.59393">
        <ele>511.5</ele>
        <time>2016-02-26T10:34:07.872Z</time>
      </trkpt>
      <trkpt lat="45.94294" lon="4.59391">
        <ele>510.5</ele>
        <time>2016-02-26T10:34:08.963Z</time>
      </trkpt>
      <trkpt lat="45.94301" lon="4.59389">
        <ele>509.700012207</ele>
        <time>2016-02-26T10:34:09.87Z</time>
      </trkpt>
      <trkpt lat="45.94309" lon="4.59388">
        <ele>507.799987793</ele>
        <time>2016-02-26T10:34:10.893Z</time>
      </trkpt>
      <trkpt lat="45.94316" lon="4.59386">
        <ele>507.200012207</ele>
        <time>2016-02-26T10:34:11.872Z</time>
      </trkpt>
      <trkpt lat="45.94324" lon="4.59385">
        <ele>506.200012207</ele>
        <time>2016-02-26T10:34:12.897Z</time>
      </trkpt>
      <trkpt lat="45.9433" lon="4.59383">
        <ele>505.399993896</ele>
        <time>2016-02-26T10:34:13.87Z</time>
      </trkpt>
      <trkpt lat="45.94338" lon="4.59381">
        <ele>504.799987793</ele>
        <time>2016-02-26T10:34:14.911Z</time>
      </trkpt>
      <trkpt lat="45.94345" lon="4.59379">
        <ele>504.700012207</ele>
        <time>2016-02-26T10:34:15.87Z</time>
      </trkpt>
      <trkpt lat="45.94352" lon="4.59376">
        <ele>504.600006104</ele>
        <time>2016-02-26T10:34:16.934Z</time>
      </trkpt>
      <trkpt lat="45.94359" lon="4.59374">
        <ele>504.799987793</ele>
        <time>2016-02-26T10:34:17.872Z</time>
      </trkpt>
      <trkpt lat="45.94366" lon="4.59372">
        <ele>504.100006104</ele>
        <time>2016-02-26T10:34:18.897Z</time>
      </trkpt>
      <trkpt lat="45.94372" lon="4.5937">
        <ele>504</ele>
        <time>2016-02-26T10:34:19.87Z</time>
      </trkpt>
      <trkpt lat="45.94378" lon="4.59369">
        <ele>503.700012207</ele>
        <time>2016-02-26T10:34:20.891Z</time>
      </trkpt>
      <trkpt lat="45.94384" lon="4.59368">
        <ele>503.799987793</ele>
        <time>2016-02-26T10:34:21.87Z</time>
      </trkpt>
      <trkpt lat="45.94389" lon="4.59367">
        <ele>503.600006104</ele>
        <time>2016-02-26T10:34:22.904Z</time>
      </trkpt>
      <trkpt lat="45.94395" lon="4.59365">
        <ele>503.600006104</ele>
        <time>2016-02-26T10:34:23.871Z</time>
      </trkpt>
      <trkpt lat="45.944" lon="4.59364">
        <ele>503.799987793</ele>
        <time>2016-02-26T10:34:24.9Z</time>
      </trkpt>
      <trkpt lat="45.94404" lon="4.59362">
        <ele>503.700012207</ele>
        <time>2016-02-26T10:34:25.872Z</time>
      </trkpt>
      <trkpt lat="45.94413" lon="4.59361">
        <ele>503.399993896</ele>
        <time>2016-02-26T10:34:27.89Z</time>
      </trkpt>
      <trkpt lat="45.94417" lon="4.5936">
        <ele>503.299987793</ele>
        <time>2016-02-26T10:34:28.888Z</time>
      </trkpt>
      <trkpt lat="45.94426" lon="4.59357">
        <ele>502.799987793</ele>
        <time>2016-02-26T10:34:30.893Z</time>
      </trkpt>
      <trkpt lat="45.94429" lon="4.59356">
        <ele>502.399993896</ele>
        <time>2016-02-26T10:34:31.87Z</time>
      </trkpt>
      <trkpt lat="45.94438" lon="4.59354">
        <ele>501.600006104</ele>
        <time>2016-02-26T10:34:33.89Z</time>
      </trkpt>
      <trkpt lat="45.94442" lon="4.59354">
        <ele>501.399993896</ele>
        <time>2016-02-26T10:34:34.892Z</time>
      </trkpt>
      <trkpt lat="45.94449" lon="4.5935">
        <ele>501.100006104</ele>
        <time>2016-02-26T10:34:36.895Z</time>
      </trkpt>
      <trkpt lat="45.94453" lon="4.59347">
        <ele>501.299987793</ele>
        <time>2016-02-26T10:34:37.871Z</time>
      </trkpt>
      <trkpt lat="45.94459" lon="4.59341">
        <ele>501.100006104</ele>
        <time>2016-02-26T10:34:39.893Z</time>
      </trkpt>
      <trkpt lat="45.94462" lon="4.59338">
        <ele>501.299987793</ele>
        <time>2016-02-26T10:34:40.873Z</time>
      </trkpt>
      <trkpt lat="45.94467" lon="4.59331">
        <ele>501.200012207</ele>
        <time>2016-02-26T10:34:42.897Z</time>
      </trkpt>
      <trkpt lat="45.94469" lon="4.59327">
        <ele>501.100006104</ele>
        <time>2016-02-26T10:34:43.871Z</time>
      </trkpt>
      <trkpt lat="45.94473" lon="4.59319">
        <ele>501.100006104</ele>
        <time>2016-02-26T10:34:45.891Z</time>
      </trkpt>
      <trkpt lat="45.94475" lon="4.59315">
        <ele>501.100006104</ele>
        <time>2016-02-26T10:34:46.871Z</time>
      </trkpt>
      <trkpt lat="45.94478" lon="4.59307">
        <ele>501.399993896</ele>
        <time>2016-02-26T10:34:48.895Z</time>
      </trkpt>
      <trkpt lat="45.94479" lon="4.59302">
        <ele>501.399993896</ele>
        <time>2016-02-26T10:34:49.87Z</time>
      </trkpt>
      <trkpt lat="45.94482" lon="4.59294">
        <ele>501.899993896</ele>
        <time>2016-02-26T10:34:51.893Z</time>
      </trkpt>
      <trkpt lat="45.94483" lon="4.59291">
        <ele>502.100006104</ele>
        <time>2016-02-26T10:34:52.873Z</time>
      </trkpt>
      <trkpt lat="45.94486" lon="4.59283">
        <ele>502.799987793</ele>
        <time>2016-02-26T10:34:54.899Z</time>
      </trkpt>
      <trkpt lat="45.94488" lon="4.5928">
        <ele>503</ele>
        <time>2016-02-26T10:34:55.872Z</time>
      </trkpt>
      <trkpt lat="45.94493" lon="4.59269">
        <ele>503.399993896</ele>
        <time>2016-02-26T10:34:58.89Z</time>
      </trkpt>
      <trkpt lat="45.94495" lon="4.59265">
        <ele>503.5</ele>
        <time>2016-02-26T10:34:59.87Z</time>
      </trkpt>
      <trkpt lat="45.94497" lon="4.59254">
        <ele>503.899993896</ele>
        <time>2016-02-26T10:35:02.892Z</time>
      </trkpt>
      <trkpt lat="45.94498" lon="4.59251">
        <ele>504.100006104</ele>
        <time>2016-02-26T10:35:03.87Z</time>
      </trkpt>
      <trkpt lat="45.94501" lon="4.5924">
        <ele>504.600006104</ele>
        <time>2016-02-26T10:35:06.9Z</time>
      </trkpt>
      <trkpt lat="45.94502" lon="4.59236">
        <ele>504.899993896</ele>
        <time>2016-02-26T10:35:07.87Z</time>
      </trkpt>
      <trkpt lat="45.94505" lon="4.59225">
        <ele>505.299987793</ele>
        <time>2016-02-26T10:35:10.89Z</time>
      </trkpt>
      <trkpt lat="45.94507" lon="4.59222">
        <ele>505.399993896</ele>
        <time>2016-02-26T10:35:11.872Z</time>
      </trkpt>
      <trkpt lat="45.94512" lon="4.59212">
        <ele>506.700012207</ele>
        <time>2016-02-26T10:35:14.928Z</time>
      </trkpt>
      <trkpt lat="45.94513" lon="4.59209">
        <ele>506.899993896</ele>
        <time>2016-02-26T10:35:15.87Z</time>
      </trkpt>
      <trkpt lat="45.94517" lon="4.59198">
        <ele>507.700012207</ele>
        <time>2016-02-26T10:35:19.939Z</time>
      </trkpt>
      <trkpt lat="45.94518" lon="4.59195">
        <ele>507.700012207</ele>
        <time>2016-02-26T10:35:20.875Z</time>
      </trkpt>
      <trkpt lat="45.94521" lon="4.59186">
        <ele>507.399993896</ele>
        <time>2016-02-26T10:35:23.892Z</time>
      </trkpt>
      <trkpt lat="45.94523" lon="4.59183">
        <ele>507.299987793</ele>
        <time>2016-02-26T10:35:24.881Z</time>
      </trkpt>
      <trkpt lat="45.94526" lon="4.59175">
        <ele>507.399993896</ele>
        <time>2016-02-26T10:35:27.89Z</time>
      </trkpt>
      <trkpt lat="45.94527" lon="4.59172">
        <ele>507.600006104</ele>
        <time>2016-02-26T10:35:28.889Z</time>
      </trkpt>
      <trkpt lat="45.9453" lon="4.59161">
        <ele>507.700012207</ele>
        <time>2016-02-26T10:35:32.894Z</time>
      </trkpt>
      <trkpt lat="45.94532" lon="4.59159">
        <ele>507.799987793</ele>
        <time>2016-02-26T10:35:33.87Z</time>
      </trkpt>
      <trkpt lat="45.94536" lon="4.59151">
        <ele>508.799987793</ele>
        <time>2016-02-26T10:35:36.897Z</time>
      </trkpt>
      <trkpt lat="45.94538" lon="4.59147">
        <ele>509.200012207</ele>
        <time>2016-02-26T10:35:37.895Z</time>
      </trkpt>
      <trkpt lat="45.94542" lon="4.59138">
        <ele>510.100006104</ele>
        <time>2016-02-26T10:35:40.892Z</time>
      </trkpt>
      <trkpt lat="45.94543" lon="4.59136">
        <ele>510.299987793</ele>
        <time>2016-02-26T10:35:41.873Z</time>
      </trkpt>
      <trkpt lat="45.94549" lon="4.5913">
        <ele>511.200012207</ele>
        <time>2016-02-26T10:35:45.034Z</time>
      </trkpt>
      <trkpt lat="45.94552" lon="4.59128">
        <ele>511.299987793</ele>
        <time>2016-02-26T10:35:45.87Z</time>
      </trkpt>
      <trkpt lat="45.94559" lon="4.59121">
        <ele>512.299987793</ele>
        <time>2016-02-26T10:35:48.894Z</time>
      </trkpt>
      <trkpt lat="45.94561" lon="4.59119">
        <ele>512.799987793</ele>
        <time>2016-02-26T10:35:49.87Z</time>
      </trkpt>
      <trkpt lat="45.94569" lon="4.59112">
        <ele>513.799987793</ele>
        <time>2016-02-26T10:35:52.892Z</time>
      </trkpt>
      <trkpt lat="45.94571" lon="4.5911">
        <ele>514.099975586</ele>
        <time>2016-02-26T10:35:53.872Z</time>
      </trkpt>
      <trkpt lat="45.94577" lon="4.59103">
        <ele>514.900024414</ele>
        <time>2016-02-26T10:35:56.913Z</time>
      </trkpt>
      <trkpt lat="45.94579" lon="4.59101">
        <ele>515.200012207</ele>
        <time>2016-02-26T10:35:57.87Z</time>
      </trkpt>
      <trkpt lat="45.94586" lon="4.59094">
        <ele>515.400024414</ele>
        <time>2016-02-26T10:36:00.897Z</time>
      </trkpt>
      <trkpt lat="45.94588" lon="4.59091">
        <ele>515.299987793</ele>
        <time>2016-02-26T10:36:01.872Z</time>
      </trkpt>
      <trkpt lat="45.94593" lon="4.59087">
        <ele>515.299987793</ele>
        <time>2016-02-26T10:36:03.89Z</time>
      </trkpt>
      <trkpt lat="45.94596" lon="4.59084">
        <ele>515.400024414</ele>
        <time>2016-02-26T10:36:04.945Z</time>
      </trkpt>
      <trkpt lat="45.94602" lon="4.59079">
        <ele>515.900024414</ele>
        <time>2016-02-26T10:36:06.939Z</time>
      </trkpt>
      <trkpt lat="45.94604" lon="4.59076">
        <ele>516</ele>
        <time>2016-02-26T10:36:07.872Z</time>
      </trkpt>
      <trkpt lat="45.9461" lon="4.59071">
        <ele>516.700012207</ele>
        <time>2016-02-26T10:36:09.89Z</time>
      </trkpt>
      <trkpt lat="45.94612" lon="4.59068">
        <ele>516.599975586</ele>
        <time>2016-02-26T10:36:10.871Z</time>
      </trkpt>
      <trkpt lat="45.94617" lon="4.59062">
        <ele>516.5</ele>
        <time>2016-02-26T10:36:12.894Z</time>
      </trkpt>
      <trkpt lat="45.94619" lon="4.5906">
        <ele>516.299987793</ele>
        <time>2016-02-26T10:36:13.87Z</time>
      </trkpt>
      <trkpt lat="45.94625" lon="4.59054">
        <ele>516.5</ele>
        <time>2016-02-26T10:36:15.891Z</time>
      </trkpt>
      <trkpt lat="45.94627" lon="4.59052">
        <ele>516.299987793</ele>
        <time>2016-02-26T10:36:16.871Z</time>
      </trkpt>
      <trkpt lat="45.94634" lon="4.59048">
        <ele>516.799987793</ele>
        <time>2016-02-26T10:36:18.893Z</time>
      </trkpt>
      <trkpt lat="45.94636" lon="4.59045">
        <ele>516.799987793</ele>
        <time>2016-02-26T10:36:19.871Z</time>
      </trkpt>
      <trkpt lat="45.94641" lon="4.59041">
        <ele>517.200012207</ele>
        <time>2016-02-26T10:36:21.89Z</time>
      </trkpt>
      <trkpt lat="45.94644" lon="4.59038">
        <ele>517.5</ele>
        <time>2016-02-26T10:36:22.923Z</time>
      </trkpt>
      <trkpt lat="45.9465" lon="4.59032">
        <ele>517.799987793</ele>
        <time>2016-02-26T10:36:24.916Z</time>
      </trkpt>
      <trkpt lat="45.94653" lon="4.59029">
        <ele>518.200012207</ele>
        <time>2016-02-26T10:36:25.87Z</time>
      </trkpt>
      <trkpt lat="45.9466" lon="4.59024">
        <ele>518.400024414</ele>
        <time>2016-02-26T10:36:27.893Z</time>
      </trkpt>
      <trkpt lat="45.94663" lon="4.59021">
        <ele>518.299987793</ele>
        <time>2016-02-26T10:36:28.893Z</time>
      </trkpt>
      <trkpt lat="45.9467" lon="4.59015">
        <ele>518.5</ele>
        <time>2016-02-26T10:36:30.895Z</time>
      </trkpt>
      <trkpt lat="45.94673" lon="4.59012">
        <ele>518.599975586</ele>
        <time>2016-02-26T10:36:31.893Z</time>
      </trkpt>
      <trkpt lat="45.94679" lon="4.59007">
        <ele>518.599975586</ele>
        <time>2016-02-26T10:36:33.89Z</time>
      </trkpt>
      <trkpt lat="45.94682" lon="4.59004">
        <ele>518.400024414</ele>
        <time>2016-02-26T10:36:34.874Z</time>
      </trkpt>
      <trkpt lat="45.94688" lon="4.59">
        <ele>517.900024414</ele>
        <time>2016-02-26T10:36:36.899Z</time>
      </trkpt>
      <trkpt lat="45.94691" lon="4.58997">
        <ele>517.900024414</ele>
        <time>2016-02-26T10:36:37.871Z</time>
      </trkpt>
      <trkpt lat="45.94696" lon="4.58993">
        <ele>518.099975586</ele>
        <time>2016-02-26T10:36:39.89Z</time>
      </trkpt>
      <trkpt lat="45.94699" lon="4.58991">
        <ele>518.099975586</ele>
        <time>2016-02-26T10:36:40.871Z</time>
      </trkpt>
      <trkpt lat="45.94705" lon="4.58988">
        <ele>517.900024414</ele>
        <time>2016-02-26T10:36:42.926Z</time>
      </trkpt>
      <trkpt lat="45.94708" lon="4.58986">
        <ele>518.099975586</ele>
        <time>2016-02-26T10:36:43.869Z</time>
      </trkpt>
      <trkpt lat="45.94714" lon="4.58983">
        <ele>518.200012207</ele>
        <time>2016-02-26T10:36:45.948Z</time>
      </trkpt>
      <trkpt lat="45.94718" lon="4.58981">
        <ele>518.299987793</ele>
        <time>2016-02-26T10:36:46.871Z</time>
      </trkpt>
      <trkpt lat="45.94724" lon="4.58978">
        <ele>518.5</ele>
        <time>2016-02-26T10:36:48.905Z</time>
      </trkpt>
      <trkpt lat="45.94727" lon="4.58977">
        <ele>518.599975586</ele>
        <time>2016-02-26T10:36:49.87Z</time>
      </trkpt>
      <trkpt lat="45.94733" lon="4.58975">
        <ele>518.700012207</ele>
        <time>2016-02-26T10:36:51.889Z</time>
      </trkpt>
      <trkpt lat="45.94737" lon="4.58973">
        <ele>518.900024414</ele>
        <time>2016-02-26T10:36:52.871Z</time>
      </trkpt>
      <trkpt lat="45.94745" lon="4.5897">
        <ele>519.400024414</ele>
        <time>2016-02-26T10:36:55.89Z</time>
      </trkpt>
      <trkpt lat="45.94748" lon="4.5897">
        <ele>519.5</ele>
        <time>2016-02-26T10:36:56.875Z</time>
      </trkpt>
      <trkpt lat="45.94757" lon="4.58969">
        <ele>520.400024414</ele>
        <time>2016-02-26T10:36:59.889Z</time>
      </trkpt>
      <trkpt lat="45.9476" lon="4.58968">
        <ele>520.799987793</ele>
        <time>2016-02-26T10:37:00.884Z</time>
      </trkpt>
      <trkpt lat="45.94769" lon="4.58965">
        <ele>522.200012207</ele>
        <time>2016-02-26T10:37:03.889Z</time>
      </trkpt>
      <trkpt lat="45.94771" lon="4.58964">
        <ele>522.5</ele>
        <time>2016-02-26T10:37:04.873Z</time>
      </trkpt>
      <trkpt lat="45.94779" lon="4.58961">
        <ele>523.700012207</ele>
        <time>2016-02-26T10:37:07.89Z</time>
      </trkpt>
      <trkpt lat="45.94782" lon="4.58961">
        <ele>523.900024414</ele>
        <time>2016-02-26T10:37:08.871Z</time>
      </trkpt>
      <trkpt lat="45.94789" lon="4.58957">
        <ele>525.799987793</ele>
        <time>2016-02-26T10:37:11.916Z</time>
      </trkpt>
      <trkpt lat="45.94792" lon="4.58956">
        <ele>526.400024414</ele>
        <time>2016-02-26T10:37:12.873Z</time>
      </trkpt>
      <trkpt lat="45.94799" lon="4.58954">
        <ele>527.299987793</ele>
        <time>2016-02-26T10:37:15.891Z</time>
      </trkpt>
      <trkpt lat="45.94802" lon="4.58954">
        <ele>527.799987793</ele>
        <time>2016-02-26T10:37:16.91Z</time>
      </trkpt>
      <trkpt lat="45.9481" lon="4.58954">
        <ele>529.299987793</ele>
        <time>2016-02-26T10:37:19.925Z</time>
      </trkpt>
      <trkpt lat="45.94813" lon="4.58956">
        <ele>528.099975586</ele>
        <time>2016-02-26T10:37:20.875Z</time>
      </trkpt>
      <trkpt lat="45.94821" lon="4.58955">
        <ele>528.299987793</ele>
        <time>2016-02-26T10:37:23.89Z</time>
      </trkpt>
      <trkpt lat="45.94824" lon="4.58953">
        <ele>527.900024414</ele>
        <time>2016-02-26T10:37:24.878Z</time>
      </trkpt>
      <trkpt lat="45.94829" lon="4.58944">
        <ele>526</ele>
        <time>2016-02-26T10:37:26.891Z</time>
      </trkpt>
      <trkpt lat="45.94831" lon="4.5894">
        <ele>525.299987793</ele>
        <time>2016-02-26T10:37:27.869Z</time>
      </trkpt>
      <trkpt lat="45.94834" lon="4.5893">
        <ele>522.799987793</ele>
        <time>2016-02-26T10:37:29.894Z</time>
      </trkpt>
      <trkpt lat="45.94835" lon="4.58925">
        <ele>522.200012207</ele>
        <time>2016-02-26T10:37:30.876Z</time>
      </trkpt>
      <trkpt lat="45.94838" lon="4.58913">
        <ele>521.900024414</ele>
        <time>2016-02-26T10:37:32.894Z</time>
      </trkpt>
      <trkpt lat="45.9484" lon="4.58907">
        <ele>521.299987793</ele>
        <time>2016-02-26T10:37:33.869Z</time>
      </trkpt>
      <trkpt lat="45.94842" lon="4.58902">
        <ele>521.799987793</ele>
        <time>2016-02-26T10:37:34.91Z</time>
      </trkpt>
      <trkpt lat="45.94844" lon="4.58896">
        <ele>522</ele>
        <time>2016-02-26T10:37:35.898Z</time>
      </trkpt>
      <trkpt lat="45.94846" lon="4.5889">
        <ele>522.200012207</ele>
        <time>2016-02-26T10:37:36.893Z</time>
      </trkpt>
      <trkpt lat="45.94848" lon="4.58883">
        <ele>522.200012207</ele>
        <time>2016-02-26T10:37:37.905Z</time>
      </trkpt>
      <trkpt lat="45.9485" lon="4.58876">
        <ele>522.5</ele>
        <time>2016-02-26T10:37:38.929Z</time>
      </trkpt>
      <trkpt lat="45.94853" lon="4.58869">
        <ele>522.799987793</ele>
        <time>2016-02-26T10:37:39.872Z</time>
      </trkpt>
      <trkpt lat="45.94855" lon="4.58862">
        <ele>523</ele>
        <time>2016-02-26T10:37:40.909Z</time>
      </trkpt>
      <trkpt lat="45.94858" lon="4.58855">
        <ele>522.799987793</ele>
        <time>2016-02-26T10:37:41.871Z</time>
      </trkpt>
      <trkpt lat="45.94861" lon="4.58848">
        <ele>522.299987793</ele>
        <time>2016-02-26T10:37:42.894Z</time>
      </trkpt>
      <trkpt lat="45.94865" lon="4.58841">
        <ele>522.400024414</ele>
        <time>2016-02-26T10:37:43.871Z</time>
      </trkpt>
      <trkpt lat="45.94869" lon="4.58834">
        <ele>522.299987793</ele>
        <time>2016-02-26T10:37:44.914Z</time>
      </trkpt>
      <trkpt lat="45.94873" lon="4.58826">
        <ele>522.099975586</ele>
        <time>2016-02-26T10:37:45.871Z</time>
      </trkpt>
      <trkpt lat="45.94877" lon="4.58818">
        <ele>521.5</ele>
        <time>2016-02-26T10:37:46.891Z</time>
      </trkpt>
      <trkpt lat="45.94882" lon="4.5881">
        <ele>520.799987793</ele>
        <time>2016-02-26T10:37:47.874Z</time>
      </trkpt>
      <trkpt lat="45.94886" lon="4.58803">
        <ele>519.799987793</ele>
        <time>2016-02-26T10:37:48.894Z</time>
      </trkpt>
      <trkpt lat="45.94892" lon="4.58795">
        <ele>519.099975586</ele>
        <time>2016-02-26T10:37:49.871Z</time>
      </trkpt>
      <trkpt lat="45.94897" lon="4.58787">
        <ele>518.299987793</ele>
        <time>2016-02-26T10:37:50.893Z</time>
      </trkpt>
      <trkpt lat="45.94902" lon="4.5878">
        <ele>517.700012207</ele>
        <time>2016-02-26T10:37:51.869Z</time>
      </trkpt>
      <trkpt lat="45.94907" lon="4.58773">
        <ele>517.400024414</ele>
        <time>2016-02-26T10:37:52.89Z</time>
      </trkpt>
      <trkpt lat="45.94913" lon="4.58765">
        <ele>517.299987793</ele>
        <time>2016-02-26T10:37:53.869Z</time>
      </trkpt>
      <trkpt lat="45.94918" lon="4.58758">
        <ele>517</ele>
        <time>2016-02-26T10:37:54.896Z</time>
      </trkpt>
      <trkpt lat="45.94923" lon="4.58749">
        <ele>516.700012207</ele>
        <time>2016-02-26T10:37:55.869Z</time>
      </trkpt>
      <trkpt lat="45.94928" lon="4.58742">
        <ele>516.700012207</ele>
        <time>2016-02-26T10:37:57.014Z</time>
      </trkpt>
      <trkpt lat="45.94932" lon="4.58734">
        <ele>516.599975586</ele>
        <time>2016-02-26T10:37:57.872Z</time>
      </trkpt>
      <trkpt lat="45.94936" lon="4.58726">
        <ele>516.200012207</ele>
        <time>2016-02-26T10:37:58.947Z</time>
      </trkpt>
      <trkpt lat="45.94941" lon="4.58719">
        <ele>516.099975586</ele>
        <time>2016-02-26T10:37:59.872Z</time>
      </trkpt>
      <trkpt lat="45.94945" lon="4.58713">
        <ele>516</ele>
        <time>2016-02-26T10:38:00.893Z</time>
      </trkpt>
      <trkpt lat="45.94949" lon="4.58705">
        <ele>516</ele>
        <time>2016-02-26T10:38:01.895Z</time>
      </trkpt>
      <trkpt lat="45.94951" lon="4.58698">
        <ele>515.900024414</ele>
        <time>2016-02-26T10:38:02.892Z</time>
      </trkpt>
      <trkpt lat="45.94953" lon="4.58691">
        <ele>516.099975586</ele>
        <time>2016-02-26T10:38:03.869Z</time>
      </trkpt>
      <trkpt lat="45.94954" lon="4.58683">
        <ele>516</ele>
        <time>2016-02-26T10:38:04.895Z</time>
      </trkpt>
      <trkpt lat="45.94955" lon="4.58676">
        <ele>515.900024414</ele>
        <time>2016-02-26T10:38:05.87Z</time>
      </trkpt>
      <trkpt lat="45.94956" lon="4.5867">
        <ele>516</ele>
        <time>2016-02-26T10:38:06.916Z</time>
      </trkpt>
      <trkpt lat="45.94957" lon="4.58663">
        <ele>515.799987793</ele>
        <time>2016-02-26T10:38:07.869Z</time>
      </trkpt>
      <trkpt lat="45.94957" lon="4.58656">
        <ele>515.700012207</ele>
        <time>2016-02-26T10:38:08.892Z</time>
      </trkpt>
      <trkpt lat="45.94957" lon="4.5865">
        <ele>515.200012207</ele>
        <time>2016-02-26T10:38:09.869Z</time>
      </trkpt>
      <trkpt lat="45.94957" lon="4.58637">
        <ele>515</ele>
        <time>2016-02-26T10:38:11.891Z</time>
      </trkpt>
      <trkpt lat="45.94956" lon="4.5863">
        <ele>514.700012207</ele>
        <time>2016-02-26T10:38:12.87Z</time>
      </trkpt>
      <trkpt lat="45.94955" lon="4.58624">
        <ele>514.299987793</ele>
        <time>2016-02-26T10:38:13.89Z</time>
      </trkpt>
      <trkpt lat="45.94954" lon="4.58617">
        <ele>514.299987793</ele>
        <time>2016-02-26T10:38:14.89Z</time>
      </trkpt>
      <trkpt lat="45.94953" lon="4.5861">
        <ele>514.099975586</ele>
        <time>2016-02-26T10:38:15.924Z</time>
      </trkpt>
      <trkpt lat="45.94952" lon="4.58602">
        <ele>514</ele>
        <time>2016-02-26T10:38:16.871Z</time>
      </trkpt>
      <trkpt lat="45.94951" lon="4.58596">
        <ele>513.700012207</ele>
        <time>2016-02-26T10:38:17.892Z</time>
      </trkpt>
      <trkpt lat="45.9495" lon="4.58589">
        <ele>513.599975586</ele>
        <time>2016-02-26T10:38:18.873Z</time>
      </trkpt>
      <trkpt lat="45.94949" lon="4.58582">
        <ele>513.799987793</ele>
        <time>2016-02-26T10:38:19.889Z</time>
      </trkpt>
      <trkpt lat="45.94947" lon="4.58575">
        <ele>514.299987793</ele>
        <time>2016-02-26T10:38:20.873Z</time>
      </trkpt>
      <trkpt lat="45.94945" lon="4.58568">
        <ele>514.400024414</ele>
        <time>2016-02-26T10:38:21.899Z</time>
      </trkpt>
      <trkpt lat="45.94942" lon="4.58562">
        <ele>514.799987793</ele>
        <time>2016-02-26T10:38:22.871Z</time>
      </trkpt>
      <trkpt lat="45.9494" lon="4.58555">
        <ele>514.799987793</ele>
        <time>2016-02-26T10:38:23.889Z</time>
      </trkpt>
      <trkpt lat="45.94937" lon="4.58549">
        <ele>514.900024414</ele>
        <time>2016-02-26T10:38:24.877Z</time>
      </trkpt>
      <trkpt lat="45.94935" lon="4.58543">
        <ele>514.900024414</ele>
        <time>2016-02-26T10:38:25.892Z</time>
      </trkpt>
      <trkpt lat="45.94933" lon="4.58536">
        <ele>515</ele>
        <time>2016-02-26T10:38:26.871Z</time>
      </trkpt>
      <trkpt lat="45.94931" lon="4.58531">
        <ele>515.400024414</ele>
        <time>2016-02-26T10:38:27.988Z</time>
      </trkpt>
      <trkpt lat="45.94928" lon="4.58525">
        <ele>515.700012207</ele>
        <time>2016-02-26T10:38:28.89Z</time>
      </trkpt>
      <trkpt lat="45.94926" lon="4.58519">
        <ele>516</ele>
        <time>2016-02-26T10:38:29.892Z</time>
      </trkpt>
      <trkpt lat="45.94924" lon="4.58513">
        <ele>516.299987793</ele>
        <time>2016-02-26T10:38:30.877Z</time>
      </trkpt>
      <trkpt lat="45.9492" lon="4.58502">
        <ele>516.700012207</ele>
        <time>2016-02-26T10:38:32.898Z</time>
      </trkpt>
      <trkpt lat="45.94918" lon="4.58496">
        <ele>517</ele>
        <time>2016-02-26T10:38:33.871Z</time>
      </trkpt>
      <trkpt lat="45.94915" lon="4.58485">
        <ele>516.900024414</ele>
        <time>2016-02-26T10:38:35.908Z</time>
      </trkpt>
      <trkpt lat="45.94913" lon="4.58478">
        <ele>516.799987793</ele>
        <time>2016-02-26T10:38:36.87Z</time>
      </trkpt>
      <trkpt lat="45.9491" lon="4.58466">
        <ele>516.5</ele>
        <time>2016-02-26T10:38:38.979Z</time>
      </trkpt>
      <trkpt lat="45.94909" lon="4.5846">
        <ele>516.400024414</ele>
        <time>2016-02-26T10:38:39.871Z</time>
      </trkpt>
      <trkpt lat="45.94908" lon="4.58449">
        <ele>515.700012207</ele>
        <time>2016-02-26T10:38:41.89Z</time>
      </trkpt>
      <trkpt lat="45.94907" lon="4.58445">
        <ele>515.700012207</ele>
        <time>2016-02-26T10:38:42.875Z</time>
      </trkpt>
      <trkpt lat="45.94905" lon="4.58435">
        <ele>514.900024414</ele>
        <time>2016-02-26T10:38:44.895Z</time>
      </trkpt>
      <trkpt lat="45.94905" lon="4.5843">
        <ele>514.599975586</ele>
        <time>2016-02-26T10:38:45.871Z</time>
      </trkpt>
      <trkpt lat="45.94904" lon="4.58419">
        <ele>514.099975586</ele>
        <time>2016-02-26T10:38:47.889Z</time>
      </trkpt>
      <trkpt lat="45.94904" lon="4.58414">
        <ele>513.900024414</ele>
        <time>2016-02-26T10:38:48.87Z</time>
      </trkpt>
      <trkpt lat="45.94902" lon="4.58404">
        <ele>514.700012207</ele>
        <time>2016-02-26T10:38:50.891Z</time>
      </trkpt>
      <trkpt lat="45.94902" lon="4.58399">
        <ele>514.900024414</ele>
        <time>2016-02-26T10:38:51.87Z</time>
      </trkpt>
      <trkpt lat="45.94903" lon="4.58387">
        <ele>515.799987793</ele>
        <time>2016-02-26T10:38:53.926Z</time>
      </trkpt>
      <trkpt lat="45.94903" lon="4.58382">
        <ele>516.099975586</ele>
        <time>2016-02-26T10:38:54.877Z</time>
      </trkpt>
      <trkpt lat="45.94902" lon="4.58371">
        <ele>517.099975586</ele>
        <time>2016-02-26T10:38:56.907Z</time>
      </trkpt>
      <trkpt lat="45.94902" lon="4.58366">
        <ele>517.700012207</ele>
        <time>2016-02-26T10:38:57.871Z</time>
      </trkpt>
      <trkpt lat="45.94902" lon="4.58353">
        <ele>518.5</ele>
        <time>2016-02-26T10:39:00.893Z</time>
      </trkpt>
      <trkpt lat="45.94903" lon="4.58349">
        <ele>518.400024414</ele>
        <time>2016-02-26T10:39:01.87Z</time>
      </trkpt>
      <trkpt lat="45.94906" lon="4.58342">
        <ele>519.5</ele>
        <time>2016-02-26T10:39:03.889Z</time>
      </trkpt>
      <trkpt lat="45.94908" lon="4.58338">
        <ele>519.799987793</ele>
        <time>2016-02-26T10:39:04.873Z</time>
      </trkpt>
      <trkpt lat="45.94914" lon="4.5833">
        <ele>520.900024414</ele>
        <time>2016-02-26T10:39:06.894Z</time>
      </trkpt>
      <trkpt lat="45.94917" lon="4.58326">
        <ele>521.099975586</ele>
        <time>2016-02-26T10:39:07.871Z</time>
      </trkpt>
      <trkpt lat="45.94922" lon="4.58323">
        <ele>521.700012207</ele>
        <time>2016-02-26T10:39:08.892Z</time>
      </trkpt>
      <trkpt lat="45.94926" lon="4.5832">
        <ele>522</ele>
        <time>2016-02-26T10:39:09.871Z</time>
      </trkpt>
      <trkpt lat="45.9493" lon="4.58317">
        <ele>522.299987793</ele>
        <time>2016-02-26T10:39:10.891Z</time>
      </trkpt>
      <trkpt lat="45.94934" lon="4.58314">
        <ele>522.599975586</ele>
        <time>2016-02-26T10:39:11.868Z</time>
      </trkpt>
      <trkpt lat="45.94938" lon="4.58311">
        <ele>523</ele>
        <time>2016-02-26T10:39:12.894Z</time>
      </trkpt>
      <trkpt lat="45.94942" lon="4.58308">
        <ele>523.299987793</ele>
        <time>2016-02-26T10:39:13.908Z</time>
      </trkpt>
      <trkpt lat="45.94951" lon="4.58304">
        <ele>523.200012207</ele>
        <time>2016-02-26T10:39:15.893Z</time>
      </trkpt>
      <trkpt lat="45.94955" lon="4.58303">
        <ele>522.599975586</ele>
        <time>2016-02-26T10:39:16.874Z</time>
      </trkpt>
      <trkpt lat="45.94964" lon="4.58301">
        <ele>521.400024414</ele>
        <time>2016-02-26T10:39:18.893Z</time>
      </trkpt>
      <trkpt lat="45.94967" lon="4.58301">
        <ele>521.099975586</ele>
        <time>2016-02-26T10:39:19.869Z</time>
      </trkpt>
      <trkpt lat="45.94975" lon="4.583">
        <ele>521</ele>
        <time>2016-02-26T10:39:21.891Z</time>
      </trkpt>
      <trkpt lat="45.94978" lon="4.583">
        <ele>520.799987793</ele>
        <time>2016-02-26T10:39:22.888Z</time>
      </trkpt>
      <trkpt lat="45.94983" lon="4.583">
        <ele>520.5</ele>
        <time>2016-02-26T10:39:23.893Z</time>
      </trkpt>
      <trkpt lat="45.94988" lon="4.583">
        <ele>520.599975586</ele>
        <time>2016-02-26T10:39:24.875Z</time>
      </trkpt>
      <trkpt lat="45.94993" lon="4.58301">
        <ele>521</ele>
        <time>2016-02-26T10:39:25.891Z</time>
      </trkpt>
      <trkpt lat="45.94997" lon="4.583">
        <ele>521.299987793</ele>
        <time>2016-02-26T10:39:26.872Z</time>
      </trkpt>
      <trkpt lat="45.95002" lon="4.58299">
        <ele>521.700012207</ele>
        <time>2016-02-26T10:39:27.892Z</time>
      </trkpt>
      <trkpt lat="45.95007" lon="4.58299">
        <ele>522.200012207</ele>
        <time>2016-02-26T10:39:28.889Z</time>
      </trkpt>
      <trkpt lat="45.95015" lon="4.58299">
        <ele>523.099975586</ele>
        <time>2016-02-26T10:39:30.895Z</time>
      </trkpt>
      <trkpt lat="45.9502" lon="4.58299">
        <ele>523.400024414</ele>
        <time>2016-02-26T10:39:31.892Z</time>
      </trkpt>
      <trkpt lat="45.95028" lon="4.58301">
        <ele>523.599975586</ele>
        <time>2016-02-26T10:39:33.888Z</time>
      </trkpt>
      <trkpt lat="45.95032" lon="4.58301">
        <ele>523.799987793</ele>
        <time>2016-02-26T10:39:34.873Z</time>
      </trkpt>
      <trkpt lat="45.95041" lon="4.58302">
        <ele>524.700012207</ele>
        <time>2016-02-26T10:39:36.899Z</time>
      </trkpt>
      <trkpt lat="45.95046" lon="4.58302">
        <ele>525</ele>
        <time>2016-02-26T10:39:37.871Z</time>
      </trkpt>
      <trkpt lat="45.95051" lon="4.58303">
        <ele>525.400024414</ele>
        <time>2016-02-26T10:39:38.891Z</time>
      </trkpt>
      <trkpt lat="45.95056" lon="4.58304">
        <ele>525.5</ele>
        <time>2016-02-26T10:39:39.871Z</time>
      </trkpt>
      <trkpt lat="45.95061" lon="4.58305">
        <ele>523.700012207</ele>
        <time>2016-02-26T10:39:40.891Z</time>
      </trkpt>
      <trkpt lat="45.95066" lon="4.58306">
        <ele>523.099975586</ele>
        <time>2016-02-26T10:39:41.873Z</time>
      </trkpt>
      <trkpt lat="45.95071" lon="4.58307">
        <ele>522.5</ele>
        <time>2016-02-26T10:39:42.894Z</time>
      </trkpt>
      <trkpt lat="45.95076" lon="4.58308">
        <ele>521.700012207</ele>
        <time>2016-02-26T10:39:43.918Z</time>
      </trkpt>
      <trkpt lat="45.95082" lon="4.58309">
        <ele>522.200012207</ele>
        <time>2016-02-26T10:39:44.895Z</time>
      </trkpt>
      <trkpt lat="45.95087" lon="4.58309">
        <ele>523</ele>
        <time>2016-02-26T10:39:45.869Z</time>
      </trkpt>
      <trkpt lat="45.95092" lon="4.5831">
        <ele>522.700012207</ele>
        <time>2016-02-26T10:39:46.891Z</time>
      </trkpt>
      <trkpt lat="45.95097" lon="4.58311">
        <ele>522.400024414</ele>
        <time>2016-02-26T10:39:47.871Z</time>
      </trkpt>
      <trkpt lat="45.95103" lon="4.58312">
        <ele>523.400024414</ele>
        <time>2016-02-26T10:39:48.909Z</time>
      </trkpt>
      <trkpt lat="45.95108" lon="4.58312">
        <ele>523.299987793</ele>
        <time>2016-02-26T10:39:49.869Z</time>
      </trkpt>
      <trkpt lat="45.95113" lon="4.58313">
        <ele>523</ele>
        <time>2016-02-26T10:39:50.895Z</time>
      </trkpt>
      <trkpt lat="45.95119" lon="4.58313">
        <ele>523.299987793</ele>
        <time>2016-02-26T10:39:51.869Z</time>
      </trkpt>
      <trkpt lat="45.95124" lon="4.58315">
        <ele>523.799987793</ele>
        <time>2016-02-26T10:39:52.889Z</time>
      </trkpt>
      <trkpt lat="45.95129" lon="4.58315">
        <ele>524.099975586</ele>
        <time>2016-02-26T10:39:53.869Z</time>
      </trkpt>
      <trkpt lat="45.95134" lon="4.58316">
        <ele>524.099975586</ele>
        <time>2016-02-26T10:39:54.909Z</time>
      </trkpt>
      <trkpt lat="45.95139" lon="4.58316">
        <ele>523.799987793</ele>
        <time>2016-02-26T10:39:55.873Z</time>
      </trkpt>
      <trkpt lat="45.95144" lon="4.58317">
        <ele>523.900024414</ele>
        <time>2016-02-26T10:39:56.889Z</time>
      </trkpt>
      <trkpt lat="45.95148" lon="4.58318">
        <ele>522.599975586</ele>
        <time>2016-02-26T10:39:57.871Z</time>
      </trkpt>
      <trkpt lat="45.95153" lon="4.58318">
        <ele>522.099975586</ele>
        <time>2016-02-26T10:39:58.891Z</time>
      </trkpt>
      <trkpt lat="45.95158" lon="4.58319">
        <ele>521.900024414</ele>
        <time>2016-02-26T10:39:59.869Z</time>
      </trkpt>
      <trkpt lat="45.95163" lon="4.58319">
        <ele>521.799987793</ele>
        <time>2016-02-26T10:40:00.895Z</time>
      </trkpt>
      <trkpt lat="45.95168" lon="4.58319">
        <ele>521.599975586</ele>
        <time>2016-02-26T10:40:01.871Z</time>
      </trkpt>
      <trkpt lat="45.95173" lon="4.5832">
        <ele>521.400024414</ele>
        <time>2016-02-26T10:40:02.89Z</time>
      </trkpt>
      <trkpt lat="45.95178" lon="4.58321">
        <ele>521.400024414</ele>
        <time>2016-02-26T10:40:03.873Z</time>
      </trkpt>
      <trkpt lat="45.95183" lon="4.58321">
        <ele>522.099975586</ele>
        <time>2016-02-26T10:40:04.891Z</time>
      </trkpt>
      <trkpt lat="45.95188" lon="4.58322">
        <ele>522.400024414</ele>
        <time>2016-02-26T10:40:05.871Z</time>
      </trkpt>
      <trkpt lat="45.95193" lon="4.58323">
        <ele>522.599975586</ele>
        <time>2016-02-26T10:40:06.893Z</time>
      </trkpt>
      <trkpt lat="45.95198" lon="4.58324">
        <ele>523.200012207</ele>
        <time>2016-02-26T10:40:07.868Z</time>
      </trkpt>
      <trkpt lat="45.95204" lon="4.58325">
        <ele>523.200012207</ele>
        <time>2016-02-26T10:40:08.927Z</time>
      </trkpt>
      <trkpt lat="45.95209" lon="4.58326">
        <ele>522.5</ele>
        <time>2016-02-26T10:40:09.868Z</time>
      </trkpt>
      <trkpt lat="45.95214" lon="4.58328">
        <ele>522.799987793</ele>
        <time>2016-02-26T10:40:10.889Z</time>
      </trkpt>
      <trkpt lat="45.95219" lon="4.58329">
        <ele>523.200012207</ele>
        <time>2016-02-26T10:40:11.871Z</time>
      </trkpt>
      <trkpt lat="45.95224" lon="4.5833">
        <ele>523.5</ele>
        <time>2016-02-26T10:40:12.894Z</time>
      </trkpt>
      <trkpt lat="45.95229" lon="4.58332">
        <ele>524.299987793</ele>
        <time>2016-02-26T10:40:13.871Z</time>
      </trkpt>
      <trkpt lat="45.95234" lon="4.58333">
        <ele>524.5</ele>
        <time>2016-02-26T10:40:14.965Z</time>
      </trkpt>
      <trkpt lat="45.95239" lon="4.58334">
        <ele>524.700012207</ele>
        <time>2016-02-26T10:40:15.874Z</time>
      </trkpt>
      <trkpt lat="45.95247" lon="4.58337">
        <ele>525.200012207</ele>
        <time>2016-02-26T10:40:17.889Z</time>
      </trkpt>
      <trkpt lat="45.95251" lon="4.58339">
        <ele>525.400024414</ele>
        <time>2016-02-26T10:40:18.87Z</time>
      </trkpt>
      <trkpt lat="45.95259" lon="4.58342">
        <ele>525.599975586</ele>
        <time>2016-02-26T10:40:20.89Z</time>
      </trkpt>
      <trkpt lat="45.95263" lon="4.58344">
        <ele>525.599975586</ele>
        <time>2016-02-26T10:40:21.871Z</time>
      </trkpt>
      <trkpt lat="45.95272" lon="4.58347">
        <ele>525.700012207</ele>
        <time>2016-02-26T10:40:23.889Z</time>
      </trkpt>
      <trkpt lat="45.95276" lon="4.5835">
        <ele>525.900024414</ele>
        <time>2016-02-26T10:40:24.875Z</time>
      </trkpt>
      <trkpt lat="45.95281" lon="4.58352">
        <ele>526.5</ele>
        <time>2016-02-26T10:40:25.968Z</time>
      </trkpt>
      <trkpt lat="45.95285" lon="4.58353">
        <ele>526.299987793</ele>
        <time>2016-02-26T10:40:26.87Z</time>
      </trkpt>
      <trkpt lat="45.9529" lon="4.58356">
        <ele>526.200012207</ele>
        <time>2016-02-26T10:40:27.925Z</time>
      </trkpt>
      <trkpt lat="45.95295" lon="4.58358">
        <ele>526.400024414</ele>
        <time>2016-02-26T10:40:28.889Z</time>
      </trkpt>
      <trkpt lat="45.953" lon="4.58361">
        <ele>526.299987793</ele>
        <time>2016-02-26T10:40:29.893Z</time>
      </trkpt>
      <trkpt lat="45.95304" lon="4.58363">
        <ele>526.299987793</ele>
        <time>2016-02-26T10:40:30.875Z</time>
      </trkpt>
      <trkpt lat="45.95308" lon="4.58365">
        <ele>526.5</ele>
        <time>2016-02-26T10:40:31.89Z</time>
      </trkpt>
      <trkpt lat="45.95312" lon="4.58369">
        <ele>526.599975586</ele>
        <time>2016-02-26T10:40:32.874Z</time>
      </trkpt>
      <trkpt lat="45.95316" lon="4.58372">
        <ele>526.700012207</ele>
        <time>2016-02-26T10:40:33.889Z</time>
      </trkpt>
      <trkpt lat="45.9532" lon="4.58376">
        <ele>527</ele>
        <time>2016-02-26T10:40:34.876Z</time>
      </trkpt>
      <trkpt lat="45.95328" lon="4.58382">
        <ele>527.099975586</ele>
        <time>2016-02-26T10:40:36.895Z</time>
      </trkpt>
      <trkpt lat="45.95331" lon="4.58385">
        <ele>527.400024414</ele>
        <time>2016-02-26T10:40:37.895Z</time>
      </trkpt>
      <trkpt lat="45.95338" lon="4.58392">
        <ele>527.5</ele>
        <time>2016-02-26T10:40:39.889Z</time>
      </trkpt>
      <trkpt lat="45.95342" lon="4.58395">
        <ele>527.599975586</ele>
        <time>2016-02-26T10:40:40.871Z</time>
      </trkpt>
      <trkpt lat="45.95346" lon="4.58399">
        <ele>527.599975586</ele>
        <time>2016-02-26T10:40:41.892Z</time>
      </trkpt>
      <trkpt lat="45.9535" lon="4.58402">
        <ele>527.900024414</ele>
        <time>2016-02-26T10:40:42.874Z</time>
      </trkpt>
      <trkpt lat="45.95354" lon="4.58406">
        <ele>528.099975586</ele>
        <time>2016-02-26T10:40:43.889Z</time>
      </trkpt>
      <trkpt lat="45.95358" lon="4.58411">
        <ele>528.099975586</ele>
        <time>2016-02-26T10:40:44.879Z</time>
      </trkpt>
      <trkpt lat="45.95363" lon="4.58415">
        <ele>528</ele>
        <time>2016-02-26T10:40:45.904Z</time>
      </trkpt>
      <trkpt lat="45.95367" lon="4.5842">
        <ele>527.799987793</ele>
        <time>2016-02-26T10:40:46.865Z</time>
      </trkpt>
      <trkpt lat="45.95371" lon="4.58424">
        <ele>527.400024414</ele>
        <time>2016-02-26T10:40:47.888Z</time>
      </trkpt>
      <trkpt lat="45.95375" lon="4.58429">
        <ele>527.099975586</ele>
        <time>2016-02-26T10:40:48.874Z</time>
      </trkpt>
      <trkpt lat="45.9538" lon="4.58434">
        <ele>527.200012207</ele>
        <time>2016-02-26T10:40:49.889Z</time>
      </trkpt>
      <trkpt lat="45.95384" lon="4.58439">
        <ele>526.799987793</ele>
        <time>2016-02-26T10:40:50.92Z</time>
      </trkpt>
      <trkpt lat="45.95389" lon="4.58444">
        <ele>526.599975586</ele>
        <time>2016-02-26T10:40:51.889Z</time>
      </trkpt>
      <trkpt lat="45.95393" lon="4.58449">
        <ele>526.700012207</ele>
        <time>2016-02-26T10:40:52.873Z</time>
      </trkpt>
      <trkpt lat="45.95397" lon="4.58454">
        <ele>526.5</ele>
        <time>2016-02-26T10:40:53.891Z</time>
      </trkpt>
      <trkpt lat="45.95401" lon="4.58458">
        <ele>526.599975586</ele>
        <time>2016-02-26T10:40:54.883Z</time>
      </trkpt>
      <trkpt lat="45.95405" lon="4.58463">
        <ele>526.400024414</ele>
        <time>2016-02-26T10:40:55.903Z</time>
      </trkpt>
      <trkpt lat="45.95409" lon="4.58468">
        <ele>526.299987793</ele>
        <time>2016-02-26T10:40:56.872Z</time>
      </trkpt>
      <trkpt lat="45.95412" lon="4.58473">
        <ele>526</ele>
        <time>2016-02-26T10:40:57.889Z</time>
      </trkpt>
      <trkpt lat="45.95416" lon="4.58478">
        <ele>525.799987793</ele>
        <time>2016-02-26T10:40:58.873Z</time>
      </trkpt>
      <trkpt lat="45.9542" lon="4.58482">
        <ele>525.5</ele>
        <time>2016-02-26T10:40:59.89Z</time>
      </trkpt>
      <trkpt lat="45.95424" lon="4.58487">
        <ele>525.400024414</ele>
        <time>2016-02-26T10:41:00.87Z</time>
      </trkpt>
      <trkpt lat="45.95428" lon="4.58492">
        <ele>525.200012207</ele>
        <time>2016-02-26T10:41:01.931Z</time>
      </trkpt>
      <trkpt lat="45.95431" lon="4.58497">
        <ele>525.099975586</ele>
        <time>2016-02-26T10:41:02.87Z</time>
      </trkpt>
      <trkpt lat="45.95435" lon="4.58502">
        <ele>525</ele>
        <time>2016-02-26T10:41:03.89Z</time>
      </trkpt>
      <trkpt lat="45.95439" lon="4.58506">
        <ele>524.799987793</ele>
        <time>2016-02-26T10:41:04.882Z</time>
      </trkpt>
      <trkpt lat="45.95442" lon="4.58512">
        <ele>524.400024414</ele>
        <time>2016-02-26T10:41:05.891Z</time>
      </trkpt>
      <trkpt lat="45.95446" lon="4.58517">
        <ele>523.900024414</ele>
        <time>2016-02-26T10:41:06.87Z</time>
      </trkpt>
      <trkpt lat="45.9545" lon="4.58523">
        <ele>523.599975586</ele>
        <time>2016-02-26T10:41:07.889Z</time>
      </trkpt>
      <trkpt lat="45.95453" lon="4.5853">
        <ele>523.200012207</ele>
        <time>2016-02-26T10:41:08.872Z</time>
      </trkpt>
      <trkpt lat="45.95456" lon="4.58536">
        <ele>522.900024414</ele>
        <time>2016-02-26T10:41:09.889Z</time>
      </trkpt>
      <trkpt lat="45.95458" lon="4.58542">
        <ele>522.799987793</ele>
        <time>2016-02-26T10:41:10.871Z</time>
      </trkpt>
      <trkpt lat="45.9546" lon="4.58547">
        <ele>522.599975586</ele>
        <time>2016-02-26T10:41:11.891Z</time>
      </trkpt>
      <trkpt lat="45.95462" lon="4.58553">
        <ele>522.400024414</ele>
        <time>2016-02-26T10:41:12.87Z</time>
      </trkpt>
      <trkpt lat="45.95466" lon="4.58563">
        <ele>523.299987793</ele>
        <time>2016-02-26T10:41:14.94Z</time>
      </trkpt>
      <trkpt lat="45.95468" lon="4.58569">
        <ele>523.400024414</ele>
        <time>2016-02-26T10:41:15.871Z</time>
      </trkpt>
      <trkpt lat="45.95471" lon="4.5858">
        <ele>524</ele>
        <time>2016-02-26T10:41:17.906Z</time>
      </trkpt>
      <trkpt lat="45.95472" lon="4.58586">
        <ele>523.900024414</ele>
        <time>2016-02-26T10:41:18.879Z</time>
      </trkpt>
      <trkpt lat="45.95475" lon="4.58598">
        <ele>525.099975586</ele>
        <time>2016-02-26T10:41:20.89Z</time>
      </trkpt>
      <trkpt lat="45.95477" lon="4.58604">
        <ele>524.799987793</ele>
        <time>2016-02-26T10:41:21.889Z</time>
      </trkpt>
      <trkpt lat="45.95479" lon="4.5861">
        <ele>525.099975586</ele>
        <time>2016-02-26T10:41:22.904Z</time>
      </trkpt>
      <trkpt lat="45.9548" lon="4.58617">
        <ele>525.5</ele>
        <time>2016-02-26T10:41:23.868Z</time>
      </trkpt>
      <trkpt lat="45.95481" lon="4.58624">
        <ele>525.599975586</ele>
        <time>2016-02-26T10:41:24.906Z</time>
      </trkpt>
      <trkpt lat="45.95483" lon="4.58631">
        <ele>525.700012207</ele>
        <time>2016-02-26T10:41:25.873Z</time>
      </trkpt>
      <trkpt lat="45.95484" lon="4.58639">
        <ele>525.400024414</ele>
        <time>2016-02-26T10:41:26.902Z</time>
      </trkpt>
      <trkpt lat="45.95486" lon="4.58647">
        <ele>525.400024414</ele>
        <time>2016-02-26T10:41:27.872Z</time>
      </trkpt>
      <trkpt lat="45.95487" lon="4.58654">
        <ele>525.5</ele>
        <time>2016-02-26T10:41:28.948Z</time>
      </trkpt>
      <trkpt lat="45.95488" lon="4.58662">
        <ele>525.599975586</ele>
        <time>2016-02-26T10:41:29.871Z</time>
      </trkpt>
      <trkpt lat="45.95489" lon="4.58669">
        <ele>525.599975586</ele>
        <time>2016-02-26T10:41:30.892Z</time>
      </trkpt>
      <trkpt lat="45.9549" lon="4.58676">
        <ele>525.299987793</ele>
        <time>2016-02-26T10:41:31.871Z</time>
      </trkpt>
      <trkpt lat="45.9549" lon="4.58683">
        <ele>526</ele>
        <time>2016-02-26T10:41:32.894Z</time>
      </trkpt>
      <trkpt lat="45.9549" lon="4.5869">
        <ele>526.799987793</ele>
        <time>2016-02-26T10:41:33.873Z</time>
      </trkpt>
      <trkpt lat="45.95492" lon="4.58697">
        <ele>527.400024414</ele>
        <time>2016-02-26T10:41:34.904Z</time>
      </trkpt>
      <trkpt lat="45.95492" lon="4.58704">
        <ele>527.700012207</ele>
        <time>2016-02-26T10:41:35.872Z</time>
      </trkpt>
      <trkpt lat="45.95493" lon="4.58712">
        <ele>527.900024414</ele>
        <time>2016-02-26T10:41:36.894Z</time>
      </trkpt>
      <trkpt lat="45.95493" lon="4.5872">
        <ele>528.099975586</ele>
        <time>2016-02-26T10:41:37.871Z</time>
      </trkpt>
      <trkpt lat="45.95492" lon="4.58728">
        <ele>528.400024414</ele>
        <time>2016-02-26T10:41:38.892Z</time>
      </trkpt>
      <trkpt lat="45.95492" lon="4.58736">
        <ele>528.200012207</ele>
        <time>2016-02-26T10:41:39.898Z</time>
      </trkpt>
      <trkpt lat="45.95491" lon="4.58744">
        <ele>528</ele>
        <time>2016-02-26T10:41:40.888Z</time>
      </trkpt>
      <trkpt lat="45.9549" lon="4.58753">
        <ele>527.099975586</ele>
        <time>2016-02-26T10:41:41.872Z</time>
      </trkpt>
      <trkpt lat="45.95491" lon="4.58761">
        <ele>527.099975586</ele>
        <time>2016-02-26T10:41:42.895Z</time>
      </trkpt>
      <trkpt lat="45.95491" lon="4.58768">
        <ele>527</ele>
        <time>2016-02-26T10:41:43.885Z</time>
      </trkpt>
      <trkpt lat="45.95493" lon="4.58776">
        <ele>526.200012207</ele>
        <time>2016-02-26T10:41:44.911Z</time>
      </trkpt>
      <trkpt lat="45.95495" lon="4.58782">
        <ele>525.5</ele>
        <time>2016-02-26T10:41:45.869Z</time>
      </trkpt>
      <trkpt lat="45.95497" lon="4.58789">
        <ele>525.5</ele>
        <time>2016-02-26T10:41:46.925Z</time>
      </trkpt>
      <trkpt lat="45.95499" lon="4.58795">
        <ele>524.900024414</ele>
        <time>2016-02-26T10:41:47.872Z</time>
      </trkpt>
      <trkpt lat="45.95502" lon="4.58801">
        <ele>524.5</ele>
        <time>2016-02-26T10:41:48.894Z</time>
      </trkpt>
      <trkpt lat="45.95506" lon="4.58807">
        <ele>524.299987793</ele>
        <time>2016-02-26T10:41:49.87Z</time>
      </trkpt>
      <trkpt lat="45.95509" lon="4.58813">
        <ele>524.299987793</ele>
        <time>2016-02-26T10:41:50.889Z</time>
      </trkpt>
      <trkpt lat="45.95513" lon="4.58819">
        <ele>524.099975586</ele>
        <time>2016-02-26T10:41:51.871Z</time>
      </trkpt>
      <trkpt lat="45.95516" lon="4.58825">
        <ele>524.400024414</ele>
        <time>2016-02-26T10:41:52.889Z</time>
      </trkpt>
      <trkpt lat="45.95519" lon="4.58832">
        <ele>524.400024414</ele>
        <time>2016-02-26T10:41:53.871Z</time>
      </trkpt>
      <trkpt lat="45.95523" lon="4.58838">
        <ele>524.400024414</ele>
        <time>2016-02-26T10:41:54.909Z</time>
      </trkpt>
      <trkpt lat="45.95527" lon="4.58843">
        <ele>524.700012207</ele>
        <time>2016-02-26T10:41:55.87Z</time>
      </trkpt>
      <trkpt lat="45.95532" lon="4.58847">
        <ele>524.599975586</ele>
        <time>2016-02-26T10:41:56.891Z</time>
      </trkpt>
      <trkpt lat="45.95537" lon="4.58851">
        <ele>524.5</ele>
        <time>2016-02-26T10:41:57.87Z</time>
      </trkpt>
      <trkpt lat="45.95543" lon="4.58854">
        <ele>524.200012207</ele>
        <time>2016-02-26T10:41:58.897Z</time>
      </trkpt>
      <trkpt lat="45.95549" lon="4.58857">
        <ele>523.900024414</ele>
        <time>2016-02-26T10:41:59.868Z</time>
      </trkpt>
      <trkpt lat="45.95555" lon="4.5886">
        <ele>523.900024414</ele>
        <time>2016-02-26T10:42:00.892Z</time>
      </trkpt>
      <trkpt lat="45.95561" lon="4.58861">
        <ele>523.900024414</ele>
        <time>2016-02-26T10:42:01.901Z</time>
      </trkpt>
      <trkpt lat="45.95566" lon="4.58862">
        <ele>523.799987793</ele>
        <time>2016-02-26T10:42:02.889Z</time>
      </trkpt>
      <trkpt lat="45.95571" lon="4.58863">
        <ele>523.5</ele>
        <time>2016-02-26T10:42:03.87Z</time>
      </trkpt>
      <trkpt lat="45.95576" lon="4.58864">
        <ele>523.799987793</ele>
        <time>2016-02-26T10:42:04.939Z</time>
      </trkpt>
      <trkpt lat="45.95581" lon="4.58864">
        <ele>523.900024414</ele>
        <time>2016-02-26T10:42:05.869Z</time>
      </trkpt>
      <trkpt lat="45.95586" lon="4.58863">
        <ele>524</ele>
        <time>2016-02-26T10:42:06.891Z</time>
      </trkpt>
      <trkpt lat="45.95591" lon="4.58863">
        <ele>524.099975586</ele>
        <time>2016-02-26T10:42:07.87Z</time>
      </trkpt>
      <trkpt lat="45.95595" lon="4.58863">
        <ele>524.5</ele>
        <time>2016-02-26T10:42:08.89Z</time>
      </trkpt>
      <trkpt lat="45.956" lon="4.58863">
        <ele>524.599975586</ele>
        <time>2016-02-26T10:42:09.868Z</time>
      </trkpt>
      <trkpt lat="45.95605" lon="4.58862">
        <ele>524.900024414</ele>
        <time>2016-02-26T10:42:10.968Z</time>
      </trkpt>
      <trkpt lat="45.9561" lon="4.58862">
        <ele>525.5</ele>
        <time>2016-02-26T10:42:11.87Z</time>
      </trkpt>
      <trkpt lat="45.95615" lon="4.58861">
        <ele>525.700012207</ele>
        <time>2016-02-26T10:42:12.888Z</time>
      </trkpt>
      <trkpt lat="45.95621" lon="4.5886">
        <ele>526.200012207</ele>
        <time>2016-02-26T10:42:13.87Z</time>
      </trkpt>
      <trkpt lat="45.95627" lon="4.58859">
        <ele>526.299987793</ele>
        <time>2016-02-26T10:42:14.932Z</time>
      </trkpt>
      <trkpt lat="45.95632" lon="4.58858">
        <ele>526.599975586</ele>
        <time>2016-02-26T10:42:15.871Z</time>
      </trkpt>
      <trkpt lat="45.95638" lon="4.58856">
        <ele>527.099975586</ele>
        <time>2016-02-26T10:42:16.891Z</time>
      </trkpt>
      <trkpt lat="45.95643" lon="4.58855">
        <ele>527.200012207</ele>
        <time>2016-02-26T10:42:17.872Z</time>
      </trkpt>
      <trkpt lat="45.95648" lon="4.58854">
        <ele>527.099975586</ele>
        <time>2016-02-26T10:42:18.893Z</time>
      </trkpt>
      <trkpt lat="45.95654" lon="4.58853">
        <ele>527.400024414</ele>
        <time>2016-02-26T10:42:19.87Z</time>
      </trkpt>
      <trkpt lat="45.95658" lon="4.58851">
        <ele>527.099975586</ele>
        <time>2016-02-26T10:42:20.898Z</time>
      </trkpt>
      <trkpt lat="45.95663" lon="4.5885">
        <ele>527</ele>
        <time>2016-02-26T10:42:21.868Z</time>
      </trkpt>
      <trkpt lat="45.95668" lon="4.58848">
        <ele>526.900024414</ele>
        <time>2016-02-26T10:42:22.89Z</time>
      </trkpt>
      <trkpt lat="45.95673" lon="4.58847">
        <ele>527.599975586</ele>
        <time>2016-02-26T10:42:23.87Z</time>
      </trkpt>
      <trkpt lat="45.95678" lon="4.58846">
        <ele>528.200012207</ele>
        <time>2016-02-26T10:42:24.912Z</time>
      </trkpt>
      <trkpt lat="45.95683" lon="4.58845">
        <ele>528.400024414</ele>
        <time>2016-02-26T10:42:25.869Z</time>
      </trkpt>
      <trkpt lat="45.95688" lon="4.58844">
        <ele>528.900024414</ele>
        <time>2016-02-26T10:42:26.891Z</time>
      </trkpt>
      <trkpt lat="45.95694" lon="4.58842">
        <ele>529.5</ele>
        <time>2016-02-26T10:42:27.871Z</time>
      </trkpt>
      <trkpt lat="45.95698" lon="4.5884">
        <ele>529.799987793</ele>
        <time>2016-02-26T10:42:28.905Z</time>
      </trkpt>
      <trkpt lat="45.95703" lon="4.58838">
        <ele>530.5</ele>
        <time>2016-02-26T10:42:29.875Z</time>
      </trkpt>
      <trkpt lat="45.95711" lon="4.58834">
        <ele>530.099975586</ele>
        <time>2016-02-26T10:42:31.91Z</time>
      </trkpt>
      <trkpt lat="45.95715" lon="4.58831">
        <ele>529.5</ele>
        <time>2016-02-26T10:42:32.87Z</time>
      </trkpt>
      <trkpt lat="45.95719" lon="4.58827">
        <ele>529.5</ele>
        <time>2016-02-26T10:42:33.89Z</time>
      </trkpt>
      <trkpt lat="45.95723" lon="4.58824">
        <ele>530</ele>
        <time>2016-02-26T10:42:34.891Z</time>
      </trkpt>
      <trkpt lat="45.95727" lon="4.5882">
        <ele>529.599975586</ele>
        <time>2016-02-26T10:42:35.907Z</time>
      </trkpt>
      <trkpt lat="45.95731" lon="4.58817">
        <ele>529.799987793</ele>
        <time>2016-02-26T10:42:36.875Z</time>
      </trkpt>
      <trkpt lat="45.95738" lon="4.5881">
        <ele>529.400024414</ele>
        <time>2016-02-26T10:42:38.89Z</time>
      </trkpt>
      <trkpt lat="45.95741" lon="4.58807">
        <ele>529.599975586</ele>
        <time>2016-02-26T10:42:39.881Z</time>
      </trkpt>
      <trkpt lat="45.95748" lon="4.58801">
        <ele>529.099975586</ele>
        <time>2016-02-26T10:42:41.891Z</time>
      </trkpt>
      <trkpt lat="45.95752" lon="4.58798">
        <ele>529.200012207</ele>
        <time>2016-02-26T10:42:42.874Z</time>
      </trkpt>
      <trkpt lat="45.95757" lon="4.58795">
        <ele>528.900024414</ele>
        <time>2016-02-26T10:42:43.889Z</time>
      </trkpt>
      <trkpt lat="45.95761" lon="4.58792">
        <ele>528.799987793</ele>
        <time>2016-02-26T10:42:44.934Z</time>
      </trkpt>
      <trkpt lat="45.95768" lon="4.58787">
        <ele>529.099975586</ele>
        <time>2016-02-26T10:42:46.889Z</time>
      </trkpt>
      <trkpt lat="45.95772" lon="4.58785">
        <ele>529</ele>
        <time>2016-02-26T10:42:47.869Z</time>
      </trkpt>
      <trkpt lat="45.95779" lon="4.58781">
        <ele>528.900024414</ele>
        <time>2016-02-26T10:42:49.889Z</time>
      </trkpt>
      <trkpt lat="45.95781" lon="4.58779">
        <ele>529.099975586</ele>
        <time>2016-02-26T10:42:50.87Z</time>
      </trkpt>
      <trkpt lat="45.95789" lon="4.58772">
        <ele>530.5</ele>
        <time>2016-02-26T10:43:52.902Z</time>
      </trkpt>
      <trkpt lat="45.9579" lon="4.58773">
        <ele>530.5</ele>
        <time>2016-02-26T10:43:53.87Z</time>
      </trkpt>
      <trkpt lat="45.95798" lon="4.58768">
        <ele>530</ele>
        <time>2016-02-26T10:43:56.891Z</time>
      </trkpt>
      <trkpt lat="45.958" lon="4.58766">
        <ele>529.900024414</ele>
        <time>2016-02-26T10:43:57.87Z</time>
      </trkpt>
      <trkpt lat="45.95807" lon="4.58762">
        <ele>529.599975586</ele>
        <time>2016-02-26T10:43:59.891Z</time>
      </trkpt>
      <trkpt lat="45.9581" lon="4.58761">
        <ele>529.599975586</ele>
        <time>2016-02-26T10:44:00.897Z</time>
      </trkpt>
      <trkpt lat="45.95817" lon="4.58757">
        <ele>529.799987793</ele>
        <time>2016-02-26T10:44:02.894Z</time>
      </trkpt>
      <trkpt lat="45.95821" lon="4.58754">
        <ele>529.900024414</ele>
        <time>2016-02-26T10:44:03.868Z</time>
      </trkpt>
      <trkpt lat="45.95828" lon="4.58748">
        <ele>530</ele>
        <time>2016-02-26T10:44:05.912Z</time>
      </trkpt>
      <trkpt lat="45.95832" lon="4.58745">
        <ele>530.099975586</ele>
        <time>2016-02-26T10:44:06.873Z</time>
      </trkpt>
      <trkpt lat="45.95836" lon="4.58742">
        <ele>530.099975586</ele>
        <time>2016-02-26T10:44:08.053Z</time>
      </trkpt>
      <trkpt lat="45.9584" lon="4.58738">
        <ele>530</ele>
        <time>2016-02-26T10:44:08.874Z</time>
      </trkpt>
      <trkpt lat="45.95848" lon="4.58731">
        <ele>529.900024414</ele>
        <time>2016-02-26T10:44:10.891Z</time>
      </trkpt>
      <trkpt lat="45.95852" lon="4.58727">
        <ele>529.900024414</ele>
        <time>2016-02-26T10:44:11.871Z</time>
      </trkpt>
      <trkpt lat="45.95856" lon="4.58723">
        <ele>529.900024414</ele>
        <time>2016-02-26T10:44:12.893Z</time>
      </trkpt>
      <trkpt lat="45.95861" lon="4.58718">
        <ele>529.900024414</ele>
        <time>2016-02-26T10:44:13.87Z</time>
      </trkpt>
      <trkpt lat="45.95866" lon="4.58713">
        <ele>530</ele>
        <time>2016-02-26T10:44:14.934Z</time>
      </trkpt>
      <trkpt lat="45.9587" lon="4.58707">
        <ele>530.200012207</ele>
        <time>2016-02-26T10:44:15.887Z</time>
      </trkpt>
      <trkpt lat="45.95875" lon="4.58701">
        <ele>530.099975586</ele>
        <time>2016-02-26T10:44:16.89Z</time>
      </trkpt>
      <trkpt lat="45.95879" lon="4.58695">
        <ele>529.700012207</ele>
        <time>2016-02-26T10:44:17.87Z</time>
      </trkpt>
      <trkpt lat="45.95883" lon="4.58688">
        <ele>529.400024414</ele>
        <time>2016-02-26T10:44:18.891Z</time>
      </trkpt>
      <trkpt lat="45.95886" lon="4.58682">
        <ele>529.200012207</ele>
        <time>2016-02-26T10:44:19.868Z</time>
      </trkpt>
      <trkpt lat="45.9589" lon="4.58676">
        <ele>528.900024414</ele>
        <time>2016-02-26T10:44:20.916Z</time>
      </trkpt>
      <trkpt lat="45.95893" lon="4.5867">
        <ele>528.700012207</ele>
        <time>2016-02-26T10:44:21.872Z</time>
      </trkpt>
      <trkpt lat="45.95896" lon="4.58664">
        <ele>528.599975586</ele>
        <time>2016-02-26T10:44:22.889Z</time>
      </trkpt>
      <trkpt lat="45.95899" lon="4.58659">
        <ele>528.599975586</ele>
        <time>2016-02-26T10:44:23.87Z</time>
      </trkpt>
      <trkpt lat="45.95903" lon="4.58653">
        <ele>528</ele>
        <time>2016-02-26T10:44:24.925Z</time>
      </trkpt>
      <trkpt lat="45.95906" lon="4.58647">
        <ele>528</ele>
        <time>2016-02-26T10:44:25.87Z</time>
      </trkpt>
      <trkpt lat="45.9591" lon="4.5864">
        <ele>528.099975586</ele>
        <time>2016-02-26T10:44:26.892Z</time>
      </trkpt>
      <trkpt lat="45.95913" lon="4.58633">
        <ele>528.099975586</ele>
        <time>2016-02-26T10:44:27.87Z</time>
      </trkpt>
      <trkpt lat="45.95917" lon="4.58627">
        <ele>528.400024414</ele>
        <time>2016-02-26T10:44:28.906Z</time>
      </trkpt>
      <trkpt lat="45.9592" lon="4.58621">
        <ele>529.299987793</ele>
        <time>2016-02-26T10:44:29.872Z</time>
      </trkpt>
      <trkpt lat="45.95923" lon="4.58615">
        <ele>529.700012207</ele>
        <time>2016-02-26T10:44:30.891Z</time>
      </trkpt>
      <trkpt lat="45.95927" lon="4.58609">
        <ele>530.200012207</ele>
        <time>2016-02-26T10:44:31.871Z</time>
      </trkpt>
      <trkpt lat="45.95931" lon="4.58603">
        <ele>530.599975586</ele>
        <time>2016-02-26T10:44:32.889Z</time>
      </trkpt>
      <trkpt lat="45.95935" lon="4.58598">
        <ele>530.900024414</ele>
        <time>2016-02-26T10:44:33.87Z</time>
      </trkpt>
      <trkpt lat="45.95939" lon="4.58593">
        <ele>530.900024414</ele>
        <time>2016-02-26T10:44:34.922Z</time>
      </trkpt>
      <trkpt lat="45.95944" lon="4.58588">
        <ele>531</ele>
        <time>2016-02-26T10:44:35.871Z</time>
      </trkpt>
      <trkpt lat="45.95949" lon="4.58584">
        <ele>531</ele>
        <time>2016-02-26T10:44:36.892Z</time>
      </trkpt>
      <trkpt lat="45.95954" lon="4.5858">
        <ele>531</ele>
        <time>2016-02-26T10:44:37.872Z</time>
      </trkpt>
      <trkpt lat="45.95959" lon="4.58578">
        <ele>530.700012207</ele>
        <time>2016-02-26T10:44:38.925Z</time>
      </trkpt>
      <trkpt lat="45.95965" lon="4.58576">
        <ele>530.5</ele>
        <time>2016-02-26T10:44:39.868Z</time>
      </trkpt>
      <trkpt lat="45.95971" lon="4.58576">
        <ele>530</ele>
        <time>2016-02-26T10:44:40.889Z</time>
      </trkpt>
      <trkpt lat="45.95976" lon="4.58577">
        <ele>529.5</ele>
        <time>2016-02-26T10:44:41.868Z</time>
      </trkpt>
      <trkpt lat="45.95982" lon="4.58577">
        <ele>528.900024414</ele>
        <time>2016-02-26T10:44:43.052Z</time>
      </trkpt>
      <trkpt lat="45.95987" lon="4.58579">
        <ele>528.200012207</ele>
        <time>2016-02-26T10:44:43.87Z</time>
      </trkpt>
      <trkpt lat="45.95993" lon="4.58581">
        <ele>527.700012207</ele>
        <time>2016-02-26T10:44:44.923Z</time>
      </trkpt>
      <trkpt lat="45.95998" lon="4.58584">
        <ele>527.5</ele>
        <time>2016-02-26T10:44:45.894Z</time>
      </trkpt>
      <trkpt lat="45.96004" lon="4.58587">
        <ele>527.299987793</ele>
        <time>2016-02-26T10:44:46.912Z</time>
      </trkpt>
      <trkpt lat="45.9601" lon="4.58591">
        <ele>527.099975586</ele>
        <time>2016-02-26T10:44:47.871Z</time>
      </trkpt>
      <trkpt lat="45.96016" lon="4.58596">
        <ele>527.099975586</ele>
        <time>2016-02-26T10:44:48.895Z</time>
      </trkpt>
      <trkpt lat="45.96021" lon="4.58599">
        <ele>527.299987793</ele>
        <time>2016-02-26T10:44:49.87Z</time>
      </trkpt>
      <trkpt lat="45.96027" lon="4.58603">
        <ele>527.5</ele>
        <time>2016-02-26T10:44:50.897Z</time>
      </trkpt>
      <trkpt lat="45.96033" lon="4.58607">
        <ele>527.5</ele>
        <time>2016-02-26T10:44:51.87Z</time>
      </trkpt>
      <trkpt lat="45.96038" lon="4.58611">
        <ele>527.799987793</ele>
        <time>2016-02-26T10:44:52.897Z</time>
      </trkpt>
      <trkpt lat="45.96044" lon="4.58614">
        <ele>527.700012207</ele>
        <time>2016-02-26T10:44:53.868Z</time>
      </trkpt>
      <trkpt lat="45.9605" lon="4.58617">
        <ele>527.599975586</ele>
        <time>2016-02-26T10:44:55.031Z</time>
      </trkpt>
      <trkpt lat="45.96055" lon="4.58619">
        <ele>527</ele>
        <time>2016-02-26T10:44:55.871Z</time>
      </trkpt>
      <trkpt lat="45.96061" lon="4.58621">
        <ele>526.599975586</ele>
        <time>2016-02-26T10:44:56.891Z</time>
      </trkpt>
      <trkpt lat="45.96066" lon="4.58623">
        <ele>526.200012207</ele>
        <time>2016-02-26T10:44:57.869Z</time>
      </trkpt>
      <trkpt lat="45.96071" lon="4.58624">
        <ele>525.700012207</ele>
        <time>2016-02-26T10:44:58.888Z</time>
      </trkpt>
      <trkpt lat="45.96076" lon="4.58625">
        <ele>525.200012207</ele>
        <time>2016-02-26T10:44:59.868Z</time>
      </trkpt>
      <trkpt lat="45.96081" lon="4.58626">
        <ele>524.799987793</ele>
        <time>2016-02-26T10:45:00.891Z</time>
      </trkpt>
      <trkpt lat="45.96086" lon="4.58627">
        <ele>524.5</ele>
        <time>2016-02-26T10:45:01.87Z</time>
      </trkpt>
      <trkpt lat="45.96091" lon="4.58627">
        <ele>524.200012207</ele>
        <time>2016-02-26T10:45:02.904Z</time>
      </trkpt>
      <trkpt lat="45.96096" lon="4.58627">
        <ele>523.900024414</ele>
        <time>2016-02-26T10:45:03.87Z</time>
      </trkpt>
      <trkpt lat="45.96101" lon="4.58626">
        <ele>523.200012207</ele>
        <time>2016-02-26T10:45:04.932Z</time>
      </trkpt>
      <trkpt lat="45.96106" lon="4.58624">
        <ele>523.099975586</ele>
        <time>2016-02-26T10:45:05.87Z</time>
      </trkpt>
      <trkpt lat="45.96112" lon="4.58622">
        <ele>523.299987793</ele>
        <time>2016-02-26T10:45:06.894Z</time>
      </trkpt>
      <trkpt lat="45.96117" lon="4.58619">
        <ele>523.099975586</ele>
        <time>2016-02-26T10:45:07.87Z</time>
      </trkpt>
      <trkpt lat="45.96122" lon="4.58615">
        <ele>523.200012207</ele>
        <time>2016-02-26T10:45:08.89Z</time>
      </trkpt>
      <trkpt lat="45.96128" lon="4.58611">
        <ele>523.400024414</ele>
        <time>2016-02-26T10:45:09.868Z</time>
      </trkpt>
      <trkpt lat="45.96133" lon="4.58607">
        <ele>523.099975586</ele>
        <time>2016-02-26T10:45:10.889Z</time>
      </trkpt>
      <trkpt lat="45.96137" lon="4.58602">
        <ele>523.200012207</ele>
        <time>2016-02-26T10:45:11.87Z</time>
      </trkpt>
      <trkpt lat="45.96142" lon="4.58597">
        <ele>523.200012207</ele>
        <time>2016-02-26T10:45:12.896Z</time>
      </trkpt>
      <trkpt lat="45.96146" lon="4.58591">
        <ele>523.299987793</ele>
        <time>2016-02-26T10:45:13.868Z</time>
      </trkpt>
      <trkpt lat="45.96151" lon="4.58585">
        <ele>523.400024414</ele>
        <time>2016-02-26T10:45:14.933Z</time>
      </trkpt>
      <trkpt lat="45.96156" lon="4.5858">
        <ele>523.599975586</ele>
        <time>2016-02-26T10:45:15.868Z</time>
      </trkpt>
      <trkpt lat="45.9616" lon="4.58574">
        <ele>523.799987793</ele>
        <time>2016-02-26T10:45:16.889Z</time>
      </trkpt>
      <trkpt lat="45.96164" lon="4.58568">
        <ele>524</ele>
        <time>2016-02-26T10:45:17.915Z</time>
      </trkpt>
      <trkpt lat="45.96169" lon="4.58562">
        <ele>524.5</ele>
        <time>2016-02-26T10:45:18.95Z</time>
      </trkpt>
      <trkpt lat="45.96173" lon="4.58556">
        <ele>525.099975586</ele>
        <time>2016-02-26T10:45:19.87Z</time>
      </trkpt>
      <trkpt lat="45.96177" lon="4.5855">
        <ele>525.400024414</ele>
        <time>2016-02-26T10:45:20.906Z</time>
      </trkpt>
      <trkpt lat="45.96181" lon="4.58545">
        <ele>525.900024414</ele>
        <time>2016-02-26T10:45:21.871Z</time>
      </trkpt>
      <trkpt lat="45.96186" lon="4.58539">
        <ele>526.099975586</ele>
        <time>2016-02-26T10:45:22.889Z</time>
      </trkpt>
      <trkpt lat="45.9619" lon="4.58534">
        <ele>526.400024414</ele>
        <time>2016-02-26T10:45:23.87Z</time>
      </trkpt>
      <trkpt lat="45.96193" lon="4.5853">
        <ele>526.700012207</ele>
        <time>2016-02-26T10:45:24.923Z</time>
      </trkpt>
      <trkpt lat="45.96197" lon="4.58525">
        <ele>527</ele>
        <time>2016-02-26T10:45:25.87Z</time>
      </trkpt>
      <trkpt lat="45.96201" lon="4.58522">
        <ele>526.900024414</ele>
        <time>2016-02-26T10:45:26.891Z</time>
      </trkpt>
      <trkpt lat="45.96205" lon="4.58518">
        <ele>527.099975586</ele>
        <time>2016-02-26T10:45:27.869Z</time>
      </trkpt>
      <trkpt lat="45.9621" lon="4.58515">
        <ele>527.400024414</ele>
        <time>2016-02-26T10:45:28.92Z</time>
      </trkpt>
      <trkpt lat="45.96214" lon="4.58513">
        <ele>527.200012207</ele>
        <time>2016-02-26T10:45:29.874Z</time>
      </trkpt>
      <trkpt lat="45.9622" lon="4.5851">
        <ele>527</ele>
        <time>2016-02-26T10:45:30.913Z</time>
      </trkpt>
      <trkpt lat="45.96225" lon="4.58507">
        <ele>527</ele>
        <time>2016-02-26T10:45:31.868Z</time>
      </trkpt>
      <trkpt lat="45.9623" lon="4.58505">
        <ele>526.5</ele>
        <time>2016-02-26T10:45:32.89Z</time>
      </trkpt>
      <trkpt lat="45.96235" lon="4.58504">
        <ele>527</ele>
        <time>2016-02-26T10:45:33.866Z</time>
      </trkpt>
      <trkpt lat="45.9624" lon="4.58503">
        <ele>527.599975586</ele>
        <time>2016-02-26T10:45:34.921Z</time>
      </trkpt>
      <trkpt lat="45.96245" lon="4.58503">
        <ele>528</ele>
        <time>2016-02-26T10:45:35.871Z</time>
      </trkpt>
      <trkpt lat="45.9625" lon="4.58503">
        <ele>528.700012207</ele>
        <time>2016-02-26T10:45:36.891Z</time>
      </trkpt>
      <trkpt lat="45.96255" lon="4.58504">
        <ele>528.900024414</ele>
        <time>2016-02-26T10:45:37.87Z</time>
      </trkpt>
      <trkpt lat="45.96261" lon="4.58507">
        <ele>529.200012207</ele>
        <time>2016-02-26T10:45:38.893Z</time>
      </trkpt>
      <trkpt lat="45.96266" lon="4.58509">
        <ele>529.400024414</ele>
        <time>2016-02-26T10:45:39.868Z</time>
      </trkpt>
      <trkpt lat="45.96271" lon="4.58512">
        <ele>530</ele>
        <time>2016-02-26T10:45:40.888Z</time>
      </trkpt>
      <trkpt lat="45.96277" lon="4.58515">
        <ele>530.200012207</ele>
        <time>2016-02-26T10:45:41.871Z</time>
      </trkpt>
      <trkpt lat="45.96282" lon="4.58517">
        <ele>530.400024414</ele>
        <time>2016-02-26T10:45:42.892Z</time>
      </trkpt>
      <trkpt lat="45.96287" lon="4.5852">
        <ele>530.700012207</ele>
        <time>2016-02-26T10:45:43.868Z</time>
      </trkpt>
      <trkpt lat="45.96293" lon="4.58523">
        <ele>530.5</ele>
        <time>2016-02-26T10:45:44.943Z</time>
      </trkpt>
      <trkpt lat="45.96298" lon="4.58526">
        <ele>530.400024414</ele>
        <time>2016-02-26T10:45:45.87Z</time>
      </trkpt>
      <trkpt lat="45.96303" lon="4.58528">
        <ele>529.299987793</ele>
        <time>2016-02-26T10:45:46.89Z</time>
      </trkpt>
      <trkpt lat="45.96308" lon="4.58531">
        <ele>528.5</ele>
        <time>2016-02-26T10:45:47.868Z</time>
      </trkpt>
      <trkpt lat="45.96313" lon="4.58533">
        <ele>527.599975586</ele>
        <time>2016-02-26T10:45:48.891Z</time>
      </trkpt>
      <trkpt lat="45.96318" lon="4.58536">
        <ele>527.900024414</ele>
        <time>2016-02-26T10:45:49.87Z</time>
      </trkpt>
      <trkpt lat="45.96322" lon="4.58537">
        <ele>527.799987793</ele>
        <time>2016-02-26T10:45:51.183Z</time>
      </trkpt>
      <trkpt lat="45.96327" lon="4.58539">
        <ele>527.799987793</ele>
        <time>2016-02-26T10:45:51.871Z</time>
      </trkpt>
      <trkpt lat="45.96332" lon="4.58539">
        <ele>528.299987793</ele>
        <time>2016-02-26T10:45:52.896Z</time>
      </trkpt>
      <trkpt lat="45.96337" lon="4.58539">
        <ele>528.400024414</ele>
        <time>2016-02-26T10:45:53.87Z</time>
      </trkpt>
      <trkpt lat="45.96342" lon="4.58538">
        <ele>529</ele>
        <time>2016-02-26T10:45:54.921Z</time>
      </trkpt>
      <trkpt lat="45.96347" lon="4.58536">
        <ele>529.599975586</ele>
        <time>2016-02-26T10:45:55.871Z</time>
      </trkpt>
      <trkpt lat="45.96352" lon="4.58535">
        <ele>530.200012207</ele>
        <time>2016-02-26T10:45:56.909Z</time>
      </trkpt>
      <trkpt lat="45.96357" lon="4.58533">
        <ele>530.099975586</ele>
        <time>2016-02-26T10:45:57.87Z</time>
      </trkpt>
      <trkpt lat="45.96362" lon="4.5853">
        <ele>530.099975586</ele>
        <time>2016-02-26T10:45:58.946Z</time>
      </trkpt>
      <trkpt lat="45.96367" lon="4.58526">
        <ele>529.900024414</ele>
        <time>2016-02-26T10:45:59.87Z</time>
      </trkpt>
      <trkpt lat="45.96372" lon="4.58524">
        <ele>529.700012207</ele>
        <time>2016-02-26T10:46:00.894Z</time>
      </trkpt>
      <trkpt lat="45.96376" lon="4.5852">
        <ele>529.5</ele>
        <time>2016-02-26T10:46:01.868Z</time>
      </trkpt>
      <trkpt lat="45.96381" lon="4.58517">
        <ele>529.799987793</ele>
        <time>2016-02-26T10:46:02.889Z</time>
      </trkpt>
      <trkpt lat="45.96386" lon="4.58513">
        <ele>530.799987793</ele>
        <time>2016-02-26T10:46:03.87Z</time>
      </trkpt>
      <trkpt lat="45.9639" lon="4.58508">
        <ele>531.5</ele>
        <time>2016-02-26T10:46:04.922Z</time>
      </trkpt>
      <trkpt lat="45.96395" lon="4.58503">
        <ele>532</ele>
        <time>2016-02-26T10:46:05.868Z</time>
      </trkpt>
      <trkpt lat="45.96399" lon="4.58498">
        <ele>532.700012207</ele>
        <time>2016-02-26T10:46:06.905Z</time>
      </trkpt>
      <trkpt lat="45.96402" lon="4.58494">
        <ele>533.099975586</ele>
        <time>2016-02-26T10:46:07.869Z</time>
      </trkpt>
      <trkpt lat="45.96406" lon="4.5849">
        <ele>533.599975586</ele>
        <time>2016-02-26T10:46:08.891Z</time>
      </trkpt>
      <trkpt lat="45.9641" lon="4.58486">
        <ele>533.700012207</ele>
        <time>2016-02-26T10:46:09.867Z</time>
      </trkpt>
      <trkpt lat="45.96416" lon="4.58478">
        <ele>534.200012207</ele>
        <time>2016-02-26T10:46:11.89Z</time>
      </trkpt>
      <trkpt lat="45.9642" lon="4.58473">
        <ele>534.400024414</ele>
        <time>2016-02-26T10:46:12.872Z</time>
      </trkpt>
      <trkpt lat="45.96423" lon="4.58469">
        <ele>535</ele>
        <time>2016-02-26T10:46:13.887Z</time>
      </trkpt>
      <trkpt lat="45.96427" lon="4.58464">
        <ele>535.5</ele>
        <time>2016-02-26T10:46:14.884Z</time>
      </trkpt>
      <trkpt lat="45.9643" lon="4.58459">
        <ele>535.900024414</ele>
        <time>2016-02-26T10:46:15.928Z</time>
      </trkpt>
      <trkpt lat="45.96433" lon="4.58455">
        <ele>536</ele>
        <time>2016-02-26T10:46:16.868Z</time>
      </trkpt>
      <trkpt lat="45.96437" lon="4.5845">
        <ele>536.400024414</ele>
        <time>2016-02-26T10:46:17.893Z</time>
      </trkpt>
      <trkpt lat="45.96441" lon="4.58446">
        <ele>536.700012207</ele>
        <time>2016-02-26T10:46:18.874Z</time>
      </trkpt>
      <trkpt lat="45.96444" lon="4.58442">
        <ele>537</ele>
        <time>2016-02-26T10:46:19.887Z</time>
      </trkpt>
      <trkpt lat="45.96448" lon="4.58437">
        <ele>537.200012207</ele>
        <time>2016-02-26T10:46:20.871Z</time>
      </trkpt>
      <trkpt lat="45.96452" lon="4.58433">
        <ele>537.5</ele>
        <time>2016-02-26T10:46:21.888Z</time>
      </trkpt>
      <trkpt lat="45.96456" lon="4.58429">
        <ele>537.700012207</ele>
        <time>2016-02-26T10:46:22.867Z</time>
      </trkpt>
      <trkpt lat="45.96459" lon="4.58425">
        <ele>537.799987793</ele>
        <time>2016-02-26T10:46:23.894Z</time>
      </trkpt>
      <trkpt lat="45.96463" lon="4.58421">
        <ele>538</ele>
        <time>2016-02-26T10:46:25.047Z</time>
      </trkpt>
      <trkpt lat="45.96467" lon="4.58418">
        <ele>538.400024414</ele>
        <time>2016-02-26T10:46:25.906Z</time>
      </trkpt>
      <trkpt lat="45.96471" lon="4.58414">
        <ele>538.5</ele>
        <time>2016-02-26T10:46:26.869Z</time>
      </trkpt>
      <trkpt lat="45.96476" lon="4.58411">
        <ele>538.299987793</ele>
        <time>2016-02-26T10:46:27.89Z</time>
      </trkpt>
      <trkpt lat="45.9648" lon="4.58408">
        <ele>538.299987793</ele>
        <time>2016-02-26T10:46:28.885Z</time>
      </trkpt>
      <trkpt lat="45.96488" lon="4.58402">
        <ele>538.700012207</ele>
        <time>2016-02-26T10:46:30.895Z</time>
      </trkpt>
      <trkpt lat="45.96492" lon="4.58401">
        <ele>538.900024414</ele>
        <time>2016-02-26T10:46:31.888Z</time>
      </trkpt>
      <trkpt lat="45.965" lon="4.584">
        <ele>539.200012207</ele>
        <time>2016-02-26T10:46:33.888Z</time>
      </trkpt>
      <trkpt lat="45.96504" lon="4.584">
        <ele>538.799987793</ele>
        <time>2016-02-26T10:46:34.87Z</time>
      </trkpt>
      <trkpt lat="45.9651" lon="4.58401">
        <ele>538.799987793</ele>
        <time>2016-02-26T10:46:35.888Z</time>
      </trkpt>
      <trkpt lat="45.96515" lon="4.58402">
        <ele>538.200012207</ele>
        <time>2016-02-26T10:46:36.872Z</time>
      </trkpt>
      <trkpt lat="45.9652" lon="4.58405">
        <ele>537</ele>
        <time>2016-02-26T10:46:37.889Z</time>
      </trkpt>
      <trkpt lat="45.96525" lon="4.58408">
        <ele>537</ele>
        <time>2016-02-26T10:46:38.873Z</time>
      </trkpt>
      <trkpt lat="45.9653" lon="4.5841">
        <ele>536.900024414</ele>
        <time>2016-02-26T10:46:39.89Z</time>
      </trkpt>
      <trkpt lat="45.96534" lon="4.58413">
        <ele>536.799987793</ele>
        <time>2016-02-26T10:46:40.871Z</time>
      </trkpt>
      <trkpt lat="45.96539" lon="4.58416">
        <ele>536.599975586</ele>
        <time>2016-02-26T10:46:41.894Z</time>
      </trkpt>
      <trkpt lat="45.96543" lon="4.58419">
        <ele>536.599975586</ele>
        <time>2016-02-26T10:46:42.869Z</time>
      </trkpt>
      <trkpt lat="45.96547" lon="4.58422">
        <ele>536.599975586</ele>
        <time>2016-02-26T10:46:43.89Z</time>
      </trkpt>
      <trkpt lat="45.96551" lon="4.58425">
        <ele>536.5</ele>
        <time>2016-02-26T10:46:44.873Z</time>
      </trkpt>
      <trkpt lat="45.96555" lon="4.58428">
        <ele>536.400024414</ele>
        <time>2016-02-26T10:46:45.888Z</time>
      </trkpt>
      <trkpt lat="45.96559" lon="4.58431">
        <ele>535.700012207</ele>
        <time>2016-02-26T10:46:46.867Z</time>
      </trkpt>
      <trkpt lat="45.96564" lon="4.58433">
        <ele>535.200012207</ele>
        <time>2016-02-26T10:46:47.889Z</time>
      </trkpt>
      <trkpt lat="45.96568" lon="4.58436">
        <ele>534.799987793</ele>
        <time>2016-02-26T10:46:48.872Z</time>
      </trkpt>
      <trkpt lat="45.96572" lon="4.58439">
        <ele>534.5</ele>
        <time>2016-02-26T10:46:49.887Z</time>
      </trkpt>
      <trkpt lat="45.96576" lon="4.58442">
        <ele>534.5</ele>
        <time>2016-02-26T10:46:50.868Z</time>
      </trkpt>
      <trkpt lat="45.96581" lon="4.58446">
        <ele>534.400024414</ele>
        <time>2016-02-26T10:46:51.888Z</time>
      </trkpt>
      <trkpt lat="45.96586" lon="4.58449">
        <ele>534.400024414</ele>
        <time>2016-02-26T10:46:52.868Z</time>
      </trkpt>
      <trkpt lat="45.9659" lon="4.58452">
        <ele>534</ele>
        <time>2016-02-26T10:46:53.89Z</time>
      </trkpt>
      <trkpt lat="45.96595" lon="4.58455">
        <ele>533.700012207</ele>
        <time>2016-02-26T10:46:54.873Z</time>
      </trkpt>
      <trkpt lat="45.96603" lon="4.5846">
        <ele>532.799987793</ele>
        <time>2016-02-26T10:46:56.892Z</time>
      </trkpt>
      <trkpt lat="45.96606" lon="4.58464">
        <ele>532.5</ele>
        <time>2016-02-26T10:46:57.891Z</time>
      </trkpt>
      <trkpt lat="45.9661" lon="4.58467">
        <ele>532.599975586</ele>
        <time>2016-02-26T10:46:58.888Z</time>
      </trkpt>
      <trkpt lat="45.96614" lon="4.58471">
        <ele>532.599975586</ele>
        <time>2016-02-26T10:46:59.867Z</time>
      </trkpt>
      <trkpt lat="45.96618" lon="4.58475">
        <ele>532.5</ele>
        <time>2016-02-26T10:47:00.919Z</time>
      </trkpt>
      <trkpt lat="45.96623" lon="4.5848">
        <ele>532.400024414</ele>
        <time>2016-02-26T10:47:01.878Z</time>
      </trkpt>
      <trkpt lat="45.96627" lon="4.58484">
        <ele>532.400024414</ele>
        <time>2016-02-26T10:47:02.904Z</time>
      </trkpt>
      <trkpt lat="45.96631" lon="4.58488">
        <ele>532.099975586</ele>
        <time>2016-02-26T10:47:03.868Z</time>
      </trkpt>
      <trkpt lat="45.96634" lon="4.58493">
        <ele>531.599975586</ele>
        <time>2016-02-26T10:47:04.906Z</time>
      </trkpt>
      <trkpt lat="45.96638" lon="4.58498">
        <ele>531</ele>
        <time>2016-02-26T10:47:05.868Z</time>
      </trkpt>
      <trkpt lat="45.96642" lon="4.58502">
        <ele>530.799987793</ele>
        <time>2016-02-26T10:47:06.891Z</time>
      </trkpt>
      <trkpt lat="45.96646" lon="4.58508">
        <ele>530.700012207</ele>
        <time>2016-02-26T10:47:07.869Z</time>
      </trkpt>
      <trkpt lat="45.9665" lon="4.58513">
        <ele>530.799987793</ele>
        <time>2016-02-26T10:47:08.889Z</time>
      </trkpt>
      <trkpt lat="45.96654" lon="4.58519">
        <ele>530.700012207</ele>
        <time>2016-02-26T10:47:09.87Z</time>
      </trkpt>
      <trkpt lat="45.96658" lon="4.58524">
        <ele>530.299987793</ele>
        <time>2016-02-26T10:47:10.888Z</time>
      </trkpt>
      <trkpt lat="45.96663" lon="4.58529">
        <ele>530.400024414</ele>
        <time>2016-02-26T10:47:11.867Z</time>
      </trkpt>
      <trkpt lat="45.96668" lon="4.58533">
        <ele>529.900024414</ele>
        <time>2016-02-26T10:47:12.891Z</time>
      </trkpt>
      <trkpt lat="45.96674" lon="4.58535">
        <ele>529.599975586</ele>
        <time>2016-02-26T10:47:13.868Z</time>
      </trkpt>
      <trkpt lat="45.96679" lon="4.58538">
        <ele>529.5</ele>
        <time>2016-02-26T10:47:14.904Z</time>
      </trkpt>
      <trkpt lat="45.96685" lon="4.58539">
        <ele>529.5</ele>
        <time>2016-02-26T10:47:15.868Z</time>
      </trkpt>
      <trkpt lat="45.9669" lon="4.5854">
        <ele>529.200012207</ele>
        <time>2016-02-26T10:47:16.899Z</time>
      </trkpt>
      <trkpt lat="45.96696" lon="4.58541">
        <ele>529.099975586</ele>
        <time>2016-02-26T10:47:17.867Z</time>
      </trkpt>
      <trkpt lat="45.96701" lon="4.58541">
        <ele>528.799987793</ele>
        <time>2016-02-26T10:47:18.908Z</time>
      </trkpt>
      <trkpt lat="45.96706" lon="4.58542">
        <ele>528.400024414</ele>
        <time>2016-02-26T10:47:19.867Z</time>
      </trkpt>
      <trkpt lat="45.96711" lon="4.58541">
        <ele>528.900024414</ele>
        <time>2016-02-26T10:47:20.889Z</time>
      </trkpt>
      <trkpt lat="45.96716" lon="4.5854">
        <ele>528.900024414</ele>
        <time>2016-02-26T10:47:21.867Z</time>
      </trkpt>
      <trkpt lat="45.96721" lon="4.58538">
        <ele>529</ele>
        <time>2016-02-26T10:47:22.892Z</time>
      </trkpt>
      <trkpt lat="45.96725" lon="4.58535">
        <ele>529.700012207</ele>
        <time>2016-02-26T10:47:24.062Z</time>
      </trkpt>
      <trkpt lat="45.96729" lon="4.58531">
        <ele>529.400024414</ele>
        <time>2016-02-26T10:47:24.923Z</time>
      </trkpt>
      <trkpt lat="45.96733" lon="4.58525">
        <ele>529.599975586</ele>
        <time>2016-02-26T10:47:25.867Z</time>
      </trkpt>
      <trkpt lat="45.96737" lon="4.58519">
        <ele>529.700012207</ele>
        <time>2016-02-26T10:47:26.888Z</time>
      </trkpt>
      <trkpt lat="45.9674" lon="4.58512">
        <ele>530.099975586</ele>
        <time>2016-02-26T10:47:27.867Z</time>
      </trkpt>
      <trkpt lat="45.96744" lon="4.58505">
        <ele>530.400024414</ele>
        <time>2016-02-26T10:47:28.906Z</time>
      </trkpt>
      <trkpt lat="45.96747" lon="4.58498">
        <ele>530.5</ele>
        <time>2016-02-26T10:47:29.872Z</time>
      </trkpt>
      <trkpt lat="45.96749" lon="4.5849">
        <ele>530.5</ele>
        <time>2016-02-26T10:47:30.892Z</time>
      </trkpt>
      <trkpt lat="45.96751" lon="4.58483">
        <ele>530.599975586</ele>
        <time>2016-02-26T10:47:31.867Z</time>
      </trkpt>
      <trkpt lat="45.96754" lon="4.58474">
        <ele>530.900024414</ele>
        <time>2016-02-26T10:47:32.889Z</time>
      </trkpt>
      <trkpt lat="45.96755" lon="4.58466">
        <ele>531</ele>
        <time>2016-02-26T10:47:33.867Z</time>
      </trkpt>
      <trkpt lat="45.96757" lon="4.5846">
        <ele>531.299987793</ele>
        <time>2016-02-26T10:47:35.102Z</time>
      </trkpt>
      <trkpt lat="45.96758" lon="4.58453">
        <ele>531.299987793</ele>
        <time>2016-02-26T10:47:35.889Z</time>
      </trkpt>
      <trkpt lat="45.96759" lon="4.58446">
        <ele>532</ele>
        <time>2016-02-26T10:47:36.89Z</time>
      </trkpt>
      <trkpt lat="45.9676" lon="4.58439">
        <ele>532.299987793</ele>
        <time>2016-02-26T10:47:37.87Z</time>
      </trkpt>
      <trkpt lat="45.96761" lon="4.58432">
        <ele>532.599975586</ele>
        <time>2016-02-26T10:47:38.89Z</time>
      </trkpt>
      <trkpt lat="45.96761" lon="4.58425">
        <ele>533.099975586</ele>
        <time>2016-02-26T10:47:39.867Z</time>
      </trkpt>
      <trkpt lat="45.96761" lon="4.58418">
        <ele>533.799987793</ele>
        <time>2016-02-26T10:47:40.89Z</time>
      </trkpt>
      <trkpt lat="45.96762" lon="4.58411">
        <ele>534.099975586</ele>
        <time>2016-02-26T10:47:41.867Z</time>
      </trkpt>
      <trkpt lat="45.96762" lon="4.58404">
        <ele>534.5</ele>
        <time>2016-02-26T10:47:42.89Z</time>
      </trkpt>
      <trkpt lat="45.96761" lon="4.58397">
        <ele>535</ele>
        <time>2016-02-26T10:47:43.869Z</time>
      </trkpt>
      <trkpt lat="45.96761" lon="4.5839">
        <ele>535.400024414</ele>
        <time>2016-02-26T10:47:44.897Z</time>
      </trkpt>
      <trkpt lat="45.96759" lon="4.58383">
        <ele>535.900024414</ele>
        <time>2016-02-26T10:47:45.85Z</time>
      </trkpt>
      <trkpt lat="45.96758" lon="4.58376">
        <ele>536.299987793</ele>
        <time>2016-02-26T10:47:47.037Z</time>
      </trkpt>
      <trkpt lat="45.96757" lon="4.58369">
        <ele>536.799987793</ele>
        <time>2016-02-26T10:47:47.867Z</time>
      </trkpt>
      <trkpt lat="45.96755" lon="4.58362">
        <ele>537.299987793</ele>
        <time>2016-02-26T10:47:48.893Z</time>
      </trkpt>
      <trkpt lat="45.96754" lon="4.58355">
        <ele>537.700012207</ele>
        <time>2016-02-26T10:47:49.867Z</time>
      </trkpt>
      <trkpt lat="45.96753" lon="4.58348">
        <ele>538.299987793</ele>
        <time>2016-02-26T10:47:50.889Z</time>
      </trkpt>
      <trkpt lat="45.96751" lon="4.58342">
        <ele>538.900024414</ele>
        <time>2016-02-26T10:47:51.867Z</time>
      </trkpt>
      <trkpt lat="45.9675" lon="4.58334">
        <ele>539.400024414</ele>
        <time>2016-02-26T10:47:52.887Z</time>
      </trkpt>
      <trkpt lat="45.96748" lon="4.58327">
        <ele>540.200012207</ele>
        <time>2016-02-26T10:47:53.867Z</time>
      </trkpt>
      <trkpt lat="45.96746" lon="4.5832">
        <ele>541</ele>
        <time>2016-02-26T10:47:54.898Z</time>
      </trkpt>
      <trkpt lat="45.96745" lon="4.58314">
        <ele>541.700012207</ele>
        <time>2016-02-26T10:47:55.869Z</time>
      </trkpt>
      <trkpt lat="45.96741" lon="4.58302">
        <ele>542.799987793</ele>
        <time>2016-02-26T10:47:57.89Z</time>
      </trkpt>
      <trkpt lat="45.96739" lon="4.58297">
        <ele>543.200012207</ele>
        <time>2016-02-26T10:47:58.869Z</time>
      </trkpt>
      <trkpt lat="45.96738" lon="4.58291">
        <ele>543.700012207</ele>
        <time>2016-02-26T10:47:59.887Z</time>
      </trkpt>
      <trkpt lat="45.96736" lon="4.58285">
        <ele>544.5</ele>
        <time>2016-02-26T10:48:00.872Z</time>
      </trkpt>
      <trkpt lat="45.96734" lon="4.58278">
        <ele>545.400024414</ele>
        <time>2016-02-26T10:48:01.891Z</time>
      </trkpt>
      <trkpt lat="45.96733" lon="4.58271">
        <ele>546.400024414</ele>
        <time>2016-02-26T10:48:02.872Z</time>
      </trkpt>
      <trkpt lat="45.96732" lon="4.58264">
        <ele>547.099975586</ele>
        <time>2016-02-26T10:48:03.89Z</time>
      </trkpt>
      <trkpt lat="45.9673" lon="4.58256">
        <ele>547.700012207</ele>
        <time>2016-02-26T10:48:04.871Z</time>
      </trkpt>
      <trkpt lat="45.96729" lon="4.58249">
        <ele>548.599975586</ele>
        <time>2016-02-26T10:48:05.888Z</time>
      </trkpt>
      <trkpt lat="45.96728" lon="4.58242">
        <ele>549.200012207</ele>
        <time>2016-02-26T10:48:06.869Z</time>
      </trkpt>
      <trkpt lat="45.96728" lon="4.58236">
        <ele>549.799987793</ele>
        <time>2016-02-26T10:48:07.89Z</time>
      </trkpt>
      <trkpt lat="45.96729" lon="4.58228">
        <ele>550.099975586</ele>
        <time>2016-02-26T10:48:08.872Z</time>
      </trkpt>
      <trkpt lat="45.96729" lon="4.58221">
        <ele>550.200012207</ele>
        <time>2016-02-26T10:48:09.939Z</time>
      </trkpt>
      <trkpt lat="45.9673" lon="4.58215">
        <ele>548</ele>
        <time>2016-02-26T10:48:10.886Z</time>
      </trkpt>
      <trkpt lat="45.96731" lon="4.58208">
        <ele>548.200012207</ele>
        <time>2016-02-26T10:48:11.89Z</time>
      </trkpt>
      <trkpt lat="45.96732" lon="4.58201">
        <ele>548.5</ele>
        <time>2016-02-26T10:48:12.873Z</time>
      </trkpt>
      <trkpt lat="45.96734" lon="4.58194">
        <ele>548.900024414</ele>
        <time>2016-02-26T10:48:13.887Z</time>
      </trkpt>
      <trkpt lat="45.96736" lon="4.58187">
        <ele>549.299987793</ele>
        <time>2016-02-26T10:48:14.874Z</time>
      </trkpt>
      <trkpt lat="45.96738" lon="4.58181">
        <ele>549.400024414</ele>
        <time>2016-02-26T10:48:15.896Z</time>
      </trkpt>
      <trkpt lat="45.9674" lon="4.58175">
        <ele>549.599975586</ele>
        <time>2016-02-26T10:48:16.869Z</time>
      </trkpt>
      <trkpt lat="45.96745" lon="4.58164">
        <ele>549.799987793</ele>
        <time>2016-02-26T10:48:18.938Z</time>
      </trkpt>
      <trkpt lat="45.96747" lon="4.58159">
        <ele>549.799987793</ele>
        <time>2016-02-26T10:48:19.867Z</time>
      </trkpt>
      <trkpt lat="45.96751" lon="4.58149">
        <ele>549.799987793</ele>
        <time>2016-02-26T10:48:21.939Z</time>
      </trkpt>
      <trkpt lat="45.96754" lon="4.58144">
        <ele>549.900024414</ele>
        <time>2016-02-26T10:48:22.867Z</time>
      </trkpt>
      <trkpt lat="45.96757" lon="4.58139">
        <ele>550.099975586</ele>
        <time>2016-02-26T10:48:23.89Z</time>
      </trkpt>
      <trkpt lat="45.9676" lon="4.58134">
        <ele>550</ele>
        <time>2016-02-26T10:48:24.892Z</time>
      </trkpt>
      <trkpt lat="45.96762" lon="4.58128">
        <ele>550</ele>
        <time>2016-02-26T10:48:25.888Z</time>
      </trkpt>
      <trkpt lat="45.96764" lon="4.58123">
        <ele>549.900024414</ele>
        <time>2016-02-26T10:48:26.885Z</time>
      </trkpt>
      <trkpt lat="45.96769" lon="4.58112">
        <ele>549.099975586</ele>
        <time>2016-02-26T10:48:28.904Z</time>
      </trkpt>
      <trkpt lat="45.96772" lon="4.58107">
        <ele>548.799987793</ele>
        <time>2016-02-26T10:48:29.871Z</time>
      </trkpt>
      <trkpt lat="45.96776" lon="4.58097">
        <ele>548.799987793</ele>
        <time>2016-02-26T10:48:31.889Z</time>
      </trkpt>
      <trkpt lat="45.96779" lon="4.58093">
        <ele>548.799987793</ele>
        <time>2016-02-26T10:48:32.872Z</time>
      </trkpt>
      <trkpt lat="45.96783" lon="4.58082">
        <ele>548.599975586</ele>
        <time>2016-02-26T10:48:34.906Z</time>
      </trkpt>
      <trkpt lat="45.96785" lon="4.58077">
        <ele>548.599975586</ele>
        <time>2016-02-26T10:48:35.87Z</time>
      </trkpt>
      <trkpt lat="45.96791" lon="4.58068">
        <ele>548.900024414</ele>
        <time>2016-02-26T10:48:37.896Z</time>
      </trkpt>
      <trkpt lat="45.96793" lon="4.58063">
        <ele>548.799987793</ele>
        <time>2016-02-26T10:48:38.871Z</time>
      </trkpt>
      <trkpt lat="45.96797" lon="4.58053">
        <ele>548.200012207</ele>
        <time>2016-02-26T10:48:40.897Z</time>
      </trkpt>
      <trkpt lat="45.968" lon="4.58049">
        <ele>547.900024414</ele>
        <time>2016-02-26T10:48:41.869Z</time>
      </trkpt>
      <trkpt lat="45.96805" lon="4.58041">
        <ele>547.599975586</ele>
        <time>2016-02-26T10:48:43.888Z</time>
      </trkpt>
      <trkpt lat="45.96808" lon="4.58037">
        <ele>547.400024414</ele>
        <time>2016-02-26T10:48:44.872Z</time>
      </trkpt>
      <trkpt lat="45.96815" lon="4.5803">
        <ele>547.299987793</ele>
        <time>2016-02-26T10:48:46.89Z</time>
      </trkpt>
      <trkpt lat="45.96818" lon="4.58027">
        <ele>546.900024414</ele>
        <time>2016-02-26T10:48:47.87Z</time>
      </trkpt>
      <trkpt lat="45.96826" lon="4.5802">
        <ele>545.700012207</ele>
        <time>2016-02-26T10:48:49.944Z</time>
      </trkpt>
      <trkpt lat="45.96829" lon="4.58017">
        <ele>545.799987793</ele>
        <time>2016-02-26T10:48:50.871Z</time>
      </trkpt>
      <trkpt lat="45.96837" lon="4.58012">
        <ele>545.299987793</ele>
        <time>2016-02-26T10:48:52.904Z</time>
      </trkpt>
      <trkpt lat="45.96841" lon="4.5801">
        <ele>544.400024414</ele>
        <time>2016-02-26T10:48:53.868Z</time>
      </trkpt>
      <trkpt lat="45.96849" lon="4.58008">
        <ele>543.299987793</ele>
        <time>2016-02-26T10:48:55.925Z</time>
      </trkpt>
      <trkpt lat="45.96854" lon="4.58008">
        <ele>542.5</ele>
        <time>2016-02-26T10:48:56.871Z</time>
      </trkpt>
      <trkpt lat="45.96861" lon="4.5801">
        <ele>541.099975586</ele>
        <time>2016-02-26T10:48:58.887Z</time>
      </trkpt>
      <trkpt lat="45.96865" lon="4.58011">
        <ele>540.700012207</ele>
        <time>2016-02-26T10:48:59.87Z</time>
      </trkpt>
      <trkpt lat="45.96873" lon="4.58014">
        <ele>540.200012207</ele>
        <time>2016-02-26T10:49:01.89Z</time>
      </trkpt>
      <trkpt lat="45.96877" lon="4.58016">
        <ele>540.299987793</ele>
        <time>2016-02-26T10:49:02.871Z</time>
      </trkpt>
      <trkpt lat="45.96884" lon="4.58019">
        <ele>539.799987793</ele>
        <time>2016-02-26T10:49:04.888Z</time>
      </trkpt>
      <trkpt lat="45.96889" lon="4.58022">
        <ele>539.400024414</ele>
        <time>2016-02-26T10:49:05.87Z</time>
      </trkpt>
      <trkpt lat="45.96896" lon="4.58027">
        <ele>539.200012207</ele>
        <time>2016-02-26T10:49:07.89Z</time>
      </trkpt>
      <trkpt lat="45.969" lon="4.5803">
        <ele>539.099975586</ele>
        <time>2016-02-26T10:49:08.869Z</time>
      </trkpt>
      <trkpt lat="45.96907" lon="4.58036">
        <ele>539</ele>
        <time>2016-02-26T10:49:10.888Z</time>
      </trkpt>
      <trkpt lat="45.96911" lon="4.58039">
        <ele>538.400024414</ele>
        <time>2016-02-26T10:49:11.868Z</time>
      </trkpt>
      <trkpt lat="45.96917" lon="4.58046">
        <ele>538.099975586</ele>
        <time>2016-02-26T10:49:13.923Z</time>
      </trkpt>
      <trkpt lat="45.9692" lon="4.5805">
        <ele>538.099975586</ele>
        <time>2016-02-26T10:49:14.872Z</time>
      </trkpt>
      <trkpt lat="45.96926" lon="4.58057">
        <ele>537.900024414</ele>
        <time>2016-02-26T10:49:16.889Z</time>
      </trkpt>
      <trkpt lat="45.96929" lon="4.5806">
        <ele>537.799987793</ele>
        <time>2016-02-26T10:49:17.87Z</time>
      </trkpt>
      <trkpt lat="45.96935" lon="4.58068">
        <ele>538</ele>
        <time>2016-02-26T10:49:19.889Z</time>
      </trkpt>
      <trkpt lat="45.96937" lon="4.58072">
        <ele>537.900024414</ele>
        <time>2016-02-26T10:49:20.873Z</time>
      </trkpt>
      <trkpt lat="45.96944" lon="4.58079">
        <ele>537.599975586</ele>
        <time>2016-02-26T10:49:22.888Z</time>
      </trkpt>
      <trkpt lat="45.96947" lon="4.58083">
        <ele>537.5</ele>
        <time>2016-02-26T10:49:23.868Z</time>
      </trkpt>
      <trkpt lat="45.96953" lon="4.5809">
        <ele>537.700012207</ele>
        <time>2016-02-26T10:49:25.891Z</time>
      </trkpt>
      <trkpt lat="45.96956" lon="4.58093">
        <ele>538.099975586</ele>
        <time>2016-02-26T10:49:26.871Z</time>
      </trkpt>
      <trkpt lat="45.96962" lon="4.58099">
        <ele>538.700012207</ele>
        <time>2016-02-26T10:49:28.908Z</time>
      </trkpt>
      <trkpt lat="45.96965" lon="4.58102">
        <ele>538.599975586</ele>
        <time>2016-02-26T10:49:29.871Z</time>
      </trkpt>
      <trkpt lat="45.96971" lon="4.58108">
        <ele>538.900024414</ele>
        <time>2016-02-26T10:49:31.888Z</time>
      </trkpt>
      <trkpt lat="45.96974" lon="4.58111">
        <ele>538.700012207</ele>
        <time>2016-02-26T10:49:32.875Z</time>
      </trkpt>
      <trkpt lat="45.96981" lon="4.58114">
        <ele>538.900024414</ele>
        <time>2016-02-26T10:49:34.906Z</time>
      </trkpt>
      <trkpt lat="45.96985" lon="4.58115">
        <ele>538.900024414</ele>
        <time>2016-02-26T10:49:35.87Z</time>
      </trkpt>
      <trkpt lat="45.96993" lon="4.58119">
        <ele>537.900024414</ele>
        <time>2016-02-26T10:49:37.889Z</time>
      </trkpt>
      <trkpt lat="45.96997" lon="4.5812">
        <ele>537.5</ele>
        <time>2016-02-26T10:49:38.88Z</time>
      </trkpt>
      <trkpt lat="45.97006" lon="4.58119">
        <ele>537</ele>
        <time>2016-02-26T10:49:40.889Z</time>
      </trkpt>
      <trkpt lat="45.9701" lon="4.58118">
        <ele>536.700012207</ele>
        <time>2016-02-26T10:49:41.87Z</time>
      </trkpt>
      <trkpt lat="45.97018" lon="4.58114">
        <ele>536.700012207</ele>
        <time>2016-02-26T10:49:43.89Z</time>
      </trkpt>
      <trkpt lat="45.97022" lon="4.58111">
        <ele>536.799987793</ele>
        <time>2016-02-26T10:49:44.871Z</time>
      </trkpt>
      <trkpt lat="45.97028" lon="4.58103">
        <ele>537.099975586</ele>
        <time>2016-02-26T10:49:46.887Z</time>
      </trkpt>
      <trkpt lat="45.97031" lon="4.58099">
        <ele>537.5</ele>
        <time>2016-02-26T10:49:47.867Z</time>
      </trkpt>
      <trkpt lat="45.97037" lon="4.58091">
        <ele>538</ele>
        <time>2016-02-26T10:49:49.89Z</time>
      </trkpt>
      <trkpt lat="45.9704" lon="4.58087">
        <ele>538.200012207</ele>
        <time>2016-02-26T10:49:50.864Z</time>
      </trkpt>
      <trkpt lat="45.97045" lon="4.58079">
        <ele>538.299987793</ele>
        <time>2016-02-26T10:49:52.888Z</time>
      </trkpt>
      <trkpt lat="45.97047" lon="4.58076">
        <ele>538.400024414</ele>
        <time>2016-02-26T10:49:53.867Z</time>
      </trkpt>
      <trkpt lat="45.97052" lon="4.58069">
        <ele>538.5</ele>
        <time>2016-02-26T10:49:55.905Z</time>
      </trkpt>
      <trkpt lat="45.97054" lon="4.58065">
        <ele>538.700012207</ele>
        <time>2016-02-26T10:49:56.87Z</time>
      </trkpt>
      <trkpt lat="45.97059" lon="4.58057">
        <ele>539</ele>
        <time>2016-02-26T10:49:58.893Z</time>
      </trkpt>
      <trkpt lat="45.97061" lon="4.58052">
        <ele>539.400024414</ele>
        <time>2016-02-26T10:49:59.868Z</time>
      </trkpt>
      <trkpt lat="45.97066" lon="4.58044">
        <ele>539.799987793</ele>
        <time>2016-02-26T10:50:01.89Z</time>
      </trkpt>
      <trkpt lat="45.97069" lon="4.5804">
        <ele>540.099975586</ele>
        <time>2016-02-26T10:50:02.868Z</time>
      </trkpt>
      <trkpt lat="45.97075" lon="4.58031">
        <ele>540.5</ele>
        <time>2016-02-26T10:50:04.888Z</time>
      </trkpt>
      <trkpt lat="45.97077" lon="4.58027">
        <ele>540.400024414</ele>
        <time>2016-02-26T10:50:05.87Z</time>
      </trkpt>
      <trkpt lat="45.97084" lon="4.5802">
        <ele>540.799987793</ele>
        <time>2016-02-26T10:50:07.888Z</time>
      </trkpt>
      <trkpt lat="45.97087" lon="4.58017">
        <ele>541.099975586</ele>
        <time>2016-02-26T10:50:08.867Z</time>
      </trkpt>
      <trkpt lat="45.97095" lon="4.58011">
        <ele>541.900024414</ele>
        <time>2016-02-26T10:50:10.887Z</time>
      </trkpt>
      <trkpt lat="45.97098" lon="4.58008">
        <ele>542.099975586</ele>
        <time>2016-02-26T10:50:11.868Z</time>
      </trkpt>
      <trkpt lat="45.97105" lon="4.58003">
        <ele>542.5</ele>
        <time>2016-02-26T10:50:13.889Z</time>
      </trkpt>
      <trkpt lat="45.97109" lon="4.58001">
        <ele>542.400024414</ele>
        <time>2016-02-26T10:50:14.871Z</time>
      </trkpt>
      <trkpt lat="45.97117" lon="4.57999">
        <ele>542.599975586</ele>
        <time>2016-02-26T10:50:16.906Z</time>
      </trkpt>
      <trkpt lat="45.97121" lon="4.57998">
        <ele>542.599975586</ele>
        <time>2016-02-26T10:50:17.867Z</time>
      </trkpt>
      <trkpt lat="45.97129" lon="4.57998">
        <ele>542.599975586</ele>
        <time>2016-02-26T10:50:19.888Z</time>
      </trkpt>
      <trkpt lat="45.97133" lon="4.57999">
        <ele>542.400024414</ele>
        <time>2016-02-26T10:50:20.87Z</time>
      </trkpt>
      <trkpt lat="45.97141" lon="4.58002">
        <ele>542.200012207</ele>
        <time>2016-02-26T10:50:22.897Z</time>
      </trkpt>
      <trkpt lat="45.97145" lon="4.58003">
        <ele>541.400024414</ele>
        <time>2016-02-26T10:50:23.869Z</time>
      </trkpt>
      <trkpt lat="45.97153" lon="4.58006">
        <ele>541</ele>
        <time>2016-02-26T10:50:25.897Z</time>
      </trkpt>
      <trkpt lat="45.97157" lon="4.58008">
        <ele>540.799987793</ele>
        <time>2016-02-26T10:50:26.87Z</time>
      </trkpt>
      <trkpt lat="45.97165" lon="4.58013">
        <ele>540.900024414</ele>
        <time>2016-02-26T10:50:28.912Z</time>
      </trkpt>
      <trkpt lat="45.97169" lon="4.58016">
        <ele>540.799987793</ele>
        <time>2016-02-26T10:50:29.871Z</time>
      </trkpt>
      <trkpt lat="45.97173" lon="4.58019">
        <ele>540.900024414</ele>
        <time>2016-02-26T10:50:30.891Z</time>
      </trkpt>
      <trkpt lat="45.97177" lon="4.58022">
        <ele>541</ele>
        <time>2016-02-26T10:50:31.867Z</time>
      </trkpt>
      <trkpt lat="45.97185" lon="4.58029">
        <ele>541.200012207</ele>
        <time>2016-02-26T10:50:33.887Z</time>
      </trkpt>
      <trkpt lat="45.97188" lon="4.58033">
        <ele>541</ele>
        <time>2016-02-26T10:50:34.868Z</time>
      </trkpt>
      <trkpt lat="45.97194" lon="4.58039">
        <ele>540.900024414</ele>
        <time>2016-02-26T10:50:36.89Z</time>
      </trkpt>
      <trkpt lat="45.97198" lon="4.58043">
        <ele>541.200012207</ele>
        <time>2016-02-26T10:50:37.868Z</time>
      </trkpt>
      <trkpt lat="45.97204" lon="4.5805">
        <ele>541.200012207</ele>
        <time>2016-02-26T10:50:39.888Z</time>
      </trkpt>
      <trkpt lat="45.97207" lon="4.58054">
        <ele>541</ele>
        <time>2016-02-26T10:50:40.867Z</time>
      </trkpt>
      <trkpt lat="45.97213" lon="4.58061">
        <ele>540.599975586</ele>
        <time>2016-02-26T10:50:42.912Z</time>
      </trkpt>
      <trkpt lat="45.97216" lon="4.58065">
        <ele>540.599975586</ele>
        <time>2016-02-26T10:50:43.869Z</time>
      </trkpt>
      <trkpt lat="45.97222" lon="4.58073">
        <ele>540.799987793</ele>
        <time>2016-02-26T10:50:45.944Z</time>
      </trkpt>
      <trkpt lat="45.97225" lon="4.58077">
        <ele>540.900024414</ele>
        <time>2016-02-26T10:50:46.87Z</time>
      </trkpt>
      <trkpt lat="45.97231" lon="4.58084">
        <ele>540.900024414</ele>
        <time>2016-02-26T10:50:48.892Z</time>
      </trkpt>
      <trkpt lat="45.97234" lon="4.58087">
        <ele>540.799987793</ele>
        <time>2016-02-26T10:50:50.005Z</time>
      </trkpt>
      <trkpt lat="45.9724" lon="4.58093">
        <ele>540.299987793</ele>
        <time>2016-02-26T10:50:51.89Z</time>
      </trkpt>
      <trkpt lat="45.97244" lon="4.58095">
        <ele>540.5</ele>
        <time>2016-02-26T10:50:52.888Z</time>
      </trkpt>
      <trkpt lat="45.97252" lon="4.58099">
        <ele>540.400024414</ele>
        <time>2016-02-26T10:50:54.89Z</time>
      </trkpt>
      <trkpt lat="45.97256" lon="4.58101">
        <ele>540.700012207</ele>
        <time>2016-02-26T10:50:55.868Z</time>
      </trkpt>
      <trkpt lat="45.97264" lon="4.58104">
        <ele>541.299987793</ele>
        <time>2016-02-26T10:50:57.888Z</time>
      </trkpt>
      <trkpt lat="45.97269" lon="4.58104">
        <ele>541.5</ele>
        <time>2016-02-26T10:50:58.869Z</time>
      </trkpt>
      <trkpt lat="45.97276" lon="4.58105">
        <ele>541.900024414</ele>
        <time>2016-02-26T10:51:00.893Z</time>
      </trkpt>
      <trkpt lat="45.97279" lon="4.58104">
        <ele>542.900024414</ele>
        <time>2016-02-26T10:51:01.869Z</time>
      </trkpt>
      <trkpt lat="45.97287" lon="4.58101">
        <ele>543.099975586</ele>
        <time>2016-02-26T10:51:03.938Z</time>
      </trkpt>
      <trkpt lat="45.9729" lon="4.58098">
        <ele>543.799987793</ele>
        <time>2016-02-26T10:51:04.867Z</time>
      </trkpt>
      <trkpt lat="45.97298" lon="4.58094">
        <ele>544.299987793</ele>
        <time>2016-02-26T10:51:06.889Z</time>
      </trkpt>
      <trkpt lat="45.97302" lon="4.58091">
        <ele>544.299987793</ele>
        <time>2016-02-26T10:51:07.869Z</time>
      </trkpt>
      <trkpt lat="45.97306" lon="4.58088">
        <ele>544</ele>
        <time>2016-02-26T10:51:08.905Z</time>
      </trkpt>
      <trkpt lat="45.97311" lon="4.58085">
        <ele>544</ele>
        <time>2016-02-26T10:51:09.868Z</time>
      </trkpt>
      <trkpt lat="45.97315" lon="4.58081">
        <ele>544</ele>
        <time>2016-02-26T10:51:10.888Z</time>
      </trkpt>
      <trkpt lat="45.97318" lon="4.58077">
        <ele>544.400024414</ele>
        <time>2016-02-26T10:51:11.867Z</time>
      </trkpt>
      <trkpt lat="45.97325" lon="4.58072">
        <ele>544.900024414</ele>
        <time>2016-02-26T10:51:13.889Z</time>
      </trkpt>
      <trkpt lat="45.97328" lon="4.5807">
        <ele>545.299987793</ele>
        <time>2016-02-26T10:51:14.871Z</time>
      </trkpt>
      <trkpt lat="45.97334" lon="4.58065">
        <ele>546.200012207</ele>
        <time>2016-02-26T10:51:16.89Z</time>
      </trkpt>
      <trkpt lat="45.97337" lon="4.58062">
        <ele>546.799987793</ele>
        <time>2016-02-26T10:51:17.87Z</time>
      </trkpt>
      <trkpt lat="45.97343" lon="4.58056">
        <ele>548</ele>
        <time>2016-02-26T10:51:19.89Z</time>
      </trkpt>
      <trkpt lat="45.97347" lon="4.58054">
        <ele>548.099975586</ele>
        <time>2016-02-26T10:51:20.87Z</time>
      </trkpt>
      <trkpt lat="45.97354" lon="4.58051">
        <ele>548.599975586</ele>
        <time>2016-02-26T10:51:22.89Z</time>
      </trkpt>
      <trkpt lat="45.97357" lon="4.5805">
        <ele>548.900024414</ele>
        <time>2016-02-26T10:51:23.867Z</time>
      </trkpt>
      <trkpt lat="45.97365" lon="4.58048">
        <ele>549.099975586</ele>
        <time>2016-02-26T10:51:25.949Z</time>
      </trkpt>
      <trkpt lat="45.97368" lon="4.58047">
        <ele>549.099975586</ele>
        <time>2016-02-26T10:51:26.873Z</time>
      </trkpt>
      <trkpt lat="45.97375" lon="4.58047">
        <ele>548.700012207</ele>
        <time>2016-02-26T10:51:28.936Z</time>
      </trkpt>
      <trkpt lat="45.97379" lon="4.58047">
        <ele>548.400024414</ele>
        <time>2016-02-26T10:51:29.87Z</time>
      </trkpt>
      <trkpt lat="45.97387" lon="4.58047">
        <ele>548.200012207</ele>
        <time>2016-02-26T10:51:31.89Z</time>
      </trkpt>
      <trkpt lat="45.97391" lon="4.58049">
        <ele>547.400024414</ele>
        <time>2016-02-26T10:51:32.871Z</time>
      </trkpt>
      <trkpt lat="45.97398" lon="4.58053">
        <ele>546.799987793</ele>
        <time>2016-02-26T10:51:34.904Z</time>
      </trkpt>
      <trkpt lat="45.97402" lon="4.58056">
        <ele>546.200012207</ele>
        <time>2016-02-26T10:51:35.867Z</time>
      </trkpt>
      <trkpt lat="45.97408" lon="4.58064">
        <ele>545.799987793</ele>
        <time>2016-02-26T10:51:37.89Z</time>
      </trkpt>
      <trkpt lat="45.97411" lon="4.58068">
        <ele>545.700012207</ele>
        <time>2016-02-26T10:51:38.87Z</time>
      </trkpt>
      <trkpt lat="45.97417" lon="4.58074">
        <ele>545.599975586</ele>
        <time>2016-02-26T10:51:40.922Z</time>
      </trkpt>
      <trkpt lat="45.97421" lon="4.58077">
        <ele>545.599975586</ele>
        <time>2016-02-26T10:51:41.868Z</time>
      </trkpt>
      <trkpt lat="45.97427" lon="4.58084">
        <ele>545.5</ele>
        <time>2016-02-26T10:51:43.889Z</time>
      </trkpt>
      <trkpt lat="45.97431" lon="4.58087">
        <ele>545.200012207</ele>
        <time>2016-02-26T10:51:44.872Z</time>
      </trkpt>
      <trkpt lat="45.97437" lon="4.58094">
        <ele>545</ele>
        <time>2016-02-26T10:51:46.888Z</time>
      </trkpt>
      <trkpt lat="45.97441" lon="4.58097">
        <ele>545</ele>
        <time>2016-02-26T10:51:47.868Z</time>
      </trkpt>
      <trkpt lat="45.97448" lon="4.58103">
        <ele>544.799987793</ele>
        <time>2016-02-26T10:51:49.889Z</time>
      </trkpt>
      <trkpt lat="45.97452" lon="4.58105">
        <ele>545</ele>
        <time>2016-02-26T10:51:50.87Z</time>
      </trkpt>
      <trkpt lat="45.97459" lon="4.58111">
        <ele>545</ele>
        <time>2016-02-26T10:51:52.89Z</time>
      </trkpt>
      <trkpt lat="45.97462" lon="4.58115">
        <ele>544.700012207</ele>
        <time>2016-02-26T10:51:53.868Z</time>
      </trkpt>
      <trkpt lat="45.97466" lon="4.58118">
        <ele>544.5</ele>
        <time>2016-02-26T10:51:54.891Z</time>
      </trkpt>
      <trkpt lat="45.9747" lon="4.58121">
        <ele>544.5</ele>
        <time>2016-02-26T10:51:55.87Z</time>
      </trkpt>
      <trkpt lat="45.97478" lon="4.58126">
        <ele>544.700012207</ele>
        <time>2016-02-26T10:51:57.888Z</time>
      </trkpt>
      <trkpt lat="45.97482" lon="4.58128">
        <ele>544.200012207</ele>
        <time>2016-02-26T10:51:58.87Z</time>
      </trkpt>
      <trkpt lat="45.9749" lon="4.58133">
        <ele>544.5</ele>
        <time>2016-02-26T10:52:00.915Z</time>
      </trkpt>
      <trkpt lat="45.97494" lon="4.58135">
        <ele>544.799987793</ele>
        <time>2016-02-26T10:52:01.869Z</time>
      </trkpt>
      <trkpt lat="45.97498" lon="4.58137">
        <ele>545.099975586</ele>
        <time>2016-02-26T10:52:02.889Z</time>
      </trkpt>
      <trkpt lat="45.97503" lon="4.58139">
        <ele>545.299987793</ele>
        <time>2016-02-26T10:52:03.867Z</time>
      </trkpt>
      <trkpt lat="45.97511" lon="4.58144">
        <ele>545.099975586</ele>
        <time>2016-02-26T10:52:05.888Z</time>
      </trkpt>
      <trkpt lat="45.97515" lon="4.58146">
        <ele>545.200012207</ele>
        <time>2016-02-26T10:52:06.871Z</time>
      </trkpt>
      <trkpt lat="45.97523" lon="4.58149">
        <ele>545.5</ele>
        <time>2016-02-26T10:52:08.889Z</time>
      </trkpt>
      <trkpt lat="45.97527" lon="4.58151">
        <ele>545.5</ele>
        <time>2016-02-26T10:52:09.867Z</time>
      </trkpt>
      <trkpt lat="45.97536" lon="4.58154">
        <ele>545.799987793</ele>
        <time>2016-02-26T10:52:11.888Z</time>
      </trkpt>
      <trkpt lat="45.9754" lon="4.58155">
        <ele>545.599975586</ele>
        <time>2016-02-26T10:52:12.873Z</time>
      </trkpt>
      <trkpt lat="45.97549" lon="4.58157">
        <ele>545.099975586</ele>
        <time>2016-02-26T10:52:14.889Z</time>
      </trkpt>
      <trkpt lat="45.97552" lon="4.58159">
        <ele>545.099975586</ele>
        <time>2016-02-26T10:52:15.891Z</time>
      </trkpt>
      <trkpt lat="45.97561" lon="4.5816">
        <ele>545.799987793</ele>
        <time>2016-02-26T10:52:17.889Z</time>
      </trkpt>
      <trkpt lat="45.97566" lon="4.58161">
        <ele>545.799987793</ele>
        <time>2016-02-26T10:52:18.874Z</time>
      </trkpt>
      <trkpt lat="45.9757" lon="4.58161">
        <ele>546.400024414</ele>
        <time>2016-02-26T10:52:19.891Z</time>
      </trkpt>
      <trkpt lat="45.97575" lon="4.58162">
        <ele>546.200012207</ele>
        <time>2016-02-26T10:52:20.868Z</time>
      </trkpt>
      <trkpt lat="45.97583" lon="4.58162">
        <ele>546.5</ele>
        <time>2016-02-26T10:52:22.888Z</time>
      </trkpt>
      <trkpt lat="45.97586" lon="4.58162">
        <ele>546.599975586</ele>
        <time>2016-02-26T10:52:23.869Z</time>
      </trkpt>
      <trkpt lat="45.97594" lon="4.58163">
        <ele>547.400024414</ele>
        <time>2016-02-26T10:52:25.9Z</time>
      </trkpt>
      <trkpt lat="45.97597" lon="4.58164">
        <ele>547.599975586</ele>
        <time>2016-02-26T10:52:26.87Z</time>
      </trkpt>
      <trkpt lat="45.97606" lon="4.58164">
        <ele>548.200012207</ele>
        <time>2016-02-26T10:52:28.922Z</time>
      </trkpt>
      <trkpt lat="45.9761" lon="4.58164">
        <ele>548.400024414</ele>
        <time>2016-02-26T10:52:29.868Z</time>
      </trkpt>
      <trkpt lat="45.97617" lon="4.58165">
        <ele>548.5</ele>
        <time>2016-02-26T10:52:31.888Z</time>
      </trkpt>
      <trkpt lat="45.97621" lon="4.58166">
        <ele>548.900024414</ele>
        <time>2016-02-26T10:52:32.87Z</time>
      </trkpt>
      <trkpt lat="45.97629" lon="4.58168">
        <ele>548.400024414</ele>
        <time>2016-02-26T10:52:34.888Z</time>
      </trkpt>
      <trkpt lat="45.97633" lon="4.58169">
        <ele>548.099975586</ele>
        <time>2016-02-26T10:52:35.862Z</time>
      </trkpt>
      <trkpt lat="45.97641" lon="4.58171">
        <ele>548.700012207</ele>
        <time>2016-02-26T10:52:37.904Z</time>
      </trkpt>
      <trkpt lat="45.97645" lon="4.58172">
        <ele>549.799987793</ele>
        <time>2016-02-26T10:52:38.87Z</time>
      </trkpt>
      <trkpt lat="45.97653" lon="4.58174">
        <ele>551.099975586</ele>
        <time>2016-02-26T10:52:40.887Z</time>
      </trkpt>
      <trkpt lat="45.97657" lon="4.58176">
        <ele>551.400024414</ele>
        <time>2016-02-26T10:52:41.872Z</time>
      </trkpt>
      <trkpt lat="45.97664" lon="4.58178">
        <ele>551.700012207</ele>
        <time>2016-02-26T10:52:43.888Z</time>
      </trkpt>
      <trkpt lat="45.97668" lon="4.58178">
        <ele>551.099975586</ele>
        <time>2016-02-26T10:52:44.873Z</time>
      </trkpt>
      <trkpt lat="45.97676" lon="4.58181">
        <ele>550.599975586</ele>
        <time>2016-02-26T10:52:46.888Z</time>
      </trkpt>
      <trkpt lat="45.97679" lon="4.58183">
        <ele>550.5</ele>
        <time>2016-02-26T10:52:47.867Z</time>
      </trkpt>
      <trkpt lat="45.97687" lon="4.58188">
        <ele>549.799987793</ele>
        <time>2016-02-26T10:52:49.89Z</time>
      </trkpt>
      <trkpt lat="45.97691" lon="4.58189">
        <ele>548.900024414</ele>
        <time>2016-02-26T10:52:50.87Z</time>
      </trkpt>
      <trkpt lat="45.97699" lon="4.58193">
        <ele>547.5</ele>
        <time>2016-02-26T10:52:52.887Z</time>
      </trkpt>
      <trkpt lat="45.97703" lon="4.58194">
        <ele>547.200012207</ele>
        <time>2016-02-26T10:52:53.867Z</time>
      </trkpt>
      <trkpt lat="45.97711" lon="4.58198">
        <ele>546.700012207</ele>
        <time>2016-02-26T10:52:55.888Z</time>
      </trkpt>
      <trkpt lat="45.97715" lon="4.58201">
        <ele>546.799987793</ele>
        <time>2016-02-26T10:52:56.87Z</time>
      </trkpt>
      <trkpt lat="45.97723" lon="4.58205">
        <ele>546.799987793</ele>
        <time>2016-02-26T10:52:58.904Z</time>
      </trkpt>
      <trkpt lat="45.97727" lon="4.58208">
        <ele>546.900024414</ele>
        <time>2016-02-26T10:52:59.867Z</time>
      </trkpt>
      <trkpt lat="45.97735" lon="4.58212">
        <ele>546.599975586</ele>
        <time>2016-02-26T10:53:02.019Z</time>
      </trkpt>
      <trkpt lat="45.97739" lon="4.58215">
        <ele>546.5</ele>
        <time>2016-02-26T10:53:02.868Z</time>
      </trkpt>
      <trkpt lat="45.97746" lon="4.5822">
        <ele>546.5</ele>
        <time>2016-02-26T10:53:04.887Z</time>
      </trkpt>
      <trkpt lat="45.9775" lon="4.58223">
        <ele>546.299987793</ele>
        <time>2016-02-26T10:53:05.87Z</time>
      </trkpt>
      <trkpt lat="45.97757" lon="4.58229">
        <ele>546.400024414</ele>
        <time>2016-02-26T10:53:07.888Z</time>
      </trkpt>
      <trkpt lat="45.9776" lon="4.58232">
        <ele>546.5</ele>
        <time>2016-02-26T10:53:08.87Z</time>
      </trkpt>
      <trkpt lat="45.97768" lon="4.58239">
        <ele>546.799987793</ele>
        <time>2016-02-26T10:53:10.89Z</time>
      </trkpt>
      <trkpt lat="45.97771" lon="4.58243">
        <ele>547</ele>
        <time>2016-02-26T10:53:11.87Z</time>
      </trkpt>
      <trkpt lat="45.97778" lon="4.5825">
        <ele>547.099975586</ele>
        <time>2016-02-26T10:53:13.888Z</time>
      </trkpt>
      <trkpt lat="45.97781" lon="4.58254">
        <ele>547</ele>
        <time>2016-02-26T10:53:15.049Z</time>
      </trkpt>
      <trkpt lat="45.97787" lon="4.5826">
        <ele>547</ele>
        <time>2016-02-26T10:53:16.903Z</time>
      </trkpt>
      <trkpt lat="45.97789" lon="4.58264">
        <ele>546.900024414</ele>
        <time>2016-02-26T10:53:17.87Z</time>
      </trkpt>
      <trkpt lat="45.97794" lon="4.58271">
        <ele>546.700012207</ele>
        <time>2016-02-26T10:53:19.888Z</time>
      </trkpt>
      <trkpt lat="45.97796" lon="4.58275">
        <ele>546.700012207</ele>
        <time>2016-02-26T10:53:20.87Z</time>
      </trkpt>
      <trkpt lat="45.97801" lon="4.58283">
        <ele>546.799987793</ele>
        <time>2016-02-26T10:53:22.89Z</time>
      </trkpt>
      <trkpt lat="45.97803" lon="4.58287">
        <ele>546.700012207</ele>
        <time>2016-02-26T10:53:23.869Z</time>
      </trkpt>
      <trkpt lat="45.97806" lon="4.58295">
        <ele>546.5</ele>
        <time>2016-02-26T10:53:25.888Z</time>
      </trkpt>
      <trkpt lat="45.97808" lon="4.58299">
        <ele>546.5</ele>
        <time>2016-02-26T10:53:26.868Z</time>
      </trkpt>
      <trkpt lat="45.97811" lon="4.58309">
        <ele>546.700012207</ele>
        <time>2016-02-26T10:53:29.907Z</time>
      </trkpt>
      <trkpt lat="45.97813" lon="4.58312">
        <ele>546.799987793</ele>
        <time>2016-02-26T10:53:30.903Z</time>
      </trkpt>
      <trkpt lat="45.97816" lon="4.58322">
        <ele>547.099975586</ele>
        <time>2016-02-26T10:53:34.889Z</time>
      </trkpt>
      <trkpt lat="45.97816" lon="4.58325">
        <ele>547.200012207</ele>
        <time>2016-02-26T10:53:35.87Z</time>
      </trkpt>
      <trkpt lat="45.97814" lon="4.58336">
        <ele>548.299987793</ele>
        <time>2016-02-26T10:53:39.889Z</time>
      </trkpt>
      <trkpt lat="45.97813" lon="4.58339">
        <ele>548.400024414</ele>
        <time>2016-02-26T10:53:40.867Z</time>
      </trkpt>
      <trkpt lat="45.97816" lon="4.58343">
        <ele>549.700012207</ele>
        <time>2016-02-26T10:53:44.912Z</time>
      </trkpt>
      <trkpt lat="45.97817" lon="4.58342">
        <ele>549.799987793</ele>
        <time>2016-02-26T10:53:45.869Z</time>
      </trkpt>
      <trkpt lat="45.97817" lon="4.58342">
        <ele>550.299987793</ele>
        <time>2016-02-26T10:54:08.889Z</time>
      </trkpt>
      <trkpt lat="45.97819" lon="4.58341">
        <ele>551.099975586</ele>
        <time>2016-02-26T10:54:09.87Z</time>
      </trkpt>
      <trkpt lat="45.97819" lon="4.5834">
        <ele>551.099975586</ele>
        <time>2016-02-26T10:54:12.891Z</time>
      </trkpt>
      <trkpt lat="45.9782" lon="4.58339">
        <ele>551.099975586</ele>
        <time>2016-02-26T10:54:13.868Z</time>
      </trkpt>
      <trkpt lat="45.9782" lon="4.58336">
        <ele>551.099975586</ele>
        <time>2016-02-26T10:54:35.92Z</time>
      </trkpt>
      <trkpt lat="45.9782" lon="4.58335">
        <ele>551.099975586</ele>
        <time>2016-02-26T10:54:36.909Z</time>
      </trkpt>
      <trkpt lat="45.97824" lon="4.58346">
        <ele>550.299987793</ele>
        <time>2016-02-26T11:02:44.896Z</time>
      </trkpt>
      <trkpt lat="45.97824" lon="4.5835">
        <ele>550.200012207</ele>
        <time>2016-02-26T11:02:45.874Z</time>
      </trkpt>
      <trkpt lat="45.97824" lon="4.58359">
        <ele>550.400024414</ele>
        <time>2016-02-26T11:02:47.958Z</time>
      </trkpt>
      <trkpt lat="45.97823" lon="4.58364">
        <ele>550.299987793</ele>
        <time>2016-02-26T11:02:48.876Z</time>
      </trkpt>
      <trkpt lat="45.97823" lon="4.58376">
        <ele>550.200012207</ele>
        <time>2016-02-26T11:02:50.89Z</time>
      </trkpt>
      <trkpt lat="45.97823" lon="4.58382">
        <ele>550</ele>
        <time>2016-02-26T11:02:51.871Z</time>
      </trkpt>
      <trkpt lat="45.97823" lon="4.58389">
        <ele>550.099975586</ele>
        <time>2016-02-26T11:02:52.887Z</time>
      </trkpt>
      <trkpt lat="45.97823" lon="4.58396">
        <ele>550.400024414</ele>
        <time>2016-02-26T11:02:53.868Z</time>
      </trkpt>
      <trkpt lat="45.97823" lon="4.58403">
        <ele>549.400024414</ele>
        <time>2016-02-26T11:02:55.276Z</time>
      </trkpt>
      <trkpt lat="45.97823" lon="4.5841">
        <ele>549.200012207</ele>
        <time>2016-02-26T11:02:55.871Z</time>
      </trkpt>
      <trkpt lat="45.97823" lon="4.58418">
        <ele>549</ele>
        <time>2016-02-26T11:02:56.891Z</time>
      </trkpt>
      <trkpt lat="45.97823" lon="4.58426">
        <ele>548.900024414</ele>
        <time>2016-02-26T11:02:57.871Z</time>
      </trkpt>
      <trkpt lat="45.97823" lon="4.58435">
        <ele>548.700012207</ele>
        <time>2016-02-26T11:02:58.914Z</time>
      </trkpt>
      <trkpt lat="45.97823" lon="4.58444">
        <ele>548.400024414</ele>
        <time>2016-02-26T11:02:59.871Z</time>
      </trkpt>
      <trkpt lat="45.97823" lon="4.58453">
        <ele>548.299987793</ele>
        <time>2016-02-26T11:03:00.891Z</time>
      </trkpt>
      <trkpt lat="45.97823" lon="4.58463">
        <ele>547.799987793</ele>
        <time>2016-02-26T11:03:01.867Z</time>
      </trkpt>
      <trkpt lat="45.97824" lon="4.58473">
        <ele>547.299987793</ele>
        <time>2016-02-26T11:03:02.891Z</time>
      </trkpt>
      <trkpt lat="45.97824" lon="4.58484">
        <ele>546.900024414</ele>
        <time>2016-02-26T11:03:03.869Z</time>
      </trkpt>
      <trkpt lat="45.97825" lon="4.58494">
        <ele>546.5</ele>
        <time>2016-02-26T11:03:04.89Z</time>
      </trkpt>
      <trkpt lat="45.97825" lon="4.58505">
        <ele>546</ele>
        <time>2016-02-26T11:03:05.87Z</time>
      </trkpt>
      <trkpt lat="45.97826" lon="4.58515">
        <ele>545.700012207</ele>
        <time>2016-02-26T11:03:06.89Z</time>
      </trkpt>
      <trkpt lat="45.97828" lon="4.58526">
        <ele>544.5</ele>
        <time>2016-02-26T11:03:07.869Z</time>
      </trkpt>
      <trkpt lat="45.97832" lon="4.58535">
        <ele>544.200012207</ele>
        <time>2016-02-26T11:03:08.89Z</time>
      </trkpt>
      <trkpt lat="45.97838" lon="4.58542">
        <ele>543.299987793</ele>
        <time>2016-02-26T11:03:09.867Z</time>
      </trkpt>
      <trkpt lat="45.97844" lon="4.58548">
        <ele>542.5</ele>
        <time>2016-02-26T11:03:10.889Z</time>
      </trkpt>
      <trkpt lat="45.97852" lon="4.5855">
        <ele>541.5</ele>
        <time>2016-02-26T11:03:11.867Z</time>
      </trkpt>
      <trkpt lat="45.9786" lon="4.58551">
        <ele>540.900024414</ele>
        <time>2016-02-26T11:03:12.893Z</time>
      </trkpt>
      <trkpt lat="45.97869" lon="4.58552">
        <ele>539.400024414</ele>
        <time>2016-02-26T11:03:13.87Z</time>
      </trkpt>
      <trkpt lat="45.97878" lon="4.58552">
        <ele>538.299987793</ele>
        <time>2016-02-26T11:03:14.945Z</time>
      </trkpt>
      <trkpt lat="45.97887" lon="4.58552">
        <ele>537</ele>
        <time>2016-02-26T11:03:15.872Z</time>
      </trkpt>
      <trkpt lat="45.97887" lon="4.58552">
        <ele>537</ele>
        <time>2016-02-26T11:03:15.907Z</time>
      </trkpt>
      <trkpt lat="45.97896" lon="4.58552">
        <ele>536</ele>
        <time>2016-02-26T11:03:16.92Z</time>
      </trkpt>
      <trkpt lat="45.97905" lon="4.58552">
        <ele>535.200012207</ele>
        <time>2016-02-26T11:03:17.889Z</time>
      </trkpt>
      <trkpt lat="45.97914" lon="4.58551">
        <ele>534.299987793</ele>
        <time>2016-02-26T11:03:18.874Z</time>
      </trkpt>
      <trkpt lat="45.97914" lon="4.58551">
        <ele>534.299987793</ele>
        <time>2016-02-26T11:03:18.896Z</time>
      </trkpt>
      <trkpt lat="45.97923" lon="4.58551">
        <ele>533.599975586</ele>
        <time>2016-02-26T11:03:19.87Z</time>
      </trkpt>
      <trkpt lat="45.97923" lon="4.58551">
        <ele>533.599975586</ele>
        <time>2016-02-26T11:03:19.889Z</time>
      </trkpt>
      <trkpt lat="45.97933" lon="4.58551">
        <ele>532.700012207</ele>
        <time>2016-02-26T11:03:20.871Z</time>
      </trkpt>
      <trkpt lat="45.97933" lon="4.58551">
        <ele>532.700012207</ele>
        <time>2016-02-26T11:03:20.892Z</time>
      </trkpt>
      <trkpt lat="45.97942" lon="4.58551">
        <ele>532</ele>
        <time>2016-02-26T11:03:21.872Z</time>
      </trkpt>
      <trkpt lat="45.97942" lon="4.58551">
        <ele>532</ele>
        <time>2016-02-26T11:03:21.892Z</time>
      </trkpt>
      <trkpt lat="45.97952" lon="4.58551">
        <ele>531.299987793</ele>
        <time>2016-02-26T11:03:22.883Z</time>
      </trkpt>
      <trkpt lat="45.97952" lon="4.58551">
        <ele>531.299987793</ele>
        <time>2016-02-26T11:03:22.909Z</time>
      </trkpt>
      <trkpt lat="45.97961" lon="4.5855">
        <ele>530.700012207</ele>
        <time>2016-02-26T11:03:23.869Z</time>
      </trkpt>
      <trkpt lat="45.97961" lon="4.5855">
        <ele>530.700012207</ele>
        <time>2016-02-26T11:03:23.889Z</time>
      </trkpt>
      <trkpt lat="45.97971" lon="4.5855">
        <ele>529.900024414</ele>
        <time>2016-02-26T11:03:24.895Z</time>
      </trkpt>
      <trkpt lat="45.97971" lon="4.5855">
        <ele>529.900024414</ele>
        <time>2016-02-26T11:03:24.915Z</time>
      </trkpt>
      <trkpt lat="45.97981" lon="4.58549">
        <ele>528.599975586</ele>
        <time>2016-02-26T11:03:25.873Z</time>
      </trkpt>
      <trkpt lat="45.97981" lon="4.58549">
        <ele>528.599975586</ele>
        <time>2016-02-26T11:03:25.894Z</time>
      </trkpt>
      <trkpt lat="45.97991" lon="4.58549">
        <ele>527.700012207</ele>
        <time>2016-02-26T11:03:26.869Z</time>
      </trkpt>
      <trkpt lat="45.97991" lon="4.58549">
        <ele>527.700012207</ele>
        <time>2016-02-26T11:03:26.89Z</time>
      </trkpt>
      <trkpt lat="45.98001" lon="4.58549">
        <ele>526.799987793</ele>
        <time>2016-02-26T11:03:27.87Z</time>
      </trkpt>
      <trkpt lat="45.98001" lon="4.58549">
        <ele>526.799987793</ele>
        <time>2016-02-26T11:03:27.892Z</time>
      </trkpt>
      <trkpt lat="45.98012" lon="4.58549">
        <ele>525.900024414</ele>
        <time>2016-02-26T11:03:28.869Z</time>
      </trkpt>
      <trkpt lat="45.98012" lon="4.58549">
        <ele>525.900024414</ele>
        <time>2016-02-26T11:03:29.06Z</time>
      </trkpt>
      <trkpt lat="45.98022" lon="4.58548">
        <ele>524.900024414</ele>
        <time>2016-02-26T11:03:29.893Z</time>
      </trkpt>
      <trkpt lat="45.98022" lon="4.58548">
        <ele>524.900024414</ele>
        <time>2016-02-26T11:03:29.918Z</time>
      </trkpt>
      <trkpt lat="45.98033" lon="4.58548">
        <ele>524</ele>
        <time>2016-02-26T11:03:30.863Z</time>
      </trkpt>
      <trkpt lat="45.98033" lon="4.58548">
        <ele>524</ele>
        <time>2016-02-26T11:03:30.979Z</time>
      </trkpt>
      <trkpt lat="45.98043" lon="4.58548">
        <ele>523.099975586</ele>
        <time>2016-02-26T11:03:31.868Z</time>
      </trkpt>
      <trkpt lat="45.98043" lon="4.58548">
        <ele>523.099975586</ele>
        <time>2016-02-26T11:03:31.896Z</time>
      </trkpt>
      <trkpt lat="45.98054" lon="4.58549">
        <ele>522.200012207</ele>
        <time>2016-02-26T11:03:32.87Z</time>
      </trkpt>
      <trkpt lat="45.98054" lon="4.58549">
        <ele>522.200012207</ele>
        <time>2016-02-26T11:03:32.901Z</time>
      </trkpt>
      <trkpt lat="45.98065" lon="4.5855">
        <ele>521.299987793</ele>
        <time>2016-02-26T11:03:33.867Z</time>
      </trkpt>
      <trkpt lat="45.98065" lon="4.5855">
        <ele>521.299987793</ele>
        <time>2016-02-26T11:03:33.899Z</time>
      </trkpt>
      <trkpt lat="45.98075" lon="4.58552">
        <ele>520.599975586</ele>
        <time>2016-02-26T11:03:34.87Z</time>
      </trkpt>
      <trkpt lat="45.98075" lon="4.58552">
        <ele>520.599975586</ele>
        <time>2016-02-26T11:03:34.897Z</time>
      </trkpt>
      <trkpt lat="45.98086" lon="4.58554">
        <ele>519.799987793</ele>
        <time>2016-02-26T11:03:35.872Z</time>
      </trkpt>
      <trkpt lat="45.98086" lon="4.58554">
        <ele>519.799987793</ele>
        <time>2016-02-26T11:03:35.891Z</time>
      </trkpt>
      <trkpt lat="45.98097" lon="4.58556">
        <ele>519</ele>
        <time>2016-02-26T11:03:36.872Z</time>
      </trkpt>
      <trkpt lat="45.98097" lon="4.58556">
        <ele>519</ele>
        <time>2016-02-26T11:03:36.891Z</time>
      </trkpt>
      <trkpt lat="45.98108" lon="4.58558">
        <ele>518.200012207</ele>
        <time>2016-02-26T11:03:37.869Z</time>
      </trkpt>
      <trkpt lat="45.98108" lon="4.58558">
        <ele>518.200012207</ele>
        <time>2016-02-26T11:03:37.888Z</time>
      </trkpt>
      <trkpt lat="45.98119" lon="4.5856">
        <ele>517.5</ele>
        <time>2016-02-26T11:03:38.868Z</time>
      </trkpt>
      <trkpt lat="45.98119" lon="4.5856">
        <ele>517.5</ele>
        <time>2016-02-26T11:03:38.892Z</time>
      </trkpt>
      <trkpt lat="45.9813" lon="4.58562">
        <ele>516.700012207</ele>
        <time>2016-02-26T11:03:39.869Z</time>
      </trkpt>
      <trkpt lat="45.9813" lon="4.58562">
        <ele>516.700012207</ele>
        <time>2016-02-26T11:03:39.892Z</time>
      </trkpt>
      <trkpt lat="45.98142" lon="4.58564">
        <ele>515.900024414</ele>
        <time>2016-02-26T11:03:40.873Z</time>
      </trkpt>
      <trkpt lat="45.98142" lon="4.58564">
        <ele>515.900024414</ele>
        <time>2016-02-26T11:03:40.902Z</time>
      </trkpt>
      <trkpt lat="45.98153" lon="4.58566">
        <ele>514.799987793</ele>
        <time>2016-02-26T11:03:41.868Z</time>
      </trkpt>
      <trkpt lat="45.98153" lon="4.58566">
        <ele>514.799987793</ele>
        <time>2016-02-26T11:03:41.894Z</time>
      </trkpt>
      <trkpt lat="45.98165" lon="4.58568">
        <ele>514.099975586</ele>
        <time>2016-02-26T11:03:42.872Z</time>
      </trkpt>
      <trkpt lat="45.98165" lon="4.58568">
        <ele>514.099975586</ele>
        <time>2016-02-26T11:03:42.901Z</time>
      </trkpt>
      <trkpt lat="45.98176" lon="4.5857">
        <ele>513.200012207</ele>
        <time>2016-02-26T11:03:43.867Z</time>
      </trkpt>
      <trkpt lat="45.98176" lon="4.5857">
        <ele>513.200012207</ele>
        <time>2016-02-26T11:03:43.891Z</time>
      </trkpt>
      <trkpt lat="45.98188" lon="4.58572">
        <ele>512.200012207</ele>
        <time>2016-02-26T11:03:44.87Z</time>
      </trkpt>
      <trkpt lat="45.98188" lon="4.58572">
        <ele>512.200012207</ele>
        <time>2016-02-26T11:03:44.915Z</time>
      </trkpt>
      <trkpt lat="45.982" lon="4.58574">
        <ele>511.399993896</ele>
        <time>2016-02-26T11:03:45.871Z</time>
      </trkpt>
      <trkpt lat="45.982" lon="4.58574">
        <ele>511.399993896</ele>
        <time>2016-02-26T11:03:45.897Z</time>
      </trkpt>
      <trkpt lat="45.98212" lon="4.58576">
        <ele>510.399993896</ele>
        <time>2016-02-26T11:03:46.868Z</time>
      </trkpt>
      <trkpt lat="45.98212" lon="4.58576">
        <ele>510.399993896</ele>
        <time>2016-02-26T11:03:46.891Z</time>
      </trkpt>
      <trkpt lat="45.98224" lon="4.58578">
        <ele>509.5</ele>
        <time>2016-02-26T11:03:47.871Z</time>
      </trkpt>
      <trkpt lat="45.98224" lon="4.58578">
        <ele>509.5</ele>
        <time>2016-02-26T11:03:47.891Z</time>
      </trkpt>
      <trkpt lat="45.98236" lon="4.5858">
        <ele>508.600006104</ele>
        <time>2016-02-26T11:03:48.872Z</time>
      </trkpt>
      <trkpt lat="45.98236" lon="4.5858">
        <ele>508.600006104</ele>
        <time>2016-02-26T11:03:48.895Z</time>
      </trkpt>
      <trkpt lat="45.98248" lon="4.58582">
        <ele>507.700012207</ele>
        <time>2016-02-26T11:03:49.871Z</time>
      </trkpt>
      <trkpt lat="45.98248" lon="4.58582">
        <ele>507.700012207</ele>
        <time>2016-02-26T11:03:50.041Z</time>
      </trkpt>
      <trkpt lat="45.98259" lon="4.58583">
        <ele>506.899993896</ele>
        <time>2016-02-26T11:03:50.869Z</time>
      </trkpt>
      <trkpt lat="45.98259" lon="4.58583">
        <ele>506.899993896</ele>
        <time>2016-02-26T11:03:50.889Z</time>
      </trkpt>
      <trkpt lat="45.98271" lon="4.58585">
        <ele>506.200012207</ele>
        <time>2016-02-26T11:03:51.868Z</time>
      </trkpt>
      <trkpt lat="45.98271" lon="4.58585">
        <ele>506.200012207</ele>
        <time>2016-02-26T11:03:51.888Z</time>
      </trkpt>
      <trkpt lat="45.98283" lon="4.58585">
        <ele>505.5</ele>
        <time>2016-02-26T11:03:52.871Z</time>
      </trkpt>
      <trkpt lat="45.98283" lon="4.58585">
        <ele>505.5</ele>
        <time>2016-02-26T11:03:52.89Z</time>
      </trkpt>
      <trkpt lat="45.98294" lon="4.58585">
        <ele>504.700012207</ele>
        <time>2016-02-26T11:03:53.869Z</time>
      </trkpt>
      <trkpt lat="45.98294" lon="4.58585">
        <ele>504.700012207</ele>
        <time>2016-02-26T11:03:53.889Z</time>
      </trkpt>
      <trkpt lat="45.98306" lon="4.58584">
        <ele>504</ele>
        <time>2016-02-26T11:03:54.874Z</time>
      </trkpt>
      <trkpt lat="45.98306" lon="4.58584">
        <ele>504</ele>
        <time>2016-02-26T11:03:54.893Z</time>
      </trkpt>
      <trkpt lat="45.98317" lon="4.58584">
        <ele>503.200012207</ele>
        <time>2016-02-26T11:03:55.872Z</time>
      </trkpt>
      <trkpt lat="45.98317" lon="4.58584">
        <ele>503.200012207</ele>
        <time>2016-02-26T11:03:55.892Z</time>
      </trkpt>
      <trkpt lat="45.98327" lon="4.58583">
        <ele>502.600006104</ele>
        <time>2016-02-26T11:03:56.87Z</time>
      </trkpt>
      <trkpt lat="45.98327" lon="4.58583">
        <ele>502.600006104</ele>
        <time>2016-02-26T11:03:56.892Z</time>
      </trkpt>
      <trkpt lat="45.98337" lon="4.58581">
        <ele>501.899993896</ele>
        <time>2016-02-26T11:03:57.869Z</time>
      </trkpt>
      <trkpt lat="45.98337" lon="4.58581">
        <ele>501.899993896</ele>
        <time>2016-02-26T11:03:57.891Z</time>
      </trkpt>
      <trkpt lat="45.98346" lon="4.58579">
        <ele>501.299987793</ele>
        <time>2016-02-26T11:03:58.869Z</time>
      </trkpt>
      <trkpt lat="45.98355" lon="4.58578">
        <ele>500.799987793</ele>
        <time>2016-02-26T11:03:59.895Z</time>
      </trkpt>
      <trkpt lat="45.98363" lon="4.58576">
        <ele>500.399993896</ele>
        <time>2016-02-26T11:04:00.89Z</time>
      </trkpt>
      <trkpt lat="45.9837" lon="4.58576">
        <ele>499.799987793</ele>
        <time>2016-02-26T11:04:01.889Z</time>
      </trkpt>
      <trkpt lat="45.98377" lon="4.58579">
        <ele>499.399993896</ele>
        <time>2016-02-26T11:04:02.871Z</time>
      </trkpt>
      <trkpt lat="45.98382" lon="4.58584">
        <ele>499</ele>
        <time>2016-02-26T11:04:03.89Z</time>
      </trkpt>
      <trkpt lat="45.98384" lon="4.58592">
        <ele>498.799987793</ele>
        <time>2016-02-26T11:04:04.9Z</time>
      </trkpt>
      <trkpt lat="45.98384" lon="4.586">
        <ele>498.5</ele>
        <time>2016-02-26T11:04:05.922Z</time>
      </trkpt>
      <trkpt lat="45.98382" lon="4.58609">
        <ele>498.200012207</ele>
        <time>2016-02-26T11:04:06.875Z</time>
      </trkpt>
      <trkpt lat="45.98379" lon="4.58617">
        <ele>497.899993896</ele>
        <time>2016-02-26T11:04:07.89Z</time>
      </trkpt>
      <trkpt lat="45.98375" lon="4.58625">
        <ele>497.600006104</ele>
        <time>2016-02-26T11:04:08.868Z</time>
      </trkpt>
      <trkpt lat="45.9837" lon="4.58631">
        <ele>497.299987793</ele>
        <time>2016-02-26T11:04:09.966Z</time>
      </trkpt>
      <trkpt lat="45.98364" lon="4.58636">
        <ele>497.200012207</ele>
        <time>2016-02-26T11:04:10.869Z</time>
      </trkpt>
      <trkpt lat="45.98358" lon="4.58641">
        <ele>496.899993896</ele>
        <time>2016-02-26T11:04:11.89Z</time>
      </trkpt>
      <trkpt lat="45.98351" lon="4.58645">
        <ele>496.799987793</ele>
        <time>2016-02-26T11:04:12.874Z</time>
      </trkpt>
      <trkpt lat="45.98344" lon="4.5865">
        <ele>496.600006104</ele>
        <time>2016-02-26T11:04:13.888Z</time>
      </trkpt>
      <trkpt lat="45.98338" lon="4.58655">
        <ele>496.5</ele>
        <time>2016-02-26T11:04:14.868Z</time>
      </trkpt>
      <trkpt lat="45.98331" lon="4.58661">
        <ele>496.200012207</ele>
        <time>2016-02-26T11:04:15.893Z</time>
      </trkpt>
      <trkpt lat="45.98325" lon="4.58667">
        <ele>494.799987793</ele>
        <time>2016-02-26T11:04:16.869Z</time>
      </trkpt>
      <trkpt lat="45.98318" lon="4.58673">
        <ele>494.399993896</ele>
        <time>2016-02-26T11:04:17.887Z</time>
      </trkpt>
      <trkpt lat="45.98311" lon="4.58679">
        <ele>494</ele>
        <time>2016-02-26T11:04:18.872Z</time>
      </trkpt>
      <trkpt lat="45.98304" lon="4.58685">
        <ele>493.600006104</ele>
        <time>2016-02-26T11:04:19.975Z</time>
      </trkpt>
      <trkpt lat="45.98297" lon="4.58691">
        <ele>493.100006104</ele>
        <time>2016-02-26T11:04:20.87Z</time>
      </trkpt>
      <trkpt lat="45.98289" lon="4.58698">
        <ele>492.700012207</ele>
        <time>2016-02-26T11:04:21.903Z</time>
      </trkpt>
      <trkpt lat="45.98282" lon="4.58705">
        <ele>492.299987793</ele>
        <time>2016-02-26T11:04:22.869Z</time>
      </trkpt>
      <trkpt lat="45.98282" lon="4.58705">
        <ele>492.299987793</ele>
        <time>2016-02-26T11:04:22.89Z</time>
      </trkpt>
      <trkpt lat="45.98274" lon="4.58712">
        <ele>491.799987793</ele>
        <time>2016-02-26T11:04:23.867Z</time>
      </trkpt>
      <trkpt lat="45.98274" lon="4.58712">
        <ele>491.799987793</ele>
        <time>2016-02-26T11:04:23.889Z</time>
      </trkpt>
      <trkpt lat="45.98266" lon="4.58718">
        <ele>491.299987793</ele>
        <time>2016-02-26T11:04:24.874Z</time>
      </trkpt>
      <trkpt lat="45.98266" lon="4.58718">
        <ele>491.299987793</ele>
        <time>2016-02-26T11:04:24.893Z</time>
      </trkpt>
      <trkpt lat="45.98258" lon="4.58725">
        <ele>490.799987793</ele>
        <time>2016-02-26T11:04:25.871Z</time>
      </trkpt>
      <trkpt lat="45.98258" lon="4.58725">
        <ele>490.799987793</ele>
        <time>2016-02-26T11:04:25.894Z</time>
      </trkpt>
      <trkpt lat="45.9825" lon="4.58732">
        <ele>490.399993896</ele>
        <time>2016-02-26T11:04:26.888Z</time>
      </trkpt>
      <trkpt lat="45.9825" lon="4.58732">
        <ele>490.399993896</ele>
        <time>2016-02-26T11:04:26.908Z</time>
      </trkpt>
      <trkpt lat="45.98241" lon="4.58739">
        <ele>489.899993896</ele>
        <time>2016-02-26T11:04:27.871Z</time>
      </trkpt>
      <trkpt lat="45.98241" lon="4.58739">
        <ele>489.899993896</ele>
        <time>2016-02-26T11:04:27.891Z</time>
      </trkpt>
      <trkpt lat="45.98233" lon="4.58746">
        <ele>489.399993896</ele>
        <time>2016-02-26T11:04:28.869Z</time>
      </trkpt>
      <trkpt lat="45.98233" lon="4.58746">
        <ele>489.399993896</ele>
        <time>2016-02-26T11:04:29.002Z</time>
      </trkpt>
      <trkpt lat="45.98224" lon="4.58753">
        <ele>489</ele>
        <time>2016-02-26T11:04:29.871Z</time>
      </trkpt>
      <trkpt lat="45.98224" lon="4.58753">
        <ele>489</ele>
        <time>2016-02-26T11:04:29.912Z</time>
      </trkpt>
      <trkpt lat="45.98216" lon="4.5876">
        <ele>488.5</ele>
        <time>2016-02-26T11:04:30.874Z</time>
      </trkpt>
      <trkpt lat="45.98216" lon="4.5876">
        <ele>488.5</ele>
        <time>2016-02-26T11:04:30.897Z</time>
      </trkpt>
      <trkpt lat="45.98208" lon="4.58767">
        <ele>488</ele>
        <time>2016-02-26T11:04:31.928Z</time>
      </trkpt>
      <trkpt lat="45.98208" lon="4.58767">
        <ele>488</ele>
        <time>2016-02-26T11:04:31.996Z</time>
      </trkpt>
      <trkpt lat="45.98199" lon="4.58775">
        <ele>487.5</ele>
        <time>2016-02-26T11:04:32.874Z</time>
      </trkpt>
      <trkpt lat="45.98199" lon="4.58775">
        <ele>487.5</ele>
        <time>2016-02-26T11:04:32.895Z</time>
      </trkpt>
      <trkpt lat="45.98191" lon="4.58782">
        <ele>487</ele>
        <time>2016-02-26T11:04:33.871Z</time>
      </trkpt>
      <trkpt lat="45.98191" lon="4.58782">
        <ele>487</ele>
        <time>2016-02-26T11:04:33.892Z</time>
      </trkpt>
      <trkpt lat="45.98183" lon="4.58789">
        <ele>486.600006104</ele>
        <time>2016-02-26T11:04:34.868Z</time>
      </trkpt>
      <trkpt lat="45.98183" lon="4.58789">
        <ele>486.600006104</ele>
        <time>2016-02-26T11:04:34.902Z</time>
      </trkpt>
      <trkpt lat="45.98175" lon="4.58797">
        <ele>486.100006104</ele>
        <time>2016-02-26T11:04:35.876Z</time>
      </trkpt>
      <trkpt lat="45.98175" lon="4.58797">
        <ele>486.100006104</ele>
        <time>2016-02-26T11:04:35.909Z</time>
      </trkpt>
      <trkpt lat="45.98166" lon="4.58804">
        <ele>485.600006104</ele>
        <time>2016-02-26T11:04:36.874Z</time>
      </trkpt>
      <trkpt lat="45.98166" lon="4.58804">
        <ele>485.600006104</ele>
        <time>2016-02-26T11:04:36.897Z</time>
      </trkpt>
      <trkpt lat="45.98158" lon="4.58811">
        <ele>485.100006104</ele>
        <time>2016-02-26T11:04:37.871Z</time>
      </trkpt>
      <trkpt lat="45.98158" lon="4.58811">
        <ele>485.100006104</ele>
        <time>2016-02-26T11:04:37.891Z</time>
      </trkpt>
      <trkpt lat="45.98149" lon="4.58818">
        <ele>484.799987793</ele>
        <time>2016-02-26T11:04:38.872Z</time>
      </trkpt>
      <trkpt lat="45.98149" lon="4.58818">
        <ele>484.799987793</ele>
        <time>2016-02-26T11:04:38.891Z</time>
      </trkpt>
      <trkpt lat="45.98141" lon="4.58825">
        <ele>484.200012207</ele>
        <time>2016-02-26T11:04:39.868Z</time>
      </trkpt>
      <trkpt lat="45.98141" lon="4.58825">
        <ele>484.200012207</ele>
        <time>2016-02-26T11:04:39.89Z</time>
      </trkpt>
      <trkpt lat="45.98132" lon="4.58832">
        <ele>483.899993896</ele>
        <time>2016-02-26T11:04:40.871Z</time>
      </trkpt>
      <trkpt lat="45.98132" lon="4.58832">
        <ele>483.899993896</ele>
        <time>2016-02-26T11:04:40.891Z</time>
      </trkpt>
      <trkpt lat="45.98124" lon="4.5884">
        <ele>483.200012207</ele>
        <time>2016-02-26T11:04:41.867Z</time>
      </trkpt>
      <trkpt lat="45.98124" lon="4.5884">
        <ele>483.200012207</ele>
        <time>2016-02-26T11:04:41.888Z</time>
      </trkpt>
      <trkpt lat="45.98116" lon="4.58849">
        <ele>482.700012207</ele>
        <time>2016-02-26T11:04:42.872Z</time>
      </trkpt>
      <trkpt lat="45.98116" lon="4.58849">
        <ele>482.700012207</ele>
        <time>2016-02-26T11:04:42.892Z</time>
      </trkpt>
      <trkpt lat="45.98108" lon="4.58859">
        <ele>482.399993896</ele>
        <time>2016-02-26T11:04:43.869Z</time>
      </trkpt>
      <trkpt lat="45.98108" lon="4.58859">
        <ele>482.399993896</ele>
        <time>2016-02-26T11:04:43.891Z</time>
      </trkpt>
      <trkpt lat="45.98103" lon="4.58872">
        <ele>482.100006104</ele>
        <time>2016-02-26T11:04:44.87Z</time>
      </trkpt>
      <trkpt lat="45.98103" lon="4.58872">
        <ele>482.100006104</ele>
        <time>2016-02-26T11:04:44.892Z</time>
      </trkpt>
      <trkpt lat="45.98101" lon="4.58887">
        <ele>481.399993896</ele>
        <time>2016-02-26T11:04:45.878Z</time>
      </trkpt>
      <trkpt lat="45.98101" lon="4.58887">
        <ele>481.399993896</ele>
        <time>2016-02-26T11:04:45.902Z</time>
      </trkpt>
      <trkpt lat="45.98101" lon="4.58902">
        <ele>480.700012207</ele>
        <time>2016-02-26T11:04:46.869Z</time>
      </trkpt>
      <trkpt lat="45.98101" lon="4.58902">
        <ele>480.700012207</ele>
        <time>2016-02-26T11:04:46.89Z</time>
      </trkpt>
      <trkpt lat="45.98101" lon="4.58916">
        <ele>480</ele>
        <time>2016-02-26T11:04:47.869Z</time>
      </trkpt>
      <trkpt lat="45.98101" lon="4.58916">
        <ele>480</ele>
        <time>2016-02-26T11:04:47.888Z</time>
      </trkpt>
      <trkpt lat="45.98103" lon="4.58931">
        <ele>479.5</ele>
        <time>2016-02-26T11:04:48.875Z</time>
      </trkpt>
      <trkpt lat="45.98103" lon="4.58931">
        <ele>479.5</ele>
        <time>2016-02-26T11:04:48.914Z</time>
      </trkpt>
      <trkpt lat="45.98104" lon="4.58946">
        <ele>478.799987793</ele>
        <time>2016-02-26T11:04:49.869Z</time>
      </trkpt>
      <trkpt lat="45.98104" lon="4.58946">
        <ele>478.799987793</ele>
        <time>2016-02-26T11:04:49.896Z</time>
      </trkpt>
      <trkpt lat="45.98105" lon="4.58961">
        <ele>478.399993896</ele>
        <time>2016-02-26T11:04:50.868Z</time>
      </trkpt>
      <trkpt lat="45.98105" lon="4.58961">
        <ele>478.399993896</ele>
        <time>2016-02-26T11:04:50.899Z</time>
      </trkpt>
      <trkpt lat="45.98104" lon="4.58976">
        <ele>477.700012207</ele>
        <time>2016-02-26T11:04:51.87Z</time>
      </trkpt>
      <trkpt lat="45.98104" lon="4.58976">
        <ele>477.700012207</ele>
        <time>2016-02-26T11:04:51.89Z</time>
      </trkpt>
      <trkpt lat="45.98102" lon="4.5899">
        <ele>477.299987793</ele>
        <time>2016-02-26T11:04:52.867Z</time>
      </trkpt>
      <trkpt lat="45.98102" lon="4.5899">
        <ele>477.299987793</ele>
        <time>2016-02-26T11:04:52.893Z</time>
      </trkpt>
      <trkpt lat="45.98099" lon="4.59005">
        <ele>476.899993896</ele>
        <time>2016-02-26T11:04:53.869Z</time>
      </trkpt>
      <trkpt lat="45.98099" lon="4.59005">
        <ele>476.899993896</ele>
        <time>2016-02-26T11:04:53.89Z</time>
      </trkpt>
      <trkpt lat="45.98096" lon="4.59019">
        <ele>476.600006104</ele>
        <time>2016-02-26T11:04:54.893Z</time>
      </trkpt>
      <trkpt lat="45.98096" lon="4.59019">
        <ele>476.600006104</ele>
        <time>2016-02-26T11:04:54.918Z</time>
      </trkpt>
      <trkpt lat="45.98092" lon="4.59033">
        <ele>476.399993896</ele>
        <time>2016-02-26T11:04:55.877Z</time>
      </trkpt>
      <trkpt lat="45.98092" lon="4.59033">
        <ele>476.399993896</ele>
        <time>2016-02-26T11:04:55.904Z</time>
      </trkpt>
      <trkpt lat="45.98086" lon="4.59046">
        <ele>476.100006104</ele>
        <time>2016-02-26T11:04:56.871Z</time>
      </trkpt>
      <trkpt lat="45.98086" lon="4.59046">
        <ele>476.100006104</ele>
        <time>2016-02-26T11:04:56.924Z</time>
      </trkpt>
      <trkpt lat="45.98081" lon="4.59059">
        <ele>476.399993896</ele>
        <time>2016-02-26T11:04:57.885Z</time>
      </trkpt>
      <trkpt lat="45.98081" lon="4.59059">
        <ele>476.399993896</ele>
        <time>2016-02-26T11:04:57.904Z</time>
      </trkpt>
      <trkpt lat="45.98075" lon="4.59071">
        <ele>476</ele>
        <time>2016-02-26T11:04:58.873Z</time>
      </trkpt>
      <trkpt lat="45.98075" lon="4.59071">
        <ele>476</ele>
        <time>2016-02-26T11:04:58.892Z</time>
      </trkpt>
      <trkpt lat="45.98068" lon="4.59084">
        <ele>475.200012207</ele>
        <time>2016-02-26T11:04:59.871Z</time>
      </trkpt>
      <trkpt lat="45.98068" lon="4.59084">
        <ele>475.200012207</ele>
        <time>2016-02-26T11:04:59.896Z</time>
      </trkpt>
      <trkpt lat="45.98062" lon="4.59095">
        <ele>475</ele>
        <time>2016-02-26T11:05:00.909Z</time>
      </trkpt>
      <trkpt lat="45.98062" lon="4.59095">
        <ele>475</ele>
        <time>2016-02-26T11:05:00.937Z</time>
      </trkpt>
      <trkpt lat="45.98055" lon="4.59107">
        <ele>474.600006104</ele>
        <time>2016-02-26T11:05:01.867Z</time>
      </trkpt>
      <trkpt lat="45.98055" lon="4.59107">
        <ele>474.600006104</ele>
        <time>2016-02-26T11:05:01.892Z</time>
      </trkpt>
      <trkpt lat="45.98048" lon="4.59119">
        <ele>473.5</ele>
        <time>2016-02-26T11:05:02.868Z</time>
      </trkpt>
      <trkpt lat="45.98048" lon="4.59119">
        <ele>473.5</ele>
        <time>2016-02-26T11:05:02.906Z</time>
      </trkpt>
      <trkpt lat="45.98041" lon="4.5913">
        <ele>472.799987793</ele>
        <time>2016-02-26T11:05:03.869Z</time>
      </trkpt>
      <trkpt lat="45.98041" lon="4.5913">
        <ele>472.799987793</ele>
        <time>2016-02-26T11:05:03.89Z</time>
      </trkpt>
      <trkpt lat="45.98033" lon="4.5914">
        <ele>472.200012207</ele>
        <time>2016-02-26T11:05:04.869Z</time>
      </trkpt>
      <trkpt lat="45.98033" lon="4.5914">
        <ele>472.200012207</ele>
        <time>2016-02-26T11:05:04.89Z</time>
      </trkpt>
      <trkpt lat="45.98025" lon="4.59149">
        <ele>471.799987793</ele>
        <time>2016-02-26T11:05:05.877Z</time>
      </trkpt>
      <trkpt lat="45.98025" lon="4.59149">
        <ele>471.799987793</ele>
        <time>2016-02-26T11:05:05.9Z</time>
      </trkpt>
      <trkpt lat="45.98016" lon="4.59158">
        <ele>471.200012207</ele>
        <time>2016-02-26T11:05:06.872Z</time>
      </trkpt>
      <trkpt lat="45.98016" lon="4.59158">
        <ele>471.200012207</ele>
        <time>2016-02-26T11:05:06.891Z</time>
      </trkpt>
      <trkpt lat="45.98006" lon="4.59165">
        <ele>470.600006104</ele>
        <time>2016-02-26T11:05:07.869Z</time>
      </trkpt>
      <trkpt lat="45.98006" lon="4.59165">
        <ele>470.600006104</ele>
        <time>2016-02-26T11:05:07.892Z</time>
      </trkpt>
      <trkpt lat="45.97997" lon="4.59171">
        <ele>470</ele>
        <time>2016-02-26T11:05:08.87Z</time>
      </trkpt>
      <trkpt lat="45.97997" lon="4.59171">
        <ele>470</ele>
        <time>2016-02-26T11:05:08.894Z</time>
      </trkpt>
      <trkpt lat="45.97988" lon="4.59179">
        <ele>469</ele>
        <time>2016-02-26T11:05:09.869Z</time>
      </trkpt>
      <trkpt lat="45.97988" lon="4.59179">
        <ele>469</ele>
        <time>2016-02-26T11:05:09.891Z</time>
      </trkpt>
      <trkpt lat="45.97979" lon="4.59188">
        <ele>468.5</ele>
        <time>2016-02-26T11:05:10.867Z</time>
      </trkpt>
      <trkpt lat="45.97979" lon="4.59188">
        <ele>468.5</ele>
        <time>2016-02-26T11:05:10.893Z</time>
      </trkpt>
      <trkpt lat="45.97973" lon="4.59199">
        <ele>467.700012207</ele>
        <time>2016-02-26T11:05:11.871Z</time>
      </trkpt>
      <trkpt lat="45.97973" lon="4.59199">
        <ele>467.700012207</ele>
        <time>2016-02-26T11:05:11.892Z</time>
      </trkpt>
      <trkpt lat="45.97968" lon="4.59213">
        <ele>467.100006104</ele>
        <time>2016-02-26T11:05:12.874Z</time>
      </trkpt>
      <trkpt lat="45.97968" lon="4.59213">
        <ele>467.100006104</ele>
        <time>2016-02-26T11:05:12.897Z</time>
      </trkpt>
      <trkpt lat="45.97964" lon="4.59227">
        <ele>466</ele>
        <time>2016-02-26T11:05:13.869Z</time>
      </trkpt>
      <trkpt lat="45.97964" lon="4.59227">
        <ele>466</ele>
        <time>2016-02-26T11:05:13.891Z</time>
      </trkpt>
      <trkpt lat="45.97963" lon="4.59242">
        <ele>465.299987793</ele>
        <time>2016-02-26T11:05:14.87Z</time>
      </trkpt>
      <trkpt lat="45.97963" lon="4.59242">
        <ele>465.299987793</ele>
        <time>2016-02-26T11:05:14.893Z</time>
      </trkpt>
      <trkpt lat="45.97963" lon="4.59257">
        <ele>464.5</ele>
        <time>2016-02-26T11:05:15.877Z</time>
      </trkpt>
      <trkpt lat="45.97963" lon="4.59257">
        <ele>464.5</ele>
        <time>2016-02-26T11:05:15.925Z</time>
      </trkpt>
      <trkpt lat="45.97964" lon="4.59272">
        <ele>463.899993896</ele>
        <time>2016-02-26T11:05:16.871Z</time>
      </trkpt>
      <trkpt lat="45.97964" lon="4.59272">
        <ele>463.899993896</ele>
        <time>2016-02-26T11:05:16.896Z</time>
      </trkpt>
      <trkpt lat="45.97966" lon="4.59287">
        <ele>463.100006104</ele>
        <time>2016-02-26T11:05:17.877Z</time>
      </trkpt>
      <trkpt lat="45.97966" lon="4.59287">
        <ele>463.100006104</ele>
        <time>2016-02-26T11:05:17.905Z</time>
      </trkpt>
      <trkpt lat="45.97969" lon="4.59301">
        <ele>462.299987793</ele>
        <time>2016-02-26T11:05:18.909Z</time>
      </trkpt>
      <trkpt lat="45.97969" lon="4.59301">
        <ele>462.299987793</ele>
        <time>2016-02-26T11:05:19.202Z</time>
      </trkpt>
      <trkpt lat="45.97972" lon="4.59315">
        <ele>461.5</ele>
        <time>2016-02-26T11:05:19.858Z</time>
      </trkpt>
      <trkpt lat="45.97972" lon="4.59315">
        <ele>461.5</ele>
        <time>2016-02-26T11:05:19.964Z</time>
      </trkpt>
      <trkpt lat="45.97975" lon="4.59329">
        <ele>460.799987793</ele>
        <time>2016-02-26T11:05:20.872Z</time>
      </trkpt>
      <trkpt lat="45.97975" lon="4.59329">
        <ele>460.799987793</ele>
        <time>2016-02-26T11:05:20.892Z</time>
      </trkpt>
      <trkpt lat="45.97978" lon="4.59343">
        <ele>460</ele>
        <time>2016-02-26T11:05:21.918Z</time>
      </trkpt>
      <trkpt lat="45.97978" lon="4.59343">
        <ele>460</ele>
        <time>2016-02-26T11:05:22.095Z</time>
      </trkpt>
      <trkpt lat="45.97981" lon="4.59356">
        <ele>459.299987793</ele>
        <time>2016-02-26T11:05:22.871Z</time>
      </trkpt>
      <trkpt lat="45.97981" lon="4.59356">
        <ele>459.299987793</ele>
        <time>2016-02-26T11:05:22.889Z</time>
      </trkpt>
      <trkpt lat="45.97982" lon="4.5937">
        <ele>458.5</ele>
        <time>2016-02-26T11:05:23.869Z</time>
      </trkpt>
      <trkpt lat="45.97982" lon="4.5937">
        <ele>458.5</ele>
        <time>2016-02-26T11:05:23.892Z</time>
      </trkpt>
      <trkpt lat="45.97983" lon="4.59384">
        <ele>457.899993896</ele>
        <time>2016-02-26T11:05:24.875Z</time>
      </trkpt>
      <trkpt lat="45.97983" lon="4.59384">
        <ele>457.899993896</ele>
        <time>2016-02-26T11:05:24.896Z</time>
      </trkpt>
      <trkpt lat="45.97982" lon="4.59397">
        <ele>457.299987793</ele>
        <time>2016-02-26T11:05:25.885Z</time>
      </trkpt>
      <trkpt lat="45.97982" lon="4.59397">
        <ele>457.299987793</ele>
        <time>2016-02-26T11:05:25.908Z</time>
      </trkpt>
      <trkpt lat="45.9798" lon="4.5941">
        <ele>456.600006104</ele>
        <time>2016-02-26T11:05:26.87Z</time>
      </trkpt>
      <trkpt lat="45.9798" lon="4.5941">
        <ele>456.600006104</ele>
        <time>2016-02-26T11:05:26.89Z</time>
      </trkpt>
      <trkpt lat="45.97976" lon="4.59422">
        <ele>455.899993896</ele>
        <time>2016-02-26T11:05:27.871Z</time>
      </trkpt>
      <trkpt lat="45.97976" lon="4.59422">
        <ele>455.899993896</ele>
        <time>2016-02-26T11:05:27.891Z</time>
      </trkpt>
      <trkpt lat="45.97971" lon="4.59434">
        <ele>455.299987793</ele>
        <time>2016-02-26T11:05:28.871Z</time>
      </trkpt>
      <trkpt lat="45.97971" lon="4.59434">
        <ele>455.299987793</ele>
        <time>2016-02-26T11:05:28.976Z</time>
      </trkpt>
      <trkpt lat="45.97966" lon="4.59445">
        <ele>454.899993896</ele>
        <time>2016-02-26T11:05:29.869Z</time>
      </trkpt>
      <trkpt lat="45.97966" lon="4.59445">
        <ele>454.899993896</ele>
        <time>2016-02-26T11:05:29.893Z</time>
      </trkpt>
      <trkpt lat="45.97961" lon="4.59455">
        <ele>454.399993896</ele>
        <time>2016-02-26T11:05:30.928Z</time>
      </trkpt>
      <trkpt lat="45.97961" lon="4.59455">
        <ele>454.399993896</ele>
        <time>2016-02-26T11:05:31.088Z</time>
      </trkpt>
      <trkpt lat="45.97955" lon="4.59466">
        <ele>453.799987793</ele>
        <time>2016-02-26T11:05:31.869Z</time>
      </trkpt>
      <trkpt lat="45.97955" lon="4.59466">
        <ele>453.799987793</ele>
        <time>2016-02-26T11:05:31.888Z</time>
      </trkpt>
      <trkpt lat="45.97951" lon="4.59478">
        <ele>453.299987793</ele>
        <time>2016-02-26T11:05:32.87Z</time>
      </trkpt>
      <trkpt lat="45.97951" lon="4.59478">
        <ele>453.299987793</ele>
        <time>2016-02-26T11:05:32.895Z</time>
      </trkpt>
      <trkpt lat="45.97948" lon="4.5949">
        <ele>452.700012207</ele>
        <time>2016-02-26T11:05:33.885Z</time>
      </trkpt>
      <trkpt lat="45.97948" lon="4.5949">
        <ele>452.700012207</ele>
        <time>2016-02-26T11:05:33.904Z</time>
      </trkpt>
      <trkpt lat="45.97945" lon="4.59503">
        <ele>452.200012207</ele>
        <time>2016-02-26T11:05:34.869Z</time>
      </trkpt>
      <trkpt lat="45.97945" lon="4.59503">
        <ele>452.200012207</ele>
        <time>2016-02-26T11:05:34.888Z</time>
      </trkpt>
      <trkpt lat="45.97944" lon="4.59515">
        <ele>451.600006104</ele>
        <time>2016-02-26T11:05:35.885Z</time>
      </trkpt>
      <trkpt lat="45.97944" lon="4.59515">
        <ele>451.600006104</ele>
        <time>2016-02-26T11:05:35.905Z</time>
      </trkpt>
      <trkpt lat="45.97942" lon="4.59528">
        <ele>451.100006104</ele>
        <time>2016-02-26T11:05:36.872Z</time>
      </trkpt>
      <trkpt lat="45.97942" lon="4.59528">
        <ele>451.100006104</ele>
        <time>2016-02-26T11:05:36.901Z</time>
      </trkpt>
      <trkpt lat="45.9794" lon="4.59541">
        <ele>450.5</ele>
        <time>2016-02-26T11:05:37.869Z</time>
      </trkpt>
      <trkpt lat="45.9794" lon="4.59541">
        <ele>450.5</ele>
        <time>2016-02-26T11:05:37.89Z</time>
      </trkpt>
      <trkpt lat="45.97938" lon="4.59554">
        <ele>449.799987793</ele>
        <time>2016-02-26T11:05:38.916Z</time>
      </trkpt>
      <trkpt lat="45.97938" lon="4.59554">
        <ele>449.799987793</ele>
        <time>2016-02-26T11:05:38.946Z</time>
      </trkpt>
      <trkpt lat="45.97934" lon="4.59566">
        <ele>449.200012207</ele>
        <time>2016-02-26T11:05:39.89Z</time>
      </trkpt>
      <trkpt lat="45.97934" lon="4.59566">
        <ele>449.200012207</ele>
        <time>2016-02-26T11:05:39.918Z</time>
      </trkpt>
      <trkpt lat="45.97929" lon="4.59577">
        <ele>448.600006104</ele>
        <time>2016-02-26T11:05:40.871Z</time>
      </trkpt>
      <trkpt lat="45.97929" lon="4.59577">
        <ele>448.600006104</ele>
        <time>2016-02-26T11:05:41.022Z</time>
      </trkpt>
      <trkpt lat="45.97923" lon="4.59588">
        <ele>448</ele>
        <time>2016-02-26T11:05:41.871Z</time>
      </trkpt>
      <trkpt lat="45.97923" lon="4.59588">
        <ele>448</ele>
        <time>2016-02-26T11:05:41.894Z</time>
      </trkpt>
      <trkpt lat="45.97916" lon="4.59596">
        <ele>447.399993896</ele>
        <time>2016-02-26T11:05:42.872Z</time>
      </trkpt>
      <trkpt lat="45.97916" lon="4.59596">
        <ele>447.399993896</ele>
        <time>2016-02-26T11:05:42.899Z</time>
      </trkpt>
      <trkpt lat="45.97907" lon="4.59602">
        <ele>446.799987793</ele>
        <time>2016-02-26T11:05:43.871Z</time>
      </trkpt>
      <trkpt lat="45.97907" lon="4.59602">
        <ele>446.799987793</ele>
        <time>2016-02-26T11:05:43.891Z</time>
      </trkpt>
      <trkpt lat="45.97897" lon="4.59606">
        <ele>446.200012207</ele>
        <time>2016-02-26T11:05:44.872Z</time>
      </trkpt>
      <trkpt lat="45.97897" lon="4.59606">
        <ele>446.200012207</ele>
        <time>2016-02-26T11:05:44.907Z</time>
      </trkpt>
      <trkpt lat="45.97886" lon="4.59609">
        <ele>445.600006104</ele>
        <time>2016-02-26T11:05:45.887Z</time>
      </trkpt>
      <trkpt lat="45.97886" lon="4.59609">
        <ele>445.600006104</ele>
        <time>2016-02-26T11:05:45.908Z</time>
      </trkpt>
      <trkpt lat="45.97876" lon="4.59614">
        <ele>445</ele>
        <time>2016-02-26T11:05:46.869Z</time>
      </trkpt>
      <trkpt lat="45.97876" lon="4.59614">
        <ele>445</ele>
        <time>2016-02-26T11:05:46.913Z</time>
      </trkpt>
      <trkpt lat="45.97866" lon="4.59618">
        <ele>444.5</ele>
        <time>2016-02-26T11:05:47.869Z</time>
      </trkpt>
      <trkpt lat="45.97866" lon="4.59618">
        <ele>444.5</ele>
        <time>2016-02-26T11:05:48.011Z</time>
      </trkpt>
      <trkpt lat="45.97856" lon="4.59624">
        <ele>443.799987793</ele>
        <time>2016-02-26T11:05:48.873Z</time>
      </trkpt>
      <trkpt lat="45.97856" lon="4.59624">
        <ele>443.799987793</ele>
        <time>2016-02-26T11:05:48.895Z</time>
      </trkpt>
      <trkpt lat="45.97847" lon="4.5963">
        <ele>443.200012207</ele>
        <time>2016-02-26T11:05:49.869Z</time>
      </trkpt>
      <trkpt lat="45.97847" lon="4.5963">
        <ele>443.200012207</ele>
        <time>2016-02-26T11:05:49.889Z</time>
      </trkpt>
      <trkpt lat="45.97838" lon="4.59638">
        <ele>442.600006104</ele>
        <time>2016-02-26T11:05:50.874Z</time>
      </trkpt>
      <trkpt lat="45.97838" lon="4.59638">
        <ele>442.600006104</ele>
        <time>2016-02-26T11:05:50.898Z</time>
      </trkpt>
      <trkpt lat="45.9783" lon="4.59647">
        <ele>441.899993896</ele>
        <time>2016-02-26T11:05:51.869Z</time>
      </trkpt>
      <trkpt lat="45.9783" lon="4.59647">
        <ele>441.899993896</ele>
        <time>2016-02-26T11:05:51.89Z</time>
      </trkpt>
      <trkpt lat="45.97821" lon="4.59657">
        <ele>441.200012207</ele>
        <time>2016-02-26T11:05:52.872Z</time>
      </trkpt>
      <trkpt lat="45.97821" lon="4.59657">
        <ele>441.200012207</ele>
        <time>2016-02-26T11:05:52.9Z</time>
      </trkpt>
      <trkpt lat="45.97814" lon="4.59669">
        <ele>440.5</ele>
        <time>2016-02-26T11:05:53.869Z</time>
      </trkpt>
      <trkpt lat="45.97814" lon="4.59669">
        <ele>440.5</ele>
        <time>2016-02-26T11:05:53.902Z</time>
      </trkpt>
      <trkpt lat="45.97807" lon="4.59681">
        <ele>439.700012207</ele>
        <time>2016-02-26T11:05:54.872Z</time>
      </trkpt>
      <trkpt lat="45.97807" lon="4.59681">
        <ele>439.700012207</ele>
        <time>2016-02-26T11:05:54.904Z</time>
      </trkpt>
      <trkpt lat="45.978" lon="4.59695">
        <ele>439</ele>
        <time>2016-02-26T11:05:55.886Z</time>
      </trkpt>
      <trkpt lat="45.978" lon="4.59695">
        <ele>439</ele>
        <time>2016-02-26T11:05:55.915Z</time>
      </trkpt>
      <trkpt lat="45.97794" lon="4.59709">
        <ele>438.200012207</ele>
        <time>2016-02-26T11:05:56.87Z</time>
      </trkpt>
      <trkpt lat="45.97794" lon="4.59709">
        <ele>438.200012207</ele>
        <time>2016-02-26T11:05:56.892Z</time>
      </trkpt>
      <trkpt lat="45.9779" lon="4.59724">
        <ele>437.5</ele>
        <time>2016-02-26T11:05:57.871Z</time>
      </trkpt>
      <trkpt lat="45.9779" lon="4.59724">
        <ele>437.5</ele>
        <time>2016-02-26T11:05:57.891Z</time>
      </trkpt>
      <trkpt lat="45.97788" lon="4.59739">
        <ele>436.799987793</ele>
        <time>2016-02-26T11:05:58.869Z</time>
      </trkpt>
      <trkpt lat="45.97788" lon="4.59739">
        <ele>436.799987793</ele>
        <time>2016-02-26T11:05:58.888Z</time>
      </trkpt>
      <trkpt lat="45.97786" lon="4.59755">
        <ele>436.100006104</ele>
        <time>2016-02-26T11:05:59.885Z</time>
      </trkpt>
      <trkpt lat="45.97786" lon="4.59755">
        <ele>436.100006104</ele>
        <time>2016-02-26T11:05:59.907Z</time>
      </trkpt>
      <trkpt lat="45.97783" lon="4.59771">
        <ele>435.399993896</ele>
        <time>2016-02-26T11:06:00.872Z</time>
      </trkpt>
      <trkpt lat="45.97783" lon="4.59771">
        <ele>435.399993896</ele>
        <time>2016-02-26T11:06:00.891Z</time>
      </trkpt>
      <trkpt lat="45.97781" lon="4.59787">
        <ele>434.600006104</ele>
        <time>2016-02-26T11:06:01.867Z</time>
      </trkpt>
      <trkpt lat="45.97781" lon="4.59787">
        <ele>434.600006104</ele>
        <time>2016-02-26T11:06:01.889Z</time>
      </trkpt>
      <trkpt lat="45.9778" lon="4.59803">
        <ele>433.899993896</ele>
        <time>2016-02-26T11:06:02.87Z</time>
      </trkpt>
      <trkpt lat="45.9778" lon="4.59803">
        <ele>433.899993896</ele>
        <time>2016-02-26T11:06:02.889Z</time>
      </trkpt>
      <trkpt lat="45.97778" lon="4.59818">
        <ele>433.200012207</ele>
        <time>2016-02-26T11:06:03.87Z</time>
      </trkpt>
      <trkpt lat="45.97778" lon="4.59818">
        <ele>433.200012207</ele>
        <time>2016-02-26T11:06:03.974Z</time>
      </trkpt>
      <trkpt lat="45.97777" lon="4.59834">
        <ele>432.600006104</ele>
        <time>2016-02-26T11:06:04.872Z</time>
      </trkpt>
      <trkpt lat="45.97777" lon="4.59834">
        <ele>432.600006104</ele>
        <time>2016-02-26T11:06:04.891Z</time>
      </trkpt>
      <trkpt lat="45.97775" lon="4.5985">
        <ele>431.899993896</ele>
        <time>2016-02-26T11:06:05.892Z</time>
      </trkpt>
      <trkpt lat="45.97775" lon="4.5985">
        <ele>431.899993896</ele>
        <time>2016-02-26T11:06:05.915Z</time>
      </trkpt>
      <trkpt lat="45.97773" lon="4.59866">
        <ele>431.299987793</ele>
        <time>2016-02-26T11:06:06.875Z</time>
      </trkpt>
      <trkpt lat="45.97773" lon="4.59866">
        <ele>431.299987793</ele>
        <time>2016-02-26T11:06:06.895Z</time>
      </trkpt>
      <trkpt lat="45.97771" lon="4.59883">
        <ele>430.600006104</ele>
        <time>2016-02-26T11:06:07.869Z</time>
      </trkpt>
      <trkpt lat="45.97771" lon="4.59883">
        <ele>430.600006104</ele>
        <time>2016-02-26T11:06:07.896Z</time>
      </trkpt>
      <trkpt lat="45.97769" lon="4.59899">
        <ele>429.899993896</ele>
        <time>2016-02-26T11:06:08.87Z</time>
      </trkpt>
      <trkpt lat="45.97769" lon="4.59899">
        <ele>429.899993896</ele>
        <time>2016-02-26T11:06:08.893Z</time>
      </trkpt>
      <trkpt lat="45.97766" lon="4.59915">
        <ele>429.200012207</ele>
        <time>2016-02-26T11:06:09.871Z</time>
      </trkpt>
      <trkpt lat="45.97766" lon="4.59915">
        <ele>429.200012207</ele>
        <time>2016-02-26T11:06:09.894Z</time>
      </trkpt>
      <trkpt lat="45.97764" lon="4.59931">
        <ele>428.399993896</ele>
        <time>2016-02-26T11:06:10.867Z</time>
      </trkpt>
      <trkpt lat="45.97764" lon="4.59931">
        <ele>428.399993896</ele>
        <time>2016-02-26T11:06:10.897Z</time>
      </trkpt>
      <trkpt lat="45.97762" lon="4.59947">
        <ele>427.600006104</ele>
        <time>2016-02-26T11:06:11.871Z</time>
      </trkpt>
      <trkpt lat="45.97762" lon="4.59947">
        <ele>427.600006104</ele>
        <time>2016-02-26T11:06:11.895Z</time>
      </trkpt>
      <trkpt lat="45.9776" lon="4.59963">
        <ele>426.899993896</ele>
        <time>2016-02-26T11:06:12.872Z</time>
      </trkpt>
      <trkpt lat="45.9776" lon="4.59963">
        <ele>426.899993896</ele>
        <time>2016-02-26T11:06:12.899Z</time>
      </trkpt>
      <trkpt lat="45.97757" lon="4.5998">
        <ele>426.200012207</ele>
        <time>2016-02-26T11:06:13.869Z</time>
      </trkpt>
      <trkpt lat="45.97757" lon="4.5998">
        <ele>426.200012207</ele>
        <time>2016-02-26T11:06:13.893Z</time>
      </trkpt>
      <trkpt lat="45.97755" lon="4.59995">
        <ele>425.600006104</ele>
        <time>2016-02-26T11:06:14.868Z</time>
      </trkpt>
      <trkpt lat="45.97755" lon="4.59995">
        <ele>425.600006104</ele>
        <time>2016-02-26T11:06:14.893Z</time>
      </trkpt>
      <trkpt lat="45.97753" lon="4.60012">
        <ele>424.899993896</ele>
        <time>2016-02-26T11:06:15.878Z</time>
      </trkpt>
      <trkpt lat="45.97753" lon="4.60012">
        <ele>424.899993896</ele>
        <time>2016-02-26T11:06:16.047Z</time>
      </trkpt>
      <trkpt lat="45.97751" lon="4.60027">
        <ele>424.200012207</ele>
        <time>2016-02-26T11:06:16.873Z</time>
      </trkpt>
      <trkpt lat="45.97751" lon="4.60027">
        <ele>424.200012207</ele>
        <time>2016-02-26T11:06:16.901Z</time>
      </trkpt>
      <trkpt lat="45.97748" lon="4.60043">
        <ele>423.399993896</ele>
        <time>2016-02-26T11:06:17.871Z</time>
      </trkpt>
      <trkpt lat="45.97748" lon="4.60043">
        <ele>423.399993896</ele>
        <time>2016-02-26T11:06:17.892Z</time>
      </trkpt>
      <trkpt lat="45.97746" lon="4.60058">
        <ele>422.700012207</ele>
        <time>2016-02-26T11:06:18.872Z</time>
      </trkpt>
      <trkpt lat="45.97746" lon="4.60058">
        <ele>422.700012207</ele>
        <time>2016-02-26T11:06:18.891Z</time>
      </trkpt>
      <trkpt lat="45.97744" lon="4.60074">
        <ele>421.899993896</ele>
        <time>2016-02-26T11:06:19.869Z</time>
      </trkpt>
      <trkpt lat="45.97744" lon="4.60074">
        <ele>421.899993896</ele>
        <time>2016-02-26T11:06:19.889Z</time>
      </trkpt>
      <trkpt lat="45.9774" lon="4.60089">
        <ele>421.299987793</ele>
        <time>2016-02-26T11:06:20.87Z</time>
      </trkpt>
      <trkpt lat="45.9774" lon="4.60089">
        <ele>421.299987793</ele>
        <time>2016-02-26T11:06:20.892Z</time>
      </trkpt>
      <trkpt lat="45.97737" lon="4.60104">
        <ele>420.600006104</ele>
        <time>2016-02-26T11:06:21.872Z</time>
      </trkpt>
      <trkpt lat="45.97737" lon="4.60104">
        <ele>420.600006104</ele>
        <time>2016-02-26T11:06:21.893Z</time>
      </trkpt>
      <trkpt lat="45.97733" lon="4.60118">
        <ele>419.899993896</ele>
        <time>2016-02-26T11:06:22.874Z</time>
      </trkpt>
      <trkpt lat="45.97733" lon="4.60118">
        <ele>419.899993896</ele>
        <time>2016-02-26T11:06:22.894Z</time>
      </trkpt>
      <trkpt lat="45.97729" lon="4.60132">
        <ele>419.100006104</ele>
        <time>2016-02-26T11:06:23.883Z</time>
      </trkpt>
      <trkpt lat="45.97729" lon="4.60132">
        <ele>419.100006104</ele>
        <time>2016-02-26T11:06:23.92Z</time>
      </trkpt>
      <trkpt lat="45.97725" lon="4.60146">
        <ele>418.399993896</ele>
        <time>2016-02-26T11:06:24.882Z</time>
      </trkpt>
      <trkpt lat="45.97725" lon="4.60146">
        <ele>418.399993896</ele>
        <time>2016-02-26T11:06:24.925Z</time>
      </trkpt>
      <trkpt lat="45.97721" lon="4.60159">
        <ele>417.799987793</ele>
        <time>2016-02-26T11:06:25.929Z</time>
      </trkpt>
      <trkpt lat="45.97721" lon="4.60159">
        <ele>417.799987793</ele>
        <time>2016-02-26T11:06:25.955Z</time>
      </trkpt>
      <trkpt lat="45.97716" lon="4.60172">
        <ele>417</ele>
        <time>2016-02-26T11:06:26.874Z</time>
      </trkpt>
      <trkpt lat="45.97716" lon="4.60172">
        <ele>417</ele>
        <time>2016-02-26T11:06:26.901Z</time>
      </trkpt>
      <trkpt lat="45.97712" lon="4.60186">
        <ele>416.299987793</ele>
        <time>2016-02-26T11:06:27.874Z</time>
      </trkpt>
      <trkpt lat="45.97712" lon="4.60186">
        <ele>416.299987793</ele>
        <time>2016-02-26T11:06:27.899Z</time>
      </trkpt>
      <trkpt lat="45.97708" lon="4.60198">
        <ele>415.799987793</ele>
        <time>2016-02-26T11:06:28.877Z</time>
      </trkpt>
      <trkpt lat="45.97708" lon="4.60198">
        <ele>415.799987793</ele>
        <time>2016-02-26T11:06:29.002Z</time>
      </trkpt>
      <trkpt lat="45.97703" lon="4.60211">
        <ele>415.399993896</ele>
        <time>2016-02-26T11:06:29.876Z</time>
      </trkpt>
      <trkpt lat="45.97703" lon="4.60211">
        <ele>415.399993896</ele>
        <time>2016-02-26T11:06:29.913Z</time>
      </trkpt>
      <trkpt lat="45.97699" lon="4.60224">
        <ele>414.899993896</ele>
        <time>2016-02-26T11:06:30.874Z</time>
      </trkpt>
      <trkpt lat="45.97699" lon="4.60224">
        <ele>414.899993896</ele>
        <time>2016-02-26T11:06:30.9Z</time>
      </trkpt>
      <trkpt lat="45.97696" lon="4.60237">
        <ele>414.600006104</ele>
        <time>2016-02-26T11:06:31.871Z</time>
      </trkpt>
      <trkpt lat="45.97696" lon="4.60237">
        <ele>414.600006104</ele>
        <time>2016-02-26T11:06:31.914Z</time>
      </trkpt>
      <trkpt lat="45.97692" lon="4.60249">
        <ele>414.299987793</ele>
        <time>2016-02-26T11:06:32.876Z</time>
      </trkpt>
      <trkpt lat="45.97692" lon="4.60249">
        <ele>414.299987793</ele>
        <time>2016-02-26T11:06:32.908Z</time>
      </trkpt>
      <trkpt lat="45.97688" lon="4.60262">
        <ele>414</ele>
        <time>2016-02-26T11:06:33.872Z</time>
      </trkpt>
      <trkpt lat="45.97688" lon="4.60262">
        <ele>414</ele>
        <time>2016-02-26T11:06:33.907Z</time>
      </trkpt>
      <trkpt lat="45.97684" lon="4.60274">
        <ele>413.700012207</ele>
        <time>2016-02-26T11:06:34.958Z</time>
      </trkpt>
      <trkpt lat="45.97684" lon="4.60274">
        <ele>413.700012207</ele>
        <time>2016-02-26T11:06:35.032Z</time>
      </trkpt>
      <trkpt lat="45.97679" lon="4.60287">
        <ele>413.399993896</ele>
        <time>2016-02-26T11:06:35.897Z</time>
      </trkpt>
      <trkpt lat="45.97679" lon="4.60287">
        <ele>413.399993896</ele>
        <time>2016-02-26T11:06:35.926Z</time>
      </trkpt>
      <trkpt lat="45.97675" lon="4.603">
        <ele>413.100006104</ele>
        <time>2016-02-26T11:06:36.877Z</time>
      </trkpt>
      <trkpt lat="45.97675" lon="4.603">
        <ele>413.100006104</ele>
        <time>2016-02-26T11:06:36.903Z</time>
      </trkpt>
      <trkpt lat="45.97671" lon="4.60312">
        <ele>412.899993896</ele>
        <time>2016-02-26T11:06:37.871Z</time>
      </trkpt>
      <trkpt lat="45.97671" lon="4.60312">
        <ele>412.899993896</ele>
        <time>2016-02-26T11:06:37.899Z</time>
      </trkpt>
      <trkpt lat="45.97667" lon="4.60325">
        <ele>412.700012207</ele>
        <time>2016-02-26T11:06:38.874Z</time>
      </trkpt>
      <trkpt lat="45.97667" lon="4.60325">
        <ele>412.700012207</ele>
        <time>2016-02-26T11:06:38.899Z</time>
      </trkpt>
      <trkpt lat="45.97663" lon="4.60337">
        <ele>412.399993896</ele>
        <time>2016-02-26T11:06:39.87Z</time>
      </trkpt>
      <trkpt lat="45.97663" lon="4.60337">
        <ele>412.399993896</ele>
        <time>2016-02-26T11:06:39.908Z</time>
      </trkpt>
      <trkpt lat="45.97659" lon="4.60349">
        <ele>412.100006104</ele>
        <time>2016-02-26T11:06:40.872Z</time>
      </trkpt>
      <trkpt lat="45.97659" lon="4.60349">
        <ele>412.100006104</ele>
        <time>2016-02-26T11:06:40.911Z</time>
      </trkpt>
      <trkpt lat="45.97655" lon="4.60361">
        <ele>411.5</ele>
        <time>2016-02-26T11:06:41.889Z</time>
      </trkpt>
      <trkpt lat="45.97655" lon="4.60361">
        <ele>411.5</ele>
        <time>2016-02-26T11:06:41.924Z</time>
      </trkpt>
      <trkpt lat="45.97652" lon="4.60373">
        <ele>410.899993896</ele>
        <time>2016-02-26T11:06:42.877Z</time>
      </trkpt>
      <trkpt lat="45.97648" lon="4.60385">
        <ele>410.5</ele>
        <time>2016-02-26T11:06:44.02Z</time>
      </trkpt>
      <trkpt lat="45.97644" lon="4.60396">
        <ele>410.200012207</ele>
        <time>2016-02-26T11:06:44.871Z</time>
      </trkpt>
      <trkpt lat="45.9764" lon="4.60408">
        <ele>409.700012207</ele>
        <time>2016-02-26T11:06:45.919Z</time>
      </trkpt>
      <trkpt lat="45.97637" lon="4.6042">
        <ele>409.100006104</ele>
        <time>2016-02-26T11:06:46.871Z</time>
      </trkpt>
      <trkpt lat="45.97633" lon="4.60431">
        <ele>408.700012207</ele>
        <time>2016-02-26T11:06:47.893Z</time>
      </trkpt>
      <trkpt lat="45.97629" lon="4.60442">
        <ele>408.5</ele>
        <time>2016-02-26T11:06:48.876Z</time>
      </trkpt>
      <trkpt lat="45.97625" lon="4.60453">
        <ele>408.200012207</ele>
        <time>2016-02-26T11:06:49.89Z</time>
      </trkpt>
      <trkpt lat="45.97621" lon="4.60464">
        <ele>407.799987793</ele>
        <time>2016-02-26T11:06:50.871Z</time>
      </trkpt>
      <trkpt lat="45.97616" lon="4.60475">
        <ele>407.399993896</ele>
        <time>2016-02-26T11:06:51.892Z</time>
      </trkpt>
      <trkpt lat="45.97611" lon="4.60485">
        <ele>407.299987793</ele>
        <time>2016-02-26T11:06:52.87Z</time>
      </trkpt>
      <trkpt lat="45.97606" lon="4.60495">
        <ele>406.899993896</ele>
        <time>2016-02-26T11:06:53.892Z</time>
      </trkpt>
      <trkpt lat="45.97601" lon="4.60505">
        <ele>406.700012207</ele>
        <time>2016-02-26T11:06:54.873Z</time>
      </trkpt>
      <trkpt lat="45.97601" lon="4.60505">
        <ele>406.700012207</ele>
        <time>2016-02-26T11:06:54.908Z</time>
      </trkpt>
      <trkpt lat="45.97595" lon="4.60516">
        <ele>406.399993896</ele>
        <time>2016-02-26T11:06:55.895Z</time>
      </trkpt>
      <trkpt lat="45.97595" lon="4.60516">
        <ele>406.399993896</ele>
        <time>2016-02-26T11:06:55.923Z</time>
      </trkpt>
      <trkpt lat="45.9759" lon="4.60526">
        <ele>405.700012207</ele>
        <time>2016-02-26T11:06:56.873Z</time>
      </trkpt>
      <trkpt lat="45.9759" lon="4.60526">
        <ele>405.700012207</ele>
        <time>2016-02-26T11:06:56.907Z</time>
      </trkpt>
      <trkpt lat="45.97584" lon="4.60537">
        <ele>404.799987793</ele>
        <time>2016-02-26T11:06:57.873Z</time>
      </trkpt>
      <trkpt lat="45.97584" lon="4.60537">
        <ele>404.799987793</ele>
        <time>2016-02-26T11:06:57.922Z</time>
      </trkpt>
      <trkpt lat="45.97579" lon="4.60547">
        <ele>404.200012207</ele>
        <time>2016-02-26T11:06:58.928Z</time>
      </trkpt>
      <trkpt lat="45.97579" lon="4.60547">
        <ele>404.200012207</ele>
        <time>2016-02-26T11:06:58.98Z</time>
      </trkpt>
      <trkpt lat="45.97574" lon="4.60558">
        <ele>403.700012207</ele>
        <time>2016-02-26T11:06:59.87Z</time>
      </trkpt>
      <trkpt lat="45.97574" lon="4.60558">
        <ele>403.700012207</ele>
        <time>2016-02-26T11:06:59.907Z</time>
      </trkpt>
      <trkpt lat="45.97568" lon="4.60569">
        <ele>403.100006104</ele>
        <time>2016-02-26T11:07:00.878Z</time>
      </trkpt>
      <trkpt lat="45.97568" lon="4.60569">
        <ele>403.100006104</ele>
        <time>2016-02-26T11:07:00.907Z</time>
      </trkpt>
      <trkpt lat="45.97563" lon="4.6058">
        <ele>402.600006104</ele>
        <time>2016-02-26T11:07:01.87Z</time>
      </trkpt>
      <trkpt lat="45.97563" lon="4.6058">
        <ele>402.600006104</ele>
        <time>2016-02-26T11:07:01.891Z</time>
      </trkpt>
      <trkpt lat="45.97558" lon="4.6059">
        <ele>401.899993896</ele>
        <time>2016-02-26T11:07:02.87Z</time>
      </trkpt>
      <trkpt lat="45.97558" lon="4.6059">
        <ele>401.899993896</ele>
        <time>2016-02-26T11:07:02.924Z</time>
      </trkpt>
      <trkpt lat="45.97552" lon="4.60601">
        <ele>401.700012207</ele>
        <time>2016-02-26T11:07:03.87Z</time>
      </trkpt>
      <trkpt lat="45.97552" lon="4.60601">
        <ele>401.700012207</ele>
        <time>2016-02-26T11:07:03.896Z</time>
      </trkpt>
      <trkpt lat="45.97546" lon="4.60611">
        <ele>401.5</ele>
        <time>2016-02-26T11:07:04.871Z</time>
      </trkpt>
      <trkpt lat="45.97546" lon="4.60611">
        <ele>401.5</ele>
        <time>2016-02-26T11:07:04.903Z</time>
      </trkpt>
      <trkpt lat="45.97541" lon="4.60621">
        <ele>401.299987793</ele>
        <time>2016-02-26T11:07:05.896Z</time>
      </trkpt>
      <trkpt lat="45.97536" lon="4.60631">
        <ele>401.399993896</ele>
        <time>2016-02-26T11:07:06.903Z</time>
      </trkpt>
      <trkpt lat="45.97531" lon="4.60642">
        <ele>401.5</ele>
        <time>2016-02-26T11:07:07.89Z</time>
      </trkpt>
      <trkpt lat="45.97526" lon="4.60652">
        <ele>401.299987793</ele>
        <time>2016-02-26T11:07:08.927Z</time>
      </trkpt>
      <trkpt lat="45.9752" lon="4.60662">
        <ele>401.200012207</ele>
        <time>2016-02-26T11:07:09.872Z</time>
      </trkpt>
      <trkpt lat="45.97515" lon="4.60671">
        <ele>401.100006104</ele>
        <time>2016-02-26T11:07:10.892Z</time>
      </trkpt>
      <trkpt lat="45.9751" lon="4.6068">
        <ele>401</ele>
        <time>2016-02-26T11:07:11.897Z</time>
      </trkpt>
      <trkpt lat="45.97506" lon="4.6069">
        <ele>400.799987793</ele>
        <time>2016-02-26T11:07:12.894Z</time>
      </trkpt>
      <trkpt lat="45.97502" lon="4.60699">
        <ele>400.700012207</ele>
        <time>2016-02-26T11:07:13.871Z</time>
      </trkpt>
      <trkpt lat="45.97498" lon="4.60709">
        <ele>400.5</ele>
        <time>2016-02-26T11:07:14.891Z</time>
      </trkpt>
      <trkpt lat="45.97494" lon="4.60719">
        <ele>400.5</ele>
        <time>2016-02-26T11:07:15.897Z</time>
      </trkpt>
      <trkpt lat="45.97491" lon="4.60728">
        <ele>400.299987793</ele>
        <time>2016-02-26T11:07:17.107Z</time>
      </trkpt>
      <trkpt lat="45.97488" lon="4.60738">
        <ele>400.299987793</ele>
        <time>2016-02-26T11:07:17.872Z</time>
      </trkpt>
      <trkpt lat="45.97485" lon="4.60748">
        <ele>400.200012207</ele>
        <time>2016-02-26T11:07:18.894Z</time>
      </trkpt>
      <trkpt lat="45.97482" lon="4.60758">
        <ele>400.299987793</ele>
        <time>2016-02-26T11:07:19.871Z</time>
      </trkpt>
      <trkpt lat="45.97479" lon="4.60769">
        <ele>400.100006104</ele>
        <time>2016-02-26T11:07:20.892Z</time>
      </trkpt>
      <trkpt lat="45.97477" lon="4.60779">
        <ele>400.100006104</ele>
        <time>2016-02-26T11:07:21.87Z</time>
      </trkpt>
      <trkpt lat="45.97475" lon="4.6079">
        <ele>400.200012207</ele>
        <time>2016-02-26T11:07:22.891Z</time>
      </trkpt>
      <trkpt lat="45.97473" lon="4.608">
        <ele>400.299987793</ele>
        <time>2016-02-26T11:07:23.908Z</time>
      </trkpt>
      <trkpt lat="45.97472" lon="4.6081">
        <ele>400.200012207</ele>
        <time>2016-02-26T11:07:24.896Z</time>
      </trkpt>
      <trkpt lat="45.9747" lon="4.60819">
        <ele>400.200012207</ele>
        <time>2016-02-26T11:07:25.896Z</time>
      </trkpt>
      <trkpt lat="45.97469" lon="4.60828">
        <ele>400.299987793</ele>
        <time>2016-02-26T11:07:26.895Z</time>
      </trkpt>
      <trkpt lat="45.97467" lon="4.60836">
        <ele>400.100006104</ele>
        <time>2016-02-26T11:07:27.873Z</time>
      </trkpt>
      <trkpt lat="45.97466" lon="4.60845">
        <ele>400</ele>
        <time>2016-02-26T11:07:28.926Z</time>
      </trkpt>
      <trkpt lat="45.97465" lon="4.60854">
        <ele>400</ele>
        <time>2016-02-26T11:07:29.875Z</time>
      </trkpt>
      <trkpt lat="45.97463" lon="4.60863">
        <ele>399.799987793</ele>
        <time>2016-02-26T11:07:30.894Z</time>
      </trkpt>
      <trkpt lat="45.97462" lon="4.60871">
        <ele>399.799987793</ele>
        <time>2016-02-26T11:07:31.868Z</time>
      </trkpt>
      <trkpt lat="45.97461" lon="4.6088">
        <ele>399.700012207</ele>
        <time>2016-02-26T11:07:32.893Z</time>
      </trkpt>
      <trkpt lat="45.97459" lon="4.60889">
        <ele>399.600006104</ele>
        <time>2016-02-26T11:07:33.87Z</time>
      </trkpt>
      <trkpt lat="45.97457" lon="4.60897">
        <ele>399.600006104</ele>
        <time>2016-02-26T11:07:34.897Z</time>
      </trkpt>
      <trkpt lat="45.97456" lon="4.60906">
        <ele>399.5</ele>
        <time>2016-02-26T11:07:35.895Z</time>
      </trkpt>
      <trkpt lat="45.97454" lon="4.60915">
        <ele>399.700012207</ele>
        <time>2016-02-26T11:07:36.893Z</time>
      </trkpt>
      <trkpt lat="45.97453" lon="4.60924">
        <ele>399.700012207</ele>
        <time>2016-02-26T11:07:37.87Z</time>
      </trkpt>
      <trkpt lat="45.97451" lon="4.60933">
        <ele>399.899993896</ele>
        <time>2016-02-26T11:07:38.89Z</time>
      </trkpt>
      <trkpt lat="45.97449" lon="4.60943">
        <ele>399.600006104</ele>
        <time>2016-02-26T11:07:39.868Z</time>
      </trkpt>
      <trkpt lat="45.97446" lon="4.60952">
        <ele>399.799987793</ele>
        <time>2016-02-26T11:07:40.89Z</time>
      </trkpt>
      <trkpt lat="45.97444" lon="4.60961">
        <ele>400</ele>
        <time>2016-02-26T11:07:41.868Z</time>
      </trkpt>
      <trkpt lat="45.97442" lon="4.60971">
        <ele>399.799987793</ele>
        <time>2016-02-26T11:07:42.893Z</time>
      </trkpt>
      <trkpt lat="45.9744" lon="4.60981">
        <ele>399.899993896</ele>
        <time>2016-02-26T11:07:43.87Z</time>
      </trkpt>
      <trkpt lat="45.97438" lon="4.6099">
        <ele>399.799987793</ele>
        <time>2016-02-26T11:07:44.892Z</time>
      </trkpt>
      <trkpt lat="45.97436" lon="4.60999">
        <ele>399.799987793</ele>
        <time>2016-02-26T11:07:45.896Z</time>
      </trkpt>
      <trkpt lat="45.97434" lon="4.61008">
        <ele>399.899993896</ele>
        <time>2016-02-26T11:07:46.889Z</time>
      </trkpt>
      <trkpt lat="45.97431" lon="4.61018">
        <ele>399.899993896</ele>
        <time>2016-02-26T11:07:47.871Z</time>
      </trkpt>
      <trkpt lat="45.97429" lon="4.61027">
        <ele>399.700012207</ele>
        <time>2016-02-26T11:07:48.907Z</time>
      </trkpt>
      <trkpt lat="45.97427" lon="4.61037">
        <ele>399.5</ele>
        <time>2016-02-26T11:07:49.87Z</time>
      </trkpt>
      <trkpt lat="45.97424" lon="4.61046">
        <ele>399.5</ele>
        <time>2016-02-26T11:07:50.894Z</time>
      </trkpt>
      <trkpt lat="45.97422" lon="4.61056">
        <ele>399.5</ele>
        <time>2016-02-26T11:07:51.87Z</time>
      </trkpt>
      <trkpt lat="45.97419" lon="4.61065">
        <ele>399.200012207</ele>
        <time>2016-02-26T11:07:52.887Z</time>
      </trkpt>
      <trkpt lat="45.97416" lon="4.61076">
        <ele>399</ele>
        <time>2016-02-26T11:07:53.893Z</time>
      </trkpt>
      <trkpt lat="45.97413" lon="4.61086">
        <ele>398.5</ele>
        <time>2016-02-26T11:07:54.908Z</time>
      </trkpt>
      <trkpt lat="45.97411" lon="4.61096">
        <ele>398.5</ele>
        <time>2016-02-26T11:07:55.896Z</time>
      </trkpt>
      <trkpt lat="45.97408" lon="4.61107">
        <ele>397.799987793</ele>
        <time>2016-02-26T11:07:56.89Z</time>
      </trkpt>
      <trkpt lat="45.97405" lon="4.61118">
        <ele>397</ele>
        <time>2016-02-26T11:07:57.871Z</time>
      </trkpt>
      <trkpt lat="45.97402" lon="4.61128">
        <ele>396.5</ele>
        <time>2016-02-26T11:07:58.898Z</time>
      </trkpt>
      <trkpt lat="45.97399" lon="4.61139">
        <ele>396.100006104</ele>
        <time>2016-02-26T11:07:59.888Z</time>
      </trkpt>
      <trkpt lat="45.97398" lon="4.61149">
        <ele>396</ele>
        <time>2016-02-26T11:08:00.899Z</time>
      </trkpt>
      <trkpt lat="45.97396" lon="4.61159">
        <ele>395.700012207</ele>
        <time>2016-02-26T11:08:01.87Z</time>
      </trkpt>
      <trkpt lat="45.97395" lon="4.6117">
        <ele>395.399993896</ele>
        <time>2016-02-26T11:08:02.889Z</time>
      </trkpt>
      <trkpt lat="45.97394" lon="4.6118">
        <ele>395.299987793</ele>
        <time>2016-02-26T11:08:03.871Z</time>
      </trkpt>
      <trkpt lat="45.97394" lon="4.6119">
        <ele>394.799987793</ele>
        <time>2016-02-26T11:08:04.89Z</time>
      </trkpt>
      <trkpt lat="45.97394" lon="4.612">
        <ele>394.100006104</ele>
        <time>2016-02-26T11:08:05.918Z</time>
      </trkpt>
      <trkpt lat="45.97394" lon="4.6121">
        <ele>393.600006104</ele>
        <time>2016-02-26T11:08:06.892Z</time>
      </trkpt>
      <trkpt lat="45.97395" lon="4.61219">
        <ele>393.600006104</ele>
        <time>2016-02-26T11:08:07.905Z</time>
      </trkpt>
      <trkpt lat="45.97397" lon="4.61229">
        <ele>393.200012207</ele>
        <time>2016-02-26T11:08:08.891Z</time>
      </trkpt>
      <trkpt lat="45.97398" lon="4.61239">
        <ele>393</ele>
        <time>2016-02-26T11:08:09.87Z</time>
      </trkpt>
      <trkpt lat="45.974" lon="4.61248">
        <ele>392.899993896</ele>
        <time>2016-02-26T11:08:10.889Z</time>
      </trkpt>
      <trkpt lat="45.97402" lon="4.61258">
        <ele>392.899993896</ele>
        <time>2016-02-26T11:08:11.875Z</time>
      </trkpt>
      <trkpt lat="45.97404" lon="4.61267">
        <ele>393.299987793</ele>
        <time>2016-02-26T11:08:12.891Z</time>
      </trkpt>
      <trkpt lat="45.97406" lon="4.61276">
        <ele>393.399993896</ele>
        <time>2016-02-26T11:08:13.868Z</time>
      </trkpt>
      <trkpt lat="45.97408" lon="4.61285">
        <ele>393.5</ele>
        <time>2016-02-26T11:08:14.889Z</time>
      </trkpt>
      <trkpt lat="45.97411" lon="4.61293">
        <ele>393.5</ele>
        <time>2016-02-26T11:08:15.892Z</time>
      </trkpt>
      <trkpt lat="45.97413" lon="4.61302">
        <ele>393.600006104</ele>
        <time>2016-02-26T11:08:16.893Z</time>
      </trkpt>
      <trkpt lat="45.97415" lon="4.6131">
        <ele>393.700012207</ele>
        <time>2016-02-26T11:08:17.87Z</time>
      </trkpt>
      <trkpt lat="45.97417" lon="4.61318">
        <ele>393.600006104</ele>
        <time>2016-02-26T11:08:18.901Z</time>
      </trkpt>
      <trkpt lat="45.97419" lon="4.61326">
        <ele>393.600006104</ele>
        <time>2016-02-26T11:08:19.869Z</time>
      </trkpt>
      <trkpt lat="45.9742" lon="4.61333">
        <ele>393.700012207</ele>
        <time>2016-02-26T11:08:20.909Z</time>
      </trkpt>
      <trkpt lat="45.97422" lon="4.6134">
        <ele>393.5</ele>
        <time>2016-02-26T11:08:21.87Z</time>
      </trkpt>
      <trkpt lat="45.97424" lon="4.61348">
        <ele>394.399993896</ele>
        <time>2016-02-26T11:08:22.896Z</time>
      </trkpt>
      <trkpt lat="45.97425" lon="4.61355">
        <ele>394.600006104</ele>
        <time>2016-02-26T11:08:23.87Z</time>
      </trkpt>
      <trkpt lat="45.97427" lon="4.61362">
        <ele>394.700012207</ele>
        <time>2016-02-26T11:08:24.894Z</time>
      </trkpt>
      <trkpt lat="45.97429" lon="4.61369">
        <ele>394.700012207</ele>
        <time>2016-02-26T11:08:25.913Z</time>
      </trkpt>
      <trkpt lat="45.9743" lon="4.61376">
        <ele>394.799987793</ele>
        <time>2016-02-26T11:08:26.93Z</time>
      </trkpt>
      <trkpt lat="45.97432" lon="4.61383">
        <ele>394.899993896</ele>
        <time>2016-02-26T11:08:27.87Z</time>
      </trkpt>
      <trkpt lat="45.97433" lon="4.6139">
        <ele>394.899993896</ele>
        <time>2016-02-26T11:08:28.961Z</time>
      </trkpt>
      <trkpt lat="45.97435" lon="4.61397">
        <ele>395.100006104</ele>
        <time>2016-02-26T11:08:29.871Z</time>
      </trkpt>
      <trkpt lat="45.97437" lon="4.61404">
        <ele>395.299987793</ele>
        <time>2016-02-26T11:08:30.892Z</time>
      </trkpt>
      <trkpt lat="45.97438" lon="4.6141">
        <ele>395.299987793</ele>
        <time>2016-02-26T11:08:31.87Z</time>
      </trkpt>
      <trkpt lat="45.9744" lon="4.61417">
        <ele>395.5</ele>
        <time>2016-02-26T11:08:32.946Z</time>
      </trkpt>
      <trkpt lat="45.97441" lon="4.61424">
        <ele>395.399993896</ele>
        <time>2016-02-26T11:08:33.869Z</time>
      </trkpt>
      <trkpt lat="45.97443" lon="4.61431">
        <ele>395.200012207</ele>
        <time>2016-02-26T11:08:34.891Z</time>
      </trkpt>
      <trkpt lat="45.97444" lon="4.61438">
        <ele>395.700012207</ele>
        <time>2016-02-26T11:08:35.891Z</time>
      </trkpt>
      <trkpt lat="45.97445" lon="4.61445">
        <ele>395.5</ele>
        <time>2016-02-26T11:08:36.974Z</time>
      </trkpt>
      <trkpt lat="45.97447" lon="4.61453">
        <ele>395.399993896</ele>
        <time>2016-02-26T11:08:37.869Z</time>
      </trkpt>
      <trkpt lat="45.97448" lon="4.6146">
        <ele>395.299987793</ele>
        <time>2016-02-26T11:08:38.912Z</time>
      </trkpt>
      <trkpt lat="45.9745" lon="4.61467">
        <ele>395.200012207</ele>
        <time>2016-02-26T11:08:39.872Z</time>
      </trkpt>
      <trkpt lat="45.97451" lon="4.61474">
        <ele>395.299987793</ele>
        <time>2016-02-26T11:08:40.889Z</time>
      </trkpt>
      <trkpt lat="45.97452" lon="4.61481">
        <ele>395.100006104</ele>
        <time>2016-02-26T11:08:41.87Z</time>
      </trkpt>
      <trkpt lat="45.97453" lon="4.61487">
        <ele>395</ele>
        <time>2016-02-26T11:08:42.895Z</time>
      </trkpt>
      <trkpt lat="45.97454" lon="4.61493">
        <ele>394.899993896</ele>
        <time>2016-02-26T11:08:43.871Z</time>
      </trkpt>
      <trkpt lat="45.97455" lon="4.615">
        <ele>394.899993896</ele>
        <time>2016-02-26T11:08:44.89Z</time>
      </trkpt>
      <trkpt lat="45.97456" lon="4.61506">
        <ele>394.899993896</ele>
        <time>2016-02-26T11:08:45.912Z</time>
      </trkpt>
      <trkpt lat="45.97457" lon="4.61519">
        <ele>394.899993896</ele>
        <time>2016-02-26T11:08:47.899Z</time>
      </trkpt>
      <trkpt lat="45.97458" lon="4.61525">
        <ele>395</ele>
        <time>2016-02-26T11:08:48.873Z</time>
      </trkpt>
      <trkpt lat="45.97458" lon="4.61532">
        <ele>394.899993896</ele>
        <time>2016-02-26T11:08:49.897Z</time>
      </trkpt>
      <trkpt lat="45.97459" lon="4.61539">
        <ele>395</ele>
        <time>2016-02-26T11:08:50.87Z</time>
      </trkpt>
      <trkpt lat="45.9746" lon="4.61546">
        <ele>395.100006104</ele>
        <time>2016-02-26T11:08:51.889Z</time>
      </trkpt>
      <trkpt lat="45.97461" lon="4.61553">
        <ele>395.200012207</ele>
        <time>2016-02-26T11:08:52.874Z</time>
      </trkpt>
      <trkpt lat="45.97461" lon="4.6156">
        <ele>395.200012207</ele>
        <time>2016-02-26T11:08:53.896Z</time>
      </trkpt>
      <trkpt lat="45.97462" lon="4.61567">
        <ele>395.100006104</ele>
        <time>2016-02-26T11:08:54.872Z</time>
      </trkpt>
      <trkpt lat="45.97463" lon="4.61574">
        <ele>395.200012207</ele>
        <time>2016-02-26T11:08:55.913Z</time>
      </trkpt>
      <trkpt lat="45.97463" lon="4.61581">
        <ele>395.299987793</ele>
        <time>2016-02-26T11:08:56.874Z</time>
      </trkpt>
      <trkpt lat="45.97464" lon="4.61588">
        <ele>395.200012207</ele>
        <time>2016-02-26T11:08:57.905Z</time>
      </trkpt>
      <trkpt lat="45.97464" lon="4.61596">
        <ele>395</ele>
        <time>2016-02-26T11:08:58.87Z</time>
      </trkpt>
      <trkpt lat="45.97466" lon="4.61604">
        <ele>394.100006104</ele>
        <time>2016-02-26T11:08:59.89Z</time>
      </trkpt>
      <trkpt lat="45.97466" lon="4.61612">
        <ele>393.799987793</ele>
        <time>2016-02-26T11:09:00.929Z</time>
      </trkpt>
      <trkpt lat="45.97466" lon="4.61621">
        <ele>393.5</ele>
        <time>2016-02-26T11:09:01.891Z</time>
      </trkpt>
      <trkpt lat="45.97466" lon="4.61629">
        <ele>393.100006104</ele>
        <time>2016-02-26T11:09:02.872Z</time>
      </trkpt>
      <trkpt lat="45.97466" lon="4.61638">
        <ele>392.700012207</ele>
        <time>2016-02-26T11:09:03.891Z</time>
      </trkpt>
      <trkpt lat="45.97466" lon="4.61647">
        <ele>392.299987793</ele>
        <time>2016-02-26T11:09:04.872Z</time>
      </trkpt>
      <trkpt lat="45.97465" lon="4.61656">
        <ele>391.899993896</ele>
        <time>2016-02-26T11:09:05.913Z</time>
      </trkpt>
      <trkpt lat="45.97465" lon="4.61666">
        <ele>391.5</ele>
        <time>2016-02-26T11:09:06.871Z</time>
      </trkpt>
      <trkpt lat="45.97464" lon="4.61675">
        <ele>391.100006104</ele>
        <time>2016-02-26T11:09:07.89Z</time>
      </trkpt>
      <trkpt lat="45.97464" lon="4.61685">
        <ele>390.799987793</ele>
        <time>2016-02-26T11:09:08.873Z</time>
      </trkpt>
      <trkpt lat="45.97462" lon="4.61695">
        <ele>390.399993896</ele>
        <time>2016-02-26T11:09:09.891Z</time>
      </trkpt>
      <trkpt lat="45.97461" lon="4.61705">
        <ele>390</ele>
        <time>2016-02-26T11:09:10.869Z</time>
      </trkpt>
      <trkpt lat="45.9746" lon="4.61715">
        <ele>389.600006104</ele>
        <time>2016-02-26T11:09:11.89Z</time>
      </trkpt>
      <trkpt lat="45.97458" lon="4.61725">
        <ele>389.200012207</ele>
        <time>2016-02-26T11:09:12.873Z</time>
      </trkpt>
      <trkpt lat="45.97455" lon="4.61735">
        <ele>388.899993896</ele>
        <time>2016-02-26T11:09:13.889Z</time>
      </trkpt>
      <trkpt lat="45.97453" lon="4.61745">
        <ele>388.5</ele>
        <time>2016-02-26T11:09:14.869Z</time>
      </trkpt>
      <trkpt lat="45.97451" lon="4.61755">
        <ele>388.100006104</ele>
        <time>2016-02-26T11:09:15.911Z</time>
      </trkpt>
      <trkpt lat="45.97448" lon="4.61765">
        <ele>387.700012207</ele>
        <time>2016-02-26T11:09:16.87Z</time>
      </trkpt>
      <trkpt lat="45.97446" lon="4.61774">
        <ele>387.299987793</ele>
        <time>2016-02-26T11:09:17.892Z</time>
      </trkpt>
      <trkpt lat="45.97443" lon="4.61784">
        <ele>386.899993896</ele>
        <time>2016-02-26T11:09:18.877Z</time>
      </trkpt>
      <trkpt lat="45.97439" lon="4.61794">
        <ele>386.399993896</ele>
        <time>2016-02-26T11:09:19.894Z</time>
      </trkpt>
      <trkpt lat="45.97436" lon="4.61805">
        <ele>385.899993896</ele>
        <time>2016-02-26T11:09:20.87Z</time>
      </trkpt>
      <trkpt lat="45.97434" lon="4.61815">
        <ele>385.5</ele>
        <time>2016-02-26T11:09:21.888Z</time>
      </trkpt>
      <trkpt lat="45.97432" lon="4.61826">
        <ele>385.200012207</ele>
        <time>2016-02-26T11:09:22.869Z</time>
      </trkpt>
      <trkpt lat="45.97432" lon="4.61837">
        <ele>384.799987793</ele>
        <time>2016-02-26T11:09:23.928Z</time>
      </trkpt>
      <trkpt lat="45.97432" lon="4.61849">
        <ele>384.399993896</ele>
        <time>2016-02-26T11:09:24.875Z</time>
      </trkpt>
      <trkpt lat="45.97432" lon="4.6186">
        <ele>383.799987793</ele>
        <time>2016-02-26T11:09:25.913Z</time>
      </trkpt>
      <trkpt lat="45.97433" lon="4.61872">
        <ele>383.299987793</ele>
        <time>2016-02-26T11:09:26.872Z</time>
      </trkpt>
      <trkpt lat="45.97433" lon="4.61884">
        <ele>382.799987793</ele>
        <time>2016-02-26T11:09:27.89Z</time>
      </trkpt>
      <trkpt lat="45.97434" lon="4.61895">
        <ele>382.299987793</ele>
        <time>2016-02-26T11:09:28.869Z</time>
      </trkpt>
      <trkpt lat="45.97435" lon="4.61907">
        <ele>381.799987793</ele>
        <time>2016-02-26T11:09:29.891Z</time>
      </trkpt>
      <trkpt lat="45.97436" lon="4.61919">
        <ele>381.200012207</ele>
        <time>2016-02-26T11:09:30.871Z</time>
      </trkpt>
      <trkpt lat="45.97437" lon="4.61931">
        <ele>380.700012207</ele>
        <time>2016-02-26T11:09:31.888Z</time>
      </trkpt>
      <trkpt lat="45.97437" lon="4.61943">
        <ele>380.200012207</ele>
        <time>2016-02-26T11:09:32.871Z</time>
      </trkpt>
      <trkpt lat="45.97438" lon="4.61955">
        <ele>379.799987793</ele>
        <time>2016-02-26T11:09:33.89Z</time>
      </trkpt>
      <trkpt lat="45.97438" lon="4.61967">
        <ele>379.399993896</ele>
        <time>2016-02-26T11:09:34.87Z</time>
      </trkpt>
      <trkpt lat="45.97439" lon="4.61979">
        <ele>378.899993896</ele>
        <time>2016-02-26T11:09:35.912Z</time>
      </trkpt>
      <trkpt lat="45.97439" lon="4.6199">
        <ele>378.5</ele>
        <time>2016-02-26T11:09:36.873Z</time>
      </trkpt>
      <trkpt lat="45.9744" lon="4.62002">
        <ele>378.200012207</ele>
        <time>2016-02-26T11:09:37.904Z</time>
      </trkpt>
      <trkpt lat="45.9744" lon="4.62014">
        <ele>377.5</ele>
        <time>2016-02-26T11:09:38.869Z</time>
      </trkpt>
      <trkpt lat="45.9744" lon="4.62026">
        <ele>377.600006104</ele>
        <time>2016-02-26T11:09:39.887Z</time>
      </trkpt>
      <trkpt lat="45.97441" lon="4.62038">
        <ele>377</ele>
        <time>2016-02-26T11:09:40.869Z</time>
      </trkpt>
      <trkpt lat="45.97441" lon="4.6205">
        <ele>376.600006104</ele>
        <time>2016-02-26T11:09:41.89Z</time>
      </trkpt>
      <trkpt lat="45.97442" lon="4.62062">
        <ele>375.899993896</ele>
        <time>2016-02-26T11:09:42.871Z</time>
      </trkpt>
      <trkpt lat="45.97442" lon="4.62075">
        <ele>375.399993896</ele>
        <time>2016-02-26T11:09:43.889Z</time>
      </trkpt>
      <trkpt lat="45.97442" lon="4.62088">
        <ele>374.899993896</ele>
        <time>2016-02-26T11:09:44.876Z</time>
      </trkpt>
      <trkpt lat="45.97442" lon="4.62088">
        <ele>374.899993896</ele>
        <time>2016-02-26T11:09:44.907Z</time>
      </trkpt>
      <trkpt lat="45.97441" lon="4.621">
        <ele>374.399993896</ele>
        <time>2016-02-26T11:09:45.87Z</time>
      </trkpt>
      <trkpt lat="45.97441" lon="4.621">
        <ele>374.399993896</ele>
        <time>2016-02-26T11:09:45.927Z</time>
      </trkpt>
      <trkpt lat="45.97441" lon="4.62114">
        <ele>373.899993896</ele>
        <time>2016-02-26T11:09:46.931Z</time>
      </trkpt>
      <trkpt lat="45.97441" lon="4.62114">
        <ele>373.899993896</ele>
        <time>2016-02-26T11:09:47.028Z</time>
      </trkpt>
      <trkpt lat="45.9744" lon="4.62127">
        <ele>373.299987793</ele>
        <time>2016-02-26T11:09:47.87Z</time>
      </trkpt>
      <trkpt lat="45.9744" lon="4.62127">
        <ele>373.299987793</ele>
        <time>2016-02-26T11:09:47.891Z</time>
      </trkpt>
      <trkpt lat="45.97439" lon="4.6214">
        <ele>372.700012207</ele>
        <time>2016-02-26T11:09:48.93Z</time>
      </trkpt>
      <trkpt lat="45.97439" lon="4.6214">
        <ele>372.700012207</ele>
        <time>2016-02-26T11:09:48.953Z</time>
      </trkpt>
      <trkpt lat="45.97438" lon="4.62154">
        <ele>372.200012207</ele>
        <time>2016-02-26T11:09:49.889Z</time>
      </trkpt>
      <trkpt lat="45.97438" lon="4.62154">
        <ele>372.200012207</ele>
        <time>2016-02-26T11:09:49.91Z</time>
      </trkpt>
      <trkpt lat="45.97437" lon="4.62168">
        <ele>371.700012207</ele>
        <time>2016-02-26T11:09:50.873Z</time>
      </trkpt>
      <trkpt lat="45.97437" lon="4.62168">
        <ele>371.700012207</ele>
        <time>2016-02-26T11:09:50.897Z</time>
      </trkpt>
      <trkpt lat="45.97436" lon="4.62182">
        <ele>371.100006104</ele>
        <time>2016-02-26T11:09:51.871Z</time>
      </trkpt>
      <trkpt lat="45.97436" lon="4.62182">
        <ele>371.100006104</ele>
        <time>2016-02-26T11:09:51.893Z</time>
      </trkpt>
      <trkpt lat="45.97435" lon="4.62196">
        <ele>370.600006104</ele>
        <time>2016-02-26T11:09:52.87Z</time>
      </trkpt>
      <trkpt lat="45.97435" lon="4.62196">
        <ele>370.600006104</ele>
        <time>2016-02-26T11:09:52.89Z</time>
      </trkpt>
      <trkpt lat="45.97434" lon="4.6221">
        <ele>370.100006104</ele>
        <time>2016-02-26T11:09:53.867Z</time>
      </trkpt>
      <trkpt lat="45.97434" lon="4.6221">
        <ele>370.100006104</ele>
        <time>2016-02-26T11:09:53.897Z</time>
      </trkpt>
      <trkpt lat="45.97433" lon="4.62225">
        <ele>369.5</ele>
        <time>2016-02-26T11:09:54.874Z</time>
      </trkpt>
      <trkpt lat="45.97433" lon="4.62225">
        <ele>369.5</ele>
        <time>2016-02-26T11:09:54.927Z</time>
      </trkpt>
      <trkpt lat="45.97432" lon="4.62239">
        <ele>369</ele>
        <time>2016-02-26T11:09:55.873Z</time>
      </trkpt>
      <trkpt lat="45.97432" lon="4.62239">
        <ele>369</ele>
        <time>2016-02-26T11:09:55.924Z</time>
      </trkpt>
      <trkpt lat="45.97431" lon="4.62254">
        <ele>368.399993896</ele>
        <time>2016-02-26T11:09:56.872Z</time>
      </trkpt>
      <trkpt lat="45.97431" lon="4.62254">
        <ele>368.399993896</ele>
        <time>2016-02-26T11:09:56.9Z</time>
      </trkpt>
      <trkpt lat="45.9743" lon="4.62269">
        <ele>367.899993896</ele>
        <time>2016-02-26T11:09:57.871Z</time>
      </trkpt>
      <trkpt lat="45.9743" lon="4.62269">
        <ele>367.899993896</ele>
        <time>2016-02-26T11:09:57.891Z</time>
      </trkpt>
      <trkpt lat="45.97429" lon="4.62283">
        <ele>367.299987793</ele>
        <time>2016-02-26T11:09:58.872Z</time>
      </trkpt>
      <trkpt lat="45.97429" lon="4.62283">
        <ele>367.299987793</ele>
        <time>2016-02-26T11:09:58.892Z</time>
      </trkpt>
      <trkpt lat="45.97428" lon="4.62298">
        <ele>366.600006104</ele>
        <time>2016-02-26T11:09:59.869Z</time>
      </trkpt>
      <trkpt lat="45.97428" lon="4.62298">
        <ele>366.600006104</ele>
        <time>2016-02-26T11:09:59.888Z</time>
      </trkpt>
      <trkpt lat="45.97426" lon="4.62313">
        <ele>366</ele>
        <time>2016-02-26T11:10:00.904Z</time>
      </trkpt>
      <trkpt lat="45.97426" lon="4.62313">
        <ele>366</ele>
        <time>2016-02-26T11:10:00.929Z</time>
      </trkpt>
      <trkpt lat="45.97425" lon="4.62328">
        <ele>365.399993896</ele>
        <time>2016-02-26T11:10:01.869Z</time>
      </trkpt>
      <trkpt lat="45.97425" lon="4.62328">
        <ele>365.399993896</ele>
        <time>2016-02-26T11:10:01.898Z</time>
      </trkpt>
      <trkpt lat="45.97424" lon="4.62343">
        <ele>364.700012207</ele>
        <time>2016-02-26T11:10:02.872Z</time>
      </trkpt>
      <trkpt lat="45.97424" lon="4.62343">
        <ele>364.700012207</ele>
        <time>2016-02-26T11:10:02.893Z</time>
      </trkpt>
      <trkpt lat="45.97422" lon="4.62357">
        <ele>363.899993896</ele>
        <time>2016-02-26T11:10:03.869Z</time>
      </trkpt>
      <trkpt lat="45.97422" lon="4.62357">
        <ele>363.899993896</ele>
        <time>2016-02-26T11:10:03.888Z</time>
      </trkpt>
      <trkpt lat="45.97421" lon="4.62372">
        <ele>363.399993896</ele>
        <time>2016-02-26T11:10:04.871Z</time>
      </trkpt>
      <trkpt lat="45.97421" lon="4.62372">
        <ele>363.399993896</ele>
        <time>2016-02-26T11:10:04.891Z</time>
      </trkpt>
      <trkpt lat="45.97419" lon="4.62386">
        <ele>362.799987793</ele>
        <time>2016-02-26T11:10:05.87Z</time>
      </trkpt>
      <trkpt lat="45.97419" lon="4.62386">
        <ele>362.799987793</ele>
        <time>2016-02-26T11:10:05.931Z</time>
      </trkpt>
      <trkpt lat="45.97417" lon="4.624">
        <ele>362.200012207</ele>
        <time>2016-02-26T11:10:06.918Z</time>
      </trkpt>
      <trkpt lat="45.97417" lon="4.624">
        <ele>362.200012207</ele>
        <time>2016-02-26T11:10:07.165Z</time>
      </trkpt>
      <trkpt lat="45.97415" lon="4.62414">
        <ele>361.700012207</ele>
        <time>2016-02-26T11:10:07.871Z</time>
      </trkpt>
      <trkpt lat="45.97415" lon="4.62414">
        <ele>361.700012207</ele>
        <time>2016-02-26T11:10:07.891Z</time>
      </trkpt>
      <trkpt lat="45.97412" lon="4.62427">
        <ele>361.200012207</ele>
        <time>2016-02-26T11:10:08.869Z</time>
      </trkpt>
      <trkpt lat="45.97412" lon="4.62427">
        <ele>361.200012207</ele>
        <time>2016-02-26T11:10:08.89Z</time>
      </trkpt>
      <trkpt lat="45.9741" lon="4.6244">
        <ele>360.5</ele>
        <time>2016-02-26T11:10:09.87Z</time>
      </trkpt>
      <trkpt lat="45.9741" lon="4.6244">
        <ele>360.5</ele>
        <time>2016-02-26T11:10:09.89Z</time>
      </trkpt>
      <trkpt lat="45.97407" lon="4.62454">
        <ele>360</ele>
        <time>2016-02-26T11:10:10.873Z</time>
      </trkpt>
      <trkpt lat="45.97407" lon="4.62454">
        <ele>360</ele>
        <time>2016-02-26T11:10:10.906Z</time>
      </trkpt>
      <trkpt lat="45.97404" lon="4.62468">
        <ele>359.600006104</ele>
        <time>2016-02-26T11:10:11.871Z</time>
      </trkpt>
      <trkpt lat="45.97404" lon="4.62468">
        <ele>359.600006104</ele>
        <time>2016-02-26T11:10:11.893Z</time>
      </trkpt>
      <trkpt lat="45.97401" lon="4.62481">
        <ele>359</ele>
        <time>2016-02-26T11:10:12.871Z</time>
      </trkpt>
      <trkpt lat="45.97401" lon="4.62481">
        <ele>359</ele>
        <time>2016-02-26T11:10:12.893Z</time>
      </trkpt>
      <trkpt lat="45.97399" lon="4.62494">
        <ele>358.299987793</ele>
        <time>2016-02-26T11:10:13.869Z</time>
      </trkpt>
      <trkpt lat="45.97399" lon="4.62494">
        <ele>358.299987793</ele>
        <time>2016-02-26T11:10:13.889Z</time>
      </trkpt>
      <trkpt lat="45.97398" lon="4.62508">
        <ele>357.799987793</ele>
        <time>2016-02-26T11:10:14.871Z</time>
      </trkpt>
      <trkpt lat="45.97398" lon="4.62508">
        <ele>357.799987793</ele>
        <time>2016-02-26T11:10:14.89Z</time>
      </trkpt>
      <trkpt lat="45.97397" lon="4.62522">
        <ele>357.299987793</ele>
        <time>2016-02-26T11:10:15.891Z</time>
      </trkpt>
      <trkpt lat="45.97397" lon="4.62522">
        <ele>357.299987793</ele>
        <time>2016-02-26T11:10:15.93Z</time>
      </trkpt>
      <trkpt lat="45.97396" lon="4.62536">
        <ele>356.600006104</ele>
        <time>2016-02-26T11:10:16.871Z</time>
      </trkpt>
      <trkpt lat="45.97396" lon="4.62536">
        <ele>356.600006104</ele>
        <time>2016-02-26T11:10:16.893Z</time>
      </trkpt>
      <trkpt lat="45.97396" lon="4.62549">
        <ele>355.899993896</ele>
        <time>2016-02-26T11:10:17.872Z</time>
      </trkpt>
      <trkpt lat="45.97396" lon="4.62549">
        <ele>355.899993896</ele>
        <time>2016-02-26T11:10:17.948Z</time>
      </trkpt>
      <trkpt lat="45.97396" lon="4.62563">
        <ele>355.399993896</ele>
        <time>2016-02-26T11:10:18.875Z</time>
      </trkpt>
      <trkpt lat="45.97396" lon="4.62563">
        <ele>355.399993896</ele>
        <time>2016-02-26T11:10:18.903Z</time>
      </trkpt>
      <trkpt lat="45.97397" lon="4.62576">
        <ele>354.700012207</ele>
        <time>2016-02-26T11:10:19.872Z</time>
      </trkpt>
      <trkpt lat="45.97397" lon="4.62576">
        <ele>354.700012207</ele>
        <time>2016-02-26T11:10:19.906Z</time>
      </trkpt>
      <trkpt lat="45.97398" lon="4.62589">
        <ele>353.799987793</ele>
        <time>2016-02-26T11:10:20.888Z</time>
      </trkpt>
      <trkpt lat="45.97399" lon="4.62602">
        <ele>352.899993896</ele>
        <time>2016-02-26T11:10:21.891Z</time>
      </trkpt>
      <trkpt lat="45.97401" lon="4.62614">
        <ele>352.399993896</ele>
        <time>2016-02-26T11:10:22.867Z</time>
      </trkpt>
      <trkpt lat="45.97404" lon="4.62626">
        <ele>351.700012207</ele>
        <time>2016-02-26T11:10:23.889Z</time>
      </trkpt>
      <trkpt lat="45.97406" lon="4.62639">
        <ele>351</ele>
        <time>2016-02-26T11:10:24.872Z</time>
      </trkpt>
      <trkpt lat="45.97406" lon="4.62639">
        <ele>351</ele>
        <time>2016-02-26T11:10:24.896Z</time>
      </trkpt>
      <trkpt lat="45.97409" lon="4.62651">
        <ele>350.5</ele>
        <time>2016-02-26T11:10:25.87Z</time>
      </trkpt>
      <trkpt lat="45.97411" lon="4.62663">
        <ele>350.200012207</ele>
        <time>2016-02-26T11:10:26.891Z</time>
      </trkpt>
      <trkpt lat="45.97414" lon="4.62675">
        <ele>349.799987793</ele>
        <time>2016-02-26T11:10:27.87Z</time>
      </trkpt>
      <trkpt lat="45.97414" lon="4.62675">
        <ele>349.799987793</ele>
        <time>2016-02-26T11:10:27.894Z</time>
      </trkpt>
      <trkpt lat="45.97416" lon="4.62688">
        <ele>349.100006104</ele>
        <time>2016-02-26T11:10:28.87Z</time>
      </trkpt>
      <trkpt lat="45.97419" lon="4.627">
        <ele>348.899993896</ele>
        <time>2016-02-26T11:10:29.891Z</time>
      </trkpt>
      <trkpt lat="45.97422" lon="4.62713">
        <ele>348.200012207</ele>
        <time>2016-02-26T11:10:30.871Z</time>
      </trkpt>
      <trkpt lat="45.97422" lon="4.62713">
        <ele>348.200012207</ele>
        <time>2016-02-26T11:10:30.892Z</time>
      </trkpt>
      <trkpt lat="45.97424" lon="4.62726">
        <ele>347.700012207</ele>
        <time>2016-02-26T11:10:31.87Z</time>
      </trkpt>
      <trkpt lat="45.97424" lon="4.62726">
        <ele>347.700012207</ele>
        <time>2016-02-26T11:10:31.899Z</time>
      </trkpt>
      <trkpt lat="45.97427" lon="4.62738">
        <ele>347.399993896</ele>
        <time>2016-02-26T11:10:32.87Z</time>
      </trkpt>
      <trkpt lat="45.97427" lon="4.62738">
        <ele>347.399993896</ele>
        <time>2016-02-26T11:10:32.891Z</time>
      </trkpt>
      <trkpt lat="45.9743" lon="4.62751">
        <ele>347.200012207</ele>
        <time>2016-02-26T11:10:33.869Z</time>
      </trkpt>
      <trkpt lat="45.9743" lon="4.62751">
        <ele>347.200012207</ele>
        <time>2016-02-26T11:10:33.891Z</time>
      </trkpt>
      <trkpt lat="45.97432" lon="4.62764">
        <ele>347</ele>
        <time>2016-02-26T11:10:34.867Z</time>
      </trkpt>
      <trkpt lat="45.97432" lon="4.62764">
        <ele>347</ele>
        <time>2016-02-26T11:10:34.898Z</time>
      </trkpt>
      <trkpt lat="45.97435" lon="4.62777">
        <ele>346.799987793</ele>
        <time>2016-02-26T11:10:35.869Z</time>
      </trkpt>
      <trkpt lat="45.97435" lon="4.62777">
        <ele>346.799987793</ele>
        <time>2016-02-26T11:10:35.93Z</time>
      </trkpt>
      <trkpt lat="45.97438" lon="4.6279">
        <ele>346.600006104</ele>
        <time>2016-02-26T11:10:36.874Z</time>
      </trkpt>
      <trkpt lat="45.97438" lon="4.6279">
        <ele>346.600006104</ele>
        <time>2016-02-26T11:10:36.896Z</time>
      </trkpt>
      <trkpt lat="45.9744" lon="4.62802">
        <ele>346.5</ele>
        <time>2016-02-26T11:10:37.872Z</time>
      </trkpt>
      <trkpt lat="45.9744" lon="4.62802">
        <ele>346.5</ele>
        <time>2016-02-26T11:10:37.894Z</time>
      </trkpt>
      <trkpt lat="45.97443" lon="4.62815">
        <ele>346.299987793</ele>
        <time>2016-02-26T11:10:38.872Z</time>
      </trkpt>
      <trkpt lat="45.97443" lon="4.62815">
        <ele>346.299987793</ele>
        <time>2016-02-26T11:10:38.902Z</time>
      </trkpt>
      <trkpt lat="45.97446" lon="4.62827">
        <ele>345.700012207</ele>
        <time>2016-02-26T11:10:39.918Z</time>
      </trkpt>
      <trkpt lat="45.97446" lon="4.62827">
        <ele>345.700012207</ele>
        <time>2016-02-26T11:10:40.172Z</time>
      </trkpt>
      <trkpt lat="45.97448" lon="4.6284">
        <ele>345.5</ele>
        <time>2016-02-26T11:10:40.869Z</time>
      </trkpt>
      <trkpt lat="45.97448" lon="4.6284">
        <ele>345.5</ele>
        <time>2016-02-26T11:10:40.899Z</time>
      </trkpt>
      <trkpt lat="45.9745" lon="4.62852">
        <ele>345.299987793</ele>
        <time>2016-02-26T11:10:41.87Z</time>
      </trkpt>
      <trkpt lat="45.97452" lon="4.62865">
        <ele>344.899993896</ele>
        <time>2016-02-26T11:10:42.891Z</time>
      </trkpt>
      <trkpt lat="45.97454" lon="4.62877">
        <ele>344.399993896</ele>
        <time>2016-02-26T11:10:43.869Z</time>
      </trkpt>
      <trkpt lat="45.97456" lon="4.6289">
        <ele>344</ele>
        <time>2016-02-26T11:10:44.891Z</time>
      </trkpt>
      <trkpt lat="45.97458" lon="4.62902">
        <ele>343.600006104</ele>
        <time>2016-02-26T11:10:45.872Z</time>
      </trkpt>
      <trkpt lat="45.97461" lon="4.62914">
        <ele>343.200012207</ele>
        <time>2016-02-26T11:10:46.905Z</time>
      </trkpt>
      <trkpt lat="45.97463" lon="4.62925">
        <ele>343.100006104</ele>
        <time>2016-02-26T11:10:47.871Z</time>
      </trkpt>
      <trkpt lat="45.97466" lon="4.62936">
        <ele>343.100006104</ele>
        <time>2016-02-26T11:10:48.892Z</time>
      </trkpt>
      <trkpt lat="45.97469" lon="4.62947">
        <ele>342.600006104</ele>
        <time>2016-02-26T11:10:49.869Z</time>
      </trkpt>
      <trkpt lat="45.97471" lon="4.62959">
        <ele>342.5</ele>
        <time>2016-02-26T11:10:50.889Z</time>
      </trkpt>
      <trkpt lat="45.97473" lon="4.6297">
        <ele>342.100006104</ele>
        <time>2016-02-26T11:10:51.866Z</time>
      </trkpt>
      <trkpt lat="45.97476" lon="4.62982">
        <ele>341.700012207</ele>
        <time>2016-02-26T11:10:52.909Z</time>
      </trkpt>
      <trkpt lat="45.97478" lon="4.62993">
        <ele>341.600006104</ele>
        <time>2016-02-26T11:10:53.869Z</time>
      </trkpt>
      <trkpt lat="45.9748" lon="4.63005">
        <ele>341.399993896</ele>
        <time>2016-02-26T11:10:54.893Z</time>
      </trkpt>
      <trkpt lat="45.97483" lon="4.63016">
        <ele>341.100006104</ele>
        <time>2016-02-26T11:10:55.869Z</time>
      </trkpt>
      <trkpt lat="45.97486" lon="4.63028">
        <ele>340.899993896</ele>
        <time>2016-02-26T11:10:56.889Z</time>
      </trkpt>
      <trkpt lat="45.97488" lon="4.63039">
        <ele>340.799987793</ele>
        <time>2016-02-26T11:10:57.87Z</time>
      </trkpt>
      <trkpt lat="45.97491" lon="4.63051">
        <ele>340.200012207</ele>
        <time>2016-02-26T11:10:58.901Z</time>
      </trkpt>
      <trkpt lat="45.97492" lon="4.63062">
        <ele>340.299987793</ele>
        <time>2016-02-26T11:10:59.869Z</time>
      </trkpt>
      <trkpt lat="45.97494" lon="4.63074">
        <ele>340.399993896</ele>
        <time>2016-02-26T11:11:00.938Z</time>
      </trkpt>
      <trkpt lat="45.97495" lon="4.63086">
        <ele>340.5</ele>
        <time>2016-02-26T11:11:01.869Z</time>
      </trkpt>
      <trkpt lat="45.97496" lon="4.63099">
        <ele>340.399993896</ele>
        <time>2016-02-26T11:11:02.894Z</time>
      </trkpt>
      <trkpt lat="45.97497" lon="4.63111">
        <ele>340.299987793</ele>
        <time>2016-02-26T11:11:03.867Z</time>
      </trkpt>
      <trkpt lat="45.97499" lon="4.63123">
        <ele>340</ele>
        <time>2016-02-26T11:11:04.887Z</time>
      </trkpt>
      <trkpt lat="45.975" lon="4.63135">
        <ele>339.5</ele>
        <time>2016-02-26T11:11:05.869Z</time>
      </trkpt>
      <trkpt lat="45.975" lon="4.63135">
        <ele>339.5</ele>
        <time>2016-02-26T11:11:05.895Z</time>
      </trkpt>
      <trkpt lat="45.97502" lon="4.63148">
        <ele>339.100006104</ele>
        <time>2016-02-26T11:11:06.872Z</time>
      </trkpt>
      <trkpt lat="45.97502" lon="4.63148">
        <ele>339.100006104</ele>
        <time>2016-02-26T11:11:06.915Z</time>
      </trkpt>
      <trkpt lat="45.97503" lon="4.63161">
        <ele>338.799987793</ele>
        <time>2016-02-26T11:11:07.885Z</time>
      </trkpt>
      <trkpt lat="45.97503" lon="4.63161">
        <ele>338.799987793</ele>
        <time>2016-02-26T11:11:07.907Z</time>
      </trkpt>
      <trkpt lat="45.97505" lon="4.63174">
        <ele>338.399993896</ele>
        <time>2016-02-26T11:11:08.87Z</time>
      </trkpt>
      <trkpt lat="45.97506" lon="4.63187">
        <ele>338.200012207</ele>
        <time>2016-02-26T11:11:09.887Z</time>
      </trkpt>
      <trkpt lat="45.97507" lon="4.63199">
        <ele>338.100006104</ele>
        <time>2016-02-26T11:11:10.867Z</time>
      </trkpt>
      <trkpt lat="45.97508" lon="4.63212">
        <ele>338.200012207</ele>
        <time>2016-02-26T11:11:11.888Z</time>
      </trkpt>
      <trkpt lat="45.9751" lon="4.63224">
        <ele>338.299987793</ele>
        <time>2016-02-26T11:11:12.872Z</time>
      </trkpt>
      <trkpt lat="45.97511" lon="4.63237">
        <ele>338.100006104</ele>
        <time>2016-02-26T11:11:13.887Z</time>
      </trkpt>
      <trkpt lat="45.97513" lon="4.63249">
        <ele>337.5</ele>
        <time>2016-02-26T11:11:14.87Z</time>
      </trkpt>
      <trkpt lat="45.97514" lon="4.63261">
        <ele>337.399993896</ele>
        <time>2016-02-26T11:11:15.945Z</time>
      </trkpt>
      <trkpt lat="45.97515" lon="4.63273">
        <ele>337</ele>
        <time>2016-02-26T11:11:16.869Z</time>
      </trkpt>
      <trkpt lat="45.97517" lon="4.63285">
        <ele>336.899993896</ele>
        <time>2016-02-26T11:11:17.888Z</time>
      </trkpt>
      <trkpt lat="45.97518" lon="4.63298">
        <ele>336.600006104</ele>
        <time>2016-02-26T11:11:18.872Z</time>
      </trkpt>
      <trkpt lat="45.97519" lon="4.6331">
        <ele>337</ele>
        <time>2016-02-26T11:11:19.887Z</time>
      </trkpt>
      <trkpt lat="45.97521" lon="4.63322">
        <ele>335.200012207</ele>
        <time>2016-02-26T11:11:20.871Z</time>
      </trkpt>
      <trkpt lat="45.97522" lon="4.63334">
        <ele>334.700012207</ele>
        <time>2016-02-26T11:11:21.888Z</time>
      </trkpt>
      <trkpt lat="45.97524" lon="4.63346">
        <ele>334.200012207</ele>
        <time>2016-02-26T11:11:22.869Z</time>
      </trkpt>
      <trkpt lat="45.97525" lon="4.63357">
        <ele>333.700012207</ele>
        <time>2016-02-26T11:11:23.894Z</time>
      </trkpt>
      <trkpt lat="45.97526" lon="4.63369">
        <ele>333</ele>
        <time>2016-02-26T11:11:24.874Z</time>
      </trkpt>
      <trkpt lat="45.97527" lon="4.6338">
        <ele>332.600006104</ele>
        <time>2016-02-26T11:11:25.964Z</time>
      </trkpt>
      <trkpt lat="45.97529" lon="4.63392">
        <ele>332.100006104</ele>
        <time>2016-02-26T11:11:26.871Z</time>
      </trkpt>
      <trkpt lat="45.9753" lon="4.63403">
        <ele>331.700012207</ele>
        <time>2016-02-26T11:11:27.887Z</time>
      </trkpt>
      <trkpt lat="45.97531" lon="4.63415">
        <ele>331.299987793</ele>
        <time>2016-02-26T11:11:28.871Z</time>
      </trkpt>
      <trkpt lat="45.97533" lon="4.63427">
        <ele>330.899993896</ele>
        <time>2016-02-26T11:11:29.893Z</time>
      </trkpt>
      <trkpt lat="45.97534" lon="4.63439">
        <ele>330.399993896</ele>
        <time>2016-02-26T11:11:30.871Z</time>
      </trkpt>
      <trkpt lat="45.97535" lon="4.63451">
        <ele>329.700012207</ele>
        <time>2016-02-26T11:11:31.888Z</time>
      </trkpt>
      <trkpt lat="45.97537" lon="4.63464">
        <ele>329.200012207</ele>
        <time>2016-02-26T11:11:32.87Z</time>
      </trkpt>
      <trkpt lat="45.97538" lon="4.63476">
        <ele>328.700012207</ele>
        <time>2016-02-26T11:11:33.906Z</time>
      </trkpt>
      <trkpt lat="45.9754" lon="4.63489">
        <ele>328.200012207</ele>
        <time>2016-02-26T11:11:34.859Z</time>
      </trkpt>
      <trkpt lat="45.9754" lon="4.63489">
        <ele>328.200012207</ele>
        <time>2016-02-26T11:11:34.972Z</time>
      </trkpt>
      <trkpt lat="45.97541" lon="4.63502">
        <ele>327.899993896</ele>
        <time>2016-02-26T11:11:35.871Z</time>
      </trkpt>
      <trkpt lat="45.97541" lon="4.63502">
        <ele>327.899993896</ele>
        <time>2016-02-26T11:11:35.901Z</time>
      </trkpt>
      <trkpt lat="45.97542" lon="4.63516">
        <ele>327.399993896</ele>
        <time>2016-02-26T11:11:36.872Z</time>
      </trkpt>
      <trkpt lat="45.97542" lon="4.63516">
        <ele>327.399993896</ele>
        <time>2016-02-26T11:11:36.901Z</time>
      </trkpt>
      <trkpt lat="45.97544" lon="4.63529">
        <ele>326.899993896</ele>
        <time>2016-02-26T11:11:37.868Z</time>
      </trkpt>
      <trkpt lat="45.97544" lon="4.63529">
        <ele>326.899993896</ele>
        <time>2016-02-26T11:11:37.937Z</time>
      </trkpt>
      <trkpt lat="45.97545" lon="4.63543">
        <ele>326.399993896</ele>
        <time>2016-02-26T11:11:38.87Z</time>
      </trkpt>
      <trkpt lat="45.97545" lon="4.63543">
        <ele>326.399993896</ele>
        <time>2016-02-26T11:11:38.895Z</time>
      </trkpt>
      <trkpt lat="45.97547" lon="4.63556">
        <ele>326</ele>
        <time>2016-02-26T11:11:39.869Z</time>
      </trkpt>
      <trkpt lat="45.97547" lon="4.63556">
        <ele>326</ele>
        <time>2016-02-26T11:11:39.896Z</time>
      </trkpt>
      <trkpt lat="45.97548" lon="4.6357">
        <ele>325.600006104</ele>
        <time>2016-02-26T11:11:40.869Z</time>
      </trkpt>
      <trkpt lat="45.97548" lon="4.6357">
        <ele>325.600006104</ele>
        <time>2016-02-26T11:11:40.89Z</time>
      </trkpt>
      <trkpt lat="45.9755" lon="4.63583">
        <ele>325.200012207</ele>
        <time>2016-02-26T11:11:41.871Z</time>
      </trkpt>
      <trkpt lat="45.9755" lon="4.63583">
        <ele>325.200012207</ele>
        <time>2016-02-26T11:11:41.899Z</time>
      </trkpt>
      <trkpt lat="45.97551" lon="4.63597">
        <ele>324.799987793</ele>
        <time>2016-02-26T11:11:42.872Z</time>
      </trkpt>
      <trkpt lat="45.97551" lon="4.63597">
        <ele>324.799987793</ele>
        <time>2016-02-26T11:11:42.906Z</time>
      </trkpt>
      <trkpt lat="45.97553" lon="4.6361">
        <ele>324.299987793</ele>
        <time>2016-02-26T11:11:43.866Z</time>
      </trkpt>
      <trkpt lat="45.97553" lon="4.6361">
        <ele>324.299987793</ele>
        <time>2016-02-26T11:11:43.898Z</time>
      </trkpt>
      <trkpt lat="45.97554" lon="4.63623">
        <ele>323.799987793</ele>
        <time>2016-02-26T11:11:44.873Z</time>
      </trkpt>
      <trkpt lat="45.97554" lon="4.63623">
        <ele>323.799987793</ele>
        <time>2016-02-26T11:11:44.903Z</time>
      </trkpt>
      <trkpt lat="45.97556" lon="4.63636">
        <ele>323.5</ele>
        <time>2016-02-26T11:11:45.871Z</time>
      </trkpt>
      <trkpt lat="45.97556" lon="4.63636">
        <ele>323.5</ele>
        <time>2016-02-26T11:11:45.899Z</time>
      </trkpt>
      <trkpt lat="45.97557" lon="4.63649">
        <ele>323.299987793</ele>
        <time>2016-02-26T11:11:46.869Z</time>
      </trkpt>
      <trkpt lat="45.97557" lon="4.63649">
        <ele>323.299987793</ele>
        <time>2016-02-26T11:11:46.897Z</time>
      </trkpt>
      <trkpt lat="45.97559" lon="4.63662">
        <ele>322.899993896</ele>
        <time>2016-02-26T11:11:47.871Z</time>
      </trkpt>
      <trkpt lat="45.97559" lon="4.63662">
        <ele>322.899993896</ele>
        <time>2016-02-26T11:11:47.893Z</time>
      </trkpt>
      <trkpt lat="45.9756" lon="4.63674">
        <ele>322.399993896</ele>
        <time>2016-02-26T11:11:48.872Z</time>
      </trkpt>
      <trkpt lat="45.97562" lon="4.63687">
        <ele>322</ele>
        <time>2016-02-26T11:11:49.889Z</time>
      </trkpt>
      <trkpt lat="45.97563" lon="4.63699">
        <ele>321.600006104</ele>
        <time>2016-02-26T11:11:50.871Z</time>
      </trkpt>
      <trkpt lat="45.97565" lon="4.63711">
        <ele>321.299987793</ele>
        <time>2016-02-26T11:11:51.889Z</time>
      </trkpt>
      <trkpt lat="45.97567" lon="4.63723">
        <ele>320.799987793</ele>
        <time>2016-02-26T11:11:52.87Z</time>
      </trkpt>
      <trkpt lat="45.97568" lon="4.63735">
        <ele>320.399993896</ele>
        <time>2016-02-26T11:11:53.926Z</time>
      </trkpt>
      <trkpt lat="45.9757" lon="4.63747">
        <ele>319.899993896</ele>
        <time>2016-02-26T11:11:54.878Z</time>
      </trkpt>
      <trkpt lat="45.97572" lon="4.63759">
        <ele>319.399993896</ele>
        <time>2016-02-26T11:11:55.901Z</time>
      </trkpt>
      <trkpt lat="45.97573" lon="4.63771">
        <ele>319</ele>
        <time>2016-02-26T11:11:56.871Z</time>
      </trkpt>
      <trkpt lat="45.97574" lon="4.63783">
        <ele>318.399993896</ele>
        <time>2016-02-26T11:11:57.888Z</time>
      </trkpt>
      <trkpt lat="45.97575" lon="4.63796">
        <ele>317.899993896</ele>
        <time>2016-02-26T11:11:58.87Z</time>
      </trkpt>
      <trkpt lat="45.97575" lon="4.63796">
        <ele>317.899993896</ele>
        <time>2016-02-26T11:11:58.892Z</time>
      </trkpt>
      <trkpt lat="45.97577" lon="4.63809">
        <ele>317.5</ele>
        <time>2016-02-26T11:11:59.869Z</time>
      </trkpt>
      <trkpt lat="45.97577" lon="4.63809">
        <ele>317.5</ele>
        <time>2016-02-26T11:11:59.888Z</time>
      </trkpt>
      <trkpt lat="45.97578" lon="4.63822">
        <ele>317</ele>
        <time>2016-02-26T11:12:00.873Z</time>
      </trkpt>
      <trkpt lat="45.97578" lon="4.63822">
        <ele>317</ele>
        <time>2016-02-26T11:12:00.892Z</time>
      </trkpt>
      <trkpt lat="45.9758" lon="4.63835">
        <ele>316.799987793</ele>
        <time>2016-02-26T11:12:01.871Z</time>
      </trkpt>
      <trkpt lat="45.9758" lon="4.63835">
        <ele>316.799987793</ele>
        <time>2016-02-26T11:12:01.892Z</time>
      </trkpt>
      <trkpt lat="45.97581" lon="4.63848">
        <ele>316.399993896</ele>
        <time>2016-02-26T11:12:02.874Z</time>
      </trkpt>
      <trkpt lat="45.97581" lon="4.63848">
        <ele>316.399993896</ele>
        <time>2016-02-26T11:12:02.894Z</time>
      </trkpt>
      <trkpt lat="45.97582" lon="4.63861">
        <ele>315.899993896</ele>
        <time>2016-02-26T11:12:03.869Z</time>
      </trkpt>
      <trkpt lat="45.97582" lon="4.63861">
        <ele>315.899993896</ele>
        <time>2016-02-26T11:12:03.89Z</time>
      </trkpt>
      <trkpt lat="45.97583" lon="4.63875">
        <ele>315.299987793</ele>
        <time>2016-02-26T11:12:04.887Z</time>
      </trkpt>
      <trkpt lat="45.97583" lon="4.63875">
        <ele>315.299987793</ele>
        <time>2016-02-26T11:12:04.907Z</time>
      </trkpt>
      <trkpt lat="45.97585" lon="4.63888">
        <ele>314.899993896</ele>
        <time>2016-02-26T11:12:05.871Z</time>
      </trkpt>
      <trkpt lat="45.97585" lon="4.63888">
        <ele>314.899993896</ele>
        <time>2016-02-26T11:12:05.892Z</time>
      </trkpt>
      <trkpt lat="45.97587" lon="4.63901">
        <ele>314.600006104</ele>
        <time>2016-02-26T11:12:06.874Z</time>
      </trkpt>
      <trkpt lat="45.97587" lon="4.63901">
        <ele>314.600006104</ele>
        <time>2016-02-26T11:12:06.893Z</time>
      </trkpt>
      <trkpt lat="45.97588" lon="4.63914">
        <ele>314.399993896</ele>
        <time>2016-02-26T11:12:07.869Z</time>
      </trkpt>
      <trkpt lat="45.97588" lon="4.63914">
        <ele>314.399993896</ele>
        <time>2016-02-26T11:12:07.89Z</time>
      </trkpt>
      <trkpt lat="45.97589" lon="4.63927">
        <ele>314.100006104</ele>
        <time>2016-02-26T11:12:08.87Z</time>
      </trkpt>
      <trkpt lat="45.97589" lon="4.63927">
        <ele>314.100006104</ele>
        <time>2016-02-26T11:12:08.892Z</time>
      </trkpt>
      <trkpt lat="45.97591" lon="4.6394">
        <ele>313.399993896</ele>
        <time>2016-02-26T11:12:09.868Z</time>
      </trkpt>
      <trkpt lat="45.97591" lon="4.6394">
        <ele>313.399993896</ele>
        <time>2016-02-26T11:12:09.93Z</time>
      </trkpt>
      <trkpt lat="45.97592" lon="4.63953">
        <ele>313</ele>
        <time>2016-02-26T11:12:10.868Z</time>
      </trkpt>
      <trkpt lat="45.97592" lon="4.63953">
        <ele>313</ele>
        <time>2016-02-26T11:12:10.898Z</time>
      </trkpt>
      <trkpt lat="45.97594" lon="4.63966">
        <ele>312.299987793</ele>
        <time>2016-02-26T11:12:11.869Z</time>
      </trkpt>
      <trkpt lat="45.97595" lon="4.63978">
        <ele>311.799987793</ele>
        <time>2016-02-26T11:12:12.89Z</time>
      </trkpt>
      <trkpt lat="45.97596" lon="4.63991">
        <ele>311.399993896</ele>
        <time>2016-02-26T11:12:13.894Z</time>
      </trkpt>
      <trkpt lat="45.97597" lon="4.64003">
        <ele>310.799987793</ele>
        <time>2016-02-26T11:12:14.888Z</time>
      </trkpt>
      <trkpt lat="45.97599" lon="4.64016">
        <ele>310.100006104</ele>
        <time>2016-02-26T11:12:15.869Z</time>
      </trkpt>
      <trkpt lat="45.976" lon="4.64028">
        <ele>309.700012207</ele>
        <time>2016-02-26T11:12:16.888Z</time>
      </trkpt>
      <trkpt lat="45.97602" lon="4.6404">
        <ele>309</ele>
        <time>2016-02-26T11:12:17.871Z</time>
      </trkpt>
      <trkpt lat="45.97603" lon="4.64053">
        <ele>308.799987793</ele>
        <time>2016-02-26T11:12:18.89Z</time>
      </trkpt>
      <trkpt lat="45.97605" lon="4.64064">
        <ele>308.600006104</ele>
        <time>2016-02-26T11:12:19.867Z</time>
      </trkpt>
      <trkpt lat="45.97606" lon="4.64077">
        <ele>308.399993896</ele>
        <time>2016-02-26T11:12:20.893Z</time>
      </trkpt>
      <trkpt lat="45.97607" lon="4.64089">
        <ele>308.100006104</ele>
        <time>2016-02-26T11:12:21.867Z</time>
      </trkpt>
      <trkpt lat="45.97609" lon="4.64101">
        <ele>307.799987793</ele>
        <time>2016-02-26T11:12:22.887Z</time>
      </trkpt>
      <trkpt lat="45.9761" lon="4.64113">
        <ele>307.399993896</ele>
        <time>2016-02-26T11:12:23.869Z</time>
      </trkpt>
      <trkpt lat="45.97612" lon="4.64125">
        <ele>307.100006104</ele>
        <time>2016-02-26T11:12:24.892Z</time>
      </trkpt>
      <trkpt lat="45.97613" lon="4.64137">
        <ele>306.799987793</ele>
        <time>2016-02-26T11:12:25.869Z</time>
      </trkpt>
      <trkpt lat="45.97614" lon="4.64149">
        <ele>306.700012207</ele>
        <time>2016-02-26T11:12:26.895Z</time>
      </trkpt>
      <trkpt lat="45.97616" lon="4.64161">
        <ele>306.399993896</ele>
        <time>2016-02-26T11:12:27.869Z</time>
      </trkpt>
      <trkpt lat="45.97617" lon="4.64173">
        <ele>306.100006104</ele>
        <time>2016-02-26T11:12:28.928Z</time>
      </trkpt>
      <trkpt lat="45.97618" lon="4.64185">
        <ele>306</ele>
        <time>2016-02-26T11:12:29.869Z</time>
      </trkpt>
      <trkpt lat="45.97619" lon="4.64198">
        <ele>305.600006104</ele>
        <time>2016-02-26T11:12:30.94Z</time>
      </trkpt>
      <trkpt lat="45.97621" lon="4.6421">
        <ele>305.299987793</ele>
        <time>2016-02-26T11:12:31.869Z</time>
      </trkpt>
      <trkpt lat="45.97622" lon="4.64223">
        <ele>305</ele>
        <time>2016-02-26T11:12:32.888Z</time>
      </trkpt>
      <trkpt lat="45.97624" lon="4.64235">
        <ele>304.5</ele>
        <time>2016-02-26T11:12:33.866Z</time>
      </trkpt>
      <trkpt lat="45.97625" lon="4.64248">
        <ele>304.100006104</ele>
        <time>2016-02-26T11:12:34.886Z</time>
      </trkpt>
      <trkpt lat="45.97627" lon="4.6426">
        <ele>304</ele>
        <time>2016-02-26T11:12:35.866Z</time>
      </trkpt>
      <trkpt lat="45.97628" lon="4.64272">
        <ele>303.600006104</ele>
        <time>2016-02-26T11:12:36.898Z</time>
      </trkpt>
      <trkpt lat="45.97629" lon="4.64284">
        <ele>303.200012207</ele>
        <time>2016-02-26T11:12:37.869Z</time>
      </trkpt>
      <trkpt lat="45.9763" lon="4.64297">
        <ele>302.799987793</ele>
        <time>2016-02-26T11:12:38.896Z</time>
      </trkpt>
      <trkpt lat="45.97632" lon="4.64308">
        <ele>302.700012207</ele>
        <time>2016-02-26T11:12:39.872Z</time>
      </trkpt>
      <trkpt lat="45.97633" lon="4.6432">
        <ele>302.200012207</ele>
        <time>2016-02-26T11:12:40.887Z</time>
      </trkpt>
      <trkpt lat="45.97634" lon="4.64332">
        <ele>301.899993896</ele>
        <time>2016-02-26T11:12:41.866Z</time>
      </trkpt>
      <trkpt lat="45.97636" lon="4.64344">
        <ele>301.299987793</ele>
        <time>2016-02-26T11:12:42.89Z</time>
      </trkpt>
      <trkpt lat="45.97637" lon="4.64355">
        <ele>300.899993896</ele>
        <time>2016-02-26T11:12:43.869Z</time>
      </trkpt>
      <trkpt lat="45.97639" lon="4.64368">
        <ele>300.399993896</ele>
        <time>2016-02-26T11:12:44.888Z</time>
      </trkpt>
      <trkpt lat="45.9764" lon="4.64379">
        <ele>299.799987793</ele>
        <time>2016-02-26T11:12:45.869Z</time>
      </trkpt>
      <trkpt lat="45.97641" lon="4.64391">
        <ele>299.299987793</ele>
        <time>2016-02-26T11:12:46.89Z</time>
      </trkpt>
      <trkpt lat="45.97643" lon="4.64403">
        <ele>298.899993896</ele>
        <time>2016-02-26T11:12:47.868Z</time>
      </trkpt>
      <trkpt lat="45.97644" lon="4.64414">
        <ele>298.299987793</ele>
        <time>2016-02-26T11:12:48.89Z</time>
      </trkpt>
      <trkpt lat="45.97645" lon="4.64426">
        <ele>298</ele>
        <time>2016-02-26T11:12:49.858Z</time>
      </trkpt>
      <trkpt lat="45.97646" lon="4.64437">
        <ele>297.899993896</ele>
        <time>2016-02-26T11:12:50.888Z</time>
      </trkpt>
      <trkpt lat="45.97648" lon="4.64449">
        <ele>297.600006104</ele>
        <time>2016-02-26T11:12:51.868Z</time>
      </trkpt>
      <trkpt lat="45.97649" lon="4.6446">
        <ele>297.200012207</ele>
        <time>2016-02-26T11:12:52.887Z</time>
      </trkpt>
      <trkpt lat="45.9765" lon="4.64472">
        <ele>296.700012207</ele>
        <time>2016-02-26T11:12:53.866Z</time>
      </trkpt>
      <trkpt lat="45.97652" lon="4.64483">
        <ele>296.5</ele>
        <time>2016-02-26T11:12:54.889Z</time>
      </trkpt>
      <trkpt lat="45.97653" lon="4.64495">
        <ele>296</ele>
        <time>2016-02-26T11:12:55.869Z</time>
      </trkpt>
      <trkpt lat="45.97655" lon="4.64507">
        <ele>295.600006104</ele>
        <time>2016-02-26T11:12:56.888Z</time>
      </trkpt>
      <trkpt lat="45.97656" lon="4.64519">
        <ele>295.100006104</ele>
        <time>2016-02-26T11:12:57.869Z</time>
      </trkpt>
      <trkpt lat="45.97657" lon="4.64531">
        <ele>294.700012207</ele>
        <time>2016-02-26T11:12:58.916Z</time>
      </trkpt>
      <trkpt lat="45.97659" lon="4.64543">
        <ele>294.399993896</ele>
        <time>2016-02-26T11:12:59.87Z</time>
      </trkpt>
      <trkpt lat="45.9766" lon="4.64555">
        <ele>294.100006104</ele>
        <time>2016-02-26T11:13:00.892Z</time>
      </trkpt>
      <trkpt lat="45.97661" lon="4.64567">
        <ele>293.700012207</ele>
        <time>2016-02-26T11:13:01.918Z</time>
      </trkpt>
      <trkpt lat="45.97663" lon="4.64579">
        <ele>293.5</ele>
        <time>2016-02-26T11:13:02.889Z</time>
      </trkpt>
      <trkpt lat="45.97664" lon="4.64592">
        <ele>293.100006104</ele>
        <time>2016-02-26T11:13:03.869Z</time>
      </trkpt>
      <trkpt lat="45.97666" lon="4.64604">
        <ele>292.799987793</ele>
        <time>2016-02-26T11:13:04.887Z</time>
      </trkpt>
      <trkpt lat="45.97667" lon="4.64617">
        <ele>292.399993896</ele>
        <time>2016-02-26T11:13:05.871Z</time>
      </trkpt>
      <trkpt lat="45.97668" lon="4.64629">
        <ele>292.100006104</ele>
        <time>2016-02-26T11:13:06.928Z</time>
      </trkpt>
      <trkpt lat="45.97669" lon="4.64641">
        <ele>291.799987793</ele>
        <time>2016-02-26T11:13:07.868Z</time>
      </trkpt>
      <trkpt lat="45.97671" lon="4.64653">
        <ele>291.399993896</ele>
        <time>2016-02-26T11:13:08.902Z</time>
      </trkpt>
      <trkpt lat="45.97672" lon="4.64666">
        <ele>290.600006104</ele>
        <time>2016-02-26T11:13:09.866Z</time>
      </trkpt>
      <trkpt lat="45.97673" lon="4.64678">
        <ele>290.100006104</ele>
        <time>2016-02-26T11:13:10.887Z</time>
      </trkpt>
      <trkpt lat="45.97675" lon="4.64691">
        <ele>289.700012207</ele>
        <time>2016-02-26T11:13:11.866Z</time>
      </trkpt>
      <trkpt lat="45.97676" lon="4.64704">
        <ele>289.5</ele>
        <time>2016-02-26T11:13:12.896Z</time>
      </trkpt>
      <trkpt lat="45.97677" lon="4.64717">
        <ele>289.100006104</ele>
        <time>2016-02-26T11:13:13.869Z</time>
      </trkpt>
      <trkpt lat="45.97678" lon="4.64729">
        <ele>288.399993896</ele>
        <time>2016-02-26T11:13:14.888Z</time>
      </trkpt>
      <trkpt lat="45.9768" lon="4.64741">
        <ele>287.799987793</ele>
        <time>2016-02-26T11:13:15.869Z</time>
      </trkpt>
      <trkpt lat="45.97682" lon="4.64753">
        <ele>287</ele>
        <time>2016-02-26T11:13:16.887Z</time>
      </trkpt>
      <trkpt lat="45.97684" lon="4.64765">
        <ele>286.899993896</ele>
        <time>2016-02-26T11:13:18.003Z</time>
      </trkpt>
      <trkpt lat="45.97685" lon="4.64777">
        <ele>286.5</ele>
        <time>2016-02-26T11:13:18.889Z</time>
      </trkpt>
      <trkpt lat="45.97686" lon="4.64789">
        <ele>286.200012207</ele>
        <time>2016-02-26T11:13:19.866Z</time>
      </trkpt>
      <trkpt lat="45.97688" lon="4.648">
        <ele>285.700012207</ele>
        <time>2016-02-26T11:13:20.89Z</time>
      </trkpt>
      <trkpt lat="45.97689" lon="4.64812">
        <ele>285.200012207</ele>
        <time>2016-02-26T11:13:21.866Z</time>
      </trkpt>
      <trkpt lat="45.97691" lon="4.64824">
        <ele>284.600006104</ele>
        <time>2016-02-26T11:13:22.887Z</time>
      </trkpt>
      <trkpt lat="45.97692" lon="4.64835">
        <ele>283.799987793</ele>
        <time>2016-02-26T11:13:23.866Z</time>
      </trkpt>
      <trkpt lat="45.97693" lon="4.64847">
        <ele>283.799987793</ele>
        <time>2016-02-26T11:13:24.901Z</time>
      </trkpt>
      <trkpt lat="45.97695" lon="4.64858">
        <ele>283.5</ele>
        <time>2016-02-26T11:13:25.869Z</time>
      </trkpt>
      <trkpt lat="45.97696" lon="4.64869">
        <ele>283</ele>
        <time>2016-02-26T11:13:26.948Z</time>
      </trkpt>
      <trkpt lat="45.97697" lon="4.64881">
        <ele>282.700012207</ele>
        <time>2016-02-26T11:13:27.889Z</time>
      </trkpt>
      <trkpt lat="45.97698" lon="4.64893">
        <ele>282.399993896</ele>
        <time>2016-02-26T11:13:28.919Z</time>
      </trkpt>
      <trkpt lat="45.97699" lon="4.64904">
        <ele>282.200012207</ele>
        <time>2016-02-26T11:13:29.87Z</time>
      </trkpt>
      <trkpt lat="45.977" lon="4.64916">
        <ele>281.799987793</ele>
        <time>2016-02-26T11:13:30.89Z</time>
      </trkpt>
      <trkpt lat="45.97702" lon="4.64927">
        <ele>281.5</ele>
        <time>2016-02-26T11:13:31.867Z</time>
      </trkpt>
      <trkpt lat="45.97703" lon="4.64939">
        <ele>281.299987793</ele>
        <time>2016-02-26T11:13:32.905Z</time>
      </trkpt>
      <trkpt lat="45.97704" lon="4.64951">
        <ele>281.200012207</ele>
        <time>2016-02-26T11:13:33.867Z</time>
      </trkpt>
      <trkpt lat="45.97706" lon="4.64962">
        <ele>281.200012207</ele>
        <time>2016-02-26T11:13:34.887Z</time>
      </trkpt>
      <trkpt lat="45.97707" lon="4.64974">
        <ele>281</ele>
        <time>2016-02-26T11:13:35.87Z</time>
      </trkpt>
      <trkpt lat="45.97708" lon="4.64985">
        <ele>280.799987793</ele>
        <time>2016-02-26T11:13:36.89Z</time>
      </trkpt>
      <trkpt lat="45.9771" lon="4.64996">
        <ele>280.200012207</ele>
        <time>2016-02-26T11:13:37.87Z</time>
      </trkpt>
      <trkpt lat="45.97711" lon="4.65007">
        <ele>279.700012207</ele>
        <time>2016-02-26T11:13:38.893Z</time>
      </trkpt>
      <trkpt lat="45.97712" lon="4.65016">
        <ele>279.399993896</ele>
        <time>2016-02-26T11:13:39.866Z</time>
      </trkpt>
      <trkpt lat="45.97712" lon="4.65024">
        <ele>279.100006104</ele>
        <time>2016-02-26T11:13:40.886Z</time>
      </trkpt>
      <trkpt lat="45.97712" lon="4.65031">
        <ele>279.100006104</ele>
        <time>2016-02-26T11:13:41.87Z</time>
      </trkpt>
      <trkpt lat="45.97712" lon="4.65039">
        <ele>279.100006104</ele>
        <time>2016-02-26T11:13:42.892Z</time>
      </trkpt>
      <trkpt lat="45.97713" lon="4.65047">
        <ele>279.100006104</ele>
        <time>2016-02-26T11:13:43.87Z</time>
      </trkpt>
      <trkpt lat="45.97714" lon="4.65055">
        <ele>279</ele>
        <time>2016-02-26T11:13:44.887Z</time>
      </trkpt>
      <trkpt lat="45.97717" lon="4.65062">
        <ele>278.799987793</ele>
        <time>2016-02-26T11:13:45.87Z</time>
      </trkpt>
      <trkpt lat="45.97719" lon="4.6507">
        <ele>278.700012207</ele>
        <time>2016-02-26T11:13:46.887Z</time>
      </trkpt>
      <trkpt lat="45.97721" lon="4.65078">
        <ele>279.100006104</ele>
        <time>2016-02-26T11:13:47.87Z</time>
      </trkpt>
      <trkpt lat="45.97722" lon="4.65086">
        <ele>279.600006104</ele>
        <time>2016-02-26T11:13:48.907Z</time>
      </trkpt>
      <trkpt lat="45.97723" lon="4.65095">
        <ele>279.799987793</ele>
        <time>2016-02-26T11:13:49.866Z</time>
      </trkpt>
      <trkpt lat="45.97724" lon="4.65104">
        <ele>280.200012207</ele>
        <time>2016-02-26T11:13:50.89Z</time>
      </trkpt>
      <trkpt lat="45.97725" lon="4.65113">
        <ele>280.799987793</ele>
        <time>2016-02-26T11:13:51.871Z</time>
      </trkpt>
      <trkpt lat="45.97726" lon="4.65122">
        <ele>280.700012207</ele>
        <time>2016-02-26T11:13:52.889Z</time>
      </trkpt>
      <trkpt lat="45.97727" lon="4.65131">
        <ele>281.100006104</ele>
        <time>2016-02-26T11:13:53.868Z</time>
      </trkpt>
      <trkpt lat="45.97727" lon="4.65139">
        <ele>281.399993896</ele>
        <time>2016-02-26T11:13:54.89Z</time>
      </trkpt>
      <trkpt lat="45.97728" lon="4.65148">
        <ele>281.399993896</ele>
        <time>2016-02-26T11:13:55.87Z</time>
      </trkpt>
      <trkpt lat="45.97729" lon="4.65156">
        <ele>281.5</ele>
        <time>2016-02-26T11:13:56.888Z</time>
      </trkpt>
      <trkpt lat="45.9773" lon="4.65165">
        <ele>281.399993896</ele>
        <time>2016-02-26T11:13:57.868Z</time>
      </trkpt>
      <trkpt lat="45.9773" lon="4.65173">
        <ele>281.5</ele>
        <time>2016-02-26T11:13:58.887Z</time>
      </trkpt>
      <trkpt lat="45.9773" lon="4.65182">
        <ele>281.100006104</ele>
        <time>2016-02-26T11:13:59.869Z</time>
      </trkpt>
      <trkpt lat="45.9773" lon="4.6519">
        <ele>281.399993896</ele>
        <time>2016-02-26T11:14:00.892Z</time>
      </trkpt>
      <trkpt lat="45.97731" lon="4.65199">
        <ele>281.700012207</ele>
        <time>2016-02-26T11:14:01.929Z</time>
      </trkpt>
      <trkpt lat="45.97731" lon="4.65208">
        <ele>282.100006104</ele>
        <time>2016-02-26T11:14:02.899Z</time>
      </trkpt>
      <trkpt lat="45.97732" lon="4.65217">
        <ele>282.100006104</ele>
        <time>2016-02-26T11:14:03.866Z</time>
      </trkpt>
      <trkpt lat="45.97733" lon="4.65226">
        <ele>282.100006104</ele>
        <time>2016-02-26T11:14:04.926Z</time>
      </trkpt>
      <trkpt lat="45.97733" lon="4.65235">
        <ele>282</ele>
        <time>2016-02-26T11:14:05.869Z</time>
      </trkpt>
      <trkpt lat="45.97735" lon="4.65244">
        <ele>281.899993896</ele>
        <time>2016-02-26T11:14:06.889Z</time>
      </trkpt>
      <trkpt lat="45.97736" lon="4.65254">
        <ele>282</ele>
        <time>2016-02-26T11:14:07.866Z</time>
      </trkpt>
      <trkpt lat="45.97737" lon="4.65263">
        <ele>282.100006104</ele>
        <time>2016-02-26T11:14:08.887Z</time>
      </trkpt>
      <trkpt lat="45.97738" lon="4.65272">
        <ele>282.100006104</ele>
        <time>2016-02-26T11:14:09.866Z</time>
      </trkpt>
      <trkpt lat="45.97739" lon="4.6528">
        <ele>281.899993896</ele>
        <time>2016-02-26T11:14:10.886Z</time>
      </trkpt>
      <trkpt lat="45.9774" lon="4.65289">
        <ele>281.700012207</ele>
        <time>2016-02-26T11:14:11.866Z</time>
      </trkpt>
      <trkpt lat="45.97742" lon="4.65297">
        <ele>281.799987793</ele>
        <time>2016-02-26T11:14:12.89Z</time>
      </trkpt>
      <trkpt lat="45.97744" lon="4.65305">
        <ele>281.799987793</ele>
        <time>2016-02-26T11:14:13.866Z</time>
      </trkpt>
      <trkpt lat="45.97746" lon="4.65312">
        <ele>281.799987793</ele>
        <time>2016-02-26T11:14:14.967Z</time>
      </trkpt>
      <trkpt lat="45.97748" lon="4.6532">
        <ele>281.799987793</ele>
        <time>2016-02-26T11:14:15.869Z</time>
      </trkpt>
      <trkpt lat="45.97751" lon="4.65328">
        <ele>281.799987793</ele>
        <time>2016-02-26T11:14:16.887Z</time>
      </trkpt>
      <trkpt lat="45.97754" lon="4.65336">
        <ele>281.899993896</ele>
        <time>2016-02-26T11:14:17.868Z</time>
      </trkpt>
      <trkpt lat="45.97756" lon="4.65343">
        <ele>281.700012207</ele>
        <time>2016-02-26T11:14:18.89Z</time>
      </trkpt>
      <trkpt lat="45.97759" lon="4.65351">
        <ele>281.5</ele>
        <time>2016-02-26T11:14:19.866Z</time>
      </trkpt>
      <trkpt lat="45.97762" lon="4.65359">
        <ele>281.399993896</ele>
        <time>2016-02-26T11:14:20.887Z</time>
      </trkpt>
      <trkpt lat="45.97765" lon="4.65367">
        <ele>281</ele>
        <time>2016-02-26T11:14:21.866Z</time>
      </trkpt>
      <trkpt lat="45.97768" lon="4.65375">
        <ele>280.799987793</ele>
        <time>2016-02-26T11:14:22.887Z</time>
      </trkpt>
      <trkpt lat="45.97771" lon="4.65383">
        <ele>280.299987793</ele>
        <time>2016-02-26T11:14:23.866Z</time>
      </trkpt>
      <trkpt lat="45.97774" lon="4.65391">
        <ele>280</ele>
        <time>2016-02-26T11:14:24.891Z</time>
      </trkpt>
      <trkpt lat="45.97777" lon="4.65399">
        <ele>279.799987793</ele>
        <time>2016-02-26T11:14:25.866Z</time>
      </trkpt>
      <trkpt lat="45.97779" lon="4.65407">
        <ele>279.600006104</ele>
        <time>2016-02-26T11:14:26.939Z</time>
      </trkpt>
      <trkpt lat="45.97782" lon="4.65415">
        <ele>279.5</ele>
        <time>2016-02-26T11:14:27.87Z</time>
      </trkpt>
      <trkpt lat="45.97785" lon="4.65422">
        <ele>279.399993896</ele>
        <time>2016-02-26T11:14:28.927Z</time>
      </trkpt>
      <trkpt lat="45.97787" lon="4.65429">
        <ele>279.399993896</ele>
        <time>2016-02-26T11:14:29.869Z</time>
      </trkpt>
      <trkpt lat="45.97789" lon="4.65436">
        <ele>279.399993896</ele>
        <time>2016-02-26T11:14:30.912Z</time>
      </trkpt>
      <trkpt lat="45.97792" lon="4.65443">
        <ele>279.299987793</ele>
        <time>2016-02-26T11:14:31.868Z</time>
      </trkpt>
      <trkpt lat="45.97794" lon="4.6545">
        <ele>279.200012207</ele>
        <time>2016-02-26T11:14:32.888Z</time>
      </trkpt>
      <trkpt lat="45.97797" lon="4.65457">
        <ele>279.100006104</ele>
        <time>2016-02-26T11:14:33.866Z</time>
      </trkpt>
      <trkpt lat="45.978" lon="4.65464">
        <ele>279.100006104</ele>
        <time>2016-02-26T11:14:34.886Z</time>
      </trkpt>
      <trkpt lat="45.97802" lon="4.65471">
        <ele>279</ele>
        <time>2016-02-26T11:14:35.905Z</time>
      </trkpt>
      <trkpt lat="45.97805" lon="4.65479">
        <ele>279</ele>
        <time>2016-02-26T11:14:36.89Z</time>
      </trkpt>
      <trkpt lat="45.97808" lon="4.65487">
        <ele>278.899993896</ele>
        <time>2016-02-26T11:14:37.87Z</time>
      </trkpt>
      <trkpt lat="45.9781" lon="4.65494">
        <ele>278.799987793</ele>
        <time>2016-02-26T11:14:38.887Z</time>
      </trkpt>
      <trkpt lat="45.97812" lon="4.65502">
        <ele>278.700012207</ele>
        <time>2016-02-26T11:14:39.87Z</time>
      </trkpt>
      <trkpt lat="45.97814" lon="4.65511">
        <ele>278.600006104</ele>
        <time>2016-02-26T11:14:40.885Z</time>
      </trkpt>
      <trkpt lat="45.97816" lon="4.65519">
        <ele>278.5</ele>
        <time>2016-02-26T11:14:41.866Z</time>
      </trkpt>
      <trkpt lat="45.97818" lon="4.65528">
        <ele>278.399993896</ele>
        <time>2016-02-26T11:14:42.892Z</time>
      </trkpt>
      <trkpt lat="45.9782" lon="4.65536">
        <ele>278.200012207</ele>
        <time>2016-02-26T11:14:43.894Z</time>
      </trkpt>
      <trkpt lat="45.97822" lon="4.65545">
        <ele>278.100006104</ele>
        <time>2016-02-26T11:14:44.89Z</time>
      </trkpt>
      <trkpt lat="45.97824" lon="4.65553">
        <ele>278.100006104</ele>
        <time>2016-02-26T11:14:45.867Z</time>
      </trkpt>
      <trkpt lat="45.97826" lon="4.65562">
        <ele>278</ele>
        <time>2016-02-26T11:14:46.897Z</time>
      </trkpt>
      <trkpt lat="45.97827" lon="4.6557">
        <ele>278</ele>
        <time>2016-02-26T11:14:47.868Z</time>
      </trkpt>
      <trkpt lat="45.97829" lon="4.65579">
        <ele>278.100006104</ele>
        <time>2016-02-26T11:14:48.889Z</time>
      </trkpt>
      <trkpt lat="45.97831" lon="4.65587">
        <ele>278.100006104</ele>
        <time>2016-02-26T11:14:49.865Z</time>
      </trkpt>
      <trkpt lat="45.97833" lon="4.65596">
        <ele>278.100006104</ele>
        <time>2016-02-26T11:14:50.886Z</time>
      </trkpt>
      <trkpt lat="45.97835" lon="4.65604">
        <ele>278</ele>
        <time>2016-02-26T11:14:51.868Z</time>
      </trkpt>
      <trkpt lat="45.97837" lon="4.65612">
        <ele>277.899993896</ele>
        <time>2016-02-26T11:14:52.887Z</time>
      </trkpt>
      <trkpt lat="45.97839" lon="4.65619">
        <ele>277.899993896</ele>
        <time>2016-02-26T11:14:53.868Z</time>
      </trkpt>
      <trkpt lat="45.97841" lon="4.65627">
        <ele>277.799987793</ele>
        <time>2016-02-26T11:14:54.889Z</time>
      </trkpt>
      <trkpt lat="45.97844" lon="4.65635">
        <ele>277.700012207</ele>
        <time>2016-02-26T11:14:55.869Z</time>
      </trkpt>
      <trkpt lat="45.97847" lon="4.65643">
        <ele>277.600006104</ele>
        <time>2016-02-26T11:14:56.916Z</time>
      </trkpt>
      <trkpt lat="45.97849" lon="4.65651">
        <ele>277.600006104</ele>
        <time>2016-02-26T11:14:57.866Z</time>
      </trkpt>
      <trkpt lat="45.97851" lon="4.65659">
        <ele>277.799987793</ele>
        <time>2016-02-26T11:14:58.896Z</time>
      </trkpt>
      <trkpt lat="45.97853" lon="4.65668">
        <ele>277.700012207</ele>
        <time>2016-02-26T11:14:59.866Z</time>
      </trkpt>
      <trkpt lat="45.97855" lon="4.65676">
        <ele>278</ele>
        <time>2016-02-26T11:15:00.925Z</time>
      </trkpt>
      <trkpt lat="45.97858" lon="4.65685">
        <ele>278</ele>
        <time>2016-02-26T11:15:01.866Z</time>
      </trkpt>
      <trkpt lat="45.97861" lon="4.65693">
        <ele>278.200012207</ele>
        <time>2016-02-26T11:15:02.948Z</time>
      </trkpt>
      <trkpt lat="45.97863" lon="4.65702">
        <ele>278</ele>
        <time>2016-02-26T11:15:03.868Z</time>
      </trkpt>
      <trkpt lat="45.97866" lon="4.6571">
        <ele>277.899993896</ele>
        <time>2016-02-26T11:15:04.886Z</time>
      </trkpt>
      <trkpt lat="45.97869" lon="4.65719">
        <ele>277.799987793</ele>
        <time>2016-02-26T11:15:05.868Z</time>
      </trkpt>
      <trkpt lat="45.97871" lon="4.65727">
        <ele>277.700012207</ele>
        <time>2016-02-26T11:15:06.891Z</time>
      </trkpt>
      <trkpt lat="45.97874" lon="4.65735">
        <ele>277.5</ele>
        <time>2016-02-26T11:15:07.868Z</time>
      </trkpt>
      <trkpt lat="45.97876" lon="4.65743">
        <ele>277.399993896</ele>
        <time>2016-02-26T11:15:08.888Z</time>
      </trkpt>
      <trkpt lat="45.97879" lon="4.65751">
        <ele>277.299987793</ele>
        <time>2016-02-26T11:15:09.866Z</time>
      </trkpt>
      <trkpt lat="45.97881" lon="4.65759">
        <ele>277.200012207</ele>
        <time>2016-02-26T11:15:10.886Z</time>
      </trkpt>
      <trkpt lat="45.97883" lon="4.65766">
        <ele>277.100006104</ele>
        <time>2016-02-26T11:15:11.866Z</time>
      </trkpt>
      <trkpt lat="45.97885" lon="4.65774">
        <ele>277</ele>
        <time>2016-02-26T11:15:12.891Z</time>
      </trkpt>
      <trkpt lat="45.97888" lon="4.65782">
        <ele>276.799987793</ele>
        <time>2016-02-26T11:15:13.865Z</time>
      </trkpt>
      <trkpt lat="45.9789" lon="4.6579">
        <ele>276.5</ele>
        <time>2016-02-26T11:15:14.887Z</time>
      </trkpt>
      <trkpt lat="45.97893" lon="4.65797">
        <ele>276.399993896</ele>
        <time>2016-02-26T11:15:15.869Z</time>
      </trkpt>
      <trkpt lat="45.97895" lon="4.65805">
        <ele>276.399993896</ele>
        <time>2016-02-26T11:15:16.886Z</time>
      </trkpt>
      <trkpt lat="45.97898" lon="4.65813">
        <ele>276.299987793</ele>
        <time>2016-02-26T11:15:17.912Z</time>
      </trkpt>
      <trkpt lat="45.97901" lon="4.65821">
        <ele>276.200012207</ele>
        <time>2016-02-26T11:15:19.052Z</time>
      </trkpt>
      <trkpt lat="45.97904" lon="4.65829">
        <ele>275.899993896</ele>
        <time>2016-02-26T11:15:19.903Z</time>
      </trkpt>
      <trkpt lat="45.97907" lon="4.65837">
        <ele>275.600006104</ele>
        <time>2016-02-26T11:15:20.925Z</time>
      </trkpt>
      <trkpt lat="45.9791" lon="4.65846">
        <ele>275.299987793</ele>
        <time>2016-02-26T11:15:21.87Z</time>
      </trkpt>
      <trkpt lat="45.97913" lon="4.65855">
        <ele>275.200012207</ele>
        <time>2016-02-26T11:15:22.905Z</time>
      </trkpt>
      <trkpt lat="45.97916" lon="4.65863">
        <ele>275.100006104</ele>
        <time>2016-02-26T11:15:23.866Z</time>
      </trkpt>
      <trkpt lat="45.97918" lon="4.65872">
        <ele>274.799987793</ele>
        <time>2016-02-26T11:15:24.891Z</time>
      </trkpt>
      <trkpt lat="45.97921" lon="4.65881">
        <ele>274.399993896</ele>
        <time>2016-02-26T11:15:25.868Z</time>
      </trkpt>
      <trkpt lat="45.97923" lon="4.6589">
        <ele>274.200012207</ele>
        <time>2016-02-26T11:15:26.887Z</time>
      </trkpt>
      <trkpt lat="45.97925" lon="4.659">
        <ele>273.600006104</ele>
        <time>2016-02-26T11:15:27.868Z</time>
      </trkpt>
      <trkpt lat="45.97926" lon="4.65909">
        <ele>273.600006104</ele>
        <time>2016-02-26T11:15:28.93Z</time>
      </trkpt>
      <trkpt lat="45.97927" lon="4.65919">
        <ele>273.100006104</ele>
        <time>2016-02-26T11:15:29.867Z</time>
      </trkpt>
      <trkpt lat="45.97927" lon="4.65928">
        <ele>272.5</ele>
        <time>2016-02-26T11:15:30.889Z</time>
      </trkpt>
      <trkpt lat="45.97928" lon="4.65938">
        <ele>272.600006104</ele>
        <time>2016-02-26T11:15:31.866Z</time>
      </trkpt>
      <trkpt lat="45.97928" lon="4.65947">
        <ele>272.200012207</ele>
        <time>2016-02-26T11:15:32.889Z</time>
      </trkpt>
      <trkpt lat="45.97928" lon="4.65957">
        <ele>271.799987793</ele>
        <time>2016-02-26T11:15:33.865Z</time>
      </trkpt>
      <trkpt lat="45.97928" lon="4.65967">
        <ele>271.700012207</ele>
        <time>2016-02-26T11:15:34.885Z</time>
      </trkpt>
      <trkpt lat="45.97929" lon="4.65977">
        <ele>271.299987793</ele>
        <time>2016-02-26T11:15:35.868Z</time>
      </trkpt>
      <trkpt lat="45.97929" lon="4.65987">
        <ele>271.100006104</ele>
        <time>2016-02-26T11:15:36.953Z</time>
      </trkpt>
      <trkpt lat="45.97929" lon="4.65997">
        <ele>271.299987793</ele>
        <time>2016-02-26T11:15:37.868Z</time>
      </trkpt>
      <trkpt lat="45.97929" lon="4.66007">
        <ele>270.200012207</ele>
        <time>2016-02-26T11:15:38.941Z</time>
      </trkpt>
      <trkpt lat="45.97928" lon="4.66017">
        <ele>270.399993896</ele>
        <time>2016-02-26T11:15:39.868Z</time>
      </trkpt>
      <trkpt lat="45.97928" lon="4.66028">
        <ele>270.200012207</ele>
        <time>2016-02-26T11:15:40.888Z</time>
      </trkpt>
      <trkpt lat="45.97927" lon="4.66039">
        <ele>270.399993896</ele>
        <time>2016-02-26T11:15:41.866Z</time>
      </trkpt>
      <trkpt lat="45.97927" lon="4.66049">
        <ele>270.299987793</ele>
        <time>2016-02-26T11:15:42.895Z</time>
      </trkpt>
      <trkpt lat="45.97926" lon="4.6606">
        <ele>270.200012207</ele>
        <time>2016-02-26T11:15:43.866Z</time>
      </trkpt>
      <trkpt lat="45.97926" lon="4.6607">
        <ele>270.200012207</ele>
        <time>2016-02-26T11:15:44.887Z</time>
      </trkpt>
      <trkpt lat="45.97927" lon="4.66081">
        <ele>270.100006104</ele>
        <time>2016-02-26T11:15:45.866Z</time>
      </trkpt>
      <trkpt lat="45.97927" lon="4.66091">
        <ele>270.100006104</ele>
        <time>2016-02-26T11:15:46.888Z</time>
      </trkpt>
      <trkpt lat="45.97929" lon="4.66102">
        <ele>270.299987793</ele>
        <time>2016-02-26T11:15:47.869Z</time>
      </trkpt>
      <trkpt lat="45.9793" lon="4.66112">
        <ele>270.200012207</ele>
        <time>2016-02-26T11:15:48.895Z</time>
      </trkpt>
      <trkpt lat="45.97932" lon="4.66121">
        <ele>270.299987793</ele>
        <time>2016-02-26T11:15:49.868Z</time>
      </trkpt>
      <trkpt lat="45.97934" lon="4.66131">
        <ele>270.200012207</ele>
        <time>2016-02-26T11:15:50.887Z</time>
      </trkpt>
      <trkpt lat="45.97936" lon="4.66141">
        <ele>270.200012207</ele>
        <time>2016-02-26T11:15:51.865Z</time>
      </trkpt>
      <trkpt lat="45.97939" lon="4.66151">
        <ele>270.200012207</ele>
        <time>2016-02-26T11:15:52.886Z</time>
      </trkpt>
      <trkpt lat="45.97941" lon="4.6616">
        <ele>270.299987793</ele>
        <time>2016-02-26T11:15:53.866Z</time>
      </trkpt>
      <trkpt lat="45.97943" lon="4.6617">
        <ele>270.200012207</ele>
        <time>2016-02-26T11:15:54.907Z</time>
      </trkpt>
      <trkpt lat="45.97945" lon="4.66179">
        <ele>270.100006104</ele>
        <time>2016-02-26T11:15:55.866Z</time>
      </trkpt>
      <trkpt lat="45.97947" lon="4.66188">
        <ele>269.899993896</ele>
        <time>2016-02-26T11:15:56.886Z</time>
      </trkpt>
      <trkpt lat="45.97948" lon="4.66197">
        <ele>269.899993896</ele>
        <time>2016-02-26T11:15:57.87Z</time>
      </trkpt>
      <trkpt lat="45.9795" lon="4.66205">
        <ele>269.899993896</ele>
        <time>2016-02-26T11:15:58.906Z</time>
      </trkpt>
      <trkpt lat="45.97952" lon="4.66214">
        <ele>270</ele>
        <time>2016-02-26T11:15:59.939Z</time>
      </trkpt>
      <trkpt lat="45.97955" lon="4.66222">
        <ele>269.899993896</ele>
        <time>2016-02-26T11:16:00.889Z</time>
      </trkpt>
      <trkpt lat="45.97958" lon="4.66229">
        <ele>269.899993896</ele>
        <time>2016-02-26T11:16:01.867Z</time>
      </trkpt>
      <trkpt lat="45.97961" lon="4.66236">
        <ele>269.899993896</ele>
        <time>2016-02-26T11:16:02.89Z</time>
      </trkpt>
      <trkpt lat="45.97964" lon="4.66244">
        <ele>269.899993896</ele>
        <time>2016-02-26T11:16:03.866Z</time>
      </trkpt>
      <trkpt lat="45.97968" lon="4.66251">
        <ele>270</ele>
        <time>2016-02-26T11:16:04.888Z</time>
      </trkpt>
      <trkpt lat="45.97972" lon="4.66257">
        <ele>270</ele>
        <time>2016-02-26T11:16:05.89Z</time>
      </trkpt>
      <trkpt lat="45.97977" lon="4.66263">
        <ele>270</ele>
        <time>2016-02-26T11:16:06.89Z</time>
      </trkpt>
      <trkpt lat="45.97981" lon="4.66268">
        <ele>270.100006104</ele>
        <time>2016-02-26T11:16:07.869Z</time>
      </trkpt>
      <trkpt lat="45.97987" lon="4.66274">
        <ele>270.100006104</ele>
        <time>2016-02-26T11:16:09.046Z</time>
      </trkpt>
      <trkpt lat="45.97992" lon="4.66279">
        <ele>270</ele>
        <time>2016-02-26T11:16:09.869Z</time>
      </trkpt>
      <trkpt lat="45.97998" lon="4.66284">
        <ele>269.799987793</ele>
        <time>2016-02-26T11:16:10.893Z</time>
      </trkpt>
      <trkpt lat="45.98003" lon="4.6629">
        <ele>269.600006104</ele>
        <time>2016-02-26T11:16:11.868Z</time>
      </trkpt>
      <trkpt lat="45.98009" lon="4.66296">
        <ele>269.200012207</ele>
        <time>2016-02-26T11:16:12.896Z</time>
      </trkpt>
      <trkpt lat="45.98014" lon="4.66303">
        <ele>268.899993896</ele>
        <time>2016-02-26T11:16:13.866Z</time>
      </trkpt>
      <trkpt lat="45.98019" lon="4.6631">
        <ele>268.399993896</ele>
        <time>2016-02-26T11:16:14.889Z</time>
      </trkpt>
      <trkpt lat="45.98024" lon="4.66317">
        <ele>268.100006104</ele>
        <time>2016-02-26T11:16:15.863Z</time>
      </trkpt>
      <trkpt lat="45.98029" lon="4.66325">
        <ele>267.5</ele>
        <time>2016-02-26T11:16:16.888Z</time>
      </trkpt>
      <trkpt lat="45.98034" lon="4.66334">
        <ele>267.200012207</ele>
        <time>2016-02-26T11:16:17.869Z</time>
      </trkpt>
      <trkpt lat="45.98038" lon="4.66342">
        <ele>266.899993896</ele>
        <time>2016-02-26T11:16:18.889Z</time>
      </trkpt>
      <trkpt lat="45.98041" lon="4.66351">
        <ele>267</ele>
        <time>2016-02-26T11:16:19.865Z</time>
      </trkpt>
      <trkpt lat="45.98044" lon="4.6636">
        <ele>266.700012207</ele>
        <time>2016-02-26T11:16:20.901Z</time>
      </trkpt>
      <trkpt lat="45.98047" lon="4.6637">
        <ele>266.299987793</ele>
        <time>2016-02-26T11:16:21.87Z</time>
      </trkpt>
      <trkpt lat="45.9805" lon="4.66379">
        <ele>266.299987793</ele>
        <time>2016-02-26T11:16:22.885Z</time>
      </trkpt>
      <trkpt lat="45.98054" lon="4.66388">
        <ele>266</ele>
        <time>2016-02-26T11:16:23.866Z</time>
      </trkpt>
      <trkpt lat="45.98056" lon="4.66396">
        <ele>265.600006104</ele>
        <time>2016-02-26T11:16:24.891Z</time>
      </trkpt>
      <trkpt lat="45.98059" lon="4.66405">
        <ele>265.5</ele>
        <time>2016-02-26T11:16:25.867Z</time>
      </trkpt>
      <trkpt lat="45.98062" lon="4.66414">
        <ele>265</ele>
        <time>2016-02-26T11:16:26.892Z</time>
      </trkpt>
      <trkpt lat="45.98064" lon="4.66424">
        <ele>264.799987793</ele>
        <time>2016-02-26T11:16:27.867Z</time>
      </trkpt>
      <trkpt lat="45.98066" lon="4.66433">
        <ele>264.5</ele>
        <time>2016-02-26T11:16:28.927Z</time>
      </trkpt>
      <trkpt lat="45.98068" lon="4.66443">
        <ele>264.399993896</ele>
        <time>2016-02-26T11:16:29.868Z</time>
      </trkpt>
      <trkpt lat="45.9807" lon="4.66453">
        <ele>263.899993896</ele>
        <time>2016-02-26T11:16:30.889Z</time>
      </trkpt>
      <trkpt lat="45.98071" lon="4.66463">
        <ele>263.600006104</ele>
        <time>2016-02-26T11:16:31.869Z</time>
      </trkpt>
      <trkpt lat="45.98072" lon="4.66472">
        <ele>263.5</ele>
        <time>2016-02-26T11:16:32.887Z</time>
      </trkpt>
      <trkpt lat="45.98073" lon="4.66482">
        <ele>263.299987793</ele>
        <time>2016-02-26T11:16:33.867Z</time>
      </trkpt>
      <trkpt lat="45.98073" lon="4.66492">
        <ele>263</ele>
        <time>2016-02-26T11:16:34.921Z</time>
      </trkpt>
      <trkpt lat="45.98074" lon="4.66501">
        <ele>262.700012207</ele>
        <time>2016-02-26T11:16:35.868Z</time>
      </trkpt>
      <trkpt lat="45.98074" lon="4.66511">
        <ele>262.5</ele>
        <time>2016-02-26T11:16:36.891Z</time>
      </trkpt>
      <trkpt lat="45.98074" lon="4.6652">
        <ele>262.299987793</ele>
        <time>2016-02-26T11:16:37.867Z</time>
      </trkpt>
      <trkpt lat="45.98075" lon="4.6653">
        <ele>262.200012207</ele>
        <time>2016-02-26T11:16:38.887Z</time>
      </trkpt>
      <trkpt lat="45.98076" lon="4.6654">
        <ele>261.899993896</ele>
        <time>2016-02-26T11:16:39.867Z</time>
      </trkpt>
      <trkpt lat="45.98076" lon="4.6655">
        <ele>261.700012207</ele>
        <time>2016-02-26T11:16:40.885Z</time>
      </trkpt>
      <trkpt lat="45.98077" lon="4.6656">
        <ele>261.5</ele>
        <time>2016-02-26T11:16:41.865Z</time>
      </trkpt>
      <trkpt lat="45.98079" lon="4.6657">
        <ele>261.100006104</ele>
        <time>2016-02-26T11:16:42.89Z</time>
      </trkpt>
      <trkpt lat="45.9808" lon="4.6658">
        <ele>260.799987793</ele>
        <time>2016-02-26T11:16:43.87Z</time>
      </trkpt>
      <trkpt lat="45.98082" lon="4.6659">
        <ele>260.5</ele>
        <time>2016-02-26T11:16:44.886Z</time>
      </trkpt>
      <trkpt lat="45.98083" lon="4.666">
        <ele>260.299987793</ele>
        <time>2016-02-26T11:16:45.865Z</time>
      </trkpt>
      <trkpt lat="45.98085" lon="4.6661">
        <ele>260</ele>
        <time>2016-02-26T11:16:46.901Z</time>
      </trkpt>
      <trkpt lat="45.98087" lon="4.6662">
        <ele>259.700012207</ele>
        <time>2016-02-26T11:16:47.908Z</time>
      </trkpt>
      <trkpt lat="45.98089" lon="4.6663">
        <ele>259.299987793</ele>
        <time>2016-02-26T11:16:48.969Z</time>
      </trkpt>
      <trkpt lat="45.98091" lon="4.66641">
        <ele>258.899993896</ele>
        <time>2016-02-26T11:16:49.865Z</time>
      </trkpt>
      <trkpt lat="45.98093" lon="4.66651">
        <ele>258.5</ele>
        <time>2016-02-26T11:16:50.91Z</time>
      </trkpt>
      <trkpt lat="45.98095" lon="4.66661">
        <ele>258.200012207</ele>
        <time>2016-02-26T11:16:51.867Z</time>
      </trkpt>
      <trkpt lat="45.98097" lon="4.66671">
        <ele>257.899993896</ele>
        <time>2016-02-26T11:16:52.886Z</time>
      </trkpt>
      <trkpt lat="45.98098" lon="4.66682">
        <ele>257.5</ele>
        <time>2016-02-26T11:16:53.865Z</time>
      </trkpt>
      <trkpt lat="45.981" lon="4.66692">
        <ele>257.399993896</ele>
        <time>2016-02-26T11:16:54.89Z</time>
      </trkpt>
      <trkpt lat="45.98102" lon="4.66702">
        <ele>257.100006104</ele>
        <time>2016-02-26T11:16:55.867Z</time>
      </trkpt>
      <trkpt lat="45.98104" lon="4.66712">
        <ele>256.899993896</ele>
        <time>2016-02-26T11:16:56.886Z</time>
      </trkpt>
      <trkpt lat="45.98106" lon="4.66722">
        <ele>256.600006104</ele>
        <time>2016-02-26T11:16:57.867Z</time>
      </trkpt>
      <trkpt lat="45.98108" lon="4.66732">
        <ele>256.299987793</ele>
        <time>2016-02-26T11:16:58.885Z</time>
      </trkpt>
      <trkpt lat="45.9811" lon="4.66742">
        <ele>256.100006104</ele>
        <time>2016-02-26T11:16:59.865Z</time>
      </trkpt>
      <trkpt lat="45.98111" lon="4.66752">
        <ele>255.699996948</ele>
        <time>2016-02-26T11:17:00.888Z</time>
      </trkpt>
      <trkpt lat="45.98113" lon="4.66761">
        <ele>255.399993896</ele>
        <time>2016-02-26T11:17:01.865Z</time>
      </trkpt>
      <trkpt lat="45.98115" lon="4.66772">
        <ele>255.100006104</ele>
        <time>2016-02-26T11:17:02.886Z</time>
      </trkpt>
      <trkpt lat="45.98117" lon="4.66782">
        <ele>254.800003052</ele>
        <time>2016-02-26T11:17:03.865Z</time>
      </trkpt>
      <trkpt lat="45.98119" lon="4.66792">
        <ele>254.600006104</ele>
        <time>2016-02-26T11:17:04.891Z</time>
      </trkpt>
      <trkpt lat="45.98121" lon="4.66802">
        <ele>254.399993896</ele>
        <time>2016-02-26T11:17:05.865Z</time>
      </trkpt>
      <trkpt lat="45.98123" lon="4.66812">
        <ele>254.300003052</ele>
        <time>2016-02-26T11:17:06.889Z</time>
      </trkpt>
      <trkpt lat="45.98125" lon="4.66822">
        <ele>254.199996948</ele>
        <time>2016-02-26T11:17:07.87Z</time>
      </trkpt>
      <trkpt lat="45.98127" lon="4.66832">
        <ele>254</ele>
        <time>2016-02-26T11:17:08.887Z</time>
      </trkpt>
      <trkpt lat="45.98129" lon="4.66842">
        <ele>253.699996948</ele>
        <time>2016-02-26T11:17:09.871Z</time>
      </trkpt>
      <trkpt lat="45.98131" lon="4.66852">
        <ele>253.5</ele>
        <time>2016-02-26T11:17:10.891Z</time>
      </trkpt>
      <trkpt lat="45.98132" lon="4.66861">
        <ele>253.600006104</ele>
        <time>2016-02-26T11:17:11.892Z</time>
      </trkpt>
      <trkpt lat="45.98133" lon="4.66871">
        <ele>253.399993896</ele>
        <time>2016-02-26T11:17:12.888Z</time>
      </trkpt>
      <trkpt lat="45.98135" lon="4.6688">
        <ele>253.300003052</ele>
        <time>2016-02-26T11:17:13.87Z</time>
      </trkpt>
      <trkpt lat="45.98136" lon="4.66889">
        <ele>253.199996948</ele>
        <time>2016-02-26T11:17:14.886Z</time>
      </trkpt>
      <trkpt lat="45.98136" lon="4.66898">
        <ele>253.100006104</ele>
        <time>2016-02-26T11:17:15.865Z</time>
      </trkpt>
      <trkpt lat="45.98137" lon="4.66907">
        <ele>253</ele>
        <time>2016-02-26T11:17:16.889Z</time>
      </trkpt>
      <trkpt lat="45.98137" lon="4.66917">
        <ele>252.899993896</ele>
        <time>2016-02-26T11:17:17.887Z</time>
      </trkpt>
      <trkpt lat="45.98138" lon="4.66926">
        <ele>252.800003052</ele>
        <time>2016-02-26T11:17:18.887Z</time>
      </trkpt>
      <trkpt lat="45.98138" lon="4.66936">
        <ele>252.600006104</ele>
        <time>2016-02-26T11:17:19.865Z</time>
      </trkpt>
      <trkpt lat="45.98139" lon="4.66946">
        <ele>252.5</ele>
        <time>2016-02-26T11:17:20.885Z</time>
      </trkpt>
      <trkpt lat="45.98139" lon="4.66956">
        <ele>252.199996948</ele>
        <time>2016-02-26T11:17:21.865Z</time>
      </trkpt>
      <trkpt lat="45.9814" lon="4.66966">
        <ele>251.899993896</ele>
        <time>2016-02-26T11:17:22.884Z</time>
      </trkpt>
      <trkpt lat="45.9814" lon="4.66976">
        <ele>251.899993896</ele>
        <time>2016-02-26T11:17:23.865Z</time>
      </trkpt>
      <trkpt lat="45.98139" lon="4.66986">
        <ele>251.800003052</ele>
        <time>2016-02-26T11:17:24.888Z</time>
      </trkpt>
      <trkpt lat="45.98139" lon="4.66997">
        <ele>251.699996948</ele>
        <time>2016-02-26T11:17:25.865Z</time>
      </trkpt>
      <trkpt lat="45.9814" lon="4.67008">
        <ele>251.5</ele>
        <time>2016-02-26T11:17:26.9Z</time>
      </trkpt>
      <trkpt lat="45.9814" lon="4.67019">
        <ele>251.5</ele>
        <time>2016-02-26T11:17:27.866Z</time>
      </trkpt>
      <trkpt lat="45.98141" lon="4.6703">
        <ele>251.300003052</ele>
        <time>2016-02-26T11:17:28.929Z</time>
      </trkpt>
      <trkpt lat="45.98142" lon="4.6704">
        <ele>251.199996948</ele>
        <time>2016-02-26T11:17:29.867Z</time>
      </trkpt>
      <trkpt lat="45.98144" lon="4.67049">
        <ele>250.699996948</ele>
        <time>2016-02-26T11:17:30.888Z</time>
      </trkpt>
      <trkpt lat="45.98146" lon="4.67058">
        <ele>250.5</ele>
        <time>2016-02-26T11:17:31.865Z</time>
      </trkpt>
      <trkpt lat="45.98149" lon="4.67067">
        <ele>250.5</ele>
        <time>2016-02-26T11:17:32.886Z</time>
      </trkpt>
      <trkpt lat="45.98151" lon="4.67075">
        <ele>249.899993896</ele>
        <time>2016-02-26T11:17:33.865Z</time>
      </trkpt>
      <trkpt lat="45.98153" lon="4.67083">
        <ele>249.899993896</ele>
        <time>2016-02-26T11:17:34.885Z</time>
      </trkpt>
      <trkpt lat="45.98155" lon="4.67092">
        <ele>249.899993896</ele>
        <time>2016-02-26T11:17:35.89Z</time>
      </trkpt>
      <trkpt lat="45.98158" lon="4.671">
        <ele>249.899993896</ele>
        <time>2016-02-26T11:17:36.908Z</time>
      </trkpt>
      <trkpt lat="45.9816" lon="4.67108">
        <ele>250</ele>
        <time>2016-02-26T11:17:37.868Z</time>
      </trkpt>
      <trkpt lat="45.98163" lon="4.67116">
        <ele>249.800003052</ele>
        <time>2016-02-26T11:17:38.903Z</time>
      </trkpt>
      <trkpt lat="45.98165" lon="4.67124">
        <ele>249.5</ele>
        <time>2016-02-26T11:17:39.865Z</time>
      </trkpt>
      <trkpt lat="45.98168" lon="4.67132">
        <ele>249.5</ele>
        <time>2016-02-26T11:17:40.939Z</time>
      </trkpt>
      <trkpt lat="45.9817" lon="4.6714">
        <ele>249.300003052</ele>
        <time>2016-02-26T11:17:41.865Z</time>
      </trkpt>
      <trkpt lat="45.98172" lon="4.67148">
        <ele>249.300003052</ele>
        <time>2016-02-26T11:17:42.89Z</time>
      </trkpt>
      <trkpt lat="45.98174" lon="4.67156">
        <ele>249.399993896</ele>
        <time>2016-02-26T11:17:43.866Z</time>
      </trkpt>
      <trkpt lat="45.98176" lon="4.67165">
        <ele>249.100006104</ele>
        <time>2016-02-26T11:17:44.893Z</time>
      </trkpt>
      <trkpt lat="45.98178" lon="4.67173">
        <ele>248.800003052</ele>
        <time>2016-02-26T11:17:45.865Z</time>
      </trkpt>
      <trkpt lat="45.98181" lon="4.67182">
        <ele>248.699996948</ele>
        <time>2016-02-26T11:17:46.885Z</time>
      </trkpt>
      <trkpt lat="45.98183" lon="4.67191">
        <ele>248.5</ele>
        <time>2016-02-26T11:17:47.866Z</time>
      </trkpt>
      <trkpt lat="45.98185" lon="4.67199">
        <ele>248.5</ele>
        <time>2016-02-26T11:17:48.887Z</time>
      </trkpt>
      <trkpt lat="45.98187" lon="4.67208">
        <ele>248.699996948</ele>
        <time>2016-02-26T11:17:49.865Z</time>
      </trkpt>
      <trkpt lat="45.98189" lon="4.67216">
        <ele>248.600006104</ele>
        <time>2016-02-26T11:17:50.886Z</time>
      </trkpt>
      <trkpt lat="45.98191" lon="4.67225">
        <ele>248.600006104</ele>
        <time>2016-02-26T11:17:51.865Z</time>
      </trkpt>
      <trkpt lat="45.98192" lon="4.67234">
        <ele>248.5</ele>
        <time>2016-02-26T11:17:53.048Z</time>
      </trkpt>
      <trkpt lat="45.98193" lon="4.67243">
        <ele>248.5</ele>
        <time>2016-02-26T11:17:53.867Z</time>
      </trkpt>
      <trkpt lat="45.98195" lon="4.67252">
        <ele>248.399993896</ele>
        <time>2016-02-26T11:17:54.887Z</time>
      </trkpt>
      <trkpt lat="45.98196" lon="4.67261">
        <ele>248.300003052</ele>
        <time>2016-02-26T11:17:55.865Z</time>
      </trkpt>
      <trkpt lat="45.98197" lon="4.67271">
        <ele>248.300003052</ele>
        <time>2016-02-26T11:17:56.885Z</time>
      </trkpt>
      <trkpt lat="45.98198" lon="4.6728">
        <ele>248.100006104</ele>
        <time>2016-02-26T11:17:57.866Z</time>
      </trkpt>
      <trkpt lat="45.98198" lon="4.67289">
        <ele>248</ele>
        <time>2016-02-26T11:17:58.885Z</time>
      </trkpt>
      <trkpt lat="45.98199" lon="4.67298">
        <ele>248</ele>
        <time>2016-02-26T11:17:59.866Z</time>
      </trkpt>
      <trkpt lat="45.98199" lon="4.67307">
        <ele>247.899993896</ele>
        <time>2016-02-26T11:18:00.899Z</time>
      </trkpt>
      <trkpt lat="45.98199" lon="4.67316">
        <ele>247.899993896</ele>
        <time>2016-02-26T11:18:01.865Z</time>
      </trkpt>
      <trkpt lat="45.98199" lon="4.67325">
        <ele>247.899993896</ele>
        <time>2016-02-26T11:18:02.886Z</time>
      </trkpt>
      <trkpt lat="45.98199" lon="4.67333">
        <ele>247.899993896</ele>
        <time>2016-02-26T11:18:03.865Z</time>
      </trkpt>
      <trkpt lat="45.98199" lon="4.67342">
        <ele>247.899993896</ele>
        <time>2016-02-26T11:18:04.9Z</time>
      </trkpt>
      <trkpt lat="45.98199" lon="4.67351">
        <ele>247.899993896</ele>
        <time>2016-02-26T11:18:05.865Z</time>
      </trkpt>
      <trkpt lat="45.98199" lon="4.6736">
        <ele>247.699996948</ele>
        <time>2016-02-26T11:18:06.887Z</time>
      </trkpt>
      <trkpt lat="45.98199" lon="4.67369">
        <ele>247.600006104</ele>
        <time>2016-02-26T11:18:07.901Z</time>
      </trkpt>
      <trkpt lat="45.982" lon="4.67378">
        <ele>247.5</ele>
        <time>2016-02-26T11:18:08.89Z</time>
      </trkpt>
      <trkpt lat="45.982" lon="4.67388">
        <ele>247.5</ele>
        <time>2016-02-26T11:18:09.866Z</time>
      </trkpt>
      <trkpt lat="45.982" lon="4.67397">
        <ele>247.399993896</ele>
        <time>2016-02-26T11:18:10.885Z</time>
      </trkpt>
      <trkpt lat="45.982" lon="4.67406">
        <ele>247.300003052</ele>
        <time>2016-02-26T11:18:11.864Z</time>
      </trkpt>
      <trkpt lat="45.98201" lon="4.67416">
        <ele>247.199996948</ele>
        <time>2016-02-26T11:18:12.887Z</time>
      </trkpt>
      <trkpt lat="45.98201" lon="4.67425">
        <ele>247</ele>
        <time>2016-02-26T11:18:13.868Z</time>
      </trkpt>
      <trkpt lat="45.98201" lon="4.67434">
        <ele>246.899993896</ele>
        <time>2016-02-26T11:18:15.028Z</time>
      </trkpt>
      <trkpt lat="45.98201" lon="4.67442">
        <ele>246.899993896</ele>
        <time>2016-02-26T11:18:15.865Z</time>
      </trkpt>
      <trkpt lat="45.98201" lon="4.67451">
        <ele>246.800003052</ele>
        <time>2016-02-26T11:18:16.885Z</time>
      </trkpt>
      <trkpt lat="45.98202" lon="4.67459">
        <ele>246.699996948</ele>
        <time>2016-02-26T11:18:17.869Z</time>
      </trkpt>
      <trkpt lat="45.98202" lon="4.67468">
        <ele>246.699996948</ele>
        <time>2016-02-26T11:18:18.889Z</time>
      </trkpt>
      <trkpt lat="45.98203" lon="4.67477">
        <ele>246.699996948</ele>
        <time>2016-02-26T11:18:19.899Z</time>
      </trkpt>
      <trkpt lat="45.98204" lon="4.67485">
        <ele>246.800003052</ele>
        <time>2016-02-26T11:18:20.886Z</time>
      </trkpt>
      <trkpt lat="45.98205" lon="4.67494">
        <ele>246.800003052</ele>
        <time>2016-02-26T11:18:21.864Z</time>
      </trkpt>
      <trkpt lat="45.98205" lon="4.67503">
        <ele>246.699996948</ele>
        <time>2016-02-26T11:18:22.884Z</time>
      </trkpt>
      <trkpt lat="45.98206" lon="4.67512">
        <ele>246.600006104</ele>
        <time>2016-02-26T11:18:23.864Z</time>
      </trkpt>
      <trkpt lat="45.98207" lon="4.67521">
        <ele>246.100006104</ele>
        <time>2016-02-26T11:18:24.893Z</time>
      </trkpt>
      <trkpt lat="45.98207" lon="4.6753">
        <ele>245.899993896</ele>
        <time>2016-02-26T11:18:25.914Z</time>
      </trkpt>
      <trkpt lat="45.98208" lon="4.67539">
        <ele>245.600006104</ele>
        <time>2016-02-26T11:18:26.921Z</time>
      </trkpt>
      <trkpt lat="45.98209" lon="4.67548">
        <ele>245.300003052</ele>
        <time>2016-02-26T11:18:27.867Z</time>
      </trkpt>
      <trkpt lat="45.9821" lon="4.67557">
        <ele>244.899993896</ele>
        <time>2016-02-26T11:18:28.884Z</time>
      </trkpt>
      <trkpt lat="45.98211" lon="4.67566">
        <ele>244.699996948</ele>
        <time>2016-02-26T11:18:29.867Z</time>
      </trkpt>
      <trkpt lat="45.98212" lon="4.67575">
        <ele>244.399993896</ele>
        <time>2016-02-26T11:18:30.91Z</time>
      </trkpt>
      <trkpt lat="45.98213" lon="4.67584">
        <ele>244.100006104</ele>
        <time>2016-02-26T11:18:31.868Z</time>
      </trkpt>
      <trkpt lat="45.98215" lon="4.67594">
        <ele>243.800003052</ele>
        <time>2016-02-26T11:18:32.886Z</time>
      </trkpt>
      <trkpt lat="45.98216" lon="4.67603">
        <ele>243.5</ele>
        <time>2016-02-26T11:18:33.864Z</time>
      </trkpt>
      <trkpt lat="45.98217" lon="4.67613">
        <ele>243.100006104</ele>
        <time>2016-02-26T11:18:34.887Z</time>
      </trkpt>
      <trkpt lat="45.98219" lon="4.67622">
        <ele>242.800003052</ele>
        <time>2016-02-26T11:18:35.865Z</time>
      </trkpt>
      <trkpt lat="45.98221" lon="4.67631">
        <ele>242.600006104</ele>
        <time>2016-02-26T11:18:36.887Z</time>
      </trkpt>
      <trkpt lat="45.98223" lon="4.67641">
        <ele>242.199996948</ele>
        <time>2016-02-26T11:18:37.866Z</time>
      </trkpt>
      <trkpt lat="45.98225" lon="4.6765">
        <ele>241.899993896</ele>
        <time>2016-02-26T11:18:38.884Z</time>
      </trkpt>
      <trkpt lat="45.98227" lon="4.67659">
        <ele>241.5</ele>
        <time>2016-02-26T11:18:39.865Z</time>
      </trkpt>
      <trkpt lat="45.98229" lon="4.67669">
        <ele>241.100006104</ele>
        <time>2016-02-26T11:18:40.886Z</time>
      </trkpt>
      <trkpt lat="45.9823" lon="4.67679">
        <ele>240.699996948</ele>
        <time>2016-02-26T11:18:41.865Z</time>
      </trkpt>
      <trkpt lat="45.98232" lon="4.67689">
        <ele>240.199996948</ele>
        <time>2016-02-26T11:18:42.889Z</time>
      </trkpt>
      <trkpt lat="45.98232" lon="4.677">
        <ele>239.899993896</ele>
        <time>2016-02-26T11:18:43.866Z</time>
      </trkpt>
      <trkpt lat="45.98232" lon="4.67712">
        <ele>239.300003052</ele>
        <time>2016-02-26T11:18:44.885Z</time>
      </trkpt>
      <trkpt lat="45.98232" lon="4.67724">
        <ele>239</ele>
        <time>2016-02-26T11:18:45.862Z</time>
      </trkpt>
      <trkpt lat="45.98232" lon="4.67736">
        <ele>238.199996948</ele>
        <time>2016-02-26T11:18:46.902Z</time>
      </trkpt>
      <trkpt lat="45.98231" lon="4.67748">
        <ele>237.600006104</ele>
        <time>2016-02-26T11:18:47.868Z</time>
      </trkpt>
      <trkpt lat="45.98229" lon="4.6776">
        <ele>237</ele>
        <time>2016-02-26T11:18:48.89Z</time>
      </trkpt>
      <trkpt lat="45.98227" lon="4.67772">
        <ele>236.300003052</ele>
        <time>2016-02-26T11:18:49.867Z</time>
      </trkpt>
      <trkpt lat="45.98224" lon="4.67784">
        <ele>235.699996948</ele>
        <time>2016-02-26T11:18:50.885Z</time>
      </trkpt>
      <trkpt lat="45.98221" lon="4.67796">
        <ele>235.399993896</ele>
        <time>2016-02-26T11:18:51.893Z</time>
      </trkpt>
      <trkpt lat="45.98218" lon="4.67808">
        <ele>234.699996948</ele>
        <time>2016-02-26T11:18:52.884Z</time>
      </trkpt>
      <trkpt lat="45.98215" lon="4.6782">
        <ele>234</ele>
        <time>2016-02-26T11:18:53.864Z</time>
      </trkpt>
      <trkpt lat="45.98215" lon="4.6782">
        <ele>234</ele>
        <time>2016-02-26T11:18:53.895Z</time>
      </trkpt>
      <trkpt lat="45.98213" lon="4.67833">
        <ele>233.100006104</ele>
        <time>2016-02-26T11:18:54.871Z</time>
      </trkpt>
      <trkpt lat="45.98212" lon="4.67845">
        <ele>232.399993896</ele>
        <time>2016-02-26T11:18:55.885Z</time>
      </trkpt>
      <trkpt lat="45.98211" lon="4.67856">
        <ele>231.899993896</ele>
        <time>2016-02-26T11:18:56.869Z</time>
      </trkpt>
      <trkpt lat="45.98211" lon="4.67867">
        <ele>231.300003052</ele>
        <time>2016-02-26T11:18:57.886Z</time>
      </trkpt>
      <trkpt lat="45.98211" lon="4.67878">
        <ele>230.699996948</ele>
        <time>2016-02-26T11:18:58.866Z</time>
      </trkpt>
      <trkpt lat="45.98212" lon="4.67888">
        <ele>230.199996948</ele>
        <time>2016-02-26T11:18:59.886Z</time>
      </trkpt>
      <trkpt lat="45.98213" lon="4.67899">
        <ele>229.800003052</ele>
        <time>2016-02-26T11:19:00.871Z</time>
      </trkpt>
      <trkpt lat="45.98215" lon="4.6791">
        <ele>229.600006104</ele>
        <time>2016-02-26T11:19:02.177Z</time>
      </trkpt>
      <trkpt lat="45.98217" lon="4.67921">
        <ele>229</ele>
        <time>2016-02-26T11:19:02.868Z</time>
      </trkpt>
      <trkpt lat="45.98218" lon="4.67931">
        <ele>228.100006104</ele>
        <time>2016-02-26T11:19:03.884Z</time>
      </trkpt>
      <trkpt lat="45.98219" lon="4.67942">
        <ele>227.600006104</ele>
        <time>2016-02-26T11:19:04.888Z</time>
      </trkpt>
      <trkpt lat="45.98219" lon="4.67954">
        <ele>227.199996948</ele>
        <time>2016-02-26T11:19:05.884Z</time>
      </trkpt>
      <trkpt lat="45.98219" lon="4.67965">
        <ele>226.699996948</ele>
        <time>2016-02-26T11:19:06.869Z</time>
      </trkpt>
      <trkpt lat="45.98219" lon="4.67977">
        <ele>226.399993896</ele>
        <time>2016-02-26T11:19:07.886Z</time>
      </trkpt>
      <trkpt lat="45.98219" lon="4.67988">
        <ele>226.199996948</ele>
        <time>2016-02-26T11:19:08.869Z</time>
      </trkpt>
      <trkpt lat="45.98219" lon="4.68">
        <ele>225.800003052</ele>
        <time>2016-02-26T11:19:09.904Z</time>
      </trkpt>
      <trkpt lat="45.98219" lon="4.68011">
        <ele>225.399993896</ele>
        <time>2016-02-26T11:19:10.864Z</time>
      </trkpt>
      <trkpt lat="45.98219" lon="4.68022">
        <ele>224.800003052</ele>
        <time>2016-02-26T11:19:11.885Z</time>
      </trkpt>
      <trkpt lat="45.98219" lon="4.68032">
        <ele>224.5</ele>
        <time>2016-02-26T11:19:12.867Z</time>
      </trkpt>
      <trkpt lat="45.98219" lon="4.68041">
        <ele>224.399993896</ele>
        <time>2016-02-26T11:19:13.94Z</time>
      </trkpt>
      <trkpt lat="45.98219" lon="4.68049">
        <ele>224.399993896</ele>
        <time>2016-02-26T11:19:14.866Z</time>
      </trkpt>
      <trkpt lat="45.98219" lon="4.68057">
        <ele>224</ele>
        <time>2016-02-26T11:19:15.887Z</time>
      </trkpt>
      <trkpt lat="45.9822" lon="4.68066">
        <ele>223.399993896</ele>
        <time>2016-02-26T11:19:16.866Z</time>
      </trkpt>
      <trkpt lat="45.9822" lon="4.68074">
        <ele>223.300003052</ele>
        <time>2016-02-26T11:19:17.908Z</time>
      </trkpt>
      <trkpt lat="45.9822" lon="4.68082">
        <ele>223.699996948</ele>
        <time>2016-02-26T11:19:18.869Z</time>
      </trkpt>
      <trkpt lat="45.98221" lon="4.68091">
        <ele>223.100006104</ele>
        <time>2016-02-26T11:19:19.885Z</time>
      </trkpt>
      <trkpt lat="45.98221" lon="4.681">
        <ele>222.5</ele>
        <time>2016-02-26T11:19:20.867Z</time>
      </trkpt>
      <trkpt lat="45.98223" lon="4.68109">
        <ele>222.5</ele>
        <time>2016-02-26T11:19:21.887Z</time>
      </trkpt>
      <trkpt lat="45.98224" lon="4.68118">
        <ele>222.5</ele>
        <time>2016-02-26T11:19:22.866Z</time>
      </trkpt>
      <trkpt lat="45.98224" lon="4.68127">
        <ele>222.5</ele>
        <time>2016-02-26T11:19:23.885Z</time>
      </trkpt>
      <trkpt lat="45.98224" lon="4.68136">
        <ele>222.300003052</ele>
        <time>2016-02-26T11:19:24.869Z</time>
      </trkpt>
      <trkpt lat="45.98225" lon="4.68145">
        <ele>222.600006104</ele>
        <time>2016-02-26T11:19:25.884Z</time>
      </trkpt>
      <trkpt lat="45.98225" lon="4.68155">
        <ele>222.600006104</ele>
        <time>2016-02-26T11:19:26.868Z</time>
      </trkpt>
      <trkpt lat="45.98225" lon="4.68164">
        <ele>222</ele>
        <time>2016-02-26T11:19:27.89Z</time>
      </trkpt>
      <trkpt lat="45.98224" lon="4.68174">
        <ele>221.899993896</ele>
        <time>2016-02-26T11:19:28.866Z</time>
      </trkpt>
      <trkpt lat="45.98224" lon="4.68183">
        <ele>221.600006104</ele>
        <time>2016-02-26T11:19:29.887Z</time>
      </trkpt>
      <trkpt lat="45.98225" lon="4.68192">
        <ele>222.5</ele>
        <time>2016-02-26T11:19:30.869Z</time>
      </trkpt>
      <trkpt lat="45.98224" lon="4.682">
        <ele>222.300003052</ele>
        <time>2016-02-26T11:19:31.887Z</time>
      </trkpt>
      <trkpt lat="45.98225" lon="4.68209">
        <ele>221.899993896</ele>
        <time>2016-02-26T11:19:32.869Z</time>
      </trkpt>
      <trkpt lat="45.98225" lon="4.68218">
        <ele>221.800003052</ele>
        <time>2016-02-26T11:19:33.885Z</time>
      </trkpt>
      <trkpt lat="45.98226" lon="4.68227">
        <ele>221.5</ele>
        <time>2016-02-26T11:19:34.866Z</time>
      </trkpt>
      <trkpt lat="45.98227" lon="4.68236">
        <ele>221.100006104</ele>
        <time>2016-02-26T11:19:36.059Z</time>
      </trkpt>
      <trkpt lat="45.98228" lon="4.68245">
        <ele>220.5</ele>
        <time>2016-02-26T11:19:36.871Z</time>
      </trkpt>
      <trkpt lat="45.98229" lon="4.68254">
        <ele>220</ele>
        <time>2016-02-26T11:19:37.886Z</time>
      </trkpt>
      <trkpt lat="45.98231" lon="4.68264">
        <ele>219.699996948</ele>
        <time>2016-02-26T11:19:38.869Z</time>
      </trkpt>
      <trkpt lat="45.98232" lon="4.68274">
        <ele>219.300003052</ele>
        <time>2016-02-26T11:19:39.885Z</time>
      </trkpt>
      <trkpt lat="45.98233" lon="4.68284">
        <ele>218.800003052</ele>
        <time>2016-02-26T11:19:40.868Z</time>
      </trkpt>
      <trkpt lat="45.98234" lon="4.68294">
        <ele>218</ele>
        <time>2016-02-26T11:19:41.886Z</time>
      </trkpt>
      <trkpt lat="45.98234" lon="4.68305">
        <ele>217.399993896</ele>
        <time>2016-02-26T11:19:42.867Z</time>
      </trkpt>
      <trkpt lat="45.98235" lon="4.68316">
        <ele>216.800003052</ele>
        <time>2016-02-26T11:19:43.904Z</time>
      </trkpt>
      <trkpt lat="45.98236" lon="4.68328">
        <ele>216.800003052</ele>
        <time>2016-02-26T11:19:44.868Z</time>
      </trkpt>
      <trkpt lat="45.98236" lon="4.68339">
        <ele>216.699996948</ele>
        <time>2016-02-26T11:19:45.885Z</time>
      </trkpt>
      <trkpt lat="45.98236" lon="4.6835">
        <ele>216.399993896</ele>
        <time>2016-02-26T11:19:46.866Z</time>
      </trkpt>
      <trkpt lat="45.98236" lon="4.68362">
        <ele>216</ele>
        <time>2016-02-26T11:19:47.898Z</time>
      </trkpt>
      <trkpt lat="45.98236" lon="4.68373">
        <ele>215.600006104</ele>
        <time>2016-02-26T11:19:48.891Z</time>
      </trkpt>
      <trkpt lat="45.98237" lon="4.68384">
        <ele>215.100006104</ele>
        <time>2016-02-26T11:19:49.907Z</time>
      </trkpt>
      <trkpt lat="45.98237" lon="4.68394">
        <ele>214.699996948</ele>
        <time>2016-02-26T11:19:50.865Z</time>
      </trkpt>
      <trkpt lat="45.98236" lon="4.68405">
        <ele>214.100006104</ele>
        <time>2016-02-26T11:19:51.886Z</time>
      </trkpt>
      <trkpt lat="45.98236" lon="4.68416">
        <ele>213.699996948</ele>
        <time>2016-02-26T11:19:52.867Z</time>
      </trkpt>
      <trkpt lat="45.98236" lon="4.68427">
        <ele>213.600006104</ele>
        <time>2016-02-26T11:19:53.888Z</time>
      </trkpt>
      <trkpt lat="45.98236" lon="4.68438">
        <ele>213.100006104</ele>
        <time>2016-02-26T11:19:54.868Z</time>
      </trkpt>
      <trkpt lat="45.98236" lon="4.6845">
        <ele>212.899993896</ele>
        <time>2016-02-26T11:19:55.886Z</time>
      </trkpt>
      <trkpt lat="45.98236" lon="4.68462">
        <ele>212.800003052</ele>
        <time>2016-02-26T11:19:56.869Z</time>
      </trkpt>
      <trkpt lat="45.98234" lon="4.68474">
        <ele>211.699996948</ele>
        <time>2016-02-26T11:19:57.886Z</time>
      </trkpt>
      <trkpt lat="45.98233" lon="4.68486">
        <ele>210.899993896</ele>
        <time>2016-02-26T11:19:58.864Z</time>
      </trkpt>
      <trkpt lat="45.98233" lon="4.68486">
        <ele>210.899993896</ele>
        <time>2016-02-26T11:19:58.887Z</time>
      </trkpt>
      <trkpt lat="45.98232" lon="4.68499">
        <ele>209.800003052</ele>
        <time>2016-02-26T11:19:59.864Z</time>
      </trkpt>
      <trkpt lat="45.98232" lon="4.68499">
        <ele>209.800003052</ele>
        <time>2016-02-26T11:20:00.089Z</time>
      </trkpt>
      <trkpt lat="45.9823" lon="4.68513">
        <ele>208.5</ele>
        <time>2016-02-26T11:20:00.898Z</time>
      </trkpt>
      <trkpt lat="45.9823" lon="4.68513">
        <ele>208.5</ele>
        <time>2016-02-26T11:20:00.944Z</time>
      </trkpt>
      <trkpt lat="45.98229" lon="4.68527">
        <ele>207.5</ele>
        <time>2016-02-26T11:20:01.868Z</time>
      </trkpt>
      <trkpt lat="45.98229" lon="4.68527">
        <ele>207.5</ele>
        <time>2016-02-26T11:20:01.887Z</time>
      </trkpt>
      <trkpt lat="45.98229" lon="4.68541">
        <ele>206.5</ele>
        <time>2016-02-26T11:20:02.867Z</time>
      </trkpt>
      <trkpt lat="45.98229" lon="4.68541">
        <ele>206.5</ele>
        <time>2016-02-26T11:20:02.887Z</time>
      </trkpt>
      <trkpt lat="45.9823" lon="4.68555">
        <ele>205.899993896</ele>
        <time>2016-02-26T11:20:03.864Z</time>
      </trkpt>
      <trkpt lat="45.9823" lon="4.68555">
        <ele>205.899993896</ele>
        <time>2016-02-26T11:20:03.914Z</time>
      </trkpt>
      <trkpt lat="45.98231" lon="4.68569">
        <ele>205.600006104</ele>
        <time>2016-02-26T11:20:04.867Z</time>
      </trkpt>
      <trkpt lat="45.98231" lon="4.68569">
        <ele>205.600006104</ele>
        <time>2016-02-26T11:20:04.886Z</time>
      </trkpt>
      <trkpt lat="45.98232" lon="4.68582">
        <ele>205.100006104</ele>
        <time>2016-02-26T11:20:05.864Z</time>
      </trkpt>
      <trkpt lat="45.98232" lon="4.68582">
        <ele>205.100006104</ele>
        <time>2016-02-26T11:20:05.886Z</time>
      </trkpt>
      <trkpt lat="45.98234" lon="4.68596">
        <ele>204.5</ele>
        <time>2016-02-26T11:20:06.869Z</time>
      </trkpt>
      <trkpt lat="45.98234" lon="4.68596">
        <ele>204.5</ele>
        <time>2016-02-26T11:20:06.888Z</time>
      </trkpt>
      <trkpt lat="45.98234" lon="4.68609">
        <ele>204.399993896</ele>
        <time>2016-02-26T11:20:07.866Z</time>
      </trkpt>
      <trkpt lat="45.98234" lon="4.68609">
        <ele>204.399993896</ele>
        <time>2016-02-26T11:20:07.891Z</time>
      </trkpt>
      <trkpt lat="45.98233" lon="4.68623">
        <ele>204.199996948</ele>
        <time>2016-02-26T11:20:08.869Z</time>
      </trkpt>
      <trkpt lat="45.98233" lon="4.68623">
        <ele>204.199996948</ele>
        <time>2016-02-26T11:20:08.891Z</time>
      </trkpt>
      <trkpt lat="45.98232" lon="4.68635">
        <ele>204.199996948</ele>
        <time>2016-02-26T11:20:09.865Z</time>
      </trkpt>
      <trkpt lat="45.98232" lon="4.68635">
        <ele>204.199996948</ele>
        <time>2016-02-26T11:20:09.948Z</time>
      </trkpt>
      <trkpt lat="45.98229" lon="4.68649">
        <ele>203.100006104</ele>
        <time>2016-02-26T11:20:10.865Z</time>
      </trkpt>
      <trkpt lat="45.98229" lon="4.68649">
        <ele>203.100006104</ele>
        <time>2016-02-26T11:20:10.886Z</time>
      </trkpt>
      <trkpt lat="45.98226" lon="4.68662">
        <ele>201.899993896</ele>
        <time>2016-02-26T11:20:11.866Z</time>
      </trkpt>
      <trkpt lat="45.98226" lon="4.68662">
        <ele>201.899993896</ele>
        <time>2016-02-26T11:20:11.885Z</time>
      </trkpt>
      <trkpt lat="45.98224" lon="4.68676">
        <ele>200.699996948</ele>
        <time>2016-02-26T11:20:12.869Z</time>
      </trkpt>
      <trkpt lat="45.98224" lon="4.68676">
        <ele>200.699996948</ele>
        <time>2016-02-26T11:20:12.888Z</time>
      </trkpt>
      <trkpt lat="45.98221" lon="4.68689">
        <ele>200</ele>
        <time>2016-02-26T11:20:13.866Z</time>
      </trkpt>
      <trkpt lat="45.98221" lon="4.68689">
        <ele>200</ele>
        <time>2016-02-26T11:20:13.885Z</time>
      </trkpt>
      <trkpt lat="45.98218" lon="4.68703">
        <ele>199.600006104</ele>
        <time>2016-02-26T11:20:14.883Z</time>
      </trkpt>
      <trkpt lat="45.98218" lon="4.68703">
        <ele>199.600006104</ele>
        <time>2016-02-26T11:20:14.903Z</time>
      </trkpt>
      <trkpt lat="45.98216" lon="4.68717">
        <ele>199.100006104</ele>
        <time>2016-02-26T11:20:15.864Z</time>
      </trkpt>
      <trkpt lat="45.98216" lon="4.68717">
        <ele>199.100006104</ele>
        <time>2016-02-26T11:20:15.895Z</time>
      </trkpt>
      <trkpt lat="45.98214" lon="4.6873">
        <ele>198.199996948</ele>
        <time>2016-02-26T11:20:16.866Z</time>
      </trkpt>
      <trkpt lat="45.98214" lon="4.6873">
        <ele>198.199996948</ele>
        <time>2016-02-26T11:20:16.886Z</time>
      </trkpt>
      <trkpt lat="45.98212" lon="4.68744">
        <ele>197.699996948</ele>
        <time>2016-02-26T11:20:17.866Z</time>
      </trkpt>
      <trkpt lat="45.98212" lon="4.68744">
        <ele>197.699996948</ele>
        <time>2016-02-26T11:20:17.889Z</time>
      </trkpt>
      <trkpt lat="45.98209" lon="4.68757">
        <ele>197.300003052</ele>
        <time>2016-02-26T11:20:18.871Z</time>
      </trkpt>
      <trkpt lat="45.98209" lon="4.68757">
        <ele>197.300003052</ele>
        <time>2016-02-26T11:20:18.911Z</time>
      </trkpt>
      <trkpt lat="45.98207" lon="4.6877">
        <ele>196.600006104</ele>
        <time>2016-02-26T11:20:19.921Z</time>
      </trkpt>
      <trkpt lat="45.98207" lon="4.6877">
        <ele>196.600006104</ele>
        <time>2016-02-26T11:20:19.94Z</time>
      </trkpt>
      <trkpt lat="45.98206" lon="4.68784">
        <ele>196.100006104</ele>
        <time>2016-02-26T11:20:20.867Z</time>
      </trkpt>
      <trkpt lat="45.98205" lon="4.68796">
        <ele>195.800003052</ele>
        <time>2016-02-26T11:20:21.884Z</time>
      </trkpt>
      <trkpt lat="45.98204" lon="4.68809">
        <ele>195.800003052</ele>
        <time>2016-02-26T11:20:22.864Z</time>
      </trkpt>
      <trkpt lat="45.98203" lon="4.6882">
        <ele>195.800003052</ele>
        <time>2016-02-26T11:20:23.885Z</time>
      </trkpt>
      <trkpt lat="45.98202" lon="4.68832">
        <ele>195.899993896</ele>
        <time>2016-02-26T11:20:24.87Z</time>
      </trkpt>
      <trkpt lat="45.98201" lon="4.68843">
        <ele>196</ele>
        <time>2016-02-26T11:20:25.884Z</time>
      </trkpt>
      <trkpt lat="45.982" lon="4.68854">
        <ele>196</ele>
        <time>2016-02-26T11:20:26.908Z</time>
      </trkpt>
      <trkpt lat="45.98199" lon="4.68864">
        <ele>196.199996948</ele>
        <time>2016-02-26T11:20:27.884Z</time>
      </trkpt>
      <trkpt lat="45.98198" lon="4.68874">
        <ele>196.399993896</ele>
        <time>2016-02-26T11:20:28.864Z</time>
      </trkpt>
      <trkpt lat="45.98197" lon="4.68884">
        <ele>196.100006104</ele>
        <time>2016-02-26T11:20:29.887Z</time>
      </trkpt>
      <trkpt lat="45.98196" lon="4.68895">
        <ele>196</ele>
        <time>2016-02-26T11:20:30.866Z</time>
      </trkpt>
      <trkpt lat="45.98195" lon="4.68905">
        <ele>195.800003052</ele>
        <time>2016-02-26T11:20:31.884Z</time>
      </trkpt>
      <trkpt lat="45.98194" lon="4.68915">
        <ele>195.800003052</ele>
        <time>2016-02-26T11:20:32.867Z</time>
      </trkpt>
      <trkpt lat="45.98193" lon="4.68925">
        <ele>195.699996948</ele>
        <time>2016-02-26T11:20:33.884Z</time>
      </trkpt>
      <trkpt lat="45.98192" lon="4.68936">
        <ele>195.699996948</ele>
        <time>2016-02-26T11:20:34.917Z</time>
      </trkpt>
      <trkpt lat="45.98191" lon="4.68946">
        <ele>195.5</ele>
        <time>2016-02-26T11:20:35.92Z</time>
      </trkpt>
      <trkpt lat="45.98189" lon="4.68957">
        <ele>195.800003052</ele>
        <time>2016-02-26T11:20:36.871Z</time>
      </trkpt>
      <trkpt lat="45.98188" lon="4.68967">
        <ele>196</ele>
        <time>2016-02-26T11:20:37.885Z</time>
      </trkpt>
      <trkpt lat="45.98187" lon="4.68978">
        <ele>196</ele>
        <time>2016-02-26T11:20:38.915Z</time>
      </trkpt>
      <trkpt lat="45.98186" lon="4.68989">
        <ele>196.100006104</ele>
        <time>2016-02-26T11:20:39.909Z</time>
      </trkpt>
      <trkpt lat="45.98185" lon="4.68999">
        <ele>196.199996948</ele>
        <time>2016-02-26T11:20:40.866Z</time>
      </trkpt>
      <trkpt lat="45.98185" lon="4.69009">
        <ele>196.199996948</ele>
        <time>2016-02-26T11:20:41.884Z</time>
      </trkpt>
      <trkpt lat="45.98186" lon="4.69019">
        <ele>196.100006104</ele>
        <time>2016-02-26T11:20:42.871Z</time>
      </trkpt>
      <trkpt lat="45.98188" lon="4.69029">
        <ele>196.100006104</ele>
        <time>2016-02-26T11:20:43.885Z</time>
      </trkpt>
      <trkpt lat="45.9819" lon="4.69038">
        <ele>196.199996948</ele>
        <time>2016-02-26T11:20:44.869Z</time>
      </trkpt>
      <trkpt lat="45.98193" lon="4.69046">
        <ele>196.199996948</ele>
        <time>2016-02-26T11:20:45.889Z</time>
      </trkpt>
      <trkpt lat="45.98197" lon="4.69055">
        <ele>196</ele>
        <time>2016-02-26T11:20:46.864Z</time>
      </trkpt>
      <trkpt lat="45.982" lon="4.69063">
        <ele>196</ele>
        <time>2016-02-26T11:20:47.886Z</time>
      </trkpt>
      <trkpt lat="45.98204" lon="4.69072">
        <ele>196</ele>
        <time>2016-02-26T11:20:48.868Z</time>
      </trkpt>
      <trkpt lat="45.98208" lon="4.6908">
        <ele>196.100006104</ele>
        <time>2016-02-26T11:20:49.947Z</time>
      </trkpt>
      <trkpt lat="45.98212" lon="4.69089">
        <ele>196.199996948</ele>
        <time>2016-02-26T11:20:50.865Z</time>
      </trkpt>
      <trkpt lat="45.98215" lon="4.69098">
        <ele>196.100006104</ele>
        <time>2016-02-26T11:20:51.884Z</time>
      </trkpt>
      <trkpt lat="45.98218" lon="4.69107">
        <ele>196.100006104</ele>
        <time>2016-02-26T11:20:52.864Z</time>
      </trkpt>
      <trkpt lat="45.98221" lon="4.69117">
        <ele>195.5</ele>
        <time>2016-02-26T11:20:53.884Z</time>
      </trkpt>
      <trkpt lat="45.98224" lon="4.69126">
        <ele>195.199996948</ele>
        <time>2016-02-26T11:20:54.867Z</time>
      </trkpt>
      <trkpt lat="45.98226" lon="4.69136">
        <ele>195.100006104</ele>
        <time>2016-02-26T11:20:55.886Z</time>
      </trkpt>
      <trkpt lat="45.98228" lon="4.69145">
        <ele>195.199996948</ele>
        <time>2016-02-26T11:20:56.867Z</time>
      </trkpt>
      <trkpt lat="45.98229" lon="4.69155">
        <ele>195.100006104</ele>
        <time>2016-02-26T11:20:57.884Z</time>
      </trkpt>
      <trkpt lat="45.9823" lon="4.69165">
        <ele>195.199996948</ele>
        <time>2016-02-26T11:20:58.864Z</time>
      </trkpt>
      <trkpt lat="45.98231" lon="4.69175">
        <ele>194.800003052</ele>
        <time>2016-02-26T11:20:59.883Z</time>
      </trkpt>
      <trkpt lat="45.98231" lon="4.69184">
        <ele>195.300003052</ele>
        <time>2016-02-26T11:21:00.868Z</time>
      </trkpt>
      <trkpt lat="45.98231" lon="4.69195">
        <ele>194.699996948</ele>
        <time>2016-02-26T11:21:01.9Z</time>
      </trkpt>
      <trkpt lat="45.9823" lon="4.69205">
        <ele>194.800003052</ele>
        <time>2016-02-26T11:21:02.866Z</time>
      </trkpt>
      <trkpt lat="45.98229" lon="4.69215">
        <ele>194.899993896</ele>
        <time>2016-02-26T11:21:03.886Z</time>
      </trkpt>
      <trkpt lat="45.98226" lon="4.69226">
        <ele>194.399993896</ele>
        <time>2016-02-26T11:21:04.866Z</time>
      </trkpt>
      <trkpt lat="45.98223" lon="4.69238">
        <ele>192.800003052</ele>
        <time>2016-02-26T11:21:05.886Z</time>
      </trkpt>
      <trkpt lat="45.98221" lon="4.69249">
        <ele>192.5</ele>
        <time>2016-02-26T11:21:06.871Z</time>
      </trkpt>
      <trkpt lat="45.98219" lon="4.69261">
        <ele>192</ele>
        <time>2016-02-26T11:21:07.883Z</time>
      </trkpt>
      <trkpt lat="45.98217" lon="4.69272">
        <ele>191</ele>
        <time>2016-02-26T11:21:08.867Z</time>
      </trkpt>
      <trkpt lat="45.98215" lon="4.69282">
        <ele>190.5</ele>
        <time>2016-02-26T11:21:09.886Z</time>
      </trkpt>
      <trkpt lat="45.98214" lon="4.69292">
        <ele>190</ele>
        <time>2016-02-26T11:21:10.866Z</time>
      </trkpt>
      <trkpt lat="45.98213" lon="4.69301">
        <ele>189.899993896</ele>
        <time>2016-02-26T11:21:11.89Z</time>
      </trkpt>
      <trkpt lat="45.98212" lon="4.69307">
        <ele>189.699996948</ele>
        <time>2016-02-26T11:21:12.87Z</time>
      </trkpt>
      <trkpt lat="45.98206" lon="4.69317">
        <ele>190</ele>
        <time>2016-02-26T11:21:16.886Z</time>
      </trkpt>
      <trkpt lat="45.98204" lon="4.6932">
        <ele>190.300003052</ele>
        <time>2016-02-26T11:21:17.908Z</time>
      </trkpt>
      <trkpt lat="45.98202" lon="4.69328">
        <ele>190.699996948</ele>
        <time>2016-02-26T11:21:19.892Z</time>
      </trkpt>
      <trkpt lat="45.98201" lon="4.69333">
        <ele>190.5</ele>
        <time>2016-02-26T11:21:20.866Z</time>
      </trkpt>
      <trkpt lat="45.982" lon="4.69344">
        <ele>190</ele>
        <time>2016-02-26T11:21:22.885Z</time>
      </trkpt>
      <trkpt lat="45.98198" lon="4.69349">
        <ele>190.199996948</ele>
        <time>2016-02-26T11:21:23.866Z</time>
      </trkpt>
      <trkpt lat="45.98194" lon="4.6936">
        <ele>190.300003052</ele>
        <time>2016-02-26T11:21:25.886Z</time>
      </trkpt>
      <trkpt lat="45.98193" lon="4.69366">
        <ele>190.300003052</ele>
        <time>2016-02-26T11:21:26.865Z</time>
      </trkpt>
      <trkpt lat="45.98191" lon="4.69373">
        <ele>190.100006104</ele>
        <time>2016-02-26T11:21:27.903Z</time>
      </trkpt>
      <trkpt lat="45.9819" lon="4.6938">
        <ele>189.600006104</ele>
        <time>2016-02-26T11:21:28.926Z</time>
      </trkpt>
      <trkpt lat="45.98188" lon="4.69388">
        <ele>189.699996948</ele>
        <time>2016-02-26T11:21:29.887Z</time>
      </trkpt>
      <trkpt lat="45.98186" lon="4.69396">
        <ele>189.600006104</ele>
        <time>2016-02-26T11:21:30.866Z</time>
      </trkpt>
      <trkpt lat="45.98185" lon="4.69404">
        <ele>189.300003052</ele>
        <time>2016-02-26T11:21:31.884Z</time>
      </trkpt>
      <trkpt lat="45.98182" lon="4.69412">
        <ele>189.100006104</ele>
        <time>2016-02-26T11:21:32.867Z</time>
      </trkpt>
      <trkpt lat="45.98181" lon="4.6942">
        <ele>189.399993896</ele>
        <time>2016-02-26T11:21:33.886Z</time>
      </trkpt>
      <trkpt lat="45.98179" lon="4.69427">
        <ele>189.199996948</ele>
        <time>2016-02-26T11:21:34.857Z</time>
      </trkpt>
      <trkpt lat="45.98177" lon="4.69434">
        <ele>189</ele>
        <time>2016-02-26T11:21:35.885Z</time>
      </trkpt>
      <trkpt lat="45.98176" lon="4.69441">
        <ele>188.800003052</ele>
        <time>2016-02-26T11:21:36.869Z</time>
      </trkpt>
      <trkpt lat="45.98175" lon="4.69448">
        <ele>188.600006104</ele>
        <time>2016-02-26T11:21:37.95Z</time>
      </trkpt>
      <trkpt lat="45.98174" lon="4.69454">
        <ele>188.5</ele>
        <time>2016-02-26T11:21:38.867Z</time>
      </trkpt>
      <trkpt lat="45.9817" lon="4.69465">
        <ele>188.100006104</ele>
        <time>2016-02-26T11:21:40.886Z</time>
      </trkpt>
      <trkpt lat="45.98167" lon="4.6947">
        <ele>188.5</ele>
        <time>2016-02-26T11:21:41.864Z</time>
      </trkpt>
      <trkpt lat="45.98164" lon="4.69476">
        <ele>188.100006104</ele>
        <time>2016-02-26T11:21:42.887Z</time>
      </trkpt>
      <trkpt lat="45.98161" lon="4.69482">
        <ele>187.899993896</ele>
        <time>2016-02-26T11:21:43.864Z</time>
      </trkpt>
      <trkpt lat="45.98158" lon="4.69488">
        <ele>187.5</ele>
        <time>2016-02-26T11:21:44.885Z</time>
      </trkpt>
      <trkpt lat="45.98156" lon="4.69495">
        <ele>187.600006104</ele>
        <time>2016-02-26T11:21:45.868Z</time>
      </trkpt>
      <trkpt lat="45.98154" lon="4.69503">
        <ele>187.699996948</ele>
        <time>2016-02-26T11:21:46.887Z</time>
      </trkpt>
      <trkpt lat="45.98153" lon="4.6951">
        <ele>187.699996948</ele>
        <time>2016-02-26T11:21:47.866Z</time>
      </trkpt>
      <trkpt lat="45.98151" lon="4.69517">
        <ele>187.600006104</ele>
        <time>2016-02-26T11:21:48.902Z</time>
      </trkpt>
      <trkpt lat="45.98149" lon="4.69524">
        <ele>187.600006104</ele>
        <time>2016-02-26T11:21:49.866Z</time>
      </trkpt>
      <trkpt lat="45.98147" lon="4.69531">
        <ele>187.699996948</ele>
        <time>2016-02-26T11:21:50.893Z</time>
      </trkpt>
      <trkpt lat="45.98145" lon="4.69537">
        <ele>187.899993896</ele>
        <time>2016-02-26T11:21:51.908Z</time>
      </trkpt>
      <trkpt lat="45.98142" lon="4.69544">
        <ele>188</ele>
        <time>2016-02-26T11:21:52.885Z</time>
      </trkpt>
      <trkpt lat="45.9814" lon="4.69551">
        <ele>188.100006104</ele>
        <time>2016-02-26T11:21:53.859Z</time>
      </trkpt>
      <trkpt lat="45.98139" lon="4.69557">
        <ele>188.300003052</ele>
        <time>2016-02-26T11:21:54.889Z</time>
      </trkpt>
      <trkpt lat="45.98137" lon="4.69564">
        <ele>188.899993896</ele>
        <time>2016-02-26T11:21:55.864Z</time>
      </trkpt>
      <trkpt lat="45.98136" lon="4.6957">
        <ele>189.399993896</ele>
        <time>2016-02-26T11:21:56.888Z</time>
      </trkpt>
      <trkpt lat="45.98134" lon="4.69577">
        <ele>189.600006104</ele>
        <time>2016-02-26T11:21:57.866Z</time>
      </trkpt>
      <trkpt lat="45.98133" lon="4.69583">
        <ele>190</ele>
        <time>2016-02-26T11:21:58.884Z</time>
      </trkpt>
      <trkpt lat="45.98131" lon="4.69589">
        <ele>190.300003052</ele>
        <time>2016-02-26T11:21:59.866Z</time>
      </trkpt>
      <trkpt lat="45.98128" lon="4.69596">
        <ele>190.300003052</ele>
        <time>2016-02-26T11:22:00.888Z</time>
      </trkpt>
      <trkpt lat="45.98127" lon="4.69602">
        <ele>190.300003052</ele>
        <time>2016-02-26T11:22:01.864Z</time>
      </trkpt>
      <trkpt lat="45.98125" lon="4.69614">
        <ele>191</ele>
        <time>2016-02-26T11:22:03.909Z</time>
      </trkpt>
      <trkpt lat="45.98123" lon="4.69619">
        <ele>191.5</ele>
        <time>2016-02-26T11:22:04.866Z</time>
      </trkpt>
      <trkpt lat="45.9812" lon="4.6963">
        <ele>191.899993896</ele>
        <time>2016-02-26T11:22:06.887Z</time>
      </trkpt>
      <trkpt lat="45.98119" lon="4.69635">
        <ele>191.399993896</ele>
        <time>2016-02-26T11:22:07.864Z</time>
      </trkpt>
      <trkpt lat="45.98116" lon="4.69646">
        <ele>191.600006104</ele>
        <time>2016-02-26T11:22:09.887Z</time>
      </trkpt>
      <trkpt lat="45.98115" lon="4.69651">
        <ele>191.800003052</ele>
        <time>2016-02-26T11:22:10.864Z</time>
      </trkpt>
      <trkpt lat="45.98111" lon="4.69661">
        <ele>193.100006104</ele>
        <time>2016-02-26T11:22:12.89Z</time>
      </trkpt>
      <trkpt lat="45.98109" lon="4.69665">
        <ele>193.300003052</ele>
        <time>2016-02-26T11:22:13.865Z</time>
      </trkpt>
      <trkpt lat="45.98104" lon="4.69674">
        <ele>193.699996948</ele>
        <time>2016-02-26T11:22:15.886Z</time>
      </trkpt>
      <trkpt lat="45.98102" lon="4.69678">
        <ele>194.199996948</ele>
        <time>2016-02-26T11:22:16.871Z</time>
      </trkpt>
      <trkpt lat="45.98097" lon="4.69686">
        <ele>195</ele>
        <time>2016-02-26T11:22:18.911Z</time>
      </trkpt>
      <trkpt lat="45.98095" lon="4.6969">
        <ele>195.399993896</ele>
        <time>2016-02-26T11:22:19.864Z</time>
      </trkpt>
      <trkpt lat="45.98089" lon="4.69698">
        <ele>197.199996948</ele>
        <time>2016-02-26T11:22:21.886Z</time>
      </trkpt>
      <trkpt lat="45.98087" lon="4.69702">
        <ele>197.5</ele>
        <time>2016-02-26T11:22:22.864Z</time>
      </trkpt>
      <trkpt lat="45.98081" lon="4.69711">
        <ele>199.100006104</ele>
        <time>2016-02-26T11:22:24.911Z</time>
      </trkpt>
      <trkpt lat="45.98078" lon="4.69715">
        <ele>199.600006104</ele>
        <time>2016-02-26T11:22:25.864Z</time>
      </trkpt>
      <trkpt lat="45.98073" lon="4.69723">
        <ele>200.5</ele>
        <time>2016-02-26T11:22:27.956Z</time>
      </trkpt>
      <trkpt lat="45.9807" lon="4.69727">
        <ele>200.800003052</ele>
        <time>2016-02-26T11:22:28.867Z</time>
      </trkpt>
      <trkpt lat="45.98066" lon="4.69734">
        <ele>202</ele>
        <time>2016-02-26T11:22:30.887Z</time>
      </trkpt>
      <trkpt lat="45.98063" lon="4.69739">
        <ele>202.699996948</ele>
        <time>2016-02-26T11:22:31.864Z</time>
      </trkpt>
      <trkpt lat="45.98058" lon="4.69746">
        <ele>204.100006104</ele>
        <time>2016-02-26T11:22:33.885Z</time>
      </trkpt>
      <trkpt lat="45.98056" lon="4.69749">
        <ele>204.699996948</ele>
        <time>2016-02-26T11:22:34.863Z</time>
      </trkpt>
      <trkpt lat="45.9805" lon="4.69756">
        <ele>206.199996948</ele>
        <time>2016-02-26T11:22:36.892Z</time>
      </trkpt>
      <trkpt lat="45.98048" lon="4.6976">
        <ele>206.899993896</ele>
        <time>2016-02-26T11:22:37.866Z</time>
      </trkpt>
      <trkpt lat="45.98042" lon="4.69767">
        <ele>208.100006104</ele>
        <time>2016-02-26T11:22:39.885Z</time>
      </trkpt>
      <trkpt lat="45.9804" lon="4.6977">
        <ele>208.800003052</ele>
        <time>2016-02-26T11:22:40.864Z</time>
      </trkpt>
      <trkpt lat="45.98035" lon="4.69777">
        <ele>210.100006104</ele>
        <time>2016-02-26T11:22:42.889Z</time>
      </trkpt>
      <trkpt lat="45.98033" lon="4.69781">
        <ele>210.699996948</ele>
        <time>2016-02-26T11:22:43.863Z</time>
      </trkpt>
      <trkpt lat="45.98027" lon="4.69786">
        <ele>211.100006104</ele>
        <time>2016-02-26T11:22:45.887Z</time>
      </trkpt>
      <trkpt lat="45.98024" lon="4.69789">
        <ele>211.300003052</ele>
        <time>2016-02-26T11:22:46.866Z</time>
      </trkpt>
      <trkpt lat="45.98018" lon="4.69795">
        <ele>211.5</ele>
        <time>2016-02-26T11:22:48.911Z</time>
      </trkpt>
      <trkpt lat="45.98015" lon="4.69799">
        <ele>211.600006104</ele>
        <time>2016-02-26T11:22:49.864Z</time>
      </trkpt>
      <trkpt lat="45.98008" lon="4.69806">
        <ele>211.800003052</ele>
        <time>2016-02-26T11:22:51.918Z</time>
      </trkpt>
      <trkpt lat="45.98005" lon="4.69808">
        <ele>212.199996948</ele>
        <time>2016-02-26T11:22:52.864Z</time>
      </trkpt>
      <trkpt lat="45.97998" lon="4.69813">
        <ele>212.199996948</ele>
        <time>2016-02-26T11:22:54.887Z</time>
      </trkpt>
      <trkpt lat="45.97993" lon="4.69816">
        <ele>212.399993896</ele>
        <time>2016-02-26T11:22:55.866Z</time>
      </trkpt>
      <trkpt lat="45.97989" lon="4.6982">
        <ele>212.600006104</ele>
        <time>2016-02-26T11:22:56.886Z</time>
      </trkpt>
      <trkpt lat="45.97986" lon="4.69823">
        <ele>212.699996948</ele>
        <time>2016-02-26T11:22:57.866Z</time>
      </trkpt>
      <trkpt lat="45.97979" lon="4.6983">
        <ele>213.199996948</ele>
        <time>2016-02-26T11:22:59.885Z</time>
      </trkpt>
      <trkpt lat="45.97976" lon="4.69833">
        <ele>213.5</ele>
        <time>2016-02-26T11:23:00.87Z</time>
      </trkpt>
      <trkpt lat="45.9797" lon="4.69841">
        <ele>214.300003052</ele>
        <time>2016-02-26T11:23:02.89Z</time>
      </trkpt>
      <trkpt lat="45.97967" lon="4.69846">
        <ele>214.699996948</ele>
        <time>2016-02-26T11:23:03.865Z</time>
      </trkpt>
      <trkpt lat="45.9796" lon="4.69854">
        <ele>215</ele>
        <time>2016-02-26T11:23:05.89Z</time>
      </trkpt>
      <trkpt lat="45.97957" lon="4.69859">
        <ele>215</ele>
        <time>2016-02-26T11:23:06.87Z</time>
      </trkpt>
      <trkpt lat="45.97952" lon="4.69867">
        <ele>215.300003052</ele>
        <time>2016-02-26T11:23:08.946Z</time>
      </trkpt>
      <trkpt lat="45.97949" lon="4.69871">
        <ele>215.399993896</ele>
        <time>2016-02-26T11:23:09.864Z</time>
      </trkpt>
      <trkpt lat="45.97943" lon="4.69879">
        <ele>215.5</ele>
        <time>2016-02-26T11:23:11.903Z</time>
      </trkpt>
      <trkpt lat="45.97941" lon="4.69883">
        <ele>215.600006104</ele>
        <time>2016-02-26T11:23:12.866Z</time>
      </trkpt>
      <trkpt lat="45.97935" lon="4.6989">
        <ele>216</ele>
        <time>2016-02-26T11:23:14.885Z</time>
      </trkpt>
      <trkpt lat="45.97933" lon="4.69893">
        <ele>216.100006104</ele>
        <time>2016-02-26T11:23:15.864Z</time>
      </trkpt>
      <trkpt lat="45.97929" lon="4.69901">
        <ele>216.199996948</ele>
        <time>2016-02-26T11:23:17.884Z</time>
      </trkpt>
      <trkpt lat="45.97926" lon="4.69905">
        <ele>215.5</ele>
        <time>2016-02-26T11:23:18.868Z</time>
      </trkpt>
      <trkpt lat="45.97921" lon="4.69911">
        <ele>215.5</ele>
        <time>2016-02-26T11:23:20.886Z</time>
      </trkpt>
      <trkpt lat="45.97919" lon="4.69914">
        <ele>215.5</ele>
        <time>2016-02-26T11:23:21.864Z</time>
      </trkpt>
      <trkpt lat="45.97914" lon="4.6992">
        <ele>215.600006104</ele>
        <time>2016-02-26T11:23:23.884Z</time>
      </trkpt>
      <trkpt lat="45.97912" lon="4.69922">
        <ele>216.100006104</ele>
        <time>2016-02-26T11:23:24.869Z</time>
      </trkpt>
      <trkpt lat="45.97905" lon="4.69929">
        <ele>217.300003052</ele>
        <time>2016-02-26T11:23:27.918Z</time>
      </trkpt>
      <trkpt lat="45.97902" lon="4.69932">
        <ele>217.199996948</ele>
        <time>2016-02-26T11:23:28.865Z</time>
      </trkpt>
      <trkpt lat="45.97895" lon="4.69939">
        <ele>217.800003052</ele>
        <time>2016-02-26T11:23:31.886Z</time>
      </trkpt>
      <trkpt lat="45.97893" lon="4.69941">
        <ele>218</ele>
        <time>2016-02-26T11:23:32.868Z</time>
      </trkpt>
      <trkpt lat="45.97889" lon="4.6995">
        <ele>219.199996948</ele>
        <time>2016-02-26T11:23:35.884Z</time>
      </trkpt>
      <trkpt lat="45.97887" lon="4.69953">
        <ele>219.100006104</ele>
        <time>2016-02-26T11:23:36.87Z</time>
      </trkpt>
      <trkpt lat="45.9788" lon="4.69961">
        <ele>219.699996948</ele>
        <time>2016-02-26T11:23:39.95Z</time>
      </trkpt>
      <trkpt lat="45.97878" lon="4.69963">
        <ele>219.699996948</ele>
        <time>2016-02-26T11:23:40.867Z</time>
      </trkpt>
      <trkpt lat="45.97873" lon="4.69968">
        <ele>219.5</ele>
        <time>2016-02-26T11:23:42.902Z</time>
      </trkpt>
      <trkpt lat="45.9787" lon="4.69971">
        <ele>219.600006104</ele>
        <time>2016-02-26T11:23:43.865Z</time>
      </trkpt>
      <trkpt lat="45.97865" lon="4.69976">
        <ele>219.300003052</ele>
        <time>2016-02-26T11:23:45.886Z</time>
      </trkpt>
      <trkpt lat="45.97863" lon="4.69979">
        <ele>219.5</ele>
        <time>2016-02-26T11:23:46.895Z</time>
      </trkpt>
      <trkpt lat="45.97858" lon="4.69984">
        <ele>219.5</ele>
        <time>2016-02-26T11:23:48.886Z</time>
      </trkpt>
      <trkpt lat="45.97855" lon="4.69986">
        <ele>219.5</ele>
        <time>2016-02-26T11:23:49.863Z</time>
      </trkpt>
      <trkpt lat="45.9785" lon="4.69992">
        <ele>219.699996948</ele>
        <time>2016-02-26T11:23:51.884Z</time>
      </trkpt>
      <trkpt lat="45.97848" lon="4.69994">
        <ele>219.600006104</ele>
        <time>2016-02-26T11:23:52.91Z</time>
      </trkpt>
      <trkpt lat="45.97841" lon="4.70002">
        <ele>220.300003052</ele>
        <time>2016-02-26T11:23:55.884Z</time>
      </trkpt>
      <trkpt lat="45.97839" lon="4.70005">
        <ele>220.199996948</ele>
        <time>2016-02-26T11:23:56.866Z</time>
      </trkpt>
      <trkpt lat="45.97833" lon="4.70013">
        <ele>220.899993896</ele>
        <time>2016-02-26T11:23:59.886Z</time>
      </trkpt>
      <trkpt lat="45.9783" lon="4.70016">
        <ele>221</ele>
        <time>2016-02-26T11:24:00.87Z</time>
      </trkpt>
      <trkpt lat="45.97826" lon="4.70023">
        <ele>220.699996948</ele>
        <time>2016-02-26T11:24:02.885Z</time>
      </trkpt>
      <trkpt lat="45.97824" lon="4.70027">
        <ele>220.800003052</ele>
        <time>2016-02-26T11:24:03.938Z</time>
      </trkpt>
      <trkpt lat="45.97819" lon="4.70035">
        <ele>220.399993896</ele>
        <time>2016-02-26T11:24:05.884Z</time>
      </trkpt>
      <trkpt lat="45.97817" lon="4.7004">
        <ele>220.5</ele>
        <time>2016-02-26T11:24:06.866Z</time>
      </trkpt>
      <trkpt lat="45.97814" lon="4.70051">
        <ele>220.800003052</ele>
        <time>2016-02-26T11:24:09.884Z</time>
      </trkpt>
      <trkpt lat="45.97815" lon="4.70055">
        <ele>220.699996948</ele>
        <time>2016-02-26T11:24:10.864Z</time>
      </trkpt>
      <trkpt lat="45.97815" lon="4.70064">
        <ele>220.899993896</ele>
        <time>2016-02-26T11:24:12.886Z</time>
      </trkpt>
      <trkpt lat="45.97815" lon="4.70069">
        <ele>220.899993896</ele>
        <time>2016-02-26T11:24:13.865Z</time>
      </trkpt>
      <trkpt lat="45.97815" lon="4.70079">
        <ele>221</ele>
        <time>2016-02-26T11:24:15.883Z</time>
      </trkpt>
      <trkpt lat="45.97814" lon="4.70084">
        <ele>220.899993896</ele>
        <time>2016-02-26T11:24:16.865Z</time>
      </trkpt>
      <trkpt lat="45.97814" lon="4.70095">
        <ele>220</ele>
        <time>2016-02-26T11:24:18.921Z</time>
      </trkpt>
      <trkpt lat="45.97814" lon="4.701">
        <ele>220.199996948</ele>
        <time>2016-02-26T11:24:19.865Z</time>
      </trkpt>
      <trkpt lat="45.97814" lon="4.70111">
        <ele>220.199996948</ele>
        <time>2016-02-26T11:24:21.886Z</time>
      </trkpt>
      <trkpt lat="45.97815" lon="4.70117">
        <ele>220.100006104</ele>
        <time>2016-02-26T11:24:22.863Z</time>
      </trkpt>
      <trkpt lat="45.97815" lon="4.70128">
        <ele>220.300003052</ele>
        <time>2016-02-26T11:24:24.887Z</time>
      </trkpt>
      <trkpt lat="45.97814" lon="4.70134">
        <ele>220.199996948</ele>
        <time>2016-02-26T11:24:25.866Z</time>
      </trkpt>
      <trkpt lat="45.97815" lon="4.70145">
        <ele>220.199996948</ele>
        <time>2016-02-26T11:24:27.884Z</time>
      </trkpt>
      <trkpt lat="45.97815" lon="4.7015">
        <ele>220.300003052</ele>
        <time>2016-02-26T11:24:28.866Z</time>
      </trkpt>
      <trkpt lat="45.97816" lon="4.70161">
        <ele>220.5</ele>
        <time>2016-02-26T11:24:30.887Z</time>
      </trkpt>
      <trkpt lat="45.97816" lon="4.70167">
        <ele>220.699996948</ele>
        <time>2016-02-26T11:24:31.863Z</time>
      </trkpt>
      <trkpt lat="45.97816" lon="4.70179">
        <ele>221</ele>
        <time>2016-02-26T11:24:33.884Z</time>
      </trkpt>
      <trkpt lat="45.97817" lon="4.70184">
        <ele>221.300003052</ele>
        <time>2016-02-26T11:24:34.864Z</time>
      </trkpt>
      <trkpt lat="45.97815" lon="4.70195">
        <ele>220.800003052</ele>
        <time>2016-02-26T11:24:36.888Z</time>
      </trkpt>
      <trkpt lat="45.97814" lon="4.702">
        <ele>220.399993896</ele>
        <time>2016-02-26T11:24:37.865Z</time>
      </trkpt>
      <trkpt lat="45.97814" lon="4.70212">
        <ele>220</ele>
        <time>2016-02-26T11:24:39.908Z</time>
      </trkpt>
      <trkpt lat="45.97814" lon="4.70218">
        <ele>220.100006104</ele>
        <time>2016-02-26T11:24:40.863Z</time>
      </trkpt>
      <trkpt lat="45.97813" lon="4.7023">
        <ele>220.5</ele>
        <time>2016-02-26T11:24:42.886Z</time>
      </trkpt>
      <trkpt lat="45.97813" lon="4.70236">
        <ele>220.699996948</ele>
        <time>2016-02-26T11:24:43.866Z</time>
      </trkpt>
      <trkpt lat="45.97813" lon="4.70248">
        <ele>220.800003052</ele>
        <time>2016-02-26T11:24:45.886Z</time>
      </trkpt>
      <trkpt lat="45.97813" lon="4.70255">
        <ele>220.5</ele>
        <time>2016-02-26T11:24:46.865Z</time>
      </trkpt>
      <trkpt lat="45.97813" lon="4.70267">
        <ele>221.100006104</ele>
        <time>2016-02-26T11:24:48.887Z</time>
      </trkpt>
      <trkpt lat="45.97812" lon="4.70273">
        <ele>221.399993896</ele>
        <time>2016-02-26T11:24:49.868Z</time>
      </trkpt>
      <trkpt lat="45.97812" lon="4.70285">
        <ele>221.600006104</ele>
        <time>2016-02-26T11:24:51.885Z</time>
      </trkpt>
      <trkpt lat="45.97811" lon="4.70291">
        <ele>221.5</ele>
        <time>2016-02-26T11:24:52.878Z</time>
      </trkpt>
      <trkpt lat="45.97811" lon="4.70303">
        <ele>220.300003052</ele>
        <time>2016-02-26T11:24:54.886Z</time>
      </trkpt>
      <trkpt lat="45.97811" lon="4.70309">
        <ele>220.199996948</ele>
        <time>2016-02-26T11:24:55.865Z</time>
      </trkpt>
      <trkpt lat="45.97811" lon="4.70321">
        <ele>220.5</ele>
        <time>2016-02-26T11:24:57.883Z</time>
      </trkpt>
      <trkpt lat="45.9781" lon="4.70328">
        <ele>220.300003052</ele>
        <time>2016-02-26T11:24:58.865Z</time>
      </trkpt>
      <trkpt lat="45.97809" lon="4.70334">
        <ele>220.399993896</ele>
        <time>2016-02-26T11:24:59.884Z</time>
      </trkpt>
      <trkpt lat="45.97808" lon="4.70341">
        <ele>220.5</ele>
        <time>2016-02-26T11:25:00.87Z</time>
      </trkpt>
      <trkpt lat="45.97807" lon="4.70349">
        <ele>220.300003052</ele>
        <time>2016-02-26T11:25:01.919Z</time>
      </trkpt>
      <trkpt lat="45.97806" lon="4.70357">
        <ele>220.100006104</ele>
        <time>2016-02-26T11:25:02.866Z</time>
      </trkpt>
      <trkpt lat="45.97805" lon="4.70365">
        <ele>220.300003052</ele>
        <time>2016-02-26T11:25:03.907Z</time>
      </trkpt>
      <trkpt lat="45.97803" lon="4.70373">
        <ele>220</ele>
        <time>2016-02-26T11:25:04.863Z</time>
      </trkpt>
      <trkpt lat="45.97802" lon="4.70381">
        <ele>220.100006104</ele>
        <time>2016-02-26T11:25:05.884Z</time>
      </trkpt>
      <trkpt lat="45.978" lon="4.7039">
        <ele>220.100006104</ele>
        <time>2016-02-26T11:25:06.866Z</time>
      </trkpt>
      <trkpt lat="45.97799" lon="4.70398">
        <ele>219.699996948</ele>
        <time>2016-02-26T11:25:07.883Z</time>
      </trkpt>
      <trkpt lat="45.97797" lon="4.70405">
        <ele>219.300003052</ele>
        <time>2016-02-26T11:25:08.868Z</time>
      </trkpt>
      <trkpt lat="45.97796" lon="4.70411">
        <ele>219.5</ele>
        <time>2016-02-26T11:25:09.885Z</time>
      </trkpt>
      <trkpt lat="45.97795" lon="4.70418">
        <ele>219.100006104</ele>
        <time>2016-02-26T11:25:10.882Z</time>
      </trkpt>
      <trkpt lat="45.97795" lon="4.70425">
        <ele>218.899993896</ele>
        <time>2016-02-26T11:25:11.884Z</time>
      </trkpt>
      <trkpt lat="45.97794" lon="4.70431">
        <ele>218.800003052</ele>
        <time>2016-02-26T11:25:12.868Z</time>
      </trkpt>
      <trkpt lat="45.97794" lon="4.70438">
        <ele>219.100006104</ele>
        <time>2016-02-26T11:25:13.884Z</time>
      </trkpt>
      <trkpt lat="45.97793" lon="4.70444">
        <ele>219.5</ele>
        <time>2016-02-26T11:25:14.864Z</time>
      </trkpt>
      <trkpt lat="45.97792" lon="4.70451">
        <ele>219.600006104</ele>
        <time>2016-02-26T11:25:15.904Z</time>
      </trkpt>
      <trkpt lat="45.97792" lon="4.70458">
        <ele>219.800003052</ele>
        <time>2016-02-26T11:25:16.865Z</time>
      </trkpt>
      <trkpt lat="45.97791" lon="4.70464">
        <ele>220</ele>
        <time>2016-02-26T11:25:17.929Z</time>
      </trkpt>
      <trkpt lat="45.97791" lon="4.70471">
        <ele>219.899993896</ele>
        <time>2016-02-26T11:25:18.946Z</time>
      </trkpt>
      <trkpt lat="45.97791" lon="4.70483">
        <ele>220</ele>
        <time>2016-02-26T11:25:20.947Z</time>
      </trkpt>
      <trkpt lat="45.97791" lon="4.7049">
        <ele>220</ele>
        <time>2016-02-26T11:25:21.864Z</time>
      </trkpt>
      <trkpt lat="45.97791" lon="4.70497">
        <ele>219.699996948</ele>
        <time>2016-02-26T11:25:22.884Z</time>
      </trkpt>
      <trkpt lat="45.97791" lon="4.70504">
        <ele>219.699996948</ele>
        <time>2016-02-26T11:25:23.865Z</time>
      </trkpt>
      <trkpt lat="45.97791" lon="4.70511">
        <ele>219.5</ele>
        <time>2016-02-26T11:25:24.887Z</time>
      </trkpt>
      <trkpt lat="45.97792" lon="4.70518">
        <ele>219.300003052</ele>
        <time>2016-02-26T11:25:25.866Z</time>
      </trkpt>
      <trkpt lat="45.97791" lon="4.70525">
        <ele>218.899993896</ele>
        <time>2016-02-26T11:25:26.885Z</time>
      </trkpt>
      <trkpt lat="45.97791" lon="4.70533">
        <ele>218.699996948</ele>
        <time>2016-02-26T11:25:27.865Z</time>
      </trkpt>
      <trkpt lat="45.9779" lon="4.7054">
        <ele>218.399993896</ele>
        <time>2016-02-26T11:25:29.041Z</time>
      </trkpt>
      <trkpt lat="45.9779" lon="4.70547">
        <ele>218.899993896</ele>
        <time>2016-02-26T11:25:29.865Z</time>
      </trkpt>
      <trkpt lat="45.97789" lon="4.70555">
        <ele>219.100006104</ele>
        <time>2016-02-26T11:25:30.886Z</time>
      </trkpt>
      <trkpt lat="45.97789" lon="4.70562">
        <ele>219.300003052</ele>
        <time>2016-02-26T11:25:31.863Z</time>
      </trkpt>
      <trkpt lat="45.97789" lon="4.70569">
        <ele>219.199996948</ele>
        <time>2016-02-26T11:25:32.884Z</time>
      </trkpt>
      <trkpt lat="45.97789" lon="4.70577">
        <ele>219.199996948</ele>
        <time>2016-02-26T11:25:33.865Z</time>
      </trkpt>
      <trkpt lat="45.97789" lon="4.70585">
        <ele>219.300003052</ele>
        <time>2016-02-26T11:25:34.886Z</time>
      </trkpt>
      <trkpt lat="45.97789" lon="4.70593">
        <ele>219.300003052</ele>
        <time>2016-02-26T11:25:35.864Z</time>
      </trkpt>
      <trkpt lat="45.97789" lon="4.70601">
        <ele>219.100006104</ele>
        <time>2016-02-26T11:25:36.913Z</time>
      </trkpt>
      <trkpt lat="45.97789" lon="4.70609">
        <ele>219.399993896</ele>
        <time>2016-02-26T11:25:37.867Z</time>
      </trkpt>
      <trkpt lat="45.9779" lon="4.70617">
        <ele>219.5</ele>
        <time>2016-02-26T11:25:38.886Z</time>
      </trkpt>
      <trkpt lat="45.9779" lon="4.70626">
        <ele>219.399993896</ele>
        <time>2016-02-26T11:25:39.933Z</time>
      </trkpt>
      <trkpt lat="45.9779" lon="4.70634">
        <ele>219</ele>
        <time>2016-02-26T11:25:40.883Z</time>
      </trkpt>
      <trkpt lat="45.97789" lon="4.70642">
        <ele>218.300003052</ele>
        <time>2016-02-26T11:25:41.869Z</time>
      </trkpt>
      <trkpt lat="45.97789" lon="4.70651">
        <ele>217.899993896</ele>
        <time>2016-02-26T11:25:42.887Z</time>
      </trkpt>
      <trkpt lat="45.97788" lon="4.70658">
        <ele>218</ele>
        <time>2016-02-26T11:25:43.864Z</time>
      </trkpt>
      <trkpt lat="45.97788" lon="4.70666">
        <ele>218</ele>
        <time>2016-02-26T11:25:44.885Z</time>
      </trkpt>
      <trkpt lat="45.97788" lon="4.70674">
        <ele>218.100006104</ele>
        <time>2016-02-26T11:25:45.866Z</time>
      </trkpt>
      <trkpt lat="45.97787" lon="4.70682">
        <ele>218.199996948</ele>
        <time>2016-02-26T11:25:46.883Z</time>
      </trkpt>
      <trkpt lat="45.97787" lon="4.70691">
        <ele>217.699996948</ele>
        <time>2016-02-26T11:25:47.863Z</time>
      </trkpt>
      <trkpt lat="45.97786" lon="4.70699">
        <ele>217.600006104</ele>
        <time>2016-02-26T11:25:48.907Z</time>
      </trkpt>
      <trkpt lat="45.97785" lon="4.70708">
        <ele>217.100006104</ele>
        <time>2016-02-26T11:25:49.866Z</time>
      </trkpt>
      <trkpt lat="45.97785" lon="4.70716">
        <ele>216.399993896</ele>
        <time>2016-02-26T11:25:50.884Z</time>
      </trkpt>
      <trkpt lat="45.97785" lon="4.70724">
        <ele>216.399993896</ele>
        <time>2016-02-26T11:25:51.863Z</time>
      </trkpt>
      <trkpt lat="45.97785" lon="4.70731">
        <ele>216.300003052</ele>
        <time>2016-02-26T11:25:52.883Z</time>
      </trkpt>
      <trkpt lat="45.97784" lon="4.7074">
        <ele>216.100006104</ele>
        <time>2016-02-26T11:25:53.863Z</time>
      </trkpt>
      <trkpt lat="45.97784" lon="4.70747">
        <ele>216</ele>
        <time>2016-02-26T11:25:54.886Z</time>
      </trkpt>
      <trkpt lat="45.97783" lon="4.70755">
        <ele>216</ele>
        <time>2016-02-26T11:25:55.864Z</time>
      </trkpt>
      <trkpt lat="45.97782" lon="4.70762">
        <ele>216.399993896</ele>
        <time>2016-02-26T11:25:56.884Z</time>
      </trkpt>
      <trkpt lat="45.97781" lon="4.70769">
        <ele>216.600006104</ele>
        <time>2016-02-26T11:25:57.883Z</time>
      </trkpt>
      <trkpt lat="45.97781" lon="4.70776">
        <ele>216.399993896</ele>
        <time>2016-02-26T11:25:58.94Z</time>
      </trkpt>
      <trkpt lat="45.97782" lon="4.70784">
        <ele>215.800003052</ele>
        <time>2016-02-26T11:25:59.867Z</time>
      </trkpt>
      <trkpt lat="45.97784" lon="4.70792">
        <ele>215.699996948</ele>
        <time>2016-02-26T11:26:00.886Z</time>
      </trkpt>
      <trkpt lat="45.97789" lon="4.70797">
        <ele>216.100006104</ele>
        <time>2016-02-26T11:26:01.864Z</time>
      </trkpt>
      <trkpt lat="45.97793" lon="4.70802">
        <ele>216.100006104</ele>
        <time>2016-02-26T11:26:02.886Z</time>
      </trkpt>
      <trkpt lat="45.97798" lon="4.70807">
        <ele>215.899993896</ele>
        <time>2016-02-26T11:26:03.864Z</time>
      </trkpt>
      <trkpt lat="45.97802" lon="4.70813">
        <ele>215.899993896</ele>
        <time>2016-02-26T11:26:04.886Z</time>
      </trkpt>
      <trkpt lat="45.97806" lon="4.70819">
        <ele>215.899993896</ele>
        <time>2016-02-26T11:26:05.863Z</time>
      </trkpt>
      <trkpt lat="45.97809" lon="4.70826">
        <ele>215.699996948</ele>
        <time>2016-02-26T11:26:06.886Z</time>
      </trkpt>
      <trkpt lat="45.97812" lon="4.70834">
        <ele>215.800003052</ele>
        <time>2016-02-26T11:26:07.867Z</time>
      </trkpt>
      <trkpt lat="45.97815" lon="4.70842">
        <ele>215.699996948</ele>
        <time>2016-02-26T11:26:08.887Z</time>
      </trkpt>
      <trkpt lat="45.97816" lon="4.70849">
        <ele>215.899993896</ele>
        <time>2016-02-26T11:26:09.865Z</time>
      </trkpt>
      <trkpt lat="45.97818" lon="4.70858">
        <ele>216</ele>
        <time>2016-02-26T11:26:10.885Z</time>
      </trkpt>
      <trkpt lat="45.9782" lon="4.70866">
        <ele>215.899993896</ele>
        <time>2016-02-26T11:26:11.865Z</time>
      </trkpt>
      <trkpt lat="45.97821" lon="4.70875">
        <ele>215.699996948</ele>
        <time>2016-02-26T11:26:12.887Z</time>
      </trkpt>
      <trkpt lat="45.97822" lon="4.70885">
        <ele>215.600006104</ele>
        <time>2016-02-26T11:26:13.863Z</time>
      </trkpt>
      <trkpt lat="45.97821" lon="4.70893">
        <ele>215.5</ele>
        <time>2016-02-26T11:26:14.884Z</time>
      </trkpt>
      <trkpt lat="45.97821" lon="4.70902">
        <ele>214.800003052</ele>
        <time>2016-02-26T11:26:15.864Z</time>
      </trkpt>
      <trkpt lat="45.9782" lon="4.7091">
        <ele>213.800003052</ele>
        <time>2016-02-26T11:26:16.92Z</time>
      </trkpt>
      <trkpt lat="45.97819" lon="4.70919">
        <ele>213.399993896</ele>
        <time>2016-02-26T11:26:17.866Z</time>
      </trkpt>
      <trkpt lat="45.9782" lon="4.70928">
        <ele>213.100006104</ele>
        <time>2016-02-26T11:26:18.902Z</time>
      </trkpt>
      <trkpt lat="45.97823" lon="4.70936">
        <ele>212.800003052</ele>
        <time>2016-02-26T11:26:19.864Z</time>
      </trkpt>
      <trkpt lat="45.97826" lon="4.70944">
        <ele>212.600006104</ele>
        <time>2016-02-26T11:26:20.885Z</time>
      </trkpt>
      <trkpt lat="45.97829" lon="4.70953">
        <ele>212.399993896</ele>
        <time>2016-02-26T11:26:21.863Z</time>
      </trkpt>
      <trkpt lat="45.97831" lon="4.70962">
        <ele>212.399993896</ele>
        <time>2016-02-26T11:26:22.884Z</time>
      </trkpt>
      <trkpt lat="45.97833" lon="4.70971">
        <ele>211.899993896</ele>
        <time>2016-02-26T11:26:23.864Z</time>
      </trkpt>
      <trkpt lat="45.97834" lon="4.70981">
        <ele>211.100006104</ele>
        <time>2016-02-26T11:26:24.885Z</time>
      </trkpt>
      <trkpt lat="45.97835" lon="4.70992">
        <ele>210.600006104</ele>
        <time>2016-02-26T11:26:25.866Z</time>
      </trkpt>
      <trkpt lat="45.97837" lon="4.71002">
        <ele>210</ele>
        <time>2016-02-26T11:26:26.886Z</time>
      </trkpt>
      <trkpt lat="45.97838" lon="4.71013">
        <ele>209.699996948</ele>
        <time>2016-02-26T11:26:27.867Z</time>
      </trkpt>
      <trkpt lat="45.97839" lon="4.71024">
        <ele>209.399993896</ele>
        <time>2016-02-26T11:26:28.886Z</time>
      </trkpt>
      <trkpt lat="45.9784" lon="4.71035">
        <ele>209.100006104</ele>
        <time>2016-02-26T11:26:29.869Z</time>
      </trkpt>
      <trkpt lat="45.97841" lon="4.71047">
        <ele>208.699996948</ele>
        <time>2016-02-26T11:26:30.998Z</time>
      </trkpt>
      <trkpt lat="45.97842" lon="4.71058">
        <ele>208.300003052</ele>
        <time>2016-02-26T11:26:31.865Z</time>
      </trkpt>
      <trkpt lat="45.97844" lon="4.71069">
        <ele>207.800003052</ele>
        <time>2016-02-26T11:26:32.886Z</time>
      </trkpt>
      <trkpt lat="45.97845" lon="4.71081">
        <ele>207.199996948</ele>
        <time>2016-02-26T11:26:33.892Z</time>
      </trkpt>
      <trkpt lat="45.97847" lon="4.71092">
        <ele>206.899993896</ele>
        <time>2016-02-26T11:26:34.885Z</time>
      </trkpt>
      <trkpt lat="45.97848" lon="4.71103">
        <ele>206.600006104</ele>
        <time>2016-02-26T11:26:35.893Z</time>
      </trkpt>
      <trkpt lat="45.97849" lon="4.71114">
        <ele>206.399993896</ele>
        <time>2016-02-26T11:26:36.886Z</time>
      </trkpt>
      <trkpt lat="45.97851" lon="4.71125">
        <ele>205.899993896</ele>
        <time>2016-02-26T11:26:37.864Z</time>
      </trkpt>
      <trkpt lat="45.97853" lon="4.71135">
        <ele>205.5</ele>
        <time>2016-02-26T11:26:38.892Z</time>
      </trkpt>
      <trkpt lat="45.97853" lon="4.71146">
        <ele>205.100006104</ele>
        <time>2016-02-26T11:26:39.863Z</time>
      </trkpt>
      <trkpt lat="45.97854" lon="4.71156">
        <ele>204.5</ele>
        <time>2016-02-26T11:26:40.886Z</time>
      </trkpt>
      <trkpt lat="45.97854" lon="4.71166">
        <ele>204.100006104</ele>
        <time>2016-02-26T11:26:41.863Z</time>
      </trkpt>
      <trkpt lat="45.97854" lon="4.71176">
        <ele>204</ele>
        <time>2016-02-26T11:26:42.891Z</time>
      </trkpt>
      <trkpt lat="45.97854" lon="4.71187">
        <ele>203.5</ele>
        <time>2016-02-26T11:26:43.863Z</time>
      </trkpt>
      <trkpt lat="45.97855" lon="4.71197">
        <ele>203.100006104</ele>
        <time>2016-02-26T11:26:44.903Z</time>
      </trkpt>
      <trkpt lat="45.97855" lon="4.71207">
        <ele>203</ele>
        <time>2016-02-26T11:26:45.865Z</time>
      </trkpt>
      <trkpt lat="45.97855" lon="4.71218">
        <ele>202.399993896</ele>
        <time>2016-02-26T11:26:46.884Z</time>
      </trkpt>
      <trkpt lat="45.97856" lon="4.71229">
        <ele>201.699996948</ele>
        <time>2016-02-26T11:26:47.867Z</time>
      </trkpt>
      <trkpt lat="45.97856" lon="4.71239">
        <ele>201.100006104</ele>
        <time>2016-02-26T11:26:48.885Z</time>
      </trkpt>
      <trkpt lat="45.97856" lon="4.7125">
        <ele>201.100006104</ele>
        <time>2016-02-26T11:26:49.863Z</time>
      </trkpt>
      <trkpt lat="45.97855" lon="4.71261">
        <ele>200.800003052</ele>
        <time>2016-02-26T11:26:50.888Z</time>
      </trkpt>
      <trkpt lat="45.97855" lon="4.71273">
        <ele>200.300003052</ele>
        <time>2016-02-26T11:26:51.863Z</time>
      </trkpt>
      <trkpt lat="45.97854" lon="4.71284">
        <ele>200.199996948</ele>
        <time>2016-02-26T11:26:52.883Z</time>
      </trkpt>
      <trkpt lat="45.97854" lon="4.71296">
        <ele>199.300003052</ele>
        <time>2016-02-26T11:26:53.866Z</time>
      </trkpt>
      <trkpt lat="45.97854" lon="4.71307">
        <ele>198.899993896</ele>
        <time>2016-02-26T11:26:54.885Z</time>
      </trkpt>
      <trkpt lat="45.97854" lon="4.71318">
        <ele>198.699996948</ele>
        <time>2016-02-26T11:26:55.864Z</time>
      </trkpt>
      <trkpt lat="45.97854" lon="4.71329">
        <ele>198.899993896</ele>
        <time>2016-02-26T11:26:56.885Z</time>
      </trkpt>
      <trkpt lat="45.97853" lon="4.71339">
        <ele>198.600006104</ele>
        <time>2016-02-26T11:26:57.864Z</time>
      </trkpt>
      <trkpt lat="45.97853" lon="4.7135">
        <ele>198.5</ele>
        <time>2016-02-26T11:26:58.885Z</time>
      </trkpt>
      <trkpt lat="45.97853" lon="4.71362">
        <ele>197.5</ele>
        <time>2016-02-26T11:26:59.868Z</time>
      </trkpt>
      <trkpt lat="45.97853" lon="4.71373">
        <ele>196.800003052</ele>
        <time>2016-02-26T11:27:00.888Z</time>
      </trkpt>
      <trkpt lat="45.97853" lon="4.71383">
        <ele>196.5</ele>
        <time>2016-02-26T11:27:01.865Z</time>
      </trkpt>
      <trkpt lat="45.97854" lon="4.71393">
        <ele>195.800003052</ele>
        <time>2016-02-26T11:27:02.884Z</time>
      </trkpt>
      <trkpt lat="45.97855" lon="4.71404">
        <ele>194.699996948</ele>
        <time>2016-02-26T11:27:03.866Z</time>
      </trkpt>
      <trkpt lat="45.97856" lon="4.71415">
        <ele>194.100006104</ele>
        <time>2016-02-26T11:27:04.885Z</time>
      </trkpt>
      <trkpt lat="45.97858" lon="4.71425">
        <ele>193.800003052</ele>
        <time>2016-02-26T11:27:05.864Z</time>
      </trkpt>
      <trkpt lat="45.9786" lon="4.71436">
        <ele>193.199996948</ele>
        <time>2016-02-26T11:27:06.885Z</time>
      </trkpt>
      <trkpt lat="45.97862" lon="4.71446">
        <ele>192.800003052</ele>
        <time>2016-02-26T11:27:07.863Z</time>
      </trkpt>
      <trkpt lat="45.97864" lon="4.71456">
        <ele>192.5</ele>
        <time>2016-02-26T11:27:08.902Z</time>
      </trkpt>
      <trkpt lat="45.97866" lon="4.71467">
        <ele>192.300003052</ele>
        <time>2016-02-26T11:27:09.865Z</time>
      </trkpt>
      <trkpt lat="45.97869" lon="4.71477">
        <ele>191.800003052</ele>
        <time>2016-02-26T11:27:10.901Z</time>
      </trkpt>
      <trkpt lat="45.9787" lon="4.71488">
        <ele>191.100006104</ele>
        <time>2016-02-26T11:27:11.863Z</time>
      </trkpt>
      <trkpt lat="45.97871" lon="4.71499">
        <ele>190.399993896</ele>
        <time>2016-02-26T11:27:13.052Z</time>
      </trkpt>
      <trkpt lat="45.97871" lon="4.7151">
        <ele>189.300003052</ele>
        <time>2016-02-26T11:27:13.866Z</time>
      </trkpt>
      <trkpt lat="45.97873" lon="4.71521">
        <ele>188.5</ele>
        <time>2016-02-26T11:27:14.886Z</time>
      </trkpt>
      <trkpt lat="45.97874" lon="4.71531">
        <ele>188.399993896</ele>
        <time>2016-02-26T11:27:15.864Z</time>
      </trkpt>
      <trkpt lat="45.97876" lon="4.71542">
        <ele>187.800003052</ele>
        <time>2016-02-26T11:27:16.887Z</time>
      </trkpt>
      <trkpt lat="45.97878" lon="4.71552">
        <ele>187.5</ele>
        <time>2016-02-26T11:27:17.868Z</time>
      </trkpt>
      <trkpt lat="45.97879" lon="4.71562">
        <ele>187.399993896</ele>
        <time>2016-02-26T11:27:18.918Z</time>
      </trkpt>
      <trkpt lat="45.9788" lon="4.71572">
        <ele>187.199996948</ele>
        <time>2016-02-26T11:27:19.865Z</time>
      </trkpt>
      <trkpt lat="45.97881" lon="4.71581">
        <ele>187</ele>
        <time>2016-02-26T11:27:20.888Z</time>
      </trkpt>
      <trkpt lat="45.97881" lon="4.71591">
        <ele>186.699996948</ele>
        <time>2016-02-26T11:27:21.864Z</time>
      </trkpt>
      <trkpt lat="45.97881" lon="4.71601">
        <ele>186.399993896</ele>
        <time>2016-02-26T11:27:22.885Z</time>
      </trkpt>
      <trkpt lat="45.97881" lon="4.71611">
        <ele>186.399993896</ele>
        <time>2016-02-26T11:27:23.864Z</time>
      </trkpt>
      <trkpt lat="45.97882" lon="4.71621">
        <ele>186.300003052</ele>
        <time>2016-02-26T11:27:24.887Z</time>
      </trkpt>
      <trkpt lat="45.97882" lon="4.71632">
        <ele>186.300003052</ele>
        <time>2016-02-26T11:27:25.869Z</time>
      </trkpt>
      <trkpt lat="45.97882" lon="4.71641">
        <ele>186.5</ele>
        <time>2016-02-26T11:27:26.905Z</time>
      </trkpt>
      <trkpt lat="45.9788" lon="4.7165">
        <ele>186.300003052</ele>
        <time>2016-02-26T11:27:27.865Z</time>
      </trkpt>
      <trkpt lat="45.97878" lon="4.7166">
        <ele>186.199996948</ele>
        <time>2016-02-26T11:27:28.944Z</time>
      </trkpt>
      <trkpt lat="45.97875" lon="4.71669">
        <ele>186.600006104</ele>
        <time>2016-02-26T11:27:29.866Z</time>
      </trkpt>
      <trkpt lat="45.97873" lon="4.71678">
        <ele>186.600006104</ele>
        <time>2016-02-26T11:27:30.887Z</time>
      </trkpt>
      <trkpt lat="45.97871" lon="4.71688">
        <ele>187.100006104</ele>
        <time>2016-02-26T11:27:31.897Z</time>
      </trkpt>
      <trkpt lat="45.9787" lon="4.71696">
        <ele>187.5</ele>
        <time>2016-02-26T11:27:32.884Z</time>
      </trkpt>
      <trkpt lat="45.97868" lon="4.71705">
        <ele>187.800003052</ele>
        <time>2016-02-26T11:27:33.888Z</time>
      </trkpt>
      <trkpt lat="45.97865" lon="4.71713">
        <ele>188</ele>
        <time>2016-02-26T11:27:34.885Z</time>
      </trkpt>
      <trkpt lat="45.97862" lon="4.7172">
        <ele>187.600006104</ele>
        <time>2016-02-26T11:27:35.863Z</time>
      </trkpt>
      <trkpt lat="45.97858" lon="4.71728">
        <ele>187.300003052</ele>
        <time>2016-02-26T11:27:36.887Z</time>
      </trkpt>
      <trkpt lat="45.97854" lon="4.71735">
        <ele>187.199996948</ele>
        <time>2016-02-26T11:27:37.867Z</time>
      </trkpt>
      <trkpt lat="45.97849" lon="4.7174">
        <ele>187.5</ele>
        <time>2016-02-26T11:27:38.884Z</time>
      </trkpt>
      <trkpt lat="45.97843" lon="4.71744">
        <ele>187.699996948</ele>
        <time>2016-02-26T11:27:39.863Z</time>
      </trkpt>
      <trkpt lat="45.97836" lon="4.71745">
        <ele>187.699996948</ele>
        <time>2016-02-26T11:27:40.885Z</time>
      </trkpt>
      <trkpt lat="45.97829" lon="4.71744">
        <ele>187.5</ele>
        <time>2016-02-26T11:27:41.864Z</time>
      </trkpt>
      <trkpt lat="45.97822" lon="4.71743">
        <ele>187.800003052</ele>
        <time>2016-02-26T11:27:42.888Z</time>
      </trkpt>
      <trkpt lat="45.97815" lon="4.71742">
        <ele>188.199996948</ele>
        <time>2016-02-26T11:27:43.865Z</time>
      </trkpt>
      <trkpt lat="45.97808" lon="4.71741">
        <ele>188.600006104</ele>
        <time>2016-02-26T11:27:44.892Z</time>
      </trkpt>
      <trkpt lat="45.97802" lon="4.71741">
        <ele>188.800003052</ele>
        <time>2016-02-26T11:27:45.865Z</time>
      </trkpt>
      <trkpt lat="45.97795" lon="4.7174">
        <ele>188.899993896</ele>
        <time>2016-02-26T11:27:46.884Z</time>
      </trkpt>
      <trkpt lat="45.97788" lon="4.71739">
        <ele>189.5</ele>
        <time>2016-02-26T11:27:47.89Z</time>
      </trkpt>
      <trkpt lat="45.97781" lon="4.71738">
        <ele>189.899993896</ele>
        <time>2016-02-26T11:27:48.885Z</time>
      </trkpt>
      <trkpt lat="45.97775" lon="4.71737">
        <ele>190.100006104</ele>
        <time>2016-02-26T11:27:49.863Z</time>
      </trkpt>
      <trkpt lat="45.97769" lon="4.71736">
        <ele>190.800003052</ele>
        <time>2016-02-26T11:27:50.898Z</time>
      </trkpt>
      <trkpt lat="45.97762" lon="4.71735">
        <ele>191.699996948</ele>
        <time>2016-02-26T11:27:51.868Z</time>
      </trkpt>
      <trkpt lat="45.97756" lon="4.71734">
        <ele>192.100006104</ele>
        <time>2016-02-26T11:27:52.885Z</time>
      </trkpt>
      <trkpt lat="45.9775" lon="4.71733">
        <ele>192.5</ele>
        <time>2016-02-26T11:27:53.865Z</time>
      </trkpt>
      <trkpt lat="45.97744" lon="4.71732">
        <ele>192.800003052</ele>
        <time>2016-02-26T11:27:54.887Z</time>
      </trkpt>
      <trkpt lat="45.97739" lon="4.71731">
        <ele>193.399993896</ele>
        <time>2016-02-26T11:27:55.865Z</time>
      </trkpt>
      <trkpt lat="45.97734" lon="4.71729">
        <ele>193.800003052</ele>
        <time>2016-02-26T11:27:56.886Z</time>
      </trkpt>
      <trkpt lat="45.97729" lon="4.71728">
        <ele>193.899993896</ele>
        <time>2016-02-26T11:27:57.868Z</time>
      </trkpt>
      <trkpt lat="45.97723" lon="4.71727">
        <ele>194.600006104</ele>
        <time>2016-02-26T11:27:58.892Z</time>
      </trkpt>
      <trkpt lat="45.97717" lon="4.71727">
        <ele>194.899993896</ele>
        <time>2016-02-26T11:27:59.865Z</time>
      </trkpt>
      <trkpt lat="45.97711" lon="4.71727">
        <ele>195.399993896</ele>
        <time>2016-02-26T11:28:00.886Z</time>
      </trkpt>
      <trkpt lat="45.97706" lon="4.71726">
        <ele>195.800003052</ele>
        <time>2016-02-26T11:28:01.867Z</time>
      </trkpt>
      <trkpt lat="45.977" lon="4.71725">
        <ele>196.100006104</ele>
        <time>2016-02-26T11:28:02.884Z</time>
      </trkpt>
      <trkpt lat="45.97694" lon="4.71725">
        <ele>196.5</ele>
        <time>2016-02-26T11:28:03.87Z</time>
      </trkpt>
      <trkpt lat="45.97688" lon="4.71725">
        <ele>196.899993896</ele>
        <time>2016-02-26T11:28:04.884Z</time>
      </trkpt>
      <trkpt lat="45.97682" lon="4.71725">
        <ele>197.199996948</ele>
        <time>2016-02-26T11:28:05.865Z</time>
      </trkpt>
      <trkpt lat="45.97676" lon="4.71724">
        <ele>197.699996948</ele>
        <time>2016-02-26T11:28:06.886Z</time>
      </trkpt>
      <trkpt lat="45.9767" lon="4.71725">
        <ele>198.100006104</ele>
        <time>2016-02-26T11:28:07.865Z</time>
      </trkpt>
      <trkpt lat="45.97664" lon="4.71725">
        <ele>198.5</ele>
        <time>2016-02-26T11:28:08.941Z</time>
      </trkpt>
      <trkpt lat="45.97658" lon="4.71724">
        <ele>198.800003052</ele>
        <time>2016-02-26T11:28:09.866Z</time>
      </trkpt>
      <trkpt lat="45.97653" lon="4.71724">
        <ele>198.899993896</ele>
        <time>2016-02-26T11:28:10.884Z</time>
      </trkpt>
      <trkpt lat="45.97647" lon="4.71723">
        <ele>199</ele>
        <time>2016-02-26T11:28:11.866Z</time>
      </trkpt>
      <trkpt lat="45.97642" lon="4.71721">
        <ele>199.300003052</ele>
        <time>2016-02-26T11:28:12.888Z</time>
      </trkpt>
      <trkpt lat="45.97637" lon="4.71716">
        <ele>199.5</ele>
        <time>2016-02-26T11:28:13.868Z</time>
      </trkpt>
      <trkpt lat="45.97632" lon="4.71711">
        <ele>199.800003052</ele>
        <time>2016-02-26T11:28:14.938Z</time>
      </trkpt>
      <trkpt lat="45.97628" lon="4.71706">
        <ele>200.199996948</ele>
        <time>2016-02-26T11:28:15.865Z</time>
      </trkpt>
      <trkpt lat="45.97622" lon="4.71704">
        <ele>200.100006104</ele>
        <time>2016-02-26T11:28:16.904Z</time>
      </trkpt>
      <trkpt lat="45.97616" lon="4.71705">
        <ele>200</ele>
        <time>2016-02-26T11:28:17.937Z</time>
      </trkpt>
      <trkpt lat="45.9761" lon="4.71708">
        <ele>200.300003052</ele>
        <time>2016-02-26T11:28:18.888Z</time>
      </trkpt>
      <trkpt lat="45.97605" lon="4.71712">
        <ele>200.399993896</ele>
        <time>2016-02-26T11:28:19.866Z</time>
      </trkpt>
      <trkpt lat="45.97599" lon="4.71716">
        <ele>200.600006104</ele>
        <time>2016-02-26T11:28:20.887Z</time>
      </trkpt>
      <trkpt lat="45.97592" lon="4.71717">
        <ele>200.600006104</ele>
        <time>2016-02-26T11:28:21.863Z</time>
      </trkpt>
      <trkpt lat="45.97586" lon="4.71718">
        <ele>200.600006104</ele>
        <time>2016-02-26T11:28:22.885Z</time>
      </trkpt>
      <trkpt lat="45.9758" lon="4.71717">
        <ele>200.699996948</ele>
        <time>2016-02-26T11:28:23.876Z</time>
      </trkpt>
      <trkpt lat="45.97574" lon="4.71716">
        <ele>200.5</ele>
        <time>2016-02-26T11:28:24.909Z</time>
      </trkpt>
      <trkpt lat="45.97568" lon="4.71716">
        <ele>200.399993896</ele>
        <time>2016-02-26T11:28:25.889Z</time>
      </trkpt>
      <trkpt lat="45.97562" lon="4.71716">
        <ele>200.300003052</ele>
        <time>2016-02-26T11:28:26.886Z</time>
      </trkpt>
      <trkpt lat="45.97555" lon="4.71716">
        <ele>200.300003052</ele>
        <time>2016-02-26T11:28:27.858Z</time>
      </trkpt>
      <trkpt lat="45.97549" lon="4.71715">
        <ele>200.199996948</ele>
        <time>2016-02-26T11:28:28.886Z</time>
      </trkpt>
      <trkpt lat="45.97542" lon="4.71715">
        <ele>199.899993896</ele>
        <time>2016-02-26T11:28:29.866Z</time>
      </trkpt>
      <trkpt lat="45.97536" lon="4.71714">
        <ele>199.600006104</ele>
        <time>2016-02-26T11:28:30.888Z</time>
      </trkpt>
      <trkpt lat="45.9753" lon="4.71714">
        <ele>199.600006104</ele>
        <time>2016-02-26T11:28:31.874Z</time>
      </trkpt>
      <trkpt lat="45.97524" lon="4.71714">
        <ele>199.600006104</ele>
        <time>2016-02-26T11:28:32.886Z</time>
      </trkpt>
      <trkpt lat="45.97518" lon="4.71713">
        <ele>199.699996948</ele>
        <time>2016-02-26T11:28:33.86Z</time>
      </trkpt>
      <trkpt lat="45.97512" lon="4.71712">
        <ele>199.600006104</ele>
        <time>2016-02-26T11:28:34.886Z</time>
      </trkpt>
      <trkpt lat="45.97507" lon="4.71712">
        <ele>199.699996948</ele>
        <time>2016-02-26T11:28:35.918Z</time>
      </trkpt>
      <trkpt lat="45.97501" lon="4.71711">
        <ele>199.699996948</ele>
        <time>2016-02-26T11:28:36.885Z</time>
      </trkpt>
      <trkpt lat="45.97495" lon="4.71711">
        <ele>199.699996948</ele>
        <time>2016-02-26T11:28:37.867Z</time>
      </trkpt>
      <trkpt lat="45.9749" lon="4.71711">
        <ele>199.5</ele>
        <time>2016-02-26T11:28:38.886Z</time>
      </trkpt>
      <trkpt lat="45.97485" lon="4.7171">
        <ele>199.5</ele>
        <time>2016-02-26T11:28:39.865Z</time>
      </trkpt>
      <trkpt lat="45.97479" lon="4.7171">
        <ele>199.5</ele>
        <time>2016-02-26T11:28:40.886Z</time>
      </trkpt>
      <trkpt lat="45.97473" lon="4.7171">
        <ele>199.399993896</ele>
        <time>2016-02-26T11:28:41.863Z</time>
      </trkpt>
      <trkpt lat="45.97466" lon="4.71709">
        <ele>198.899993896</ele>
        <time>2016-02-26T11:28:42.888Z</time>
      </trkpt>
      <trkpt lat="45.97458" lon="4.71707">
        <ele>198.899993896</ele>
        <time>2016-02-26T11:28:43.866Z</time>
      </trkpt>
      <trkpt lat="45.9745" lon="4.71706">
        <ele>198.800003052</ele>
        <time>2016-02-26T11:28:44.891Z</time>
      </trkpt>
      <trkpt lat="45.97443" lon="4.71705">
        <ele>198.800003052</ele>
        <time>2016-02-26T11:28:45.863Z</time>
      </trkpt>
      <trkpt lat="45.97437" lon="4.71705">
        <ele>198.800003052</ele>
        <time>2016-02-26T11:28:46.922Z</time>
      </trkpt>
      <trkpt lat="45.9743" lon="4.71704">
        <ele>198.399993896</ele>
        <time>2016-02-26T11:28:47.865Z</time>
      </trkpt>
      <trkpt lat="45.97424" lon="4.71704">
        <ele>198.199996948</ele>
        <time>2016-02-26T11:28:48.893Z</time>
      </trkpt>
      <trkpt lat="45.97418" lon="4.71704">
        <ele>198</ele>
        <time>2016-02-26T11:28:49.865Z</time>
      </trkpt>
      <trkpt lat="45.97412" lon="4.71703">
        <ele>197.800003052</ele>
        <time>2016-02-26T11:28:50.907Z</time>
      </trkpt>
      <trkpt lat="45.97405" lon="4.71703">
        <ele>197.600006104</ele>
        <time>2016-02-26T11:28:51.867Z</time>
      </trkpt>
      <trkpt lat="45.97399" lon="4.71702">
        <ele>197.5</ele>
        <time>2016-02-26T11:28:52.884Z</time>
      </trkpt>
      <trkpt lat="45.97394" lon="4.71702">
        <ele>197.5</ele>
        <time>2016-02-26T11:28:53.863Z</time>
      </trkpt>
      <trkpt lat="45.97388" lon="4.71701">
        <ele>197.699996948</ele>
        <time>2016-02-26T11:28:54.887Z</time>
      </trkpt>
      <trkpt lat="45.97382" lon="4.71701">
        <ele>197.600006104</ele>
        <time>2016-02-26T11:28:55.865Z</time>
      </trkpt>
      <trkpt lat="45.97376" lon="4.71701">
        <ele>197.699996948</ele>
        <time>2016-02-26T11:28:56.884Z</time>
      </trkpt>
      <trkpt lat="45.9737" lon="4.71701">
        <ele>197.899993896</ele>
        <time>2016-02-26T11:28:57.866Z</time>
      </trkpt>
      <trkpt lat="45.97364" lon="4.71701">
        <ele>197.800003052</ele>
        <time>2016-02-26T11:28:58.885Z</time>
      </trkpt>
      <trkpt lat="45.97358" lon="4.71701">
        <ele>197.899993896</ele>
        <time>2016-02-26T11:28:59.863Z</time>
      </trkpt>
      <trkpt lat="45.97352" lon="4.71701">
        <ele>197.5</ele>
        <time>2016-02-26T11:29:00.887Z</time>
      </trkpt>
      <trkpt lat="45.97345" lon="4.717">
        <ele>197.300003052</ele>
        <time>2016-02-26T11:29:01.863Z</time>
      </trkpt>
      <trkpt lat="45.97339" lon="4.717">
        <ele>197.300003052</ele>
        <time>2016-02-26T11:29:02.884Z</time>
      </trkpt>
      <trkpt lat="45.97334" lon="4.717">
        <ele>197.300003052</ele>
        <time>2016-02-26T11:29:03.862Z</time>
      </trkpt>
      <trkpt lat="45.97328" lon="4.71698">
        <ele>196.899993896</ele>
        <time>2016-02-26T11:29:04.884Z</time>
      </trkpt>
      <trkpt lat="45.97322" lon="4.71696">
        <ele>196.699996948</ele>
        <time>2016-02-26T11:29:05.863Z</time>
      </trkpt>
      <trkpt lat="45.97317" lon="4.71692">
        <ele>196.300003052</ele>
        <time>2016-02-26T11:29:06.938Z</time>
      </trkpt>
      <trkpt lat="45.97312" lon="4.71689">
        <ele>196.100006104</ele>
        <time>2016-02-26T11:29:07.865Z</time>
      </trkpt>
      <trkpt lat="45.97306" lon="4.71688">
        <ele>195.600006104</ele>
        <time>2016-02-26T11:29:08.885Z</time>
      </trkpt>
      <trkpt lat="45.97299" lon="4.71689">
        <ele>195.300003052</ele>
        <time>2016-02-26T11:29:09.868Z</time>
      </trkpt>
      <trkpt lat="45.97293" lon="4.71692">
        <ele>195.300003052</ele>
        <time>2016-02-26T11:29:10.885Z</time>
      </trkpt>
      <trkpt lat="45.97287" lon="4.71695">
        <ele>195.100006104</ele>
        <time>2016-02-26T11:29:11.865Z</time>
      </trkpt>
      <trkpt lat="45.9728" lon="4.71696">
        <ele>195</ele>
        <time>2016-02-26T11:29:12.886Z</time>
      </trkpt>
      <trkpt lat="45.97274" lon="4.71696">
        <ele>195.100006104</ele>
        <time>2016-02-26T11:29:13.865Z</time>
      </trkpt>
      <trkpt lat="45.97267" lon="4.71695">
        <ele>195</ele>
        <time>2016-02-26T11:29:14.893Z</time>
      </trkpt>
      <trkpt lat="45.97259" lon="4.71693">
        <ele>194.800003052</ele>
        <time>2016-02-26T11:29:15.865Z</time>
      </trkpt>
      <trkpt lat="45.97253" lon="4.71692">
        <ele>194.300003052</ele>
        <time>2016-02-26T11:29:16.9Z</time>
      </trkpt>
      <trkpt lat="45.97246" lon="4.71691">
        <ele>194</ele>
        <time>2016-02-26T11:29:17.945Z</time>
      </trkpt>
      <trkpt lat="45.97239" lon="4.7169">
        <ele>193.800003052</ele>
        <time>2016-02-26T11:29:18.885Z</time>
      </trkpt>
      <trkpt lat="45.97232" lon="4.71689">
        <ele>193.5</ele>
        <time>2016-02-26T11:29:19.865Z</time>
      </trkpt>
      <trkpt lat="45.97225" lon="4.71689">
        <ele>193.399993896</ele>
        <time>2016-02-26T11:29:20.886Z</time>
      </trkpt>
      <trkpt lat="45.97219" lon="4.71689">
        <ele>193.199996948</ele>
        <time>2016-02-26T11:29:21.865Z</time>
      </trkpt>
      <trkpt lat="45.97213" lon="4.71688">
        <ele>193</ele>
        <time>2016-02-26T11:29:22.885Z</time>
      </trkpt>
      <trkpt lat="45.97207" lon="4.71688">
        <ele>193.100006104</ele>
        <time>2016-02-26T11:29:23.863Z</time>
      </trkpt>
      <trkpt lat="45.97201" lon="4.71688">
        <ele>193.100006104</ele>
        <time>2016-02-26T11:29:24.886Z</time>
      </trkpt>
      <trkpt lat="45.97194" lon="4.71687">
        <ele>193.5</ele>
        <time>2016-02-26T11:29:25.919Z</time>
      </trkpt>
      <trkpt lat="45.97188" lon="4.71687">
        <ele>193.699996948</ele>
        <time>2016-02-26T11:29:26.884Z</time>
      </trkpt>
      <trkpt lat="45.97181" lon="4.71687">
        <ele>193.699996948</ele>
        <time>2016-02-26T11:29:27.865Z</time>
      </trkpt>
      <trkpt lat="45.97175" lon="4.71686">
        <ele>193.100006104</ele>
        <time>2016-02-26T11:29:28.884Z</time>
      </trkpt>
      <trkpt lat="45.97168" lon="4.71685">
        <ele>193.300003052</ele>
        <time>2016-02-26T11:29:29.866Z</time>
      </trkpt>
      <trkpt lat="45.97161" lon="4.71684">
        <ele>193.199996948</ele>
        <time>2016-02-26T11:29:30.887Z</time>
      </trkpt>
      <trkpt lat="45.97155" lon="4.71684">
        <ele>193.100006104</ele>
        <time>2016-02-26T11:29:31.865Z</time>
      </trkpt>
      <trkpt lat="45.97148" lon="4.71683">
        <ele>192.699996948</ele>
        <time>2016-02-26T11:29:32.905Z</time>
      </trkpt>
      <trkpt lat="45.9714" lon="4.71682">
        <ele>192.100006104</ele>
        <time>2016-02-26T11:29:33.866Z</time>
      </trkpt>
      <trkpt lat="45.97133" lon="4.71681">
        <ele>192</ele>
        <time>2016-02-26T11:29:34.883Z</time>
      </trkpt>
      <trkpt lat="45.97125" lon="4.71681">
        <ele>192.300003052</ele>
        <time>2016-02-26T11:29:35.872Z</time>
      </trkpt>
      <trkpt lat="45.97117" lon="4.71681">
        <ele>192.300003052</ele>
        <time>2016-02-26T11:29:36.886Z</time>
      </trkpt>
      <trkpt lat="45.97109" lon="4.71681">
        <ele>193.199996948</ele>
        <time>2016-02-26T11:29:37.863Z</time>
      </trkpt>
      <trkpt lat="45.97101" lon="4.7168">
        <ele>193.800003052</ele>
        <time>2016-02-26T11:29:38.899Z</time>
      </trkpt>
      <trkpt lat="45.97093" lon="4.71679">
        <ele>194.100006104</ele>
        <time>2016-02-26T11:29:39.863Z</time>
      </trkpt>
      <trkpt lat="45.97085" lon="4.71678">
        <ele>193.699996948</ele>
        <time>2016-02-26T11:29:40.884Z</time>
      </trkpt>
      <trkpt lat="45.97078" lon="4.71676">
        <ele>193.699996948</ele>
        <time>2016-02-26T11:29:41.863Z</time>
      </trkpt>
      <trkpt lat="45.9707" lon="4.71675">
        <ele>193.600006104</ele>
        <time>2016-02-26T11:29:42.919Z</time>
      </trkpt>
      <trkpt lat="45.97063" lon="4.71674">
        <ele>193.600006104</ele>
        <time>2016-02-26T11:29:43.865Z</time>
      </trkpt>
      <trkpt lat="45.97055" lon="4.71672">
        <ele>193.600006104</ele>
        <time>2016-02-26T11:29:44.884Z</time>
      </trkpt>
      <trkpt lat="45.97048" lon="4.71672">
        <ele>193.300003052</ele>
        <time>2016-02-26T11:29:45.868Z</time>
      </trkpt>
      <trkpt lat="45.9704" lon="4.71671">
        <ele>193.199996948</ele>
        <time>2016-02-26T11:29:46.89Z</time>
      </trkpt>
      <trkpt lat="45.97033" lon="4.7167">
        <ele>193.100006104</ele>
        <time>2016-02-26T11:29:47.879Z</time>
      </trkpt>
      <trkpt lat="45.97026" lon="4.7167">
        <ele>192.899993896</ele>
        <time>2016-02-26T11:29:48.955Z</time>
      </trkpt>
      <trkpt lat="45.97019" lon="4.7167">
        <ele>192.300003052</ele>
        <time>2016-02-26T11:29:49.863Z</time>
      </trkpt>
      <trkpt lat="45.97012" lon="4.7167">
        <ele>192</ele>
        <time>2016-02-26T11:29:50.885Z</time>
      </trkpt>
      <trkpt lat="45.97004" lon="4.7167">
        <ele>192</ele>
        <time>2016-02-26T11:29:51.864Z</time>
      </trkpt>
      <trkpt lat="45.96998" lon="4.7167">
        <ele>192</ele>
        <time>2016-02-26T11:29:52.885Z</time>
      </trkpt>
      <trkpt lat="45.9699" lon="4.7167">
        <ele>191.800003052</ele>
        <time>2016-02-26T11:29:53.865Z</time>
      </trkpt>
      <trkpt lat="45.96983" lon="4.7167">
        <ele>191.5</ele>
        <time>2016-02-26T11:29:54.885Z</time>
      </trkpt>
      <trkpt lat="45.96976" lon="4.7167">
        <ele>190.699996948</ele>
        <time>2016-02-26T11:29:55.864Z</time>
      </trkpt>
      <trkpt lat="45.96968" lon="4.7167">
        <ele>190.800003052</ele>
        <time>2016-02-26T11:29:56.887Z</time>
      </trkpt>
      <trkpt lat="45.96961" lon="4.7167">
        <ele>190.100006104</ele>
        <time>2016-02-26T11:29:57.865Z</time>
      </trkpt>
      <trkpt lat="45.96954" lon="4.71669">
        <ele>189.800003052</ele>
        <time>2016-02-26T11:29:58.885Z</time>
      </trkpt>
      <trkpt lat="45.96947" lon="4.71668">
        <ele>189.899993896</ele>
        <time>2016-02-26T11:29:59.865Z</time>
      </trkpt>
      <trkpt lat="45.9694" lon="4.71667">
        <ele>189.899993896</ele>
        <time>2016-02-26T11:30:00.894Z</time>
      </trkpt>
      <trkpt lat="45.96933" lon="4.71667">
        <ele>189.600006104</ele>
        <time>2016-02-26T11:30:01.863Z</time>
      </trkpt>
      <trkpt lat="45.96926" lon="4.71667">
        <ele>189.600006104</ele>
        <time>2016-02-26T11:30:02.886Z</time>
      </trkpt>
      <trkpt lat="45.96919" lon="4.71666">
        <ele>189.800003052</ele>
        <time>2016-02-26T11:30:03.867Z</time>
      </trkpt>
      <trkpt lat="45.96911" lon="4.71666">
        <ele>189.699996948</ele>
        <time>2016-02-26T11:30:04.882Z</time>
      </trkpt>
      <trkpt lat="45.96904" lon="4.71665">
        <ele>189.5</ele>
        <time>2016-02-26T11:30:05.866Z</time>
      </trkpt>
      <trkpt lat="45.96897" lon="4.71664">
        <ele>189.699996948</ele>
        <time>2016-02-26T11:30:06.892Z</time>
      </trkpt>
      <trkpt lat="45.96889" lon="4.71664">
        <ele>189.5</ele>
        <time>2016-02-26T11:30:07.865Z</time>
      </trkpt>
      <trkpt lat="45.96881" lon="4.71663">
        <ele>189.5</ele>
        <time>2016-02-26T11:30:08.901Z</time>
      </trkpt>
      <trkpt lat="45.96873" lon="4.71662">
        <ele>189.100006104</ele>
        <time>2016-02-26T11:30:09.863Z</time>
      </trkpt>
      <trkpt lat="45.96865" lon="4.71661">
        <ele>188.600006104</ele>
        <time>2016-02-26T11:30:10.883Z</time>
      </trkpt>
      <trkpt lat="45.96857" lon="4.7166">
        <ele>188.5</ele>
        <time>2016-02-26T11:30:11.868Z</time>
      </trkpt>
      <trkpt lat="45.9685" lon="4.71659">
        <ele>188.600006104</ele>
        <time>2016-02-26T11:30:12.889Z</time>
      </trkpt>
      <trkpt lat="45.96842" lon="4.71658">
        <ele>188.800003052</ele>
        <time>2016-02-26T11:30:13.863Z</time>
      </trkpt>
      <trkpt lat="45.96834" lon="4.71657">
        <ele>188.800003052</ele>
        <time>2016-02-26T11:30:15.15Z</time>
      </trkpt>
      <trkpt lat="45.96827" lon="4.71655">
        <ele>188.5</ele>
        <time>2016-02-26T11:30:15.867Z</time>
      </trkpt>
      <trkpt lat="45.9682" lon="4.71654">
        <ele>188.699996948</ele>
        <time>2016-02-26T11:30:16.888Z</time>
      </trkpt>
      <trkpt lat="45.96812" lon="4.71653">
        <ele>188.600006104</ele>
        <time>2016-02-26T11:30:17.889Z</time>
      </trkpt>
      <trkpt lat="45.96804" lon="4.71651">
        <ele>188.5</ele>
        <time>2016-02-26T11:30:18.885Z</time>
      </trkpt>
      <trkpt lat="45.96796" lon="4.7165">
        <ele>188.699996948</ele>
        <time>2016-02-26T11:30:19.865Z</time>
      </trkpt>
      <trkpt lat="45.96788" lon="4.71649">
        <ele>189</ele>
        <time>2016-02-26T11:30:20.887Z</time>
      </trkpt>
      <trkpt lat="45.96779" lon="4.71648">
        <ele>189.199996948</ele>
        <time>2016-02-26T11:30:21.865Z</time>
      </trkpt>
      <trkpt lat="45.96771" lon="4.71646">
        <ele>189.199996948</ele>
        <time>2016-02-26T11:30:22.888Z</time>
      </trkpt>
      <trkpt lat="45.96763" lon="4.71645">
        <ele>189.399993896</ele>
        <time>2016-02-26T11:30:23.863Z</time>
      </trkpt>
      <trkpt lat="45.96755" lon="4.71643">
        <ele>189.100006104</ele>
        <time>2016-02-26T11:30:24.952Z</time>
      </trkpt>
      <trkpt lat="45.96747" lon="4.71642">
        <ele>188.600006104</ele>
        <time>2016-02-26T11:30:25.866Z</time>
      </trkpt>
      <trkpt lat="45.96739" lon="4.71641">
        <ele>188.300003052</ele>
        <time>2016-02-26T11:30:26.885Z</time>
      </trkpt>
      <trkpt lat="45.96731" lon="4.7164">
        <ele>188.300003052</ele>
        <time>2016-02-26T11:30:27.865Z</time>
      </trkpt>
      <trkpt lat="45.96723" lon="4.71639">
        <ele>187.5</ele>
        <time>2016-02-26T11:30:28.883Z</time>
      </trkpt>
      <trkpt lat="45.96716" lon="4.71638">
        <ele>187.199996948</ele>
        <time>2016-02-26T11:30:29.865Z</time>
      </trkpt>
      <trkpt lat="45.96708" lon="4.71636">
        <ele>187.100006104</ele>
        <time>2016-02-26T11:30:30.885Z</time>
      </trkpt>
      <trkpt lat="45.96701" lon="4.71635">
        <ele>186.600006104</ele>
        <time>2016-02-26T11:30:31.865Z</time>
      </trkpt>
      <trkpt lat="45.96694" lon="4.71634">
        <ele>186.300003052</ele>
        <time>2016-02-26T11:30:32.884Z</time>
      </trkpt>
      <trkpt lat="45.96687" lon="4.71632">
        <ele>186.199996948</ele>
        <time>2016-02-26T11:30:33.865Z</time>
      </trkpt>
      <trkpt lat="45.9668" lon="4.71631">
        <ele>186</ele>
        <time>2016-02-26T11:30:34.885Z</time>
      </trkpt>
      <trkpt lat="45.96673" lon="4.7163">
        <ele>186.100006104</ele>
        <time>2016-02-26T11:30:35.864Z</time>
      </trkpt>
      <trkpt lat="45.96666" lon="4.7163">
        <ele>186.199996948</ele>
        <time>2016-02-26T11:30:36.887Z</time>
      </trkpt>
      <trkpt lat="45.96659" lon="4.71629">
        <ele>186.199996948</ele>
        <time>2016-02-26T11:30:38.005Z</time>
      </trkpt>
      <trkpt lat="45.96653" lon="4.71628">
        <ele>186.100006104</ele>
        <time>2016-02-26T11:30:38.904Z</time>
      </trkpt>
      <trkpt lat="45.96646" lon="4.71626">
        <ele>186</ele>
        <time>2016-02-26T11:30:39.866Z</time>
      </trkpt>
      <trkpt lat="45.96639" lon="4.71625">
        <ele>186</ele>
        <time>2016-02-26T11:30:40.883Z</time>
      </trkpt>
      <trkpt lat="45.96632" lon="4.71623">
        <ele>186.399993896</ele>
        <time>2016-02-26T11:30:41.865Z</time>
      </trkpt>
      <trkpt lat="45.96624" lon="4.71622">
        <ele>186.300003052</ele>
        <time>2016-02-26T11:30:42.885Z</time>
      </trkpt>
      <trkpt lat="45.96618" lon="4.71621">
        <ele>186.300003052</ele>
        <time>2016-02-26T11:30:43.866Z</time>
      </trkpt>
      <trkpt lat="45.9661" lon="4.71619">
        <ele>186.399993896</ele>
        <time>2016-02-26T11:30:44.888Z</time>
      </trkpt>
      <trkpt lat="45.96603" lon="4.71618">
        <ele>186.399993896</ele>
        <time>2016-02-26T11:30:45.865Z</time>
      </trkpt>
      <trkpt lat="45.96595" lon="4.71617">
        <ele>186.199996948</ele>
        <time>2016-02-26T11:30:46.893Z</time>
      </trkpt>
      <trkpt lat="45.96587" lon="4.71616">
        <ele>186.300003052</ele>
        <time>2016-02-26T11:30:47.865Z</time>
      </trkpt>
      <trkpt lat="45.96579" lon="4.71615">
        <ele>186.199996948</ele>
        <time>2016-02-26T11:30:49.047Z</time>
      </trkpt>
      <trkpt lat="45.96572" lon="4.71613">
        <ele>186.199996948</ele>
        <time>2016-02-26T11:30:49.865Z</time>
      </trkpt>
      <trkpt lat="45.96564" lon="4.71612">
        <ele>186.100006104</ele>
        <time>2016-02-26T11:30:50.959Z</time>
      </trkpt>
      <trkpt lat="45.96558" lon="4.71611">
        <ele>186</ele>
        <time>2016-02-26T11:30:51.865Z</time>
      </trkpt>
      <trkpt lat="45.96551" lon="4.71608">
        <ele>186</ele>
        <time>2016-02-26T11:30:52.886Z</time>
      </trkpt>
      <trkpt lat="45.96544" lon="4.71604">
        <ele>186</ele>
        <time>2016-02-26T11:30:53.863Z</time>
      </trkpt>
      <trkpt lat="45.96538" lon="4.716">
        <ele>185.899993896</ele>
        <time>2016-02-26T11:30:54.887Z</time>
      </trkpt>
      <trkpt lat="45.96531" lon="4.71598">
        <ele>185.5</ele>
        <time>2016-02-26T11:30:55.864Z</time>
      </trkpt>
      <trkpt lat="45.96525" lon="4.71598">
        <ele>185.199996948</ele>
        <time>2016-02-26T11:30:56.884Z</time>
      </trkpt>
      <trkpt lat="45.96519" lon="4.71599">
        <ele>185</ele>
        <time>2016-02-26T11:30:57.865Z</time>
      </trkpt>
      <trkpt lat="45.96512" lon="4.71601">
        <ele>185.199996948</ele>
        <time>2016-02-26T11:30:58.885Z</time>
      </trkpt>
      <trkpt lat="45.96506" lon="4.71603">
        <ele>185.199996948</ele>
        <time>2016-02-26T11:30:59.865Z</time>
      </trkpt>
      <trkpt lat="45.96498" lon="4.71602">
        <ele>185.100006104</ele>
        <time>2016-02-26T11:31:01.154Z</time>
      </trkpt>
      <trkpt lat="45.96491" lon="4.71601">
        <ele>184.899993896</ele>
        <time>2016-02-26T11:31:01.865Z</time>
      </trkpt>
      <trkpt lat="45.96484" lon="4.71599">
        <ele>184.800003052</ele>
        <time>2016-02-26T11:31:02.905Z</time>
      </trkpt>
      <trkpt lat="45.96477" lon="4.71598">
        <ele>184.5</ele>
        <time>2016-02-26T11:31:03.865Z</time>
      </trkpt>
      <trkpt lat="45.9647" lon="4.71597">
        <ele>184.5</ele>
        <time>2016-02-26T11:31:04.889Z</time>
      </trkpt>
      <trkpt lat="45.96463" lon="4.71597">
        <ele>184.399993896</ele>
        <time>2016-02-26T11:31:05.866Z</time>
      </trkpt>
      <trkpt lat="45.96456" lon="4.71595">
        <ele>184.600006104</ele>
        <time>2016-02-26T11:31:06.886Z</time>
      </trkpt>
      <trkpt lat="45.96448" lon="4.71594">
        <ele>184.699996948</ele>
        <time>2016-02-26T11:31:07.867Z</time>
      </trkpt>
      <trkpt lat="45.96441" lon="4.71593">
        <ele>185</ele>
        <time>2016-02-26T11:31:08.886Z</time>
      </trkpt>
      <trkpt lat="45.96433" lon="4.71592">
        <ele>185.199996948</ele>
        <time>2016-02-26T11:31:09.865Z</time>
      </trkpt>
      <trkpt lat="45.96426" lon="4.71591">
        <ele>185.399993896</ele>
        <time>2016-02-26T11:31:10.885Z</time>
      </trkpt>
      <trkpt lat="45.96417" lon="4.71589">
        <ele>185.300003052</ele>
        <time>2016-02-26T11:31:11.881Z</time>
      </trkpt>
      <trkpt lat="45.9641" lon="4.71588">
        <ele>185.300003052</ele>
        <time>2016-02-26T11:31:12.887Z</time>
      </trkpt>
      <trkpt lat="45.96403" lon="4.71587">
        <ele>185</ele>
        <time>2016-02-26T11:31:13.863Z</time>
      </trkpt>
      <trkpt lat="45.96395" lon="4.71585">
        <ele>184.899993896</ele>
        <time>2016-02-26T11:31:14.885Z</time>
      </trkpt>
      <trkpt lat="45.96388" lon="4.71584">
        <ele>185.100006104</ele>
        <time>2016-02-26T11:31:15.863Z</time>
      </trkpt>
      <trkpt lat="45.9638" lon="4.71583">
        <ele>185.300003052</ele>
        <time>2016-02-26T11:31:16.936Z</time>
      </trkpt>
      <trkpt lat="45.96373" lon="4.71582">
        <ele>185.399993896</ele>
        <time>2016-02-26T11:31:17.865Z</time>
      </trkpt>
      <trkpt lat="45.96366" lon="4.7158">
        <ele>185.699996948</ele>
        <time>2016-02-26T11:31:18.885Z</time>
      </trkpt>
      <trkpt lat="45.9636" lon="4.71579">
        <ele>185.699996948</ele>
        <time>2016-02-26T11:31:19.863Z</time>
      </trkpt>
      <trkpt lat="45.96353" lon="4.71578">
        <ele>185.199996948</ele>
        <time>2016-02-26T11:31:20.884Z</time>
      </trkpt>
      <trkpt lat="45.96345" lon="4.71577">
        <ele>184.5</ele>
        <time>2016-02-26T11:31:21.863Z</time>
      </trkpt>
      <trkpt lat="45.96338" lon="4.71576">
        <ele>184.399993896</ele>
        <time>2016-02-26T11:31:22.894Z</time>
      </trkpt>
      <trkpt lat="45.9633" lon="4.71575">
        <ele>184.199996948</ele>
        <time>2016-02-26T11:31:23.863Z</time>
      </trkpt>
      <trkpt lat="45.96322" lon="4.71573">
        <ele>184.600006104</ele>
        <time>2016-02-26T11:31:24.886Z</time>
      </trkpt>
      <trkpt lat="45.96315" lon="4.71573">
        <ele>184</ele>
        <time>2016-02-26T11:31:25.865Z</time>
      </trkpt>
      <trkpt lat="45.96307" lon="4.71572">
        <ele>183.899993896</ele>
        <time>2016-02-26T11:31:26.908Z</time>
      </trkpt>
      <trkpt lat="45.96299" lon="4.71571">
        <ele>183.699996948</ele>
        <time>2016-02-26T11:31:27.865Z</time>
      </trkpt>
      <trkpt lat="45.96291" lon="4.7157">
        <ele>183.800003052</ele>
        <time>2016-02-26T11:31:28.885Z</time>
      </trkpt>
      <trkpt lat="45.96284" lon="4.71569">
        <ele>183.899993896</ele>
        <time>2016-02-26T11:31:29.867Z</time>
      </trkpt>
      <trkpt lat="45.96277" lon="4.71568">
        <ele>183.899993896</ele>
        <time>2016-02-26T11:31:30.89Z</time>
      </trkpt>
      <trkpt lat="45.9627" lon="4.71567">
        <ele>183.600006104</ele>
        <time>2016-02-26T11:31:31.865Z</time>
      </trkpt>
      <trkpt lat="45.96263" lon="4.71565">
        <ele>183.899993896</ele>
        <time>2016-02-26T11:31:32.892Z</time>
      </trkpt>
      <trkpt lat="45.96256" lon="4.71564">
        <ele>183.800003052</ele>
        <time>2016-02-26T11:31:33.864Z</time>
      </trkpt>
      <trkpt lat="45.96249" lon="4.71563">
        <ele>183.5</ele>
        <time>2016-02-26T11:31:34.885Z</time>
      </trkpt>
      <trkpt lat="45.96243" lon="4.71561">
        <ele>183.399993896</ele>
        <time>2016-02-26T11:31:35.918Z</time>
      </trkpt>
      <trkpt lat="45.96236" lon="4.7156">
        <ele>183.600006104</ele>
        <time>2016-02-26T11:31:36.886Z</time>
      </trkpt>
      <trkpt lat="45.96229" lon="4.71559">
        <ele>183.699996948</ele>
        <time>2016-02-26T11:31:37.882Z</time>
      </trkpt>
      <trkpt lat="45.96222" lon="4.71558">
        <ele>183.699996948</ele>
        <time>2016-02-26T11:31:38.885Z</time>
      </trkpt>
      <trkpt lat="45.96215" lon="4.71557">
        <ele>183.5</ele>
        <time>2016-02-26T11:31:39.863Z</time>
      </trkpt>
      <trkpt lat="45.96208" lon="4.71556">
        <ele>183.199996948</ele>
        <time>2016-02-26T11:31:40.885Z</time>
      </trkpt>
      <trkpt lat="45.96202" lon="4.71554">
        <ele>183.399993896</ele>
        <time>2016-02-26T11:31:41.863Z</time>
      </trkpt>
      <trkpt lat="45.96195" lon="4.71553">
        <ele>183.600006104</ele>
        <time>2016-02-26T11:31:42.903Z</time>
      </trkpt>
      <trkpt lat="45.96188" lon="4.71551">
        <ele>184.5</ele>
        <time>2016-02-26T11:31:43.865Z</time>
      </trkpt>
      <trkpt lat="45.96182" lon="4.7155">
        <ele>185.300003052</ele>
        <time>2016-02-26T11:31:44.885Z</time>
      </trkpt>
      <trkpt lat="45.96176" lon="4.71548">
        <ele>185</ele>
        <time>2016-02-26T11:31:45.865Z</time>
      </trkpt>
      <trkpt lat="45.9617" lon="4.71547">
        <ele>184.899993896</ele>
        <time>2016-02-26T11:31:46.883Z</time>
      </trkpt>
      <trkpt lat="45.96164" lon="4.71546">
        <ele>185.100006104</ele>
        <time>2016-02-26T11:31:47.889Z</time>
      </trkpt>
      <trkpt lat="45.96158" lon="4.71545">
        <ele>185.100006104</ele>
        <time>2016-02-26T11:31:48.887Z</time>
      </trkpt>
      <trkpt lat="45.96152" lon="4.71545">
        <ele>184.899993896</ele>
        <time>2016-02-26T11:31:49.863Z</time>
      </trkpt>
      <trkpt lat="45.96146" lon="4.71544">
        <ele>185</ele>
        <time>2016-02-26T11:31:50.884Z</time>
      </trkpt>
      <trkpt lat="45.9614" lon="4.71543">
        <ele>185.300003052</ele>
        <time>2016-02-26T11:31:51.863Z</time>
      </trkpt>
      <trkpt lat="45.96134" lon="4.71542">
        <ele>185.600006104</ele>
        <time>2016-02-26T11:31:52.891Z</time>
      </trkpt>
      <trkpt lat="45.96128" lon="4.71541">
        <ele>185.699996948</ele>
        <time>2016-02-26T11:31:53.865Z</time>
      </trkpt>
      <trkpt lat="45.96121" lon="4.7154">
        <ele>185.5</ele>
        <time>2016-02-26T11:31:54.885Z</time>
      </trkpt>
      <trkpt lat="45.96115" lon="4.71538">
        <ele>185.5</ele>
        <time>2016-02-26T11:31:55.868Z</time>
      </trkpt>
      <trkpt lat="45.9611" lon="4.71537">
        <ele>185.5</ele>
        <time>2016-02-26T11:31:56.887Z</time>
      </trkpt>
      <trkpt lat="45.96104" lon="4.71536">
        <ele>185.399993896</ele>
        <time>2016-02-26T11:31:57.865Z</time>
      </trkpt>
      <trkpt lat="45.96098" lon="4.71535">
        <ele>185.300003052</ele>
        <time>2016-02-26T11:31:59.066Z</time>
      </trkpt>
      <trkpt lat="45.96092" lon="4.71535">
        <ele>185.399993896</ele>
        <time>2016-02-26T11:31:59.863Z</time>
      </trkpt>
      <trkpt lat="45.96086" lon="4.71534">
        <ele>185.600006104</ele>
        <time>2016-02-26T11:32:00.89Z</time>
      </trkpt>
      <trkpt lat="45.9608" lon="4.71533">
        <ele>185.5</ele>
        <time>2016-02-26T11:32:01.863Z</time>
      </trkpt>
      <trkpt lat="45.96074" lon="4.71531">
        <ele>185.5</ele>
        <time>2016-02-26T11:32:02.884Z</time>
      </trkpt>
      <trkpt lat="45.96068" lon="4.7153">
        <ele>185.5</ele>
        <time>2016-02-26T11:32:03.863Z</time>
      </trkpt>
      <trkpt lat="45.96062" lon="4.71529">
        <ele>185.600006104</ele>
        <time>2016-02-26T11:32:04.883Z</time>
      </trkpt>
      <trkpt lat="45.96056" lon="4.71528">
        <ele>185.300003052</ele>
        <time>2016-02-26T11:32:05.863Z</time>
      </trkpt>
      <trkpt lat="45.9605" lon="4.71527">
        <ele>185.399993896</ele>
        <time>2016-02-26T11:32:06.885Z</time>
      </trkpt>
      <trkpt lat="45.96043" lon="4.71525">
        <ele>185.300003052</ele>
        <time>2016-02-26T11:32:07.865Z</time>
      </trkpt>
      <trkpt lat="45.96037" lon="4.71524">
        <ele>185.199996948</ele>
        <time>2016-02-26T11:32:08.884Z</time>
      </trkpt>
      <trkpt lat="45.96031" lon="4.71523">
        <ele>185.300003052</ele>
        <time>2016-02-26T11:32:09.863Z</time>
      </trkpt>
      <trkpt lat="45.96026" lon="4.71522">
        <ele>185.399993896</ele>
        <time>2016-02-26T11:32:10.882Z</time>
      </trkpt>
      <trkpt lat="45.9602" lon="4.71522">
        <ele>185.199996948</ele>
        <time>2016-02-26T11:32:11.863Z</time>
      </trkpt>
      <trkpt lat="45.96014" lon="4.7152">
        <ele>185.100006104</ele>
        <time>2016-02-26T11:32:12.92Z</time>
      </trkpt>
      <trkpt lat="45.96009" lon="4.71519">
        <ele>185.300003052</ele>
        <time>2016-02-26T11:32:13.865Z</time>
      </trkpt>
      <trkpt lat="45.96003" lon="4.71517">
        <ele>185.300003052</ele>
        <time>2016-02-26T11:32:14.884Z</time>
      </trkpt>
      <trkpt lat="45.95998" lon="4.71514">
        <ele>185.100006104</ele>
        <time>2016-02-26T11:32:15.865Z</time>
      </trkpt>
      <trkpt lat="45.95993" lon="4.71511">
        <ele>185.199996948</ele>
        <time>2016-02-26T11:32:16.883Z</time>
      </trkpt>
      <trkpt lat="45.95988" lon="4.71509">
        <ele>185.100006104</ele>
        <time>2016-02-26T11:32:17.863Z</time>
      </trkpt>
      <trkpt lat="45.95982" lon="4.71508">
        <ele>184.899993896</ele>
        <time>2016-02-26T11:32:18.894Z</time>
      </trkpt>
      <trkpt lat="45.95976" lon="4.71509">
        <ele>184.699996948</ele>
        <time>2016-02-26T11:32:19.867Z</time>
      </trkpt>
      <trkpt lat="45.9597" lon="4.71512">
        <ele>184.300003052</ele>
        <time>2016-02-26T11:32:20.886Z</time>
      </trkpt>
      <trkpt lat="45.95964" lon="4.71515">
        <ele>184.199996948</ele>
        <time>2016-02-26T11:32:21.866Z</time>
      </trkpt>
      <trkpt lat="45.95957" lon="4.71517">
        <ele>183.899993896</ele>
        <time>2016-02-26T11:32:22.89Z</time>
      </trkpt>
      <trkpt lat="45.9595" lon="4.71519">
        <ele>183.300003052</ele>
        <time>2016-02-26T11:32:23.864Z</time>
      </trkpt>
      <trkpt lat="45.95942" lon="4.71519">
        <ele>183</ele>
        <time>2016-02-26T11:32:24.905Z</time>
      </trkpt>
      <trkpt lat="45.95935" lon="4.71519">
        <ele>182.800003052</ele>
        <time>2016-02-26T11:32:25.864Z</time>
      </trkpt>
      <trkpt lat="45.95927" lon="4.71519">
        <ele>182.800003052</ele>
        <time>2016-02-26T11:32:26.884Z</time>
      </trkpt>
      <trkpt lat="45.9592" lon="4.71519">
        <ele>182.399993896</ele>
        <time>2016-02-26T11:32:27.865Z</time>
      </trkpt>
      <trkpt lat="45.95912" lon="4.71519">
        <ele>182.300003052</ele>
        <time>2016-02-26T11:32:28.883Z</time>
      </trkpt>
      <trkpt lat="45.95905" lon="4.71518">
        <ele>182.399993896</ele>
        <time>2016-02-26T11:32:29.864Z</time>
      </trkpt>
      <trkpt lat="45.95897" lon="4.71518">
        <ele>182.100006104</ele>
        <time>2016-02-26T11:32:30.885Z</time>
      </trkpt>
      <trkpt lat="45.9589" lon="4.71518">
        <ele>182</ele>
        <time>2016-02-26T11:32:31.853Z</time>
      </trkpt>
      <trkpt lat="45.95883" lon="4.71517">
        <ele>182</ele>
        <time>2016-02-26T11:32:32.905Z</time>
      </trkpt>
      <trkpt lat="45.95875" lon="4.71517">
        <ele>182</ele>
        <time>2016-02-26T11:32:33.864Z</time>
      </trkpt>
      <trkpt lat="45.95868" lon="4.71517">
        <ele>181.899993896</ele>
        <time>2016-02-26T11:32:34.893Z</time>
      </trkpt>
      <trkpt lat="45.95861" lon="4.71517">
        <ele>181.800003052</ele>
        <time>2016-02-26T11:32:35.865Z</time>
      </trkpt>
      <trkpt lat="45.95853" lon="4.71517">
        <ele>181.600006104</ele>
        <time>2016-02-26T11:32:36.884Z</time>
      </trkpt>
      <trkpt lat="45.95846" lon="4.71516">
        <ele>181.5</ele>
        <time>2016-02-26T11:32:37.863Z</time>
      </trkpt>
      <trkpt lat="45.95839" lon="4.71516">
        <ele>181.399993896</ele>
        <time>2016-02-26T11:32:38.884Z</time>
      </trkpt>
      <trkpt lat="45.95832" lon="4.71515">
        <ele>181.199996948</ele>
        <time>2016-02-26T11:32:39.863Z</time>
      </trkpt>
      <trkpt lat="45.95824" lon="4.71515">
        <ele>181.199996948</ele>
        <time>2016-02-26T11:32:40.9Z</time>
      </trkpt>
      <trkpt lat="45.95816" lon="4.71515">
        <ele>181.199996948</ele>
        <time>2016-02-26T11:32:41.863Z</time>
      </trkpt>
      <trkpt lat="45.95809" lon="4.71514">
        <ele>180.899993896</ele>
        <time>2016-02-26T11:32:42.885Z</time>
      </trkpt>
      <trkpt lat="45.95801" lon="4.71514">
        <ele>180.399993896</ele>
        <time>2016-02-26T11:32:43.863Z</time>
      </trkpt>
      <trkpt lat="45.95793" lon="4.71514">
        <ele>179.899993896</ele>
        <time>2016-02-26T11:32:44.926Z</time>
      </trkpt>
      <trkpt lat="45.95785" lon="4.71513">
        <ele>179.699996948</ele>
        <time>2016-02-26T11:32:45.865Z</time>
      </trkpt>
      <trkpt lat="45.95777" lon="4.71512">
        <ele>179.399993896</ele>
        <time>2016-02-26T11:32:46.885Z</time>
      </trkpt>
      <trkpt lat="45.95768" lon="4.71512">
        <ele>179.300003052</ele>
        <time>2016-02-26T11:32:47.87Z</time>
      </trkpt>
      <trkpt lat="45.9576" lon="4.71512">
        <ele>179</ele>
        <time>2016-02-26T11:32:48.888Z</time>
      </trkpt>
      <trkpt lat="45.95752" lon="4.71511">
        <ele>178.800003052</ele>
        <time>2016-02-26T11:32:49.863Z</time>
      </trkpt>
      <trkpt lat="45.95744" lon="4.71511">
        <ele>178.600006104</ele>
        <time>2016-02-26T11:32:50.919Z</time>
      </trkpt>
      <trkpt lat="45.95735" lon="4.7151">
        <ele>178.399993896</ele>
        <time>2016-02-26T11:32:51.865Z</time>
      </trkpt>
      <trkpt lat="45.95727" lon="4.7151">
        <ele>178.199996948</ele>
        <time>2016-02-26T11:32:52.883Z</time>
      </trkpt>
      <trkpt lat="45.95719" lon="4.71509">
        <ele>178.100006104</ele>
        <time>2016-02-26T11:32:53.865Z</time>
      </trkpt>
      <trkpt lat="45.95711" lon="4.71509">
        <ele>177.899993896</ele>
        <time>2016-02-26T11:32:54.885Z</time>
      </trkpt>
      <trkpt lat="45.95703" lon="4.71508">
        <ele>177.800003052</ele>
        <time>2016-02-26T11:32:55.861Z</time>
      </trkpt>
      <trkpt lat="45.95695" lon="4.71508">
        <ele>177.600006104</ele>
        <time>2016-02-26T11:32:56.886Z</time>
      </trkpt>
      <trkpt lat="45.95687" lon="4.71507">
        <ele>177.300003052</ele>
        <time>2016-02-26T11:32:57.863Z</time>
      </trkpt>
      <trkpt lat="45.95679" lon="4.71506">
        <ele>177.300003052</ele>
        <time>2016-02-26T11:32:58.883Z</time>
      </trkpt>
      <trkpt lat="45.95671" lon="4.71505">
        <ele>177.199996948</ele>
        <time>2016-02-26T11:32:59.865Z</time>
      </trkpt>
      <trkpt lat="45.95663" lon="4.71505">
        <ele>176.899993896</ele>
        <time>2016-02-26T11:33:00.9Z</time>
      </trkpt>
      <trkpt lat="45.95655" lon="4.71504">
        <ele>176.699996948</ele>
        <time>2016-02-26T11:33:01.865Z</time>
      </trkpt>
      <trkpt lat="45.95647" lon="4.71504">
        <ele>176.600006104</ele>
        <time>2016-02-26T11:33:02.884Z</time>
      </trkpt>
      <trkpt lat="45.95639" lon="4.71503">
        <ele>176.399993896</ele>
        <time>2016-02-26T11:33:03.863Z</time>
      </trkpt>
      <trkpt lat="45.95631" lon="4.71503">
        <ele>176.399993896</ele>
        <time>2016-02-26T11:33:04.89Z</time>
      </trkpt>
      <trkpt lat="45.95622" lon="4.71502">
        <ele>176.199996948</ele>
        <time>2016-02-26T11:33:05.865Z</time>
      </trkpt>
      <trkpt lat="45.95614" lon="4.71501">
        <ele>175.699996948</ele>
        <time>2016-02-26T11:33:06.91Z</time>
      </trkpt>
      <trkpt lat="45.95606" lon="4.71501">
        <ele>175.600006104</ele>
        <time>2016-02-26T11:33:07.862Z</time>
      </trkpt>
      <trkpt lat="45.95598" lon="4.71501">
        <ele>175.399993896</ele>
        <time>2016-02-26T11:33:08.918Z</time>
      </trkpt>
      <trkpt lat="45.95589" lon="4.715">
        <ele>175.600006104</ele>
        <time>2016-02-26T11:33:09.866Z</time>
      </trkpt>
      <trkpt lat="45.95581" lon="4.715">
        <ele>175.5</ele>
        <time>2016-02-26T11:33:10.883Z</time>
      </trkpt>
      <trkpt lat="45.95572" lon="4.71499">
        <ele>175.100006104</ele>
        <time>2016-02-26T11:33:11.867Z</time>
      </trkpt>
      <trkpt lat="45.95563" lon="4.71499">
        <ele>174.899993896</ele>
        <time>2016-02-26T11:33:12.887Z</time>
      </trkpt>
      <trkpt lat="45.95554" lon="4.71498">
        <ele>174.699996948</ele>
        <time>2016-02-26T11:33:13.868Z</time>
      </trkpt>
      <trkpt lat="45.95545" lon="4.71497">
        <ele>174.399993896</ele>
        <time>2016-02-26T11:33:14.889Z</time>
      </trkpt>
      <trkpt lat="45.95537" lon="4.71496">
        <ele>174.600006104</ele>
        <time>2016-02-26T11:33:15.863Z</time>
      </trkpt>
      <trkpt lat="45.95528" lon="4.71496">
        <ele>174.399993896</ele>
        <time>2016-02-26T11:33:16.883Z</time>
      </trkpt>
      <trkpt lat="45.95519" lon="4.71495">
        <ele>173.399993896</ele>
        <time>2016-02-26T11:33:17.883Z</time>
      </trkpt>
      <trkpt lat="45.9551" lon="4.71495">
        <ele>172.899993896</ele>
        <time>2016-02-26T11:33:18.885Z</time>
      </trkpt>
      <trkpt lat="45.95502" lon="4.71494">
        <ele>172.899993896</ele>
        <time>2016-02-26T11:33:19.865Z</time>
      </trkpt>
      <trkpt lat="45.95493" lon="4.71494">
        <ele>172.600006104</ele>
        <time>2016-02-26T11:33:20.883Z</time>
      </trkpt>
      <trkpt lat="45.95485" lon="4.71494">
        <ele>172.300003052</ele>
        <time>2016-02-26T11:33:21.865Z</time>
      </trkpt>
      <trkpt lat="45.95476" lon="4.71493">
        <ele>172.100006104</ele>
        <time>2016-02-26T11:33:22.897Z</time>
      </trkpt>
      <trkpt lat="45.95468" lon="4.71493">
        <ele>172</ele>
        <time>2016-02-26T11:33:23.865Z</time>
      </trkpt>
      <trkpt lat="45.95459" lon="4.71492">
        <ele>172.100006104</ele>
        <time>2016-02-26T11:33:24.885Z</time>
      </trkpt>
      <trkpt lat="45.95451" lon="4.71491">
        <ele>172.100006104</ele>
        <time>2016-02-26T11:33:25.865Z</time>
      </trkpt>
      <trkpt lat="45.95443" lon="4.71491">
        <ele>172.5</ele>
        <time>2016-02-26T11:33:26.924Z</time>
      </trkpt>
      <trkpt lat="45.95434" lon="4.7149">
        <ele>172.5</ele>
        <time>2016-02-26T11:33:27.855Z</time>
      </trkpt>
      <trkpt lat="45.95426" lon="4.71489">
        <ele>172.5</ele>
        <time>2016-02-26T11:33:28.885Z</time>
      </trkpt>
      <trkpt lat="45.95418" lon="4.71488">
        <ele>172.5</ele>
        <time>2016-02-26T11:33:29.865Z</time>
      </trkpt>
      <trkpt lat="45.95409" lon="4.71488">
        <ele>172.399993896</ele>
        <time>2016-02-26T11:33:30.885Z</time>
      </trkpt>
      <trkpt lat="45.95401" lon="4.71487">
        <ele>172.399993896</ele>
        <time>2016-02-26T11:33:31.865Z</time>
      </trkpt>
      <trkpt lat="45.95392" lon="4.71486">
        <ele>172.399993896</ele>
        <time>2016-02-26T11:33:32.883Z</time>
      </trkpt>
      <trkpt lat="45.95383" lon="4.71486">
        <ele>172.399993896</ele>
        <time>2016-02-26T11:33:33.86Z</time>
      </trkpt>
      <trkpt lat="45.95375" lon="4.71484">
        <ele>172.5</ele>
        <time>2016-02-26T11:33:34.889Z</time>
      </trkpt>
      <trkpt lat="45.95366" lon="4.71484">
        <ele>172.399993896</ele>
        <time>2016-02-26T11:33:35.865Z</time>
      </trkpt>
      <trkpt lat="45.95357" lon="4.71483">
        <ele>172.300003052</ele>
        <time>2016-02-26T11:33:36.95Z</time>
      </trkpt>
      <trkpt lat="45.95348" lon="4.71482">
        <ele>172.600006104</ele>
        <time>2016-02-26T11:33:37.867Z</time>
      </trkpt>
      <trkpt lat="45.95339" lon="4.71482">
        <ele>172.600006104</ele>
        <time>2016-02-26T11:33:38.886Z</time>
      </trkpt>
      <trkpt lat="45.9533" lon="4.71481">
        <ele>172.300003052</ele>
        <time>2016-02-26T11:33:39.867Z</time>
      </trkpt>
      <trkpt lat="45.9533" lon="4.71481">
        <ele>172.300003052</ele>
        <time>2016-02-26T11:33:39.887Z</time>
      </trkpt>
      <trkpt lat="45.95321" lon="4.71481">
        <ele>172.199996948</ele>
        <time>2016-02-26T11:33:40.868Z</time>
      </trkpt>
      <trkpt lat="45.95321" lon="4.71481">
        <ele>172.199996948</ele>
        <time>2016-02-26T11:33:40.89Z</time>
      </trkpt>
      <trkpt lat="45.95312" lon="4.7148">
        <ele>172.100006104</ele>
        <time>2016-02-26T11:33:41.862Z</time>
      </trkpt>
      <trkpt lat="45.95312" lon="4.7148">
        <ele>172.100006104</ele>
        <time>2016-02-26T11:33:41.894Z</time>
      </trkpt>
      <trkpt lat="45.95303" lon="4.71479">
        <ele>172</ele>
        <time>2016-02-26T11:33:42.865Z</time>
      </trkpt>
      <trkpt lat="45.95294" lon="4.71478">
        <ele>172</ele>
        <time>2016-02-26T11:33:43.883Z</time>
      </trkpt>
      <trkpt lat="45.95286" lon="4.71478">
        <ele>172.199996948</ele>
        <time>2016-02-26T11:33:44.865Z</time>
      </trkpt>
      <trkpt lat="45.95277" lon="4.71477">
        <ele>172.199996948</ele>
        <time>2016-02-26T11:33:45.885Z</time>
      </trkpt>
      <trkpt lat="45.95269" lon="4.71477">
        <ele>172.699996948</ele>
        <time>2016-02-26T11:33:46.889Z</time>
      </trkpt>
      <trkpt lat="45.95261" lon="4.71476">
        <ele>173.199996948</ele>
        <time>2016-02-26T11:33:47.901Z</time>
      </trkpt>
      <trkpt lat="45.95254" lon="4.71476">
        <ele>173.199996948</ele>
        <time>2016-02-26T11:33:48.868Z</time>
      </trkpt>
      <trkpt lat="45.95247" lon="4.71475">
        <ele>173.100006104</ele>
        <time>2016-02-26T11:33:49.904Z</time>
      </trkpt>
      <trkpt lat="45.9524" lon="4.71475">
        <ele>173.199996948</ele>
        <time>2016-02-26T11:33:50.907Z</time>
      </trkpt>
      <trkpt lat="45.95233" lon="4.71474">
        <ele>173.199996948</ele>
        <time>2016-02-26T11:33:51.918Z</time>
      </trkpt>
      <trkpt lat="45.95227" lon="4.71473">
        <ele>173.199996948</ele>
        <time>2016-02-26T11:33:52.904Z</time>
      </trkpt>
      <trkpt lat="45.9522" lon="4.71473">
        <ele>173.300003052</ele>
        <time>2016-02-26T11:33:54.088Z</time>
      </trkpt>
      <trkpt lat="45.95214" lon="4.71473">
        <ele>173.600006104</ele>
        <time>2016-02-26T11:33:54.905Z</time>
      </trkpt>
      <trkpt lat="45.95208" lon="4.71472">
        <ele>174.100006104</ele>
        <time>2016-02-26T11:33:55.918Z</time>
      </trkpt>
      <trkpt lat="45.95202" lon="4.71472">
        <ele>174.300003052</ele>
        <time>2016-02-26T11:33:56.905Z</time>
      </trkpt>
      <trkpt lat="45.95196" lon="4.71472">
        <ele>174.600006104</ele>
        <time>2016-02-26T11:33:57.935Z</time>
      </trkpt>
      <trkpt lat="45.9519" lon="4.71472">
        <ele>174.199996948</ele>
        <time>2016-02-26T11:33:58.903Z</time>
      </trkpt>
      <trkpt lat="45.95184" lon="4.71471">
        <ele>174</ele>
        <time>2016-02-26T11:33:59.918Z</time>
      </trkpt>
      <trkpt lat="45.95178" lon="4.71471">
        <ele>174.100006104</ele>
        <time>2016-02-26T11:34:00.905Z</time>
      </trkpt>
      <trkpt lat="45.95172" lon="4.7147">
        <ele>173.899993896</ele>
        <time>2016-02-26T11:34:01.918Z</time>
      </trkpt>
      <trkpt lat="45.95166" lon="4.7147">
        <ele>174.100006104</ele>
        <time>2016-02-26T11:34:02.942Z</time>
      </trkpt>
      <trkpt lat="45.9516" lon="4.7147">
        <ele>174.100006104</ele>
        <time>2016-02-26T11:34:03.919Z</time>
      </trkpt>
      <trkpt lat="45.95155" lon="4.71469">
        <ele>174.300003052</ele>
        <time>2016-02-26T11:34:04.903Z</time>
      </trkpt>
      <trkpt lat="45.95149" lon="4.71469">
        <ele>174.600006104</ele>
        <time>2016-02-26T11:34:05.923Z</time>
      </trkpt>
      <trkpt lat="45.95143" lon="4.71468">
        <ele>174.800003052</ele>
        <time>2016-02-26T11:34:06.908Z</time>
      </trkpt>
      <trkpt lat="45.95137" lon="4.71468">
        <ele>174.800003052</ele>
        <time>2016-02-26T11:34:07.929Z</time>
      </trkpt>
      <trkpt lat="45.95132" lon="4.71467">
        <ele>175.100006104</ele>
        <time>2016-02-26T11:34:08.904Z</time>
      </trkpt>
      <trkpt lat="45.95126" lon="4.71467">
        <ele>175.399993896</ele>
        <time>2016-02-26T11:34:09.92Z</time>
      </trkpt>
      <trkpt lat="45.95121" lon="4.71466">
        <ele>176</ele>
        <time>2016-02-26T11:34:10.904Z</time>
      </trkpt>
      <trkpt lat="45.95115" lon="4.71466">
        <ele>176.399993896</ele>
        <time>2016-02-26T11:34:11.918Z</time>
      </trkpt>
      <trkpt lat="45.9511" lon="4.71465">
        <ele>176.699996948</ele>
        <time>2016-02-26T11:34:12.905Z</time>
      </trkpt>
      <trkpt lat="45.95104" lon="4.71465">
        <ele>177</ele>
        <time>2016-02-26T11:34:13.92Z</time>
      </trkpt>
      <trkpt lat="45.95099" lon="4.71464">
        <ele>177.199996948</ele>
        <time>2016-02-26T11:34:14.918Z</time>
      </trkpt>
      <trkpt lat="45.95093" lon="4.71464">
        <ele>177.600006104</ele>
        <time>2016-02-26T11:34:15.903Z</time>
      </trkpt>
      <trkpt lat="45.95088" lon="4.71464">
        <ele>177.899993896</ele>
        <time>2016-02-26T11:34:16.868Z</time>
      </trkpt>
      <trkpt lat="45.95083" lon="4.71463">
        <ele>178.300003052</ele>
        <time>2016-02-26T11:34:17.885Z</time>
      </trkpt>
      <trkpt lat="45.95078" lon="4.71463">
        <ele>178.800003052</ele>
        <time>2016-02-26T11:34:18.869Z</time>
      </trkpt>
      <trkpt lat="45.95072" lon="4.71463">
        <ele>179.399993896</ele>
        <time>2016-02-26T11:34:19.898Z</time>
      </trkpt>
      <trkpt lat="45.95067" lon="4.71462">
        <ele>179.5</ele>
        <time>2016-02-26T11:34:20.865Z</time>
      </trkpt>
      <trkpt lat="45.95063" lon="4.71461">
        <ele>180.100006104</ele>
        <time>2016-02-26T11:34:21.886Z</time>
      </trkpt>
      <trkpt lat="45.95057" lon="4.71461">
        <ele>180.399993896</ele>
        <time>2016-02-26T11:34:22.868Z</time>
      </trkpt>
      <trkpt lat="45.95053" lon="4.71461">
        <ele>180.699996948</ele>
        <time>2016-02-26T11:34:23.903Z</time>
      </trkpt>
      <trkpt lat="45.95048" lon="4.71461">
        <ele>181.100006104</ele>
        <time>2016-02-26T11:34:24.867Z</time>
      </trkpt>
      <trkpt lat="45.9504" lon="4.7146">
        <ele>182.100006104</ele>
        <time>2016-02-26T11:34:26.887Z</time>
      </trkpt>
      <trkpt lat="45.95036" lon="4.71459">
        <ele>182.600006104</ele>
        <time>2016-02-26T11:34:27.867Z</time>
      </trkpt>
      <trkpt lat="45.95028" lon="4.71458">
        <ele>184.199996948</ele>
        <time>2016-02-26T11:34:29.905Z</time>
      </trkpt>
      <trkpt lat="45.95024" lon="4.71457">
        <ele>184.699996948</ele>
        <time>2016-02-26T11:34:30.865Z</time>
      </trkpt>
      <trkpt lat="45.95015" lon="4.71456">
        <ele>185.5</ele>
        <time>2016-02-26T11:34:32.888Z</time>
      </trkpt>
      <trkpt lat="45.95011" lon="4.71455">
        <ele>185.899993896</ele>
        <time>2016-02-26T11:34:33.865Z</time>
      </trkpt>
      <trkpt lat="45.95006" lon="4.71454">
        <ele>186.399993896</ele>
        <time>2016-02-26T11:34:34.885Z</time>
      </trkpt>
      <trkpt lat="45.95001" lon="4.71452">
        <ele>186.600006104</ele>
        <time>2016-02-26T11:34:35.865Z</time>
      </trkpt>
      <trkpt lat="45.94994" lon="4.71445">
        <ele>187.199996948</ele>
        <time>2016-02-26T11:34:37.932Z</time>
      </trkpt>
      <trkpt lat="45.94991" lon="4.7144">
        <ele>187.300003052</ele>
        <time>2016-02-26T11:34:38.864Z</time>
      </trkpt>
      <trkpt lat="45.94987" lon="4.71435">
        <ele>187.899993896</ele>
        <time>2016-02-26T11:34:39.901Z</time>
      </trkpt>
      <trkpt lat="45.94984" lon="4.71431">
        <ele>188.199996948</ele>
        <time>2016-02-26T11:34:40.865Z</time>
      </trkpt>
      <trkpt lat="45.94979" lon="4.71428">
        <ele>188.699996948</ele>
        <time>2016-02-26T11:34:41.884Z</time>
      </trkpt>
      <trkpt lat="45.94973" lon="4.71427">
        <ele>188.600006104</ele>
        <time>2016-02-26T11:34:42.863Z</time>
      </trkpt>
      <trkpt lat="45.94967" lon="4.71428">
        <ele>188</ele>
        <time>2016-02-26T11:34:43.884Z</time>
      </trkpt>
      <trkpt lat="45.94961" lon="4.71432">
        <ele>187.5</ele>
        <time>2016-02-26T11:34:44.869Z</time>
      </trkpt>
      <trkpt lat="45.94956" lon="4.71436">
        <ele>187.5</ele>
        <time>2016-02-26T11:34:45.883Z</time>
      </trkpt>
      <trkpt lat="45.94951" lon="4.71441">
        <ele>187.300003052</ele>
        <time>2016-02-26T11:34:46.866Z</time>
      </trkpt>
      <trkpt lat="45.94946" lon="4.71445">
        <ele>187.199996948</ele>
        <time>2016-02-26T11:34:47.907Z</time>
      </trkpt>
      <trkpt lat="45.9494" lon="4.71448">
        <ele>186.699996948</ele>
        <time>2016-02-26T11:34:48.867Z</time>
      </trkpt>
      <trkpt lat="45.94935" lon="4.7145">
        <ele>186.399993896</ele>
        <time>2016-02-26T11:34:49.899Z</time>
      </trkpt>
      <trkpt lat="45.94928" lon="4.71451">
        <ele>186.199996948</ele>
        <time>2016-02-26T11:34:50.864Z</time>
      </trkpt>
      <trkpt lat="45.94923" lon="4.71451">
        <ele>186</ele>
        <time>2016-02-26T11:34:51.884Z</time>
      </trkpt>
      <trkpt lat="45.94917" lon="4.7145">
        <ele>185.800003052</ele>
        <time>2016-02-26T11:34:52.865Z</time>
      </trkpt>
      <trkpt lat="45.94912" lon="4.7145">
        <ele>185.899993896</ele>
        <time>2016-02-26T11:34:53.885Z</time>
      </trkpt>
      <trkpt lat="45.94907" lon="4.7145">
        <ele>186</ele>
        <time>2016-02-26T11:34:54.866Z</time>
      </trkpt>
      <trkpt lat="45.94901" lon="4.7145">
        <ele>186.199996948</ele>
        <time>2016-02-26T11:34:55.884Z</time>
      </trkpt>
      <trkpt lat="45.94896" lon="4.71449">
        <ele>186.399993896</ele>
        <time>2016-02-26T11:34:56.864Z</time>
      </trkpt>
      <trkpt lat="45.94891" lon="4.71449">
        <ele>186.399993896</ele>
        <time>2016-02-26T11:34:57.889Z</time>
      </trkpt>
      <trkpt lat="45.94886" lon="4.71448">
        <ele>186.600006104</ele>
        <time>2016-02-26T11:34:58.867Z</time>
      </trkpt>
      <trkpt lat="45.9488" lon="4.71447">
        <ele>186.600006104</ele>
        <time>2016-02-26T11:34:59.883Z</time>
      </trkpt>
      <trkpt lat="45.94875" lon="4.71446">
        <ele>186.5</ele>
        <time>2016-02-26T11:35:00.867Z</time>
      </trkpt>
      <trkpt lat="45.94869" lon="4.71446">
        <ele>186.5</ele>
        <time>2016-02-26T11:35:01.887Z</time>
      </trkpt>
      <trkpt lat="45.94863" lon="4.71445">
        <ele>186.300003052</ele>
        <time>2016-02-26T11:35:02.865Z</time>
      </trkpt>
      <trkpt lat="45.94858" lon="4.71445">
        <ele>186.399993896</ele>
        <time>2016-02-26T11:35:03.886Z</time>
      </trkpt>
      <trkpt lat="45.94853" lon="4.71445">
        <ele>186.699996948</ele>
        <time>2016-02-26T11:35:04.863Z</time>
      </trkpt>
      <trkpt lat="45.94847" lon="4.71444">
        <ele>186.800003052</ele>
        <time>2016-02-26T11:35:05.884Z</time>
      </trkpt>
      <trkpt lat="45.94843" lon="4.71444">
        <ele>186.899993896</ele>
        <time>2016-02-26T11:35:06.865Z</time>
      </trkpt>
      <trkpt lat="45.94838" lon="4.71443">
        <ele>186.899993896</ele>
        <time>2016-02-26T11:35:07.901Z</time>
      </trkpt>
      <trkpt lat="45.94833" lon="4.71442">
        <ele>187.100006104</ele>
        <time>2016-02-26T11:35:08.865Z</time>
      </trkpt>
      <trkpt lat="45.94828" lon="4.71442">
        <ele>187</ele>
        <time>2016-02-26T11:35:09.884Z</time>
      </trkpt>
      <trkpt lat="45.94823" lon="4.71442">
        <ele>187</ele>
        <time>2016-02-26T11:35:10.86Z</time>
      </trkpt>
      <trkpt lat="45.94818" lon="4.71442">
        <ele>186.899993896</ele>
        <time>2016-02-26T11:35:11.885Z</time>
      </trkpt>
      <trkpt lat="45.94813" lon="4.71442">
        <ele>186.600006104</ele>
        <time>2016-02-26T11:35:12.866Z</time>
      </trkpt>
      <trkpt lat="45.94808" lon="4.71442">
        <ele>186.300003052</ele>
        <time>2016-02-26T11:35:13.883Z</time>
      </trkpt>
      <trkpt lat="45.94803" lon="4.71441">
        <ele>186.399993896</ele>
        <time>2016-02-26T11:35:14.864Z</time>
      </trkpt>
      <trkpt lat="45.94797" lon="4.71441">
        <ele>186.199996948</ele>
        <time>2016-02-26T11:35:16.064Z</time>
      </trkpt>
      <trkpt lat="45.94792" lon="4.71441">
        <ele>186.199996948</ele>
        <time>2016-02-26T11:35:16.865Z</time>
      </trkpt>
      <trkpt lat="45.94787" lon="4.7144">
        <ele>186.199996948</ele>
        <time>2016-02-26T11:35:17.942Z</time>
      </trkpt>
      <trkpt lat="45.94781" lon="4.7144">
        <ele>186.300003052</ele>
        <time>2016-02-26T11:35:18.917Z</time>
      </trkpt>
      <trkpt lat="45.94776" lon="4.7144">
        <ele>186.5</ele>
        <time>2016-02-26T11:35:19.884Z</time>
      </trkpt>
      <trkpt lat="45.9477" lon="4.7144">
        <ele>186.5</ele>
        <time>2016-02-26T11:35:20.864Z</time>
      </trkpt>
      <trkpt lat="45.94764" lon="4.7144">
        <ele>186.100006104</ele>
        <time>2016-02-26T11:35:21.895Z</time>
      </trkpt>
      <trkpt lat="45.94759" lon="4.7144">
        <ele>186.399993896</ele>
        <time>2016-02-26T11:35:22.866Z</time>
      </trkpt>
      <trkpt lat="45.94754" lon="4.71439">
        <ele>186.399993896</ele>
        <time>2016-02-26T11:35:23.893Z</time>
      </trkpt>
      <trkpt lat="45.94749" lon="4.71439">
        <ele>186.5</ele>
        <time>2016-02-26T11:35:24.866Z</time>
      </trkpt>
      <trkpt lat="45.94744" lon="4.7144">
        <ele>186.5</ele>
        <time>2016-02-26T11:35:25.883Z</time>
      </trkpt>
      <trkpt lat="45.94739" lon="4.71439">
        <ele>186.600006104</ele>
        <time>2016-02-26T11:35:26.864Z</time>
      </trkpt>
      <trkpt lat="45.94733" lon="4.71439">
        <ele>186.300003052</ele>
        <time>2016-02-26T11:35:27.884Z</time>
      </trkpt>
      <trkpt lat="45.94728" lon="4.71439">
        <ele>186.199996948</ele>
        <time>2016-02-26T11:35:28.866Z</time>
      </trkpt>
      <trkpt lat="45.94722" lon="4.71439">
        <ele>186.300003052</ele>
        <time>2016-02-26T11:35:29.886Z</time>
      </trkpt>
      <trkpt lat="45.94717" lon="4.71439">
        <ele>186.300003052</ele>
        <time>2016-02-26T11:35:30.864Z</time>
      </trkpt>
      <trkpt lat="45.94711" lon="4.71438">
        <ele>186.199996948</ele>
        <time>2016-02-26T11:35:31.885Z</time>
      </trkpt>
      <trkpt lat="45.94706" lon="4.71438">
        <ele>186.5</ele>
        <time>2016-02-26T11:35:32.884Z</time>
      </trkpt>
      <trkpt lat="45.94699" lon="4.71437">
        <ele>186.199996948</ele>
        <time>2016-02-26T11:35:33.883Z</time>
      </trkpt>
      <trkpt lat="45.94693" lon="4.71436">
        <ele>186.199996948</ele>
        <time>2016-02-26T11:35:34.869Z</time>
      </trkpt>
      <trkpt lat="45.94686" lon="4.71436">
        <ele>186.300003052</ele>
        <time>2016-02-26T11:35:35.886Z</time>
      </trkpt>
      <trkpt lat="45.94681" lon="4.71436">
        <ele>186.5</ele>
        <time>2016-02-26T11:35:36.865Z</time>
      </trkpt>
      <trkpt lat="45.94675" lon="4.71435">
        <ele>186</ele>
        <time>2016-02-26T11:35:37.888Z</time>
      </trkpt>
      <trkpt lat="45.94669" lon="4.71434">
        <ele>185.800003052</ele>
        <time>2016-02-26T11:35:38.863Z</time>
      </trkpt>
      <trkpt lat="45.94663" lon="4.71434">
        <ele>185.5</ele>
        <time>2016-02-26T11:35:39.886Z</time>
      </trkpt>
      <trkpt lat="45.94658" lon="4.71434">
        <ele>185.300003052</ele>
        <time>2016-02-26T11:35:40.867Z</time>
      </trkpt>
      <trkpt lat="45.94652" lon="4.71433">
        <ele>185.199996948</ele>
        <time>2016-02-26T11:35:41.916Z</time>
      </trkpt>
      <trkpt lat="45.94646" lon="4.71433">
        <ele>185</ele>
        <time>2016-02-26T11:35:42.865Z</time>
      </trkpt>
      <trkpt lat="45.9464" lon="4.71433">
        <ele>184.899993896</ele>
        <time>2016-02-26T11:35:43.884Z</time>
      </trkpt>
      <trkpt lat="45.94635" lon="4.71433">
        <ele>185.100006104</ele>
        <time>2016-02-26T11:35:44.865Z</time>
      </trkpt>
      <trkpt lat="45.94629" lon="4.71432">
        <ele>185.100006104</ele>
        <time>2016-02-26T11:35:46.074Z</time>
      </trkpt>
      <trkpt lat="45.94623" lon="4.71432">
        <ele>185.100006104</ele>
        <time>2016-02-26T11:35:47.008Z</time>
      </trkpt>
      <trkpt lat="45.94617" lon="4.71431">
        <ele>185.199996948</ele>
        <time>2016-02-26T11:35:47.966Z</time>
      </trkpt>
      <trkpt lat="45.94611" lon="4.71431">
        <ele>185.300003052</ele>
        <time>2016-02-26T11:35:48.906Z</time>
      </trkpt>
      <trkpt lat="45.94605" lon="4.71431">
        <ele>185.399993896</ele>
        <time>2016-02-26T11:35:49.888Z</time>
      </trkpt>
      <trkpt lat="45.94599" lon="4.7143">
        <ele>185.100006104</ele>
        <time>2016-02-26T11:35:50.869Z</time>
      </trkpt>
      <trkpt lat="45.94594" lon="4.7143">
        <ele>184.699996948</ele>
        <time>2016-02-26T11:35:51.883Z</time>
      </trkpt>
      <trkpt lat="45.94587" lon="4.71429">
        <ele>184.600006104</ele>
        <time>2016-02-26T11:35:52.864Z</time>
      </trkpt>
      <trkpt lat="45.94581" lon="4.71429">
        <ele>184.100006104</ele>
        <time>2016-02-26T11:35:53.883Z</time>
      </trkpt>
      <trkpt lat="45.94575" lon="4.71429">
        <ele>183.899993896</ele>
        <time>2016-02-26T11:35:54.866Z</time>
      </trkpt>
      <trkpt lat="45.94569" lon="4.7143">
        <ele>183.399993896</ele>
        <time>2016-02-26T11:35:55.918Z</time>
      </trkpt>
      <trkpt lat="45.94563" lon="4.71432">
        <ele>183.399993896</ele>
        <time>2016-02-26T11:35:56.863Z</time>
      </trkpt>
      <trkpt lat="45.94557" lon="4.71433">
        <ele>183.100006104</ele>
        <time>2016-02-26T11:35:57.902Z</time>
      </trkpt>
      <trkpt lat="45.9455" lon="4.71435">
        <ele>182.899993896</ele>
        <time>2016-02-26T11:35:58.908Z</time>
      </trkpt>
      <trkpt lat="45.94544" lon="4.71437">
        <ele>182.899993896</ele>
        <time>2016-02-26T11:35:59.883Z</time>
      </trkpt>
      <trkpt lat="45.94538" lon="4.7144">
        <ele>182.5</ele>
        <time>2016-02-26T11:36:00.864Z</time>
      </trkpt>
      <trkpt lat="45.94532" lon="4.71442">
        <ele>182.399993896</ele>
        <time>2016-02-26T11:36:01.885Z</time>
      </trkpt>
      <trkpt lat="45.94525" lon="4.71444">
        <ele>182.199996948</ele>
        <time>2016-02-26T11:36:02.868Z</time>
      </trkpt>
      <trkpt lat="45.94519" lon="4.71447">
        <ele>181.899993896</ele>
        <time>2016-02-26T11:36:03.885Z</time>
      </trkpt>
      <trkpt lat="45.94513" lon="4.71449">
        <ele>181.600006104</ele>
        <time>2016-02-26T11:36:04.865Z</time>
      </trkpt>
      <trkpt lat="45.94506" lon="4.71452">
        <ele>181</ele>
        <time>2016-02-26T11:36:05.885Z</time>
      </trkpt>
      <trkpt lat="45.94498" lon="4.71455">
        <ele>180.899993896</ele>
        <time>2016-02-26T11:36:06.866Z</time>
      </trkpt>
      <trkpt lat="45.94491" lon="4.71457">
        <ele>180.300003052</ele>
        <time>2016-02-26T11:36:07.891Z</time>
      </trkpt>
      <trkpt lat="45.94485" lon="4.7146">
        <ele>179.899993896</ele>
        <time>2016-02-26T11:36:08.863Z</time>
      </trkpt>
      <trkpt lat="45.94478" lon="4.71463">
        <ele>179.699996948</ele>
        <time>2016-02-26T11:36:10.044Z</time>
      </trkpt>
      <trkpt lat="45.94471" lon="4.71466">
        <ele>179.300003052</ele>
        <time>2016-02-26T11:36:10.865Z</time>
      </trkpt>
      <trkpt lat="45.94465" lon="4.71469">
        <ele>179</ele>
        <time>2016-02-26T11:36:11.892Z</time>
      </trkpt>
      <trkpt lat="45.94458" lon="4.71472">
        <ele>178.399993896</ele>
        <time>2016-02-26T11:36:12.865Z</time>
      </trkpt>
      <trkpt lat="45.94452" lon="4.71475">
        <ele>178.199996948</ele>
        <time>2016-02-26T11:36:13.883Z</time>
      </trkpt>
      <trkpt lat="45.94445" lon="4.71477">
        <ele>178.5</ele>
        <time>2016-02-26T11:36:14.864Z</time>
      </trkpt>
      <trkpt lat="45.94438" lon="4.71479">
        <ele>178.399993896</ele>
        <time>2016-02-26T11:36:15.886Z</time>
      </trkpt>
      <trkpt lat="45.94431" lon="4.71482">
        <ele>178.100006104</ele>
        <time>2016-02-26T11:36:16.866Z</time>
      </trkpt>
      <trkpt lat="45.94424" lon="4.71484">
        <ele>178.300003052</ele>
        <time>2016-02-26T11:36:17.885Z</time>
      </trkpt>
      <trkpt lat="45.94418" lon="4.71486">
        <ele>178.300003052</ele>
        <time>2016-02-26T11:36:18.867Z</time>
      </trkpt>
      <trkpt lat="45.94411" lon="4.71489">
        <ele>178.300003052</ele>
        <time>2016-02-26T11:36:19.883Z</time>
      </trkpt>
      <trkpt lat="45.94405" lon="4.71491">
        <ele>178.199996948</ele>
        <time>2016-02-26T11:36:20.868Z</time>
      </trkpt>
      <trkpt lat="45.94399" lon="4.71494">
        <ele>178.199996948</ele>
        <time>2016-02-26T11:36:22.113Z</time>
      </trkpt>
      <trkpt lat="45.94393" lon="4.71496">
        <ele>178.100006104</ele>
        <time>2016-02-26T11:36:22.865Z</time>
      </trkpt>
      <trkpt lat="45.94386" lon="4.71498">
        <ele>178.300003052</ele>
        <time>2016-02-26T11:36:23.899Z</time>
      </trkpt>
      <trkpt lat="45.94379" lon="4.71501">
        <ele>178.199996948</ele>
        <time>2016-02-26T11:36:24.869Z</time>
      </trkpt>
      <trkpt lat="45.94372" lon="4.71504">
        <ele>178.100006104</ele>
        <time>2016-02-26T11:36:25.883Z</time>
      </trkpt>
      <trkpt lat="45.94366" lon="4.71507">
        <ele>177.5</ele>
        <time>2016-02-26T11:36:26.867Z</time>
      </trkpt>
      <trkpt lat="45.94359" lon="4.7151">
        <ele>177.199996948</ele>
        <time>2016-02-26T11:36:27.884Z</time>
      </trkpt>
      <trkpt lat="45.94353" lon="4.71513">
        <ele>177</ele>
        <time>2016-02-26T11:36:28.867Z</time>
      </trkpt>
      <trkpt lat="45.94346" lon="4.71516">
        <ele>176.899993896</ele>
        <time>2016-02-26T11:36:29.886Z</time>
      </trkpt>
      <trkpt lat="45.94339" lon="4.71518">
        <ele>176.600006104</ele>
        <time>2016-02-26T11:36:30.864Z</time>
      </trkpt>
      <trkpt lat="45.94333" lon="4.71521">
        <ele>176</ele>
        <time>2016-02-26T11:36:31.918Z</time>
      </trkpt>
      <trkpt lat="45.94327" lon="4.71524">
        <ele>175.899993896</ele>
        <time>2016-02-26T11:36:32.906Z</time>
      </trkpt>
      <trkpt lat="45.9432" lon="4.71526">
        <ele>175.399993896</ele>
        <time>2016-02-26T11:36:33.885Z</time>
      </trkpt>
      <trkpt lat="45.94313" lon="4.71529">
        <ele>175.100006104</ele>
        <time>2016-02-26T11:36:34.867Z</time>
      </trkpt>
      <trkpt lat="45.94307" lon="4.71532">
        <ele>174.899993896</ele>
        <time>2016-02-26T11:36:35.883Z</time>
      </trkpt>
      <trkpt lat="45.943" lon="4.71536">
        <ele>174.600006104</ele>
        <time>2016-02-26T11:36:36.868Z</time>
      </trkpt>
      <trkpt lat="45.94293" lon="4.71538">
        <ele>174.5</ele>
        <time>2016-02-26T11:36:37.884Z</time>
      </trkpt>
      <trkpt lat="45.94287" lon="4.7154">
        <ele>174.600006104</ele>
        <time>2016-02-26T11:36:38.865Z</time>
      </trkpt>
      <trkpt lat="45.94281" lon="4.71542">
        <ele>174.5</ele>
        <time>2016-02-26T11:36:39.885Z</time>
      </trkpt>
      <trkpt lat="45.94274" lon="4.71545">
        <ele>174.399993896</ele>
        <time>2016-02-26T11:36:40.865Z</time>
      </trkpt>
      <trkpt lat="45.94268" lon="4.71547">
        <ele>174.199996948</ele>
        <time>2016-02-26T11:36:41.888Z</time>
      </trkpt>
      <trkpt lat="45.94262" lon="4.7155">
        <ele>174.100006104</ele>
        <time>2016-02-26T11:36:42.866Z</time>
      </trkpt>
      <trkpt lat="45.94256" lon="4.71552">
        <ele>174.699996948</ele>
        <time>2016-02-26T11:36:43.885Z</time>
      </trkpt>
      <trkpt lat="45.9425" lon="4.71554">
        <ele>174.800003052</ele>
        <time>2016-02-26T11:36:44.867Z</time>
      </trkpt>
      <trkpt lat="45.94244" lon="4.71556">
        <ele>175.100006104</ele>
        <time>2016-02-26T11:36:45.885Z</time>
      </trkpt>
      <trkpt lat="45.94238" lon="4.71559">
        <ele>175.300003052</ele>
        <time>2016-02-26T11:36:46.867Z</time>
      </trkpt>
      <trkpt lat="45.94232" lon="4.71561">
        <ele>175.5</ele>
        <time>2016-02-26T11:36:47.885Z</time>
      </trkpt>
      <trkpt lat="45.94226" lon="4.71563">
        <ele>175.899993896</ele>
        <time>2016-02-26T11:36:48.869Z</time>
      </trkpt>
      <trkpt lat="45.9422" lon="4.71565">
        <ele>175.800003052</ele>
        <time>2016-02-26T11:36:49.911Z</time>
      </trkpt>
      <trkpt lat="45.94213" lon="4.71568">
        <ele>175.600006104</ele>
        <time>2016-02-26T11:36:50.864Z</time>
      </trkpt>
      <trkpt lat="45.94207" lon="4.7157">
        <ele>175.5</ele>
        <time>2016-02-26T11:36:51.885Z</time>
      </trkpt>
      <trkpt lat="45.942" lon="4.71573">
        <ele>175.300003052</ele>
        <time>2016-02-26T11:36:52.86Z</time>
      </trkpt>
      <trkpt lat="45.94193" lon="4.71576">
        <ele>175.199996948</ele>
        <time>2016-02-26T11:36:53.885Z</time>
      </trkpt>
      <trkpt lat="45.94186" lon="4.71579">
        <ele>175.300003052</ele>
        <time>2016-02-26T11:36:54.881Z</time>
      </trkpt>
      <trkpt lat="45.94179" lon="4.71581">
        <ele>175.300003052</ele>
        <time>2016-02-26T11:36:55.885Z</time>
      </trkpt>
      <trkpt lat="45.94171" lon="4.71584">
        <ele>175.100006104</ele>
        <time>2016-02-26T11:36:56.865Z</time>
      </trkpt>
      <trkpt lat="45.94165" lon="4.71587">
        <ele>174.899993896</ele>
        <time>2016-02-26T11:36:57.884Z</time>
      </trkpt>
      <trkpt lat="45.94158" lon="4.7159">
        <ele>175.199996948</ele>
        <time>2016-02-26T11:36:58.865Z</time>
      </trkpt>
      <trkpt lat="45.94151" lon="4.71593">
        <ele>175.600006104</ele>
        <time>2016-02-26T11:36:59.897Z</time>
      </trkpt>
      <trkpt lat="45.94144" lon="4.71595">
        <ele>175.199996948</ele>
        <time>2016-02-26T11:37:00.867Z</time>
      </trkpt>
      <trkpt lat="45.94137" lon="4.71598">
        <ele>174.600006104</ele>
        <time>2016-02-26T11:37:01.905Z</time>
      </trkpt>
      <trkpt lat="45.9413" lon="4.716">
        <ele>174.399993896</ele>
        <time>2016-02-26T11:37:02.864Z</time>
      </trkpt>
      <trkpt lat="45.94124" lon="4.71602">
        <ele>174.199996948</ele>
        <time>2016-02-26T11:37:03.883Z</time>
      </trkpt>
      <trkpt lat="45.94118" lon="4.71605">
        <ele>174.199996948</ele>
        <time>2016-02-26T11:37:04.865Z</time>
      </trkpt>
      <trkpt lat="45.94112" lon="4.71607">
        <ele>174.100006104</ele>
        <time>2016-02-26T11:37:05.884Z</time>
      </trkpt>
      <trkpt lat="45.94106" lon="4.7161">
        <ele>174</ele>
        <time>2016-02-26T11:37:06.864Z</time>
      </trkpt>
      <trkpt lat="45.941" lon="4.71612">
        <ele>173.699996948</ele>
        <time>2016-02-26T11:37:07.887Z</time>
      </trkpt>
      <trkpt lat="45.94094" lon="4.71615">
        <ele>173.399993896</ele>
        <time>2016-02-26T11:37:08.867Z</time>
      </trkpt>
      <trkpt lat="45.94088" lon="4.71617">
        <ele>173.699996948</ele>
        <time>2016-02-26T11:37:09.897Z</time>
      </trkpt>
      <trkpt lat="45.94082" lon="4.71619">
        <ele>173.699996948</ele>
        <time>2016-02-26T11:37:10.865Z</time>
      </trkpt>
      <trkpt lat="45.94076" lon="4.71622">
        <ele>173.399993896</ele>
        <time>2016-02-26T11:37:11.885Z</time>
      </trkpt>
      <trkpt lat="45.94069" lon="4.71624">
        <ele>173.800003052</ele>
        <time>2016-02-26T11:37:12.866Z</time>
      </trkpt>
      <trkpt lat="45.94063" lon="4.71627">
        <ele>173.699996948</ele>
        <time>2016-02-26T11:37:13.883Z</time>
      </trkpt>
      <trkpt lat="45.94056" lon="4.71629">
        <ele>174</ele>
        <time>2016-02-26T11:37:14.868Z</time>
      </trkpt>
      <trkpt lat="45.9405" lon="4.71632">
        <ele>174.300003052</ele>
        <time>2016-02-26T11:37:15.901Z</time>
      </trkpt>
      <trkpt lat="45.94043" lon="4.71634">
        <ele>174.100006104</ele>
        <time>2016-02-26T11:37:16.867Z</time>
      </trkpt>
      <trkpt lat="45.94037" lon="4.71637">
        <ele>174.199996948</ele>
        <time>2016-02-26T11:37:17.884Z</time>
      </trkpt>
      <trkpt lat="45.9403" lon="4.71639">
        <ele>174.100006104</ele>
        <time>2016-02-26T11:37:18.864Z</time>
      </trkpt>
      <trkpt lat="45.94024" lon="4.71642">
        <ele>174.5</ele>
        <time>2016-02-26T11:37:19.882Z</time>
      </trkpt>
      <trkpt lat="45.9402" lon="4.71645">
        <ele>174.699996948</ele>
        <time>2016-02-26T11:37:20.865Z</time>
      </trkpt>
      <trkpt lat="45.94013" lon="4.7165">
        <ele>174.899993896</ele>
        <time>2016-02-26T11:37:22.884Z</time>
      </trkpt>
      <trkpt lat="45.9401" lon="4.71652">
        <ele>174.899993896</ele>
        <time>2016-02-26T11:37:23.865Z</time>
      </trkpt>
      <trkpt lat="45.94002" lon="4.71654">
        <ele>175.300003052</ele>
        <time>2016-02-26T11:37:25.891Z</time>
      </trkpt>
      <trkpt lat="45.93998" lon="4.71655">
        <ele>175.600006104</ele>
        <time>2016-02-26T11:37:26.861Z</time>
      </trkpt>
      <trkpt lat="45.9399" lon="4.71658">
        <ele>175.5</ele>
        <time>2016-02-26T11:37:28.886Z</time>
      </trkpt>
      <trkpt lat="45.93985" lon="4.71659">
        <ele>175.5</ele>
        <time>2016-02-26T11:37:29.866Z</time>
      </trkpt>
      <trkpt lat="45.9398" lon="4.71661">
        <ele>175.600006104</ele>
        <time>2016-02-26T11:37:30.886Z</time>
      </trkpt>
      <trkpt lat="45.93974" lon="4.71663">
        <ele>175.600006104</ele>
        <time>2016-02-26T11:37:31.867Z</time>
      </trkpt>
      <trkpt lat="45.93969" lon="4.71665">
        <ele>175.600006104</ele>
        <time>2016-02-26T11:37:32.885Z</time>
      </trkpt>
      <trkpt lat="45.93963" lon="4.71667">
        <ele>175.600006104</ele>
        <time>2016-02-26T11:37:33.867Z</time>
      </trkpt>
      <trkpt lat="45.93958" lon="4.71669">
        <ele>175.600006104</ele>
        <time>2016-02-26T11:37:34.889Z</time>
      </trkpt>
      <trkpt lat="45.93952" lon="4.71671">
        <ele>175.699996948</ele>
        <time>2016-02-26T11:37:35.865Z</time>
      </trkpt>
      <trkpt lat="45.93947" lon="4.71673">
        <ele>175.600006104</ele>
        <time>2016-02-26T11:37:36.884Z</time>
      </trkpt>
      <trkpt lat="45.93941" lon="4.71675">
        <ele>175.800003052</ele>
        <time>2016-02-26T11:37:37.867Z</time>
      </trkpt>
      <trkpt lat="45.93935" lon="4.71677">
        <ele>175.5</ele>
        <time>2016-02-26T11:37:38.906Z</time>
      </trkpt>
      <trkpt lat="45.93929" lon="4.71678">
        <ele>175.5</ele>
        <time>2016-02-26T11:37:39.864Z</time>
      </trkpt>
      <trkpt lat="45.93923" lon="4.7168">
        <ele>175.600006104</ele>
        <time>2016-02-26T11:37:40.885Z</time>
      </trkpt>
      <trkpt lat="45.93917" lon="4.71683">
        <ele>176</ele>
        <time>2016-02-26T11:37:41.864Z</time>
      </trkpt>
      <trkpt lat="45.93912" lon="4.71685">
        <ele>176.199996948</ele>
        <time>2016-02-26T11:37:42.886Z</time>
      </trkpt>
      <trkpt lat="45.93907" lon="4.71687">
        <ele>175.899993896</ele>
        <time>2016-02-26T11:37:43.865Z</time>
      </trkpt>
      <trkpt lat="45.93901" lon="4.71689">
        <ele>175.5</ele>
        <time>2016-02-26T11:37:44.882Z</time>
      </trkpt>
      <trkpt lat="45.93896" lon="4.71691">
        <ele>175.300003052</ele>
        <time>2016-02-26T11:37:45.865Z</time>
      </trkpt>
      <trkpt lat="45.9389" lon="4.71693">
        <ele>175.199996948</ele>
        <time>2016-02-26T11:37:46.922Z</time>
      </trkpt>
      <trkpt lat="45.93884" lon="4.71696">
        <ele>174.800003052</ele>
        <time>2016-02-26T11:37:47.865Z</time>
      </trkpt>
      <trkpt lat="45.93879" lon="4.71698">
        <ele>174.600006104</ele>
        <time>2016-02-26T11:37:48.895Z</time>
      </trkpt>
      <trkpt lat="45.93873" lon="4.71701">
        <ele>174.5</ele>
        <time>2016-02-26T11:37:49.867Z</time>
      </trkpt>
      <trkpt lat="45.93868" lon="4.71702">
        <ele>174.399993896</ele>
        <time>2016-02-26T11:37:50.886Z</time>
      </trkpt>
      <trkpt lat="45.93862" lon="4.71705">
        <ele>174.100006104</ele>
        <time>2016-02-26T11:37:51.865Z</time>
      </trkpt>
      <trkpt lat="45.93857" lon="4.71707">
        <ele>174.199996948</ele>
        <time>2016-02-26T11:37:52.883Z</time>
      </trkpt>
      <trkpt lat="45.93851" lon="4.71709">
        <ele>174.699996948</ele>
        <time>2016-02-26T11:37:53.865Z</time>
      </trkpt>
      <trkpt lat="45.93846" lon="4.7171">
        <ele>175.399993896</ele>
        <time>2016-02-26T11:37:54.89Z</time>
      </trkpt>
      <trkpt lat="45.9384" lon="4.71712">
        <ele>176.100006104</ele>
        <time>2016-02-26T11:37:55.866Z</time>
      </trkpt>
      <trkpt lat="45.93835" lon="4.71714">
        <ele>176.5</ele>
        <time>2016-02-26T11:37:56.884Z</time>
      </trkpt>
      <trkpt lat="45.9383" lon="4.71716">
        <ele>176.800003052</ele>
        <time>2016-02-26T11:37:57.867Z</time>
      </trkpt>
      <trkpt lat="45.93824" lon="4.71718">
        <ele>177.100006104</ele>
        <time>2016-02-26T11:37:58.885Z</time>
      </trkpt>
      <trkpt lat="45.93819" lon="4.71721">
        <ele>177.100006104</ele>
        <time>2016-02-26T11:37:59.87Z</time>
      </trkpt>
      <trkpt lat="45.93813" lon="4.71723">
        <ele>177.199996948</ele>
        <time>2016-02-26T11:38:00.888Z</time>
      </trkpt>
      <trkpt lat="45.93807" lon="4.71725">
        <ele>177.300003052</ele>
        <time>2016-02-26T11:38:01.866Z</time>
      </trkpt>
      <trkpt lat="45.93801" lon="4.71728">
        <ele>177.600006104</ele>
        <time>2016-02-26T11:38:02.883Z</time>
      </trkpt>
      <trkpt lat="45.93795" lon="4.7173">
        <ele>177.699996948</ele>
        <time>2016-02-26T11:38:03.865Z</time>
      </trkpt>
      <trkpt lat="45.93789" lon="4.71732">
        <ele>177.899993896</ele>
        <time>2016-02-26T11:38:04.885Z</time>
      </trkpt>
      <trkpt lat="45.93783" lon="4.71735">
        <ele>178.100006104</ele>
        <time>2016-02-26T11:38:05.867Z</time>
      </trkpt>
      <trkpt lat="45.93777" lon="4.71737">
        <ele>178.600006104</ele>
        <time>2016-02-26T11:38:06.934Z</time>
      </trkpt>
      <trkpt lat="45.93772" lon="4.7174">
        <ele>179</ele>
        <time>2016-02-26T11:38:07.88Z</time>
      </trkpt>
      <trkpt lat="45.93766" lon="4.71742">
        <ele>179.300003052</ele>
        <time>2016-02-26T11:38:08.885Z</time>
      </trkpt>
      <trkpt lat="45.93761" lon="4.71745">
        <ele>179.300003052</ele>
        <time>2016-02-26T11:38:09.865Z</time>
      </trkpt>
      <trkpt lat="45.93755" lon="4.71747">
        <ele>179.399993896</ele>
        <time>2016-02-26T11:38:10.884Z</time>
      </trkpt>
      <trkpt lat="45.93749" lon="4.71749">
        <ele>179.600006104</ele>
        <time>2016-02-26T11:38:11.865Z</time>
      </trkpt>
      <trkpt lat="45.93744" lon="4.71752">
        <ele>179.800003052</ele>
        <time>2016-02-26T11:38:12.9Z</time>
      </trkpt>
      <trkpt lat="45.93738" lon="4.71754">
        <ele>180.600006104</ele>
        <time>2016-02-26T11:38:13.864Z</time>
      </trkpt>
      <trkpt lat="45.93734" lon="4.71756">
        <ele>180.800003052</ele>
        <time>2016-02-26T11:38:14.886Z</time>
      </trkpt>
      <trkpt lat="45.9373" lon="4.71758">
        <ele>180.899993896</ele>
        <time>2016-02-26T11:38:15.867Z</time>
      </trkpt>
      <trkpt lat="45.93722" lon="4.71764">
        <ele>181.5</ele>
        <time>2016-02-26T11:38:18.884Z</time>
      </trkpt>
      <trkpt lat="45.93721" lon="4.71766">
        <ele>181.800003052</ele>
        <time>2016-02-26T11:38:19.863Z</time>
      </trkpt>
      <trkpt lat="45.93718" lon="4.71768">
        <ele>181.600006104</ele>
        <time>2016-02-26T11:38:21.919Z</time>
      </trkpt>
      <trkpt lat="45.93718" lon="4.71768">
        <ele>181.399993896</ele>
        <time>2016-02-26T11:38:22.867Z</time>
      </trkpt>
      <trkpt lat="45.93716" lon="4.71768">
        <ele>181.399993896</ele>
        <time>2016-02-26T11:38:25.888Z</time>
      </trkpt>
      <trkpt lat="45.93715" lon="4.7177">
        <ele>181.199996948</ele>
        <time>2016-02-26T11:38:26.869Z</time>
      </trkpt>
      <trkpt lat="45.93711" lon="4.71781">
        <ele>180.600006104</ele>
        <time>2016-02-26T11:38:29.886Z</time>
      </trkpt>
      <trkpt lat="45.93711" lon="4.71786">
        <ele>180.5</ele>
        <time>2016-02-26T11:38:30.866Z</time>
      </trkpt>
      <trkpt lat="45.93708" lon="4.71798">
        <ele>180.5</ele>
        <time>2016-02-26T11:38:32.886Z</time>
      </trkpt>
      <trkpt lat="45.93706" lon="4.71805">
        <ele>180.600006104</ele>
        <time>2016-02-26T11:38:33.861Z</time>
      </trkpt>
      <trkpt lat="45.93705" lon="4.71811">
        <ele>180.600006104</ele>
        <time>2016-02-26T11:38:34.884Z</time>
      </trkpt>
      <trkpt lat="45.93703" lon="4.71818">
        <ele>180.300003052</ele>
        <time>2016-02-26T11:38:35.866Z</time>
      </trkpt>
      <trkpt lat="45.937" lon="4.71825">
        <ele>179.899993896</ele>
        <time>2016-02-26T11:38:36.885Z</time>
      </trkpt>
      <trkpt lat="45.93697" lon="4.71832">
        <ele>179.699996948</ele>
        <time>2016-02-26T11:38:37.867Z</time>
      </trkpt>
      <trkpt lat="45.93695" lon="4.71839">
        <ele>179.699996948</ele>
        <time>2016-02-26T11:38:38.902Z</time>
      </trkpt>
      <trkpt lat="45.93692" lon="4.71845">
        <ele>179.300003052</ele>
        <time>2016-02-26T11:38:39.867Z</time>
      </trkpt>
      <trkpt lat="45.9369" lon="4.71852">
        <ele>178.899993896</ele>
        <time>2016-02-26T11:38:40.884Z</time>
      </trkpt>
      <trkpt lat="45.93687" lon="4.71858">
        <ele>178.699996948</ele>
        <time>2016-02-26T11:38:41.867Z</time>
      </trkpt>
      <trkpt lat="45.93685" lon="4.71864">
        <ele>178.600006104</ele>
        <time>2016-02-26T11:38:42.884Z</time>
      </trkpt>
      <trkpt lat="45.93682" lon="4.71871">
        <ele>178.5</ele>
        <time>2016-02-26T11:38:43.867Z</time>
      </trkpt>
      <trkpt lat="45.9368" lon="4.71879">
        <ele>178.5</ele>
        <time>2016-02-26T11:38:44.882Z</time>
      </trkpt>
      <trkpt lat="45.93677" lon="4.71886">
        <ele>178.699996948</ele>
        <time>2016-02-26T11:38:45.859Z</time>
      </trkpt>
      <trkpt lat="45.93674" lon="4.71894">
        <ele>178.899993896</ele>
        <time>2016-02-26T11:38:46.883Z</time>
      </trkpt>
      <trkpt lat="45.93671" lon="4.71902">
        <ele>178.899993896</ele>
        <time>2016-02-26T11:38:47.867Z</time>
      </trkpt>
      <trkpt lat="45.93668" lon="4.71909">
        <ele>179</ele>
        <time>2016-02-26T11:38:48.959Z</time>
      </trkpt>
      <trkpt lat="45.93665" lon="4.71917">
        <ele>179</ele>
        <time>2016-02-26T11:38:49.866Z</time>
      </trkpt>
      <trkpt lat="45.93663" lon="4.71925">
        <ele>179.699996948</ele>
        <time>2016-02-26T11:38:50.884Z</time>
      </trkpt>
      <trkpt lat="45.9366" lon="4.71935">
        <ele>179.399993896</ele>
        <time>2016-02-26T11:38:51.867Z</time>
      </trkpt>
      <trkpt lat="45.93657" lon="4.71943">
        <ele>179.399993896</ele>
        <time>2016-02-26T11:38:52.89Z</time>
      </trkpt>
      <trkpt lat="45.93656" lon="4.71951">
        <ele>179.5</ele>
        <time>2016-02-26T11:38:53.865Z</time>
      </trkpt>
      <trkpt lat="45.93653" lon="4.71959">
        <ele>179.800003052</ele>
        <time>2016-02-26T11:38:54.884Z</time>
      </trkpt>
      <trkpt lat="45.9365" lon="4.71966">
        <ele>179.800003052</ele>
        <time>2016-02-26T11:38:55.866Z</time>
      </trkpt>
      <trkpt lat="45.93648" lon="4.71974">
        <ele>179.899993896</ele>
        <time>2016-02-26T11:38:56.883Z</time>
      </trkpt>
      <trkpt lat="45.93645" lon="4.71982">
        <ele>180.100006104</ele>
        <time>2016-02-26T11:38:57.866Z</time>
      </trkpt>
      <trkpt lat="45.93643" lon="4.71991">
        <ele>180.100006104</ele>
        <time>2016-02-26T11:38:58.936Z</time>
      </trkpt>
      <trkpt lat="45.93641" lon="4.71999">
        <ele>180</ele>
        <time>2016-02-26T11:38:59.883Z</time>
      </trkpt>
      <trkpt lat="45.93639" lon="4.72007">
        <ele>180.100006104</ele>
        <time>2016-02-26T11:39:00.887Z</time>
      </trkpt>
      <trkpt lat="45.93636" lon="4.72014">
        <ele>180.399993896</ele>
        <time>2016-02-26T11:39:01.864Z</time>
      </trkpt>
      <trkpt lat="45.93634" lon="4.72022">
        <ele>180.5</ele>
        <time>2016-02-26T11:39:02.882Z</time>
      </trkpt>
      <trkpt lat="45.93631" lon="4.72029">
        <ele>180.600006104</ele>
        <time>2016-02-26T11:39:03.863Z</time>
      </trkpt>
      <trkpt lat="45.93629" lon="4.72036">
        <ele>180.699996948</ele>
        <time>2016-02-26T11:39:04.897Z</time>
      </trkpt>
      <trkpt lat="45.93627" lon="4.72043">
        <ele>181</ele>
        <time>2016-02-26T11:39:05.861Z</time>
      </trkpt>
      <trkpt lat="45.93624" lon="4.72051">
        <ele>181.399993896</ele>
        <time>2016-02-26T11:39:06.885Z</time>
      </trkpt>
      <trkpt lat="45.93622" lon="4.72058">
        <ele>181.5</ele>
        <time>2016-02-26T11:39:07.863Z</time>
      </trkpt>
      <trkpt lat="45.9362" lon="4.72065">
        <ele>181.800003052</ele>
        <time>2016-02-26T11:39:08.884Z</time>
      </trkpt>
      <trkpt lat="45.93617" lon="4.72074">
        <ele>182</ele>
        <time>2016-02-26T11:39:09.863Z</time>
      </trkpt>
      <trkpt lat="45.93615" lon="4.72082">
        <ele>182.300003052</ele>
        <time>2016-02-26T11:39:10.883Z</time>
      </trkpt>
      <trkpt lat="45.93612" lon="4.7209">
        <ele>182.199996948</ele>
        <time>2016-02-26T11:39:11.865Z</time>
      </trkpt>
      <trkpt lat="45.93609" lon="4.72097">
        <ele>182.300003052</ele>
        <time>2016-02-26T11:39:12.886Z</time>
      </trkpt>
      <trkpt lat="45.93606" lon="4.72105">
        <ele>182.199996948</ele>
        <time>2016-02-26T11:39:13.863Z</time>
      </trkpt>
      <trkpt lat="45.93602" lon="4.72111">
        <ele>181.899993896</ele>
        <time>2016-02-26T11:39:14.885Z</time>
      </trkpt>
      <trkpt lat="45.93597" lon="4.72119">
        <ele>180.300003052</ele>
        <time>2016-02-26T11:39:15.884Z</time>
      </trkpt>
      <trkpt lat="45.93595" lon="4.72126">
        <ele>180.399993896</ele>
        <time>2016-02-26T11:39:16.918Z</time>
      </trkpt>
      <trkpt lat="45.93592" lon="4.72132">
        <ele>180.600006104</ele>
        <time>2016-02-26T11:39:17.866Z</time>
      </trkpt>
      <trkpt lat="45.93589" lon="4.72139">
        <ele>180.600006104</ele>
        <time>2016-02-26T11:39:18.888Z</time>
      </trkpt>
      <trkpt lat="45.93586" lon="4.72146">
        <ele>180.899993896</ele>
        <time>2016-02-26T11:39:19.865Z</time>
      </trkpt>
      <trkpt lat="45.93583" lon="4.72153">
        <ele>180.899993896</ele>
        <time>2016-02-26T11:39:20.905Z</time>
      </trkpt>
      <trkpt lat="45.9358" lon="4.7216">
        <ele>180.899993896</ele>
        <time>2016-02-26T11:39:21.861Z</time>
      </trkpt>
      <trkpt lat="45.93577" lon="4.72167">
        <ele>181.100006104</ele>
        <time>2016-02-26T11:39:22.883Z</time>
      </trkpt>
      <trkpt lat="45.93575" lon="4.72175">
        <ele>181.300003052</ele>
        <time>2016-02-26T11:39:23.865Z</time>
      </trkpt>
      <trkpt lat="45.93572" lon="4.72182">
        <ele>181.600006104</ele>
        <time>2016-02-26T11:39:24.883Z</time>
      </trkpt>
      <trkpt lat="45.9357" lon="4.72189">
        <ele>181.899993896</ele>
        <time>2016-02-26T11:39:25.863Z</time>
      </trkpt>
      <trkpt lat="45.93568" lon="4.72196">
        <ele>182.399993896</ele>
        <time>2016-02-26T11:39:26.885Z</time>
      </trkpt>
      <trkpt lat="45.93561" lon="4.72203">
        <ele>179.800003052</ele>
        <time>2016-02-26T11:39:27.865Z</time>
      </trkpt>
      <trkpt lat="45.93555" lon="4.72211">
        <ele>177.199996948</ele>
        <time>2016-02-26T11:39:28.883Z</time>
      </trkpt>
      <trkpt lat="45.93549" lon="4.72218">
        <ele>176.699996948</ele>
        <time>2016-02-26T11:39:29.862Z</time>
      </trkpt>
      <trkpt lat="45.93544" lon="4.72225">
        <ele>176.300003052</ele>
        <time>2016-02-26T11:39:30.883Z</time>
      </trkpt>
      <trkpt lat="45.93541" lon="4.72232">
        <ele>176.300003052</ele>
        <time>2016-02-26T11:39:31.861Z</time>
      </trkpt>
      <trkpt lat="45.93538" lon="4.72239">
        <ele>176.5</ele>
        <time>2016-02-26T11:39:32.882Z</time>
      </trkpt>
      <trkpt lat="45.93535" lon="4.72245">
        <ele>176.199996948</ele>
        <time>2016-02-26T11:39:33.861Z</time>
      </trkpt>
      <trkpt lat="45.93532" lon="4.72252">
        <ele>176.100006104</ele>
        <time>2016-02-26T11:39:34.881Z</time>
      </trkpt>
      <trkpt lat="45.93529" lon="4.72259">
        <ele>176.199996948</ele>
        <time>2016-02-26T11:39:35.864Z</time>
      </trkpt>
      <trkpt lat="45.93526" lon="4.72266">
        <ele>175.899993896</ele>
        <time>2016-02-26T11:39:36.901Z</time>
      </trkpt>
      <trkpt lat="45.93524" lon="4.72273">
        <ele>175.800003052</ele>
        <time>2016-02-26T11:39:37.863Z</time>
      </trkpt>
      <trkpt lat="45.93521" lon="4.7228">
        <ele>175.399993896</ele>
        <time>2016-02-26T11:39:38.882Z</time>
      </trkpt>
      <trkpt lat="45.93518" lon="4.72287">
        <ele>175.100006104</ele>
        <time>2016-02-26T11:39:39.861Z</time>
      </trkpt>
      <trkpt lat="45.93515" lon="4.72294">
        <ele>175</ele>
        <time>2016-02-26T11:39:40.881Z</time>
      </trkpt>
      <trkpt lat="45.93511" lon="4.72301">
        <ele>174.600006104</ele>
        <time>2016-02-26T11:39:41.861Z</time>
      </trkpt>
      <trkpt lat="45.93506" lon="4.72307">
        <ele>174.399993896</ele>
        <time>2016-02-26T11:39:42.886Z</time>
      </trkpt>
      <trkpt lat="45.93502" lon="4.72314">
        <ele>174</ele>
        <time>2016-02-26T11:39:43.866Z</time>
      </trkpt>
      <trkpt lat="45.93497" lon="4.7232">
        <ele>173.699996948</ele>
        <time>2016-02-26T11:39:44.887Z</time>
      </trkpt>
      <trkpt lat="45.93493" lon="4.72326">
        <ele>173.300003052</ele>
        <time>2016-02-26T11:39:45.862Z</time>
      </trkpt>
      <trkpt lat="45.93488" lon="4.72333">
        <ele>172.600006104</ele>
        <time>2016-02-26T11:39:46.881Z</time>
      </trkpt>
      <trkpt lat="45.93484" lon="4.7234">
        <ele>172.100006104</ele>
        <time>2016-02-26T11:39:47.865Z</time>
      </trkpt>
      <trkpt lat="45.9348" lon="4.72347">
        <ele>171.899993896</ele>
        <time>2016-02-26T11:39:48.901Z</time>
      </trkpt>
      <trkpt lat="45.93475" lon="4.72353">
        <ele>171.399993896</ele>
        <time>2016-02-26T11:39:49.861Z</time>
      </trkpt>
      <trkpt lat="45.9347" lon="4.72359">
        <ele>171</ele>
        <time>2016-02-26T11:39:50.884Z</time>
      </trkpt>
      <trkpt lat="45.93466" lon="4.72366">
        <ele>170.699996948</ele>
        <time>2016-02-26T11:39:51.861Z</time>
      </trkpt>
      <trkpt lat="45.93461" lon="4.72372">
        <ele>170.199996948</ele>
        <time>2016-02-26T11:39:52.881Z</time>
      </trkpt>
      <trkpt lat="45.93456" lon="4.72377">
        <ele>170</ele>
        <time>2016-02-26T11:39:53.888Z</time>
      </trkpt>
      <trkpt lat="45.93451" lon="4.72382">
        <ele>170.5</ele>
        <time>2016-02-26T11:39:55.174Z</time>
      </trkpt>
      <trkpt lat="45.93446" lon="4.72387">
        <ele>170.5</ele>
        <time>2016-02-26T11:39:55.863Z</time>
      </trkpt>
      <trkpt lat="45.93441" lon="4.72392">
        <ele>170.800003052</ele>
        <time>2016-02-26T11:39:56.89Z</time>
      </trkpt>
      <trkpt lat="45.93435" lon="4.72395">
        <ele>170.399993896</ele>
        <time>2016-02-26T11:39:57.879Z</time>
      </trkpt>
      <trkpt lat="45.93429" lon="4.72398">
        <ele>170.300003052</ele>
        <time>2016-02-26T11:39:58.883Z</time>
      </trkpt>
      <trkpt lat="45.93423" lon="4.72401">
        <ele>169.800003052</ele>
        <time>2016-02-26T11:39:59.861Z</time>
      </trkpt>
      <trkpt lat="45.93416" lon="4.72403">
        <ele>169.600006104</ele>
        <time>2016-02-26T11:40:00.908Z</time>
      </trkpt>
      <trkpt lat="45.9341" lon="4.72404">
        <ele>170</ele>
        <time>2016-02-26T11:40:01.861Z</time>
      </trkpt>
      <trkpt lat="45.93404" lon="4.72404">
        <ele>170.199996948</ele>
        <time>2016-02-26T11:40:02.897Z</time>
      </trkpt>
      <trkpt lat="45.93398" lon="4.72402">
        <ele>170.899993896</ele>
        <time>2016-02-26T11:40:03.863Z</time>
      </trkpt>
      <trkpt lat="45.93393" lon="4.72401">
        <ele>171</ele>
        <time>2016-02-26T11:40:04.881Z</time>
      </trkpt>
      <trkpt lat="45.93388" lon="4.72402">
        <ele>170.800003052</ele>
        <time>2016-02-26T11:40:05.865Z</time>
      </trkpt>
      <trkpt lat="45.93384" lon="4.72406">
        <ele>170.600006104</ele>
        <time>2016-02-26T11:40:06.885Z</time>
      </trkpt>
      <trkpt lat="45.93381" lon="4.72411">
        <ele>170.699996948</ele>
        <time>2016-02-26T11:40:07.863Z</time>
      </trkpt>
      <trkpt lat="45.93379" lon="4.72417">
        <ele>170.699996948</ele>
        <time>2016-02-26T11:40:08.882Z</time>
      </trkpt>
      <trkpt lat="45.9338" lon="4.72424">
        <ele>170.800003052</ele>
        <time>2016-02-26T11:40:09.868Z</time>
      </trkpt>
      <trkpt lat="45.93382" lon="4.7243">
        <ele>170.600006104</ele>
        <time>2016-02-26T11:40:10.884Z</time>
      </trkpt>
      <trkpt lat="45.93384" lon="4.72436">
        <ele>170.199996948</ele>
        <time>2016-02-26T11:40:11.858Z</time>
      </trkpt>
      <trkpt lat="45.93387" lon="4.72442">
        <ele>170.199996948</ele>
        <time>2016-02-26T11:40:12.885Z</time>
      </trkpt>
      <trkpt lat="45.93388" lon="4.72449">
        <ele>170.199996948</ele>
        <time>2016-02-26T11:40:13.863Z</time>
      </trkpt>
      <trkpt lat="45.93387" lon="4.72456">
        <ele>170.399993896</ele>
        <time>2016-02-26T11:40:14.887Z</time>
      </trkpt>
      <trkpt lat="45.93385" lon="4.72463">
        <ele>170.300003052</ele>
        <time>2016-02-26T11:40:15.862Z</time>
      </trkpt>
      <trkpt lat="45.93381" lon="4.72468">
        <ele>170.300003052</ele>
        <time>2016-02-26T11:40:16.881Z</time>
      </trkpt>
      <trkpt lat="45.93376" lon="4.72473">
        <ele>170.300003052</ele>
        <time>2016-02-26T11:40:17.863Z</time>
      </trkpt>
      <trkpt lat="45.93371" lon="4.72479">
        <ele>170.399993896</ele>
        <time>2016-02-26T11:40:18.899Z</time>
      </trkpt>
      <trkpt lat="45.93367" lon="4.72485">
        <ele>170.600006104</ele>
        <time>2016-02-26T11:40:19.863Z</time>
      </trkpt>
      <trkpt lat="45.93362" lon="4.72491">
        <ele>170.699996948</ele>
        <time>2016-02-26T11:40:20.89Z</time>
      </trkpt>
      <trkpt lat="45.93357" lon="4.72497">
        <ele>170.800003052</ele>
        <time>2016-02-26T11:40:21.865Z</time>
      </trkpt>
      <trkpt lat="45.93352" lon="4.72502">
        <ele>170.699996948</ele>
        <time>2016-02-26T11:40:22.94Z</time>
      </trkpt>
      <trkpt lat="45.93347" lon="4.72507">
        <ele>170.300003052</ele>
        <time>2016-02-26T11:40:23.861Z</time>
      </trkpt>
      <trkpt lat="45.93342" lon="4.72513">
        <ele>170.100006104</ele>
        <time>2016-02-26T11:40:24.886Z</time>
      </trkpt>
      <trkpt lat="45.93337" lon="4.72519">
        <ele>169.899993896</ele>
        <time>2016-02-26T11:40:25.865Z</time>
      </trkpt>
      <trkpt lat="45.93333" lon="4.72524">
        <ele>169.800003052</ele>
        <time>2016-02-26T11:40:26.882Z</time>
      </trkpt>
      <trkpt lat="45.93328" lon="4.7253">
        <ele>170</ele>
        <time>2016-02-26T11:40:27.863Z</time>
      </trkpt>
      <trkpt lat="45.93323" lon="4.72535">
        <ele>169.800003052</ele>
        <time>2016-02-26T11:40:29.039Z</time>
      </trkpt>
      <trkpt lat="45.93319" lon="4.72541">
        <ele>170.199996948</ele>
        <time>2016-02-26T11:40:29.863Z</time>
      </trkpt>
      <trkpt lat="45.93313" lon="4.72546">
        <ele>170.199996948</ele>
        <time>2016-02-26T11:40:30.885Z</time>
      </trkpt>
      <trkpt lat="45.93308" lon="4.72551">
        <ele>170.100006104</ele>
        <time>2016-02-26T11:40:31.861Z</time>
      </trkpt>
      <trkpt lat="45.93304" lon="4.72557">
        <ele>170.300003052</ele>
        <time>2016-02-26T11:40:32.883Z</time>
      </trkpt>
      <trkpt lat="45.933" lon="4.72563">
        <ele>170.899993896</ele>
        <time>2016-02-26T11:40:33.861Z</time>
      </trkpt>
      <trkpt lat="45.93295" lon="4.72569">
        <ele>170.800003052</ele>
        <time>2016-02-26T11:40:34.88Z</time>
      </trkpt>
      <trkpt lat="45.93291" lon="4.72575">
        <ele>171.100006104</ele>
        <time>2016-02-26T11:40:35.867Z</time>
      </trkpt>
      <trkpt lat="45.93286" lon="4.7258">
        <ele>171.5</ele>
        <time>2016-02-26T11:40:36.889Z</time>
      </trkpt>
      <trkpt lat="45.93282" lon="4.72586">
        <ele>171.5</ele>
        <time>2016-02-26T11:40:37.863Z</time>
      </trkpt>
      <trkpt lat="45.93278" lon="4.72591">
        <ele>171.899993896</ele>
        <time>2016-02-26T11:40:38.884Z</time>
      </trkpt>
      <trkpt lat="45.93273" lon="4.72596">
        <ele>171.699996948</ele>
        <time>2016-02-26T11:40:39.861Z</time>
      </trkpt>
      <trkpt lat="45.93269" lon="4.72602">
        <ele>171.800003052</ele>
        <time>2016-02-26T11:40:40.882Z</time>
      </trkpt>
      <trkpt lat="45.93264" lon="4.72607">
        <ele>171.5</ele>
        <time>2016-02-26T11:40:41.861Z</time>
      </trkpt>
      <trkpt lat="45.9326" lon="4.72612">
        <ele>171.399993896</ele>
        <time>2016-02-26T11:40:42.903Z</time>
      </trkpt>
      <trkpt lat="45.93255" lon="4.72618">
        <ele>171.300003052</ele>
        <time>2016-02-26T11:40:43.863Z</time>
      </trkpt>
      <trkpt lat="45.93251" lon="4.72623">
        <ele>171.600006104</ele>
        <time>2016-02-26T11:40:44.9Z</time>
      </trkpt>
      <trkpt lat="45.93246" lon="4.72629">
        <ele>171.600006104</ele>
        <time>2016-02-26T11:40:45.886Z</time>
      </trkpt>
      <trkpt lat="45.93241" lon="4.72634">
        <ele>171</ele>
        <time>2016-02-26T11:40:46.883Z</time>
      </trkpt>
      <trkpt lat="45.93236" lon="4.7264">
        <ele>170.5</ele>
        <time>2016-02-26T11:40:47.863Z</time>
      </trkpt>
      <trkpt lat="45.93231" lon="4.72646">
        <ele>170.199996948</ele>
        <time>2016-02-26T11:40:48.918Z</time>
      </trkpt>
      <trkpt lat="45.93226" lon="4.72651">
        <ele>170</ele>
        <time>2016-02-26T11:40:49.863Z</time>
      </trkpt>
      <trkpt lat="45.93222" lon="4.72657">
        <ele>170</ele>
        <time>2016-02-26T11:40:50.883Z</time>
      </trkpt>
      <trkpt lat="45.93218" lon="4.72662">
        <ele>169.899993896</ele>
        <time>2016-02-26T11:40:51.861Z</time>
      </trkpt>
      <trkpt lat="45.93214" lon="4.72667">
        <ele>169.800003052</ele>
        <time>2016-02-26T11:40:52.883Z</time>
      </trkpt>
      <trkpt lat="45.9321" lon="4.72672">
        <ele>169.100006104</ele>
        <time>2016-02-26T11:40:53.861Z</time>
      </trkpt>
      <trkpt lat="45.93205" lon="4.72677">
        <ele>168.699996948</ele>
        <time>2016-02-26T11:40:54.883Z</time>
      </trkpt>
      <trkpt lat="45.93201" lon="4.72682">
        <ele>168.800003052</ele>
        <time>2016-02-26T11:40:55.867Z</time>
      </trkpt>
      <trkpt lat="45.93196" lon="4.72687">
        <ele>169.100006104</ele>
        <time>2016-02-26T11:40:56.881Z</time>
      </trkpt>
      <trkpt lat="45.93192" lon="4.72692">
        <ele>169.199996948</ele>
        <time>2016-02-26T11:40:57.863Z</time>
      </trkpt>
      <trkpt lat="45.93188" lon="4.72698">
        <ele>169.300003052</ele>
        <time>2016-02-26T11:40:58.89Z</time>
      </trkpt>
      <trkpt lat="45.93183" lon="4.72703">
        <ele>169.199996948</ele>
        <time>2016-02-26T11:40:59.861Z</time>
      </trkpt>
      <trkpt lat="45.93178" lon="4.72709">
        <ele>168.800003052</ele>
        <time>2016-02-26T11:41:00.884Z</time>
      </trkpt>
      <trkpt lat="45.93173" lon="4.72714">
        <ele>168.300003052</ele>
        <time>2016-02-26T11:41:01.863Z</time>
      </trkpt>
      <trkpt lat="45.93168" lon="4.7272">
        <ele>167.600006104</ele>
        <time>2016-02-26T11:41:02.885Z</time>
      </trkpt>
      <trkpt lat="45.93163" lon="4.72725">
        <ele>167.600006104</ele>
        <time>2016-02-26T11:41:03.861Z</time>
      </trkpt>
      <trkpt lat="45.93157" lon="4.72731">
        <ele>167.399993896</ele>
        <time>2016-02-26T11:41:04.881Z</time>
      </trkpt>
      <trkpt lat="45.93152" lon="4.72737">
        <ele>167.5</ele>
        <time>2016-02-26T11:41:05.912Z</time>
      </trkpt>
      <trkpt lat="45.93147" lon="4.72742">
        <ele>167.699996948</ele>
        <time>2016-02-26T11:41:06.917Z</time>
      </trkpt>
      <trkpt lat="45.93142" lon="4.72748">
        <ele>167.600006104</ele>
        <time>2016-02-26T11:41:07.863Z</time>
      </trkpt>
      <trkpt lat="45.93137" lon="4.72754">
        <ele>167.300003052</ele>
        <time>2016-02-26T11:41:08.883Z</time>
      </trkpt>
      <trkpt lat="45.93132" lon="4.7276">
        <ele>167.199996948</ele>
        <time>2016-02-26T11:41:09.861Z</time>
      </trkpt>
      <trkpt lat="45.93126" lon="4.72766">
        <ele>167.199996948</ele>
        <time>2016-02-26T11:41:10.895Z</time>
      </trkpt>
      <trkpt lat="45.93121" lon="4.72772">
        <ele>167.199996948</ele>
        <time>2016-02-26T11:41:11.867Z</time>
      </trkpt>
      <trkpt lat="45.93116" lon="4.72779">
        <ele>167.100006104</ele>
        <time>2016-02-26T11:41:12.89Z</time>
      </trkpt>
      <trkpt lat="45.93112" lon="4.72785">
        <ele>166.600006104</ele>
        <time>2016-02-26T11:41:13.864Z</time>
      </trkpt>
      <trkpt lat="45.93107" lon="4.72791">
        <ele>166.300003052</ele>
        <time>2016-02-26T11:41:14.899Z</time>
      </trkpt>
      <trkpt lat="45.93103" lon="4.72797">
        <ele>166</ele>
        <time>2016-02-26T11:41:15.89Z</time>
      </trkpt>
      <trkpt lat="45.93098" lon="4.72803">
        <ele>165.800003052</ele>
        <time>2016-02-26T11:41:16.96Z</time>
      </trkpt>
      <trkpt lat="45.93094" lon="4.72808">
        <ele>165.699996948</ele>
        <time>2016-02-26T11:41:17.864Z</time>
      </trkpt>
      <trkpt lat="45.93089" lon="4.72813">
        <ele>165.899993896</ele>
        <time>2016-02-26T11:41:18.885Z</time>
      </trkpt>
      <trkpt lat="45.93084" lon="4.72818">
        <ele>166</ele>
        <time>2016-02-26T11:41:19.863Z</time>
      </trkpt>
      <trkpt lat="45.93079" lon="4.72823">
        <ele>166</ele>
        <time>2016-02-26T11:41:20.906Z</time>
      </trkpt>
      <trkpt lat="45.93074" lon="4.72829">
        <ele>166</ele>
        <time>2016-02-26T11:41:21.863Z</time>
      </trkpt>
      <trkpt lat="45.93069" lon="4.72835">
        <ele>166</ele>
        <time>2016-02-26T11:41:22.883Z</time>
      </trkpt>
      <trkpt lat="45.93064" lon="4.72839">
        <ele>166</ele>
        <time>2016-02-26T11:41:23.863Z</time>
      </trkpt>
      <trkpt lat="45.93059" lon="4.72844">
        <ele>166.100006104</ele>
        <time>2016-02-26T11:41:24.883Z</time>
      </trkpt>
      <trkpt lat="45.93055" lon="4.72848">
        <ele>166</ele>
        <time>2016-02-26T11:41:25.868Z</time>
      </trkpt>
      <trkpt lat="45.93051" lon="4.72854">
        <ele>166</ele>
        <time>2016-02-26T11:41:26.884Z</time>
      </trkpt>
      <trkpt lat="45.93047" lon="4.72861">
        <ele>165.899993896</ele>
        <time>2016-02-26T11:41:27.868Z</time>
      </trkpt>
      <trkpt lat="45.93043" lon="4.72867">
        <ele>165.600006104</ele>
        <time>2016-02-26T11:41:28.886Z</time>
      </trkpt>
      <trkpt lat="45.93038" lon="4.72873">
        <ele>165.5</ele>
        <time>2016-02-26T11:41:29.865Z</time>
      </trkpt>
      <trkpt lat="45.93033" lon="4.72879">
        <ele>165.600006104</ele>
        <time>2016-02-26T11:41:30.906Z</time>
      </trkpt>
      <trkpt lat="45.93027" lon="4.72885">
        <ele>165.699996948</ele>
        <time>2016-02-26T11:41:31.863Z</time>
      </trkpt>
      <trkpt lat="45.93022" lon="4.72891">
        <ele>165.800003052</ele>
        <time>2016-02-26T11:41:32.883Z</time>
      </trkpt>
      <trkpt lat="45.93017" lon="4.72896">
        <ele>165.800003052</ele>
        <time>2016-02-26T11:41:33.861Z</time>
      </trkpt>
      <trkpt lat="45.93013" lon="4.72901">
        <ele>165.600006104</ele>
        <time>2016-02-26T11:41:34.881Z</time>
      </trkpt>
      <trkpt lat="45.93008" lon="4.72907">
        <ele>165.699996948</ele>
        <time>2016-02-26T11:41:35.861Z</time>
      </trkpt>
      <trkpt lat="45.93003" lon="4.72913">
        <ele>165.899993896</ele>
        <time>2016-02-26T11:41:36.905Z</time>
      </trkpt>
      <trkpt lat="45.92998" lon="4.72918">
        <ele>166</ele>
        <time>2016-02-26T11:41:37.864Z</time>
      </trkpt>
      <trkpt lat="45.92994" lon="4.72924">
        <ele>166</ele>
        <time>2016-02-26T11:41:38.886Z</time>
      </trkpt>
      <trkpt lat="45.92989" lon="4.72929">
        <ele>166.199996948</ele>
        <time>2016-02-26T11:41:39.861Z</time>
      </trkpt>
      <trkpt lat="45.92985" lon="4.72934">
        <ele>166.100006104</ele>
        <time>2016-02-26T11:41:40.879Z</time>
      </trkpt>
      <trkpt lat="45.92981" lon="4.72938">
        <ele>166</ele>
        <time>2016-02-26T11:41:41.859Z</time>
      </trkpt>
      <trkpt lat="45.92977" lon="4.72943">
        <ele>165.800003052</ele>
        <time>2016-02-26T11:41:42.882Z</time>
      </trkpt>
      <trkpt lat="45.92973" lon="4.72948">
        <ele>165.600006104</ele>
        <time>2016-02-26T11:41:43.858Z</time>
      </trkpt>
      <trkpt lat="45.92969" lon="4.72953">
        <ele>165.699996948</ele>
        <time>2016-02-26T11:41:44.88Z</time>
      </trkpt>
      <trkpt lat="45.92965" lon="4.72958">
        <ele>165.899993896</ele>
        <time>2016-02-26T11:41:45.862Z</time>
      </trkpt>
      <trkpt lat="45.92961" lon="4.72963">
        <ele>166.100006104</ele>
        <time>2016-02-26T11:41:46.879Z</time>
      </trkpt>
      <trkpt lat="45.92957" lon="4.72968">
        <ele>166.5</ele>
        <time>2016-02-26T11:41:47.862Z</time>
      </trkpt>
      <trkpt lat="45.92953" lon="4.72973">
        <ele>166.600006104</ele>
        <time>2016-02-26T11:41:48.883Z</time>
      </trkpt>
      <trkpt lat="45.92948" lon="4.72979">
        <ele>166.399993896</ele>
        <time>2016-02-26T11:41:49.859Z</time>
      </trkpt>
      <trkpt lat="45.92944" lon="4.72984">
        <ele>166.600006104</ele>
        <time>2016-02-26T11:41:50.88Z</time>
      </trkpt>
      <trkpt lat="45.9294" lon="4.7299">
        <ele>166.399993896</ele>
        <time>2016-02-26T11:41:51.862Z</time>
      </trkpt>
      <trkpt lat="45.92935" lon="4.72995">
        <ele>166.399993896</ele>
        <time>2016-02-26T11:41:52.879Z</time>
      </trkpt>
      <trkpt lat="45.92931" lon="4.73001">
        <ele>166.5</ele>
        <time>2016-02-26T11:41:53.861Z</time>
      </trkpt>
      <trkpt lat="45.92926" lon="4.73006">
        <ele>166.600006104</ele>
        <time>2016-02-26T11:41:54.884Z</time>
      </trkpt>
      <trkpt lat="45.92922" lon="4.73011">
        <ele>166.699996948</ele>
        <time>2016-02-26T11:41:55.862Z</time>
      </trkpt>
      <trkpt lat="45.92917" lon="4.73017">
        <ele>166.800003052</ele>
        <time>2016-02-26T11:41:56.879Z</time>
      </trkpt>
      <trkpt lat="45.92913" lon="4.73022">
        <ele>166.800003052</ele>
        <time>2016-02-26T11:41:57.863Z</time>
      </trkpt>
      <trkpt lat="45.92908" lon="4.73028">
        <ele>166.899993896</ele>
        <time>2016-02-26T11:41:58.949Z</time>
      </trkpt>
      <trkpt lat="45.92904" lon="4.73033">
        <ele>166.899993896</ele>
        <time>2016-02-26T11:41:59.859Z</time>
      </trkpt>
      <trkpt lat="45.929" lon="4.73039">
        <ele>167.100006104</ele>
        <time>2016-02-26T11:42:00.883Z</time>
      </trkpt>
      <trkpt lat="45.92896" lon="4.73045">
        <ele>167.100006104</ele>
        <time>2016-02-26T11:42:01.861Z</time>
      </trkpt>
      <trkpt lat="45.92892" lon="4.73051">
        <ele>167.100006104</ele>
        <time>2016-02-26T11:42:02.883Z</time>
      </trkpt>
      <trkpt lat="45.92888" lon="4.73057">
        <ele>167.100006104</ele>
        <time>2016-02-26T11:42:03.859Z</time>
      </trkpt>
      <trkpt lat="45.92884" lon="4.73063">
        <ele>167</ele>
        <time>2016-02-26T11:42:04.884Z</time>
      </trkpt>
      <trkpt lat="45.92881" lon="4.7307">
        <ele>167</ele>
        <time>2016-02-26T11:42:05.862Z</time>
      </trkpt>
      <trkpt lat="45.92877" lon="4.73077">
        <ele>166.5</ele>
        <time>2016-02-26T11:42:06.882Z</time>
      </trkpt>
      <trkpt lat="45.92875" lon="4.73085">
        <ele>166.5</ele>
        <time>2016-02-26T11:42:07.877Z</time>
      </trkpt>
      <trkpt lat="45.92872" lon="4.73093">
        <ele>166.399993896</ele>
        <time>2016-02-26T11:42:08.892Z</time>
      </trkpt>
      <trkpt lat="45.9287" lon="4.73101">
        <ele>166.300003052</ele>
        <time>2016-02-26T11:42:09.859Z</time>
      </trkpt>
      <trkpt lat="45.92868" lon="4.73108">
        <ele>166.199996948</ele>
        <time>2016-02-26T11:42:10.879Z</time>
      </trkpt>
      <trkpt lat="45.92867" lon="4.73116">
        <ele>166.100006104</ele>
        <time>2016-02-26T11:42:11.859Z</time>
      </trkpt>
      <trkpt lat="45.92866" lon="4.73124">
        <ele>166</ele>
        <time>2016-02-26T11:42:12.899Z</time>
      </trkpt>
      <trkpt lat="45.92864" lon="4.73131">
        <ele>165.899993896</ele>
        <time>2016-02-26T11:42:13.861Z</time>
      </trkpt>
      <trkpt lat="45.92863" lon="4.73138">
        <ele>165.800003052</ele>
        <time>2016-02-26T11:42:14.882Z</time>
      </trkpt>
      <trkpt lat="45.92862" lon="4.73146">
        <ele>165.800003052</ele>
        <time>2016-02-26T11:42:15.895Z</time>
      </trkpt>
      <trkpt lat="45.92861" lon="4.73153">
        <ele>165.699996948</ele>
        <time>2016-02-26T11:42:16.879Z</time>
      </trkpt>
      <trkpt lat="45.92859" lon="4.73161">
        <ele>165.600006104</ele>
        <time>2016-02-26T11:42:17.862Z</time>
      </trkpt>
      <trkpt lat="45.92859" lon="4.73169">
        <ele>165.600006104</ele>
        <time>2016-02-26T11:42:18.882Z</time>
      </trkpt>
      <trkpt lat="45.92858" lon="4.73176">
        <ele>165.600006104</ele>
        <time>2016-02-26T11:42:19.859Z</time>
      </trkpt>
      <trkpt lat="45.92857" lon="4.73184">
        <ele>165.600006104</ele>
        <time>2016-02-26T11:42:20.88Z</time>
      </trkpt>
      <trkpt lat="45.92857" lon="4.73193">
        <ele>165.399993896</ele>
        <time>2016-02-26T11:42:21.859Z</time>
      </trkpt>
      <trkpt lat="45.92856" lon="4.73201">
        <ele>165.300003052</ele>
        <time>2016-02-26T11:42:22.88Z</time>
      </trkpt>
      <trkpt lat="45.92855" lon="4.7321">
        <ele>165.199996948</ele>
        <time>2016-02-26T11:42:23.861Z</time>
      </trkpt>
      <trkpt lat="45.92855" lon="4.73218">
        <ele>165.100006104</ele>
        <time>2016-02-26T11:42:24.882Z</time>
      </trkpt>
      <trkpt lat="45.92854" lon="4.73227">
        <ele>165.100006104</ele>
        <time>2016-02-26T11:42:25.874Z</time>
      </trkpt>
      <trkpt lat="45.92853" lon="4.73236">
        <ele>165.100006104</ele>
        <time>2016-02-26T11:42:26.882Z</time>
      </trkpt>
      <trkpt lat="45.92852" lon="4.73245">
        <ele>165.100006104</ele>
        <time>2016-02-26T11:42:27.861Z</time>
      </trkpt>
      <trkpt lat="45.92851" lon="4.73254">
        <ele>165.100006104</ele>
        <time>2016-02-26T11:42:28.963Z</time>
      </trkpt>
      <trkpt lat="45.92849" lon="4.73264">
        <ele>165.399993896</ele>
        <time>2016-02-26T11:42:29.862Z</time>
      </trkpt>
      <trkpt lat="45.92848" lon="4.73273">
        <ele>165.300003052</ele>
        <time>2016-02-26T11:42:30.887Z</time>
      </trkpt>
      <trkpt lat="45.92847" lon="4.73282">
        <ele>165.199996948</ele>
        <time>2016-02-26T11:42:31.861Z</time>
      </trkpt>
      <trkpt lat="45.92846" lon="4.7329">
        <ele>165.199996948</ele>
        <time>2016-02-26T11:42:32.882Z</time>
      </trkpt>
      <trkpt lat="45.92845" lon="4.73299">
        <ele>165.100006104</ele>
        <time>2016-02-26T11:42:33.861Z</time>
      </trkpt>
      <trkpt lat="45.92844" lon="4.73307">
        <ele>165.100006104</ele>
        <time>2016-02-26T11:42:34.883Z</time>
      </trkpt>
      <trkpt lat="45.92843" lon="4.73315">
        <ele>165</ele>
        <time>2016-02-26T11:42:35.874Z</time>
      </trkpt>
      <trkpt lat="45.92842" lon="4.73323">
        <ele>164.899993896</ele>
        <time>2016-02-26T11:42:36.882Z</time>
      </trkpt>
      <trkpt lat="45.92841" lon="4.73331">
        <ele>164.899993896</ele>
        <time>2016-02-26T11:42:37.863Z</time>
      </trkpt>
      <trkpt lat="45.9284" lon="4.7334">
        <ele>164.899993896</ele>
        <time>2016-02-26T11:42:38.938Z</time>
      </trkpt>
      <trkpt lat="45.92839" lon="4.73348">
        <ele>164.899993896</ele>
        <time>2016-02-26T11:42:39.859Z</time>
      </trkpt>
      <trkpt lat="45.92838" lon="4.73356">
        <ele>165</ele>
        <time>2016-02-26T11:42:40.878Z</time>
      </trkpt>
      <trkpt lat="45.92837" lon="4.73364">
        <ele>165</ele>
        <time>2016-02-26T11:42:41.859Z</time>
      </trkpt>
      <trkpt lat="45.92837" lon="4.73372">
        <ele>164.899993896</ele>
        <time>2016-02-26T11:42:42.884Z</time>
      </trkpt>
      <trkpt lat="45.92836" lon="4.73381">
        <ele>164.899993896</ele>
        <time>2016-02-26T11:42:43.861Z</time>
      </trkpt>
      <trkpt lat="45.92835" lon="4.73389">
        <ele>164.800003052</ele>
        <time>2016-02-26T11:42:44.882Z</time>
      </trkpt>
      <trkpt lat="45.92834" lon="4.73397">
        <ele>164.699996948</ele>
        <time>2016-02-26T11:42:45.862Z</time>
      </trkpt>
      <trkpt lat="45.92833" lon="4.73405">
        <ele>164.800003052</ele>
        <time>2016-02-26T11:42:46.881Z</time>
      </trkpt>
      <trkpt lat="45.92832" lon="4.73413">
        <ele>164.800003052</ele>
        <time>2016-02-26T11:42:47.863Z</time>
      </trkpt>
      <trkpt lat="45.92831" lon="4.73422">
        <ele>164.800003052</ele>
        <time>2016-02-26T11:42:48.882Z</time>
      </trkpt>
      <trkpt lat="45.9283" lon="4.7343">
        <ele>164.899993896</ele>
        <time>2016-02-26T11:42:49.859Z</time>
      </trkpt>
      <trkpt lat="45.92829" lon="4.73438">
        <ele>164.899993896</ele>
        <time>2016-02-26T11:42:50.88Z</time>
      </trkpt>
      <trkpt lat="45.92828" lon="4.73446">
        <ele>165</ele>
        <time>2016-02-26T11:42:51.861Z</time>
      </trkpt>
      <trkpt lat="45.92826" lon="4.73454">
        <ele>164.699996948</ele>
        <time>2016-02-26T11:42:52.879Z</time>
      </trkpt>
      <trkpt lat="45.92825" lon="4.73462">
        <ele>165</ele>
        <time>2016-02-26T11:42:53.861Z</time>
      </trkpt>
      <trkpt lat="45.92824" lon="4.73471">
        <ele>164.699996948</ele>
        <time>2016-02-26T11:42:54.899Z</time>
      </trkpt>
      <trkpt lat="45.92823" lon="4.7348">
        <ele>164.399993896</ele>
        <time>2016-02-26T11:42:55.87Z</time>
      </trkpt>
      <trkpt lat="45.92823" lon="4.73489">
        <ele>164.100006104</ele>
        <time>2016-02-26T11:42:56.884Z</time>
      </trkpt>
      <trkpt lat="45.92822" lon="4.73497">
        <ele>163.800003052</ele>
        <time>2016-02-26T11:42:57.863Z</time>
      </trkpt>
      <trkpt lat="45.92821" lon="4.73506">
        <ele>164</ele>
        <time>2016-02-26T11:42:58.879Z</time>
      </trkpt>
      <trkpt lat="45.9282" lon="4.73515">
        <ele>164.100006104</ele>
        <time>2016-02-26T11:42:59.877Z</time>
      </trkpt>
      <trkpt lat="45.9282" lon="4.73523">
        <ele>163.899993896</ele>
        <time>2016-02-26T11:43:00.919Z</time>
      </trkpt>
      <trkpt lat="45.92819" lon="4.73532">
        <ele>163.899993896</ele>
        <time>2016-02-26T11:43:01.861Z</time>
      </trkpt>
      <trkpt lat="45.92818" lon="4.73541">
        <ele>164</ele>
        <time>2016-02-26T11:43:03.042Z</time>
      </trkpt>
      <trkpt lat="45.92817" lon="4.73549">
        <ele>163.899993896</ele>
        <time>2016-02-26T11:43:03.863Z</time>
      </trkpt>
      <trkpt lat="45.92817" lon="4.73558">
        <ele>163.899993896</ele>
        <time>2016-02-26T11:43:04.88Z</time>
      </trkpt>
      <trkpt lat="45.92817" lon="4.73567">
        <ele>164.199996948</ele>
        <time>2016-02-26T11:43:05.863Z</time>
      </trkpt>
      <trkpt lat="45.92816" lon="4.73575">
        <ele>164.100006104</ele>
        <time>2016-02-26T11:43:06.882Z</time>
      </trkpt>
      <trkpt lat="45.92816" lon="4.73583">
        <ele>163.899993896</ele>
        <time>2016-02-26T11:43:07.861Z</time>
      </trkpt>
      <trkpt lat="45.92815" lon="4.73592">
        <ele>164.199996948</ele>
        <time>2016-02-26T11:43:08.881Z</time>
      </trkpt>
      <trkpt lat="45.92815" lon="4.73601">
        <ele>164.199996948</ele>
        <time>2016-02-26T11:43:09.859Z</time>
      </trkpt>
      <trkpt lat="45.92815" lon="4.73608">
        <ele>164.100006104</ele>
        <time>2016-02-26T11:43:10.885Z</time>
      </trkpt>
      <trkpt lat="45.92815" lon="4.73616">
        <ele>164</ele>
        <time>2016-02-26T11:43:11.859Z</time>
      </trkpt>
      <trkpt lat="45.92814" lon="4.73623">
        <ele>163.899993896</ele>
        <time>2016-02-26T11:43:12.884Z</time>
      </trkpt>
      <trkpt lat="45.9281" lon="4.73629">
        <ele>164.100006104</ele>
        <time>2016-02-26T11:43:13.863Z</time>
      </trkpt>
      <trkpt lat="45.92806" lon="4.73635">
        <ele>164.600006104</ele>
        <time>2016-02-26T11:43:15.085Z</time>
      </trkpt>
      <trkpt lat="45.92803" lon="4.7364">
        <ele>164.800003052</ele>
        <time>2016-02-26T11:43:15.865Z</time>
      </trkpt>
      <trkpt lat="45.928" lon="4.73646">
        <ele>165</ele>
        <time>2016-02-26T11:43:16.887Z</time>
      </trkpt>
      <trkpt lat="45.92798" lon="4.73652">
        <ele>165.100006104</ele>
        <time>2016-02-26T11:43:17.859Z</time>
      </trkpt>
      <trkpt lat="45.92796" lon="4.73659">
        <ele>165.100006104</ele>
        <time>2016-02-26T11:43:18.882Z</time>
      </trkpt>
      <trkpt lat="45.92795" lon="4.73666">
        <ele>165.199996948</ele>
        <time>2016-02-26T11:43:19.863Z</time>
      </trkpt>
      <trkpt lat="45.92794" lon="4.73672">
        <ele>165.300003052</ele>
        <time>2016-02-26T11:43:20.88Z</time>
      </trkpt>
      <trkpt lat="45.92794" lon="4.73679">
        <ele>165.399993896</ele>
        <time>2016-02-26T11:43:21.861Z</time>
      </trkpt>
      <trkpt lat="45.92792" lon="4.73691">
        <ele>165.600006104</ele>
        <time>2016-02-26T11:43:23.882Z</time>
      </trkpt>
      <trkpt lat="45.9279" lon="4.73697">
        <ele>165.699996948</ele>
        <time>2016-02-26T11:43:24.862Z</time>
      </trkpt>
      <trkpt lat="45.92788" lon="4.73704">
        <ele>165.5</ele>
        <time>2016-02-26T11:43:25.906Z</time>
      </trkpt>
      <trkpt lat="45.92787" lon="4.7371">
        <ele>165.199996948</ele>
        <time>2016-02-26T11:43:26.864Z</time>
      </trkpt>
      <trkpt lat="45.92785" lon="4.73721">
        <ele>165.100006104</ele>
        <time>2016-02-26T11:43:28.878Z</time>
      </trkpt>
      <trkpt lat="45.92783" lon="4.73727">
        <ele>164.800003052</ele>
        <time>2016-02-26T11:43:29.866Z</time>
      </trkpt>
      <trkpt lat="45.92776" lon="4.73731">
        <ele>165.699996948</ele>
        <time>2016-02-26T11:43:31.879Z</time>
      </trkpt>
      <trkpt lat="45.92772" lon="4.7373">
        <ele>166.300003052</ele>
        <time>2016-02-26T11:43:32.864Z</time>
      </trkpt>
      <trkpt lat="45.92767" lon="4.73727">
        <ele>166.800003052</ele>
        <time>2016-02-26T11:43:33.914Z</time>
      </trkpt>
      <trkpt lat="45.92763" lon="4.73725">
        <ele>167.300003052</ele>
        <time>2016-02-26T11:43:34.859Z</time>
      </trkpt>
      <trkpt lat="45.92758" lon="4.73723">
        <ele>167.699996948</ele>
        <time>2016-02-26T11:43:35.885Z</time>
      </trkpt>
      <trkpt lat="45.92753" lon="4.73721">
        <ele>167.399993896</ele>
        <time>2016-02-26T11:43:36.879Z</time>
      </trkpt>
      <trkpt lat="45.92747" lon="4.7372">
        <ele>167.899993896</ele>
        <time>2016-02-26T11:43:37.881Z</time>
      </trkpt>
      <trkpt lat="45.9274" lon="4.73719">
        <ele>167.899993896</ele>
        <time>2016-02-26T11:43:38.862Z</time>
      </trkpt>
      <trkpt lat="45.92734" lon="4.73718">
        <ele>168</ele>
        <time>2016-02-26T11:43:39.879Z</time>
      </trkpt>
      <trkpt lat="45.92728" lon="4.73717">
        <ele>168</ele>
        <time>2016-02-26T11:43:40.86Z</time>
      </trkpt>
      <trkpt lat="45.92722" lon="4.73715">
        <ele>168.300003052</ele>
        <time>2016-02-26T11:43:41.881Z</time>
      </trkpt>
      <trkpt lat="45.92715" lon="4.73714">
        <ele>168.699996948</ele>
        <time>2016-02-26T11:43:42.866Z</time>
      </trkpt>
      <trkpt lat="45.92709" lon="4.73712">
        <ele>169.100006104</ele>
        <time>2016-02-26T11:43:43.878Z</time>
      </trkpt>
      <trkpt lat="45.92704" lon="4.7371">
        <ele>169.100006104</ele>
        <time>2016-02-26T11:43:44.862Z</time>
      </trkpt>
      <trkpt lat="45.92698" lon="4.73709">
        <ele>169.199996948</ele>
        <time>2016-02-26T11:43:45.911Z</time>
      </trkpt>
      <trkpt lat="45.92693" lon="4.73708">
        <ele>169.699996948</ele>
        <time>2016-02-26T11:43:46.861Z</time>
      </trkpt>
      <trkpt lat="45.92688" lon="4.73706">
        <ele>169.899993896</ele>
        <time>2016-02-26T11:43:47.881Z</time>
      </trkpt>
      <trkpt lat="45.92682" lon="4.73705">
        <ele>170.5</ele>
        <time>2016-02-26T11:43:48.87Z</time>
      </trkpt>
      <trkpt lat="45.92677" lon="4.73703">
        <ele>170.699996948</ele>
        <time>2016-02-26T11:43:49.939Z</time>
      </trkpt>
      <trkpt lat="45.92673" lon="4.73701">
        <ele>170.600006104</ele>
        <time>2016-02-26T11:43:50.862Z</time>
      </trkpt>
      <trkpt lat="45.92668" lon="4.73698">
        <ele>170.899993896</ele>
        <time>2016-02-26T11:43:51.894Z</time>
      </trkpt>
      <trkpt lat="45.92663" lon="4.73695">
        <ele>171.199996948</ele>
        <time>2016-02-26T11:43:52.863Z</time>
      </trkpt>
      <trkpt lat="45.92659" lon="4.73691">
        <ele>171.5</ele>
        <time>2016-02-26T11:43:53.878Z</time>
      </trkpt>
      <trkpt lat="45.92654" lon="4.73687">
        <ele>171.5</ele>
        <time>2016-02-26T11:43:54.864Z</time>
      </trkpt>
      <trkpt lat="45.92649" lon="4.73682">
        <ele>171.899993896</ele>
        <time>2016-02-26T11:43:55.894Z</time>
      </trkpt>
      <trkpt lat="45.92645" lon="4.73677">
        <ele>172.100006104</ele>
        <time>2016-02-26T11:43:56.862Z</time>
      </trkpt>
      <trkpt lat="45.92642" lon="4.73672">
        <ele>171.600006104</ele>
        <time>2016-02-26T11:43:57.931Z</time>
      </trkpt>
      <trkpt lat="45.92638" lon="4.73667">
        <ele>171.800003052</ele>
        <time>2016-02-26T11:43:58.863Z</time>
      </trkpt>
      <trkpt lat="45.92635" lon="4.7366">
        <ele>171.899993896</ele>
        <time>2016-02-26T11:43:59.88Z</time>
      </trkpt>
      <trkpt lat="45.92633" lon="4.73653">
        <ele>172.100006104</ele>
        <time>2016-02-26T11:44:00.898Z</time>
      </trkpt>
      <trkpt lat="45.9263" lon="4.73646">
        <ele>172.399993896</ele>
        <time>2016-02-26T11:44:01.88Z</time>
      </trkpt>
      <trkpt lat="45.92627" lon="4.73639">
        <ele>172.800003052</ele>
        <time>2016-02-26T11:44:02.86Z</time>
      </trkpt>
      <trkpt lat="45.92624" lon="4.73632">
        <ele>172.899993896</ele>
        <time>2016-02-26T11:44:03.879Z</time>
      </trkpt>
      <trkpt lat="45.92619" lon="4.73626">
        <ele>172.899993896</ele>
        <time>2016-02-26T11:44:04.861Z</time>
      </trkpt>
      <trkpt lat="45.92613" lon="4.73622">
        <ele>172.899993896</ele>
        <time>2016-02-26T11:44:05.883Z</time>
      </trkpt>
      <trkpt lat="45.92607" lon="4.7362">
        <ele>173</ele>
        <time>2016-02-26T11:44:06.862Z</time>
      </trkpt>
      <trkpt lat="45.92601" lon="4.73619">
        <ele>173.399993896</ele>
        <time>2016-02-26T11:44:07.898Z</time>
      </trkpt>
      <trkpt lat="45.92594" lon="4.73618">
        <ele>173.399993896</ele>
        <time>2016-02-26T11:44:08.862Z</time>
      </trkpt>
      <trkpt lat="45.92588" lon="4.73619">
        <ele>173.399993896</ele>
        <time>2016-02-26T11:44:09.88Z</time>
      </trkpt>
      <trkpt lat="45.92583" lon="4.7362">
        <ele>173.5</ele>
        <time>2016-02-26T11:44:10.859Z</time>
      </trkpt>
      <trkpt lat="45.92578" lon="4.73621">
        <ele>173.800003052</ele>
        <time>2016-02-26T11:44:11.88Z</time>
      </trkpt>
      <trkpt lat="45.92572" lon="4.73622">
        <ele>173.699996948</ele>
        <time>2016-02-26T11:44:12.866Z</time>
      </trkpt>
      <trkpt lat="45.92567" lon="4.73624">
        <ele>173.300003052</ele>
        <time>2016-02-26T11:44:13.88Z</time>
      </trkpt>
      <trkpt lat="45.92562" lon="4.73626">
        <ele>173</ele>
        <time>2016-02-26T11:44:14.867Z</time>
      </trkpt>
      <trkpt lat="45.92557" lon="4.73627">
        <ele>172.899993896</ele>
        <time>2016-02-26T11:44:15.886Z</time>
      </trkpt>
      <trkpt lat="45.92552" lon="4.7363">
        <ele>172.699996948</ele>
        <time>2016-02-26T11:44:16.863Z</time>
      </trkpt>
      <trkpt lat="45.92545" lon="4.73631">
        <ele>172.100006104</ele>
        <time>2016-02-26T11:44:17.892Z</time>
      </trkpt>
      <trkpt lat="45.92539" lon="4.73632">
        <ele>171.300003052</ele>
        <time>2016-02-26T11:44:18.866Z</time>
      </trkpt>
      <trkpt lat="45.92534" lon="4.73632">
        <ele>171.300003052</ele>
        <time>2016-02-26T11:44:19.88Z</time>
      </trkpt>
      <trkpt lat="45.92528" lon="4.73633">
        <ele>170.199996948</ele>
        <time>2016-02-26T11:44:20.863Z</time>
      </trkpt>
      <trkpt lat="45.92523" lon="4.73633">
        <ele>170.300003052</ele>
        <time>2016-02-26T11:44:21.879Z</time>
      </trkpt>
      <trkpt lat="45.92517" lon="4.73634">
        <ele>170.300003052</ele>
        <time>2016-02-26T11:44:22.86Z</time>
      </trkpt>
      <trkpt lat="45.92512" lon="4.73635">
        <ele>170.5</ele>
        <time>2016-02-26T11:44:23.948Z</time>
      </trkpt>
      <trkpt lat="45.92507" lon="4.73636">
        <ele>170.699996948</ele>
        <time>2016-02-26T11:44:24.865Z</time>
      </trkpt>
      <trkpt lat="45.92502" lon="4.73636">
        <ele>170.699996948</ele>
        <time>2016-02-26T11:44:25.919Z</time>
      </trkpt>
      <trkpt lat="45.92497" lon="4.73636">
        <ele>170.800003052</ele>
        <time>2016-02-26T11:44:26.862Z</time>
      </trkpt>
      <trkpt lat="45.92492" lon="4.73635">
        <ele>171.399993896</ele>
        <time>2016-02-26T11:44:27.879Z</time>
      </trkpt>
      <trkpt lat="45.92488" lon="4.73635">
        <ele>171.600006104</ele>
        <time>2016-02-26T11:44:28.862Z</time>
      </trkpt>
      <trkpt lat="45.92479" lon="4.73634">
        <ele>171.5</ele>
        <time>2016-02-26T11:44:30.903Z</time>
      </trkpt>
      <trkpt lat="45.92475" lon="4.73636">
        <ele>171.5</ele>
        <time>2016-02-26T11:44:31.857Z</time>
      </trkpt>
      <trkpt lat="45.92471" lon="4.73639">
        <ele>171.399993896</ele>
        <time>2016-02-26T11:44:32.88Z</time>
      </trkpt>
      <trkpt lat="45.92468" lon="4.73645">
        <ele>171.300003052</ele>
        <time>2016-02-26T11:44:33.878Z</time>
      </trkpt>
      <trkpt lat="45.92466" lon="4.73652">
        <ele>171.100006104</ele>
        <time>2016-02-26T11:44:34.878Z</time>
      </trkpt>
      <trkpt lat="45.92465" lon="4.73658">
        <ele>170.800003052</ele>
        <time>2016-02-26T11:44:35.861Z</time>
      </trkpt>
      <trkpt lat="45.92464" lon="4.7367">
        <ele>170.899993896</ele>
        <time>2016-02-26T11:44:37.88Z</time>
      </trkpt>
      <trkpt lat="45.92464" lon="4.73675">
        <ele>170.699996948</ele>
        <time>2016-02-26T11:44:38.864Z</time>
      </trkpt>
      <trkpt lat="45.92463" lon="4.73687">
        <ele>170.600006104</ele>
        <time>2016-02-26T11:44:40.882Z</time>
      </trkpt>
      <trkpt lat="45.92462" lon="4.73692">
        <ele>170.600006104</ele>
        <time>2016-02-26T11:44:41.862Z</time>
      </trkpt>
      <trkpt lat="45.92461" lon="4.73704">
        <ele>170.699996948</ele>
        <time>2016-02-26T11:44:44.881Z</time>
      </trkpt>
      <trkpt lat="45.92461" lon="4.73705">
        <ele>170.600006104</ele>
        <time>2016-02-26T11:44:45.928Z</time>
      </trkpt>
      <trkpt lat="45.92461" lon="4.73705">
        <ele>170.600006104</ele>
        <time>2016-02-26T11:44:46.061Z</time>
      </trkpt>
      <trkpt lat="45.92461" lon="4.73706">
        <ele>170</ele>
        <time>2016-02-26T11:45:20.467Z</time>
      </trkpt>
    </trkseg>
  </trk>
</gpx>